<?xml version='1.0' encoding='UTF-8'?><gpx version="1.1" creator="JPX - https://github.com/jenetics/jpx" xmlns="http://www.topografix.com/GPX/1/1"><trk><trkseg><trkpt lat="46.46958548099347" lon="10.36771388617736"><ele>1212.0</ele><time>2026-05-02T07:14:42.778Z</time></trkpt><trkpt lat="46.46955748458186" lon="10.367605165887174"><ele>1212.0</ele><time>2026-05-02T07:16:00.573Z</time></trkpt><trkpt lat="46.46942195997138" lon="10.367551116947563"><ele>1212.0</ele><time>2026-05-02T07:16:06.577Z</time></trkpt><trkpt lat="46.469290241075385" lon="10.367675995526406"><ele>1212.0</ele><time>2026-05-02T07:16:50.001Z</time></trkpt><trkpt lat="46.46935794890028" lon="10.367577754027945"><ele>1212.0</ele><time>2026-05-02T07:16:57Z</time></trkpt><trkpt lat="46.46942304534487" lon="10.36749022522333"><ele>1212.0</ele><time>2026-05-02T07:22:56.999Z</time></trkpt><trkpt lat="46.4694689377349" lon="10.367400399484445"><ele>1212.0</ele><time>2026-05-02T07:22:59.999Z</time></trkpt><trkpt lat="46.469574251339225" lon="10.367466317941327"><ele>1212.0</ele><time>2026-05-02T07:23:04Z</time></trkpt><trkpt lat="46.46966389518897" lon="10.367509688490989"><ele>1212.0</ele><time>2026-05-02T07:23:06Z</time></trkpt><trkpt lat="46.4697364372983" lon="10.36754615221031"><ele>1213.8333333333333</ele><time>2026-05-02T07:23:08Z</time></trkpt><trkpt lat="46.469777656127334" lon="10.367652347183661"><ele>1215.6666666666667</ele><time>2026-05-02T07:23:10Z</time></trkpt><trkpt lat="46.46979858189219" lon="10.367812075973925"><ele>1217.5</ele><time>2026-05-02T07:23:12Z</time></trkpt><trkpt lat="46.46981606700077" lon="10.367903445913184"><ele>1219.3333333333335</ele><time>2026-05-02T07:23:13Z</time></trkpt><trkpt lat="46.469833324479026" lon="10.368005346399684"><ele>1221.1666666666667</ele><time>2026-05-02T07:23:14Z</time></trkpt><trkpt lat="46.46981895825048" lon="10.368123866959717"><ele>1223.0</ele><time>2026-05-02T07:23:15Z</time></trkpt><trkpt lat="46.46979568723943" lon="10.36823987580578"><ele>1223.2</ele><time>2026-05-02T07:23:16Z</time></trkpt><trkpt lat="46.46977838648811" lon="10.368378387135202"><ele>1223.4</ele><time>2026-05-02T07:23:17Z</time></trkpt><trkpt lat="46.46972365736461" lon="10.368558037026993"><ele>1223.6000000000001</ele><time>2026-05-02T07:23:18Z</time></trkpt><trkpt lat="46.469706652292786" lon="10.3687160632799"><ele>1223.8</ele><time>2026-05-02T07:23:20Z</time></trkpt><trkpt lat="46.469716635024675" lon="10.368826282447381"><ele>1224.0</ele><time>2026-05-02T07:23:29Z</time></trkpt><trkpt lat="46.46968768893015" lon="10.368985483476834"><ele>1224.3333333333333</ele><time>2026-05-02T07:23:31Z</time></trkpt><trkpt lat="46.46966413974344" lon="10.36908856247173"><ele>1224.6666666666667</ele><time>2026-05-02T07:23:32Z</time></trkpt><trkpt lat="46.469632794889904" lon="10.369203199864108"><ele>1225.0</ele><time>2026-05-02T07:23:33Z</time></trkpt><trkpt lat="46.46960736534675" lon="10.369330329194069"><ele>1225.3333333333335</ele><time>2026-05-02T07:23:34Z</time></trkpt><trkpt lat="46.469608856920345" lon="10.369459795706259"><ele>1225.6666666666667</ele><time>2026-05-02T07:23:35Z</time></trkpt><trkpt lat="46.469601907241554" lon="10.369578507334987"><ele>1226.0</ele><time>2026-05-02T07:23:36Z</time></trkpt><trkpt lat="46.469596325021264" lon="10.36970512527678"><ele>1224.0</ele><time>2026-05-02T07:23:36.999Z</time></trkpt><trkpt lat="46.46958475027226" lon="10.36983954906626"><ele>1222.0</ele><time>2026-05-02T07:23:37.999Z</time></trkpt><trkpt lat="46.46957495381443" lon="10.369979680634776"><ele>1220.0</ele><time>2026-05-02T07:23:38.999Z</time></trkpt><trkpt lat="46.46956534084272" lon="10.370119682940675"><ele>1218.0</ele><time>2026-05-02T07:23:39.999Z</time></trkpt><trkpt lat="46.4695513326552" lon="10.370263435236094"><ele>1216.0</ele><time>2026-05-02T07:23:40.999Z</time></trkpt><trkpt lat="46.46952618178251" lon="10.370421070979841"><ele>1215.8</ele><time>2026-05-02T07:23:41.999Z</time></trkpt><trkpt lat="46.46949127658198" lon="10.370571929066475"><ele>1215.6</ele><time>2026-05-02T07:23:42.999Z</time></trkpt><trkpt lat="46.4694386297946" lon="10.37070266356478"><ele>1215.4</ele><time>2026-05-02T07:23:43.999Z</time></trkpt><trkpt lat="46.469388864679665" lon="10.370847792013734"><ele>1215.2</ele><time>2026-05-02T07:23:44.999Z</time></trkpt><trkpt lat="46.4693332018689" lon="10.370991960412596"><ele>1215.0</ele><time>2026-05-02T07:23:45.999Z</time></trkpt><trkpt lat="46.46924945686794" lon="10.37109815523163"><ele>1215.0</ele><time>2026-05-02T07:23:46.999Z</time></trkpt><trkpt lat="46.469181686212536" lon="10.371196051387486"><ele>1215.0</ele><time>2026-05-02T07:23:47.999Z</time></trkpt><trkpt lat="46.46912410303222" lon="10.37130626721678"><ele>1215.0</ele><time>2026-05-02T07:23:48.999Z</time></trkpt><trkpt lat="46.46904828249027" lon="10.371358735178765"><ele>1215.0</ele><time>2026-05-02T07:23:49.999Z</time></trkpt><trkpt lat="46.468936525576176" lon="10.371469094307946"><ele>1215.0</ele><time>2026-05-02T07:23:51.999Z</time></trkpt><trkpt lat="46.46887588424375" lon="10.371551322458773"><ele>1214.6666666666667</ele><time>2026-05-02T07:23:53.999Z</time></trkpt><trkpt lat="46.46881000703945" lon="10.371576626546535"><ele>1214.3333333333333</ele><time>2026-05-02T07:25:18.999Z</time></trkpt><trkpt lat="46.46872661961159" lon="10.371654053431072"><ele>1214.0</ele><time>2026-05-02T07:25:20.999Z</time></trkpt><trkpt lat="46.46863507614318" lon="10.371713440242504"><ele>1213.6666666666665</ele><time>2026-05-02T07:25:22.999Z</time></trkpt><trkpt lat="46.46857355175881" lon="10.371735914904072"><ele>1213.3333333333333</ele><time>2026-05-02T07:25:23.999Z</time></trkpt><trkpt lat="46.46850722215675" lon="10.371747565222295"><ele>1213.0</ele><time>2026-05-02T07:25:24.999Z</time></trkpt><trkpt lat="46.46844459823631" lon="10.37176083103913"><ele>1212.6666666666665</ele><time>2026-05-02T07:25:25.999Z</time></trkpt><trkpt lat="46.46837682449955" lon="10.371773039588945"><ele>1212.3333333333333</ele><time>2026-05-02T07:25:26.999Z</time></trkpt><trkpt lat="46.46830988957765" lon="10.371791335862056"><ele>1212.0</ele><time>2026-05-02T07:25:27.999Z</time></trkpt><trkpt lat="46.46823968994402" lon="10.371801714769857"><ele>1211.6666666666667</ele><time>2026-05-02T07:25:28.999Z</time></trkpt><trkpt lat="46.46816350167923" lon="10.37181246696342"><ele>1211.3333333333335</ele><time>2026-05-02T07:25:29.999Z</time></trkpt><trkpt lat="46.46804347848893" lon="10.371776803427002"><ele>1211.0</ele><time>2026-05-02T07:25:31.999Z</time></trkpt><trkpt lat="46.467981666084306" lon="10.371740554742752"><ele>1210.2</ele><time>2026-05-02T07:25:32.999Z</time></trkpt><trkpt lat="46.46790901179078" lon="10.371707913128647"><ele>1209.3999999999999</ele><time>2026-05-02T07:25:33.999Z</time></trkpt><trkpt lat="46.46783607820666" lon="10.371668224579482"><ele>1208.6</ele><time>2026-05-02T07:25:34.999Z</time></trkpt><trkpt lat="46.467747893971435" lon="10.371619113973047"><ele>1207.8</ele><time>2026-05-02T07:25:35.999Z</time></trkpt><trkpt lat="46.4676042230129" lon="10.371566039184232"><ele>1207.0</ele><time>2026-05-02T07:25:36.999Z</time></trkpt><trkpt lat="46.467440452410216" lon="10.37144475444562"><ele>1207.0</ele><time>2026-05-02T07:25:37.999Z</time></trkpt><trkpt lat="46.467503544807684" lon="10.371471773387032"><ele>1207.0</ele><time>2026-05-02T07:25:38.999Z</time></trkpt><trkpt lat="46.467409850667636" lon="10.371412357668396"><ele>1207.0</ele><time>2026-05-02T07:25:39.999Z</time></trkpt><trkpt lat="46.467325385512154" lon="10.371363954892647"><ele>1207.0</ele><time>2026-05-02T07:25:40.999Z</time></trkpt><trkpt lat="46.467251757653806" lon="10.371318948340251"><ele>1207.0</ele><time>2026-05-02T07:25:41.999Z</time></trkpt><trkpt lat="46.46717330426819" lon="10.371296543017685"><ele>1207.0</ele><time>2026-05-02T07:25:44.999Z</time></trkpt><trkpt lat="46.467115147801266" lon="10.371248650794588"><ele>1205.4</ele><time>2026-05-02T07:25:46.999Z</time></trkpt><trkpt lat="46.46700210494881" lon="10.371166791543867"><ele>1203.8000000000002</ele><time>2026-05-02T07:25:48.999Z</time></trkpt><trkpt lat="46.46692433455719" lon="10.371105038948262"><ele>1202.2</ele><time>2026-05-02T07:25:49.999Z</time></trkpt><trkpt lat="46.466836589860755" lon="10.371027489547588"><ele>1200.6000000000001</ele><time>2026-05-02T07:25:50.999Z</time></trkpt><trkpt lat="46.46675922634968" lon="10.370948532997117"><ele>1199.0</ele><time>2026-05-02T07:25:51.999Z</time></trkpt><trkpt lat="46.46669271005381" lon="10.370886525920389"><ele>1199.0</ele><time>2026-05-02T07:25:52.999Z</time></trkpt><trkpt lat="46.466592719082364" lon="10.370790816762318"><ele>1199.0</ele><time>2026-05-02T07:25:54.999Z</time></trkpt><trkpt lat="46.46653077327762" lon="10.370723297150917"><ele>1199.0</ele><time>2026-05-02T07:25:55.999Z</time></trkpt><trkpt lat="46.4664591643551" lon="10.370634132774796"><ele>1199.0</ele><time>2026-05-02T07:25:56.999Z</time></trkpt><trkpt lat="46.46638454069837" lon="10.37054461871231"><ele>1199.0</ele><time>2026-05-02T07:25:57.999Z</time></trkpt><trkpt lat="46.46631624894641" lon="10.370447868632652"><ele>1198.25</ele><time>2026-05-02T07:25:58.999Z</time></trkpt><trkpt lat="46.466238292007525" lon="10.370339399291712"><ele>1197.5</ele><time>2026-05-02T07:25:59.999Z</time></trkpt><trkpt lat="46.46615391874866" lon="10.370215611276285"><ele>1196.75</ele><time>2026-05-02T07:26:00.999Z</time></trkpt><trkpt lat="46.46606553111059" lon="10.370080334687339"><ele>1196.0</ele><time>2026-05-02T07:26:01.999Z</time></trkpt><trkpt lat="46.4659877377632" lon="10.36987547825713"><ele>1196.0</ele><time>2026-05-02T07:26:02.999Z</time></trkpt><trkpt lat="46.46590040844695" lon="10.369738001299247"><ele>1196.0</ele><time>2026-05-02T07:26:03.999Z</time></trkpt><trkpt lat="46.46583053523419" lon="10.369601062528778"><ele>1196.0</ele><time>2026-05-02T07:26:04.999Z</time></trkpt><trkpt lat="46.465761065567435" lon="10.369455621987061"><ele>1196.0</ele><time>2026-05-02T07:26:05.999Z</time></trkpt><trkpt lat="46.46568765508945" lon="10.369299959211133"><ele>1195.75</ele><time>2026-05-02T07:26:06.999Z</time></trkpt><trkpt lat="46.465610460192835" lon="10.36913412591579"><ele>1195.5</ele><time>2026-05-02T07:26:07.999Z</time></trkpt><trkpt lat="46.46552042935321" lon="10.368965454047892"><ele>1195.25</ele><time>2026-05-02T07:26:08.999Z</time></trkpt><trkpt lat="46.46542684756111" lon="10.368784481552579"><ele>1195.0</ele><time>2026-05-02T07:26:09.999Z</time></trkpt><trkpt lat="46.4653355214417" lon="10.368599991320659"><ele>1194.3333333333333</ele><time>2026-05-02T07:26:10.999Z</time></trkpt><trkpt lat="46.46523763717402" lon="10.368427381911115"><ele>1193.6666666666667</ele><time>2026-05-02T07:26:11.999Z</time></trkpt><trkpt lat="46.46514516642623" lon="10.368247610282607"><ele>1193.0</ele><time>2026-05-02T07:26:12.999Z</time></trkpt><trkpt lat="46.46505516135775" lon="10.36805412449501"><ele>1192.3333333333335</ele><time>2026-05-02T07:26:13.999Z</time></trkpt><trkpt lat="46.46497641498739" lon="10.367871377901105"><ele>1191.6666666666667</ele><time>2026-05-02T07:26:14.999Z</time></trkpt><trkpt lat="46.46488376788795" lon="10.367680149300881"><ele>1191.0</ele><time>2026-05-02T07:26:15.999Z</time></trkpt><trkpt lat="46.464785164762404" lon="10.367487718133066"><ele>1191.0</ele><time>2026-05-02T07:26:16.999Z</time></trkpt><trkpt lat="46.46468885859858" lon="10.367291219576394"><ele>1191.0</ele><time>2026-05-02T07:26:17.999Z</time></trkpt><trkpt lat="46.46458535612216" lon="10.367103842543163"><ele>1191.0</ele><time>2026-05-02T07:26:18.999Z</time></trkpt><trkpt lat="46.46448475410579" lon="10.366906471875025"><ele>1189.75</ele><time>2026-05-02T07:26:19.999Z</time></trkpt><trkpt lat="46.464394872656634" lon="10.366722749248588"><ele>1188.5</ele><time>2026-05-02T07:26:20.999Z</time></trkpt><trkpt lat="46.46431015035042" lon="10.366544550363788"><ele>1187.25</ele><time>2026-05-02T07:26:21.999Z</time></trkpt><trkpt lat="46.46422534661166" lon="10.366375437902068"><ele>1186.0</ele><time>2026-05-02T07:26:22.999Z</time></trkpt><trkpt lat="46.464145188609095" lon="10.36620779743002"><ele>1186.0</ele><time>2026-05-02T07:26:23.999Z</time></trkpt><trkpt lat="46.46406501203837" lon="10.36605558683147"><ele>1186.0</ele><time>2026-05-02T07:26:24.999Z</time></trkpt><trkpt lat="46.46398848121437" lon="10.365909983786079"><ele>1186.0</ele><time>2026-05-02T07:26:25.999Z</time></trkpt><trkpt lat="46.46392271382573" lon="10.36577871007621"><ele>1186.0</ele><time>2026-05-02T07:26:26.999Z</time></trkpt><trkpt lat="46.463870185173846" lon="10.365670916469558"><ele>1186.0</ele><time>2026-05-02T07:26:27.999Z</time></trkpt><trkpt lat="46.4638264894519" lon="10.365570793413507"><ele>1186.0</ele><time>2026-05-02T07:26:28.999Z</time></trkpt><trkpt lat="46.46378121957768" lon="10.365488579327177"><ele>1186.0</ele><time>2026-05-02T07:26:29.999Z</time></trkpt><trkpt lat="46.46375512380769" lon="10.365398795229082"><ele>1186.0</ele><time>2026-05-02T07:26:30.999Z</time></trkpt><trkpt lat="46.46373540635801" lon="10.3653026799938"><ele>1186.0</ele><time>2026-05-02T07:26:31.999Z</time></trkpt><trkpt lat="46.463697960225744" lon="10.365200988179062"><ele>1186.0</ele><time>2026-05-02T07:26:32.999Z</time></trkpt><trkpt lat="46.46361589373864" lon="10.365135493982777"><ele>1185.2</ele><time>2026-05-02T07:26:34.999Z</time></trkpt><trkpt lat="46.46354623886899" lon="10.365059205077301"><ele>1184.3999999999999</ele><time>2026-05-02T07:26:36.999Z</time></trkpt><trkpt lat="46.463469364362965" lon="10.364899196203135"><ele>1183.6</ele><time>2026-05-02T07:26:38.999Z</time></trkpt><trkpt lat="46.46342528616812" lon="10.364787073274485"><ele>1182.8</ele><time>2026-05-02T07:26:39.999Z</time></trkpt><trkpt lat="46.463367139603896" lon="10.364655210133146"><ele>1182.0</ele><time>2026-05-02T07:26:40.999Z</time></trkpt><trkpt lat="46.46330558738839" lon="10.364522330284059"><ele>1181.75</ele><time>2026-05-02T07:26:41.999Z</time></trkpt><trkpt lat="46.46323596391604" lon="10.364384988292857"><ele>1181.5</ele><time>2026-05-02T07:26:42.999Z</time></trkpt><trkpt lat="46.463154749822266" lon="10.364226320457034"><ele>1181.25</ele><time>2026-05-02T07:26:43.999Z</time></trkpt><trkpt lat="46.46307251714879" lon="10.364061805113877"><ele>1181.0</ele><time>2026-05-02T07:26:44.999Z</time></trkpt><trkpt lat="46.46299454644656" lon="10.363904287738654"><ele>1180.25</ele><time>2026-05-02T07:26:45.999Z</time></trkpt><trkpt lat="46.462914375787754" lon="10.36373952894277"><ele>1179.5</ele><time>2026-05-02T07:26:46.999Z</time></trkpt><trkpt lat="46.46283210097456" lon="10.363569407737595"><ele>1178.75</ele><time>2026-05-02T07:26:47.999Z</time></trkpt><trkpt lat="46.462739078672804" lon="10.363383368895274"><ele>1178.0</ele><time>2026-05-02T07:26:48.999Z</time></trkpt><trkpt lat="46.46264083134912" lon="10.363198930719502"><ele>1178.3333333333335</ele><time>2026-05-02T07:26:49.999Z</time></trkpt><trkpt lat="46.46254335954026" lon="10.36300703891931"><ele>1178.6666666666667</ele><time>2026-05-02T07:26:50.999Z</time></trkpt><trkpt lat="46.46244563460309" lon="10.362803810956896"><ele>1179.0</ele><time>2026-05-02T07:26:51.999Z</time></trkpt><trkpt lat="46.46234100923586" lon="10.362605163068851"><ele>1179.0</ele><time>2026-05-02T07:26:52.999Z</time></trkpt><trkpt lat="46.462233557044165" lon="10.362397636726971"><ele>1179.0</ele><time>2026-05-02T07:26:53.999Z</time></trkpt><trkpt lat="46.462126889570534" lon="10.362183341599259"><ele>1179.0</ele><time>2026-05-02T07:26:54.999Z</time></trkpt><trkpt lat="46.462017944533386" lon="10.361957114431544"><ele>1178.0</ele><time>2026-05-02T07:26:55.999Z</time></trkpt><trkpt lat="46.46191522035726" lon="10.36174223661311"><ele>1177.0</ele><time>2026-05-02T07:26:56.999Z</time></trkpt><trkpt lat="46.461805443986286" lon="10.361540297408512"><ele>1176.0</ele><time>2026-05-02T07:26:57.999Z</time></trkpt><trkpt lat="46.46174071238838" lon="10.361376794028063"><ele>1176.3333333333333</ele><time>2026-05-02T07:26:58.999Z</time></trkpt><trkpt lat="46.46165607707286" lon="10.361218965428748"><ele>1176.6666666666665</ele><time>2026-05-02T07:26:59.999Z</time></trkpt><trkpt lat="46.46156860161123" lon="10.360975740190797"><ele>1177.0</ele><time>2026-05-02T07:27:00.999Z</time></trkpt><trkpt lat="46.461400710044224" lon="10.360677062302514"><ele>1176.6666666666665</ele><time>2026-05-02T07:27:01.999Z</time></trkpt><trkpt lat="46.46129710413355" lon="10.360457675973022"><ele>1176.3333333333333</ele><time>2026-05-02T07:27:02.999Z</time></trkpt><trkpt lat="46.461191925001145" lon="10.360251173676286"><ele>1176.0</ele><time>2026-05-02T07:27:03.999Z</time></trkpt><trkpt lat="46.461088799834116" lon="10.36006165660486"><ele>1175.25</ele><time>2026-05-02T07:27:04.999Z</time></trkpt><trkpt lat="46.460987308710514" lon="10.35987678119936"><ele>1174.5</ele><time>2026-05-02T07:27:05.999Z</time></trkpt><trkpt lat="46.460895676534236" lon="10.359720444155526"><ele>1173.75</ele><time>2026-05-02T07:27:06.999Z</time></trkpt><trkpt lat="46.46079540181714" lon="10.35957812797238"><ele>1173.0</ele><time>2026-05-02T07:27:07.999Z</time></trkpt><trkpt lat="46.46068977837023" lon="10.359455020137561"><ele>1172.75</ele><time>2026-05-02T07:27:08.999Z</time></trkpt><trkpt lat="46.46057110979689" lon="10.359333619214013"><ele>1172.5</ele><time>2026-05-02T07:27:09.999Z</time></trkpt><trkpt lat="46.4604376607949" lon="10.359224533797509"><ele>1172.25</ele><time>2026-05-02T07:27:10.999Z</time></trkpt><trkpt lat="46.460300021242496" lon="10.359133826849355"><ele>1172.0</ele><time>2026-05-02T07:27:11.999Z</time></trkpt><trkpt lat="46.46014848301724" lon="10.359052977095786"><ele>1171.6666666666667</ele><time>2026-05-02T07:27:12.999Z</time></trkpt><trkpt lat="46.45998886717064" lon="10.359001127453977"><ele>1171.3333333333333</ele><time>2026-05-02T07:27:14Z</time></trkpt><trkpt lat="46.459826636238965" lon="10.358970778775543"><ele>1171.0</ele><time>2026-05-02T07:27:15Z</time></trkpt><trkpt lat="46.459667240244535" lon="10.35896724590322"><ele>1170.3333333333333</ele><time>2026-05-02T07:27:16Z</time></trkpt><trkpt lat="46.45950793900027" lon="10.359008268405505"><ele>1169.6666666666667</ele><time>2026-05-02T07:27:17Z</time></trkpt><trkpt lat="46.45935274904886" lon="10.359034843290651"><ele>1169.0</ele><time>2026-05-02T07:27:18Z</time></trkpt><trkpt lat="46.459200687809265" lon="10.359060296169005"><ele>1169.0</ele><time>2026-05-02T07:27:19Z</time></trkpt><trkpt lat="46.45905023099647" lon="10.359090701748997"><ele>1169.0</ele><time>2026-05-02T07:27:20Z</time></trkpt><trkpt lat="46.458889282127934" lon="10.359097378518396"><ele>1169.0</ele><time>2026-05-02T07:27:21Z</time></trkpt><trkpt lat="46.45872751728512" lon="10.359124945203549"><ele>1168.0</ele><time>2026-05-02T07:27:22Z</time></trkpt><trkpt lat="46.45857586990446" lon="10.359151186169854"><ele>1167.0</ele><time>2026-05-02T07:27:23Z</time></trkpt><trkpt lat="46.45842147443756" lon="10.359179270711492"><ele>1166.0</ele><time>2026-05-02T07:27:24Z</time></trkpt><trkpt lat="46.458263486807546" lon="10.359208102723162"><ele>1166.0</ele><time>2026-05-02T07:27:25Z</time></trkpt><trkpt lat="46.45810264565784" lon="10.359237629476587"><ele>1166.0</ele><time>2026-05-02T07:27:26Z</time></trkpt><trkpt lat="46.4579439835778" lon="10.35928868908285"><ele>1166.0</ele><time>2026-05-02T07:27:27Z</time></trkpt><trkpt lat="46.45779546853975" lon="10.359316461645435"><ele>1166.3333333333335</ele><time>2026-05-02T07:27:28Z</time></trkpt><trkpt lat="46.457646227971374" lon="10.359345198824599"><ele>1166.6666666666667</ele><time>2026-05-02T07:27:29Z</time></trkpt><trkpt lat="46.457497862701494" lon="10.35934805623518"><ele>1167.0</ele><time>2026-05-02T07:27:30Z</time></trkpt><trkpt lat="46.45732594929254" lon="10.35939804146858"><ele>1167.0</ele><time>2026-05-02T07:27:31Z</time></trkpt><trkpt lat="46.457148283885545" lon="10.3594261423629"><ele>1167.0</ele><time>2026-05-02T07:27:32Z</time></trkpt><trkpt lat="46.45698016604619" lon="10.359440751109055"><ele>1167.0</ele><time>2026-05-02T07:27:33Z</time></trkpt><trkpt lat="46.45679182037217" lon="10.359474474866895"><ele>1166.0</ele><time>2026-05-02T07:27:34Z</time></trkpt><trkpt lat="46.45659829190774" lon="10.359509841225202"><ele>1165.0</ele><time>2026-05-02T07:27:35Z</time></trkpt><trkpt lat="46.456446444555944" lon="10.35955476310072"><ele>1164.0</ele><time>2026-05-02T07:27:36Z</time></trkpt><trkpt lat="46.456179328821804" lon="10.3595861712339"><ele>1162.5</ele><time>2026-05-02T07:27:37Z</time></trkpt><trkpt lat="46.45594688827064" lon="10.359627722994668"><ele>1161.0</ele><time>2026-05-02T07:27:38Z</time></trkpt><trkpt lat="46.45572929155714" lon="10.359666621161479"><ele>1161.0</ele><time>2026-05-02T07:27:39Z</time></trkpt><trkpt lat="46.45549496401958" lon="10.359708759239894"><ele>1161.0</ele><time>2026-05-02T07:27:40Z</time></trkpt><trkpt lat="46.45528233244776" lon="10.359767695851644"><ele>1161.0</ele><time>2026-05-02T07:27:41Z</time></trkpt><trkpt lat="46.45506129237461" lon="10.359799994732453"><ele>1161.0</ele><time>2026-05-02T07:27:42Z</time></trkpt><trkpt lat="46.454839807669586" lon="10.359847321827072"><ele>1161.0</ele><time>2026-05-02T07:27:43Z</time></trkpt><trkpt lat="46.45462206033031" lon="10.359888883127688"><ele>1160.3333333333333</ele><time>2026-05-02T07:27:44Z</time></trkpt><trkpt lat="46.45441361615007" lon="10.359925166877328"><ele>1159.6666666666665</ele><time>2026-05-02T07:27:45Z</time></trkpt><trkpt lat="46.45420973983155" lon="10.359939502770947"><ele>1159.0</ele><time>2026-05-02T07:27:46Z</time></trkpt><trkpt lat="46.4540223625416" lon="10.359998216802657"><ele>1159.0</ele><time>2026-05-02T07:27:47Z</time></trkpt><trkpt lat="46.45384649381723" lon="10.360029009219977"><ele>1159.0</ele><time>2026-05-02T07:27:48Z</time></trkpt><trkpt lat="46.453687315999076" lon="10.36006128532779"><ele>1159.0</ele><time>2026-05-02T07:27:49Z</time></trkpt><trkpt lat="46.45354528852791" lon="10.360080627301423"><ele>1159.5</ele><time>2026-05-02T07:27:50Z</time></trkpt><trkpt lat="46.453420371156774" lon="10.360079533563932"><ele>1160.0</ele><time>2026-05-02T07:27:51Z</time></trkpt><trkpt lat="46.45330873413713" lon="10.36003133797772"><ele>1160.5</ele><time>2026-05-02T07:27:52Z</time></trkpt><trkpt lat="46.4532212797537" lon="10.359941122959722"><ele>1161.0</ele><time>2026-05-02T07:27:53Z</time></trkpt><trkpt lat="46.45312567036178" lon="10.359884062647843"><ele>1161.0</ele><time>2026-05-02T07:27:54Z</time></trkpt><trkpt lat="46.453024822638206" lon="10.359900334431094"><ele>1161.0</ele><time>2026-05-02T07:27:55Z</time></trkpt><trkpt lat="46.45293622292806" lon="10.359972702060809"><ele>1161.0</ele><time>2026-05-02T07:27:56Z</time></trkpt><trkpt lat="46.45285457087426" lon="10.360082728139163"><ele>1161.0</ele><time>2026-05-02T07:27:57Z</time></trkpt><trkpt lat="46.45276786056313" lon="10.360185498693609"><ele>1161.0</ele><time>2026-05-02T07:27:58Z</time></trkpt><trkpt lat="46.452659287850494" lon="10.360251550538193"><ele>1160.0</ele><time>2026-05-02T07:27:59Z</time></trkpt><trkpt lat="46.452506846199995" lon="10.360291096732345"><ele>1159.0</ele><time>2026-05-02T07:28:00Z</time></trkpt><trkpt lat="46.452347552423305" lon="10.360301348348054"><ele>1158.0</ele><time>2026-05-02T07:28:01Z</time></trkpt><trkpt lat="46.45219374219822" lon="10.360306001495452"><ele>1157.6666666666667</ele><time>2026-05-02T07:28:02Z</time></trkpt><trkpt lat="46.452069509731196" lon="10.36030593538545"><ele>1157.3333333333335</ele><time>2026-05-02T07:28:03Z</time></trkpt><trkpt lat="46.45193344496299" lon="10.360331789040066"><ele>1157.0</ele><time>2026-05-02T07:28:04Z</time></trkpt><trkpt lat="46.45167584238856" lon="10.360386694069716"><ele>1157.0</ele><time>2026-05-02T07:28:05Z</time></trkpt><trkpt lat="46.45149527096842" lon="10.360433074416154"><ele>1157.0</ele><time>2026-05-02T07:28:06Z</time></trkpt><trkpt lat="46.45131655951272" lon="10.360490721759255"><ele>1157.0</ele><time>2026-05-02T07:28:07Z</time></trkpt><trkpt lat="46.45113988352798" lon="10.360548107313253"><ele>1156.3333333333335</ele><time>2026-05-02T07:28:08Z</time></trkpt><trkpt lat="46.450998749683755" lon="10.360603592169857"><ele>1155.6666666666667</ele><time>2026-05-02T07:28:09Z</time></trkpt><trkpt lat="46.45084235180815" lon="10.360650150618117"><ele>1155.0</ele><time>2026-05-02T07:28:10Z</time></trkpt><trkpt lat="46.45065722900503" lon="10.36072618926605"><ele>1155.0</ele><time>2026-05-02T07:28:11Z</time></trkpt><trkpt lat="46.45038146367697" lon="10.360855537525858"><ele>1155.0</ele><time>2026-05-02T07:28:12Z</time></trkpt><trkpt lat="46.450167328994475" lon="10.36094352207839"><ele>1155.0</ele><time>2026-05-02T07:28:13Z</time></trkpt><trkpt lat="46.44997023865045" lon="10.361051809329872"><ele>1155.0</ele><time>2026-05-02T07:28:14Z</time></trkpt><trkpt lat="46.449776055530016" lon="10.36118045516061"><ele>1155.0</ele><time>2026-05-02T07:28:15Z</time></trkpt><trkpt lat="46.44958261521551" lon="10.361313308575092"><ele>1156.0</ele><time>2026-05-02T07:28:16Z</time></trkpt><trkpt lat="46.449402307908514" lon="10.361447340942528"><ele>1157.0</ele><time>2026-05-02T07:28:17Z</time></trkpt><trkpt lat="46.44922379832925" lon="10.361614377777748"><ele>1158.0</ele><time>2026-05-02T07:28:18Z</time></trkpt><trkpt lat="46.44904730222585" lon="10.361792733967839"><ele>1158.0</ele><time>2026-05-02T07:28:19Z</time></trkpt><trkpt lat="46.44885873002445" lon="10.361991177818526"><ele>1158.0</ele><time>2026-05-02T07:28:20Z</time></trkpt><trkpt lat="46.448692587990976" lon="10.362199056819122"><ele>1157.6666666666667</ele><time>2026-05-02T07:28:21Z</time></trkpt><trkpt lat="46.448526143785124" lon="10.362418489497921"><ele>1157.3333333333335</ele><time>2026-05-02T07:28:22Z</time></trkpt><trkpt lat="46.44836519913953" lon="10.36263949256477"><ele>1157.0</ele><time>2026-05-02T07:28:23Z</time></trkpt><trkpt lat="46.44820867948025" lon="10.362872182634655"><ele>1157.3333333333335</ele><time>2026-05-02T07:28:24Z</time></trkpt><trkpt lat="46.4480568756506" lon="10.363107166523358"><ele>1157.6666666666667</ele><time>2026-05-02T07:28:25Z</time></trkpt><trkpt lat="46.447904337404644" lon="10.363328864633106"><ele>1158.0</ele><time>2026-05-02T07:28:26Z</time></trkpt><trkpt lat="46.44774018695318" lon="10.363564624349518"><ele>1157.3333333333333</ele><time>2026-05-02T07:28:27Z</time></trkpt><trkpt lat="46.447575609694546" lon="10.363790473716753"><ele>1156.6666666666665</ele><time>2026-05-02T07:28:28Z</time></trkpt><trkpt lat="46.447417815286045" lon="10.36399786174871"><ele>1156.0</ele><time>2026-05-02T07:28:29Z</time></trkpt><trkpt lat="46.44726257646374" lon="10.36418154052043"><ele>1161.3333333333333</ele><time>2026-05-02T07:28:30Z</time></trkpt><trkpt lat="46.447097628695005" lon="10.364342113019479"><ele>1166.6666666666667</ele><time>2026-05-02T07:28:31Z</time></trkpt><trkpt lat="46.44693537653683" lon="10.364478323550367"><ele>1172.0</ele><time>2026-05-02T07:28:32Z</time></trkpt><trkpt lat="46.446777459962064" lon="10.364641753893622"><ele>1181.3333333333335</ele><time>2026-05-02T07:28:33Z</time></trkpt><trkpt lat="46.44659856463643" lon="10.364747856540092"><ele>1190.6666666666667</ele><time>2026-05-02T07:28:34Z</time></trkpt><trkpt lat="46.44642321875082" lon="10.364863841761148"><ele>1200.0</ele><time>2026-05-02T07:28:35.015Z</time></trkpt><trkpt lat="46.44624950722425" lon="10.364968622364218"><ele>1211.0</ele><time>2026-05-02T07:28:36.017Z</time></trkpt><trkpt lat="46.44607419791009" lon="10.365065799367683"><ele>1222.0</ele><time>2026-05-02T07:28:37.016Z</time></trkpt><trkpt lat="46.44590527662723" lon="10.365144630128022"><ele>1233.0</ele><time>2026-05-02T07:28:38.014Z</time></trkpt><trkpt lat="46.44573496248922" lon="10.365210829855663"><ele>1282.0</ele><time>2026-05-02T07:28:39.016Z</time></trkpt><trkpt lat="46.443763" lon="10.3656334"><ele>1098.0</ele><time>2026-05-02T07:28:42.194Z</time></trkpt><trkpt lat="46.37820855253039" lon="10.359149118895045"><ele>1098.0</ele><time>2026-05-02T07:33:16.998Z</time></trkpt><trkpt lat="46.37810541321186" lon="10.359269147748462"><ele>1098.0</ele><time>2026-05-02T07:33:17.998Z</time></trkpt><trkpt lat="46.37793047145932" lon="10.359309818051544"><ele>1098.0</ele><time>2026-05-02T07:33:18.998Z</time></trkpt><trkpt lat="46.377767673379005" lon="10.359328881300899"><ele>1095.6666666666667</ele><time>2026-05-02T07:33:19.998Z</time></trkpt><trkpt lat="46.377590813567025" lon="10.359394836784546"><ele>1093.3333333333335</ele><time>2026-05-02T07:33:20.998Z</time></trkpt><trkpt lat="46.37741665291242" lon="10.359470513315552"><ele>1091.0</ele><time>2026-05-02T07:33:21.998Z</time></trkpt><trkpt lat="46.377215356660976" lon="10.359492074822972"><ele>1087.6666666666667</ele><time>2026-05-02T07:33:23.003Z</time></trkpt><trkpt lat="46.37704428968464" lon="10.359555406277124"><ele>1084.3333333333333</ele><time>2026-05-02T07:33:24.003Z</time></trkpt><trkpt lat="46.37686634624021" lon="10.359621098634493"><ele>1081.0</ele><time>2026-05-02T07:33:25.003Z</time></trkpt><trkpt lat="46.37669564297115" lon="10.35968411809865"><ele>1085.6666666666665</ele><time>2026-05-02T07:33:26.003Z</time></trkpt><trkpt lat="46.37651848778896" lon="10.359749519475262"><ele>1090.3333333333333</ele><time>2026-05-02T07:33:27.014Z</time></trkpt><trkpt lat="46.37634198053057" lon="10.359814681726116"><ele>1095.0</ele><time>2026-05-02T07:33:28.016Z</time></trkpt><trkpt lat="46.3761632498607" lon="10.359880664635792"><ele>1095.0</ele><time>2026-05-02T07:33:29.014Z</time></trkpt><trkpt lat="46.37598573631789" lon="10.359966632846291"><ele>1095.0</ele><time>2026-05-02T07:33:30.018Z</time></trkpt><trkpt lat="46.37580508764087" lon="10.3600273717367"><ele>1095.0</ele><time>2026-05-02T07:33:31.018Z</time></trkpt><trkpt lat="46.37562797860376" lon="10.360086594608115"><ele>1112.0</ele><time>2026-05-02T07:33:32.024Z</time></trkpt><trkpt lat="46.373740391349756" lon="10.36113585449209"><ele>969.0</ele><time>2026-05-02T07:33:35.192Z</time></trkpt><trkpt lat="46.35914039336737" lon="10.35762445070814"><ele>969.0</ele><time>2026-05-02T07:35:20.999Z</time></trkpt><trkpt lat="46.35908227690077" lon="10.357471940782114"><ele>969.0</ele><time>2026-05-02T07:35:21.999Z</time></trkpt><trkpt lat="46.35896696350831" lon="10.357180331691826"><ele>969.0</ele><time>2026-05-02T07:35:23.999Z</time></trkpt><trkpt lat="46.35890052586066" lon="10.356837669042234"><ele>968.6666666666667</ele><time>2026-05-02T07:35:24.999Z</time></trkpt><trkpt lat="46.358899434215566" lon="10.356577688596404"><ele>968.3333333333334</ele><time>2026-05-02T07:35:25.999Z</time></trkpt><trkpt lat="46.358863129264584" lon="10.356267425483718"><ele>968.0</ele><time>2026-05-02T07:35:26.999Z</time></trkpt><trkpt lat="46.358823060153505" lon="10.35599139762104"><ele>968.0</ele><time>2026-05-02T07:35:27.999Z</time></trkpt><trkpt lat="46.35876412121584" lon="10.35567287575442"><ele>968.0</ele><time>2026-05-02T07:35:29.001Z</time></trkpt><trkpt lat="46.3587161422732" lon="10.355379470945651"><ele>968.0</ele><time>2026-05-02T07:35:30.001Z</time></trkpt><trkpt lat="46.358667798743504" lon="10.355105138552423"><ele>968.0</ele><time>2026-05-02T07:35:31.001Z</time></trkpt><trkpt lat="46.35860751478559" lon="10.354791579970545"><ele>968.0</ele><time>2026-05-02T07:35:32.001Z</time></trkpt><trkpt lat="46.35855532289446" lon="10.35451406186144"><ele>968.0</ele><time>2026-05-02T07:35:33.001Z</time></trkpt><trkpt lat="46.35848246305454" lon="10.354235693561114"><ele>971.3333333333334</ele><time>2026-05-02T07:35:34.001Z</time></trkpt><trkpt lat="46.358399212950545" lon="10.353969409779062"><ele>974.6666666666667</ele><time>2026-05-02T07:35:35.001Z</time></trkpt><trkpt lat="46.35830198399175" lon="10.353702703484691"><ele>978.0</ele><time>2026-05-02T07:35:36.001Z</time></trkpt><trkpt lat="46.35819943297912" lon="10.353434195366418"><ele>983.3333333333333</ele><time>2026-05-02T07:35:37.001Z</time></trkpt><trkpt lat="46.35809476072274" lon="10.35318457976703"><ele>988.6666666666666</ele><time>2026-05-02T07:35:38.001Z</time></trkpt><trkpt lat="46.357988263383696" lon="10.352947018546063"><ele>994.0</ele><time>2026-05-02T07:35:39.001Z</time></trkpt><trkpt lat="46.35788169563265" lon="10.352728668439022"><ele>1003.0</ele><time>2026-05-02T07:35:40.014Z</time></trkpt><trkpt lat="46.35778207822942" lon="10.352528970289962"><ele>1012.0</ele><time>2026-05-02T07:35:41.012Z</time></trkpt><trkpt lat="46.357692581967626" lon="10.35233998396103"><ele>1021.0</ele><time>2026-05-02T07:35:42.011Z</time></trkpt><trkpt lat="46.35760685860045" lon="10.352163208911065"><ele>1040.5</ele><time>2026-05-02T07:35:43.012Z</time></trkpt><trkpt lat="46.357483251168496" lon="10.35202717184395"><ele>1060.0</ele><time>2026-05-02T07:35:44.014Z</time></trkpt><trkpt lat="46.35560195860023" lon="10.35097976224943"><ele>1165.0</ele><time>2026-05-02T07:35:47.189Z</time></trkpt><trkpt lat="46.35479755980396" lon="10.350946699192853"><ele>1132.0</ele><time>2026-05-02T07:35:48.185Z</time></trkpt><trkpt lat="46.354235" lon="10.3510834"><ele>955.0</ele><time>2026-05-02T07:35:49.184Z</time></trkpt><trkpt lat="46.350030312357795" lon="10.35350885243188"><ele>955.0</ele><time>2026-05-02T07:36:28Z</time></trkpt><trkpt lat="46.34986323545188" lon="10.353523675615875"><ele>955.0</ele><time>2026-05-02T07:36:29Z</time></trkpt><trkpt lat="46.34966895222259" lon="10.353575922650718"><ele>955.0</ele><time>2026-05-02T07:36:30Z</time></trkpt><trkpt lat="46.34947880003991" lon="10.35358730065099"><ele>953.3333333333333</ele><time>2026-05-02T07:36:31Z</time></trkpt><trkpt lat="46.349309901700195" lon="10.35356893678197"><ele>951.6666666666667</ele><time>2026-05-02T07:36:32Z</time></trkpt><trkpt lat="46.349144252448035" lon="10.353574236320242"><ele>950.0</ele><time>2026-05-02T07:36:33Z</time></trkpt><trkpt lat="46.348959220200705" lon="10.353575935746427"><ele>949.3333333333334</ele><time>2026-05-02T07:36:34Z</time></trkpt><trkpt lat="46.348782735165365" lon="10.353579576449771"><ele>948.6666666666667</ele><time>2026-05-02T07:36:35Z</time></trkpt><trkpt lat="46.34860085376398" lon="10.353558873337889"><ele>948.0</ele><time>2026-05-02T07:36:36Z</time></trkpt><trkpt lat="46.348422420094444" lon="10.353513043296694"><ele>948.0</ele><time>2026-05-02T07:36:37Z</time></trkpt><trkpt lat="46.34823873915624" lon="10.353461984406035"><ele>948.0</ele><time>2026-05-02T07:36:38Z</time></trkpt><trkpt lat="46.348062709885845" lon="10.353396435518917"><ele>948.0</ele><time>2026-05-02T07:36:39Z</time></trkpt><trkpt lat="46.34789550788372" lon="10.353318676224903"><ele>948.3333333333333</ele><time>2026-05-02T07:36:40Z</time></trkpt><trkpt lat="46.347734596871476" lon="10.353228009464342"><ele>948.6666666666666</ele><time>2026-05-02T07:36:41Z</time></trkpt><trkpt lat="46.34756302081675" lon="10.353113884799813"><ele>949.0</ele><time>2026-05-02T07:36:42Z</time></trkpt><trkpt lat="46.347379258281386" lon="10.352972978697686"><ele>949.0</ele><time>2026-05-02T07:36:43Z</time></trkpt><trkpt lat="46.34718531389704" lon="10.352821266333267"><ele>949.0</ele><time>2026-05-02T07:36:43.999Z</time></trkpt><trkpt lat="46.34698296677376" lon="10.352661213106853"><ele>949.0</ele><time>2026-05-02T07:36:44.999Z</time></trkpt><trkpt lat="46.34677347124613" lon="10.352494828190538"><ele>949.0</ele><time>2026-05-02T07:36:45.999Z</time></trkpt><trkpt lat="46.34655272004592" lon="10.352353648493356"><ele>945.5</ele><time>2026-05-02T07:36:46.999Z</time></trkpt><trkpt lat="46.346342755709024" lon="10.352174045509614"><ele>942.0</ele><time>2026-05-02T07:36:47.999Z</time></trkpt><trkpt lat="46.346128480559976" lon="10.352010300583254"><ele>942.0</ele><time>2026-05-02T07:36:48.999Z</time></trkpt><trkpt lat="46.3459108812884" lon="10.351853192186518"><ele>942.0</ele><time>2026-05-02T07:36:49.999Z</time></trkpt><trkpt lat="46.345695814676226" lon="10.351643956563317"><ele>941.5</ele><time>2026-05-02T07:36:50.999Z</time></trkpt><trkpt lat="46.34545616985075" lon="10.351453841484066"><ele>941.0</ele><time>2026-05-02T07:36:51.999Z</time></trkpt><trkpt lat="46.34520188128892" lon="10.351308898823262"><ele>940.0</ele><time>2026-05-02T07:36:52.999Z</time></trkpt><trkpt lat="46.34497742940093" lon="10.351105554494172"><ele>939.0</ele><time>2026-05-02T07:36:53.999Z</time></trkpt><trkpt lat="46.34475981530344" lon="10.350908293683638"><ele>938.5</ele><time>2026-05-02T07:36:54.999Z</time></trkpt><trkpt lat="46.34455327132431" lon="10.350737042499269"><ele>938.0</ele><time>2026-05-02T07:36:55.999Z</time></trkpt><trkpt lat="46.34435389929584" lon="10.350588601011774"><ele>936.6666666666667</ele><time>2026-05-02T07:36:56.999Z</time></trkpt><trkpt lat="46.34415403989265" lon="10.350440483901128"><ele>935.3333333333333</ele><time>2026-05-02T07:36:57.999Z</time></trkpt><trkpt lat="46.3439681306462" lon="10.350279390779871"><ele>934.0</ele><time>2026-05-02T07:36:58.999Z</time></trkpt><trkpt lat="46.34378000883662" lon="10.350129954580293"><ele>933.0</ele><time>2026-05-02T07:36:59.999Z</time></trkpt><trkpt lat="46.34359297639407" lon="10.349987447492298"><ele>932.0</ele><time>2026-05-02T07:37:00.999Z</time></trkpt><trkpt lat="46.343443301346284" lon="10.349809705846301"><ele>931.0</ele><time>2026-05-02T07:37:01.999Z</time></trkpt><trkpt lat="46.343250367587764" lon="10.349695741025476"><ele>933.3333333333333</ele><time>2026-05-02T07:37:02.999Z</time></trkpt><trkpt lat="46.34309511867336" lon="10.349547501681633"><ele>935.6666666666667</ele><time>2026-05-02T07:37:03.999Z</time></trkpt><trkpt lat="46.34296001225695" lon="10.349363997107613"><ele>938.0</ele><time>2026-05-02T07:37:04.999Z</time></trkpt><trkpt lat="46.34283267629831" lon="10.349221043445214"><ele>939.3333333333334</ele><time>2026-05-02T07:37:05.999Z</time></trkpt><trkpt lat="46.342706021763625" lon="10.349049364334345"><ele>940.6666666666667</ele><time>2026-05-02T07:37:06.999Z</time></trkpt><trkpt lat="46.342577182858086" lon="10.34886356538251"><ele>942.0</ele><time>2026-05-02T07:37:07.999Z</time></trkpt><trkpt lat="46.342464295709114" lon="10.34866290335806"><ele>958.3333333333333</ele><time>2026-05-02T07:37:08.999Z</time></trkpt><trkpt lat="46.342339727477935" lon="10.348470418730528"><ele>974.6666666666666</ele><time>2026-05-02T07:37:10.017Z</time></trkpt><trkpt lat="46.342218624853935" lon="10.348283288643465"><ele>991.0</ele><time>2026-05-02T07:37:11.017Z</time></trkpt><trkpt lat="46.34209431007198" lon="10.348098718247224"><ele>1012.0</ele><time>2026-05-02T07:37:12.021Z</time></trkpt><trkpt lat="46.34195800419446" lon="10.347908433751186"><ele>1033.0</ele><time>2026-05-02T07:37:13.013Z</time></trkpt><trkpt lat="46.32997686047696" lon="10.343066006908513"><ele>998.6666666666666</ele><time>2026-05-02T07:38:02.998Z</time></trkpt><trkpt lat="46.32982573578472" lon="10.34295714281923"><ele>964.3333333333333</ele><time>2026-05-02T07:38:03.998Z</time></trkpt><trkpt lat="46.32962892133892" lon="10.342867503706247"><ele>930.0</ele><time>2026-05-02T07:38:04.998Z</time></trkpt><trkpt lat="46.329453518775175" lon="10.342744043705961"><ele>920.3333333333333</ele><time>2026-05-02T07:38:05.998Z</time></trkpt><trkpt lat="46.32926649850708" lon="10.342616725099187"><ele>910.6666666666666</ele><time>2026-05-02T07:38:06.998Z</time></trkpt><trkpt lat="46.32908095929951" lon="10.342470918619238"><ele>901.0</ele><time>2026-05-02T07:38:07.998Z</time></trkpt><trkpt lat="46.3289030707815" lon="10.342306155853763"><ele>900.0</ele><time>2026-05-02T07:38:09.001Z</time></trkpt><trkpt lat="46.32872882455284" lon="10.34213962782334"><ele>899.0</ele><time>2026-05-02T07:38:10.001Z</time></trkpt><trkpt lat="46.328561886618964" lon="10.341961014299729"><ele>898.0</ele><time>2026-05-02T07:38:11.001Z</time></trkpt><trkpt lat="46.32838415017286" lon="10.3417709035149"><ele>898.0</ele><time>2026-05-02T07:38:12.001Z</time></trkpt><trkpt lat="46.32820263779244" lon="10.341557836539687"><ele>898.0</ele><time>2026-05-02T07:38:13.001Z</time></trkpt><trkpt lat="46.32803441201076" lon="10.341296725940941"><ele>898.5</ele><time>2026-05-02T07:38:14.001Z</time></trkpt><trkpt lat="46.32790851936767" lon="10.340986090632862"><ele>899.0</ele><time>2026-05-02T07:38:15.001Z</time></trkpt><trkpt lat="46.32770362662187" lon="10.340842791477252"><ele>899.0</ele><time>2026-05-02T07:38:16.001Z</time></trkpt><trkpt lat="46.32752123880671" lon="10.340561858001648"><ele>899.0</ele><time>2026-05-02T07:38:17.001Z</time></trkpt><trkpt lat="46.327363817341684" lon="10.340277919736105"><ele>900.5</ele><time>2026-05-02T07:38:18.001Z</time></trkpt><trkpt lat="46.32720909101364" lon="10.33997111210485"><ele>902.0</ele><time>2026-05-02T07:38:19.001Z</time></trkpt><trkpt lat="46.327055940666476" lon="10.339673167054622"><ele>899.0</ele><time>2026-05-02T07:38:20.001Z</time></trkpt><trkpt lat="46.32690004012095" lon="10.339376552281987"><ele>896.0</ele><time>2026-05-02T07:38:21.001Z</time></trkpt><trkpt lat="46.32675133812356" lon="10.339089432068171"><ele>892.5</ele><time>2026-05-02T07:38:22.001Z</time></trkpt><trkpt lat="46.32658111847612" lon="10.33879119586957"><ele>889.0</ele><time>2026-05-02T07:38:23.001Z</time></trkpt><trkpt lat="46.326425417897674" lon="10.338485403393776"><ele>890.0</ele><time>2026-05-02T07:38:24Z</time></trkpt><trkpt lat="46.32626440089191" lon="10.338194167908574"><ele>891.0</ele><time>2026-05-02T07:38:25Z</time></trkpt><trkpt lat="46.32610868545418" lon="10.337898062111954"><ele>891.0</ele><time>2026-05-02T07:38:26Z</time></trkpt><trkpt lat="46.3259693521591" lon="10.337581159997647"><ele>891.0</ele><time>2026-05-02T07:38:27Z</time></trkpt><trkpt lat="46.32584865123977" lon="10.337249718601672"><ele>886.5</ele><time>2026-05-02T07:38:28Z</time></trkpt><trkpt lat="46.325755320313256" lon="10.336915103443703"><ele>882.0</ele><time>2026-05-02T07:38:29Z</time></trkpt><trkpt lat="46.32568892049275" lon="10.336538983335537"><ele>880.0</ele><time>2026-05-02T07:38:30Z</time></trkpt><trkpt lat="46.32564581082937" lon="10.336166458460342"><ele>878.0</ele><time>2026-05-02T07:38:31Z</time></trkpt><trkpt lat="46.325611147913335" lon="10.335791473859578"><ele>877.0</ele><time>2026-05-02T07:38:32Z</time></trkpt><trkpt lat="46.325577711662" lon="10.335416177490655"><ele>876.0</ele><time>2026-05-02T07:38:33Z</time></trkpt><trkpt lat="46.325544928836145" lon="10.335043865674454"><ele>878.5</ele><time>2026-05-02T07:38:34Z</time></trkpt><trkpt lat="46.32550931453686" lon="10.33467227021046"><ele>881.0</ele><time>2026-05-02T07:38:35Z</time></trkpt><trkpt lat="46.3254707549309" lon="10.334301169062641"><ele>881.0</ele><time>2026-05-02T07:38:36Z</time></trkpt><trkpt lat="46.32542825917549" lon="10.333926728719614"><ele>881.0</ele><time>2026-05-02T07:38:37Z</time></trkpt><trkpt lat="46.32540411546286" lon="10.333538700524572"><ele>880.5</ele><time>2026-05-02T07:38:38Z</time></trkpt><trkpt lat="46.325360625765455" lon="10.333157657444975"><ele>880.0</ele><time>2026-05-02T07:38:39Z</time></trkpt><trkpt lat="46.32531977236242" lon="10.332772493603196"><ele>877.5</ele><time>2026-05-02T07:38:40Z</time></trkpt><trkpt lat="46.325280133892825" lon="10.332394651419138"><ele>875.0</ele><time>2026-05-02T07:38:41Z</time></trkpt><trkpt lat="46.32524359938435" lon="10.332022337463625"><ele>873.5</ele><time>2026-05-02T07:38:42Z</time></trkpt><trkpt lat="46.325210868239814" lon="10.331641828645463"><ele>872.0</ele><time>2026-05-02T07:38:43Z</time></trkpt><trkpt lat="46.32518642205393" lon="10.33126518591206"><ele>871.5</ele><time>2026-05-02T07:38:44Z</time></trkpt><trkpt lat="46.32517095316266" lon="10.330884248948475"><ele>871.0</ele><time>2026-05-02T07:38:45Z</time></trkpt><trkpt lat="46.32516313662613" lon="10.33050526157139"><ele>869.0</ele><time>2026-05-02T07:38:46Z</time></trkpt><trkpt lat="46.32515746605254" lon="10.33012688130514"><ele>867.0</ele><time>2026-05-02T07:38:47Z</time></trkpt><trkpt lat="46.32515577593762" lon="10.329749096546024"><ele>867.0</ele><time>2026-05-02T07:38:48Z</time></trkpt><trkpt lat="46.32515594370005" lon="10.329375737466535"><ele>867.0</ele><time>2026-05-02T07:38:49Z</time></trkpt><trkpt lat="46.32515386088552" lon="10.329006372626528"><ele>866.5</ele><time>2026-05-02T07:38:50Z</time></trkpt><trkpt lat="46.32515677293502" lon="10.328640627685763"><ele>866.0</ele><time>2026-05-02T07:38:51Z</time></trkpt><trkpt lat="46.32515937763001" lon="10.328280581100401"><ele>864.5</ele><time>2026-05-02T07:38:52Z</time></trkpt><trkpt lat="46.32516376270268" lon="10.327914536375605"><ele>863.0</ele><time>2026-05-02T07:38:53Z</time></trkpt><trkpt lat="46.3251690310465" lon="10.32754058257819"><ele>862.0</ele><time>2026-05-02T07:38:54Z</time></trkpt><trkpt lat="46.325173346466656" lon="10.32717097508273"><ele>861.0</ele><time>2026-05-02T07:38:55Z</time></trkpt><trkpt lat="46.325184151376284" lon="10.32679642289932"><ele>861.0</ele><time>2026-05-02T07:38:56Z</time></trkpt><trkpt lat="46.325204412049786" lon="10.326424117759835"><ele>861.0</ele><time>2026-05-02T07:38:57Z</time></trkpt><trkpt lat="46.32523304619824" lon="10.32604798266773"><ele>859.0</ele><time>2026-05-02T07:38:58Z</time></trkpt><trkpt lat="46.325266854352726" lon="10.325672608852226"><ele>857.0</ele><time>2026-05-02T07:38:59Z</time></trkpt><trkpt lat="46.32530431312427" lon="10.32529906417364"><ele>857.0</ele><time>2026-05-02T07:39:00Z</time></trkpt><trkpt lat="46.32534374405199" lon="10.324930372369836"><ele>857.0</ele><time>2026-05-02T07:39:01Z</time></trkpt><trkpt lat="46.32537093568583" lon="10.324557032634043"><ele>856.0</ele><time>2026-05-02T07:39:02Z</time></trkpt><trkpt lat="46.3253840308776" lon="10.324188969732836"><ele>855.0</ele><time>2026-05-02T07:39:03Z</time></trkpt><trkpt lat="46.32537998428396" lon="10.323823095645"><ele>853.5</ele><time>2026-05-02T07:39:04Z</time></trkpt><trkpt lat="46.32535905208223" lon="10.32345733151262"><ele>852.0</ele><time>2026-05-02T07:39:05Z</time></trkpt><trkpt lat="46.325329801921086" lon="10.32308749453119"><ele>852.5</ele><time>2026-05-02T07:39:06Z</time></trkpt><trkpt lat="46.32529181353282" lon="10.322744961192242"><ele>853.0</ele><time>2026-05-02T07:39:07Z</time></trkpt><trkpt lat="46.32523752426445" lon="10.32240645286964"><ele>854.5</ele><time>2026-05-02T07:39:08Z</time></trkpt><trkpt lat="46.325158632134354" lon="10.322063782306587"><ele>856.0</ele><time>2026-05-02T07:39:09Z</time></trkpt><trkpt lat="46.3250836387276" lon="10.321740045829753"><ele>856.0</ele><time>2026-05-02T07:39:10Z</time></trkpt><trkpt lat="46.324990915516295" lon="10.321411878090798"><ele>856.0</ele><time>2026-05-02T07:39:11Z</time></trkpt><trkpt lat="46.32491171844772" lon="10.321085750968958"><ele>863.0</ele><time>2026-05-02T07:39:11.999Z</time></trkpt><trkpt lat="46.324811694062525" lon="10.320774973192236"><ele>870.0</ele><time>2026-05-02T07:39:13.019Z</time></trkpt><trkpt lat="46.32469054307738" lon="10.32050407935655"><ele>885.3333333333333</ele><time>2026-05-02T07:39:14.019Z</time></trkpt><trkpt lat="46.32456577295735" lon="10.32024249567324"><ele>900.6666666666666</ele><time>2026-05-02T07:39:15.01Z</time></trkpt><trkpt lat="46.32443225467726" lon="10.319997228304896"><ele>916.0</ele><time>2026-05-02T07:39:16.013Z</time></trkpt><trkpt lat="46.32428298992174" lon="10.319743021517363"><ele>913.0</ele><time>2026-05-02T07:39:17.02Z</time></trkpt><trkpt lat="46.32413591546686" lon="10.319504766161614"><ele>910.0</ele><time>2026-05-02T07:39:18.02Z</time></trkpt><trkpt lat="46.322465010868" lon="10.317924056144113"><ele>1063.0</ele><time>2026-05-02T07:39:21.185Z</time></trkpt><trkpt lat="46.32179271511049" lon="10.317282308501607"><ele>1049.0</ele><time>2026-05-02T07:39:22.18Z</time></trkpt><trkpt lat="46.32111887602832" lon="10.316633532889405"><ele>1013.0</ele><time>2026-05-02T07:39:23.181Z</time></trkpt><trkpt lat="46.3206286" lon="10.3161621"><ele>740.0</ele><time>2026-05-02T07:39:24.185Z</time></trkpt><trkpt lat="46.305927839173286" lon="10.299482708806451"><ele>740.0</ele><time>2026-05-02T07:40:43.998Z</time></trkpt><trkpt lat="46.30589402110738" lon="10.299401412477497"><ele>740.0</ele><time>2026-05-02T07:40:44.998Z</time></trkpt><trkpt lat="46.30582003910492" lon="10.29911527070239"><ele>740.0</ele><time>2026-05-02T07:40:45.998Z</time></trkpt><trkpt lat="46.30576087922084" lon="10.298819058774813"><ele>737.0</ele><time>2026-05-02T07:40:46.998Z</time></trkpt><trkpt lat="46.30570926557436" lon="10.298512718069164"><ele>734.0</ele><time>2026-05-02T07:40:47.998Z</time></trkpt><trkpt lat="46.30564383982541" lon="10.298181379098354"><ele>731.5</ele><time>2026-05-02T07:40:48.998Z</time></trkpt><trkpt lat="46.30560392633542" lon="10.297832870866046"><ele>729.0</ele><time>2026-05-02T07:40:50Z</time></trkpt><trkpt lat="46.30556425951193" lon="10.297453835511895"><ele>733.5</ele><time>2026-05-02T07:40:51Z</time></trkpt><trkpt lat="46.30553980559012" lon="10.297040527453511"><ele>738.0</ele><time>2026-05-02T07:40:52Z</time></trkpt><trkpt lat="46.30552372446189" lon="10.296660903082085"><ele>736.0</ele><time>2026-05-02T07:40:53Z</time></trkpt><trkpt lat="46.30551596555889" lon="10.29641760851286"><ele>734.0</ele><time>2026-05-02T07:40:54Z</time></trkpt><trkpt lat="46.30551213579113" lon="10.2960559963161"><ele>732.0</ele><time>2026-05-02T07:40:55Z</time></trkpt><trkpt lat="46.30549729637497" lon="10.295708426079184"><ele>728.0</ele><time>2026-05-02T07:40:56Z</time></trkpt><trkpt lat="46.30548245923477" lon="10.295315569994349"><ele>724.0</ele><time>2026-05-02T07:40:57Z</time></trkpt><trkpt lat="46.30545152572415" lon="10.294903690772772"><ele>720.5</ele><time>2026-05-02T07:40:58Z</time></trkpt><trkpt lat="46.305436520430845" lon="10.294526256555432"><ele>717.0</ele><time>2026-05-02T07:40:59Z</time></trkpt><trkpt lat="46.30542221093985" lon="10.294143524789156"><ele>715.5</ele><time>2026-05-02T07:41:00Z</time></trkpt><trkpt lat="46.30540146665185" lon="10.293716635513977"><ele>714.0</ele><time>2026-05-02T07:41:01Z</time></trkpt><trkpt lat="46.30538967879142" lon="10.293309438294067"><ele>711.5</ele><time>2026-05-02T07:41:02Z</time></trkpt><trkpt lat="46.30536627784821" lon="10.292921267018677"><ele>709.0</ele><time>2026-05-02T07:41:03Z</time></trkpt><trkpt lat="46.305341704135365" lon="10.292529626798478"><ele>705.5</ele><time>2026-05-02T07:41:04Z</time></trkpt><trkpt lat="46.30529779863918" lon="10.292147632191739"><ele>702.0</ele><time>2026-05-02T07:41:05Z</time></trkpt><trkpt lat="46.3052409720053" lon="10.291756693945166"><ele>698.5</ele><time>2026-05-02T07:41:06Z</time></trkpt><trkpt lat="46.30516343782273" lon="10.291386967219525"><ele>695.0</ele><time>2026-05-02T07:41:07Z</time></trkpt><trkpt lat="46.305064412836735" lon="10.291019929946929"><ele>695.0</ele><time>2026-05-02T07:41:08Z</time></trkpt><trkpt lat="46.304944613110465" lon="10.290666044533944"><ele>695.0</ele><time>2026-05-02T07:41:09Z</time></trkpt><trkpt lat="46.30480371710372" lon="10.290321290993566"><ele>694.5</ele><time>2026-05-02T07:41:10Z</time></trkpt><trkpt lat="46.30464508868893" lon="10.290000616780455"><ele>694.0</ele><time>2026-05-02T07:41:11Z</time></trkpt><trkpt lat="46.304471413206684" lon="10.289697244064834"><ele>691.5</ele><time>2026-05-02T07:41:12Z</time></trkpt><trkpt lat="46.30427948089975" lon="10.289408960992692"><ele>689.0</ele><time>2026-05-02T07:41:13Z</time></trkpt><trkpt lat="46.304084894389995" lon="10.289136055371946"><ele>688.5</ele><time>2026-05-02T07:41:14Z</time></trkpt><trkpt lat="46.3038854714644" lon="10.288868902925312"><ele>688.0</ele><time>2026-05-02T07:41:15Z</time></trkpt><trkpt lat="46.303689736076436" lon="10.288596753864956"><ele>688.0</ele><time>2026-05-02T07:41:16Z</time></trkpt><trkpt lat="46.30349210984588" lon="10.288323995765284"><ele>688.0</ele><time>2026-05-02T07:41:17Z</time></trkpt><trkpt lat="46.303300354639106" lon="10.288043579041677"><ele>690.0</ele><time>2026-05-02T07:41:18Z</time></trkpt><trkpt lat="46.30310114096341" lon="10.287761962308458"><ele>692.0</ele><time>2026-05-02T07:41:19Z</time></trkpt><trkpt lat="46.30289969483803" lon="10.287484151115812"><ele>687.5</ele><time>2026-05-02T07:41:20Z</time></trkpt><trkpt lat="46.30269681410303" lon="10.28720540160918"><ele>683.0</ele><time>2026-05-02T07:41:21Z</time></trkpt><trkpt lat="46.30249577904323" lon="10.286921653655046"><ele>683.0</ele><time>2026-05-02T07:41:22Z</time></trkpt><trkpt lat="46.302288199248466" lon="10.28663935662399"><ele>683.0</ele><time>2026-05-02T07:41:23Z</time></trkpt><trkpt lat="46.3020845418233" lon="10.286349244121384"><ele>682.0</ele><time>2026-05-02T07:41:24Z</time></trkpt><trkpt lat="46.301873612863425" lon="10.286063437317955"><ele>681.0</ele><time>2026-05-02T07:41:25Z</time></trkpt><trkpt lat="46.301661302227025" lon="10.285775508334199"><ele>678.0</ele><time>2026-05-02T07:41:26Z</time></trkpt><trkpt lat="46.30146153273602" lon="10.28548433143414"><ele>675.0</ele><time>2026-05-02T07:41:27Z</time></trkpt><trkpt lat="46.30125390546648" lon="10.285195235534303"><ele>675.0</ele><time>2026-05-02T07:41:28Z</time></trkpt><trkpt lat="46.301044865269766" lon="10.284906294044069"><ele>675.0</ele><time>2026-05-02T07:41:29Z</time></trkpt><trkpt lat="46.300834478822225" lon="10.284612491740738"><ele>672.0</ele><time>2026-05-02T07:41:30Z</time></trkpt><trkpt lat="46.30062746370518" lon="10.284320880583662"><ele>669.0</ele><time>2026-05-02T07:41:31Z</time></trkpt><trkpt lat="46.30041983332144" lon="10.284027507191338"><ele>667.5</ele><time>2026-05-02T07:41:32Z</time></trkpt><trkpt lat="46.300220344408295" lon="10.28372609211339"><ele>666.0</ele><time>2026-05-02T07:41:33Z</time></trkpt><trkpt lat="46.30003050120134" lon="10.283408104693029"><ele>663.0</ele><time>2026-05-02T07:41:34Z</time></trkpt><trkpt lat="46.299853556215375" lon="10.283073731882334"><ele>660.0</ele><time>2026-05-02T07:41:35Z</time></trkpt><trkpt lat="46.29968527673232" lon="10.282730448741818"><ele>663.0</ele><time>2026-05-02T07:41:36Z</time></trkpt><trkpt lat="46.29953940503921" lon="10.282370973312487"><ele>666.0</ele><time>2026-05-02T07:41:37Z</time></trkpt><trkpt lat="46.29939800221037" lon="10.282005187805511"><ele>666.0</ele><time>2026-05-02T07:41:38Z</time></trkpt><trkpt lat="46.299262812512566" lon="10.281625318785776"><ele>666.0</ele><time>2026-05-02T07:41:39Z</time></trkpt><trkpt lat="46.2991332493835" lon="10.281253887482459"><ele>662.0</ele><time>2026-05-02T07:41:40Z</time></trkpt><trkpt lat="46.29899967967608" lon="10.280880960290556"><ele>658.0</ele><time>2026-05-02T07:41:40.999Z</time></trkpt><trkpt lat="46.298862595813716" lon="10.280513636154806"><ele>658.0</ele><time>2026-05-02T07:41:41.999Z</time></trkpt><trkpt lat="46.29872303951412" lon="10.280151662329732"><ele>658.0</ele><time>2026-05-02T07:41:42.999Z</time></trkpt><trkpt lat="46.29857915282074" lon="10.279801151308021"><ele>655.5</ele><time>2026-05-02T07:41:43.999Z</time></trkpt><trkpt lat="46.29842078288066" lon="10.27946216750464"><ele>653.0</ele><time>2026-05-02T07:41:44.999Z</time></trkpt><trkpt lat="46.29824129612712" lon="10.279149627781514"><ele>652.5</ele><time>2026-05-02T07:41:45.999Z</time></trkpt><trkpt lat="46.298046515635136" lon="10.27885048623967"><ele>652.0</ele><time>2026-05-02T07:41:46.999Z</time></trkpt><trkpt lat="46.29784024289638" lon="10.278570516861945"><ele>652.0</ele><time>2026-05-02T07:41:47.999Z</time></trkpt><trkpt lat="46.29762808580407" lon="10.27830827344872"><ele>652.0</ele><time>2026-05-02T07:41:48.999Z</time></trkpt><trkpt lat="46.29739856731964" lon="10.27805821200509"><ele>649.5</ele><time>2026-05-02T07:41:49.999Z</time></trkpt><trkpt lat="46.29716875110664" lon="10.277837566977464"><ele>647.0</ele><time>2026-05-02T07:41:50.999Z</time></trkpt><trkpt lat="46.29693832865943" lon="10.277606281096798"><ele>647.0</ele><time>2026-05-02T07:41:51.999Z</time></trkpt><trkpt lat="46.29670597220925" lon="10.27737294697589"><ele>647.0</ele><time>2026-05-02T07:41:52.999Z</time></trkpt><trkpt lat="46.29648424316737" lon="10.277135267975735"><ele>644.5</ele><time>2026-05-02T07:41:53.999Z</time></trkpt><trkpt lat="46.29626394478499" lon="10.276901503269878"><ele>642.0</ele><time>2026-05-02T07:41:54.999Z</time></trkpt><trkpt lat="46.29603509603214" lon="10.276664339364283"><ele>640.5</ele><time>2026-05-02T07:41:55.999Z</time></trkpt><trkpt lat="46.295802253752036" lon="10.276428669649086"><ele>639.0</ele><time>2026-05-02T07:41:56.999Z</time></trkpt><trkpt lat="46.29558324351513" lon="10.276171906877899"><ele>639.0</ele><time>2026-05-02T07:41:57.999Z</time></trkpt><trkpt lat="46.29535896996756" lon="10.275938200085461"><ele>639.0</ele><time>2026-05-02T07:41:58.999Z</time></trkpt><trkpt lat="46.29512549000467" lon="10.27572393318616"><ele>638.0</ele><time>2026-05-02T07:41:59.999Z</time></trkpt><trkpt lat="46.294906576569915" lon="10.275466207154835"><ele>637.0</ele><time>2026-05-02T07:42:00.999Z</time></trkpt><trkpt lat="46.294680170917324" lon="10.275225345680408"><ele>637.0</ele><time>2026-05-02T07:42:01.999Z</time></trkpt><trkpt lat="46.29444356328109" lon="10.275001970409487"><ele>637.0</ele><time>2026-05-02T07:42:02.999Z</time></trkpt><trkpt lat="46.29422743958855" lon="10.274738520553408"><ele>638.5</ele><time>2026-05-02T07:42:03.999Z</time></trkpt><trkpt lat="46.2940079011077" lon="10.274488593909732"><ele>640.0</ele><time>2026-05-02T07:42:04.999Z</time></trkpt><trkpt lat="46.29378096135593" lon="10.274255307897402"><ele>637.0</ele><time>2026-05-02T07:42:05.999Z</time></trkpt><trkpt lat="46.293564715124" lon="10.273995229614831"><ele>634.0</ele><time>2026-05-02T07:42:06.999Z</time></trkpt><trkpt lat="46.29335385498403" lon="10.273733700883936"><ele>633.5</ele><time>2026-05-02T07:42:07.999Z</time></trkpt><trkpt lat="46.29314539976696" lon="10.273467982817644"><ele>633.0</ele><time>2026-05-02T07:42:08.999Z</time></trkpt><trkpt lat="46.292942602005674" lon="10.273191923571874"><ele>632.5</ele><time>2026-05-02T07:42:09.999Z</time></trkpt><trkpt lat="46.29273776022016" lon="10.272921070304601"><ele>632.0</ele><time>2026-05-02T07:42:10.999Z</time></trkpt><trkpt lat="46.292526015377604" lon="10.272655726016005"><ele>632.0</ele><time>2026-05-02T07:42:11.999Z</time></trkpt><trkpt lat="46.292313261534865" lon="10.272389829697715"><ele>632.0</ele><time>2026-05-02T07:42:12.999Z</time></trkpt><trkpt lat="46.292102291156695" lon="10.272128100920373"><ele>630.0</ele><time>2026-05-02T07:42:13.999Z</time></trkpt><trkpt lat="46.291889978357204" lon="10.27186258923466"><ele>628.0</ele><time>2026-05-02T07:42:14.999Z</time></trkpt><trkpt lat="46.29167517090881" lon="10.271605658915643"><ele>628.0</ele><time>2026-05-02T07:42:15.999Z</time></trkpt><trkpt lat="46.2914575920033" lon="10.271352494045118"><ele>628.0</ele><time>2026-05-02T07:42:16.999Z</time></trkpt><trkpt lat="46.291234061249604" lon="10.271104381018164"><ele>627.5</ele><time>2026-05-02T07:42:17.999Z</time></trkpt><trkpt lat="46.291006981791355" lon="10.270862144851039"><ele>627.0</ele><time>2026-05-02T07:42:18.999Z</time></trkpt><trkpt lat="46.29077822548414" lon="10.270629793975418"><ele>625.0</ele><time>2026-05-02T07:42:19.999Z</time></trkpt><trkpt lat="46.29055119777313" lon="10.270393338848784"><ele>623.0</ele><time>2026-05-02T07:42:20.999Z</time></trkpt><trkpt lat="46.290315425399776" lon="10.270160637494"><ele>623.0</ele><time>2026-05-02T07:42:21.999Z</time></trkpt><trkpt lat="46.29007872638082" lon="10.269930150274796"><ele>623.0</ele><time>2026-05-02T07:42:22.999Z</time></trkpt><trkpt lat="46.28983259622623" lon="10.269706163151863"><ele>623.5</ele><time>2026-05-02T07:42:23.999Z</time></trkpt><trkpt lat="46.28958672695272" lon="10.269492156788127"><ele>624.0</ele><time>2026-05-02T07:42:24.999Z</time></trkpt><trkpt lat="46.28934055044541" lon="10.269283936335468"><ele>624.0</ele><time>2026-05-02T07:42:25.999Z</time></trkpt><trkpt lat="46.28908804550395" lon="10.2690861595109"><ele>624.0</ele><time>2026-05-02T07:42:26.999Z</time></trkpt><trkpt lat="46.28883659958297" lon="10.268891236703023"><ele>623.0</ele><time>2026-05-02T07:42:27.999Z</time></trkpt><trkpt lat="46.28858281880761" lon="10.268709933571914"><ele>622.0</ele><time>2026-05-02T07:42:28.999Z</time></trkpt><trkpt lat="46.2883251022353" lon="10.268532656757815"><ele>618.5</ele><time>2026-05-02T07:42:29.999Z</time></trkpt><trkpt lat="46.28806501818329" lon="10.268363714509713"><ele>615.0</ele><time>2026-05-02T07:42:30.999Z</time></trkpt><trkpt lat="46.28780535338529" lon="10.268197044097827"><ele>615.0</ele><time>2026-05-02T07:42:31.999Z</time></trkpt><trkpt lat="46.28754597987032" lon="10.268028315106251"><ele>615.0</ele><time>2026-05-02T07:42:32.999Z</time></trkpt><trkpt lat="46.287281644664944" lon="10.267870448034051"><ele>614.0</ele><time>2026-05-02T07:42:33.999Z</time></trkpt><trkpt lat="46.287016955833785" lon="10.267716167778453"><ele>613.0</ele><time>2026-05-02T07:42:34.999Z</time></trkpt><trkpt lat="46.28675263468518" lon="10.267573734103207"><ele>613.0</ele><time>2026-05-02T07:42:35.999Z</time></trkpt><trkpt lat="46.28648866750594" lon="10.267441136488571"><ele>613.0</ele><time>2026-05-02T07:42:36.999Z</time></trkpt><trkpt lat="46.28622253627466" lon="10.26731456887596"><ele>612.5</ele><time>2026-05-02T07:42:37.999Z</time></trkpt><trkpt lat="46.285953195920676" lon="10.267201082598792"><ele>612.0</ele><time>2026-05-02T07:42:38.999Z</time></trkpt><trkpt lat="46.285685058841906" lon="10.267094632911743"><ele>610.5</ele><time>2026-05-02T07:42:39.999Z</time></trkpt><trkpt lat="46.285418594167275" lon="10.266989122926782"><ele>609.0</ele><time>2026-05-02T07:42:40.998Z</time></trkpt><trkpt lat="46.285155455702196" lon="10.266883370267175"><ele>609.0</ele><time>2026-05-02T07:42:41.998Z</time></trkpt><trkpt lat="46.28489247328084" lon="10.26677972648139"><ele>609.0</ele><time>2026-05-02T07:42:42.998Z</time></trkpt><trkpt lat="46.28463231641566" lon="10.26667510087753"><ele>608.0</ele><time>2026-05-02T07:42:43.998Z</time></trkpt><trkpt lat="46.284375049590466" lon="10.266570361093702"><ele>607.0</ele><time>2026-05-02T07:42:44.998Z</time></trkpt><trkpt lat="46.284119877523736" lon="10.266466879114216"><ele>604.5</ele><time>2026-05-02T07:42:45.998Z</time></trkpt><trkpt lat="46.28385886341711" lon="10.266362683276617"><ele>602.0</ele><time>2026-05-02T07:42:46.998Z</time></trkpt><trkpt lat="46.283596991791605" lon="10.266263573496296"><ele>602.0</ele><time>2026-05-02T07:42:47.998Z</time></trkpt><trkpt lat="46.28333933627902" lon="10.266152396764564"><ele>602.0</ele><time>2026-05-02T07:42:48.998Z</time></trkpt><trkpt lat="46.2830791176381" lon="10.266054023840661"><ele>601.0</ele><time>2026-05-02T07:42:49.998Z</time></trkpt><trkpt lat="46.28282673256314" lon="10.265946808142775"><ele>600.0</ele><time>2026-05-02T07:42:50.998Z</time></trkpt><trkpt lat="46.282573207853524" lon="10.265837420858153"><ele>600.0</ele><time>2026-05-02T07:42:51.998Z</time></trkpt><trkpt lat="46.28232080077564" lon="10.265729540073053"><ele>600.0</ele><time>2026-05-02T07:42:52.998Z</time></trkpt><trkpt lat="46.282060175566734" lon="10.26562111819649"><ele>599.0</ele><time>2026-05-02T07:42:53.998Z</time></trkpt><trkpt lat="46.281810164666325" lon="10.265506737308776"><ele>598.0</ele><time>2026-05-02T07:42:54.998Z</time></trkpt><trkpt lat="46.28156165457546" lon="10.265381284227853"><ele>597.5</ele><time>2026-05-02T07:42:56Z</time></trkpt><trkpt lat="46.28131774927077" lon="10.2652341113324"><ele>597.0</ele><time>2026-05-02T07:42:57Z</time></trkpt><trkpt lat="46.28108267960819" lon="10.265062715436752"><ele>597.0</ele><time>2026-05-02T07:42:58Z</time></trkpt><trkpt lat="46.28085236130506" lon="10.264871144593952"><ele>597.0</ele><time>2026-05-02T07:42:59Z</time></trkpt><trkpt lat="46.280624141081375" lon="10.264661446048862"><ele>596.5</ele><time>2026-05-02T07:43:00Z</time></trkpt><trkpt lat="46.28041379510603" lon="10.264428483639323"><ele>596.0</ele><time>2026-05-02T07:43:01Z</time></trkpt><trkpt lat="46.280211568582004" lon="10.264175940176473"><ele>594.5</ele><time>2026-05-02T07:43:02Z</time></trkpt><trkpt lat="46.280008359991314" lon="10.263917531660672"><ele>593.0</ele><time>2026-05-02T07:43:03Z</time></trkpt><trkpt lat="46.279812112761554" lon="10.263659972205136"><ele>593.5</ele><time>2026-05-02T07:43:04Z</time></trkpt><trkpt lat="46.27964070464056" lon="10.263389616338007"><ele>594.0</ele><time>2026-05-02T07:43:05Z</time></trkpt><trkpt lat="46.279463056626795" lon="10.263133708481536"><ele>593.0</ele><time>2026-05-02T07:43:06Z</time></trkpt><trkpt lat="46.27928130163487" lon="10.262882848131897"><ele>592.0</ele><time>2026-05-02T07:43:07Z</time></trkpt><trkpt lat="46.2790972582934" lon="10.262628232480436"><ele>591.5</ele><time>2026-05-02T07:43:08Z</time></trkpt><trkpt lat="46.2789107998418" lon="10.262375811959519"><ele>591.0</ele><time>2026-05-02T07:43:09Z</time></trkpt><trkpt lat="46.27872273560406" lon="10.26212558504102"><ele>591.0</ele><time>2026-05-02T07:43:10Z</time></trkpt><trkpt lat="46.278527202543195" lon="10.26188243391162"><ele>591.0</ele><time>2026-05-02T07:43:11Z</time></trkpt><trkpt lat="46.278323991710245" lon="10.261643107989002"><ele>588.5</ele><time>2026-05-02T07:43:12Z</time></trkpt><trkpt lat="46.278115174667974" lon="10.261412783097915"><ele>586.0</ele><time>2026-05-02T07:43:13Z</time></trkpt><trkpt lat="46.27789805350281" lon="10.261204071022327"><ele>586.0</ele><time>2026-05-02T07:43:14Z</time></trkpt><trkpt lat="46.277674664883335" lon="10.261014822901258"><ele>586.0</ele><time>2026-05-02T07:43:15Z</time></trkpt><trkpt lat="46.277438790738614" lon="10.260856139249073"><ele>584.5</ele><time>2026-05-02T07:43:16Z</time></trkpt><trkpt lat="46.27719510753143" lon="10.260714742529853"><ele>583.0</ele><time>2026-05-02T07:43:17Z</time></trkpt><trkpt lat="46.27694793985056" lon="10.260593341934918"><ele>582.5</ele><time>2026-05-02T07:43:18Z</time></trkpt><trkpt lat="46.27669839981268" lon="10.26049881115527"><ele>582.0</ele><time>2026-05-02T07:43:19Z</time></trkpt><trkpt lat="46.27643672091177" lon="10.260423749652565"><ele>580.5</ele><time>2026-05-02T07:43:20Z</time></trkpt><trkpt lat="46.27617558709864" lon="10.260358783740543"><ele>579.0</ele><time>2026-05-02T07:43:21Z</time></trkpt><trkpt lat="46.27591797855607" lon="10.26030206456233"><ele>579.0</ele><time>2026-05-02T07:43:22Z</time></trkpt><trkpt lat="46.275660716475" lon="10.260250526511442"><ele>579.0</ele><time>2026-05-02T07:43:23Z</time></trkpt><trkpt lat="46.27540660400072" lon="10.260195579037827"><ele>578.0</ele><time>2026-05-02T07:43:24Z</time></trkpt><trkpt lat="46.27514880006387" lon="10.260140497778535"><ele>577.0</ele><time>2026-05-02T07:43:25Z</time></trkpt><trkpt lat="46.27488332619432" lon="10.26009109678021"><ele>576.5</ele><time>2026-05-02T07:43:26Z</time></trkpt><trkpt lat="46.274607535986824" lon="10.260038447693402"><ele>576.0</ele><time>2026-05-02T07:43:27Z</time></trkpt><trkpt lat="46.27433075688131" lon="10.25998845879098"><ele>576.0</ele><time>2026-05-02T07:43:28Z</time></trkpt><trkpt lat="46.27405210973428" lon="10.25991764338439"><ele>576.0</ele><time>2026-05-02T07:43:29Z</time></trkpt><trkpt lat="46.273764962438435" lon="10.25985981330128"><ele>575.5</ele><time>2026-05-02T07:43:30Z</time></trkpt><trkpt lat="46.27347178388708" lon="10.259800956143051"><ele>575.0</ele><time>2026-05-02T07:43:31Z</time></trkpt><trkpt lat="46.27317941593844" lon="10.259742986946556"><ele>574.0</ele><time>2026-05-02T07:43:32Z</time></trkpt><trkpt lat="46.27288745735197" lon="10.259692167742847"><ele>573.0</ele><time>2026-05-02T07:43:33Z</time></trkpt><trkpt lat="46.27259318999697" lon="10.259632918297521"><ele>573.0</ele><time>2026-05-02T07:43:34Z</time></trkpt><trkpt lat="46.272303310634115" lon="10.259578584166418"><ele>573.0</ele><time>2026-05-02T07:43:35Z</time></trkpt><trkpt lat="46.27201732829513" lon="10.25952404518104"><ele>573.5</ele><time>2026-05-02T07:43:36Z</time></trkpt><trkpt lat="46.271734245665165" lon="10.259469329349562"><ele>574.0</ele><time>2026-05-02T07:43:37Z</time></trkpt><trkpt lat="46.271454077115116" lon="10.259414508338452"><ele>572.5</ele><time>2026-05-02T07:43:38Z</time></trkpt><trkpt lat="46.271171999746336" lon="10.25936111214434"><ele>571.0</ele><time>2026-05-02T07:43:39Z</time></trkpt><trkpt lat="46.27089610129111" lon="10.259282318809237"><ele>571.0</ele><time>2026-05-02T07:43:39.999Z</time></trkpt><trkpt lat="46.27061591345157" lon="10.259242051636617"><ele>571.0</ele><time>2026-05-02T07:43:40.999Z</time></trkpt><trkpt lat="46.27033734739773" lon="10.259154065213917"><ele>570.0</ele><time>2026-05-02T07:43:41.999Z</time></trkpt><trkpt lat="46.27006766069211" lon="10.25910600933088"><ele>569.0</ele><time>2026-05-02T07:43:42.999Z</time></trkpt><trkpt lat="46.26980845891083" lon="10.259012993280447"><ele>568.0</ele><time>2026-05-02T07:43:43.999Z</time></trkpt><trkpt lat="46.26954889963289" lon="10.258956279389245"><ele>567.0</ele><time>2026-05-02T07:43:44.999Z</time></trkpt><trkpt lat="46.26928148962501" lon="10.258866051024432"><ele>567.0</ele><time>2026-05-02T07:43:45.999Z</time></trkpt><trkpt lat="46.26901465720349" lon="10.258779001333375"><ele>567.0</ele><time>2026-05-02T07:43:46.999Z</time></trkpt><trkpt lat="46.26875017385208" lon="10.258683025878616"><ele>567.0</ele><time>2026-05-02T07:43:47.999Z</time></trkpt><trkpt lat="46.26849684081968" lon="10.258577070828633"><ele>567.0</ele><time>2026-05-02T07:43:48.999Z</time></trkpt><trkpt lat="46.26824082798327" lon="10.258471913671432"><ele>565.0</ele><time>2026-05-02T07:43:49.999Z</time></trkpt><trkpt lat="46.26798835252578" lon="10.258336405181335"><ele>563.0</ele><time>2026-05-02T07:43:50.999Z</time></trkpt><trkpt lat="46.26774048314301" lon="10.258215979141402"><ele>563.0</ele><time>2026-05-02T07:43:51.999Z</time></trkpt><trkpt lat="46.267483146646185" lon="10.25808138100534"><ele>563.0</ele><time>2026-05-02T07:43:52.999Z</time></trkpt><trkpt lat="46.26722784491544" lon="10.257944095957049"><ele>563.0</ele><time>2026-05-02T07:43:53.999Z</time></trkpt><trkpt lat="46.266970781443796" lon="10.257818372588691"><ele>563.0</ele><time>2026-05-02T07:43:54.999Z</time></trkpt><trkpt lat="46.26671908331838" lon="10.257677628485304"><ele>563.0</ele><time>2026-05-02T07:43:55.999Z</time></trkpt><trkpt lat="46.26646362210017" lon="10.257535151596539"><ele>563.0</ele><time>2026-05-02T07:43:56.999Z</time></trkpt><trkpt lat="46.2662073959362" lon="10.257360181250256"><ele>562.0</ele><time>2026-05-02T07:43:57.999Z</time></trkpt><trkpt lat="46.26594710647335" lon="10.257208127801318"><ele>561.0</ele><time>2026-05-02T07:43:58.999Z</time></trkpt><trkpt lat="46.26568232284736" lon="10.257077408238906"><ele>561.0</ele><time>2026-05-02T07:43:59.999Z</time></trkpt><trkpt lat="46.26542743879664" lon="10.256921700262227"><ele>561.0</ele><time>2026-05-02T07:44:00.999Z</time></trkpt><trkpt lat="46.265168932706345" lon="10.256763443959096"><ele>561.0</ele><time>2026-05-02T07:44:01.999Z</time></trkpt><trkpt lat="46.2649124542879" lon="10.2566116165663"><ele>561.0</ele><time>2026-05-02T07:44:02.999Z</time></trkpt><trkpt lat="46.264653217789736" lon="10.256461176141297"><ele>558.5</ele><time>2026-05-02T07:44:03.999Z</time></trkpt><trkpt lat="46.26439257618045" lon="10.256313527901874"><ele>556.0</ele><time>2026-05-02T07:44:04.999Z</time></trkpt><trkpt lat="46.26413742138419" lon="10.256159400228528"><ele>555.0</ele><time>2026-05-02T07:44:05.999Z</time></trkpt><trkpt lat="46.26387703429024" lon="10.2560031258458"><ele>554.0</ele><time>2026-05-02T07:44:06.999Z</time></trkpt><trkpt lat="46.263615759942475" lon="10.25583925326144"><ele>554.0</ele><time>2026-05-02T07:44:07.999Z</time></trkpt><trkpt lat="46.26336016152916" lon="10.255673309769234"><ele>554.0</ele><time>2026-05-02T07:44:08.999Z</time></trkpt><trkpt lat="46.26310650832468" lon="10.255495754864924"><ele>553.0</ele><time>2026-05-02T07:44:09.999Z</time></trkpt><trkpt lat="46.2628561393371" lon="10.255316980370592"><ele>552.0</ele><time>2026-05-02T07:44:10.999Z</time></trkpt><trkpt lat="46.26260470367177" lon="10.255132420413654"><ele>552.0</ele><time>2026-05-02T07:44:11.999Z</time></trkpt><trkpt lat="46.26236024813254" lon="10.254937847117832"><ele>552.0</ele><time>2026-05-02T07:44:12.999Z</time></trkpt><trkpt lat="46.262118557754015" lon="10.254728910362761"><ele>552.0</ele><time>2026-05-02T07:44:13.999Z</time></trkpt><trkpt lat="46.261879965385056" lon="10.25451886817596"><ele>552.0</ele><time>2026-05-02T07:44:14.999Z</time></trkpt><trkpt lat="46.26163993657563" lon="10.254306729010024"><ele>551.5</ele><time>2026-05-02T07:44:15.999Z</time></trkpt><trkpt lat="46.261406681109186" lon="10.254083239663968"><ele>551.0</ele><time>2026-05-02T07:44:16.999Z</time></trkpt><trkpt lat="46.261177968007566" lon="10.253848093863953"><ele>551.0</ele><time>2026-05-02T07:44:17.999Z</time></trkpt><trkpt lat="46.260954640973495" lon="10.253610191017241"><ele>551.0</ele><time>2026-05-02T07:44:18.999Z</time></trkpt><trkpt lat="46.260734758125274" lon="10.253365634729958"><ele>551.0</ele><time>2026-05-02T07:44:19.999Z</time></trkpt><trkpt lat="46.260512301919874" lon="10.253117556540003"><ele>551.0</ele><time>2026-05-02T07:44:20.999Z</time></trkpt><trkpt lat="46.26028992795409" lon="10.252867140775471"><ele>551.0</ele><time>2026-05-02T07:44:21.999Z</time></trkpt><trkpt lat="46.26006318237404" lon="10.252614350558593"><ele>551.0</ele><time>2026-05-02T07:44:22.999Z</time></trkpt><trkpt lat="46.25983913934475" lon="10.252355258934978"><ele>549.0</ele><time>2026-05-02T07:44:23.999Z</time></trkpt><trkpt lat="46.259625146253285" lon="10.252112649210785"><ele>547.0</ele><time>2026-05-02T07:44:24.999Z</time></trkpt><trkpt lat="46.25940493244298" lon="10.251868488848272"><ele>547.0</ele><time>2026-05-02T07:44:25.999Z</time></trkpt><trkpt lat="46.259184434571615" lon="10.251633104210727"><ele>547.0</ele><time>2026-05-02T07:44:26.999Z</time></trkpt><trkpt lat="46.25896247925522" lon="10.251393169671585"><ele>547.0</ele><time>2026-05-02T07:44:27.999Z</time></trkpt><trkpt lat="46.25874250586608" lon="10.251154804969199"><ele>547.0</ele><time>2026-05-02T07:44:28.999Z</time></trkpt><trkpt lat="46.258523960798165" lon="10.250915640373144"><ele>547.0</ele><time>2026-05-02T07:44:29.999Z</time></trkpt><trkpt lat="46.25830619789751" lon="10.250669389514709"><ele>547.0</ele><time>2026-05-02T07:44:30.999Z</time></trkpt><trkpt lat="46.25808601816768" lon="10.250417674726316"><ele>546.0</ele><time>2026-05-02T07:44:31.999Z</time></trkpt><trkpt lat="46.257865537104024" lon="10.250170824999914"><ele>545.0</ele><time>2026-05-02T07:44:32.999Z</time></trkpt><trkpt lat="46.257642695221605" lon="10.249925071096463"><ele>544.5</ele><time>2026-05-02T07:44:33.999Z</time></trkpt><trkpt lat="46.25741622928306" lon="10.249680562948514"><ele>544.0</ele><time>2026-05-02T07:44:34.999Z</time></trkpt><trkpt lat="46.25719564022093" lon="10.249429090018923"><ele>544.0</ele><time>2026-05-02T07:44:35.999Z</time></trkpt><trkpt lat="46.256971453869525" lon="10.249183417082243"><ele>544.0</ele><time>2026-05-02T07:44:36.999Z</time></trkpt><trkpt lat="46.256751486506005" lon="10.2489328334282"><ele>543.0</ele><time>2026-05-02T07:44:37.999Z</time></trkpt><trkpt lat="46.25653016644347" lon="10.248687541463696"><ele>542.0</ele><time>2026-05-02T07:44:38.998Z</time></trkpt><trkpt lat="46.25630893997689" lon="10.24843842829777"><ele>541.0</ele><time>2026-05-02T07:44:39.998Z</time></trkpt><trkpt lat="46.25608637839529" lon="10.248187830961589"><ele>540.0</ele><time>2026-05-02T07:44:40.998Z</time></trkpt><trkpt lat="46.255863291889156" lon="10.247940888678817"><ele>540.0</ele><time>2026-05-02T07:44:41.998Z</time></trkpt><trkpt lat="46.255639458278985" lon="10.247693734890246"><ele>540.0</ele><time>2026-05-02T07:44:42.998Z</time></trkpt><trkpt lat="46.255412386481815" lon="10.247454061809472"><ele>539.5</ele><time>2026-05-02T07:44:43.998Z</time></trkpt><trkpt lat="46.255188744818106" lon="10.247211512632719"><ele>539.0</ele><time>2026-05-02T07:44:44.998Z</time></trkpt><trkpt lat="46.25496321025563" lon="10.246967718270755"><ele>538.5</ele><time>2026-05-02T07:44:45.998Z</time></trkpt><trkpt lat="46.25474097526802" lon="10.246720939458305"><ele>538.0</ele><time>2026-05-02T07:44:46.998Z</time></trkpt><trkpt lat="46.254517623763896" lon="10.24647368848225"><ele>538.0</ele><time>2026-05-02T07:44:47.998Z</time></trkpt><trkpt lat="46.254291910696445" lon="10.246230933678964"><ele>538.0</ele><time>2026-05-02T07:44:48.998Z</time></trkpt><trkpt lat="46.25406545948846" lon="10.245986684975696"><ele>537.0</ele><time>2026-05-02T07:44:49.998Z</time></trkpt><trkpt lat="46.25384303106976" lon="10.245745189221871"><ele>536.0</ele><time>2026-05-02T07:44:50.998Z</time></trkpt><trkpt lat="46.253617427116836" lon="10.245503923958898"><ele>534.5</ele><time>2026-05-02T07:44:51.998Z</time></trkpt><trkpt lat="46.25339606786954" lon="10.245265827697073"><ele>533.0</ele><time>2026-05-02T07:44:52.998Z</time></trkpt><trkpt lat="46.25317663535267" lon="10.245018523875043"><ele>534.0</ele><time>2026-05-02T07:44:53.998Z</time></trkpt><trkpt lat="46.25295438256452" lon="10.244779716720727"><ele>535.0</ele><time>2026-05-02T07:44:54.998Z</time></trkpt><trkpt lat="46.25272770992894" lon="10.244548162558708"><ele>535.0</ele><time>2026-05-02T07:44:55.998Z</time></trkpt><trkpt lat="46.25249840908905" lon="10.244319336988372"><ele>535.0</ele><time>2026-05-02T07:44:56.998Z</time></trkpt><trkpt lat="46.252269574599545" lon="10.244098623706483"><ele>533.5</ele><time>2026-05-02T07:44:57.998Z</time></trkpt><trkpt lat="46.25203738411342" lon="10.243879564082222"><ele>532.0</ele><time>2026-05-02T07:44:58.998Z</time></trkpt><trkpt lat="46.25180195547619" lon="10.24366187768848"><ele>532.0</ele><time>2026-05-02T07:44:59.998Z</time></trkpt><trkpt lat="46.25156574169521" lon="10.243448367975795"><ele>532.0</ele><time>2026-05-02T07:45:00.998Z</time></trkpt><trkpt lat="46.25133094397272" lon="10.243235677690354"><ele>530.5</ele><time>2026-05-02T07:45:02Z</time></trkpt><trkpt lat="46.25109601268739" lon="10.243023813108307"><ele>529.0</ele><time>2026-05-02T07:45:03Z</time></trkpt><trkpt lat="46.25086073896046" lon="10.242813377076809"><ele>528.0</ele><time>2026-05-02T07:45:04Z</time></trkpt><trkpt lat="46.25061950601712" lon="10.242606599827027"><ele>527.0</ele><time>2026-05-02T07:45:05Z</time></trkpt><trkpt lat="46.25037886607426" lon="10.242402279299336"><ele>527.0</ele><time>2026-05-02T07:45:06Z</time></trkpt><trkpt lat="46.25014148746591" lon="10.242199160335323"><ele>527.0</ele><time>2026-05-02T07:45:07Z</time></trkpt><trkpt lat="46.24991438687943" lon="10.242008588471794"><ele>526.5</ele><time>2026-05-02T07:45:08Z</time></trkpt><trkpt lat="46.249694042668594" lon="10.241825576098845"><ele>526.0</ele><time>2026-05-02T07:45:09Z</time></trkpt><trkpt lat="46.24947922951833" lon="10.241650338833457"><ele>526.0</ele><time>2026-05-02T07:45:10Z</time></trkpt><trkpt lat="46.24926128586426" lon="10.241473770122347"><ele>526.0</ele><time>2026-05-02T07:45:11Z</time></trkpt><trkpt lat="46.24903964533054" lon="10.241294520305091"><ele>524.0</ele><time>2026-05-02T07:45:12Z</time></trkpt><trkpt lat="46.248819632023746" lon="10.2411195133741"><ele>522.0</ele><time>2026-05-02T07:45:13Z</time></trkpt><trkpt lat="46.24859451192265" lon="10.240944436609116"><ele>522.0</ele><time>2026-05-02T07:45:14Z</time></trkpt><trkpt lat="46.2483705629376" lon="10.240767284280707"><ele>522.0</ele><time>2026-05-02T07:45:15Z</time></trkpt><trkpt lat="46.248143834563685" lon="10.24058537540179"><ele>522.5</ele><time>2026-05-02T07:45:16Z</time></trkpt><trkpt lat="46.247917010679316" lon="10.24040397663907"><ele>523.0</ele><time>2026-05-02T07:45:17Z</time></trkpt><trkpt lat="46.24769049318407" lon="10.240221513730354"><ele>523.0</ele><time>2026-05-02T07:45:18Z</time></trkpt><trkpt lat="46.24746896685313" lon="10.240046395884221"><ele>523.0</ele><time>2026-05-02T07:45:19Z</time></trkpt><trkpt lat="46.24725640696131" lon="10.239877446523037"><ele>522.0</ele><time>2026-05-02T07:45:20Z</time></trkpt><trkpt lat="46.24704515380732" lon="10.239713849694942"><ele>521.0</ele><time>2026-05-02T07:45:21Z</time></trkpt><trkpt lat="46.24682385449387" lon="10.23953875074324"><ele>521.0</ele><time>2026-05-02T07:45:22Z</time></trkpt><trkpt lat="46.24659888687126" lon="10.239355242223192"><ele>521.0</ele><time>2026-05-02T07:45:23Z</time></trkpt><trkpt lat="46.24636600646767" lon="10.239167202809481"><ele>520.5</ele><time>2026-05-02T07:45:24Z</time></trkpt><trkpt lat="46.24613285671662" lon="10.238984473600143"><ele>520.0</ele><time>2026-05-02T07:45:25Z</time></trkpt><trkpt lat="46.24590079313842" lon="10.238789397452242"><ele>520.0</ele><time>2026-05-02T07:45:26Z</time></trkpt><trkpt lat="46.24566090596932" lon="10.23859098964104"><ele>520.0</ele><time>2026-05-02T07:45:27Z</time></trkpt><trkpt lat="46.24543568514904" lon="10.238397689341653"><ele>520.0</ele><time>2026-05-02T07:45:28Z</time></trkpt><trkpt lat="46.24521522226542" lon="10.238202600417228"><ele>520.0</ele><time>2026-05-02T07:45:29Z</time></trkpt><trkpt lat="46.244999105166244" lon="10.238006428339673"><ele>519.5</ele><time>2026-05-02T07:45:30Z</time></trkpt><trkpt lat="46.24479084289205" lon="10.237815700053678"><ele>519.0</ele><time>2026-05-02T07:45:31Z</time></trkpt><trkpt lat="46.24458615592028" lon="10.237632764151668"><ele>519.0</ele><time>2026-05-02T07:45:32Z</time></trkpt><trkpt lat="46.24438216219171" lon="10.237449079018049"><ele>519.0</ele><time>2026-05-02T07:45:33Z</time></trkpt><trkpt lat="46.244187858034635" lon="10.237259865349882"><ele>518.5</ele><time>2026-05-02T07:45:34Z</time></trkpt><trkpt lat="46.24398637384773" lon="10.237069072230984"><ele>518.0</ele><time>2026-05-02T07:45:35Z</time></trkpt><trkpt lat="46.24378914132109" lon="10.236881599280988"><ele>517.5</ele><time>2026-05-02T07:45:36Z</time></trkpt><trkpt lat="46.243592059915485" lon="10.236686321147129"><ele>517.0</ele><time>2026-05-02T07:45:37Z</time></trkpt><trkpt lat="46.243398445692335" lon="10.236500739182961"><ele>517.0</ele><time>2026-05-02T07:45:37.999Z</time></trkpt><trkpt lat="46.243225636732646" lon="10.23631385982724"><ele>517.0</ele><time>2026-05-02T07:45:38.999Z</time></trkpt><trkpt lat="46.24309048516013" lon="10.236134913049206"><ele>517.0</ele><time>2026-05-02T07:45:39.999Z</time></trkpt><trkpt lat="46.2429597040155" lon="10.235940403052874"><ele>516.5</ele><time>2026-05-02T07:45:40.999Z</time></trkpt><trkpt lat="46.24269406856141" lon="10.235771621843037"><ele>516.0</ele><time>2026-05-02T07:45:41.999Z</time></trkpt><trkpt lat="46.24252138836931" lon="10.23560027270321"><ele>515.3333333333334</ele><time>2026-05-02T07:45:42.999Z</time></trkpt><trkpt lat="46.24236160146102" lon="10.235436926951811"><ele>514.6666666666667</ele><time>2026-05-02T07:45:43.999Z</time></trkpt><trkpt lat="46.242204580483936" lon="10.235241851865903"><ele>514.0</ele><time>2026-05-02T07:45:44.999Z</time></trkpt><trkpt lat="46.242026944982165" lon="10.235047906315994"><ele>513.0</ele><time>2026-05-02T07:45:45.999Z</time></trkpt><trkpt lat="46.24184164331507" lon="10.23484257882895"><ele>512.0</ele><time>2026-05-02T07:45:46.999Z</time></trkpt><trkpt lat="46.241642699916056" lon="10.234620998768843"><ele>512.5</ele><time>2026-05-02T07:45:47.999Z</time></trkpt><trkpt lat="46.241449087368636" lon="10.23440126103439"><ele>513.0</ele><time>2026-05-02T07:45:48.999Z</time></trkpt><trkpt lat="46.24125820667224" lon="10.23418181470611"><ele>513.0</ele><time>2026-05-02T07:45:49.999Z</time></trkpt><trkpt lat="46.24108390601985" lon="10.233978299046154"><ele>513.0</ele><time>2026-05-02T07:45:50.999Z</time></trkpt><trkpt lat="46.24088257689437" lon="10.233742713839042"><ele>512.5</ele><time>2026-05-02T07:45:51.999Z</time></trkpt><trkpt lat="46.24068388317683" lon="10.233510212387188"><ele>512.0</ele><time>2026-05-02T07:45:52.999Z</time></trkpt><trkpt lat="46.24047020381481" lon="10.233284941916345"><ele>511.5</ele><time>2026-05-02T07:45:53.999Z</time></trkpt><trkpt lat="46.24026260290382" lon="10.233047170564443"><ele>511.0</ele><time>2026-05-02T07:45:54.999Z</time></trkpt><trkpt lat="46.24005448998738" lon="10.232803742360465"><ele>511.0</ele><time>2026-05-02T07:45:55.999Z</time></trkpt><trkpt lat="46.23985353700595" lon="10.232537955721746"><ele>511.0</ele><time>2026-05-02T07:45:56.999Z</time></trkpt><trkpt lat="46.23963572447761" lon="10.232281551157833"><ele>510.0</ele><time>2026-05-02T07:45:57.999Z</time></trkpt><trkpt lat="46.239406557967" lon="10.232015892341487"><ele>509.0</ele><time>2026-05-02T07:45:58.999Z</time></trkpt><trkpt lat="46.23918646285987" lon="10.231760802663397"><ele>509.0</ele><time>2026-05-02T07:45:59.999Z</time></trkpt><trkpt lat="46.23898327922984" lon="10.231522034254676"><ele>509.0</ele><time>2026-05-02T07:46:00.999Z</time></trkpt><trkpt lat="46.23878460116734" lon="10.231288286850736"><ele>508.5</ele><time>2026-05-02T07:46:01.999Z</time></trkpt><trkpt lat="46.23859233478683" lon="10.231062089211072"><ele>508.0</ele><time>2026-05-02T07:46:02.999Z</time></trkpt><trkpt lat="46.238401512151285" lon="10.230866859688476"><ele>507.5</ele><time>2026-05-02T07:46:03.999Z</time></trkpt><trkpt lat="46.23823059220276" lon="10.230640393626144"><ele>507.0</ele><time>2026-05-02T07:46:04.999Z</time></trkpt><trkpt lat="46.23804389845567" lon="10.230463804942337"><ele>507.0</ele><time>2026-05-02T07:46:05.999Z</time></trkpt><trkpt lat="46.23787649828949" lon="10.23026054701431"><ele>507.0</ele><time>2026-05-02T07:46:06.999Z</time></trkpt><trkpt lat="46.237717096194984" lon="10.230066858583863"><ele>507.0</ele><time>2026-05-02T07:46:07.999Z</time></trkpt><trkpt lat="46.23755942557776" lon="10.229881304304882"><ele>506.66666666666663</ele><time>2026-05-02T07:46:08.999Z</time></trkpt><trkpt lat="46.23739316918341" lon="10.22968686646113"><ele>506.3333333333333</ele><time>2026-05-02T07:46:09.999Z</time></trkpt><trkpt lat="46.237214039384114" lon="10.229484859344659"><ele>506.0</ele><time>2026-05-02T07:46:10.999Z</time></trkpt><trkpt lat="46.23702515801906" lon="10.22928526749093"><ele>506.0</ele><time>2026-05-02T07:46:11.999Z</time></trkpt><trkpt lat="46.23683871633927" lon="10.229065666604992"><ele>506.0</ele><time>2026-05-02T07:46:12.999Z</time></trkpt><trkpt lat="46.236653291654946" lon="10.228843659590854"><ele>505.0</ele><time>2026-05-02T07:46:13.999Z</time></trkpt><trkpt lat="46.236463155665994" lon="10.228624147036522"><ele>504.0</ele><time>2026-05-02T07:46:14.999Z</time></trkpt><trkpt lat="46.23626110111318" lon="10.228393396588405"><ele>504.0</ele><time>2026-05-02T07:46:15.999Z</time></trkpt><trkpt lat="46.23607775514315" lon="10.22817144182017"><ele>504.0</ele><time>2026-05-02T07:46:16.999Z</time></trkpt><trkpt lat="46.235898313709924" lon="10.227976116144994"><ele>504.5</ele><time>2026-05-02T07:46:17.999Z</time></trkpt><trkpt lat="46.23569881497504" lon="10.227810946115998"><ele>505.0</ele><time>2026-05-02T07:46:18.999Z</time></trkpt><trkpt lat="46.2354941840793" lon="10.227670719354851"><ele>504.6666666666667</ele><time>2026-05-02T07:46:19.999Z</time></trkpt><trkpt lat="46.2353118540602" lon="10.227514756730802"><ele>504.33333333333337</ele><time>2026-05-02T07:46:20.999Z</time></trkpt><trkpt lat="46.23514800364415" lon="10.22734170441541"><ele>504.0</ele><time>2026-05-02T07:46:21.999Z</time></trkpt><trkpt lat="46.23498149931584" lon="10.227132519190134"><ele>503.5</ele><time>2026-05-02T07:46:22.999Z</time></trkpt><trkpt lat="46.23479466783522" lon="10.226904909646818"><ele>503.0</ele><time>2026-05-02T07:46:23.999Z</time></trkpt><trkpt lat="46.23458536593831" lon="10.226724057809855"><ele>503.0</ele><time>2026-05-02T07:46:24.999Z</time></trkpt><trkpt lat="46.23438077181203" lon="10.226569846964551"><ele>503.0</ele><time>2026-05-02T07:46:25.999Z</time></trkpt><trkpt lat="46.23417383426568" lon="10.226385615166373"><ele>501.0</ele><time>2026-05-02T07:46:26.999Z</time></trkpt><trkpt lat="46.23396737063673" lon="10.226201645597108"><ele>499.0</ele><time>2026-05-02T07:46:27.999Z</time></trkpt><trkpt lat="46.23375739274263" lon="10.226020174603352"><ele>499.0</ele><time>2026-05-02T07:46:28.999Z</time></trkpt><trkpt lat="46.2335458374715" lon="10.225827454452713"><ele>499.0</ele><time>2026-05-02T07:46:29.999Z</time></trkpt><trkpt lat="46.23336085223022" lon="10.22561559182648"><ele>499.33333333333337</ele><time>2026-05-02T07:46:30.999Z</time></trkpt><trkpt lat="46.23319419615267" lon="10.225410754449745"><ele>499.66666666666663</ele><time>2026-05-02T07:46:31.999Z</time></trkpt><trkpt lat="46.23303586645582" lon="10.225198524255752"><ele>500.0</ele><time>2026-05-02T07:46:32.999Z</time></trkpt><trkpt lat="46.232885761911994" lon="10.224978035382229"><ele>500.0</ele><time>2026-05-02T07:46:33.999Z</time></trkpt><trkpt lat="46.232741834339805" lon="10.224751786180756"><ele>500.0</ele><time>2026-05-02T07:46:34.999Z</time></trkpt><trkpt lat="46.23260344006386" lon="10.224518482281539"><ele>500.0</ele><time>2026-05-02T07:46:35.999Z</time></trkpt><trkpt lat="46.23247703822938" lon="10.22428004185534"><ele>500.0</ele><time>2026-05-02T07:46:36.999Z</time></trkpt><trkpt lat="46.23235250646966" lon="10.224056656266633"><ele>500.0</ele><time>2026-05-02T07:46:37.999Z</time></trkpt><trkpt lat="46.23223563902784" lon="10.223811219276351"><ele>500.0</ele><time>2026-05-02T07:46:38.998Z</time></trkpt><trkpt lat="46.232122707377705" lon="10.223562060564879"><ele>501.0</ele><time>2026-05-02T07:46:39.998Z</time></trkpt><trkpt lat="46.23201682885381" lon="10.22329527304279"><ele>502.0</ele><time>2026-05-02T07:46:40.998Z</time></trkpt><trkpt lat="46.231923872732125" lon="10.223030550763397"><ele>503.0</ele><time>2026-05-02T07:46:41.998Z</time></trkpt><trkpt lat="46.23183342938307" lon="10.222765685159239"><ele>503.3333333333333</ele><time>2026-05-02T07:46:42.998Z</time></trkpt><trkpt lat="46.23175597665401" lon="10.22249599365792"><ele>503.66666666666663</ele><time>2026-05-02T07:46:43.998Z</time></trkpt><trkpt lat="46.23168229379596" lon="10.222219125437556"><ele>504.0</ele><time>2026-05-02T07:46:44.998Z</time></trkpt><trkpt lat="46.23161208081815" lon="10.221939556732693"><ele>504.0</ele><time>2026-05-02T07:46:45.998Z</time></trkpt><trkpt lat="46.23154948757104" lon="10.22164581264444"><ele>504.0</ele><time>2026-05-02T07:46:46.998Z</time></trkpt><trkpt lat="46.23149488630797" lon="10.221364430516381"><ele>504.0</ele><time>2026-05-02T07:46:47.998Z</time></trkpt><trkpt lat="46.23144186757072" lon="10.221066869595514"><ele>510.66666666666663</ele><time>2026-05-02T07:46:48.998Z</time></trkpt><trkpt lat="46.231386263401326" lon="10.220756682970631"><ele>517.3333333333333</ele><time>2026-05-02T07:46:49.998Z</time></trkpt><trkpt lat="46.231343661698624" lon="10.220485309908907"><ele>524.0</ele><time>2026-05-02T07:46:50.998Z</time></trkpt><trkpt lat="46.231327805781554" lon="10.220168996748901"><ele>524.0</ele><time>2026-05-02T07:46:51.998Z</time></trkpt><trkpt lat="46.23130755151345" lon="10.21984168543536"><ele>524.0</ele><time>2026-05-02T07:46:52.998Z</time></trkpt><trkpt lat="46.23128411116047" lon="10.219510884725596"><ele>523.5</ele><time>2026-05-02T07:46:53.998Z</time></trkpt><trkpt lat="46.231278310962395" lon="10.219178838852278"><ele>523.0</ele><time>2026-05-02T07:46:54.998Z</time></trkpt><trkpt lat="46.231272406620896" lon="10.21884998154373"><ele>523.0</ele><time>2026-05-02T07:46:55.998Z</time></trkpt><trkpt lat="46.231262900877645" lon="10.218542245539567"><ele>523.0</ele><time>2026-05-02T07:46:56.998Z</time></trkpt><trkpt lat="46.23124906483138" lon="10.218253004372112"><ele>523.0</ele><time>2026-05-02T07:46:57.998Z</time></trkpt><trkpt lat="46.23124024991429" lon="10.217981150105826"><ele>523.0</ele><time>2026-05-02T07:46:58.998Z</time></trkpt><trkpt lat="46.2312305401551" lon="10.217695007844895"><ele>523.0</ele><time>2026-05-02T07:46:59.998Z</time></trkpt><trkpt lat="46.23122263775832" lon="10.217408808031674"><ele>523.0</ele><time>2026-05-02T07:47:00.998Z</time></trkpt><trkpt lat="46.23120746457261" lon="10.217116424116721"><ele>523.6666666666667</ele><time>2026-05-02T07:47:01.998Z</time></trkpt><trkpt lat="46.23118642022237" lon="10.216829401018952"><ele>524.3333333333334</ele><time>2026-05-02T07:47:02.998Z</time></trkpt><trkpt lat="46.23116507281181" lon="10.216534314463848"><ele>525.0</ele><time>2026-05-02T07:47:03.998Z</time></trkpt><trkpt lat="46.23113937883782" lon="10.216230743370213"><ele>525.0</ele><time>2026-05-02T07:47:04.998Z</time></trkpt><trkpt lat="46.23112115253869" lon="10.215922586137234"><ele>525.0</ele><time>2026-05-02T07:47:05.998Z</time></trkpt><trkpt lat="46.23110742182511" lon="10.215606078082176"><ele>525.0</ele><time>2026-05-02T07:47:06.998Z</time></trkpt><trkpt lat="46.23108199894655" lon="10.21528652270203"><ele>525.0</ele><time>2026-05-02T07:47:08Z</time></trkpt><trkpt lat="46.23104907028533" lon="10.214953113454857"><ele>525.0</ele><time>2026-05-02T07:47:09Z</time></trkpt><trkpt lat="46.23102589554061" lon="10.214613512312884"><ele>525.0</ele><time>2026-05-02T07:47:10Z</time></trkpt><trkpt lat="46.23100024728339" lon="10.214301565074717"><ele>525.0</ele><time>2026-05-02T07:47:11Z</time></trkpt><trkpt lat="46.23097121818449" lon="10.214004606048077"><ele>525.0</ele><time>2026-05-02T07:47:12Z</time></trkpt><trkpt lat="46.2309438127635" lon="10.21370088314168"><ele>524.3333333333334</ele><time>2026-05-02T07:47:13Z</time></trkpt><trkpt lat="46.23089351918472" lon="10.213375475071766"><ele>523.6666666666667</ele><time>2026-05-02T07:47:14Z</time></trkpt><trkpt lat="46.23086470848489" lon="10.213107227530378"><ele>523.0</ele><time>2026-05-02T07:47:15Z</time></trkpt><trkpt lat="46.230831452713275" lon="10.212833306389076"><ele>522.3333333333334</ele><time>2026-05-02T07:47:16Z</time></trkpt><trkpt lat="46.23078894503172" lon="10.212543772223311"><ele>521.6666666666666</ele><time>2026-05-02T07:47:17Z</time></trkpt><trkpt lat="46.2307525370967" lon="10.212264222281272"><ele>521.0</ele><time>2026-05-02T07:47:18Z</time></trkpt><trkpt lat="46.23071512356264" lon="10.211995417820246"><ele>521.0</ele><time>2026-05-02T07:47:19Z</time></trkpt><trkpt lat="46.23067763136258" lon="10.211741279216039"><ele>521.0</ele><time>2026-05-02T07:47:20Z</time></trkpt><trkpt lat="46.230640693313525" lon="10.21146811342163"><ele>521.0</ele><time>2026-05-02T07:47:21Z</time></trkpt><trkpt lat="46.230597335052856" lon="10.211179382114192"><ele>525.5</ele><time>2026-05-02T07:47:22Z</time></trkpt><trkpt lat="46.23057000147452" lon="10.210864142174255"><ele>530.0</ele><time>2026-05-02T07:47:23Z</time></trkpt><trkpt lat="46.230523014059926" lon="10.210532098044144"><ele>530.0</ele><time>2026-05-02T07:47:24Z</time></trkpt><trkpt lat="46.230470847395296" lon="10.210172988026365"><ele>530.0</ele><time>2026-05-02T07:47:25Z</time></trkpt><trkpt lat="46.230430120554864" lon="10.20994774568565"><ele>530.0</ele><time>2026-05-02T07:47:26Z</time></trkpt><trkpt lat="46.2304097985332" lon="10.209712258435921"><ele>530.0</ele><time>2026-05-02T07:47:27Z</time></trkpt><trkpt lat="46.23037554613538" lon="10.209474425565338"><ele>530.0</ele><time>2026-05-02T07:47:28Z</time></trkpt><trkpt lat="46.23031277469158" lon="10.209182262542498"><ele>530.0</ele><time>2026-05-02T07:47:29Z</time></trkpt><trkpt lat="46.2302666809546" lon="10.208944901562433"><ele>529.0</ele><time>2026-05-02T07:47:30Z</time></trkpt><trkpt lat="46.23022122812934" lon="10.208725100225658"><ele>528.0</ele><time>2026-05-02T07:47:31Z</time></trkpt><trkpt lat="46.23017911239865" lon="10.208507896253225"><ele>527.0</ele><time>2026-05-02T07:47:32Z</time></trkpt><trkpt lat="46.230126757297235" lon="10.208298026539307"><ele>525.6666666666666</ele><time>2026-05-02T07:47:33Z</time></trkpt><trkpt lat="46.230085728595604" lon="10.20810263514531"><ele>524.3333333333334</ele><time>2026-05-02T07:47:34Z</time></trkpt><trkpt lat="46.2300395888433" lon="10.20788353816088"><ele>523.0</ele><time>2026-05-02T07:47:35Z</time></trkpt><trkpt lat="46.22999351481215" lon="10.207655299162703"><ele>523.0</ele><time>2026-05-02T07:47:36Z</time></trkpt><trkpt lat="46.2299478442491" lon="10.207413659312488"><ele>523.0</ele><time>2026-05-02T07:47:37Z</time></trkpt><trkpt lat="46.22989533632873" lon="10.207175718264985"><ele>523.0</ele><time>2026-05-02T07:47:38Z</time></trkpt><trkpt lat="46.22985354020999" lon="10.206948942099736"><ele>526.0</ele><time>2026-05-02T07:47:39Z</time></trkpt><trkpt lat="46.229805153986085" lon="10.206730403572202"><ele>529.0</ele><time>2026-05-02T07:47:40Z</time></trkpt><trkpt lat="46.22975957135311" lon="10.206491182501884"><ele>532.0</ele><time>2026-05-02T07:47:41Z</time></trkpt><trkpt lat="46.2297145637255" lon="10.206252231607035"><ele>532.6666666666667</ele><time>2026-05-02T07:47:42Z</time></trkpt><trkpt lat="46.22967018794968" lon="10.206033642131889"><ele>533.3333333333334</ele><time>2026-05-02T07:47:43Z</time></trkpt><trkpt lat="46.229619630543034" lon="10.20578486126747"><ele>534.0</ele><time>2026-05-02T07:47:44Z</time></trkpt><trkpt lat="46.229570904934775" lon="10.205562620380551"><ele>532.6666666666666</ele><time>2026-05-02T07:47:45Z</time></trkpt><trkpt lat="46.22951798528163" lon="10.20531689173025"><ele>531.3333333333333</ele><time>2026-05-02T07:47:46Z</time></trkpt><trkpt lat="46.22946207530547" lon="10.20507892929413"><ele>530.0</ele><time>2026-05-02T07:47:47Z</time></trkpt><trkpt lat="46.229397480635036" lon="10.204847531475982"><ele>527.6666666666666</ele><time>2026-05-02T07:47:47.999Z</time></trkpt><trkpt lat="46.229316479905734" lon="10.204623805189557"><ele>525.3333333333334</ele><time>2026-05-02T07:47:48.999Z</time></trkpt><trkpt lat="46.229218492402275" lon="10.20440157996835"><ele>523.0</ele><time>2026-05-02T07:47:49.999Z</time></trkpt><trkpt lat="46.22911062710701" lon="10.204181568692606"><ele>522.0</ele><time>2026-05-02T07:47:50.999Z</time></trkpt><trkpt lat="46.22898578551199" lon="10.20395621404969"><ele>521.0</ele><time>2026-05-02T07:47:51.999Z</time></trkpt><trkpt lat="46.228852645836064" lon="10.203727961028038"><ele>520.0</ele><time>2026-05-02T07:47:52.999Z</time></trkpt><trkpt lat="46.22872226303249" lon="10.203490947969364"><ele>522.6666666666667</ele><time>2026-05-02T07:47:53.999Z</time></trkpt><trkpt lat="46.228607011119635" lon="10.203253988646443"><ele>525.3333333333334</ele><time>2026-05-02T07:47:54.999Z</time></trkpt><trkpt lat="46.22849742423081" lon="10.203010039529483"><ele>528.0</ele><time>2026-05-02T07:47:55.999Z</time></trkpt><trkpt lat="46.22838222777123" lon="10.202784812309693"><ele>528.0</ele><time>2026-05-02T07:47:56.999Z</time></trkpt><trkpt lat="46.228281374850205" lon="10.202557532088337"><ele>528.0</ele><time>2026-05-02T07:47:57.999Z</time></trkpt><trkpt lat="46.228192433877034" lon="10.202341431853712"><ele>528.0</ele><time>2026-05-02T07:47:58.999Z</time></trkpt><trkpt lat="46.22813718443668" lon="10.202103534645925"><ele>541.6666666666666</ele><time>2026-05-02T07:47:59.999Z</time></trkpt><trkpt lat="46.22808623224052" lon="10.201847821686489"><ele>555.3333333333333</ele><time>2026-05-02T07:48:00.999Z</time></trkpt><trkpt lat="46.22805416612497" lon="10.201618415143832"><ele>569.0</ele><time>2026-05-02T07:48:01.999Z</time></trkpt><trkpt lat="46.22801403540885" lon="10.201379279001124"><ele>569.0</ele><time>2026-05-02T07:48:02.999Z</time></trkpt><trkpt lat="46.22798344297067" lon="10.20112691083539"><ele>569.0</ele><time>2026-05-02T07:48:03.999Z</time></trkpt><trkpt lat="46.22796330454995" lon="10.20088967235346"><ele>569.0</ele><time>2026-05-02T07:48:04.999Z</time></trkpt><trkpt lat="46.22793399681925" lon="10.200682871350924"><ele>567.0</ele><time>2026-05-02T07:48:05.999Z</time></trkpt><trkpt lat="46.227907837422336" lon="10.200483066342995"><ele>565.0</ele><time>2026-05-02T07:48:06.999Z</time></trkpt><trkpt lat="46.227890290381254" lon="10.200296524822164"><ele>563.0</ele><time>2026-05-02T07:48:07.999Z</time></trkpt><trkpt lat="46.22789406817587" lon="10.200117007911931"><ele>561.0</ele><time>2026-05-02T07:48:08.999Z</time></trkpt><trkpt lat="46.227864731586806" lon="10.19996208862226"><ele>559.25</ele><time>2026-05-02T07:48:09.999Z</time></trkpt><trkpt lat="46.22783203446439" lon="10.1998221683249"><ele>557.5</ele><time>2026-05-02T07:48:10.999Z</time></trkpt><trkpt lat="46.227790171041555" lon="10.199676233809548"><ele>555.75</ele><time>2026-05-02T07:48:11.999Z</time></trkpt><trkpt lat="46.227731814987465" lon="10.199532404004334"><ele>554.0</ele><time>2026-05-02T07:48:12.999Z</time></trkpt><trkpt lat="46.22766679558959" lon="10.199363994209383"><ele>554.0</ele><time>2026-05-02T07:48:13.999Z</time></trkpt><trkpt lat="46.22761440932969" lon="10.199198448996993"><ele>554.0</ele><time>2026-05-02T07:48:14.999Z</time></trkpt><trkpt lat="46.22756805501928" lon="10.199032229399933"><ele>554.0</ele><time>2026-05-02T07:48:15.999Z</time></trkpt><trkpt lat="46.227522726401205" lon="10.198885840592467"><ele>554.0</ele><time>2026-05-02T07:48:16.999Z</time></trkpt><trkpt lat="46.227474188715924" lon="10.19872469165434"><ele>553.25</ele><time>2026-05-02T07:48:17.999Z</time></trkpt><trkpt lat="46.227419301264284" lon="10.19856972895762"><ele>552.5</ele><time>2026-05-02T07:48:18.999Z</time></trkpt><trkpt lat="46.22735315940738" lon="10.198428895251327"><ele>551.75</ele><time>2026-05-02T07:48:19.999Z</time></trkpt><trkpt lat="46.2272844210304" lon="10.198297318131283"><ele>551.0</ele><time>2026-05-02T07:48:20.999Z</time></trkpt><trkpt lat="46.227196867254534" lon="10.198192714282301"><ele>548.0</ele><time>2026-05-02T07:48:21.999Z</time></trkpt><trkpt lat="46.22708993468424" lon="10.198100314745098"><ele>545.0</ele><time>2026-05-02T07:48:22.999Z</time></trkpt><trkpt lat="46.22698304673338" lon="10.198020390564336"><ele>542.0</ele><time>2026-05-02T07:48:23.999Z</time></trkpt><trkpt lat="46.22687199851659" lon="10.197939235289027"><ele>539.0</ele><time>2026-05-02T07:48:24.999Z</time></trkpt><trkpt lat="46.226754007726505" lon="10.197856363343385"><ele>539.0</ele><time>2026-05-02T07:48:25.999Z</time></trkpt><trkpt lat="46.22663622780826" lon="10.197770434585697"><ele>539.0</ele><time>2026-05-02T07:48:26.999Z</time></trkpt><trkpt lat="46.22651626514218" lon="10.197674657982793"><ele>539.0</ele><time>2026-05-02T07:48:27.999Z</time></trkpt><trkpt lat="46.22640172141547" lon="10.19759203933284"><ele>539.0</ele><time>2026-05-02T07:48:28.999Z</time></trkpt><trkpt lat="46.22628479280462" lon="10.197505623554553"><ele>542.5</ele><time>2026-05-02T07:48:29.999Z</time></trkpt><trkpt lat="46.22617861961257" lon="10.197412156145665"><ele>546.0</ele><time>2026-05-02T07:48:30.999Z</time></trkpt><trkpt lat="46.22607217454584" lon="10.197304983604885"><ele>549.5</ele><time>2026-05-02T07:48:31.999Z</time></trkpt><trkpt lat="46.22597728089747" lon="10.197176416925421"><ele>553.0</ele><time>2026-05-02T07:48:32.999Z</time></trkpt><trkpt lat="46.225895475451196" lon="10.197025751364247"><ele>553.0</ele><time>2026-05-02T07:48:33.999Z</time></trkpt><trkpt lat="46.22583204643508" lon="10.196863384452657"><ele>553.0</ele><time>2026-05-02T07:48:34.999Z</time></trkpt><trkpt lat="46.22579200939748" lon="10.196681854300714"><ele>553.0</ele><time>2026-05-02T07:48:35.999Z</time></trkpt><trkpt lat="46.225761384443885" lon="10.196508424096992"><ele>553.0</ele><time>2026-05-02T07:48:36.999Z</time></trkpt><trkpt lat="46.22573665714433" lon="10.1963148337388"><ele>551.75</ele><time>2026-05-02T07:48:37.999Z</time></trkpt><trkpt lat="46.22573634375254" lon="10.196133787390135"><ele>550.5</ele><time>2026-05-02T07:48:38.999Z</time></trkpt><trkpt lat="46.22574228044393" lon="10.19595228177208"><ele>549.25</ele><time>2026-05-02T07:48:39.999Z</time></trkpt><trkpt lat="46.22574862650918" lon="10.19575384982258"><ele>548.0</ele><time>2026-05-02T07:48:40.999Z</time></trkpt><trkpt lat="46.22574271499656" lon="10.195550158010642"><ele>549.75</ele><time>2026-05-02T07:48:41.999Z</time></trkpt><trkpt lat="46.225727346211656" lon="10.195351493713702"><ele>551.5</ele><time>2026-05-02T07:48:42.999Z</time></trkpt><trkpt lat="46.22569383496073" lon="10.195139495025627"><ele>553.25</ele><time>2026-05-02T07:48:43.999Z</time></trkpt><trkpt lat="46.22564598101321" lon="10.194930894384342"><ele>555.0</ele><time>2026-05-02T07:48:44.999Z</time></trkpt><trkpt lat="46.22557587032214" lon="10.194735135627013"><ele>555.0</ele><time>2026-05-02T07:48:45.999Z</time></trkpt><trkpt lat="46.22551363829645" lon="10.194535206464275"><ele>555.0</ele><time>2026-05-02T07:48:46.999Z</time></trkpt><trkpt lat="46.22541728023625" lon="10.19433463497006"><ele>555.0</ele><time>2026-05-02T07:48:47.999Z</time></trkpt><trkpt lat="46.22533974795893" lon="10.194145316634382"><ele>552.75</ele><time>2026-05-02T07:48:48.999Z</time></trkpt><trkpt lat="46.22527709826901" lon="10.193975613147991"><ele>550.5</ele><time>2026-05-02T07:48:49.999Z</time></trkpt><trkpt lat="46.225217193493734" lon="10.19380620978936"><ele>548.25</ele><time>2026-05-02T07:48:50.999Z</time></trkpt><trkpt lat="46.22515904243919" lon="10.193644976713514"><ele>546.0</ele><time>2026-05-02T07:48:51.998Z</time></trkpt><trkpt lat="46.225089046941314" lon="10.193467157120173"><ele>546.0</ele><time>2026-05-02T07:48:52.998Z</time></trkpt><trkpt lat="46.22503604601996" lon="10.19329459012208"><ele>546.0</ele><time>2026-05-02T07:48:53.998Z</time></trkpt><trkpt lat="46.22496673975343" lon="10.193122827889349"><ele>546.0</ele><time>2026-05-02T07:48:54.998Z</time></trkpt><trkpt lat="46.22489195696909" lon="10.192965173374857"><ele>546.0</ele><time>2026-05-02T07:48:55.998Z</time></trkpt><trkpt lat="46.224766424294856" lon="10.192816213783182"><ele>546.0</ele><time>2026-05-02T07:48:56.998Z</time></trkpt><trkpt lat="46.22466472884771" lon="10.19267685964531"><ele>546.0</ele><time>2026-05-02T07:48:57.998Z</time></trkpt><trkpt lat="46.2245683804409" lon="10.192555279178453"><ele>546.0</ele><time>2026-05-02T07:48:58.998Z</time></trkpt><trkpt lat="46.22448236240365" lon="10.192438482424091"><ele>546.0</ele><time>2026-05-02T07:48:59.998Z</time></trkpt><trkpt lat="46.224391050820074" lon="10.192329215781172"><ele>546.0</ele><time>2026-05-02T07:49:00.998Z</time></trkpt><trkpt lat="46.2243084144042" lon="10.192214880890667"><ele>546.0</ele><time>2026-05-02T07:49:01.998Z</time></trkpt><trkpt lat="46.22423011889817" lon="10.192096530068001"><ele>546.0</ele><time>2026-05-02T07:49:02.998Z</time></trkpt><trkpt lat="46.22416045273963" lon="10.19197097267705"><ele>546.0</ele><time>2026-05-02T07:49:03.998Z</time></trkpt><trkpt lat="46.224097773252865" lon="10.191834126745228"><ele>546.0</ele><time>2026-05-02T07:49:04.998Z</time></trkpt><trkpt lat="46.224038598634856" lon="10.191679199837838"><ele>546.0</ele><time>2026-05-02T07:49:05.998Z</time></trkpt><trkpt lat="46.223981373257864" lon="10.191481668987802"><ele>546.0</ele><time>2026-05-02T07:49:06.998Z</time></trkpt><trkpt lat="46.22393714791533" lon="10.191309719946492"><ele>546.0</ele><time>2026-05-02T07:49:07.998Z</time></trkpt><trkpt lat="46.223892502262586" lon="10.191141582568447"><ele>545.75</ele><time>2026-05-02T07:49:08.998Z</time></trkpt><trkpt lat="46.223848256073424" lon="10.19098161124111"><ele>545.5</ele><time>2026-05-02T07:49:09.998Z</time></trkpt><trkpt lat="46.2237847373785" lon="10.190825335811155"><ele>545.25</ele><time>2026-05-02T07:49:10.998Z</time></trkpt><trkpt lat="46.223708458880566" lon="10.190663279167048"><ele>545.0</ele><time>2026-05-02T07:49:11.998Z</time></trkpt><trkpt lat="46.22362091674733" lon="10.19051703159702"><ele>543.75</ele><time>2026-05-02T07:49:12.998Z</time></trkpt><trkpt lat="46.22351422997563" lon="10.190380826173966"><ele>542.5</ele><time>2026-05-02T07:49:14Z</time></trkpt><trkpt lat="46.2233919364573" lon="10.190265628138196"><ele>541.25</ele><time>2026-05-02T07:49:15Z</time></trkpt><trkpt lat="46.22329532394765" lon="10.190142400815274"><ele>540.0</ele><time>2026-05-02T07:49:16Z</time></trkpt><trkpt lat="46.22318714200068" lon="10.190038100074132"><ele>541.0</ele><time>2026-05-02T07:49:17Z</time></trkpt><trkpt lat="46.223088739997586" lon="10.189936349467455"><ele>542.0</ele><time>2026-05-02T07:49:18Z</time></trkpt><trkpt lat="46.2229855996396" lon="10.189831589955123"><ele>543.0</ele><time>2026-05-02T07:49:19Z</time></trkpt><trkpt lat="46.22288143501443" lon="10.189722654565472"><ele>544.0</ele><time>2026-05-02T07:49:20Z</time></trkpt><trkpt lat="46.222777445328845" lon="10.189616049943485"><ele>540.6666666666667</ele><time>2026-05-02T07:49:21Z</time></trkpt><trkpt lat="46.22257687753488" lon="10.189416010407085"><ele>537.3333333333334</ele><time>2026-05-02T07:49:23Z</time></trkpt><trkpt lat="46.22246529434956" lon="10.18930270517465"><ele>534.0</ele><time>2026-05-02T07:49:24Z</time></trkpt><trkpt lat="46.2223528287162" lon="10.189191343714304"><ele>534.25</ele><time>2026-05-02T07:49:25Z</time></trkpt><trkpt lat="46.222244321404084" lon="10.189083633106002"><ele>534.5</ele><time>2026-05-02T07:49:26Z</time></trkpt><trkpt lat="46.22214570332031" lon="10.188974276192637"><ele>534.75</ele><time>2026-05-02T07:49:27Z</time></trkpt><trkpt lat="46.22204970410094" lon="10.188860781059825"><ele>535.0</ele><time>2026-05-02T07:49:28Z</time></trkpt><trkpt lat="46.221943538067684" lon="10.188742449060769"><ele>532.75</ele><time>2026-05-02T07:49:29Z</time></trkpt><trkpt lat="46.22184198167759" lon="10.188626090492674"><ele>530.5</ele><time>2026-05-02T07:49:30Z</time></trkpt><trkpt lat="46.22172915987724" lon="10.188508991579688"><ele>528.25</ele><time>2026-05-02T07:49:31Z</time></trkpt><trkpt lat="46.22162460232064" lon="10.18839334445501"><ele>526.0</ele><time>2026-05-02T07:49:32Z</time></trkpt><trkpt lat="46.221529261869755" lon="10.188276850297175"><ele>524.75</ele><time>2026-05-02T07:49:33Z</time></trkpt><trkpt lat="46.22142606388562" lon="10.188158808142532"><ele>523.5</ele><time>2026-05-02T07:49:34Z</time></trkpt><trkpt lat="46.22134556896315" lon="10.188039846656643"><ele>522.25</ele><time>2026-05-02T07:49:35Z</time></trkpt><trkpt lat="46.22126964859351" lon="10.187919165806909"><ele>521.0</ele><time>2026-05-02T07:49:36Z</time></trkpt><trkpt lat="46.22105863920948" lon="10.187727881515649"><ele>521.0</ele><time>2026-05-02T07:49:38Z</time></trkpt><trkpt lat="46.22096423503265" lon="10.187623980206011"><ele>521.0</ele><time>2026-05-02T07:49:39Z</time></trkpt><trkpt lat="46.22084986505462" lon="10.187518809709493"><ele>521.0</ele><time>2026-05-02T07:49:40Z</time></trkpt><trkpt lat="46.220750322906476" lon="10.187409298039537"><ele>521.0</ele><time>2026-05-02T07:49:41Z</time></trkpt><trkpt lat="46.22065260801019" lon="10.187296440713764"><ele>520.25</ele><time>2026-05-02T07:49:42Z</time></trkpt><trkpt lat="46.22055077686827" lon="10.187198374980191"><ele>519.5</ele><time>2026-05-02T07:49:43Z</time></trkpt><trkpt lat="46.22045439223829" lon="10.187088070082067"><ele>518.75</ele><time>2026-05-02T07:49:44Z</time></trkpt><trkpt lat="46.22035141585037" lon="10.186970451514487"><ele>518.0</ele><time>2026-05-02T07:49:45Z</time></trkpt><trkpt lat="46.22023968584154" lon="10.186850111192363"><ele>518.0</ele><time>2026-05-02T07:49:46Z</time></trkpt><trkpt lat="46.220131311192375" lon="10.186730230102562"><ele>518.0</ele><time>2026-05-02T07:49:47Z</time></trkpt><trkpt lat="46.2200356929377" lon="10.186612483384641"><ele>518.0</ele><time>2026-05-02T07:49:48Z</time></trkpt><trkpt lat="46.21993598988122" lon="10.186504167625461"><ele>518.0</ele><time>2026-05-02T07:49:48.999Z</time></trkpt><trkpt lat="46.219843317958265" lon="10.186396902127171"><ele>517.5</ele><time>2026-05-02T07:49:49.999Z</time></trkpt><trkpt lat="46.21974552695003" lon="10.18629838021229"><ele>517.0</ele><time>2026-05-02T07:49:50.999Z</time></trkpt><trkpt lat="46.21965155184264" lon="10.18618906536028"><ele>516.5</ele><time>2026-05-02T07:49:51.999Z</time></trkpt><trkpt lat="46.21956363902439" lon="10.186072017922372"><ele>516.0</ele><time>2026-05-02T07:49:52.999Z</time></trkpt><trkpt lat="46.219464415903786" lon="10.185957770349916"><ele>516.0</ele><time>2026-05-02T07:49:53.999Z</time></trkpt><trkpt lat="46.21936413315375" lon="10.185843526066977"><ele>516.0</ele><time>2026-05-02T07:49:54.999Z</time></trkpt><trkpt lat="46.21925930620009" lon="10.185727074872949"><ele>516.0</ele><time>2026-05-02T07:49:55.999Z</time></trkpt><trkpt lat="46.21915390147187" lon="10.185608688581103"><ele>516.0</ele><time>2026-05-02T07:49:56.999Z</time></trkpt><trkpt lat="46.21904695765602" lon="10.185491042098782"><ele>514.25</ele><time>2026-05-02T07:49:57.999Z</time></trkpt><trkpt lat="46.2189391815327" lon="10.185373374540493"><ele>512.5</ele><time>2026-05-02T07:49:58.999Z</time></trkpt><trkpt lat="46.21883350322306" lon="10.18524967413883"><ele>510.75</ele><time>2026-05-02T07:49:59.999Z</time></trkpt><trkpt lat="46.218729313668334" lon="10.185130573849976"><ele>509.0</ele><time>2026-05-02T07:50:00.999Z</time></trkpt><trkpt lat="46.21861027261723" lon="10.185000047510451"><ele>509.0</ele><time>2026-05-02T07:50:01.999Z</time></trkpt><trkpt lat="46.21849678356795" lon="10.184887536220614"><ele>509.0</ele><time>2026-05-02T07:50:02.999Z</time></trkpt><trkpt lat="46.21839506144477" lon="10.184767098052209"><ele>509.0</ele><time>2026-05-02T07:50:03.999Z</time></trkpt><trkpt lat="46.21829028654422" lon="10.184653055027422"><ele>509.0</ele><time>2026-05-02T07:50:04.999Z</time></trkpt><trkpt lat="46.21818921487036" lon="10.184536568620953"><ele>507.25</ele><time>2026-05-02T07:50:05.999Z</time></trkpt><trkpt lat="46.21808902023707" lon="10.184419611491233"><ele>505.5</ele><time>2026-05-02T07:50:06.999Z</time></trkpt><trkpt lat="46.21798039920494" lon="10.18430733021588"><ele>503.75</ele><time>2026-05-02T07:50:07.999Z</time></trkpt><trkpt lat="46.217867361740595" lon="10.184194494565828"><ele>502.0</ele><time>2026-05-02T07:50:08.999Z</time></trkpt><trkpt lat="46.217767706409724" lon="10.184077943116263"><ele>500.25</ele><time>2026-05-02T07:50:09.999Z</time></trkpt><trkpt lat="46.217667915669885" lon="10.183963277727445"><ele>498.5</ele><time>2026-05-02T07:50:10.999Z</time></trkpt><trkpt lat="46.21756517219373" lon="10.183850535419607"><ele>496.75</ele><time>2026-05-02T07:50:11.999Z</time></trkpt><trkpt lat="46.21746629390937" lon="10.183739215360783"><ele>495.0</ele><time>2026-05-02T07:50:12.999Z</time></trkpt><trkpt lat="46.21736884599677" lon="10.183634603697206"><ele>494.25</ele><time>2026-05-02T07:50:13.999Z</time></trkpt><trkpt lat="46.21726873997799" lon="10.18353343113781"><ele>493.5</ele><time>2026-05-02T07:50:14.999Z</time></trkpt><trkpt lat="46.21717058769319" lon="10.183430215582387"><ele>492.75</ele><time>2026-05-02T07:50:15.999Z</time></trkpt><trkpt lat="46.21706904150929" lon="10.183309901065954"><ele>492.0</ele><time>2026-05-02T07:50:16.999Z</time></trkpt><trkpt lat="46.216966293235735" lon="10.183193098669495"><ele>490.0</ele><time>2026-05-02T07:50:17.999Z</time></trkpt><trkpt lat="46.216867354867546" lon="10.183078337137049"><ele>488.0</ele><time>2026-05-02T07:50:18.999Z</time></trkpt><trkpt lat="46.21676482550853" lon="10.182962626257815"><ele>486.0</ele><time>2026-05-02T07:50:19.999Z</time></trkpt><trkpt lat="46.216661000646425" lon="10.182862554984178"><ele>484.0</ele><time>2026-05-02T07:50:20.999Z</time></trkpt><trkpt lat="46.216573327294746" lon="10.182767376678784"><ele>484.25</ele><time>2026-05-02T07:50:21.999Z</time></trkpt><trkpt lat="46.21648300418992" lon="10.182669807752344"><ele>484.5</ele><time>2026-05-02T07:50:22.999Z</time></trkpt><trkpt lat="46.21638908095831" lon="10.18256236731931"><ele>484.75</ele><time>2026-05-02T07:50:23.999Z</time></trkpt><trkpt lat="46.216296463180605" lon="10.182445980516718"><ele>485.0</ele><time>2026-05-02T07:50:24.999Z</time></trkpt><trkpt lat="46.216198578243265" lon="10.182332408484163"><ele>483.0</ele><time>2026-05-02T07:50:25.999Z</time></trkpt><trkpt lat="46.216099241706274" lon="10.182227887426608"><ele>481.0</ele><time>2026-05-02T07:50:26.999Z</time></trkpt><trkpt lat="46.215997099412306" lon="10.182116235701745"><ele>479.0</ele><time>2026-05-02T07:50:27.999Z</time></trkpt><trkpt lat="46.215891794198534" lon="10.18199822530525"><ele>477.0</ele><time>2026-05-02T07:50:28.999Z</time></trkpt><trkpt lat="46.21579148064934" lon="10.181886932292342"><ele>477.0</ele><time>2026-05-02T07:50:29.999Z</time></trkpt><trkpt lat="46.215690893683714" lon="10.181782842935986"><ele>477.0</ele><time>2026-05-02T07:50:30.999Z</time></trkpt><trkpt lat="46.21560434593711" lon="10.181681729214977"><ele>477.0</ele><time>2026-05-02T07:50:31.999Z</time></trkpt><trkpt lat="46.215515814643254" lon="10.181575053849631"><ele>477.0</ele><time>2026-05-02T07:50:32.999Z</time></trkpt><trkpt lat="46.215420844242644" lon="10.181473918325393"><ele>475.5</ele><time>2026-05-02T07:50:33.999Z</time></trkpt><trkpt lat="46.21531840037389" lon="10.181370924292377"><ele>474.0</ele><time>2026-05-02T07:50:34.999Z</time></trkpt><trkpt lat="46.2152199559915" lon="10.181269672035715"><ele>472.5</ele><time>2026-05-02T07:50:35.999Z</time></trkpt><trkpt lat="46.21512406164993" lon="10.181161537877593"><ele>471.0</ele><time>2026-05-02T07:50:36.999Z</time></trkpt><trkpt lat="46.2150259896714" lon="10.181054431453125"><ele>471.0</ele><time>2026-05-02T07:50:37.999Z</time></trkpt><trkpt lat="46.214932091784085" lon="10.180955440409953"><ele>471.0</ele><time>2026-05-02T07:50:38.999Z</time></trkpt><trkpt lat="46.21484065360125" lon="10.180855332638592"><ele>471.0</ele><time>2026-05-02T07:50:39.999Z</time></trkpt><trkpt lat="46.214745814047035" lon="10.180744499146066"><ele>471.0</ele><time>2026-05-02T07:50:40.999Z</time></trkpt><trkpt lat="46.214652987122406" lon="10.180642276710518"><ele>469.0</ele><time>2026-05-02T07:50:41.999Z</time></trkpt><trkpt lat="46.21455194260206" lon="10.18054253193406"><ele>467.0</ele><time>2026-05-02T07:50:42.999Z</time></trkpt><trkpt lat="46.21447456871713" lon="10.18041391455016"><ele>465.0</ele><time>2026-05-02T07:50:43.999Z</time></trkpt><trkpt lat="46.21437603934933" lon="10.18030979169723"><ele>463.0</ele><time>2026-05-02T07:50:44.999Z</time></trkpt><trkpt lat="46.21428324685674" lon="10.180199112863678"><ele>463.0</ele><time>2026-05-02T07:50:45.999Z</time></trkpt><trkpt lat="46.21419153734518" lon="10.180092126760535"><ele>463.0</ele><time>2026-05-02T07:50:46.999Z</time></trkpt><trkpt lat="46.214094545206734" lon="10.179994376685979"><ele>463.0</ele><time>2026-05-02T07:50:47.999Z</time></trkpt><trkpt lat="46.21400496622087" lon="10.179898785542107"><ele>463.0</ele><time>2026-05-02T07:50:48.999Z</time></trkpt><trkpt lat="46.21392576979084" lon="10.17979229404768"><ele>462.4</ele><time>2026-05-02T07:50:49.999Z</time></trkpt><trkpt lat="46.21384266828431" lon="10.179684784663618"><ele>461.79999999999995</ele><time>2026-05-02T07:50:50.999Z</time></trkpt><trkpt lat="46.21377242133169" lon="10.179560535293092"><ele>461.2</ele><time>2026-05-02T07:50:51.999Z</time></trkpt><trkpt lat="46.21370775253405" lon="10.179426252334677"><ele>460.6</ele><time>2026-05-02T07:50:52.999Z</time></trkpt><trkpt lat="46.213654577927656" lon="10.179282342502757"><ele>460.0</ele><time>2026-05-02T07:50:53.999Z</time></trkpt><trkpt lat="46.213604910370705" lon="10.179138170585556"><ele>458.6</ele><time>2026-05-02T07:50:54.999Z</time></trkpt><trkpt lat="46.213563079907985" lon="10.178997978972346"><ele>457.2</ele><time>2026-05-02T07:50:55.999Z</time></trkpt><trkpt lat="46.21353463484314" lon="10.17886564815264"><ele>455.79999999999995</ele><time>2026-05-02T07:50:56.998Z</time></trkpt><trkpt lat="46.21350348035956" lon="10.178732074243968"><ele>454.4</ele><time>2026-05-02T07:50:57.998Z</time></trkpt><trkpt lat="46.21348134652251" lon="10.178595970149297"><ele>453.0</ele><time>2026-05-02T07:50:58.998Z</time></trkpt><trkpt lat="46.2134669694445" lon="10.178454535606523"><ele>453.0</ele><time>2026-05-02T07:50:59.998Z</time></trkpt><trkpt lat="46.21345799082305" lon="10.17831438607991"><ele>452.99999999999994</ele><time>2026-05-02T07:51:00.998Z</time></trkpt><trkpt lat="46.21346045082035" lon="10.17816455725895"><ele>452.99999999999994</ele><time>2026-05-02T07:51:01.998Z</time></trkpt><trkpt lat="46.21346500204664" lon="10.178019387933778"><ele>453.0</ele><time>2026-05-02T07:51:02.998Z</time></trkpt><trkpt lat="46.21347985618881" lon="10.177878906035957"><ele>453.0</ele><time>2026-05-02T07:51:03.998Z</time></trkpt><trkpt lat="46.213502215387166" lon="10.177732126725099"><ele>452.2</ele><time>2026-05-02T07:51:04.998Z</time></trkpt><trkpt lat="46.21352532061322" lon="10.177593341193674"><ele>451.4</ele><time>2026-05-02T07:51:05.998Z</time></trkpt><trkpt lat="46.21356128173604" lon="10.177453168081195"><ele>450.59999999999997</ele><time>2026-05-02T07:51:06.998Z</time></trkpt><trkpt lat="46.21359708187583" lon="10.177316683253773"><ele>449.79999999999995</ele><time>2026-05-02T07:51:07.998Z</time></trkpt><trkpt lat="46.21363647492189" lon="10.177177259301814"><ele>449.0</ele><time>2026-05-02T07:51:08.998Z</time></trkpt><trkpt lat="46.21366787976673" lon="10.177036101922518"><ele>448.6</ele><time>2026-05-02T07:51:09.998Z</time></trkpt><trkpt lat="46.213700726159495" lon="10.176895142582676"><ele>448.2</ele><time>2026-05-02T07:51:10.998Z</time></trkpt><trkpt lat="46.21373123275247" lon="10.176755742300278"><ele>447.80000000000007</ele><time>2026-05-02T07:51:11.998Z</time></trkpt><trkpt lat="46.21376334413329" lon="10.17661992575673"><ele>447.40000000000003</ele><time>2026-05-02T07:51:12.998Z</time></trkpt><trkpt lat="46.21379306413692" lon="10.17648790452803"><ele>447.0</ele><time>2026-05-02T07:51:13.998Z</time></trkpt><trkpt lat="46.21383213194379" lon="10.1763546490852"><ele>447.0</ele><time>2026-05-02T07:51:14.998Z</time></trkpt><trkpt lat="46.21386847651078" lon="10.176213471046387"><ele>447.00000000000006</ele><time>2026-05-02T07:51:15.998Z</time></trkpt><trkpt lat="46.21390287410373" lon="10.176079679596656"><ele>447.00000000000006</ele><time>2026-05-02T07:51:16.998Z</time></trkpt><trkpt lat="46.213932786045" lon="10.175941733214632"><ele>447.0</ele><time>2026-05-02T07:51:17.998Z</time></trkpt><trkpt lat="46.213968262057925" lon="10.175806036097281"><ele>447.0</ele><time>2026-05-02T07:51:18.998Z</time></trkpt><trkpt lat="46.21400352703614" lon="10.175673464730597"><ele>445.6</ele><time>2026-05-02T07:51:20Z</time></trkpt><trkpt lat="46.2140371034064" lon="10.175544232441569"><ele>444.20000000000005</ele><time>2026-05-02T07:51:21Z</time></trkpt><trkpt lat="46.214076569143344" lon="10.175418780205142"><ele>442.8</ele><time>2026-05-02T07:51:22Z</time></trkpt><trkpt lat="46.214106385982916" lon="10.175298842602084"><ele>441.4</ele><time>2026-05-02T07:51:23Z</time></trkpt><trkpt lat="46.21412676113173" lon="10.175171923592652"><ele>440.0</ele><time>2026-05-02T07:51:24Z</time></trkpt><trkpt lat="46.21415319644392" lon="10.175048182954077"><ele>439.99999999999994</ele><time>2026-05-02T07:51:25Z</time></trkpt><trkpt lat="46.214181986331376" lon="10.174927345655407"><ele>440.0</ele><time>2026-05-02T07:51:26Z</time></trkpt><trkpt lat="46.21421544718381" lon="10.174804115049543"><ele>440.0</ele><time>2026-05-02T07:51:27Z</time></trkpt><trkpt lat="46.214238267667156" lon="10.174697444712372"><ele>440.0</ele><time>2026-05-02T07:51:28Z</time></trkpt><trkpt lat="46.21426320021971" lon="10.174580295753493"><ele>439.99999999999994</ele><time>2026-05-02T07:51:29Z</time></trkpt><trkpt lat="46.21428867328283" lon="10.174458902319842"><ele>440.0</ele><time>2026-05-02T07:51:30Z</time></trkpt><trkpt lat="46.21431247083415" lon="10.17433218187299"><ele>440.0</ele><time>2026-05-02T07:51:31Z</time></trkpt><trkpt lat="46.21434573930191" lon="10.174207839232617"><ele>440.0</ele><time>2026-05-02T07:51:32Z</time></trkpt><trkpt lat="46.214386170440434" lon="10.17410442271171"><ele>440.0</ele><time>2026-05-02T07:51:33Z</time></trkpt><trkpt lat="46.21441678372366" lon="10.173984611562293"><ele>440.0</ele><time>2026-05-02T07:51:34Z</time></trkpt><trkpt lat="46.21444339329312" lon="10.173837299689039"><ele>440.0</ele><time>2026-05-02T07:51:35Z</time></trkpt><trkpt lat="46.21447103489322" lon="10.173719857561323"><ele>439.99999999999994</ele><time>2026-05-02T07:51:36Z</time></trkpt><trkpt lat="46.21450534546049" lon="10.173609694098822"><ele>440.0</ele><time>2026-05-02T07:51:37Z</time></trkpt><trkpt lat="46.21453583122034" lon="10.173495872164976"><ele>440.0</ele><time>2026-05-02T07:51:38Z</time></trkpt><trkpt lat="46.21456864220511" lon="10.173374035594827"><ele>440.0</ele><time>2026-05-02T07:51:39Z</time></trkpt><trkpt lat="46.214601752833005" lon="10.17325078701662"><ele>439.99999999999994</ele><time>2026-05-02T07:51:40Z</time></trkpt><trkpt lat="46.21464798066305" lon="10.173140971262752"><ele>440.0</ele><time>2026-05-02T07:51:41Z</time></trkpt><trkpt lat="46.2146791006379" lon="10.173032844419748"><ele>439.57142857142856</ele><time>2026-05-02T07:51:42Z</time></trkpt><trkpt lat="46.214723391363236" lon="10.172924222179896"><ele>439.1428571428571</ele><time>2026-05-02T07:51:43Z</time></trkpt><trkpt lat="46.21475875196247" lon="10.172828985620175"><ele>438.71428571428567</ele><time>2026-05-02T07:51:44Z</time></trkpt><trkpt lat="46.21479976488915" lon="10.1727421611244"><ele>438.2857142857143</ele><time>2026-05-02T07:51:45Z</time></trkpt><trkpt lat="46.21485515008574" lon="10.172675439921997"><ele>437.8571428571429</ele><time>2026-05-02T07:51:46Z</time></trkpt><trkpt lat="46.21488950442405" lon="10.172592162400964"><ele>437.4285714285714</ele><time>2026-05-02T07:51:47Z</time></trkpt><trkpt lat="46.21493586147065" lon="10.172525922163189"><ele>437.0</ele><time>2026-05-02T07:51:48Z</time></trkpt><trkpt lat="46.215009202459775" lon="10.172400555955424"><ele>437.0</ele><time>2026-05-02T07:51:50Z</time></trkpt><trkpt lat="46.215074426564115" lon="10.172310846627383"><ele>437.00000000000006</ele><time>2026-05-02T07:51:52Z</time></trkpt><trkpt lat="46.21516065023252" lon="10.172210148873722"><ele>437.00000000000006</ele><time>2026-05-02T07:51:53.999Z</time></trkpt><trkpt lat="46.21524942163129" lon="10.172122743053059"><ele>437.0</ele><time>2026-05-02T07:51:55.999Z</time></trkpt><trkpt lat="46.215323058953665" lon="10.172037759844281"><ele>437.0</ele><time>2026-05-02T07:51:57.999Z</time></trkpt><trkpt lat="46.215378833817745" lon="10.171991737261598"><ele>437.0</ele><time>2026-05-02T07:52:00.999Z</time></trkpt><trkpt lat="46.215443795010295" lon="10.171936242508824"><ele>437.0</ele><time>2026-05-02T07:52:06.999Z</time></trkpt><trkpt lat="46.215508766188854" lon="10.171852731320854"><ele>437.0</ele><time>2026-05-02T07:52:08.999Z</time></trkpt><trkpt lat="46.215558147911224" lon="10.171753381918844"><ele>437.0</ele><time>2026-05-02T07:52:11.999Z</time></trkpt><trkpt lat="46.21559097200002" lon="10.171672833742479"><ele>437.0</ele><time>2026-05-02T07:52:18.999Z</time></trkpt><trkpt lat="46.21564095237227" lon="10.171609794294783"><ele>437.0</ele><time>2026-05-02T07:52:22.999Z</time></trkpt><trkpt lat="46.21570080250634" lon="10.171570053092687"><ele>437.0</ele><time>2026-05-02T07:52:26.999Z</time></trkpt><trkpt lat="46.21577126931476" lon="10.171478105971849"><ele>436.49999999999994</ele><time>2026-05-02T07:52:29.999Z</time></trkpt><trkpt lat="46.215856444349456" lon="10.171357479768927"><ele>436.0</ele><time>2026-05-02T07:52:31.999Z</time></trkpt><trkpt lat="46.215907155483194" lon="10.171296232167654"><ele>435.5</ele><time>2026-05-02T07:52:32.999Z</time></trkpt><trkpt lat="46.21596237342187" lon="10.171231847469262"><ele>435.0</ele><time>2026-05-02T07:52:33.999Z</time></trkpt><trkpt lat="46.21602703198085" lon="10.171164366222486"><ele>434.49999999999994</ele><time>2026-05-02T07:52:34.999Z</time></trkpt><trkpt lat="46.21608061596755" lon="10.171090084469961"><ele>434.0</ele><time>2026-05-02T07:52:35.999Z</time></trkpt><trkpt lat="46.216129861746765" lon="10.170990081032151"><ele>434.0</ele><time>2026-05-02T07:52:36.999Z</time></trkpt><trkpt lat="46.21616801055199" lon="10.170891668850118"><ele>434.0</ele><time>2026-05-02T07:52:37.999Z</time></trkpt><trkpt lat="46.21618851505456" lon="10.17078595751419"><ele>434.0</ele><time>2026-05-02T07:52:38.999Z</time></trkpt><trkpt lat="46.216195605821575" lon="10.170678162191177"><ele>434.0</ele><time>2026-05-02T07:52:39.999Z</time></trkpt><trkpt lat="46.21620304234343" lon="10.170568866994794"><ele>434.0</ele><time>2026-05-02T07:52:40.999Z</time></trkpt><trkpt lat="46.21620211749186" lon="10.170460413010472"><ele>434.0</ele><time>2026-05-02T07:52:41.999Z</time></trkpt><trkpt lat="46.21620015128464" lon="10.170365381805142"><ele>434.0</ele><time>2026-05-02T07:52:42.999Z</time></trkpt><trkpt lat="46.216209190479304" lon="10.17026804577933"><ele>433.8333333333333</ele><time>2026-05-02T07:52:43.999Z</time></trkpt><trkpt lat="46.21620847486904" lon="10.170171372347587"><ele>433.66666666666663</ele><time>2026-05-02T07:52:44.999Z</time></trkpt><trkpt lat="46.21623309240336" lon="10.17000905083824"><ele>433.5</ele><time>2026-05-02T07:52:46.999Z</time></trkpt><trkpt lat="46.216257147091284" lon="10.169908866203702"><ele>433.33333333333337</ele><time>2026-05-02T07:52:47.999Z</time></trkpt><trkpt lat="46.21626877231042" lon="10.16975214464855"><ele>433.1666666666667</ele><time>2026-05-02T07:52:49.999Z</time></trkpt><trkpt lat="46.216289303075044" lon="10.169642975271923"><ele>433.0</ele><time>2026-05-02T07:52:50.999Z</time></trkpt><trkpt lat="46.216305955186506" lon="10.169469293615467"><ele>432.79999999999995</ele><time>2026-05-02T07:52:52.999Z</time></trkpt><trkpt lat="46.21632320914763" lon="10.169309530972823"><ele>432.59999999999997</ele><time>2026-05-02T07:52:54.999Z</time></trkpt><trkpt lat="46.21634904028272" lon="10.169128401415241"><ele>432.40000000000003</ele><time>2026-05-02T07:52:56.999Z</time></trkpt><trkpt lat="46.21635298016729" lon="10.169018576079933"><ele>432.20000000000005</ele><time>2026-05-02T07:52:57.999Z</time></trkpt><trkpt lat="46.21636588492171" lon="10.168839489419158"><ele>432.0</ele><time>2026-05-02T07:52:59.999Z</time></trkpt><trkpt lat="46.21637645729908" lon="10.168744652888254"><ele>432.0</ele><time>2026-05-02T07:53:00.999Z</time></trkpt><trkpt lat="46.21638539867736" lon="10.168587052996566"><ele>432.00000000000006</ele><time>2026-05-02T07:53:02.999Z</time></trkpt><trkpt lat="46.216397372267664" lon="10.168446325893735"><ele>432.00000000000006</ele><time>2026-05-02T07:53:05.998Z</time></trkpt><trkpt lat="46.21641807438498" lon="10.1683264430713"><ele>432.0</ele><time>2026-05-02T07:53:07.998Z</time></trkpt><trkpt lat="46.21642750426855" lon="10.16819561788997"><ele>432.0</ele><time>2026-05-02T07:53:09.998Z</time></trkpt><trkpt lat="46.21644750213246" lon="10.168035534338495"><ele>432.0</ele><time>2026-05-02T07:53:11.998Z</time></trkpt><trkpt lat="46.2164568857245" lon="10.167871728429464"><ele>432.0</ele><time>2026-05-02T07:53:13.998Z</time></trkpt><trkpt lat="46.21647337943045" lon="10.167739421290046"><ele>432.0</ele><time>2026-05-02T07:53:15.998Z</time></trkpt><trkpt lat="46.216472028104924" lon="10.167647828853358"><ele>432.0</ele><time>2026-05-02T07:53:17.998Z</time></trkpt><trkpt lat="46.21652517757037" lon="10.167589106504352"><ele>432.0</ele><time>2026-05-02T07:53:18.998Z</time></trkpt><trkpt lat="46.21654854604254" lon="10.167475711206297"><ele>432.0</ele><time>2026-05-02T07:53:23.998Z</time></trkpt><trkpt lat="46.21657306907179" lon="10.167309664219529"><ele>432.0</ele><time>2026-05-02T07:53:26Z</time></trkpt><trkpt lat="46.2165758252786" lon="10.167213274519147"><ele>432.0</ele><time>2026-05-02T07:53:27Z</time></trkpt><trkpt lat="46.21658307325846" lon="10.1670988707906"><ele>432.0</ele><time>2026-05-02T07:53:28Z</time></trkpt><trkpt lat="46.21659423102473" lon="10.16697137520501"><ele>432.0</ele><time>2026-05-02T07:53:29Z</time></trkpt><trkpt lat="46.21660322020508" lon="10.166850364799231"><ele>432.0</ele><time>2026-05-02T07:53:30Z</time></trkpt><trkpt lat="46.21661982748597" lon="10.166743838515059"><ele>432.0</ele><time>2026-05-02T07:53:31Z</time></trkpt><trkpt lat="46.21663494514198" lon="10.166601392564177"><ele>431.8</ele><time>2026-05-02T07:53:32Z</time></trkpt><trkpt lat="46.21665485817262" lon="10.166457218353779"><ele>431.6</ele><time>2026-05-02T07:53:33Z</time></trkpt><trkpt lat="46.21667837171447" lon="10.166313842713164"><ele>431.40000000000003</ele><time>2026-05-02T07:53:34Z</time></trkpt><trkpt lat="46.216702133095566" lon="10.166181487968231"><ele>431.20000000000005</ele><time>2026-05-02T07:53:35Z</time></trkpt><trkpt lat="46.21671915663257" lon="10.166057186562972"><ele>431.0</ele><time>2026-05-02T07:53:36Z</time></trkpt><trkpt lat="46.21675074504014" lon="10.16589679485231"><ele>430.99999999999994</ele><time>2026-05-02T07:53:38Z</time></trkpt><trkpt lat="46.21677917485439" lon="10.165804188181959"><ele>431.0</ele><time>2026-05-02T07:53:39Z</time></trkpt><trkpt lat="46.21681665806141" lon="10.165724405882717"><ele>431.0</ele><time>2026-05-02T07:53:40Z</time></trkpt><trkpt lat="46.21684005910019" lon="10.1656267883675"><ele>431.0</ele><time>2026-05-02T07:53:41Z</time></trkpt><trkpt lat="46.216856233471276" lon="10.165505921790272"><ele>430.99999999999994</ele><time>2026-05-02T07:53:42Z</time></trkpt><trkpt lat="46.21687383273905" lon="10.165374407329725"><ele>431.0</ele><time>2026-05-02T07:53:43Z</time></trkpt><trkpt lat="46.216886610337234" lon="10.165191992202304"><ele>431.3333333333333</ele><time>2026-05-02T07:53:44Z</time></trkpt><trkpt lat="46.21691406136785" lon="10.164991003291565"><ele>431.66666666666663</ele><time>2026-05-02T07:53:45Z</time></trkpt><trkpt lat="46.2169537483019" lon="10.164623081266374"><ele>432.0</ele><time>2026-05-02T07:53:46Z</time></trkpt><trkpt lat="46.21696853636428" lon="10.164465080999143"><ele>431.0</ele><time>2026-05-02T07:53:47Z</time></trkpt><trkpt lat="46.216987564570886" lon="10.164310552269734"><ele>430.00000000000006</ele><time>2026-05-02T07:53:48Z</time></trkpt><trkpt lat="46.217000594436705" lon="10.164147969761197"><ele>429.00000000000006</ele><time>2026-05-02T07:53:49Z</time></trkpt><trkpt lat="46.21701537957999" lon="10.16400460055682"><ele>428.0</ele><time>2026-05-02T07:53:50Z</time></trkpt><trkpt lat="46.21703872418426" lon="10.163855388247848"><ele>427.0</ele><time>2026-05-02T07:53:51Z</time></trkpt><trkpt lat="46.21706454924804" lon="10.163678665182141"><ele>426.75</ele><time>2026-05-02T07:53:52Z</time></trkpt><trkpt lat="46.21708745598631" lon="10.163503278778776"><ele>426.5</ele><time>2026-05-02T07:53:53Z</time></trkpt><trkpt lat="46.217112808708386" lon="10.163335695337029"><ele>426.25</ele><time>2026-05-02T07:53:54Z</time></trkpt><trkpt lat="46.2171270574974" lon="10.163178513268102"><ele>426.0</ele><time>2026-05-02T07:53:55Z</time></trkpt><trkpt lat="46.217144957424615" lon="10.163007432790689"><ele>426.0</ele><time>2026-05-02T07:53:56Z</time></trkpt><trkpt lat="46.217161837348435" lon="10.16284353883589"><ele>426.0</ele><time>2026-05-02T07:53:57Z</time></trkpt><trkpt lat="46.217185766183185" lon="10.162679430232133"><ele>426.0</ele><time>2026-05-02T07:53:58Z</time></trkpt><trkpt lat="46.21721687940613" lon="10.162430863251242"><ele>426.0</ele><time>2026-05-02T07:53:59Z</time></trkpt><trkpt lat="46.21726168406964" lon="10.16220263495304"><ele>426.0</ele><time>2026-05-02T07:54:00Z</time></trkpt><trkpt lat="46.21729406662065" lon="10.161989187756248"><ele>426.0</ele><time>2026-05-02T07:54:01Z</time></trkpt><trkpt lat="46.21732130057231" lon="10.161779145012792"><ele>426.0</ele><time>2026-05-02T07:54:02Z</time></trkpt><trkpt lat="46.217342883009245" lon="10.16158844235265"><ele>426.0</ele><time>2026-05-02T07:54:03Z</time></trkpt><trkpt lat="46.217356616107466" lon="10.16143085413923"><ele>426.0</ele><time>2026-05-02T07:54:03.999Z</time></trkpt><trkpt lat="46.2173577519822" lon="10.161338881056954"><ele>426.0</ele><time>2026-05-02T07:54:04.999Z</time></trkpt><trkpt lat="46.21731176169776" lon="10.161401485520106"><ele>426.0</ele><time>2026-05-02T07:54:08.999Z</time></trkpt><trkpt lat="46.21731856695901" lon="10.161263215173879"><ele>426.0</ele><time>2026-05-02T07:54:10.999Z</time></trkpt><trkpt lat="46.217342400375635" lon="10.16110933056235"><ele>426.0</ele><time>2026-05-02T07:54:12.999Z</time></trkpt><trkpt lat="46.217387992197324" lon="10.16097227979036"><ele>426.0</ele><time>2026-05-02T07:54:14.999Z</time></trkpt><trkpt lat="46.21740307770494" lon="10.160880356242863"><ele>426.6666666666667</ele><time>2026-05-02T07:54:15.999Z</time></trkpt><trkpt lat="46.217438320307366" lon="10.160770989352537"><ele>427.33333333333337</ele><time>2026-05-02T07:54:16.999Z</time></trkpt><trkpt lat="46.217422028400534" lon="10.160656570208078"><ele>428.0</ele><time>2026-05-02T07:54:17.999Z</time></trkpt><trkpt lat="46.21744080091379" lon="10.160552638836727"><ele>428.6666666666667</ele><time>2026-05-02T07:54:18.999Z</time></trkpt><trkpt lat="46.21745781854763" lon="10.16041990604078"><ele>429.33333333333337</ele><time>2026-05-02T07:54:19.999Z</time></trkpt><trkpt lat="46.21747735834428" lon="10.160287762591262"><ele>430.0</ele><time>2026-05-02T07:54:20.999Z</time></trkpt><trkpt lat="46.2175083354916" lon="10.160149855963555"><ele>430.2</ele><time>2026-05-02T07:54:21.999Z</time></trkpt><trkpt lat="46.21752432400098" lon="10.159996525759851"><ele>430.4</ele><time>2026-05-02T07:54:22.999Z</time></trkpt><trkpt lat="46.217547137234554" lon="10.159842213787108"><ele>430.6</ele><time>2026-05-02T07:54:23.999Z</time></trkpt><trkpt lat="46.217567598793096" lon="10.15968152654796"><ele>430.8</ele><time>2026-05-02T07:54:24.999Z</time></trkpt><trkpt lat="46.217578260425434" lon="10.15952120278456"><ele>431.0</ele><time>2026-05-02T07:54:25.999Z</time></trkpt><trkpt lat="46.217594552700625" lon="10.15934841028464"><ele>431.25</ele><time>2026-05-02T07:54:26.999Z</time></trkpt><trkpt lat="46.21761758684303" lon="10.159156785899995"><ele>431.5</ele><time>2026-05-02T07:54:27.999Z</time></trkpt><trkpt lat="46.217634165573045" lon="10.159005069915013"><ele>431.75</ele><time>2026-05-02T07:54:28.999Z</time></trkpt><trkpt lat="46.21765976883613" lon="10.158848610995202"><ele>432.0</ele><time>2026-05-02T07:54:29.999Z</time></trkpt><trkpt lat="46.21768019101081" lon="10.158670015451765"><ele>432.25</ele><time>2026-05-02T07:54:30.999Z</time></trkpt><trkpt lat="46.21768969021844" lon="10.15849969615767"><ele>432.5</ele><time>2026-05-02T07:54:31.999Z</time></trkpt><trkpt lat="46.217717812840775" lon="10.1583131035588"><ele>432.75</ele><time>2026-05-02T07:54:32.999Z</time></trkpt><trkpt lat="46.21773254568287" lon="10.158169721898794"><ele>433.0</ele><time>2026-05-02T07:54:33.999Z</time></trkpt><trkpt lat="46.21783162619364" lon="10.158107999811007"><ele>433.0</ele><time>2026-05-02T07:54:35.999Z</time></trkpt><trkpt lat="46.217921600499835" lon="10.158153894447684"><ele>433.0</ele><time>2026-05-02T07:54:36.999Z</time></trkpt><trkpt lat="46.218013520478" lon="10.15832167787589"><ele>433.0</ele><time>2026-05-02T07:54:37.999Z</time></trkpt><trkpt lat="46.21785326143539" lon="10.15745057015475"><ele>433.25</ele><time>2026-05-02T07:54:38.999Z</time></trkpt><trkpt lat="46.21788105379787" lon="10.157280852507153"><ele>433.5</ele><time>2026-05-02T07:54:39.999Z</time></trkpt><trkpt lat="46.217897059980665" lon="10.157119898682796"><ele>433.75</ele><time>2026-05-02T07:54:40.999Z</time></trkpt><trkpt lat="46.21791440229058" lon="10.156957065939885"><ele>434.0</ele><time>2026-05-02T07:54:41.999Z</time></trkpt><trkpt lat="46.21793676969898" lon="10.156792264597936"><ele>434.0</ele><time>2026-05-02T07:54:42.999Z</time></trkpt><trkpt lat="46.21795602647155" lon="10.156639729534023"><ele>434.0</ele><time>2026-05-02T07:54:43.999Z</time></trkpt><trkpt lat="46.21797751453802" lon="10.156491380492039"><ele>434.0</ele><time>2026-05-02T07:54:44.999Z</time></trkpt><trkpt lat="46.217979036772405" lon="10.15637644231586"><ele>434.0</ele><time>2026-05-02T07:54:45.999Z</time></trkpt><trkpt lat="46.217979514460104" lon="10.156278530847633"><ele>434.0</ele><time>2026-05-02T07:54:46.999Z</time></trkpt><trkpt lat="46.21801085656381" lon="10.156101655479572"><ele>434.3333333333333</ele><time>2026-05-02T07:54:48.999Z</time></trkpt><trkpt lat="46.21807978809397" lon="10.155984971994304"><ele>434.66666666666663</ele><time>2026-05-02T07:54:50.999Z</time></trkpt><trkpt lat="46.21814181829642" lon="10.155910817694243"><ele>435.0</ele><time>2026-05-02T07:54:51.999Z</time></trkpt><trkpt lat="46.218190715437075" lon="10.155829026616308"><ele>435.33333333333337</ele><time>2026-05-02T07:54:52.999Z</time></trkpt><trkpt lat="46.218252048748056" lon="10.155738032618807"><ele>435.6666666666667</ele><time>2026-05-02T07:54:53.999Z</time></trkpt><trkpt lat="46.218319385114505" lon="10.155655086860905"><ele>436.0</ele><time>2026-05-02T07:54:54.999Z</time></trkpt><trkpt lat="46.21839618595343" lon="10.155583381289993"><ele>437.0</ele><time>2026-05-02T07:54:55.999Z</time></trkpt><trkpt lat="46.218478153795786" lon="10.155539229179997"><ele>438.0</ele><time>2026-05-02T07:54:56.999Z</time></trkpt><trkpt lat="46.21855418385397" lon="10.155491446520378"><ele>439.0</ele><time>2026-05-02T07:54:57.999Z</time></trkpt><trkpt lat="46.21866173703135" lon="10.155411400075513"><ele>440.0</ele><time>2026-05-02T07:54:58.999Z</time></trkpt><trkpt lat="46.21874858764836" lon="10.155366416466165"><ele>441.0</ele><time>2026-05-02T07:54:59.999Z</time></trkpt><trkpt lat="46.218843615771284" lon="10.155310939220614"><ele>441.0</ele><time>2026-05-02T07:55:00.999Z</time></trkpt><trkpt lat="46.21894659210199" lon="10.155246397765554"><ele>441.0</ele><time>2026-05-02T07:55:01.999Z</time></trkpt><trkpt lat="46.21906953603455" lon="10.155179792893117"><ele>441.0</ele><time>2026-05-02T07:55:02.999Z</time></trkpt><trkpt lat="46.219167012094736" lon="10.155115221326389"><ele>441.0</ele><time>2026-05-02T07:55:03.999Z</time></trkpt><trkpt lat="46.21926887003365" lon="10.155039426842162"><ele>441.0</ele><time>2026-05-02T07:55:04.999Z</time></trkpt><trkpt lat="46.219375110874246" lon="10.154977532488335"><ele>441.0</ele><time>2026-05-02T07:55:05.999Z</time></trkpt><trkpt lat="46.21947943030768" lon="10.154902128286718"><ele>441.0</ele><time>2026-05-02T07:55:06.999Z</time></trkpt><trkpt lat="46.219586517114365" lon="10.15483007934001"><ele>441.0</ele><time>2026-05-02T07:55:07.999Z</time></trkpt><trkpt lat="46.219688281727414" lon="10.154766772025482"><ele>441.25</ele><time>2026-05-02T07:55:08.999Z</time></trkpt><trkpt lat="46.21979928928289" lon="10.154683671704973"><ele>441.5</ele><time>2026-05-02T07:55:09.999Z</time></trkpt><trkpt lat="46.21990091451103" lon="10.15460942117656"><ele>441.75</ele><time>2026-05-02T07:55:10.999Z</time></trkpt><trkpt lat="46.219994204919196" lon="10.154547497650917"><ele>442.0</ele><time>2026-05-02T07:55:11.999Z</time></trkpt><trkpt lat="46.22011142779746" lon="10.154442600644924"><ele>443.33333333333337</ele><time>2026-05-02T07:55:12.999Z</time></trkpt><trkpt lat="46.220279148044824" lon="10.154308968146937"><ele>444.66666666666663</ele><time>2026-05-02T07:55:13.999Z</time></trkpt><trkpt lat="46.22045391256811" lon="10.154209153371353"><ele>446.0</ele><time>2026-05-02T07:55:14.999Z</time></trkpt><trkpt lat="46.22052741858738" lon="10.15416398604059"><ele>446.0</ele><time>2026-05-02T07:55:16.999Z</time></trkpt><trkpt lat="46.22063749366419" lon="10.154080896372625"><ele>446.0</ele><time>2026-05-02T07:55:17.999Z</time></trkpt><trkpt lat="46.22074970047702" lon="10.154013068460243"><ele>446.0</ele><time>2026-05-02T07:55:18.999Z</time></trkpt><trkpt lat="46.22086915281218" lon="10.153930732212123"><ele>446.0</ele><time>2026-05-02T07:55:19.998Z</time></trkpt><trkpt lat="46.22098408374845" lon="10.153860077169616"><ele>446.0</ele><time>2026-05-02T07:55:20.998Z</time></trkpt><trkpt lat="46.22109813767001" lon="10.153780620605378"><ele>446.0</ele><time>2026-05-02T07:55:21.998Z</time></trkpt><trkpt lat="46.22121884907424" lon="10.153696149539275"><ele>446.0</ele><time>2026-05-02T07:55:22.998Z</time></trkpt><trkpt lat="46.22134145561801" lon="10.153611996918803"><ele>446.0</ele><time>2026-05-02T07:55:23.998Z</time></trkpt><trkpt lat="46.22146661444" lon="10.153529956515312"><ele>446.75</ele><time>2026-05-02T07:55:24.998Z</time></trkpt><trkpt lat="46.22158739731665" lon="10.153441476355374"><ele>447.5</ele><time>2026-05-02T07:55:25.998Z</time></trkpt><trkpt lat="46.22170626376741" lon="10.15336176779759"><ele>448.25</ele><time>2026-05-02T07:55:26.998Z</time></trkpt><trkpt lat="46.221817556764066" lon="10.153286929605686"><ele>449.0</ele><time>2026-05-02T07:55:27.998Z</time></trkpt><trkpt lat="46.22193265840723" lon="10.15320863542279"><ele>449.25</ele><time>2026-05-02T07:55:28.998Z</time></trkpt><trkpt lat="46.22204542260574" lon="10.153125108211478"><ele>449.5</ele><time>2026-05-02T07:55:29.998Z</time></trkpt><trkpt lat="46.22215890126243" lon="10.15304704188425"><ele>449.75</ele><time>2026-05-02T07:55:30.998Z</time></trkpt><trkpt lat="46.222274560689144" lon="10.15297023065757"><ele>450.0</ele><time>2026-05-02T07:55:32Z</time></trkpt><trkpt lat="46.222394489571194" lon="10.152891014720078"><ele>450.75</ele><time>2026-05-02T07:55:33Z</time></trkpt><trkpt lat="46.22250931635059" lon="10.152811918774942"><ele>451.5</ele><time>2026-05-02T07:55:34Z</time></trkpt><trkpt lat="46.22262348201654" lon="10.152736508666006"><ele>452.25</ele><time>2026-05-02T07:55:35Z</time></trkpt><trkpt lat="46.222735854036486" lon="10.152656234606512"><ele>453.0</ele><time>2026-05-02T07:55:36Z</time></trkpt><trkpt lat="46.22283616685749" lon="10.152583994190529"><ele>453.0</ele><time>2026-05-02T07:55:37Z</time></trkpt><trkpt lat="46.22293890178575" lon="10.152503115745398"><ele>453.0</ele><time>2026-05-02T07:55:38Z</time></trkpt><trkpt lat="46.222986483514966" lon="10.152366931472923"><ele>453.0</ele><time>2026-05-02T07:55:39Z</time></trkpt><trkpt lat="46.22298474348544" lon="10.152158416118391"><ele>453.0</ele><time>2026-05-02T07:55:40Z</time></trkpt><trkpt lat="46.22300009873147" lon="10.151985212420513"><ele>454.4</ele><time>2026-05-02T07:55:41Z</time></trkpt><trkpt lat="46.22301233084642" lon="10.151844188924354"><ele>455.79999999999995</ele><time>2026-05-02T07:55:42Z</time></trkpt><trkpt lat="46.22302232554693" lon="10.151728377081131"><ele>457.2</ele><time>2026-05-02T07:55:43Z</time></trkpt><trkpt lat="46.22303297095851" lon="10.151605223832068"><ele>458.6</ele><time>2026-05-02T07:55:44Z</time></trkpt><trkpt lat="46.22305839045845" lon="10.151484303407342"><ele>460.0</ele><time>2026-05-02T07:55:45Z</time></trkpt><trkpt lat="46.22314683440164" lon="10.151257623010828"><ele>462.0</ele><time>2026-05-02T07:55:46Z</time></trkpt><trkpt lat="46.22322319147456" lon="10.151092512883665"><ele>464.0</ele><time>2026-05-02T07:55:47Z</time></trkpt><trkpt lat="46.22329203343142" lon="10.15092775211769"><ele>466.0</ele><time>2026-05-02T07:55:48Z</time></trkpt><trkpt lat="46.22337460028409" lon="10.150781856160778"><ele>468.0</ele><time>2026-05-02T07:55:49Z</time></trkpt><trkpt lat="46.223434485787585" lon="10.150639631354574"><ele>472.25</ele><time>2026-05-02T07:55:50Z</time></trkpt><trkpt lat="46.22350736760852" lon="10.1504830189071"><ele>476.5</ele><time>2026-05-02T07:55:51Z</time></trkpt><trkpt lat="46.22357111413333" lon="10.150335066899185"><ele>480.75</ele><time>2026-05-02T07:55:52Z</time></trkpt><trkpt lat="46.223632864121306" lon="10.150204358791362"><ele>485.0</ele><time>2026-05-02T07:55:53Z</time></trkpt><trkpt lat="46.223705491810364" lon="10.150073270066555"><ele>485.0</ele><time>2026-05-02T07:55:54Z</time></trkpt><trkpt lat="46.22379211003792" lon="10.149959183658432"><ele>485.0</ele><time>2026-05-02T07:55:55Z</time></trkpt><trkpt lat="46.22390628579085" lon="10.149894902762284"><ele>485.0</ele><time>2026-05-02T07:55:56Z</time></trkpt><trkpt lat="46.22402356661457" lon="10.149850212254705"><ele>485.0</ele><time>2026-05-02T07:55:57Z</time></trkpt><trkpt lat="46.22413239276893" lon="10.149791526442428"><ele>485.75</ele><time>2026-05-02T07:55:58Z</time></trkpt><trkpt lat="46.22423099861102" lon="10.149705725978796"><ele>486.5</ele><time>2026-05-02T07:55:59Z</time></trkpt><trkpt lat="46.224318593597744" lon="10.149598389476344"><ele>487.25</ele><time>2026-05-02T07:56:00Z</time></trkpt><trkpt lat="46.22439055281282" lon="10.149465489949849"><ele>488.0</ele><time>2026-05-02T07:56:01Z</time></trkpt><trkpt lat="46.224445303409546" lon="10.149306575003719"><ele>488.0</ele><time>2026-05-02T07:56:02Z</time></trkpt><trkpt lat="46.22449615060626" lon="10.149138736725645"><ele>488.0</ele><time>2026-05-02T07:56:03Z</time></trkpt><trkpt lat="46.224546266981285" lon="10.148958879111369"><ele>488.0</ele><time>2026-05-02T07:56:04Z</time></trkpt><trkpt lat="46.22462390449142" lon="10.148790051083841"><ele>488.0</ele><time>2026-05-02T07:56:05Z</time></trkpt><trkpt lat="46.22473300482805" lon="10.148617018497154"><ele>487.0</ele><time>2026-05-02T07:56:06Z</time></trkpt><trkpt lat="46.224859147437485" lon="10.148427024780835"><ele>486.0</ele><time>2026-05-02T07:56:07Z</time></trkpt><trkpt lat="46.22499444442241" lon="10.14822212100941"><ele>485.0</ele><time>2026-05-02T07:56:08Z</time></trkpt><trkpt lat="46.22513766808417" lon="10.148006372518358"><ele>493.0</ele><time>2026-05-02T07:56:09Z</time></trkpt><trkpt lat="46.225282511269434" lon="10.14777381357184"><ele>501.0</ele><time>2026-05-02T07:56:10Z</time></trkpt><trkpt lat="46.225439133021304" lon="10.147594212690553"><ele>509.0</ele><time>2026-05-02T07:56:10.999Z</time></trkpt><trkpt lat="46.22559663991242" lon="10.147453559545012"><ele>509.0</ele><time>2026-05-02T07:56:11.999Z</time></trkpt><trkpt lat="46.225749281267674" lon="10.147320374692697"><ele>509.0</ele><time>2026-05-02T07:56:12.999Z</time></trkpt><trkpt lat="46.22587720729579" lon="10.147217618055208"><ele>509.0</ele><time>2026-05-02T07:56:13.999Z</time></trkpt><trkpt lat="46.2260315954269" lon="10.147059950992247"><ele>509.0</ele><time>2026-05-02T07:56:14.999Z</time></trkpt><trkpt lat="46.22619258148435" lon="10.146930971205151"><ele>509.0</ele><time>2026-05-02T07:56:15.999Z</time></trkpt><trkpt lat="46.22633953582122" lon="10.146790976070134"><ele>509.0</ele><time>2026-05-02T07:56:16.999Z</time></trkpt><trkpt lat="46.22648462267633" lon="10.146645905591152"><ele>513.3333333333333</ele><time>2026-05-02T07:56:17.999Z</time></trkpt><trkpt lat="46.22662381030652" lon="10.146495852156471"><ele>517.6666666666666</ele><time>2026-05-02T07:56:18.999Z</time></trkpt><trkpt lat="46.22677331864114" lon="10.14635124583243"><ele>522.0</ele><time>2026-05-02T07:56:19.999Z</time></trkpt><trkpt lat="46.22690109199436" lon="10.146273700536005"><ele>522.0</ele><time>2026-05-02T07:56:20.999Z</time></trkpt><trkpt lat="46.227056445367666" lon="10.146203757254991"><ele>522.0</ele><time>2026-05-02T07:56:21.999Z</time></trkpt><trkpt lat="46.2272137122633" lon="10.146221878318142"><ele>522.0</ele><time>2026-05-02T07:56:22.999Z</time></trkpt><trkpt lat="46.22738344542286" lon="10.146225637322672"><ele>520.0</ele><time>2026-05-02T07:56:23.999Z</time></trkpt><trkpt lat="46.227526032321265" lon="10.146254816484817"><ele>518.0</ele><time>2026-05-02T07:56:24.999Z</time></trkpt><trkpt lat="46.22767402138596" lon="10.146273857502248"><ele>516.0</ele><time>2026-05-02T07:56:25.999Z</time></trkpt><trkpt lat="46.22780761972839" lon="10.146257506572248"><ele>514.0</ele><time>2026-05-02T07:56:26.999Z</time></trkpt><trkpt lat="46.22792851934267" lon="10.14623141420185"><ele>514.0</ele><time>2026-05-02T07:56:27.999Z</time></trkpt><trkpt lat="46.22802238893833" lon="10.146204195137676"><ele>514.0</ele><time>2026-05-02T07:56:28.999Z</time></trkpt><trkpt lat="46.22811588969505" lon="10.146157093468403"><ele>514.0</ele><time>2026-05-02T07:56:29.999Z</time></trkpt><trkpt lat="46.22823145630204" lon="10.14618567490164"><ele>514.0</ele><time>2026-05-02T07:56:30.999Z</time></trkpt><trkpt lat="46.22834180325944" lon="10.146204712002296"><ele>514.0</ele><time>2026-05-02T07:56:31.999Z</time></trkpt><trkpt lat="46.228448147305365" lon="10.1462334338937"><ele>515.2</ele><time>2026-05-02T07:56:32.999Z</time></trkpt><trkpt lat="46.22856129873338" lon="10.146255855166736"><ele>516.4</ele><time>2026-05-02T07:56:33.999Z</time></trkpt><trkpt lat="46.22865932244066" lon="10.146261665093467"><ele>517.6</ele><time>2026-05-02T07:56:34.999Z</time></trkpt><trkpt lat="46.22875211399724" lon="10.14626024768711"><ele>518.8</ele><time>2026-05-02T07:56:35.999Z</time></trkpt><trkpt lat="46.228833405049286" lon="10.146250266520966"><ele>520.0</ele><time>2026-05-02T07:56:36.999Z</time></trkpt><trkpt lat="46.22891017787783" lon="10.146247768332248"><ele>519.6666666666667</ele><time>2026-05-02T07:56:37.999Z</time></trkpt><trkpt lat="46.22898578052021" lon="10.146229270946332"><ele>519.3333333333334</ele><time>2026-05-02T07:56:38.999Z</time></trkpt><trkpt lat="46.22905233061571" lon="10.146212319580581"><ele>519.0</ele><time>2026-05-02T07:56:39.999Z</time></trkpt><trkpt lat="46.229181546826766" lon="10.14616458551988"><ele>518.6666666666666</ele><time>2026-05-02T07:56:41.999Z</time></trkpt><trkpt lat="46.229244197109" lon="10.146138064137402"><ele>518.3333333333333</ele><time>2026-05-02T07:56:42.999Z</time></trkpt><trkpt lat="46.229311357599514" lon="10.146112674423847"><ele>518.0</ele><time>2026-05-02T07:56:43.999Z</time></trkpt><trkpt lat="46.22937897241391" lon="10.146087076460903"><ele>518.0</ele><time>2026-05-02T07:56:45.022Z</time></trkpt><trkpt lat="46.22944266055849" lon="10.14606003130774"><ele>518.0</ele><time>2026-05-02T07:56:46.024Z</time></trkpt><trkpt lat="46.22950464933073" lon="10.14603785027092"><ele>518.0</ele><time>2026-05-02T07:56:46.999Z</time></trkpt><trkpt lat="46.229557823476306" lon="10.145981523851118"><ele>518.0</ele><time>2026-05-02T07:56:47.999Z</time></trkpt><trkpt lat="46.22966392892503" lon="10.145888034721139"><ele>518.0</ele><time>2026-05-02T07:56:48.999Z</time></trkpt><trkpt lat="46.229770371946124" lon="10.145865399454818"><ele>518.0</ele><time>2026-05-02T07:56:49.999Z</time></trkpt><trkpt lat="46.22984286293561" lon="10.145792987216028"><ele>517.5</ele><time>2026-05-02T07:56:50.999Z</time></trkpt><trkpt lat="46.229922325757194" lon="10.145726524059308"><ele>517.0</ele><time>2026-05-02T07:56:51.999Z</time></trkpt><trkpt lat="46.230010399738944" lon="10.145679313471144"><ele>516.5</ele><time>2026-05-02T07:56:52.999Z</time></trkpt><trkpt lat="46.230105703089215" lon="10.145676749910102"><ele>516.0</ele><time>2026-05-02T07:56:53.999Z</time></trkpt><trkpt lat="46.230168979834716" lon="10.145678285132897"><ele>515.5</ele><time>2026-05-02T07:56:54.999Z</time></trkpt><trkpt lat="46.23025687899376" lon="10.145673124418142"><ele>515.0</ele><time>2026-05-02T07:56:55.999Z</time></trkpt><trkpt lat="46.23033680300183" lon="10.1456291595841"><ele>517.5</ele><time>2026-05-02T07:56:56.999Z</time></trkpt><trkpt lat="46.230394683925674" lon="10.145551533198105"><ele>520.0</ele><time>2026-05-02T07:56:57.999Z</time></trkpt><trkpt lat="46.23045680470685" lon="10.14547505072134"><ele>522.5</ele><time>2026-05-02T07:56:58.999Z</time></trkpt><trkpt lat="46.23049306067348" lon="10.145375379386158"><ele>525.0</ele><time>2026-05-02T07:56:59.999Z</time></trkpt><trkpt lat="46.23053811399544" lon="10.14528550495288"><ele>527.5</ele><time>2026-05-02T07:57:00.999Z</time></trkpt><trkpt lat="46.23058087409574" lon="10.145192955802967"><ele>530.0</ele><time>2026-05-02T07:57:01.999Z</time></trkpt><trkpt lat="46.23063451960987" lon="10.145098338643303"><ele>530.4</ele><time>2026-05-02T07:57:02.999Z</time></trkpt><trkpt lat="46.23069234587517" lon="10.144994283815294"><ele>530.8</ele><time>2026-05-02T07:57:03.999Z</time></trkpt><trkpt lat="46.23074139334036" lon="10.144902026315341"><ele>531.2</ele><time>2026-05-02T07:57:04.999Z</time></trkpt><trkpt lat="46.230798368583294" lon="10.144802928656354"><ele>531.6</ele><time>2026-05-02T07:57:05.999Z</time></trkpt><trkpt lat="46.230870088998124" lon="10.144710534190773"><ele>532.0</ele><time>2026-05-02T07:57:06.999Z</time></trkpt><trkpt lat="46.230944154897394" lon="10.144605822673505"><ele>532.0</ele><time>2026-05-02T07:57:07.999Z</time></trkpt><trkpt lat="46.23100896297535" lon="10.14446356239069"><ele>532.0</ele><time>2026-05-02T07:57:08.999Z</time></trkpt><trkpt lat="46.23108810247407" lon="10.144341772338954"><ele>532.0</ele><time>2026-05-02T07:57:09.999Z</time></trkpt><trkpt lat="46.2311631251006" lon="10.144216882815368"><ele>532.0</ele><time>2026-05-02T07:57:10.999Z</time></trkpt><trkpt lat="46.23124784498319" lon="10.144076042871164"><ele>532.75</ele><time>2026-05-02T07:57:11.999Z</time></trkpt><trkpt lat="46.231327216629175" lon="10.143944980155853"><ele>533.5</ele><time>2026-05-02T07:57:12.999Z</time></trkpt><trkpt lat="46.23142774196115" lon="10.143828661085694"><ele>534.25</ele><time>2026-05-02T07:57:13.999Z</time></trkpt><trkpt lat="46.23153174513343" lon="10.143718465446172"><ele>535.0</ele><time>2026-05-02T07:57:14.999Z</time></trkpt><trkpt lat="46.231638851433736" lon="10.143603392650038"><ele>535.0</ele><time>2026-05-02T07:57:15.999Z</time></trkpt><trkpt lat="46.23177154575007" lon="10.143537592988967"><ele>535.0</ele><time>2026-05-02T07:57:16.999Z</time></trkpt><trkpt lat="46.2319017839795" lon="10.14346624023372"><ele>535.0</ele><time>2026-05-02T07:57:17.999Z</time></trkpt><trkpt lat="46.23204012877413" lon="10.143451580297087"><ele>535.0</ele><time>2026-05-02T07:57:18.999Z</time></trkpt><trkpt lat="46.23216898316394" lon="10.143413244586798"><ele>535.0</ele><time>2026-05-02T07:57:19.999Z</time></trkpt><trkpt lat="46.23233377254557" lon="10.143395060601938"><ele>535.0</ele><time>2026-05-02T07:57:20.999Z</time></trkpt><trkpt lat="46.23248270140019" lon="10.143356269289693"><ele>535.0</ele><time>2026-05-02T07:57:21.999Z</time></trkpt><trkpt lat="46.232623019116275" lon="10.143300629506511"><ele>535.0</ele><time>2026-05-02T07:57:22.999Z</time></trkpt><trkpt lat="46.23273149413824" lon="10.143236745805112"><ele>535.0</ele><time>2026-05-02T07:57:23.999Z</time></trkpt><trkpt lat="46.23284723811023" lon="10.143169011805826"><ele>535.0</ele><time>2026-05-02T07:57:24.999Z</time></trkpt><trkpt lat="46.23296326743993" lon="10.143127232613164"><ele>535.0</ele><time>2026-05-02T07:57:25.999Z</time></trkpt><trkpt lat="46.233019815314684" lon="10.14303214514817"><ele>535.0</ele><time>2026-05-02T07:57:26.999Z</time></trkpt><trkpt lat="46.233111964189284" lon="10.142969092849624"><ele>537.4</ele><time>2026-05-02T07:57:27.999Z</time></trkpt><trkpt lat="46.23318217254491" lon="10.142863608505662"><ele>539.8</ele><time>2026-05-02T07:57:28.999Z</time></trkpt><trkpt lat="46.23325200483406" lon="10.142780746631486"><ele>542.2</ele><time>2026-05-02T07:57:29.999Z</time></trkpt><trkpt lat="46.23332768760075" lon="10.142701114031153"><ele>544.6</ele><time>2026-05-02T07:57:30.999Z</time></trkpt><trkpt lat="46.233404339578584" lon="10.142625831952452"><ele>547.0</ele><time>2026-05-02T07:57:31.999Z</time></trkpt><trkpt lat="46.23348814257295" lon="10.142554196105426"><ele>547.0</ele><time>2026-05-02T07:57:32.999Z</time></trkpt><trkpt lat="46.23354019612944" lon="10.142463542656456"><ele>547.0</ele><time>2026-05-02T07:57:33.998Z</time></trkpt><trkpt lat="46.23359894327566" lon="10.142360419782149"><ele>547.0</ele><time>2026-05-02T07:57:34.998Z</time></trkpt><trkpt lat="46.233687531277724" lon="10.142290798168025"><ele>547.0</ele><time>2026-05-02T07:57:35.998Z</time></trkpt><trkpt lat="46.23375773125489" lon="10.142205688156064"><ele>547.0</ele><time>2026-05-02T07:57:36.998Z</time></trkpt><trkpt lat="46.233826753063326" lon="10.142107300839884"><ele>547.5</ele><time>2026-05-02T07:57:38Z</time></trkpt><trkpt lat="46.23389485795267" lon="10.141980890518706"><ele>548.0</ele><time>2026-05-02T07:57:39Z</time></trkpt><trkpt lat="46.233956547513806" lon="10.141851715229135"><ele>548.5</ele><time>2026-05-02T07:57:40Z</time></trkpt><trkpt lat="46.23400028522554" lon="10.141688940135007"><ele>549.0</ele><time>2026-05-02T07:57:41Z</time></trkpt><trkpt lat="46.23405515189009" lon="10.141504256560902"><ele>551.0</ele><time>2026-05-02T07:57:42Z</time></trkpt><trkpt lat="46.23417091005717" lon="10.1412849349493"><ele>553.0</ele><time>2026-05-02T07:57:43Z</time></trkpt><trkpt lat="46.23427090442718" lon="10.141110553596457"><ele>555.0</ele><time>2026-05-02T07:57:44Z</time></trkpt><trkpt lat="46.23432709838488" lon="10.140962386921524"><ele>555.0</ele><time>2026-05-02T07:57:45Z</time></trkpt><trkpt lat="46.23438802532544" lon="10.140850788291282"><ele>555.0</ele><time>2026-05-02T07:57:46Z</time></trkpt><trkpt lat="46.23446418201827" lon="10.14072055369645"><ele>555.0</ele><time>2026-05-02T07:57:47Z</time></trkpt><trkpt lat="46.23451860957872" lon="10.140641015536707"><ele>555.0</ele><time>2026-05-02T07:57:48Z</time></trkpt><trkpt lat="46.23463439926627" lon="10.140541621233831"><ele>555.0</ele><time>2026-05-02T07:57:49Z</time></trkpt><trkpt lat="46.234744104227005" lon="10.140439245728103"><ele>557.5</ele><time>2026-05-02T07:57:50Z</time></trkpt><trkpt lat="46.234846522129075" lon="10.140325950653017"><ele>560.0</ele><time>2026-05-02T07:57:51Z</time></trkpt><trkpt lat="46.2349368090303" lon="10.140218371250027"><ele>562.5</ele><time>2026-05-02T07:57:52Z</time></trkpt><trkpt lat="46.23502711328384" lon="10.140122411593387"><ele>565.0</ele><time>2026-05-02T07:57:53Z</time></trkpt><trkpt lat="46.2351054027773" lon="10.140050455999118"><ele>565.0</ele><time>2026-05-02T07:57:54Z</time></trkpt><trkpt lat="46.23519638591922" lon="10.140034429137529"><ele>565.0</ele><time>2026-05-02T07:57:55Z</time></trkpt><trkpt lat="46.23529318348601" lon="10.140074188841968"><ele>565.0</ele><time>2026-05-02T07:57:56Z</time></trkpt><trkpt lat="46.23539780536097" lon="10.140109796576123"><ele>565.0</ele><time>2026-05-02T07:57:57Z</time></trkpt><trkpt lat="46.23548953586951" lon="10.140112494188584"><ele>565.0</ele><time>2026-05-02T07:57:58Z</time></trkpt><trkpt lat="46.235596342585005" lon="10.140099515474462"><ele>563.0</ele><time>2026-05-02T07:57:59Z</time></trkpt><trkpt lat="46.23570762453722" lon="10.140080211659729"><ele>561.0</ele><time>2026-05-02T07:58:00Z</time></trkpt><trkpt lat="46.235838909240414" lon="10.140002411456022"><ele>559.0</ele><time>2026-05-02T07:58:01Z</time></trkpt><trkpt lat="46.23596039160199" lon="10.13989144157061"><ele>557.0</ele><time>2026-05-02T07:58:02Z</time></trkpt><trkpt lat="46.23607388693509" lon="10.139744020240245"><ele>557.0</ele><time>2026-05-02T07:58:03Z</time></trkpt><trkpt lat="46.23617853159241" lon="10.13958169509805"><ele>557.0</ele><time>2026-05-02T07:58:04Z</time></trkpt><trkpt lat="46.236288314652576" lon="10.139432605247286"><ele>557.0</ele><time>2026-05-02T07:58:05Z</time></trkpt><trkpt lat="46.23639565079289" lon="10.13929414386699"><ele>557.0</ele><time>2026-05-02T07:58:06Z</time></trkpt><trkpt lat="46.23651850101233" lon="10.139148217643289"><ele>557.6666666666666</ele><time>2026-05-02T07:58:07Z</time></trkpt><trkpt lat="46.23663548733201" lon="10.138978373779144"><ele>558.3333333333334</ele><time>2026-05-02T07:58:08Z</time></trkpt><trkpt lat="46.236758042278126" lon="10.138822487506625"><ele>559.0</ele><time>2026-05-02T07:58:09Z</time></trkpt><trkpt lat="46.23688790326809" lon="10.138669748220643"><ele>559.0</ele><time>2026-05-02T07:58:10Z</time></trkpt><trkpt lat="46.23701403905787" lon="10.138504987716173"><ele>559.0</ele><time>2026-05-02T07:58:11Z</time></trkpt><trkpt lat="46.237132656544865" lon="10.13834199272586"><ele>559.0</ele><time>2026-05-02T07:58:12Z</time></trkpt><trkpt lat="46.237270217233714" lon="10.138173817741379"><ele>561.3333333333334</ele><time>2026-05-02T07:58:13Z</time></trkpt><trkpt lat="46.237389832313035" lon="10.138018929911732"><ele>563.6666666666666</ele><time>2026-05-02T07:58:14Z</time></trkpt><trkpt lat="46.23750649781406" lon="10.13785942771712"><ele>566.0</ele><time>2026-05-02T07:58:15Z</time></trkpt><trkpt lat="46.23761505549646" lon="10.137717894005762"><ele>566.0</ele><time>2026-05-02T07:58:16Z</time></trkpt><trkpt lat="46.23772179969955" lon="10.137566681004882"><ele>566.0</ele><time>2026-05-02T07:58:17Z</time></trkpt><trkpt lat="46.237845770347164" lon="10.137413584244454"><ele>566.0</ele><time>2026-05-02T07:58:18Z</time></trkpt><trkpt lat="46.23795020961981" lon="10.137264174135892"><ele>567.25</ele><time>2026-05-02T07:58:19Z</time></trkpt><trkpt lat="46.238055833472416" lon="10.137125599436784"><ele>568.5</ele><time>2026-05-02T07:58:20Z</time></trkpt><trkpt lat="46.23816901411548" lon="10.136980555471585"><ele>569.75</ele><time>2026-05-02T07:58:21Z</time></trkpt><trkpt lat="46.238273524192195" lon="10.136841907026103"><ele>571.0</ele><time>2026-05-02T07:58:22Z</time></trkpt><trkpt lat="46.23837970481536" lon="10.136696311052205"><ele>571.25</ele><time>2026-05-02T07:58:23Z</time></trkpt><trkpt lat="46.238464037878316" lon="10.136602430457858"><ele>571.5</ele><time>2026-05-02T07:58:24Z</time></trkpt><trkpt lat="46.238562676652776" lon="10.136472046495392"><ele>571.75</ele><time>2026-05-02T07:58:24.999Z</time></trkpt><trkpt lat="46.238698650951264" lon="10.13644338444631"><ele>572.0</ele><time>2026-05-02T07:58:25.999Z</time></trkpt><trkpt lat="46.23877950407719" lon="10.136336349150335"><ele>572.0</ele><time>2026-05-02T07:58:26.999Z</time></trkpt><trkpt lat="46.238869907645054" lon="10.136216670754825"><ele>572.0</ele><time>2026-05-02T07:58:27.999Z</time></trkpt><trkpt lat="46.238913317216316" lon="10.136013967866843"><ele>572.0</ele><time>2026-05-02T07:58:28.999Z</time></trkpt><trkpt lat="46.239010269624316" lon="10.135892630774787"><ele>572.0</ele><time>2026-05-02T07:58:29.999Z</time></trkpt><trkpt lat="46.23913124087718" lon="10.135802396382154"><ele>573.75</ele><time>2026-05-02T07:58:30.999Z</time></trkpt><trkpt lat="46.239258181088445" lon="10.135688491650084"><ele>575.5</ele><time>2026-05-02T07:58:31.999Z</time></trkpt><trkpt lat="46.23938018294636" lon="10.135586699412256"><ele>577.25</ele><time>2026-05-02T07:58:32.999Z</time></trkpt><trkpt lat="46.23951393797581" lon="10.135479296335118"><ele>579.0</ele><time>2026-05-02T07:58:33.999Z</time></trkpt><trkpt lat="46.239636633309935" lon="10.135370579771678"><ele>579.0</ele><time>2026-05-02T07:58:34.999Z</time></trkpt><trkpt lat="46.2397124558554" lon="10.135305659076364"><ele>579.0</ele><time>2026-05-02T07:58:35.999Z</time></trkpt><trkpt lat="46.239812153370956" lon="10.135260385930085"><ele>579.0</ele><time>2026-05-02T07:58:36.999Z</time></trkpt><trkpt lat="46.239936889551934" lon="10.135182195511376"><ele>579.0</ele><time>2026-05-02T07:58:37.999Z</time></trkpt><trkpt lat="46.24020306974059" lon="10.134928266183994"><ele>581.6666666666666</ele><time>2026-05-02T07:58:38.999Z</time></trkpt><trkpt lat="46.24035195569671" lon="10.134795845740037"><ele>584.3333333333333</ele><time>2026-05-02T07:58:39.999Z</time></trkpt><trkpt lat="46.2404933239275" lon="10.134673570219165"><ele>587.0</ele><time>2026-05-02T07:58:40.999Z</time></trkpt><trkpt lat="46.2406198062139" lon="10.134561989999833"><ele>589.0</ele><time>2026-05-02T07:58:41.999Z</time></trkpt><trkpt lat="46.2407516633251" lon="10.134451708264324"><ele>591.0</ele><time>2026-05-02T07:58:42.999Z</time></trkpt><trkpt lat="46.24091380565838" lon="10.134323386988841"><ele>593.0</ele><time>2026-05-02T07:58:43.999Z</time></trkpt><trkpt lat="46.24108813520977" lon="10.134164935563389"><ele>593.0</ele><time>2026-05-02T07:58:44.999Z</time></trkpt><trkpt lat="46.24117366599305" lon="10.134079564547465"><ele>593.0</ele><time>2026-05-02T07:58:45.999Z</time></trkpt><trkpt lat="46.2413031445165" lon="10.133958164532428"><ele>593.0</ele><time>2026-05-02T07:58:46.999Z</time></trkpt><trkpt lat="46.24143552150168" lon="10.13383739341722"><ele>593.0</ele><time>2026-05-02T07:58:47.999Z</time></trkpt><trkpt lat="46.241565190697656" lon="10.133706314088235"><ele>596.3333333333333</ele><time>2026-05-02T07:58:48.999Z</time></trkpt><trkpt lat="46.2416913887158" lon="10.13357608911797"><ele>599.6666666666666</ele><time>2026-05-02T07:58:49.999Z</time></trkpt><trkpt lat="46.241822421093715" lon="10.133438306036105"><ele>603.0</ele><time>2026-05-02T07:58:50.999Z</time></trkpt><trkpt lat="46.24194314261097" lon="10.13329113259364"><ele>602.0</ele><time>2026-05-02T07:58:51.999Z</time></trkpt><trkpt lat="46.24206840581845" lon="10.133150828006087"><ele>601.0</ele><time>2026-05-02T07:58:52.999Z</time></trkpt><trkpt lat="46.242190383415206" lon="10.133022473827697"><ele>600.0</ele><time>2026-05-02T07:58:53.999Z</time></trkpt><trkpt lat="46.24226478215795" lon="10.132771540299105"><ele>602.0</ele><time>2026-05-02T07:58:54.999Z</time></trkpt><trkpt lat="46.24235954335703" lon="10.132592845942494"><ele>604.0</ele><time>2026-05-02T07:58:55.999Z</time></trkpt><trkpt lat="46.242472312274984" lon="10.13242479029827"><ele>606.0</ele><time>2026-05-02T07:58:56.999Z</time></trkpt><trkpt lat="46.24258042503225" lon="10.132271368370363"><ele>606.0</ele><time>2026-05-02T07:58:57.999Z</time></trkpt><trkpt lat="46.24268557480439" lon="10.13210970631109"><ele>606.0</ele><time>2026-05-02T07:58:58.999Z</time></trkpt><trkpt lat="46.24278817753398" lon="10.131965581830023"><ele>606.0</ele><time>2026-05-02T07:58:59.999Z</time></trkpt><trkpt lat="46.24293928616922" lon="10.131865729129258"><ele>606.0</ele><time>2026-05-02T07:59:00.999Z</time></trkpt><trkpt lat="46.24301900281389" lon="10.13175597277544"><ele>606.0</ele><time>2026-05-02T07:59:01.999Z</time></trkpt><trkpt lat="46.243166904889726" lon="10.131750182929757"><ele>606.0</ele><time>2026-05-02T07:59:02.999Z</time></trkpt><trkpt lat="46.24332573184775" lon="10.131704828471717"><ele>606.0</ele><time>2026-05-02T07:59:03.999Z</time></trkpt><trkpt lat="46.24348258819944" lon="10.131620520249218"><ele>608.0</ele><time>2026-05-02T07:59:04.999Z</time></trkpt><trkpt lat="46.24364106428134" lon="10.131556791418328"><ele>610.0</ele><time>2026-05-02T07:59:05.999Z</time></trkpt><trkpt lat="46.24378054188689" lon="10.13152150914456"><ele>612.0</ele><time>2026-05-02T07:59:06.999Z</time></trkpt><trkpt lat="46.24392673937963" lon="10.131452371388276"><ele>614.5</ele><time>2026-05-02T07:59:07.999Z</time></trkpt><trkpt lat="46.24404223727621" lon="10.131383471658173"><ele>617.0</ele><time>2026-05-02T07:59:09.999Z</time></trkpt><trkpt lat="46.24416652419461" lon="10.13134296237313"><ele>619.5</ele><time>2026-05-02T07:59:10.999Z</time></trkpt><trkpt lat="46.244275480818416" lon="10.131312818537431"><ele>622.0</ele><time>2026-05-02T07:59:11.999Z</time></trkpt><trkpt lat="46.2443932694721" lon="10.131263854330687"><ele>622.0</ele><time>2026-05-02T07:59:12.999Z</time></trkpt><trkpt lat="46.24451665393109" lon="10.131207446348267"><ele>622.0</ele><time>2026-05-02T07:59:13.999Z</time></trkpt><trkpt lat="46.244637334749726" lon="10.131148712882094"><ele>622.0</ele><time>2026-05-02T07:59:14.999Z</time></trkpt><trkpt lat="46.244784405315876" lon="10.13111197908851"><ele>622.0</ele><time>2026-05-02T07:59:15.999Z</time></trkpt><trkpt lat="46.24490925335149" lon="10.131073610711272"><ele>624.5</ele><time>2026-05-02T07:59:16.999Z</time></trkpt><trkpt lat="46.24503424263018" lon="10.131032120489287"><ele>627.0</ele><time>2026-05-02T07:59:17.999Z</time></trkpt><trkpt lat="46.24517178384434" lon="10.130971454737875"><ele>629.5</ele><time>2026-05-02T07:59:18.999Z</time></trkpt><trkpt lat="46.245316594946964" lon="10.130923384201369"><ele>632.0</ele><time>2026-05-02T07:59:19.999Z</time></trkpt><trkpt lat="46.24543221370762" lon="10.130862584908003"><ele>632.0</ele><time>2026-05-02T07:59:20.999Z</time></trkpt><trkpt lat="46.24555491610826" lon="10.130797980501777"><ele>632.0</ele><time>2026-05-02T07:59:21.999Z</time></trkpt><trkpt lat="46.24568034405567" lon="10.130740637023857"><ele>632.0</ele><time>2026-05-02T07:59:22.999Z</time></trkpt><trkpt lat="46.245806953302385" lon="10.130673961900333"><ele>632.0</ele><time>2026-05-02T07:59:23.999Z</time></trkpt><trkpt lat="46.24593160150907" lon="10.13059641174619"><ele>633.0</ele><time>2026-05-02T07:59:24.999Z</time></trkpt><trkpt lat="46.24605303733447" lon="10.130529035858746"><ele>634.0</ele><time>2026-05-02T07:59:25.999Z</time></trkpt><trkpt lat="46.24617376918757" lon="10.130449765051535"><ele>635.0</ele><time>2026-05-02T07:59:26.999Z</time></trkpt><trkpt lat="46.24628929036716" lon="10.13037493214745"><ele>636.0</ele><time>2026-05-02T07:59:27.999Z</time></trkpt><trkpt lat="46.246405448760314" lon="10.130299841989638"><ele>637.75</ele><time>2026-05-02T07:59:28.999Z</time></trkpt><trkpt lat="46.24653557046275" lon="10.1302311825963"><ele>639.5</ele><time>2026-05-02T07:59:29.999Z</time></trkpt><trkpt lat="46.246654970246254" lon="10.130198645835785"><ele>641.25</ele><time>2026-05-02T07:59:30.999Z</time></trkpt><trkpt lat="46.24677303857115" lon="10.130203841240927"><ele>643.0</ele><time>2026-05-02T07:59:31.999Z</time></trkpt><trkpt lat="46.24689743724584" lon="10.130210606968616"><ele>643.0</ele><time>2026-05-02T07:59:32.999Z</time></trkpt><trkpt lat="46.247025253782276" lon="10.1302006143869"><ele>643.0</ele><time>2026-05-02T07:59:33.999Z</time></trkpt><trkpt lat="46.24716923049129" lon="10.130187125420694"><ele>643.0</ele><time>2026-05-02T07:59:34.999Z</time></trkpt><trkpt lat="46.247301651392945" lon="10.13016183678934"><ele>643.0</ele><time>2026-05-02T07:59:35.999Z</time></trkpt><trkpt lat="46.24742935844482" lon="10.130186687032197"><ele>645.0</ele><time>2026-05-02T07:59:36.999Z</time></trkpt><trkpt lat="46.24756359409839" lon="10.130185317430925"><ele>647.0</ele><time>2026-05-02T07:59:37.999Z</time></trkpt><trkpt lat="46.2476913885917" lon="10.13018569398761"><ele>649.0</ele><time>2026-05-02T07:59:38.999Z</time></trkpt><trkpt lat="46.24782807479713" lon="10.130165054903372"><ele>651.0</ele><time>2026-05-02T07:59:39.999Z</time></trkpt><trkpt lat="46.247962766493615" lon="10.130118185801226"><ele>651.0</ele><time>2026-05-02T07:59:40.999Z</time></trkpt><trkpt lat="46.248091115038854" lon="10.130069422300817"><ele>651.0</ele><time>2026-05-02T07:59:41.999Z</time></trkpt><trkpt lat="46.24822464576834" lon="10.130005167010541"><ele>651.0</ele><time>2026-05-02T07:59:42.999Z</time></trkpt><trkpt lat="46.248356963381404" lon="10.129949744684234"><ele>651.0</ele><time>2026-05-02T07:59:44Z</time></trkpt><trkpt lat="46.24848579147459" lon="10.129897957593222"><ele>652.5</ele><time>2026-05-02T07:59:45Z</time></trkpt><trkpt lat="46.24861880863994" lon="10.129845790832244"><ele>654.0</ele><time>2026-05-02T07:59:46Z</time></trkpt><trkpt lat="46.24874623845084" lon="10.129791502546247"><ele>655.5</ele><time>2026-05-02T07:59:47Z</time></trkpt><trkpt lat="46.24887648138476" lon="10.129737727532232"><ele>657.0</ele><time>2026-05-02T07:59:48Z</time></trkpt><trkpt lat="46.248995229959554" lon="10.129663428811828"><ele>659.0</ele><time>2026-05-02T07:59:49Z</time></trkpt><trkpt lat="46.24911119305021" lon="10.129558556753658"><ele>661.0</ele><time>2026-05-02T07:59:50Z</time></trkpt><trkpt lat="46.249222853585934" lon="10.129439515653493"><ele>663.0</ele><time>2026-05-02T07:59:51Z</time></trkpt><trkpt lat="46.24933700859484" lon="10.129316216105003"><ele>665.0</ele><time>2026-05-02T07:59:52Z</time></trkpt><trkpt lat="46.24945667936941" lon="10.12919844664391"><ele>665.0</ele><time>2026-05-02T07:59:53Z</time></trkpt><trkpt lat="46.24957283090565" lon="10.129082490093868"><ele>665.0</ele><time>2026-05-02T07:59:54Z</time></trkpt><trkpt lat="46.24969584711089" lon="10.128962861393203"><ele>665.0</ele><time>2026-05-02T07:59:55Z</time></trkpt><trkpt lat="46.249816383091165" lon="10.128843848214768"><ele>665.0</ele><time>2026-05-02T07:59:56Z</time></trkpt><trkpt lat="46.249936205446794" lon="10.128716546774953"><ele>667.75</ele><time>2026-05-02T07:59:57Z</time></trkpt><trkpt lat="46.25004838427736" lon="10.128604254834196"><ele>670.5</ele><time>2026-05-02T07:59:58Z</time></trkpt><trkpt lat="46.25015439661836" lon="10.128498633136795"><ele>673.25</ele><time>2026-05-02T07:59:59Z</time></trkpt><trkpt lat="46.25026497439842" lon="10.128402828637924"><ele>676.0</ele><time>2026-05-02T08:00:00Z</time></trkpt><trkpt lat="46.250378216851" lon="10.128304328308849"><ele>676.0</ele><time>2026-05-02T08:00:01Z</time></trkpt><trkpt lat="46.25049989006686" lon="10.128217952784228"><ele>676.0</ele><time>2026-05-02T08:00:02Z</time></trkpt><trkpt lat="46.2506215521343" lon="10.128151400498023"><ele>676.0</ele><time>2026-05-02T08:00:03Z</time></trkpt><trkpt lat="46.25074607376667" lon="10.128108507618895"><ele>676.0</ele><time>2026-05-02T08:00:04Z</time></trkpt><trkpt lat="46.25088528688271" lon="10.128080131724595"><ele>676.0</ele><time>2026-05-02T08:00:05Z</time></trkpt><trkpt lat="46.25102185768615" lon="10.128066508792111"><ele>676.0</ele><time>2026-05-02T08:00:06Z</time></trkpt><trkpt lat="46.25115823998419" lon="10.128053984349254"><ele>676.0</ele><time>2026-05-02T08:00:07Z</time></trkpt><trkpt lat="46.251300634047375" lon="10.128049151988147"><ele>676.0</ele><time>2026-05-02T08:00:08Z</time></trkpt><trkpt lat="46.251428266758815" lon="10.128055821717387"><ele>678.5</ele><time>2026-05-02T08:00:09Z</time></trkpt><trkpt lat="46.25156066231619" lon="10.128053636287557"><ele>681.0</ele><time>2026-05-02T08:00:10Z</time></trkpt><trkpt lat="46.25170094468157" lon="10.128040744162663"><ele>683.5</ele><time>2026-05-02T08:00:11Z</time></trkpt><trkpt lat="46.25183013001819" lon="10.128015753614418"><ele>686.0</ele><time>2026-05-02T08:00:12Z</time></trkpt><trkpt lat="46.25196018632404" lon="10.127975931398273"><ele>686.0</ele><time>2026-05-02T08:00:13Z</time></trkpt><trkpt lat="46.25208792465572" lon="10.127919155148662"><ele>686.0</ele><time>2026-05-02T08:00:14Z</time></trkpt><trkpt lat="46.25221185227696" lon="10.127830833122871"><ele>686.0</ele><time>2026-05-02T08:00:15Z</time></trkpt><trkpt lat="46.25233070930398" lon="10.12774543527251"><ele>686.0</ele><time>2026-05-02T08:00:16Z</time></trkpt><trkpt lat="46.25246041168738" lon="10.127640818879996"><ele>687.5</ele><time>2026-05-02T08:00:17Z</time></trkpt><trkpt lat="46.25258338100356" lon="10.127532494319473"><ele>689.0</ele><time>2026-05-02T08:00:18Z</time></trkpt><trkpt lat="46.25271178451661" lon="10.12742391037207"><ele>690.5</ele><time>2026-05-02T08:00:19Z</time></trkpt><trkpt lat="46.25283655383926" lon="10.127336265057734"><ele>692.0</ele><time>2026-05-02T08:00:20Z</time></trkpt><trkpt lat="46.252956280857944" lon="10.127235600114016"><ele>692.0</ele><time>2026-05-02T08:00:21Z</time></trkpt><trkpt lat="46.25308251612204" lon="10.127142741341851"><ele>692.0</ele><time>2026-05-02T08:00:22Z</time></trkpt><trkpt lat="46.253206712770485" lon="10.127045623698528"><ele>692.0</ele><time>2026-05-02T08:00:23Z</time></trkpt><trkpt lat="46.253337741341866" lon="10.126941539653442"><ele>692.0</ele><time>2026-05-02T08:00:24Z</time></trkpt><trkpt lat="46.253458616679346" lon="10.126836032179249"><ele>694.5</ele><time>2026-05-02T08:00:25Z</time></trkpt><trkpt lat="46.253574037255426" lon="10.126743491903788"><ele>697.0</ele><time>2026-05-02T08:00:26Z</time></trkpt><trkpt lat="46.25370647692996" lon="10.126643868309856"><ele>699.5</ele><time>2026-05-02T08:00:27Z</time></trkpt><trkpt lat="46.2538351263539" lon="10.126554072650128"><ele>702.0</ele><time>2026-05-02T08:00:28Z</time></trkpt><trkpt lat="46.253955796022595" lon="10.126507162845632"><ele>703.0</ele><time>2026-05-02T08:00:29Z</time></trkpt><trkpt lat="46.25408869593538" lon="10.126480835113778"><ele>704.0</ele><time>2026-05-02T08:00:30Z</time></trkpt><trkpt lat="46.25421329420009" lon="10.126480910580103"><ele>705.0</ele><time>2026-05-02T08:00:31Z</time></trkpt><trkpt lat="46.254346079401905" lon="10.126509461485886"><ele>706.0</ele><time>2026-05-02T08:00:32Z</time></trkpt><trkpt lat="46.25445968581509" lon="10.12658505764067"><ele>707.5</ele><time>2026-05-02T08:00:32.999Z</time></trkpt><trkpt lat="46.254531954107996" lon="10.126691674943965"><ele>709.0</ele><time>2026-05-02T08:00:33.999Z</time></trkpt><trkpt lat="46.25460820658936" lon="10.126829231077082"><ele>710.5</ele><time>2026-05-02T08:00:34.999Z</time></trkpt><trkpt lat="46.25468986288711" lon="10.126997660692275"><ele>712.0</ele><time>2026-05-02T08:00:35.999Z</time></trkpt><trkpt lat="46.2548481706734" lon="10.127100843069194"><ele>714.25</ele><time>2026-05-02T08:00:36.999Z</time></trkpt><trkpt lat="46.25490969667898" lon="10.12724765514697"><ele>716.5</ele><time>2026-05-02T08:00:37.999Z</time></trkpt><trkpt lat="46.255013228503714" lon="10.127386804247353"><ele>718.75</ele><time>2026-05-02T08:00:38.999Z</time></trkpt><trkpt lat="46.255134280573145" lon="10.127473429881894"><ele>721.0</ele><time>2026-05-02T08:00:39.999Z</time></trkpt><trkpt lat="46.25526453216947" lon="10.127533441508412"><ele>721.5</ele><time>2026-05-02T08:00:40.999Z</time></trkpt><trkpt lat="46.255398697824525" lon="10.127567176034358"><ele>722.0</ele><time>2026-05-02T08:00:41.999Z</time></trkpt><trkpt lat="46.25551982965751" lon="10.12759989118616"><ele>722.5</ele><time>2026-05-02T08:00:42.999Z</time></trkpt><trkpt lat="46.25563751033389" lon="10.127641993643508"><ele>723.0</ele><time>2026-05-02T08:00:43.999Z</time></trkpt><trkpt lat="46.25579521178297" lon="10.127675226610874"><ele>725.0</ele><time>2026-05-02T08:00:44.999Z</time></trkpt><trkpt lat="46.255947600615315" lon="10.12773211023483"><ele>727.0</ele><time>2026-05-02T08:00:45.999Z</time></trkpt><trkpt lat="46.25608739202009" lon="10.127772179739614"><ele>729.0</ele><time>2026-05-02T08:00:46.999Z</time></trkpt><trkpt lat="46.25622597562892" lon="10.12780193001962"><ele>731.0</ele><time>2026-05-02T08:00:47.999Z</time></trkpt><trkpt lat="46.256375263195764" lon="10.127810228750484"><ele>733.5</ele><time>2026-05-02T08:00:48.999Z</time></trkpt><trkpt lat="46.25651814562187" lon="10.127803986053404"><ele>736.0</ele><time>2026-05-02T08:00:49.999Z</time></trkpt><trkpt lat="46.2566467237128" lon="10.127772285941807"><ele>738.5</ele><time>2026-05-02T08:00:50.999Z</time></trkpt><trkpt lat="46.256777148651494" lon="10.127746376184316"><ele>741.0</ele><time>2026-05-02T08:00:51.999Z</time></trkpt><trkpt lat="46.25691443213873" lon="10.12772427924791"><ele>741.0</ele><time>2026-05-02T08:00:52.999Z</time></trkpt><trkpt lat="46.25706458022056" lon="10.12773471467446"><ele>741.0</ele><time>2026-05-02T08:00:53.999Z</time></trkpt><trkpt lat="46.25722354344134" lon="10.127772374193693"><ele>741.0</ele><time>2026-05-02T08:00:54.999Z</time></trkpt><trkpt lat="46.257328306760456" lon="10.1278866796903"><ele>741.0</ele><time>2026-05-02T08:00:55.999Z</time></trkpt><trkpt lat="46.25745281127608" lon="10.127945149499862"><ele>745.3333333333334</ele><time>2026-05-02T08:00:56.999Z</time></trkpt><trkpt lat="46.25761857452619" lon="10.127947605520708"><ele>749.6666666666667</ele><time>2026-05-02T08:00:57.999Z</time></trkpt><trkpt lat="46.25778773506055" lon="10.127880298435135"><ele>754.0</ele><time>2026-05-02T08:00:58.999Z</time></trkpt><trkpt lat="46.2579243049924" lon="10.12772710583751"><ele>754.0</ele><time>2026-05-02T08:00:59.999Z</time></trkpt><trkpt lat="46.25803984255778" lon="10.127554694260526"><ele>754.0</ele><time>2026-05-02T08:01:00.999Z</time></trkpt><trkpt lat="46.258094345703" lon="10.127347524823062"><ele>754.0</ele><time>2026-05-02T08:01:01.999Z</time></trkpt><trkpt lat="46.25813535029538" lon="10.127130557460696"><ele>756.5</ele><time>2026-05-02T08:01:02.999Z</time></trkpt><trkpt lat="46.25817785977878" lon="10.12692084809742"><ele>759.0</ele><time>2026-05-02T08:01:03.999Z</time></trkpt><trkpt lat="46.25821721398862" lon="10.126718804043062"><ele>761.5</ele><time>2026-05-02T08:01:04.999Z</time></trkpt><trkpt lat="46.25822037909753" lon="10.126566194638203"><ele>764.0</ele><time>2026-05-02T08:01:05.999Z</time></trkpt><trkpt lat="46.25826847916575" lon="10.126457963313918"><ele>764.5</ele><time>2026-05-02T08:01:06.999Z</time></trkpt><trkpt lat="46.25834761433288" lon="10.126394472150105"><ele>765.0</ele><time>2026-05-02T08:01:07.999Z</time></trkpt><trkpt lat="46.258438315425444" lon="10.126355420382582"><ele>765.5</ele><time>2026-05-02T08:01:08.999Z</time></trkpt><trkpt lat="46.258579652373776" lon="10.126307242798603"><ele>766.0</ele><time>2026-05-02T08:01:09.999Z</time></trkpt><trkpt lat="46.258705831845795" lon="10.126300765639023"><ele>766.0</ele><time>2026-05-02T08:01:10.999Z</time></trkpt><trkpt lat="46.25880122851592" lon="10.126303141966428"><ele>766.0</ele><time>2026-05-02T08:01:11.999Z</time></trkpt><trkpt lat="46.258935719894" lon="10.126304868682423"><ele>766.0</ele><time>2026-05-02T08:01:12.999Z</time></trkpt><trkpt lat="46.25908850316726" lon="10.126309142646212"><ele>766.0</ele><time>2026-05-02T08:01:13.999Z</time></trkpt><trkpt lat="46.25923661137258" lon="10.12632230383461"><ele>767.5999999999999</ele><time>2026-05-02T08:01:14.999Z</time></trkpt><trkpt lat="46.25937988211172" lon="10.126346397047822"><ele>769.2</ele><time>2026-05-02T08:01:15.999Z</time></trkpt><trkpt lat="46.259506480197" lon="10.126336611350062"><ele>770.8</ele><time>2026-05-02T08:01:16.999Z</time></trkpt><trkpt lat="46.25959050812895" lon="10.126293252583949"><ele>772.4000000000001</ele><time>2026-05-02T08:01:17.999Z</time></trkpt><trkpt lat="46.25966469837549" lon="10.126240577765818"><ele>774.0</ele><time>2026-05-02T08:01:18.999Z</time></trkpt><trkpt lat="46.25899520129942" lon="10.124640853032082"><ele>774.25</ele><time>2026-05-02T08:01:19.999Z</time></trkpt><trkpt lat="46.25899375960781" lon="10.124454094349629"><ele>774.5</ele><time>2026-05-02T08:01:20.999Z</time></trkpt><trkpt lat="46.259002429585" lon="10.124283702095276"><ele>774.75</ele><time>2026-05-02T08:01:21.999Z</time></trkpt><trkpt lat="46.2590096522565" lon="10.124109273149077"><ele>775.0</ele><time>2026-05-02T08:01:22.999Z</time></trkpt><trkpt lat="46.259046285681926" lon="10.123933448597382"><ele>775.0</ele><time>2026-05-02T08:01:23.999Z</time></trkpt><trkpt lat="46.25908999227402" lon="10.123765048647549"><ele>775.0</ele><time>2026-05-02T08:01:24.999Z</time></trkpt><trkpt lat="46.259147409448715" lon="10.123607802349584"><ele>775.0</ele><time>2026-05-02T08:01:25.999Z</time></trkpt><trkpt lat="46.25922317544792" lon="10.123457526798676"><ele>775.0</ele><time>2026-05-02T08:01:26.999Z</time></trkpt><trkpt lat="46.259286396368935" lon="10.123302027765726"><ele>773.75</ele><time>2026-05-02T08:01:27.999Z</time></trkpt><trkpt lat="46.259359157434766" lon="10.123137257189017"><ele>772.5</ele><time>2026-05-02T08:01:28.999Z</time></trkpt><trkpt lat="46.259432885693485" lon="10.122978045443249"><ele>771.25</ele><time>2026-05-02T08:01:29.999Z</time></trkpt><trkpt lat="46.25950617420885" lon="10.122811866360516"><ele>770.0</ele><time>2026-05-02T08:01:30.999Z</time></trkpt><trkpt lat="46.259583443021974" lon="10.122648480516172"><ele>770.0</ele><time>2026-05-02T08:01:31.999Z</time></trkpt><trkpt lat="46.25967789091513" lon="10.12250059821795"><ele>770.0</ele><time>2026-05-02T08:01:32.999Z</time></trkpt><trkpt lat="46.25974553206664" lon="10.12234646310878"><ele>770.0</ele><time>2026-05-02T08:01:33.999Z</time></trkpt><trkpt lat="46.259816348745815" lon="10.122196021829158"><ele>770.0</ele><time>2026-05-02T08:01:34.999Z</time></trkpt><trkpt lat="46.259888665815204" lon="10.122047229046258"><ele>772.25</ele><time>2026-05-02T08:01:35.999Z</time></trkpt><trkpt lat="46.25997195913691" lon="10.121900780379784"><ele>774.5</ele><time>2026-05-02T08:01:36.999Z</time></trkpt><trkpt lat="46.26006808583591" lon="10.121750839261301"><ele>776.75</ele><time>2026-05-02T08:01:37.999Z</time></trkpt><trkpt lat="46.26015743897205" lon="10.121606732646189"><ele>779.0</ele><time>2026-05-02T08:01:38.999Z</time></trkpt><trkpt lat="46.26024578975953" lon="10.12146551937378"><ele>779.0</ele><time>2026-05-02T08:01:39.999Z</time></trkpt><trkpt lat="46.26033122136863" lon="10.121329203063345"><ele>779.0</ele><time>2026-05-02T08:01:40.999Z</time></trkpt><trkpt lat="46.260415204379626" lon="10.121187227890136"><ele>779.0</ele><time>2026-05-02T08:01:41.999Z</time></trkpt><trkpt lat="46.26050777597479" lon="10.12104093165177"><ele>779.0</ele><time>2026-05-02T08:01:42.999Z</time></trkpt><trkpt lat="46.260568981097244" lon="10.120897721250062"><ele>785.25</ele><time>2026-05-02T08:01:43.999Z</time></trkpt><trkpt lat="46.260659289436035" lon="10.12075367803835"><ele>791.5</ele><time>2026-05-02T08:01:44.999Z</time></trkpt><trkpt lat="46.26075500409703" lon="10.120610553224969"><ele>797.75</ele><time>2026-05-02T08:01:45.999Z</time></trkpt><trkpt lat="46.26084069540348" lon="10.120453771032537"><ele>804.0</ele><time>2026-05-02T08:01:46.999Z</time></trkpt><trkpt lat="46.260949536368074" lon="10.120319364350484"><ele>804.0</ele><time>2026-05-02T08:01:47.999Z</time></trkpt><trkpt lat="46.261037909360454" lon="10.12017611403179"><ele>804.0</ele><time>2026-05-02T08:01:48.999Z</time></trkpt><trkpt lat="46.261131117870335" lon="10.120033335982079"><ele>804.0</ele><time>2026-05-02T08:01:50Z</time></trkpt><trkpt lat="46.26122912818806" lon="10.119882265500438"><ele>804.0</ele><time>2026-05-02T08:01:51Z</time></trkpt><trkpt lat="46.26132098785684" lon="10.119716581422502"><ele>805.75</ele><time>2026-05-02T08:01:52Z</time></trkpt><trkpt lat="46.261411800411686" lon="10.119564762759426"><ele>807.5</ele><time>2026-05-02T08:01:53Z</time></trkpt><trkpt lat="46.261513015759576" lon="10.119405218021244"><ele>809.25</ele><time>2026-05-02T08:01:54Z</time></trkpt><trkpt lat="46.261623685696264" lon="10.119255357012275"><ele>811.0</ele><time>2026-05-02T08:01:55Z</time></trkpt><trkpt lat="46.26173486494109" lon="10.119110903450665"><ele>809.0</ele><time>2026-05-02T08:01:56Z</time></trkpt><trkpt lat="46.26185601060103" lon="10.118988287936846"><ele>807.0</ele><time>2026-05-02T08:01:57Z</time></trkpt><trkpt lat="46.26197881324134" lon="10.118865089626919"><ele>805.0</ele><time>2026-05-02T08:01:58Z</time></trkpt><trkpt lat="46.26210010954186" lon="10.118748383467667"><ele>803.0</ele><time>2026-05-02T08:01:59Z</time></trkpt><trkpt lat="46.262220910581455" lon="10.118635713743213"><ele>808.25</ele><time>2026-05-02T08:02:00Z</time></trkpt><trkpt lat="46.262342958003984" lon="10.118527008222616"><ele>813.5</ele><time>2026-05-02T08:02:01Z</time></trkpt><trkpt lat="46.26245295496992" lon="10.118438190996967"><ele>818.75</ele><time>2026-05-02T08:02:02Z</time></trkpt><trkpt lat="46.262538917050165" lon="10.118361921107766"><ele>824.0</ele><time>2026-05-02T08:02:03Z</time></trkpt><trkpt lat="46.262622134642506" lon="10.118287734578567"><ele>821.6</ele><time>2026-05-02T08:02:04Z</time></trkpt><trkpt lat="46.262697440865935" lon="10.11821904448966"><ele>819.2</ele><time>2026-05-02T08:02:05Z</time></trkpt><trkpt lat="46.26277589605693" lon="10.118135472266221"><ele>816.8000000000001</ele><time>2026-05-02T08:02:06Z</time></trkpt><trkpt lat="46.2628686545985" lon="10.118050961105657"><ele>814.4000000000001</ele><time>2026-05-02T08:02:07Z</time></trkpt><trkpt lat="46.262971233529015" lon="10.11797137700776"><ele>812.0</ele><time>2026-05-02T08:02:08Z</time></trkpt><trkpt lat="46.26307764281545" lon="10.11789134943535"><ele>816.75</ele><time>2026-05-02T08:02:09Z</time></trkpt><trkpt lat="46.26317657479009" lon="10.117801654250677"><ele>821.5</ele><time>2026-05-02T08:02:10Z</time></trkpt><trkpt lat="46.26329416003461" lon="10.117708178997704"><ele>826.25</ele><time>2026-05-02T08:02:11Z</time></trkpt><trkpt lat="46.263414074241894" lon="10.117604036498106"><ele>831.0</ele><time>2026-05-02T08:02:12Z</time></trkpt><trkpt lat="46.26353111804539" lon="10.117498313885259"><ele>829.5</ele><time>2026-05-02T08:02:13Z</time></trkpt><trkpt lat="46.263657562791764" lon="10.11738815629072"><ele>828.0</ele><time>2026-05-02T08:02:14Z</time></trkpt><trkpt lat="46.26379439189519" lon="10.11727244332827"><ele>826.5</ele><time>2026-05-02T08:02:15Z</time></trkpt><trkpt lat="46.263920536046705" lon="10.117193444311948"><ele>825.0</ele><time>2026-05-02T08:02:16Z</time></trkpt><trkpt lat="46.264049436993105" lon="10.117122062315515"><ele>829.0</ele><time>2026-05-02T08:02:17Z</time></trkpt><trkpt lat="46.264177241209936" lon="10.117033066840227"><ele>833.0</ele><time>2026-05-02T08:02:18Z</time></trkpt><trkpt lat="46.26438697703503" lon="10.116863151295904"><ele>837.0</ele><time>2026-05-02T08:02:19Z</time></trkpt><trkpt lat="46.26457512111345" lon="10.116789846988212"><ele>837.0</ele><time>2026-05-02T08:02:20Z</time></trkpt><trkpt lat="46.26476312039716" lon="10.116729217989878"><ele>837.0</ele><time>2026-05-02T08:02:21Z</time></trkpt><trkpt lat="46.26496700490648" lon="10.116666489251703"><ele>837.0</ele><time>2026-05-02T08:02:22Z</time></trkpt><trkpt lat="46.26514686840772" lon="10.11660485098556"><ele>842.6666666666667</ele><time>2026-05-02T08:02:23Z</time></trkpt><trkpt lat="46.26531475611664" lon="10.116539924085796"><ele>848.3333333333334</ele><time>2026-05-02T08:02:24Z</time></trkpt><trkpt lat="46.26547876174738" lon="10.116459325892295"><ele>854.0</ele><time>2026-05-02T08:02:25Z</time></trkpt><trkpt lat="46.265632217652545" lon="10.116382832686842"><ele>855.3333333333334</ele><time>2026-05-02T08:02:26Z</time></trkpt><trkpt lat="46.265806019598884" lon="10.116271858596342"><ele>856.6666666666667</ele><time>2026-05-02T08:02:27Z</time></trkpt><trkpt lat="46.26597843429319" lon="10.116170734490053"><ele>858.0</ele><time>2026-05-02T08:02:28Z</time></trkpt><trkpt lat="46.266152261750335" lon="10.116049385092646"><ele>858.0</ele><time>2026-05-02T08:02:29Z</time></trkpt><trkpt lat="46.266309730501895" lon="10.115918640336112"><ele>858.0</ele><time>2026-05-02T08:02:30Z</time></trkpt><trkpt lat="46.26648691201731" lon="10.11577394064279"><ele>858.0</ele><time>2026-05-02T08:02:31Z</time></trkpt><trkpt lat="46.26664958749701" lon="10.115593492143674"><ele>859.6666666666667</ele><time>2026-05-02T08:02:32Z</time></trkpt><trkpt lat="46.26679318784202" lon="10.1154843716858"><ele>861.3333333333334</ele><time>2026-05-02T08:02:33Z</time></trkpt><trkpt lat="46.26696571022896" lon="10.115352465526126"><ele>863.0</ele><time>2026-05-02T08:02:34Z</time></trkpt><trkpt lat="46.267141008913896" lon="10.115235892555644"><ele>868.0</ele><time>2026-05-02T08:02:35Z</time></trkpt><trkpt lat="46.267321617848765" lon="10.115115912357817"><ele>873.0</ele><time>2026-05-02T08:02:36Z</time></trkpt><trkpt lat="46.26748378016853" lon="10.114976891149825"><ele>878.0</ele><time>2026-05-02T08:02:37Z</time></trkpt><trkpt lat="46.26765320230606" lon="10.114793194905895"><ele>878.0</ele><time>2026-05-02T08:02:38Z</time></trkpt><trkpt lat="46.26781285058858" lon="10.11459051473372"><ele>878.0</ele><time>2026-05-02T08:02:39Z</time></trkpt><trkpt lat="46.267969721738126" lon="10.114371470682745"><ele>878.0</ele><time>2026-05-02T08:02:40Z</time></trkpt><trkpt lat="46.26810470294798" lon="10.114120885393385"><ele>881.6666666666667</ele><time>2026-05-02T08:02:41Z</time></trkpt><trkpt lat="46.26825510005674" lon="10.11388033646986"><ele>885.3333333333333</ele><time>2026-05-02T08:02:42Z</time></trkpt><trkpt lat="46.26841109878942" lon="10.113647692922243"><ele>889.0</ele><time>2026-05-02T08:02:43Z</time></trkpt><trkpt lat="46.268567986346554" lon="10.113400577527386"><ele>889.0</ele><time>2026-05-02T08:02:44Z</time></trkpt><trkpt lat="46.268722244643904" lon="10.11315685997569"><ele>889.0</ele><time>2026-05-02T08:02:45Z</time></trkpt><trkpt lat="46.26887222167691" lon="10.1129328692735"><ele>889.0</ele><time>2026-05-02T08:02:46Z</time></trkpt><trkpt lat="46.269001269953115" lon="10.112700650291949"><ele>893.6666666666666</ele><time>2026-05-02T08:02:47Z</time></trkpt><trkpt lat="46.269130632467586" lon="10.112463640557824"><ele>898.3333333333333</ele><time>2026-05-02T08:02:47.999Z</time></trkpt><trkpt lat="46.26924652844868" lon="10.112207294958536"><ele>903.0</ele><time>2026-05-02T08:02:48.999Z</time></trkpt><trkpt lat="46.26936256287504" lon="10.111949876858988"><ele>903.0</ele><time>2026-05-02T08:02:49.999Z</time></trkpt><trkpt lat="46.269466205518796" lon="10.111693149861159"><ele>903.0</ele><time>2026-05-02T08:02:50.999Z</time></trkpt><trkpt lat="46.26957205021197" lon="10.11143236355224"><ele>903.0</ele><time>2026-05-02T08:02:51.999Z</time></trkpt><trkpt lat="46.269683193021734" lon="10.111175280114344"><ele>908.0</ele><time>2026-05-02T08:02:52.999Z</time></trkpt><trkpt lat="46.26980229559493" lon="10.110933795134063"><ele>913.0</ele><time>2026-05-02T08:02:53.999Z</time></trkpt><trkpt lat="46.26993299703453" lon="10.110731260235733"><ele>918.0</ele><time>2026-05-02T08:02:54.999Z</time></trkpt><trkpt lat="46.27006733379228" lon="10.110525128405694"><ele>918.0</ele><time>2026-05-02T08:02:55.999Z</time></trkpt><trkpt lat="46.27018649721807" lon="10.110310235395234"><ele>918.0</ele><time>2026-05-02T08:02:56.999Z</time></trkpt><trkpt lat="46.27029023415632" lon="10.11009012499648"><ele>918.0</ele><time>2026-05-02T08:02:57.999Z</time></trkpt><trkpt lat="46.27040180780339" lon="10.109879024296138"><ele>922.0</ele><time>2026-05-02T08:02:58.999Z</time></trkpt><trkpt lat="46.270537509735604" lon="10.10968632692997"><ele>926.0</ele><time>2026-05-02T08:02:59.999Z</time></trkpt><trkpt lat="46.27069276352533" lon="10.109500830593008"><ele>930.0</ele><time>2026-05-02T08:03:00.999Z</time></trkpt><trkpt lat="46.27084051948931" lon="10.109322405897522"><ele>931.3333333333333</ele><time>2026-05-02T08:03:01.999Z</time></trkpt><trkpt lat="46.27097429236881" lon="10.109112444431133"><ele>932.6666666666666</ele><time>2026-05-02T08:03:02.999Z</time></trkpt><trkpt lat="46.27107946241398" lon="10.108870376852318"><ele>934.0</ele><time>2026-05-02T08:03:03.999Z</time></trkpt><trkpt lat="46.27115222335522" lon="10.108598337338961"><ele>934.3333333333333</ele><time>2026-05-02T08:03:04.999Z</time></trkpt><trkpt lat="46.271203006355975" lon="10.108311293411745"><ele>934.6666666666667</ele><time>2026-05-02T08:03:05.999Z</time></trkpt><trkpt lat="46.27123954439716" lon="10.108009378193815"><ele>935.0</ele><time>2026-05-02T08:03:06.999Z</time></trkpt><trkpt lat="46.27129868996644" lon="10.107704608440331"><ele>951.5</ele><time>2026-05-02T08:03:07.999Z</time></trkpt><trkpt lat="46.27136974384092" lon="10.107346446150158"><ele>968.0</ele><time>2026-05-02T08:03:08.999Z</time></trkpt><trkpt lat="46.27141432347057" lon="10.10696794705448"><ele>968.0</ele><time>2026-05-02T08:03:09.999Z</time></trkpt><trkpt lat="46.27142493261579" lon="10.106628950694214"><ele>968.0</ele><time>2026-05-02T08:03:10.999Z</time></trkpt><trkpt lat="46.27143309911118" lon="10.106464547068803"><ele>968.0</ele><time>2026-05-02T08:03:11.999Z</time></trkpt><trkpt lat="46.27140858456479" lon="10.10619651280955"><ele>971.6666666666667</ele><time>2026-05-02T08:03:12.999Z</time></trkpt><trkpt lat="46.27139713914702" lon="10.10588732591584"><ele>975.3333333333333</ele><time>2026-05-02T08:03:13.999Z</time></trkpt><trkpt lat="46.27137038627873" lon="10.105573281019916"><ele>979.0</ele><time>2026-05-02T08:03:14.999Z</time></trkpt><trkpt lat="46.27136707832839" lon="10.10531281109003"><ele>983.6666666666666</ele><time>2026-05-02T08:03:15.999Z</time></trkpt><trkpt lat="46.27136446542116" lon="10.105065016390279"><ele>988.3333333333333</ele><time>2026-05-02T08:03:16.999Z</time></trkpt><trkpt lat="46.271386879249" lon="10.104834014525814"><ele>993.0</ele><time>2026-05-02T08:03:17.999Z</time></trkpt><trkpt lat="46.271420158196804" lon="10.10460693860578"><ele>992.0</ele><time>2026-05-02T08:03:18.999Z</time></trkpt><trkpt lat="46.27148320383918" lon="10.104351257547561"><ele>991.0</ele><time>2026-05-02T08:03:19.999Z</time></trkpt><trkpt lat="46.27158719863108" lon="10.104155466000936"><ele>990.0</ele><time>2026-05-02T08:03:20.999Z</time></trkpt><trkpt lat="46.27170973650818" lon="10.103975790108208"><ele>990.0</ele><time>2026-05-02T08:03:21.999Z</time></trkpt><trkpt lat="46.27186443753822" lon="10.103832690234658"><ele>990.0</ele><time>2026-05-02T08:03:22.999Z</time></trkpt><trkpt lat="46.272027833614835" lon="10.10371454043444"><ele>990.0</ele><time>2026-05-02T08:03:23.999Z</time></trkpt><trkpt lat="46.27216957088268" lon="10.103593232856124"><ele>985.6666666666667</ele><time>2026-05-02T08:03:24.999Z</time></trkpt><trkpt lat="46.27230422459247" lon="10.103432631582457"><ele>981.3333333333334</ele><time>2026-05-02T08:03:25.999Z</time></trkpt><trkpt lat="46.2724350015339" lon="10.10324229046104"><ele>977.0</ele><time>2026-05-02T08:03:26.999Z</time></trkpt><trkpt lat="46.27255467062042" lon="10.103029834024849"><ele>977.0</ele><time>2026-05-02T08:03:27.999Z</time></trkpt><trkpt lat="46.27265263344946" lon="10.10279766118025"><ele>977.0</ele><time>2026-05-02T08:03:28.999Z</time></trkpt><trkpt lat="46.27272706079208" lon="10.102562718766848"><ele>977.0</ele><time>2026-05-02T08:03:29.999Z</time></trkpt><trkpt lat="46.272752411215066" lon="10.102335845996341"><ele>978.5</ele><time>2026-05-02T08:03:30.999Z</time></trkpt><trkpt lat="46.27279791119414" lon="10.102128418443098"><ele>980.0</ele><time>2026-05-02T08:03:31.999Z</time></trkpt><trkpt lat="46.27283394745154" lon="10.101923255979054"><ele>981.5</ele><time>2026-05-02T08:03:32.999Z</time></trkpt><trkpt lat="46.27286589090512" lon="10.10171369564508"><ele>983.0</ele><time>2026-05-02T08:03:33.999Z</time></trkpt><trkpt lat="46.2728935798542" lon="10.101499451250808"><ele>983.0</ele><time>2026-05-02T08:03:34.999Z</time></trkpt><trkpt lat="46.272910907861736" lon="10.101285978598261"><ele>983.0</ele><time>2026-05-02T08:03:35.999Z</time></trkpt><trkpt lat="46.272904838012714" lon="10.101063255662991"><ele>983.0</ele><time>2026-05-02T08:03:36.999Z</time></trkpt><trkpt lat="46.2729027766132" lon="10.100841087083213"><ele>982.0</ele><time>2026-05-02T08:03:37.999Z</time></trkpt><trkpt lat="46.27289231967388" lon="10.100616567459321"><ele>981.0</ele><time>2026-05-02T08:03:38.999Z</time></trkpt><trkpt lat="46.27287628412262" lon="10.100385360921901"><ele>980.0</ele><time>2026-05-02T08:03:39.999Z</time></trkpt><trkpt lat="46.27285702364019" lon="10.100154489388695"><ele>980.0</ele><time>2026-05-02T08:03:40.999Z</time></trkpt><trkpt lat="46.272828052929256" lon="10.099919635366515"><ele>980.0</ele><time>2026-05-02T08:03:41.999Z</time></trkpt><trkpt lat="46.272800639742684" lon="10.099701465397436"><ele>980.0</ele><time>2026-05-02T08:03:42.999Z</time></trkpt><trkpt lat="46.2727702247309" lon="10.099472233124937"><ele>978.6666666666667</ele><time>2026-05-02T08:03:43.999Z</time></trkpt><trkpt lat="46.272744548539414" lon="10.099247206882307"><ele>977.3333333333333</ele><time>2026-05-02T08:03:44.999Z</time></trkpt><trkpt lat="46.27271720200281" lon="10.099021655014662"><ele>976.0</ele><time>2026-05-02T08:03:45.999Z</time></trkpt><trkpt lat="46.272691363347896" lon="10.098802502892315"><ele>976.0</ele><time>2026-05-02T08:03:46.999Z</time></trkpt><trkpt lat="46.27267815741063" lon="10.09858129915914"><ele>976.0</ele><time>2026-05-02T08:03:47.999Z</time></trkpt><trkpt lat="46.27268520260071" lon="10.09835754535221"><ele>976.0</ele><time>2026-05-02T08:03:48.999Z</time></trkpt><trkpt lat="46.272725394680094" lon="10.098133893865082"><ele>981.0</ele><time>2026-05-02T08:03:49.999Z</time></trkpt><trkpt lat="46.272784203738745" lon="10.097917157746206"><ele>986.0</ele><time>2026-05-02T08:03:50.999Z</time></trkpt><trkpt lat="46.27288031765533" lon="10.097731054411483"><ele>991.0</ele><time>2026-05-02T08:03:51.999Z</time></trkpt><trkpt lat="46.27297877834412" lon="10.097541217934223"><ele>988.0</ele><time>2026-05-02T08:03:52.999Z</time></trkpt><trkpt lat="46.27306859266475" lon="10.09735088881903"><ele>985.0</ele><time>2026-05-02T08:03:53.999Z</time></trkpt><trkpt lat="46.2731682421826" lon="10.097167878088214"><ele>982.0</ele><time>2026-05-02T08:03:54.999Z</time></trkpt><trkpt lat="46.27326012810243" lon="10.096993819751631"><ele>982.0</ele><time>2026-05-02T08:03:56Z</time></trkpt><trkpt lat="46.27335169310041" lon="10.096814765675992"><ele>982.0</ele><time>2026-05-02T08:03:57Z</time></trkpt><trkpt lat="46.2734400852402" lon="10.096628090891823"><ele>982.0</ele><time>2026-05-02T08:03:58Z</time></trkpt><trkpt lat="46.2735306323565" lon="10.096436874622897"><ele>990.3333333333333</ele><time>2026-05-02T08:03:59Z</time></trkpt><trkpt lat="46.27361349224682" lon="10.096227637844622"><ele>998.6666666666667</ele><time>2026-05-02T08:04:00Z</time></trkpt><trkpt lat="46.273697791552124" lon="10.096006886122384"><ele>1007.0</ele><time>2026-05-02T08:04:01Z</time></trkpt><trkpt lat="46.27378495422874" lon="10.095775661698644"><ele>1014.0</ele><time>2026-05-02T08:04:02Z</time></trkpt><trkpt lat="46.273869610627536" lon="10.095534172868307"><ele>1021.0</ele><time>2026-05-02T08:04:03Z</time></trkpt><trkpt lat="46.27394977589236" lon="10.095286275125272"><ele>1028.0</ele><time>2026-05-02T08:04:04Z</time></trkpt><trkpt lat="46.27402245942184" lon="10.095022771933813"><ele>1017.3333333333334</ele><time>2026-05-02T08:04:05Z</time></trkpt><trkpt lat="46.27411148144792" lon="10.09475895451849"><ele>1006.6666666666667</ele><time>2026-05-02T08:04:06Z</time></trkpt><trkpt lat="46.27419817905159" lon="10.094505840331873"><ele>996.0</ele><time>2026-05-02T08:04:07Z</time></trkpt><trkpt lat="46.27426054347521" lon="10.094287926800057"><ele>1002.0</ele><time>2026-05-02T08:04:08Z</time></trkpt><trkpt lat="46.27434268920771" lon="10.094033569341349"><ele>1008.0</ele><time>2026-05-02T08:04:09Z</time></trkpt><trkpt lat="46.27442472066724" lon="10.093790302792273"><ele>1014.0</ele><time>2026-05-02T08:04:10Z</time></trkpt><trkpt lat="46.2745040772773" lon="10.09354574692151"><ele>1014.0</ele><time>2026-05-02T08:04:11Z</time></trkpt><trkpt lat="46.27458491659922" lon="10.093305023181337"><ele>1014.0</ele><time>2026-05-02T08:04:12Z</time></trkpt><trkpt lat="46.27467267959546" lon="10.093084915536819"><ele>1014.0</ele><time>2026-05-02T08:04:13Z</time></trkpt><trkpt lat="46.27479367961262" lon="10.092895600461048"><ele>1000.6666666666667</ele><time>2026-05-02T08:04:14Z</time></trkpt><trkpt lat="46.27493532037774" lon="10.092748723307603"><ele>987.3333333333334</ele><time>2026-05-02T08:04:15Z</time></trkpt><trkpt lat="46.27508067160694" lon="10.092654975053732"><ele>974.0</ele><time>2026-05-02T08:04:16Z</time></trkpt><trkpt lat="46.27523750457226" lon="10.092571561660277"><ele>974.0</ele><time>2026-05-02T08:04:17Z</time></trkpt><trkpt lat="46.27540167156932" lon="10.09248481201499"><ele>974.0</ele><time>2026-05-02T08:04:18Z</time></trkpt><trkpt lat="46.27554314018674" lon="10.092393272079821"><ele>974.0</ele><time>2026-05-02T08:04:19Z</time></trkpt><trkpt lat="46.27567252582763" lon="10.09227585317475"><ele>974.3333333333334</ele><time>2026-05-02T08:04:20Z</time></trkpt><trkpt lat="46.27580409705977" lon="10.09215369703921"><ele>974.6666666666667</ele><time>2026-05-02T08:04:21Z</time></trkpt><trkpt lat="46.27592046757748" lon="10.091988474756535"><ele>975.0</ele><time>2026-05-02T08:04:22Z</time></trkpt><trkpt lat="46.27601703140174" lon="10.091786776497607"><ele>978.0</ele><time>2026-05-02T08:04:23Z</time></trkpt><trkpt lat="46.27609018180197" lon="10.091571422773267"><ele>981.0</ele><time>2026-05-02T08:04:24Z</time></trkpt><trkpt lat="46.276131994805624" lon="10.091348512868715"><ele>984.0</ele><time>2026-05-02T08:04:25Z</time></trkpt><trkpt lat="46.27615136507131" lon="10.091123750496967"><ele>984.0</ele><time>2026-05-02T08:04:26Z</time></trkpt><trkpt lat="46.27616159752632" lon="10.090897996902829"><ele>984.0</ele><time>2026-05-02T08:04:27Z</time></trkpt><trkpt lat="46.2761848957878" lon="10.09068175225074"><ele>984.0</ele><time>2026-05-02T08:04:28Z</time></trkpt><trkpt lat="46.276199741780246" lon="10.090479820232515"><ele>984.0</ele><time>2026-05-02T08:04:29Z</time></trkpt><trkpt lat="46.27622632492159" lon="10.090260674500268"><ele>993.0</ele><time>2026-05-02T08:04:30Z</time></trkpt><trkpt lat="46.276277492102864" lon="10.090047231663643"><ele>1002.0</ele><time>2026-05-02T08:04:31Z</time></trkpt><trkpt lat="46.2763567030177" lon="10.08984782993652"><ele>1011.0</ele><time>2026-05-02T08:04:32Z</time></trkpt><trkpt lat="46.276479218528394" lon="10.089689937708599"><ele>1015.6666666666667</ele><time>2026-05-02T08:04:33Z</time></trkpt><trkpt lat="46.27661111095741" lon="10.089517647592059"><ele>1020.3333333333334</ele><time>2026-05-02T08:04:34Z</time></trkpt><trkpt lat="46.27674818396499" lon="10.089387533123446"><ele>1025.0</ele><time>2026-05-02T08:04:35Z</time></trkpt><trkpt lat="46.276897529981404" lon="10.089296014395767"><ele>1025.0</ele><time>2026-05-02T08:04:36Z</time></trkpt><trkpt lat="46.27704749844591" lon="10.089184597300596"><ele>1025.0</ele><time>2026-05-02T08:04:37Z</time></trkpt><trkpt lat="46.27720177288978" lon="10.08907124214594"><ele>1025.0</ele><time>2026-05-02T08:04:38Z</time></trkpt><trkpt lat="46.27735544007992" lon="10.088923988077152"><ele>1020.6666666666667</ele><time>2026-05-02T08:04:39Z</time></trkpt><trkpt lat="46.27749677433111" lon="10.08878485426519"><ele>1016.3333333333333</ele><time>2026-05-02T08:04:40Z</time></trkpt><trkpt lat="46.27762748263635" lon="10.088621231401467"><ele>1012.0</ele><time>2026-05-02T08:04:41Z</time></trkpt><trkpt lat="46.277742716173094" lon="10.08843902305427"><ele>1012.0</ele><time>2026-05-02T08:04:42Z</time></trkpt><trkpt lat="46.27787189830135" lon="10.088309510583445"><ele>1012.0</ele><time>2026-05-02T08:04:43Z</time></trkpt><trkpt lat="46.278003017312" lon="10.088209421013659"><ele>1012.0</ele><time>2026-05-02T08:04:44Z</time></trkpt><trkpt lat="46.2781459997488" lon="10.088118543171484"><ele>1010.0</ele><time>2026-05-02T08:04:45Z</time></trkpt><trkpt lat="46.278289865499694" lon="10.088040083546444"><ele>1008.0</ele><time>2026-05-02T08:04:46Z</time></trkpt><trkpt lat="46.27842744792523" lon="10.08794434922804"><ele>1006.0</ele><time>2026-05-02T08:04:47Z</time></trkpt><trkpt lat="46.27855855385135" lon="10.087798099923491"><ele>1006.0</ele><time>2026-05-02T08:04:48Z</time></trkpt><trkpt lat="46.27868305187619" lon="10.087640415001927"><ele>1006.0</ele><time>2026-05-02T08:04:49Z</time></trkpt><trkpt lat="46.2787675150008" lon="10.087456825108431"><ele>1006.0</ele><time>2026-05-02T08:04:50Z</time></trkpt><trkpt lat="46.27884097010566" lon="10.087248728022603"><ele>1000.0</ele><time>2026-05-02T08:04:51Z</time></trkpt><trkpt lat="46.27890061334654" lon="10.087026968590944"><ele>994.0</ele><time>2026-05-02T08:04:52Z</time></trkpt><trkpt lat="46.27895363462069" lon="10.086814230151344"><ele>988.0</ele><time>2026-05-02T08:04:53Z</time></trkpt><trkpt lat="46.27902243362475" lon="10.08662539942905"><ele>1001.6666666666666</ele><time>2026-05-02T08:04:54Z</time></trkpt><trkpt lat="46.27914781390106" lon="10.086470040142363"><ele>1015.3333333333333</ele><time>2026-05-02T08:04:55Z</time></trkpt><trkpt lat="46.2792862930947" lon="10.086316451249527"><ele>1029.0</ele><time>2026-05-02T08:04:56Z</time></trkpt><trkpt lat="46.27943545622564" lon="10.086156452854066"><ele>1029.0</ele><time>2026-05-02T08:04:56.999Z</time></trkpt><trkpt lat="46.27959570319769" lon="10.085983970594206"><ele>1029.0</ele><time>2026-05-02T08:04:57.999Z</time></trkpt><trkpt lat="46.27976165508901" lon="10.085777360475443"><ele>1029.0</ele><time>2026-05-02T08:04:58.999Z</time></trkpt><trkpt lat="46.279921191001264" lon="10.085628063687222"><ele>1030.0</ele><time>2026-05-02T08:04:59.999Z</time></trkpt><trkpt lat="46.280081320889074" lon="10.085464923797357"><ele>1031.0</ele><time>2026-05-02T08:05:00.999Z</time></trkpt><trkpt lat="46.280346652006244" lon="10.085173467456215"><ele>1031.0</ele><time>2026-05-02T08:05:01.999Z</time></trkpt><trkpt lat="46.280546210791556" lon="10.08497148047441"><ele>1031.0</ele><time>2026-05-02T08:05:02.999Z</time></trkpt><trkpt lat="46.28074092989118" lon="10.08478623715227"><ele>1030.0</ele><time>2026-05-02T08:05:03.999Z</time></trkpt><trkpt lat="46.280930207301424" lon="10.084642797224804"><ele>1029.0</ele><time>2026-05-02T08:05:04.999Z</time></trkpt><trkpt lat="46.28113686271711" lon="10.084526696948394"><ele>1028.0</ele><time>2026-05-02T08:05:05.999Z</time></trkpt><trkpt lat="46.28132614049643" lon="10.084401402665833"><ele>1033.3333333333335</ele><time>2026-05-02T08:05:06.999Z</time></trkpt><trkpt lat="46.28152571310304" lon="10.08428242673913"><ele>1038.6666666666667</ele><time>2026-05-02T08:05:07.999Z</time></trkpt><trkpt lat="46.28173965251459" lon="10.084162007151157"><ele>1044.0</ele><time>2026-05-02T08:05:08.999Z</time></trkpt><trkpt lat="46.281944284906594" lon="10.084041365461811"><ele>1044.0</ele><time>2026-05-02T08:05:09.999Z</time></trkpt><trkpt lat="46.282125681518494" lon="10.083901639263702"><ele>1044.0</ele><time>2026-05-02T08:05:10.999Z</time></trkpt><trkpt lat="46.28228257315803" lon="10.083732595293752"><ele>1044.0</ele><time>2026-05-02T08:05:11.999Z</time></trkpt><trkpt lat="46.28242458917828" lon="10.083529076009498"><ele>1045.0</ele><time>2026-05-02T08:05:12.999Z</time></trkpt><trkpt lat="46.28252592593403" lon="10.083273235133694"><ele>1046.0</ele><time>2026-05-02T08:05:13.999Z</time></trkpt><trkpt lat="46.28264091672608" lon="10.083017132218734"><ele>1047.0</ele><time>2026-05-02T08:05:14.999Z</time></trkpt><trkpt lat="46.282763958432284" lon="10.082798346654593"><ele>1047.0</ele><time>2026-05-02T08:05:15.999Z</time></trkpt><trkpt lat="46.2828760570856" lon="10.082663941196898"><ele>1047.0</ele><time>2026-05-02T08:05:16.999Z</time></trkpt><trkpt lat="46.28298509181221" lon="10.082536202339087"><ele>1047.0</ele><time>2026-05-02T08:05:17.999Z</time></trkpt><trkpt lat="46.283059455335376" lon="10.082448397527449"><ele>1047.0</ele><time>2026-05-02T08:05:18.999Z</time></trkpt><trkpt lat="46.28351247880932" lon="10.082085892082453"><ele>1033.0</ele><time>2026-05-02T08:05:19.999Z</time></trkpt><trkpt lat="46.28371937717357" lon="10.081949862097913"><ele>1019.0</ele><time>2026-05-02T08:05:20.999Z</time></trkpt><trkpt lat="46.28392103531483" lon="10.081785970563361"><ele>1015.3333333333334</ele><time>2026-05-02T08:05:21.999Z</time></trkpt><trkpt lat="46.284112897086494" lon="10.081633283978805"><ele>1011.6666666666667</ele><time>2026-05-02T08:05:22.999Z</time></trkpt><trkpt lat="46.28427666876708" lon="10.081442687744321"><ele>1008.0</ele><time>2026-05-02T08:05:23.999Z</time></trkpt><trkpt lat="46.2844292671825" lon="10.08126855273358"><ele>1008.0</ele><time>2026-05-02T08:05:24.999Z</time></trkpt><trkpt lat="46.28461024442885" lon="10.081193525827922"><ele>1008.0</ele><time>2026-05-02T08:05:25.999Z</time></trkpt><trkpt lat="46.28478967562138" lon="10.081155698105414"><ele>1008.0</ele><time>2026-05-02T08:05:26.999Z</time></trkpt><trkpt lat="46.28498442296788" lon="10.081163081217245"><ele>997.6666666666667</ele><time>2026-05-02T08:05:27.999Z</time></trkpt><trkpt lat="46.285187749670385" lon="10.081182775901643"><ele>987.3333333333334</ele><time>2026-05-02T08:05:28.999Z</time></trkpt><trkpt lat="46.28538389066478" lon="10.081181797834418"><ele>977.0</ele><time>2026-05-02T08:05:29.999Z</time></trkpt><trkpt lat="46.28555723388845" lon="10.081123586987962"><ele>973.6666666666667</ele><time>2026-05-02T08:05:30.999Z</time></trkpt><trkpt lat="46.28573692968201" lon="10.08106027465885"><ele>970.3333333333333</ele><time>2026-05-02T08:05:31.999Z</time></trkpt><trkpt lat="46.28592487116579" lon="10.080951608307833"><ele>967.0</ele><time>2026-05-02T08:05:32.999Z</time></trkpt><trkpt lat="46.28610598836278" lon="10.080803376678144"><ele>969.0</ele><time>2026-05-02T08:05:33.999Z</time></trkpt><trkpt lat="46.28627533762011" lon="10.08064275415165"><ele>971.0</ele><time>2026-05-02T08:05:34.999Z</time></trkpt><trkpt lat="46.286450637553244" lon="10.08048469796429"><ele>973.0</ele><time>2026-05-02T08:05:35.999Z</time></trkpt><trkpt lat="46.28662091631631" lon="10.08034770443121"><ele>973.0</ele><time>2026-05-02T08:05:36.999Z</time></trkpt><trkpt lat="46.28678273074216" lon="10.080219535905465"><ele>973.0</ele><time>2026-05-02T08:05:37.999Z</time></trkpt><trkpt lat="46.28694505767796" lon="10.080094615858522"><ele>973.0</ele><time>2026-05-02T08:05:38.999Z</time></trkpt><trkpt lat="46.28709539686093" lon="10.07998645878864"><ele>973.25</ele><time>2026-05-02T08:05:39.999Z</time></trkpt><trkpt lat="46.28723745348491" lon="10.079890525826595"><ele>973.5</ele><time>2026-05-02T08:05:40.999Z</time></trkpt><trkpt lat="46.28736893812444" lon="10.079799900445373"><ele>973.75</ele><time>2026-05-02T08:05:41.999Z</time></trkpt><trkpt lat="46.28749587068579" lon="10.079716497247249"><ele>974.0</ele><time>2026-05-02T08:05:42.999Z</time></trkpt><trkpt lat="46.28765070562961" lon="10.079655204958978"><ele>974.0</ele><time>2026-05-02T08:05:43.999Z</time></trkpt><trkpt lat="46.28775341184409" lon="10.079562444297087"><ele>974.0</ele><time>2026-05-02T08:05:44.999Z</time></trkpt><trkpt lat="46.28787115502709" lon="10.07947519841427"><ele>974.0</ele><time>2026-05-02T08:05:45.999Z</time></trkpt><trkpt lat="46.28797550924021" lon="10.07937921658503"><ele>974.0</ele><time>2026-05-02T08:05:46.999Z</time></trkpt><trkpt lat="46.28806236458133" lon="10.07925046655898"><ele>973.25</ele><time>2026-05-02T08:05:47.999Z</time></trkpt><trkpt lat="46.28815075295472" lon="10.079107738263497"><ele>972.5</ele><time>2026-05-02T08:05:48.999Z</time></trkpt><trkpt lat="46.28823886038081" lon="10.07895809568866"><ele>971.75</ele><time>2026-05-02T08:05:49.999Z</time></trkpt><trkpt lat="46.28832942239096" lon="10.07881215791777"><ele>971.0</ele><time>2026-05-02T08:05:50.999Z</time></trkpt><trkpt lat="46.28841240477791" lon="10.078660366924664"><ele>971.0</ele><time>2026-05-02T08:05:51.999Z</time></trkpt><trkpt lat="46.288504243048855" lon="10.078512908251646"><ele>971.0</ele><time>2026-05-02T08:05:52.999Z</time></trkpt><trkpt lat="46.28861306561333" lon="10.078395333765188"><ele>971.0</ele><time>2026-05-02T08:05:53.999Z</time></trkpt><trkpt lat="46.28873973981156" lon="10.078316623440438"><ele>971.0</ele><time>2026-05-02T08:05:54.999Z</time></trkpt><trkpt lat="46.288874246727445" lon="10.078327134437464"><ele>973.75</ele><time>2026-05-02T08:05:55.999Z</time></trkpt><trkpt lat="46.289009284014256" lon="10.078338999805656"><ele>976.5</ele><time>2026-05-02T08:05:56.999Z</time></trkpt><trkpt lat="46.28914614838708" lon="10.078356643998106"><ele>979.25</ele><time>2026-05-02T08:05:57.999Z</time></trkpt><trkpt lat="46.28928024839674" lon="10.078362491848619"><ele>982.0</ele><time>2026-05-02T08:05:58.999Z</time></trkpt><trkpt lat="46.289415340651296" lon="10.07836453860721"><ele>982.0</ele><time>2026-05-02T08:05:59.999Z</time></trkpt><trkpt lat="46.28955360011458" lon="10.078347660388966"><ele>982.0</ele><time>2026-05-02T08:06:00.999Z</time></trkpt><trkpt lat="46.289690680839875" lon="10.078315911465005"><ele>982.0</ele><time>2026-05-02T08:06:02Z</time></trkpt><trkpt lat="46.289820132786154" lon="10.078293011211711"><ele>982.0</ele><time>2026-05-02T08:06:03Z</time></trkpt><trkpt lat="46.28996674330721" lon="10.078260042161114"><ele>992.6666666666666</ele><time>2026-05-02T08:06:04Z</time></trkpt><trkpt lat="46.2901402390444" lon="10.078215676522392"><ele>1003.3333333333333</ele><time>2026-05-02T08:06:05Z</time></trkpt><trkpt lat="46.29028081191787" lon="10.078194700250885"><ele>1014.0</ele><time>2026-05-02T08:06:06Z</time></trkpt><trkpt lat="46.29042352905269" lon="10.078180980026147"><ele>1014.0</ele><time>2026-05-02T08:06:07Z</time></trkpt><trkpt lat="46.2905723845906" lon="10.07816871315203"><ele>1014.0</ele><time>2026-05-02T08:06:08Z</time></trkpt><trkpt lat="46.290711037910164" lon="10.078158423618529"><ele>1014.0</ele><time>2026-05-02T08:06:09Z</time></trkpt><trkpt lat="46.290855742784416" lon="10.078141551587958"><ele>1014.0</ele><time>2026-05-02T08:06:10Z</time></trkpt><trkpt lat="46.29099464355155" lon="10.078125390089847"><ele>1009.5</ele><time>2026-05-02T08:06:11Z</time></trkpt><trkpt lat="46.29113964936062" lon="10.078119723637284"><ele>1005.0</ele><time>2026-05-02T08:06:12Z</time></trkpt><trkpt lat="46.29128920081961" lon="10.078112777609306"><ele>1000.5</ele><time>2026-05-02T08:06:13Z</time></trkpt><trkpt lat="46.29142520082023" lon="10.078106838795993"><ele>996.0</ele><time>2026-05-02T08:06:14Z</time></trkpt><trkpt lat="46.29157077938363" lon="10.078089035095656"><ele>990.25</ele><time>2026-05-02T08:06:15Z</time></trkpt><trkpt lat="46.29171572143611" lon="10.078070932000427"><ele>984.5</ele><time>2026-05-02T08:06:16Z</time></trkpt><trkpt lat="46.2918612951344" lon="10.07806016674498"><ele>978.75</ele><time>2026-05-02T08:06:17Z</time></trkpt><trkpt lat="46.29201831246684" lon="10.078049175520661"><ele>973.0</ele><time>2026-05-02T08:06:18Z</time></trkpt><trkpt lat="46.29217010288228" lon="10.078039999832841"><ele>971.0</ele><time>2026-05-02T08:06:19Z</time></trkpt><trkpt lat="46.292327811488796" lon="10.078026997236067"><ele>969.0</ele><time>2026-05-02T08:06:20Z</time></trkpt><trkpt lat="46.2924907954847" lon="10.077994060076675"><ele>967.0</ele><time>2026-05-02T08:06:21Z</time></trkpt><trkpt lat="46.29264132515897" lon="10.077963606037363"><ele>967.0</ele><time>2026-05-02T08:06:22Z</time></trkpt><trkpt lat="46.29277680639269" lon="10.077944166875437"><ele>967.0</ele><time>2026-05-02T08:06:23Z</time></trkpt><trkpt lat="46.292903190851" lon="10.077932224343277"><ele>967.0</ele><time>2026-05-02T08:06:24Z</time></trkpt><trkpt lat="46.293058035110995" lon="10.077902245941763"><ele>967.0</ele><time>2026-05-02T08:06:25Z</time></trkpt><trkpt lat="46.29318449633962" lon="10.07789804864917"><ele>966.75</ele><time>2026-05-02T08:06:26Z</time></trkpt><trkpt lat="46.29332322160266" lon="10.077879366670802"><ele>966.5</ele><time>2026-05-02T08:06:27Z</time></trkpt><trkpt lat="46.29345888826401" lon="10.077872566163835"><ele>966.25</ele><time>2026-05-02T08:06:28Z</time></trkpt><trkpt lat="46.293594222324195" lon="10.077863502457669"><ele>966.0</ele><time>2026-05-02T08:06:29Z</time></trkpt><trkpt lat="46.29373007427885" lon="10.077851997233415"><ele>966.0</ele><time>2026-05-02T08:06:30Z</time></trkpt><trkpt lat="46.29387164203429" lon="10.077838547151043"><ele>966.0</ele><time>2026-05-02T08:06:31Z</time></trkpt><trkpt lat="46.294018740070285" lon="10.077823013542268"><ele>966.0</ele><time>2026-05-02T08:06:32Z</time></trkpt><trkpt lat="46.29416726086689" lon="10.077804297301606"><ele>966.0</ele><time>2026-05-02T08:06:33Z</time></trkpt><trkpt lat="46.294307060062934" lon="10.0777935542581"><ele>966.0</ele><time>2026-05-02T08:06:34Z</time></trkpt><trkpt lat="46.29444762402065" lon="10.077775474342477"><ele>966.0</ele><time>2026-05-02T08:06:35Z</time></trkpt><trkpt lat="46.294583888651786" lon="10.077761046537258"><ele>966.0</ele><time>2026-05-02T08:06:36Z</time></trkpt><trkpt lat="46.29471645521991" lon="10.077744983052868"><ele>966.0</ele><time>2026-05-02T08:06:37Z</time></trkpt><trkpt lat="46.29483888759931" lon="10.077708838703611"><ele>966.0</ele><time>2026-05-02T08:06:38Z</time></trkpt><trkpt lat="46.29496912676597" lon="10.077650643691399"><ele>966.0</ele><time>2026-05-02T08:06:39Z</time></trkpt><trkpt lat="46.295113053647015" lon="10.077558977585998"><ele>966.0</ele><time>2026-05-02T08:06:40Z</time></trkpt><trkpt lat="46.29523703973658" lon="10.07745196864441"><ele>966.0</ele><time>2026-05-02T08:06:41Z</time></trkpt><trkpt lat="46.29536644157503" lon="10.077320799331249"><ele>966.5</ele><time>2026-05-02T08:06:42Z</time></trkpt><trkpt lat="46.295491911091126" lon="10.07718950152374"><ele>967.0</ele><time>2026-05-02T08:06:43Z</time></trkpt><trkpt lat="46.29560630121455" lon="10.077066773235982"><ele>967.5</ele><time>2026-05-02T08:06:44Z</time></trkpt><trkpt lat="46.295728863480086" lon="10.076948347563318"><ele>968.0</ele><time>2026-05-02T08:06:45Z</time></trkpt><trkpt lat="46.29584395106947" lon="10.076827611713876"><ele>968.0</ele><time>2026-05-02T08:06:46Z</time></trkpt><trkpt lat="46.29595647764886" lon="10.076711486928147"><ele>968.0</ele><time>2026-05-02T08:06:47Z</time></trkpt><trkpt lat="46.29607208878276" lon="10.076601561379848"><ele>968.0</ele><time>2026-05-02T08:06:48Z</time></trkpt><trkpt lat="46.29619045722203" lon="10.076478133073115"><ele>968.0</ele><time>2026-05-02T08:06:49Z</time></trkpt><trkpt lat="46.29630895484923" lon="10.076361824937202"><ele>967.5</ele><time>2026-05-02T08:06:50Z</time></trkpt><trkpt lat="46.296431746580126" lon="10.07624756281497"><ele>967.0</ele><time>2026-05-02T08:06:51Z</time></trkpt><trkpt lat="46.29655910654717" lon="10.076129911910057"><ele>966.5</ele><time>2026-05-02T08:06:52Z</time></trkpt><trkpt lat="46.29668619452372" lon="10.076008657686474"><ele>966.0</ele><time>2026-05-02T08:06:53Z</time></trkpt><trkpt lat="46.2968161853792" lon="10.075882271875965"><ele>967.0</ele><time>2026-05-02T08:06:54Z</time></trkpt><trkpt lat="46.29695602286161" lon="10.075750424128808"><ele>968.0</ele><time>2026-05-02T08:06:55Z</time></trkpt><trkpt lat="46.29709830423883" lon="10.075612884377586"><ele>969.0</ele><time>2026-05-02T08:06:56Z</time></trkpt><trkpt lat="46.29725031386676" lon="10.075471406741201"><ele>969.0</ele><time>2026-05-02T08:06:57Z</time></trkpt><trkpt lat="46.29739747849751" lon="10.075335260015798"><ele>969.0</ele><time>2026-05-02T08:06:58Z</time></trkpt><trkpt lat="46.29754743451441" lon="10.075198417673203"><ele>969.0</ele><time>2026-05-02T08:06:59Z</time></trkpt><trkpt lat="46.2976929831516" lon="10.075056012445984"><ele>969.3333333333333</ele><time>2026-05-02T08:07:00Z</time></trkpt><trkpt lat="46.297856070363366" lon="10.07490002125011"><ele>969.6666666666666</ele><time>2026-05-02T08:07:01Z</time></trkpt><trkpt lat="46.29802316125861" lon="10.074741637572764"><ele>970.0</ele><time>2026-05-02T08:07:02Z</time></trkpt><trkpt lat="46.29818335522717" lon="10.074594482108497"><ele>970.0</ele><time>2026-05-02T08:07:02.999Z</time></trkpt><trkpt lat="46.29832968284871" lon="10.074453122146354"><ele>970.0</ele><time>2026-05-02T08:07:03.999Z</time></trkpt><trkpt lat="46.29847195418726" lon="10.074317858056416"><ele>970.0</ele><time>2026-05-02T08:07:04.999Z</time></trkpt><trkpt lat="46.2986186210708" lon="10.074181442012401"><ele>973.0</ele><time>2026-05-02T08:07:05.999Z</time></trkpt><trkpt lat="46.29877802360815" lon="10.074032521536585"><ele>976.0</ele><time>2026-05-02T08:07:06.999Z</time></trkpt><trkpt lat="46.29893256686005" lon="10.07388608153617"><ele>979.0</ele><time>2026-05-02T08:07:07.999Z</time></trkpt><trkpt lat="46.29908764472914" lon="10.07373892025645"><ele>980.0</ele><time>2026-05-02T08:07:08.999Z</time></trkpt><trkpt lat="46.299241608296214" lon="10.073592204631165"><ele>981.0</ele><time>2026-05-02T08:07:09.999Z</time></trkpt><trkpt lat="46.29940004053773" lon="10.073439869532828"><ele>982.0</ele><time>2026-05-02T08:07:10.999Z</time></trkpt><trkpt lat="46.299559428497474" lon="10.073289509005683"><ele>987.6666666666666</ele><time>2026-05-02T08:07:11.999Z</time></trkpt><trkpt lat="46.29972357693824" lon="10.073131682332612"><ele>993.3333333333333</ele><time>2026-05-02T08:07:12.999Z</time></trkpt><trkpt lat="46.299889731924" lon="10.072976375005839"><ele>999.0</ele><time>2026-05-02T08:07:13.999Z</time></trkpt><trkpt lat="46.30005486235096" lon="10.072816579411656"><ele>999.0</ele><time>2026-05-02T08:07:14.999Z</time></trkpt><trkpt lat="46.300223873894474" lon="10.072659952801642"><ele>999.0</ele><time>2026-05-02T08:07:15.999Z</time></trkpt><trkpt lat="46.30039058266006" lon="10.072505364025433"><ele>999.0</ele><time>2026-05-02T08:07:16.999Z</time></trkpt><trkpt lat="46.300552301811024" lon="10.072350227424094"><ele>999.3333333333333</ele><time>2026-05-02T08:07:17.999Z</time></trkpt><trkpt lat="46.30071509684431" lon="10.072187183698237"><ele>999.6666666666666</ele><time>2026-05-02T08:07:18.999Z</time></trkpt><trkpt lat="46.300872035063925" lon="10.072039431832144"><ele>1000.0</ele><time>2026-05-02T08:07:19.999Z</time></trkpt><trkpt lat="46.301033364838105" lon="10.07188656645467"><ele>1000.0</ele><time>2026-05-02T08:07:20.999Z</time></trkpt><trkpt lat="46.301191427482344" lon="10.071753565396413"><ele>1000.0</ele><time>2026-05-02T08:07:21.999Z</time></trkpt><trkpt lat="46.30137963640084" lon="10.07168404763543"><ele>1000.0</ele><time>2026-05-02T08:07:22.999Z</time></trkpt><trkpt lat="46.30157356349122" lon="10.071632353066107"><ele>998.3333333333333</ele><time>2026-05-02T08:07:23.999Z</time></trkpt><trkpt lat="46.30178650343791" lon="10.071580847707436"><ele>996.6666666666667</ele><time>2026-05-02T08:07:24.999Z</time></trkpt><trkpt lat="46.30198662159365" lon="10.071528476854168"><ele>995.0</ele><time>2026-05-02T08:07:25.999Z</time></trkpt><trkpt lat="46.30219030989885" lon="10.071460006507408"><ele>992.3333333333334</ele><time>2026-05-02T08:07:26.999Z</time></trkpt><trkpt lat="46.30239483495473" lon="10.071416358347227"><ele>989.6666666666667</ele><time>2026-05-02T08:07:27.999Z</time></trkpt><trkpt lat="46.30260785116816" lon="10.071354245224862"><ele>987.0</ele><time>2026-05-02T08:07:28.999Z</time></trkpt><trkpt lat="46.30279917166303" lon="10.071308717655521"><ele>987.0</ele><time>2026-05-02T08:07:29.999Z</time></trkpt><trkpt lat="46.30299235221988" lon="10.071271449165582"><ele>987.0</ele><time>2026-05-02T08:07:30.999Z</time></trkpt><trkpt lat="46.30318494978779" lon="10.071219188555762"><ele>987.0</ele><time>2026-05-02T08:07:31.999Z</time></trkpt><trkpt lat="46.30336166231594" lon="10.07116671292685"><ele>985.3333333333333</ele><time>2026-05-02T08:07:32.999Z</time></trkpt><trkpt lat="46.30354314180311" lon="10.071084350600145"><ele>983.6666666666666</ele><time>2026-05-02T08:07:33.999Z</time></trkpt><trkpt lat="46.30369764004567" lon="10.070953813502381"><ele>982.0</ele><time>2026-05-02T08:07:34.999Z</time></trkpt><trkpt lat="46.30386390626297" lon="10.070795355987503"><ele>981.0</ele><time>2026-05-02T08:07:35.999Z</time></trkpt><trkpt lat="46.303977058914185" lon="10.070551284715583"><ele>980.0</ele><time>2026-05-02T08:07:36.999Z</time></trkpt><trkpt lat="46.30408243970742" lon="10.070312364397962"><ele>979.0</ele><time>2026-05-02T08:07:37.999Z</time></trkpt><trkpt lat="46.304173353493155" lon="10.070056777983655"><ele>981.6666666666666</ele><time>2026-05-02T08:07:38.999Z</time></trkpt><trkpt lat="46.304241198942854" lon="10.069782632371524"><ele>984.3333333333333</ele><time>2026-05-02T08:07:39.999Z</time></trkpt><trkpt lat="46.30432234000286" lon="10.069518160320508"><ele>987.0</ele><time>2026-05-02T08:07:40.999Z</time></trkpt><trkpt lat="46.304402961834754" lon="10.069276864491416"><ele>989.0</ele><time>2026-05-02T08:07:41.999Z</time></trkpt><trkpt lat="46.304474405228746" lon="10.0690503210083"><ele>991.0</ele><time>2026-05-02T08:07:42.999Z</time></trkpt><trkpt lat="46.30454685310463" lon="10.06883218161015"><ele>993.0</ele><time>2026-05-02T08:07:43.999Z</time></trkpt><trkpt lat="46.30461815873341" lon="10.068621702202792"><ele>993.0</ele><time>2026-05-02T08:07:44.999Z</time></trkpt><trkpt lat="46.304682912044065" lon="10.068420794896294"><ele>993.0</ele><time>2026-05-02T08:07:45.999Z</time></trkpt><trkpt lat="46.30474457936342" lon="10.068222998540822"><ele>993.0</ele><time>2026-05-02T08:07:46.999Z</time></trkpt><trkpt lat="46.30480597642145" lon="10.068024659056995"><ele>991.3333333333333</ele><time>2026-05-02T08:07:47.999Z</time></trkpt><trkpt lat="46.30487635940397" lon="10.067825039891648"><ele>989.6666666666666</ele><time>2026-05-02T08:07:48.999Z</time></trkpt><trkpt lat="46.30494164847869" lon="10.067628020542996"><ele>988.0</ele><time>2026-05-02T08:07:49.999Z</time></trkpt><trkpt lat="46.30501677652737" lon="10.067437903831044"><ele>988.0</ele><time>2026-05-02T08:07:50.999Z</time></trkpt><trkpt lat="46.305113245713876" lon="10.067261985739556"><ele>988.0</ele><time>2026-05-02T08:07:51.999Z</time></trkpt><trkpt lat="46.305246000216606" lon="10.067146288040284"><ele>988.0</ele><time>2026-05-02T08:07:52.999Z</time></trkpt><trkpt lat="46.30537927815076" lon="10.067029936417374"><ele>988.0</ele><time>2026-05-02T08:07:53.999Z</time></trkpt><trkpt lat="46.30551256136469" lon="10.066906472475228"><ele>988.0</ele><time>2026-05-02T08:07:54.999Z</time></trkpt><trkpt lat="46.30565350467049" lon="10.066804510662248"><ele>988.0</ele><time>2026-05-02T08:07:55.999Z</time></trkpt><trkpt lat="46.305795868596384" lon="10.066691376033457"><ele>986.3333333333333</ele><time>2026-05-02T08:07:56.999Z</time></trkpt><trkpt lat="46.30594515148201" lon="10.06657193942635"><ele>984.6666666666667</ele><time>2026-05-02T08:07:57.999Z</time></trkpt><trkpt lat="46.30609408675536" lon="10.066463870595806"><ele>983.0</ele><time>2026-05-02T08:07:58.999Z</time></trkpt><trkpt lat="46.3062369894054" lon="10.06635498304726"><ele>983.0</ele><time>2026-05-02T08:07:59.999Z</time></trkpt><trkpt lat="46.306376963961235" lon="10.066245278185814"><ele>983.0</ele><time>2026-05-02T08:08:00.999Z</time></trkpt><trkpt lat="46.30651973986858" lon="10.066128393925432"><ele>983.0</ele><time>2026-05-02T08:08:01.999Z</time></trkpt><trkpt lat="46.30667708854325" lon="10.066008432201613"><ele>982.3333333333334</ele><time>2026-05-02T08:08:02.999Z</time></trkpt><trkpt lat="46.30683479873257" lon="10.065888145115212"><ele>981.6666666666667</ele><time>2026-05-02T08:08:03.999Z</time></trkpt><trkpt lat="46.306992017275455" lon="10.065767567367098"><ele>981.0</ele><time>2026-05-02T08:08:04.999Z</time></trkpt><trkpt lat="46.30714523796818" lon="10.065650179905152"><ele>980.6666666666667</ele><time>2026-05-02T08:08:05.999Z</time></trkpt><trkpt lat="46.30730515867187" lon="10.065527610376826"><ele>980.3333333333334</ele><time>2026-05-02T08:08:06.999Z</time></trkpt><trkpt lat="46.30747251292433" lon="10.065401722815592"><ele>980.0</ele><time>2026-05-02T08:08:08Z</time></trkpt><trkpt lat="46.30763923207626" lon="10.065280063909885"><ele>980.0</ele><time>2026-05-02T08:08:09Z</time></trkpt><trkpt lat="46.30780909309424" lon="10.065158552477094"><ele>980.0</ele><time>2026-05-02T08:08:10Z</time></trkpt><trkpt lat="46.30797707323334" lon="10.065050269877458"><ele>980.0</ele><time>2026-05-02T08:08:11Z</time></trkpt><trkpt lat="46.30814916027576" lon="10.064938204797482"><ele>980.6666666666667</ele><time>2026-05-02T08:08:12Z</time></trkpt><trkpt lat="46.308315714388726" lon="10.064829636081575"><ele>981.3333333333333</ele><time>2026-05-02T08:08:13Z</time></trkpt><trkpt lat="46.30848715908499" lon="10.06472521951745"><ele>982.0</ele><time>2026-05-02T08:08:14Z</time></trkpt><trkpt lat="46.3086573765616" lon="10.06461787254365"><ele>982.0</ele><time>2026-05-02T08:08:15Z</time></trkpt><trkpt lat="46.30880402602613" lon="10.064544564119055"><ele>982.0</ele><time>2026-05-02T08:08:16Z</time></trkpt><trkpt lat="46.308981526212335" lon="10.064426446894053"><ele>982.0</ele><time>2026-05-02T08:08:17Z</time></trkpt><trkpt lat="46.309166497965705" lon="10.06430857976641"><ele>981.6666666666666</ele><time>2026-05-02T08:08:18Z</time></trkpt><trkpt lat="46.30934591957654" lon="10.064194798475025"><ele>981.3333333333333</ele><time>2026-05-02T08:08:19Z</time></trkpt><trkpt lat="46.309515448739695" lon="10.064095176541286"><ele>981.0</ele><time>2026-05-02T08:08:20Z</time></trkpt><trkpt lat="46.30967641645175" lon="10.064001864807793"><ele>982.3333333333333</ele><time>2026-05-02T08:08:21Z</time></trkpt><trkpt lat="46.309825824825545" lon="10.063916927680403"><ele>983.6666666666666</ele><time>2026-05-02T08:08:22Z</time></trkpt><trkpt lat="46.30997096581423" lon="10.0638182202699"><ele>985.0</ele><time>2026-05-02T08:08:23Z</time></trkpt><trkpt lat="46.31010636645542" lon="10.063714822380962"><ele>985.0</ele><time>2026-05-02T08:08:24Z</time></trkpt><trkpt lat="46.310262583790745" lon="10.063603422442695"><ele>985.0</ele><time>2026-05-02T08:08:25Z</time></trkpt><trkpt lat="46.31038787896165" lon="10.0635224031559"><ele>985.0</ele><time>2026-05-02T08:08:26Z</time></trkpt><trkpt lat="46.31050763159651" lon="10.063439131209543"><ele>985.0</ele><time>2026-05-02T08:08:27Z</time></trkpt><trkpt lat="46.31061830749445" lon="10.063357479824708"><ele>985.0</ele><time>2026-05-02T08:08:28Z</time></trkpt><trkpt lat="46.31072091713593" lon="10.063274552085291"><ele>985.0</ele><time>2026-05-02T08:08:29Z</time></trkpt><trkpt lat="46.31081999133636" lon="10.06320280122938"><ele>985.0</ele><time>2026-05-02T08:08:30Z</time></trkpt><trkpt lat="46.3109125652355" lon="10.063144874707715"><ele>985.0</ele><time>2026-05-02T08:08:31Z</time></trkpt><trkpt lat="46.31102348464559" lon="10.06307818046582"><ele>985.0</ele><time>2026-05-02T08:08:32Z</time></trkpt><trkpt lat="46.311146824980604" lon="10.062997088725739"><ele>985.0</ele><time>2026-05-02T08:08:33Z</time></trkpt><trkpt lat="46.3112872161173" lon="10.062912419770534"><ele>985.0</ele><time>2026-05-02T08:08:34Z</time></trkpt><trkpt lat="46.31143080062456" lon="10.062823367487605"><ele>985.0</ele><time>2026-05-02T08:08:35Z</time></trkpt><trkpt lat="46.31158100757368" lon="10.062738361581797"><ele>985.3333333333333</ele><time>2026-05-02T08:08:36Z</time></trkpt><trkpt lat="46.311737899470124" lon="10.062632728830154"><ele>985.6666666666667</ele><time>2026-05-02T08:08:37Z</time></trkpt><trkpt lat="46.31188493923115" lon="10.06254149418578"><ele>986.0</ele><time>2026-05-02T08:08:38Z</time></trkpt><trkpt lat="46.31202621052214" lon="10.062428467343217"><ele>986.6666666666667</ele><time>2026-05-02T08:08:39Z</time></trkpt><trkpt lat="46.31216841028613" lon="10.062373813556524"><ele>987.3333333333333</ele><time>2026-05-02T08:08:40Z</time></trkpt><trkpt lat="46.31231620589783" lon="10.062290525026489"><ele>988.0</ele><time>2026-05-02T08:08:41Z</time></trkpt><trkpt lat="46.312454455146" lon="10.062212789593469"><ele>989.3333333333333</ele><time>2026-05-02T08:08:42Z</time></trkpt><trkpt lat="46.31261844374681" lon="10.062119486696618"><ele>990.6666666666667</ele><time>2026-05-02T08:08:43Z</time></trkpt><trkpt lat="46.31278142984333" lon="10.062015193076776"><ele>992.0</ele><time>2026-05-02T08:08:44Z</time></trkpt><trkpt lat="46.312925702397514" lon="10.06192143185175"><ele>992.0</ele><time>2026-05-02T08:08:45Z</time></trkpt><trkpt lat="46.312654962571926" lon="10.062111045868953"><ele>992.0</ele><time>2026-05-02T08:08:46Z</time></trkpt><trkpt lat="46.31276849236661" lon="10.062037100531267"><ele>992.0</ele><time>2026-05-02T08:08:47Z</time></trkpt><trkpt lat="46.31288819950419" lon="10.06195986790713"><ele>992.0</ele><time>2026-05-02T08:08:48Z</time></trkpt><trkpt lat="46.31300121091858" lon="10.06188624176034"><ele>992.0</ele><time>2026-05-02T08:08:49Z</time></trkpt><trkpt lat="46.313120008153774" lon="10.061807541239009"><ele>992.0</ele><time>2026-05-02T08:08:50Z</time></trkpt><trkpt lat="46.31323692546743" lon="10.061726443197374"><ele>992.0</ele><time>2026-05-02T08:08:51Z</time></trkpt><trkpt lat="46.31335228073451" lon="10.06164562088057"><ele>993.0</ele><time>2026-05-02T08:08:52Z</time></trkpt><trkpt lat="46.31345536311578" lon="10.061575281274179"><ele>994.0</ele><time>2026-05-02T08:08:53Z</time></trkpt><trkpt lat="46.31354078068183" lon="10.06149441576388"><ele>995.0</ele><time>2026-05-02T08:08:54Z</time></trkpt><trkpt lat="46.31362010854704" lon="10.061405778369636"><ele>996.0</ele><time>2026-05-02T08:08:55Z</time></trkpt><trkpt lat="46.313706634613176" lon="10.061319414740257"><ele>997.0</ele><time>2026-05-02T08:08:56Z</time></trkpt><trkpt lat="46.31380653378279" lon="10.061221064050168"><ele>997.0</ele><time>2026-05-02T08:08:57Z</time></trkpt><trkpt lat="46.313893034647265" lon="10.061113889923103"><ele>997.0</ele><time>2026-05-02T08:08:58Z</time></trkpt><trkpt lat="46.31398571172971" lon="10.061003816054928"><ele>997.0</ele><time>2026-05-02T08:08:59Z</time></trkpt><trkpt lat="46.31408977002952" lon="10.060890586868672"><ele>997.0</ele><time>2026-05-02T08:08:59.999Z</time></trkpt><trkpt lat="46.31418947828486" lon="10.060777427308889"><ele>997.25</ele><time>2026-05-02T08:09:00.999Z</time></trkpt><trkpt lat="46.314297085458385" lon="10.060657875351485"><ele>997.5</ele><time>2026-05-02T08:09:01.999Z</time></trkpt><trkpt lat="46.31440088522432" lon="10.060550555856947"><ele>997.75</ele><time>2026-05-02T08:09:02.999Z</time></trkpt><trkpt lat="46.314521567031484" lon="10.0604657505011"><ele>998.0</ele><time>2026-05-02T08:09:03.999Z</time></trkpt><trkpt lat="46.31465078212985" lon="10.060408581899745"><ele>998.0</ele><time>2026-05-02T08:09:04.999Z</time></trkpt><trkpt lat="46.3147731921137" lon="10.0603826783785"><ele>998.0</ele><time>2026-05-02T08:09:05.999Z</time></trkpt><trkpt lat="46.31490296881078" lon="10.060342193429204"><ele>998.0</ele><time>2026-05-02T08:09:06.999Z</time></trkpt><trkpt lat="46.31503786576552" lon="10.060299543526776"><ele>998.0</ele><time>2026-05-02T08:09:07.999Z</time></trkpt><trkpt lat="46.315173294937175" lon="10.060276164864993"><ele>998.0</ele><time>2026-05-02T08:09:08.999Z</time></trkpt><trkpt lat="46.31530173573386" lon="10.060235860640715"><ele>998.0</ele><time>2026-05-02T08:09:09.999Z</time></trkpt><trkpt lat="46.31542648173557" lon="10.06019365867963"><ele>998.0</ele><time>2026-05-02T08:09:10.999Z</time></trkpt><trkpt lat="46.31555451620453" lon="10.060152808654461"><ele>998.0</ele><time>2026-05-02T08:09:11.999Z</time></trkpt><trkpt lat="46.31567593058322" lon="10.060111257119837"><ele>998.25</ele><time>2026-05-02T08:09:12.999Z</time></trkpt><trkpt lat="46.31579860884447" lon="10.060072837862268"><ele>998.5</ele><time>2026-05-02T08:09:13.999Z</time></trkpt><trkpt lat="46.31592225683511" lon="10.060036586721088"><ele>998.75</ele><time>2026-05-02T08:09:14.999Z</time></trkpt><trkpt lat="46.31606449403423" lon="10.059983735911326"><ele>999.0</ele><time>2026-05-02T08:09:15.999Z</time></trkpt><trkpt lat="46.31618242215107" lon="10.059947422985726"><ele>1000.0</ele><time>2026-05-02T08:09:16.999Z</time></trkpt><trkpt lat="46.31630566962112" lon="10.059909017687097"><ele>1001.0</ele><time>2026-05-02T08:09:17.999Z</time></trkpt><trkpt lat="46.31643495382584" lon="10.059867040457094"><ele>1002.0</ele><time>2026-05-02T08:09:18.999Z</time></trkpt><trkpt lat="46.31656101833621" lon="10.059831960082759"><ele>1003.0</ele><time>2026-05-02T08:09:19.999Z</time></trkpt><trkpt lat="46.31669120695638" lon="10.05979096998094"><ele>1003.0</ele><time>2026-05-02T08:09:20.999Z</time></trkpt><trkpt lat="46.31681145108481" lon="10.059756835423002"><ele>1003.0</ele><time>2026-05-02T08:09:21.999Z</time></trkpt><trkpt lat="46.31692464511338" lon="10.059736409992134"><ele>1003.0</ele><time>2026-05-02T08:09:22.999Z</time></trkpt><trkpt lat="46.31701767377043" lon="10.059780521698"><ele>1003.0</ele><time>2026-05-02T08:09:23.999Z</time></trkpt><trkpt lat="46.317074213990416" lon="10.0598850661292"><ele>1003.0</ele><time>2026-05-02T08:09:24.999Z</time></trkpt><trkpt lat="46.317121881781496" lon="10.0599985213291"><ele>1002.5999999999999</ele><time>2026-05-02T08:09:25.999Z</time></trkpt><trkpt lat="46.317180662976526" lon="10.06006764251957"><ele>1002.1999999999999</ele><time>2026-05-02T08:09:26.999Z</time></trkpt><trkpt lat="46.31726632600807" lon="10.060095193666488"><ele>1001.8</ele><time>2026-05-02T08:09:27.999Z</time></trkpt><trkpt lat="46.31735612258429" lon="10.060053780961079"><ele>1001.4</ele><time>2026-05-02T08:09:28.999Z</time></trkpt><trkpt lat="46.31744327069678" lon="10.0599605437463"><ele>1001.0</ele><time>2026-05-02T08:09:29.999Z</time></trkpt><trkpt lat="46.3175294383249" lon="10.059830534762996"><ele>1001.0</ele><time>2026-05-02T08:09:30.999Z</time></trkpt><trkpt lat="46.31761455522143" lon="10.05970787037112"><ele>1001.0</ele><time>2026-05-02T08:09:31.999Z</time></trkpt><trkpt lat="46.31770764847029" lon="10.059587936635333"><ele>1001.0</ele><time>2026-05-02T08:09:32.999Z</time></trkpt><trkpt lat="46.31783553524836" lon="10.059436958795468"><ele>1001.0</ele><time>2026-05-02T08:09:33.999Z</time></trkpt><trkpt lat="46.317947444500334" lon="10.05932075322542"><ele>1001.0</ele><time>2026-05-02T08:09:34.999Z</time></trkpt><trkpt lat="46.31807041477334" lon="10.059258105043597"><ele>1001.0</ele><time>2026-05-02T08:09:35.999Z</time></trkpt><trkpt lat="46.318211578435026" lon="10.059255600197407"><ele>1001.0</ele><time>2026-05-02T08:09:36.999Z</time></trkpt><trkpt lat="46.31837151858248" lon="10.059226692111302"><ele>1001.0</ele><time>2026-05-02T08:09:37.999Z</time></trkpt><trkpt lat="46.318520070713944" lon="10.059239129777518"><ele>1001.0</ele><time>2026-05-02T08:09:38.999Z</time></trkpt><trkpt lat="46.31866590723058" lon="10.059245721946397"><ele>1001.0</ele><time>2026-05-02T08:09:39.999Z</time></trkpt><trkpt lat="46.318811592319136" lon="10.05923360092347"><ele>1001.0</ele><time>2026-05-02T08:09:40.999Z</time></trkpt><trkpt lat="46.318942812164316" lon="10.059233191619802"><ele>1001.0</ele><time>2026-05-02T08:09:41.999Z</time></trkpt><trkpt lat="46.319055233233115" lon="10.05923595692826"><ele>1001.25</ele><time>2026-05-02T08:09:42.999Z</time></trkpt><trkpt lat="46.31916735053686" lon="10.05924123509647"><ele>1001.5</ele><time>2026-05-02T08:09:43.999Z</time></trkpt><trkpt lat="46.31928249963995" lon="10.05924534243995"><ele>1001.75</ele><time>2026-05-02T08:09:44.999Z</time></trkpt><trkpt lat="46.31941318719049" lon="10.05923589769994"><ele>1002.0</ele><time>2026-05-02T08:09:45.999Z</time></trkpt><trkpt lat="46.31953103841534" lon="10.05923073652892"><ele>1002.0</ele><time>2026-05-02T08:09:46.999Z</time></trkpt><trkpt lat="46.31965348277687" lon="10.059212577440142"><ele>1002.0</ele><time>2026-05-02T08:09:47.999Z</time></trkpt><trkpt lat="46.31977330848328" lon="10.059188344250643"><ele>1002.0</ele><time>2026-05-02T08:09:48.999Z</time></trkpt><trkpt lat="46.31989358197002" lon="10.059142917739639"><ele>1002.0</ele><time>2026-05-02T08:09:49.999Z</time></trkpt><trkpt lat="46.32000207756821" lon="10.059096896659845"><ele>1002.0</ele><time>2026-05-02T08:09:50.999Z</time></trkpt><trkpt lat="46.32011500595691" lon="10.059049912561399"><ele>1002.0</ele><time>2026-05-02T08:09:51.999Z</time></trkpt><trkpt lat="46.320226081753574" lon="10.059005916995947"><ele>1002.0</ele><time>2026-05-02T08:09:52.999Z</time></trkpt><trkpt lat="46.32034055825063" lon="10.058962627687796"><ele>1002.0</ele><time>2026-05-02T08:09:53.999Z</time></trkpt><trkpt lat="46.32045674362156" lon="10.058910051813987"><ele>1002.6666666666667</ele><time>2026-05-02T08:09:54.999Z</time></trkpt><trkpt lat="46.32056918288838" lon="10.058862355600306"><ele>1003.3333333333334</ele><time>2026-05-02T08:09:55.999Z</time></trkpt><trkpt lat="46.32079506008569" lon="10.058764325501077"><ele>1004.0</ele><time>2026-05-02T08:09:57.999Z</time></trkpt><trkpt lat="46.320903012540334" lon="10.058721061090493"><ele>1004.0</ele><time>2026-05-02T08:09:58.999Z</time></trkpt><trkpt lat="46.32102133185061" lon="10.0586754441539"><ele>1004.0</ele><time>2026-05-02T08:09:59.999Z</time></trkpt><trkpt lat="46.321143173666336" lon="10.058623032241792"><ele>1004.0</ele><time>2026-05-02T08:10:00.999Z</time></trkpt><trkpt lat="46.32126266376618" lon="10.058572167251837"><ele>1004.0</ele><time>2026-05-02T08:10:01.999Z</time></trkpt><trkpt lat="46.321392285145784" lon="10.058519893797705"><ele>1004.0</ele><time>2026-05-02T08:10:02.999Z</time></trkpt><trkpt lat="46.32150888041189" lon="10.058475253134588"><ele>1004.0</ele><time>2026-05-02T08:10:03.999Z</time></trkpt><trkpt lat="46.32164074477793" lon="10.058416223573163"><ele>1004.0</ele><time>2026-05-02T08:10:04.999Z</time></trkpt><trkpt lat="46.321763154305906" lon="10.058357915901405"><ele>1004.0</ele><time>2026-05-02T08:10:05.999Z</time></trkpt><trkpt lat="46.32188623035495" lon="10.058303712596944"><ele>1003.75</ele><time>2026-05-02T08:10:06.999Z</time></trkpt><trkpt lat="46.32201093703683" lon="10.05824889095747"><ele>1003.5</ele><time>2026-05-02T08:10:07.999Z</time></trkpt><trkpt lat="46.32214180562904" lon="10.058199195245193"><ele>1003.25</ele><time>2026-05-02T08:10:08.999Z</time></trkpt><trkpt lat="46.322274553320675" lon="10.05814467513851"><ele>1003.0</ele><time>2026-05-02T08:10:09.999Z</time></trkpt><trkpt lat="46.322404739583654" lon="10.058088656725433"><ele>1003.5</ele><time>2026-05-02T08:10:10.999Z</time></trkpt><trkpt lat="46.322520511420585" lon="10.058043500384175"><ele>1004.0</ele><time>2026-05-02T08:10:11.999Z</time></trkpt><trkpt lat="46.322640616075574" lon="10.057992450272959"><ele>1004.5</ele><time>2026-05-02T08:10:12.999Z</time></trkpt><trkpt lat="46.32275173512582" lon="10.057944061566367"><ele>1005.0</ele><time>2026-05-02T08:10:14Z</time></trkpt><trkpt lat="46.322857108981346" lon="10.057899752455713"><ele>1005.0</ele><time>2026-05-02T08:10:15Z</time></trkpt><trkpt lat="46.322947961308756" lon="10.05785162994346"><ele>1005.0</ele><time>2026-05-02T08:10:16Z</time></trkpt><trkpt lat="46.32303276093984" lon="10.057813549205662"><ele>1005.0</ele><time>2026-05-02T08:10:17Z</time></trkpt><trkpt lat="46.32310371009864" lon="10.05777519858624"><ele>1005.0</ele><time>2026-05-02T08:10:18Z</time></trkpt><trkpt lat="46.323166261704245" lon="10.057745652730148"><ele>1005.0</ele><time>2026-05-02T08:10:19Z</time></trkpt><trkpt lat="46.323227200610106" lon="10.057721924009044"><ele>1005.0</ele><time>2026-05-02T08:10:20Z</time></trkpt><trkpt lat="46.323316691303276" lon="10.057695581321488"><ele>1005.4285714285716</ele><time>2026-05-02T08:10:22Z</time></trkpt><trkpt lat="46.32339066379866" lon="10.057683811908397"><ele>1005.8571428571429</ele><time>2026-05-02T08:10:23Z</time></trkpt><trkpt lat="46.32345736401197" lon="10.057669634088336"><ele>1006.2857142857143</ele><time>2026-05-02T08:10:24Z</time></trkpt><trkpt lat="46.32352280504917" lon="10.057634034217655"><ele>1006.7142857142858</ele><time>2026-05-02T08:10:25Z</time></trkpt><trkpt lat="46.32358999040795" lon="10.057609806216787"><ele>1007.1428571428571</ele><time>2026-05-02T08:10:26Z</time></trkpt><trkpt lat="46.32365949057362" lon="10.057584623525338"><ele>1007.5714285714286</ele><time>2026-05-02T08:10:27Z</time></trkpt><trkpt lat="46.32373132693095" lon="10.057597117773488"><ele>1008.0</ele><time>2026-05-02T08:10:28Z</time></trkpt><trkpt lat="46.32383232192798" lon="10.057561363342465"><ele>1008.4</ele><time>2026-05-02T08:10:30Z</time></trkpt><trkpt lat="46.32390789194275" lon="10.05750012612339"><ele>1008.8</ele><time>2026-05-02T08:10:32Z</time></trkpt><trkpt lat="46.324013770479276" lon="10.057376408923485"><ele>1009.2</ele><time>2026-05-02T08:10:34Z</time></trkpt><trkpt lat="46.324010733263314" lon="10.05722746400764"><ele>1009.6</ele><time>2026-05-02T08:10:36Z</time></trkpt><trkpt lat="46.3239750114439" lon="10.057148994378151"><ele>1010.0</ele><time>2026-05-02T08:10:37Z</time></trkpt><trkpt lat="46.32392882576087" lon="10.057005304280086"><ele>1009.6666666666667</ele><time>2026-05-02T08:10:39Z</time></trkpt><trkpt lat="46.323875859315436" lon="10.056843141115463"><ele>1009.3333333333334</ele><time>2026-05-02T08:10:41Z</time></trkpt><trkpt lat="46.32384742798155" lon="10.056737007776384"><ele>1009.0</ele><time>2026-05-02T08:10:42Z</time></trkpt><trkpt lat="46.32381730766411" lon="10.05665194869505"><ele>1008.6666666666667</ele><time>2026-05-02T08:10:43Z</time></trkpt><trkpt lat="46.32378903227003" lon="10.056545184142443"><ele>1008.3333333333334</ele><time>2026-05-02T08:10:44Z</time></trkpt><trkpt lat="46.32376585658507" lon="10.056444909956468"><ele>1008.0</ele><time>2026-05-02T08:10:45Z</time></trkpt><trkpt lat="46.32375197893031" lon="10.056334523869744"><ele>1008.0</ele><time>2026-05-02T08:10:46Z</time></trkpt><trkpt lat="46.32374486250351" lon="10.056178472393247"><ele>1008.0</ele><time>2026-05-02T08:10:48Z</time></trkpt><trkpt lat="46.3238320466617" lon="10.056077094199788"><ele>1008.0</ele><time>2026-05-02T08:10:50Z</time></trkpt><trkpt lat="46.32391626744361" lon="10.056063690524493"><ele>1008.0</ele><time>2026-05-02T08:10:51Z</time></trkpt><trkpt lat="46.324009683246516" lon="10.05608025671926"><ele>1008.0</ele><time>2026-05-02T08:10:52Z</time></trkpt><trkpt lat="46.32409909839328" lon="10.056104145578294"><ele>1008.5999999999999</ele><time>2026-05-02T08:10:53Z</time></trkpt><trkpt lat="46.324197329990156" lon="10.0561188002836"><ele>1009.1999999999999</ele><time>2026-05-02T08:10:54Z</time></trkpt><trkpt lat="46.324281857084095" lon="10.056132681826828"><ele>1009.8</ele><time>2026-05-02T08:10:55Z</time></trkpt><trkpt lat="46.32435862037322" lon="10.056174419057752"><ele>1010.4</ele><time>2026-05-02T08:10:56Z</time></trkpt><trkpt lat="46.324451157643885" lon="10.056195796429757"><ele>1011.0</ele><time>2026-05-02T08:10:57Z</time></trkpt><trkpt lat="46.3245511317295" lon="10.056229296683194"><ele>1011.0</ele><time>2026-05-02T08:10:58Z</time></trkpt><trkpt lat="46.32467855418231" lon="10.056259731171414"><ele>1011.0</ele><time>2026-05-02T08:10:59Z</time></trkpt><trkpt lat="46.32479235880697" lon="10.056302149133337"><ele>1011.0</ele><time>2026-05-02T08:11:00Z</time></trkpt><trkpt lat="46.324898752466524" lon="10.056347663697458"><ele>1011.0</ele><time>2026-05-02T08:11:01Z</time></trkpt><trkpt lat="46.325005064650526" lon="10.056397221894901"><ele>1011.5</ele><time>2026-05-02T08:11:02Z</time></trkpt><trkpt lat="46.32511477157383" lon="10.056451299613316"><ele>1012.0</ele><time>2026-05-02T08:11:02.999Z</time></trkpt><trkpt lat="46.32522753979164" lon="10.05650638838835"><ele>1012.5</ele><time>2026-05-02T08:11:03.999Z</time></trkpt><trkpt lat="46.32533283210566" lon="10.056562346826821"><ele>1013.0</ele><time>2026-05-02T08:11:04.999Z</time></trkpt><trkpt lat="46.325443556647976" lon="10.056613292908798"><ele>1013.0</ele><time>2026-05-02T08:11:05.999Z</time></trkpt><trkpt lat="46.3255591997454" lon="10.056662629021384"><ele>1013.0</ele><time>2026-05-02T08:11:06.999Z</time></trkpt><trkpt lat="46.32566749658596" lon="10.056713563159551"><ele>1013.0</ele><time>2026-05-02T08:11:07.999Z</time></trkpt><trkpt lat="46.32579168334825" lon="10.056762547853099"><ele>1013.0</ele><time>2026-05-02T08:11:08.999Z</time></trkpt><trkpt lat="46.325891337804975" lon="10.056827919905324"><ele>1013.0</ele><time>2026-05-02T08:11:09.999Z</time></trkpt><trkpt lat="46.32599597348927" lon="10.056856004582999"><ele>1013.0</ele><time>2026-05-02T08:11:10.999Z</time></trkpt><trkpt lat="46.3260918014242" lon="10.056877984845885"><ele>1013.0</ele><time>2026-05-02T08:11:11.999Z</time></trkpt><trkpt lat="46.326185047346264" lon="10.056892626756625"><ele>1013.0</ele><time>2026-05-02T08:11:12.999Z</time></trkpt><trkpt lat="46.32629875418483" lon="10.056895469416641"><ele>1013.0</ele><time>2026-05-02T08:11:13.999Z</time></trkpt><trkpt lat="46.32640627725868" lon="10.056898295878396"><ele>1013.4</ele><time>2026-05-02T08:11:14.999Z</time></trkpt><trkpt lat="46.326518025083026" lon="10.056902884566748"><ele>1013.8</ele><time>2026-05-02T08:11:15.999Z</time></trkpt><trkpt lat="46.326608495239675" lon="10.056902301579031"><ele>1014.2</ele><time>2026-05-02T08:11:16.999Z</time></trkpt><trkpt lat="46.326688176392615" lon="10.056898241002877"><ele>1014.6</ele><time>2026-05-02T08:11:17.999Z</time></trkpt><trkpt lat="46.32677824794638" lon="10.056918881000122"><ele>1015.0</ele><time>2026-05-02T08:11:19.999Z</time></trkpt><trkpt lat="46.32688132206604" lon="10.056924016845553"><ele>1014.9999999999999</ele><time>2026-05-02T08:11:22.999Z</time></trkpt><trkpt lat="46.32698454894364" lon="10.056925868238466"><ele>1015.0</ele><time>2026-05-02T08:11:24.999Z</time></trkpt><trkpt lat="46.327055662620715" lon="10.056925023083695"><ele>1015.0</ele><time>2026-05-02T08:11:25.999Z</time></trkpt><trkpt lat="46.3271600267537" lon="10.056917191820219"><ele>1015.0</ele><time>2026-05-02T08:11:26.999Z</time></trkpt><trkpt lat="46.327244193457055" lon="10.056917283203267"><ele>1014.9999999999999</ele><time>2026-05-02T08:11:27.999Z</time></trkpt><trkpt lat="46.32731675316215" lon="10.056936768821426"><ele>1015.0</ele><time>2026-05-02T08:11:28.999Z</time></trkpt><trkpt lat="46.327393072412626" lon="10.056969909263183"><ele>1015.6</ele><time>2026-05-02T08:11:29.999Z</time></trkpt><trkpt lat="46.32746796413812" lon="10.057023934060817"><ele>1016.2</ele><time>2026-05-02T08:11:30.999Z</time></trkpt><trkpt lat="46.32755615919485" lon="10.057078061260457"><ele>1016.8</ele><time>2026-05-02T08:11:31.999Z</time></trkpt><trkpt lat="46.327658862208864" lon="10.057130941291634"><ele>1017.4</ele><time>2026-05-02T08:11:32.999Z</time></trkpt><trkpt lat="46.327767140548495" lon="10.057184390036651"><ele>1018.0</ele><time>2026-05-02T08:11:33.999Z</time></trkpt><trkpt lat="46.3278717036493" lon="10.05724458061433"><ele>1018.0</ele><time>2026-05-02T08:11:34.999Z</time></trkpt><trkpt lat="46.32796927207805" lon="10.057289460587057"><ele>1018.0</ele><time>2026-05-02T08:11:35.999Z</time></trkpt><trkpt lat="46.328056066588005" lon="10.057325181314496"><ele>1018.0</ele><time>2026-05-02T08:11:36.999Z</time></trkpt><trkpt lat="46.328137605590754" lon="10.057361170361672"><ele>1018.0</ele><time>2026-05-02T08:11:37.999Z</time></trkpt><trkpt lat="46.328223516889764" lon="10.0574182323712"><ele>1018.0</ele><time>2026-05-02T08:11:38.999Z</time></trkpt><trkpt lat="46.32829436619868" lon="10.057488422284733"><ele>1018.4</ele><time>2026-05-02T08:11:39.999Z</time></trkpt><trkpt lat="46.32827929159042" lon="10.057639429907729"><ele>1018.8</ele><time>2026-05-02T08:11:41.999Z</time></trkpt><trkpt lat="46.328293242937825" lon="10.057754544682917"><ele>1019.2</ele><time>2026-05-02T08:11:43.999Z</time></trkpt><trkpt lat="46.328240153464016" lon="10.057889168001386"><ele>1019.6</ele><time>2026-05-02T08:11:45.999Z</time></trkpt><trkpt lat="46.32824293678465" lon="10.058025703562778"><ele>1020.0</ele><time>2026-05-02T08:11:46.999Z</time></trkpt><trkpt lat="46.32832521369804" lon="10.058116043678737"><ele>1020.0</ele><time>2026-05-02T08:11:47.999Z</time></trkpt><trkpt lat="46.328421578351886" lon="10.058213929175242"><ele>1020.0</ele><time>2026-05-02T08:11:48.999Z</time></trkpt><trkpt lat="46.32850640333376" lon="10.058242623246237"><ele>1020.0</ele><time>2026-05-02T08:11:49.999Z</time></trkpt><trkpt lat="46.32876145400032" lon="10.058225023380409"><ele>1020.0</ele><time>2026-05-02T08:11:53.999Z</time></trkpt><trkpt lat="46.32887966405091" lon="10.058259269595403"><ele>1020.0</ele><time>2026-05-02T08:11:54.999Z</time></trkpt><trkpt lat="46.32900763082992" lon="10.058287681347002"><ele>1020.0</ele><time>2026-05-02T08:11:55.999Z</time></trkpt><trkpt lat="46.329146912736114" lon="10.058326991801744"><ele>1020.0</ele><time>2026-05-02T08:11:56.999Z</time></trkpt><trkpt lat="46.329281559954254" lon="10.058370801282596"><ele>1020.75</ele><time>2026-05-02T08:11:57.999Z</time></trkpt><trkpt lat="46.32939641582943" lon="10.058409759282824"><ele>1021.5</ele><time>2026-05-02T08:11:58.999Z</time></trkpt><trkpt lat="46.32952689843643" lon="10.05845502659664"><ele>1022.25</ele><time>2026-05-02T08:11:59.999Z</time></trkpt><trkpt lat="46.32965560726011" lon="10.058493685321736"><ele>1023.0</ele><time>2026-05-02T08:12:00.999Z</time></trkpt><trkpt lat="46.32978947793022" lon="10.058531101634319"><ele>1023.0</ele><time>2026-05-02T08:12:01.999Z</time></trkpt><trkpt lat="46.32992618164299" lon="10.058573879049415"><ele>1023.0</ele><time>2026-05-02T08:12:02.999Z</time></trkpt><trkpt lat="46.33006554165633" lon="10.058624442804222"><ele>1023.0</ele><time>2026-05-02T08:12:03.999Z</time></trkpt><trkpt lat="46.33020023752192" lon="10.058667888777903"><ele>1023.0</ele><time>2026-05-02T08:12:04.999Z</time></trkpt><trkpt lat="46.33034432039062" lon="10.058707459659798"><ele>1023.0</ele><time>2026-05-02T08:12:05.999Z</time></trkpt><trkpt lat="46.33048768261471" lon="10.058750542768344"><ele>1023.0</ele><time>2026-05-02T08:12:06.999Z</time></trkpt><trkpt lat="46.33063531426898" lon="10.058803350541154"><ele>1023.0</ele><time>2026-05-02T08:12:07.999Z</time></trkpt><trkpt lat="46.330793646032475" lon="10.058853644021896"><ele>1024.0</ele><time>2026-05-02T08:12:08.999Z</time></trkpt><trkpt lat="46.33095630514047" lon="10.058913140935065"><ele>1025.0</ele><time>2026-05-02T08:12:09.999Z</time></trkpt><trkpt lat="46.33112223207054" lon="10.05897995518265"><ele>1026.0</ele><time>2026-05-02T08:12:10.999Z</time></trkpt><trkpt lat="46.33129264516044" lon="10.059062260250593"><ele>1029.0</ele><time>2026-05-02T08:12:11.999Z</time></trkpt><trkpt lat="46.33145694885091" lon="10.059175916233054"><ele>1032.0</ele><time>2026-05-02T08:12:12.999Z</time></trkpt><trkpt lat="46.33163167285174" lon="10.0592828445373"><ele>1035.0</ele><time>2026-05-02T08:12:13.999Z</time></trkpt><trkpt lat="46.331812418350985" lon="10.059395896712568"><ele>1035.0</ele><time>2026-05-02T08:12:14.998Z</time></trkpt><trkpt lat="46.33199201485563" lon="10.059498732868882"><ele>1035.0</ele><time>2026-05-02T08:12:15.998Z</time></trkpt><trkpt lat="46.3321524486692" lon="10.059614993256424"><ele>1035.0</ele><time>2026-05-02T08:12:16.998Z</time></trkpt><trkpt lat="46.332321282581205" lon="10.05971085087214"><ele>1036.0</ele><time>2026-05-02T08:12:17.998Z</time></trkpt><trkpt lat="46.332434642574434" lon="10.059815470477734"><ele>1037.0</ele><time>2026-05-02T08:12:18.998Z</time></trkpt><trkpt lat="46.33256354734763" lon="10.059925631688943"><ele>1038.0</ele><time>2026-05-02T08:12:20Z</time></trkpt><trkpt lat="46.332721730340396" lon="10.060042449490181"><ele>1044.5</ele><time>2026-05-02T08:12:21Z</time></trkpt><trkpt lat="46.332973184667196" lon="10.06020493953604"><ele>1051.0</ele><time>2026-05-02T08:12:22Z</time></trkpt><trkpt lat="46.33316692550934" lon="10.060334055574776"><ele>1051.0</ele><time>2026-05-02T08:12:23Z</time></trkpt><trkpt lat="46.33335448308729" lon="10.060458425331625"><ele>1051.0</ele><time>2026-05-02T08:12:24Z</time></trkpt><trkpt lat="46.333529595822355" lon="10.060567849457527"><ele>1051.0</ele><time>2026-05-02T08:12:25Z</time></trkpt><trkpt lat="46.33370615178761" lon="10.06067846627704"><ele>1049.6666666666665</ele><time>2026-05-02T08:12:26Z</time></trkpt><trkpt lat="46.33389253275921" lon="10.060769982385903"><ele>1048.3333333333333</ele><time>2026-05-02T08:12:27Z</time></trkpt><trkpt lat="46.334078181379965" lon="10.060867253466606"><ele>1047.0</ele><time>2026-05-02T08:12:28Z</time></trkpt><trkpt lat="46.33426914636479" lon="10.060946996774385"><ele>1051.0</ele><time>2026-05-02T08:12:29Z</time></trkpt><trkpt lat="46.334464067691975" lon="10.06102944176511"><ele>1055.0</ele><time>2026-05-02T08:12:30Z</time></trkpt><trkpt lat="46.33465591917286" lon="10.061099293791417"><ele>1059.0</ele><time>2026-05-02T08:12:31Z</time></trkpt><trkpt lat="46.33485053264587" lon="10.061152469356017"><ele>1059.0</ele><time>2026-05-02T08:12:32Z</time></trkpt><trkpt lat="46.335046543913805" lon="10.06117536173043"><ele>1059.0</ele><time>2026-05-02T08:12:33Z</time></trkpt><trkpt lat="46.33524294340224" lon="10.061196844158262"><ele>1059.0</ele><time>2026-05-02T08:12:34Z</time></trkpt><trkpt lat="46.335442711585614" lon="10.061212925815504"><ele>1057.3333333333333</ele><time>2026-05-02T08:12:35Z</time></trkpt><trkpt lat="46.33563768843677" lon="10.061234421459757"><ele>1055.6666666666665</ele><time>2026-05-02T08:12:36Z</time></trkpt><trkpt lat="46.33582554374568" lon="10.061262365581314"><ele>1054.0</ele><time>2026-05-02T08:12:37Z</time></trkpt><trkpt lat="46.33601577681432" lon="10.061290805727202"><ele>1054.0</ele><time>2026-05-02T08:12:38Z</time></trkpt><trkpt lat="46.336200161029694" lon="10.061323364586046"><ele>1054.0</ele><time>2026-05-02T08:12:39Z</time></trkpt><trkpt lat="46.33638586237652" lon="10.061354357454642"><ele>1054.0</ele><time>2026-05-02T08:12:40Z</time></trkpt><trkpt lat="46.33657017668684" lon="10.06138166332319"><ele>1054.5</ele><time>2026-05-02T08:12:41Z</time></trkpt><trkpt lat="46.33674090714371" lon="10.061402698084581"><ele>1055.0</ele><time>2026-05-02T08:12:42Z</time></trkpt><trkpt lat="46.33688398696259" lon="10.061401069316577"><ele>1055.5</ele><time>2026-05-02T08:12:43Z</time></trkpt><trkpt lat="46.33701668847837" lon="10.061390783058343"><ele>1056.0</ele><time>2026-05-02T08:12:44Z</time></trkpt><trkpt lat="46.33714611811263" lon="10.061368064252507"><ele>1056.75</ele><time>2026-05-02T08:12:45Z</time></trkpt><trkpt lat="46.33727118552436" lon="10.061337284966363"><ele>1057.5</ele><time>2026-05-02T08:12:46Z</time></trkpt><trkpt lat="46.33739145432915" lon="10.061293564105284"><ele>1058.25</ele><time>2026-05-02T08:12:47Z</time></trkpt><trkpt lat="46.3375075060951" lon="10.061230017497314"><ele>1059.0</ele><time>2026-05-02T08:12:48Z</time></trkpt><trkpt lat="46.337615253976004" lon="10.06115967152433"><ele>1059.0</ele><time>2026-05-02T08:12:49Z</time></trkpt><trkpt lat="46.33772998308436" lon="10.061080712433625"><ele>1059.0</ele><time>2026-05-02T08:12:50Z</time></trkpt><trkpt lat="46.337842269269366" lon="10.061007814842405"><ele>1059.0</ele><time>2026-05-02T08:12:51Z</time></trkpt><trkpt lat="46.33795186325314" lon="10.060949707486012"><ele>1059.0</ele><time>2026-05-02T08:12:52Z</time></trkpt><trkpt lat="46.338070571422726" lon="10.060879267586222"><ele>1060.0</ele><time>2026-05-02T08:12:53Z</time></trkpt><trkpt lat="46.338183863918985" lon="10.060818850388692"><ele>1061.0</ele><time>2026-05-02T08:12:54Z</time></trkpt><trkpt lat="46.33830122360011" lon="10.060766005159511"><ele>1062.0</ele><time>2026-05-02T08:12:55Z</time></trkpt><trkpt lat="46.338418733863264" lon="10.060717789700874"><ele>1063.0</ele><time>2026-05-02T08:12:56Z</time></trkpt><trkpt lat="46.33853338504183" lon="10.060670266140667"><ele>1063.0</ele><time>2026-05-02T08:12:57Z</time></trkpt><trkpt lat="46.33864506949453" lon="10.060625581071358"><ele>1063.0</ele><time>2026-05-02T08:12:58Z</time></trkpt><trkpt lat="46.33875836063995" lon="10.06058122367131"><ele>1063.0</ele><time>2026-05-02T08:12:59Z</time></trkpt><trkpt lat="46.3388646995279" lon="10.060550753718815"><ele>1063.0</ele><time>2026-05-02T08:13:00Z</time></trkpt><trkpt lat="46.338968374943676" lon="10.060518353161314"><ele>1063.0</ele><time>2026-05-02T08:13:01Z</time></trkpt><trkpt lat="46.33907517248881" lon="10.060483357230959"><ele>1063.2</ele><time>2026-05-02T08:13:02Z</time></trkpt><trkpt lat="46.33916944639787" lon="10.060458793752549"><ele>1063.4</ele><time>2026-05-02T08:13:03Z</time></trkpt><trkpt lat="46.33928399074753" lon="10.060412173775314"><ele>1063.6000000000001</ele><time>2026-05-02T08:13:04Z</time></trkpt><trkpt lat="46.339394209062505" lon="10.060368701252505"><ele>1063.8</ele><time>2026-05-02T08:13:05Z</time></trkpt><trkpt lat="46.33949468832104" lon="10.060338326217023"><ele>1064.0</ele><time>2026-05-02T08:13:06Z</time></trkpt><trkpt lat="46.33960055396992" lon="10.060292771299174"><ele>1064.0</ele><time>2026-05-02T08:13:07Z</time></trkpt><trkpt lat="46.33970434070845" lon="10.060259789099055"><ele>1064.0</ele><time>2026-05-02T08:13:08Z</time></trkpt><trkpt lat="46.339807723021345" lon="10.060235629569194"><ele>1064.0</ele><time>2026-05-02T08:13:09Z</time></trkpt><trkpt lat="46.33992820540789" lon="10.060191960561012"><ele>1064.0</ele><time>2026-05-02T08:13:09.999Z</time></trkpt><trkpt lat="46.34004349539788" lon="10.060154295076602"><ele>1066.75</ele><time>2026-05-02T08:13:10.999Z</time></trkpt><trkpt lat="46.34015699324298" lon="10.060104850774781"><ele>1069.5</ele><time>2026-05-02T08:13:11.999Z</time></trkpt><trkpt lat="46.34026324733973" lon="10.06006545789918"><ele>1072.25</ele><time>2026-05-02T08:13:12.999Z</time></trkpt><trkpt lat="46.34038131279077" lon="10.060020654515817"><ele>1075.0</ele><time>2026-05-02T08:13:13.999Z</time></trkpt><trkpt lat="46.34048646226967" lon="10.059995402045564"><ele>1074.5</ele><time>2026-05-02T08:13:14.999Z</time></trkpt><trkpt lat="46.34059245476578" lon="10.059967295213578"><ele>1074.0</ele><time>2026-05-02T08:13:15.999Z</time></trkpt><trkpt lat="46.34071371360553" lon="10.059911290256112"><ele>1073.5</ele><time>2026-05-02T08:13:16.999Z</time></trkpt><trkpt lat="46.3408295388848" lon="10.059909249686793"><ele>1073.0</ele><time>2026-05-02T08:13:17.999Z</time></trkpt><trkpt lat="46.34095043513328" lon="10.059911505622269"><ele>1075.0</ele><time>2026-05-02T08:13:18.999Z</time></trkpt><trkpt lat="46.3410531412878" lon="10.059974362487557"><ele>1077.0</ele><time>2026-05-02T08:13:19.999Z</time></trkpt><trkpt lat="46.34116742294917" lon="10.060012251440378"><ele>1079.0</ele><time>2026-05-02T08:13:20.999Z</time></trkpt><trkpt lat="46.34127812364416" lon="10.060048856370539"><ele>1081.0</ele><time>2026-05-02T08:13:21.999Z</time></trkpt><trkpt lat="46.34139414679547" lon="10.060083877413117"><ele>1082.0</ele><time>2026-05-02T08:13:22.999Z</time></trkpt><trkpt lat="46.34151441326031" lon="10.060115662585414"><ele>1083.0</ele><time>2026-05-02T08:13:23.999Z</time></trkpt><trkpt lat="46.34163383982249" lon="10.060154436660552"><ele>1084.0</ele><time>2026-05-02T08:13:24.999Z</time></trkpt><trkpt lat="46.34175054781201" lon="10.060195434930268"><ele>1085.0</ele><time>2026-05-02T08:13:25.999Z</time></trkpt><trkpt lat="46.34185479150473" lon="10.060245391073726"><ele>1085.0</ele><time>2026-05-02T08:13:26.999Z</time></trkpt><trkpt lat="46.341971236057915" lon="10.060306646178347"><ele>1085.0</ele><time>2026-05-02T08:13:27.999Z</time></trkpt><trkpt lat="46.34206466729354" lon="10.060387636239545"><ele>1085.0</ele><time>2026-05-02T08:13:28.999Z</time></trkpt><trkpt lat="46.34217120963897" lon="10.060477914256174"><ele>1085.0</ele><time>2026-05-02T08:13:29.999Z</time></trkpt><trkpt lat="46.342273721296856" lon="10.060573575275335"><ele>1084.5</ele><time>2026-05-02T08:13:30.999Z</time></trkpt><trkpt lat="46.342381888407694" lon="10.060655041614435"><ele>1084.0</ele><time>2026-05-02T08:13:31.999Z</time></trkpt><trkpt lat="46.342494375694216" lon="10.060733064775517"><ele>1083.5</ele><time>2026-05-02T08:13:32.999Z</time></trkpt><trkpt lat="46.34259994505325" lon="10.060814852908058"><ele>1083.0</ele><time>2026-05-02T08:13:33.999Z</time></trkpt><trkpt lat="46.34270962205131" lon="10.060881020831536"><ele>1084.0</ele><time>2026-05-02T08:13:34.999Z</time></trkpt><trkpt lat="46.34281434306978" lon="10.060954045124195"><ele>1085.0</ele><time>2026-05-02T08:13:35.999Z</time></trkpt><trkpt lat="46.34291774861654" lon="10.06102320862634"><ele>1086.0</ele><time>2026-05-02T08:13:36.999Z</time></trkpt><trkpt lat="46.34302215671182" lon="10.061107357241678"><ele>1087.0</ele><time>2026-05-02T08:13:37.999Z</time></trkpt><trkpt lat="46.343130119808805" lon="10.06118637692644"><ele>1087.0</ele><time>2026-05-02T08:13:38.999Z</time></trkpt><trkpt lat="46.343227868983" lon="10.06127124268235"><ele>1087.0</ele><time>2026-05-02T08:13:39.999Z</time></trkpt><trkpt lat="46.34331981345275" lon="10.061356960305819"><ele>1087.0</ele><time>2026-05-02T08:13:40.999Z</time></trkpt><trkpt lat="46.34339621622961" lon="10.061448942751644"><ele>1087.0</ele><time>2026-05-02T08:13:41.999Z</time></trkpt><trkpt lat="46.343464679015135" lon="10.061542136492461"><ele>1087.0</ele><time>2026-05-02T08:13:42.999Z</time></trkpt><trkpt lat="46.34353283898964" lon="10.061644056238755"><ele>1088.2</ele><time>2026-05-02T08:13:43.999Z</time></trkpt><trkpt lat="46.34360538552333" lon="10.061747699064236"><ele>1089.4</ele><time>2026-05-02T08:13:44.999Z</time></trkpt><trkpt lat="46.34367819960708" lon="10.061846595986532"><ele>1090.6</ele><time>2026-05-02T08:13:45.999Z</time></trkpt><trkpt lat="46.34374896707371" lon="10.0619395199406"><ele>1091.8</ele><time>2026-05-02T08:13:46.999Z</time></trkpt><trkpt lat="46.34381860286845" lon="10.062030209193814"><ele>1093.0</ele><time>2026-05-02T08:13:47.999Z</time></trkpt><trkpt lat="46.34384005928244" lon="10.062133626716594"><ele>1093.0</ele><time>2026-05-02T08:13:48.999Z</time></trkpt><trkpt lat="46.343852252005206" lon="10.062252352889645"><ele>1093.0</ele><time>2026-05-02T08:13:49.999Z</time></trkpt><trkpt lat="46.343865560402016" lon="10.062391613613654"><ele>1093.0</ele><time>2026-05-02T08:13:50.999Z</time></trkpt><trkpt lat="46.343893652553625" lon="10.062542884121143"><ele>1093.0</ele><time>2026-05-02T08:13:51.999Z</time></trkpt><trkpt lat="46.34390332881914" lon="10.062701542005886"><ele>1093.0</ele><time>2026-05-02T08:13:52.999Z</time></trkpt><trkpt lat="46.343916444540376" lon="10.062846178630798"><ele>1092.75</ele><time>2026-05-02T08:13:53.999Z</time></trkpt><trkpt lat="46.34393919372416" lon="10.063009446743898"><ele>1092.5</ele><time>2026-05-02T08:13:54.999Z</time></trkpt><trkpt lat="46.34396740349761" lon="10.063172741988904"><ele>1092.25</ele><time>2026-05-02T08:13:55.999Z</time></trkpt><trkpt lat="46.34398330447251" lon="10.06333681046205"><ele>1092.0</ele><time>2026-05-02T08:13:56.999Z</time></trkpt><trkpt lat="46.34401802473896" lon="10.063529560041117"><ele>1092.0</ele><time>2026-05-02T08:13:57.999Z</time></trkpt><trkpt lat="46.34405660283648" lon="10.063716660449435"><ele>1092.0</ele><time>2026-05-02T08:13:58.999Z</time></trkpt><trkpt lat="46.34408474665837" lon="10.06386559714301"><ele>1092.0</ele><time>2026-05-02T08:13:59.999Z</time></trkpt><trkpt lat="46.34411429845007" lon="10.064025082104504"><ele>1092.0</ele><time>2026-05-02T08:14:00.999Z</time></trkpt><trkpt lat="46.34413611251672" lon="10.0641911422436"><ele>1093.75</ele><time>2026-05-02T08:14:01.999Z</time></trkpt><trkpt lat="46.34415058040122" lon="10.064358583373183"><ele>1095.5</ele><time>2026-05-02T08:14:02.999Z</time></trkpt><trkpt lat="46.344158246960674" lon="10.064536768450232"><ele>1097.25</ele><time>2026-05-02T08:14:03.999Z</time></trkpt><trkpt lat="46.344160698467064" lon="10.064718076601435"><ele>1099.0</ele><time>2026-05-02T08:14:04.999Z</time></trkpt><trkpt lat="46.34416916381403" lon="10.064897846432071"><ele>1104.0</ele><time>2026-05-02T08:14:05.999Z</time></trkpt><trkpt lat="46.3442134781002" lon="10.06508288939625"><ele>1109.0</ele><time>2026-05-02T08:14:06.999Z</time></trkpt><trkpt lat="46.344290565063815" lon="10.065248001613243"><ele>1114.0</ele><time>2026-05-02T08:14:07.999Z</time></trkpt><trkpt lat="46.34441941701814" lon="10.065371964371627"><ele>1119.0</ele><time>2026-05-02T08:14:08.999Z</time></trkpt><trkpt lat="46.344575852153994" lon="10.065440270831994"><ele>1112.3333333333333</ele><time>2026-05-02T08:14:09.999Z</time></trkpt><trkpt lat="46.34474476297568" lon="10.065516786632056"><ele>1105.6666666666665</ele><time>2026-05-02T08:14:10.999Z</time></trkpt><trkpt lat="46.34491989041577" lon="10.065654352036162"><ele>1099.0</ele><time>2026-05-02T08:14:11.999Z</time></trkpt><trkpt lat="46.34505669094583" lon="10.065724878034752"><ele>1105.75</ele><time>2026-05-02T08:14:12.999Z</time></trkpt><trkpt lat="46.345165892290694" lon="10.065837641255964"><ele>1112.5</ele><time>2026-05-02T08:14:13.999Z</time></trkpt><trkpt lat="46.34525986705099" lon="10.065983995998375"><ele>1119.25</ele><time>2026-05-02T08:14:14.999Z</time></trkpt><trkpt lat="46.345332931063716" lon="10.066177130912429"><ele>1126.0</ele><time>2026-05-02T08:14:15.999Z</time></trkpt><trkpt lat="46.34544647873641" lon="10.066374873203264"><ele>1127.3333333333333</ele><time>2026-05-02T08:14:16.999Z</time></trkpt><trkpt lat="46.34558569848607" lon="10.066540361558149"><ele>1128.6666666666667</ele><time>2026-05-02T08:14:17.999Z</time></trkpt><trkpt lat="46.345741299483144" lon="10.066680996385534"><ele>1130.0</ele><time>2026-05-02T08:14:18.999Z</time></trkpt><trkpt lat="46.345897688612375" lon="10.066824299532861"><ele>1130.0</ele><time>2026-05-02T08:14:19.999Z</time></trkpt><trkpt lat="46.346060147255294" lon="10.066972914251558"><ele>1130.0</ele><time>2026-05-02T08:14:20.999Z</time></trkpt><trkpt lat="46.34621624773484" lon="10.067099709848627"><ele>1130.0</ele><time>2026-05-02T08:14:21.998Z</time></trkpt><trkpt lat="46.34634775998372" lon="10.067188816073413"><ele>1131.75</ele><time>2026-05-02T08:14:22.998Z</time></trkpt><trkpt lat="46.34644093380654" lon="10.06725939298731"><ele>1133.5</ele><time>2026-05-02T08:14:23.998Z</time></trkpt><trkpt lat="46.346596266865916" lon="10.067331003827437"><ele>1135.25</ele><time>2026-05-02T08:14:24.998Z</time></trkpt><trkpt lat="46.34673354327082" lon="10.067422388878951"><ele>1137.0</ele><time>2026-05-02T08:14:26Z</time></trkpt><trkpt lat="46.34706340009164" lon="10.067654845777524"><ele>1134.0</ele><time>2026-05-02T08:14:27Z</time></trkpt><trkpt lat="46.347223864785384" lon="10.067759013467493"><ele>1131.0</ele><time>2026-05-02T08:14:28Z</time></trkpt><trkpt lat="46.34738845560152" lon="10.067858442203619"><ele>1128.0</ele><time>2026-05-02T08:14:29Z</time></trkpt><trkpt lat="46.34753959116425" lon="10.067954532054616"><ele>1128.0</ele><time>2026-05-02T08:14:30Z</time></trkpt><trkpt lat="46.347684540356255" lon="10.068045664892471"><ele>1128.0</ele><time>2026-05-02T08:14:31Z</time></trkpt><trkpt lat="46.3478279030764" lon="10.068127151238542"><ele>1128.0</ele><time>2026-05-02T08:14:32Z</time></trkpt><trkpt lat="46.34797716608825" lon="10.068183143356418"><ele>1126.6666666666667</ele><time>2026-05-02T08:14:33Z</time></trkpt><trkpt lat="46.34813104711485" lon="10.068196513691753"><ele>1125.3333333333335</ele><time>2026-05-02T08:14:34Z</time></trkpt><trkpt lat="46.348282204889586" lon="10.06817458168035"><ele>1124.0</ele><time>2026-05-02T08:14:35Z</time></trkpt><trkpt lat="46.34843671523537" lon="10.068144594098868"><ele>1124.0</ele><time>2026-05-02T08:14:36Z</time></trkpt><trkpt lat="46.348579283818374" lon="10.068149560277813"><ele>1124.0</ele><time>2026-05-02T08:14:37Z</time></trkpt><trkpt lat="46.348724386543566" lon="10.068179413416006"><ele>1124.0</ele><time>2026-05-02T08:14:38Z</time></trkpt><trkpt lat="46.34886285237404" lon="10.068217568314882"><ele>1124.0</ele><time>2026-05-02T08:14:39Z</time></trkpt><trkpt lat="46.34900444879258" lon="10.068259815449315"><ele>1131.25</ele><time>2026-05-02T08:14:40Z</time></trkpt><trkpt lat="46.34913169976676" lon="10.068321613568889"><ele>1138.5</ele><time>2026-05-02T08:14:41Z</time></trkpt><trkpt lat="46.34924463598902" lon="10.068418849825283"><ele>1145.75</ele><time>2026-05-02T08:14:42Z</time></trkpt><trkpt lat="46.34935647956365" lon="10.06849343572667"><ele>1153.0</ele><time>2026-05-02T08:14:43Z</time></trkpt><trkpt lat="46.34947369869337" lon="10.068575160469587"><ele>1153.0</ele><time>2026-05-02T08:14:44Z</time></trkpt><trkpt lat="46.34958741124085" lon="10.068649889175692"><ele>1153.0</ele><time>2026-05-02T08:14:45Z</time></trkpt><trkpt lat="46.34969376267849" lon="10.068746513787778"><ele>1153.0</ele><time>2026-05-02T08:14:46Z</time></trkpt><trkpt lat="46.34976720542324" lon="10.068900431901142"><ele>1153.0</ele><time>2026-05-02T08:14:47Z</time></trkpt><trkpt lat="46.34984079721689" lon="10.069067274867097"><ele>1154.6666666666665</ele><time>2026-05-02T08:14:48Z</time></trkpt><trkpt lat="46.34992029187513" lon="10.069240040254577"><ele>1156.3333333333333</ele><time>2026-05-02T08:14:49Z</time></trkpt><trkpt lat="46.35000796893143" lon="10.069434105233325"><ele>1158.0</ele><time>2026-05-02T08:14:50Z</time></trkpt><trkpt lat="46.35010501235409" lon="10.069594121420105"><ele>1158.0</ele><time>2026-05-02T08:14:51Z</time></trkpt><trkpt lat="46.35021134733746" lon="10.06969115491866"><ele>1158.0</ele><time>2026-05-02T08:14:52Z</time></trkpt><trkpt lat="46.35031514993544" lon="10.069760484343997"><ele>1158.0</ele><time>2026-05-02T08:14:53Z</time></trkpt><trkpt lat="46.35042443426953" lon="10.069813905970975"><ele>1158.0</ele><time>2026-05-02T08:14:54Z</time></trkpt><trkpt lat="46.35053718161973" lon="10.069857269843562"><ele>1159.75</ele><time>2026-05-02T08:14:55Z</time></trkpt><trkpt lat="46.35065230798924" lon="10.069908041796875"><ele>1161.5</ele><time>2026-05-02T08:14:56Z</time></trkpt><trkpt lat="46.35076021411212" lon="10.070005431579416"><ele>1163.25</ele><time>2026-05-02T08:14:57Z</time></trkpt><trkpt lat="46.35086429793038" lon="10.07011777688375"><ele>1165.0</ele><time>2026-05-02T08:14:58Z</time></trkpt><trkpt lat="46.35096510586115" lon="10.07025414385479"><ele>1165.0</ele><time>2026-05-02T08:14:59Z</time></trkpt><trkpt lat="46.351057296434746" lon="10.07039284591974"><ele>1165.0</ele><time>2026-05-02T08:15:00Z</time></trkpt><trkpt lat="46.35112475048895" lon="10.070562396911287"><ele>1165.0</ele><time>2026-05-02T08:15:01Z</time></trkpt><trkpt lat="46.351182233360596" lon="10.07073650523261"><ele>1165.0</ele><time>2026-05-02T08:15:02Z</time></trkpt><trkpt lat="46.35123671655695" lon="10.070903431689814"><ele>1163.5</ele><time>2026-05-02T08:15:03Z</time></trkpt><trkpt lat="46.35128254067086" lon="10.071076676493005"><ele>1162.0</ele><time>2026-05-02T08:15:04Z</time></trkpt><trkpt lat="46.351347564994256" lon="10.071244075116425"><ele>1160.5</ele><time>2026-05-02T08:15:05Z</time></trkpt><trkpt lat="46.35142411246783" lon="10.071396766632022"><ele>1159.0</ele><time>2026-05-02T08:15:06Z</time></trkpt><trkpt lat="46.351483167174216" lon="10.07155004623236"><ele>1164.0</ele><time>2026-05-02T08:15:07Z</time></trkpt><trkpt lat="46.35150508021202" lon="10.071712631235826"><ele>1169.0</ele><time>2026-05-02T08:15:08Z</time></trkpt><trkpt lat="46.351463044751995" lon="10.071870249371301"><ele>1174.0</ele><time>2026-05-02T08:15:09Z</time></trkpt><trkpt lat="46.35145881626953" lon="10.072042701779393"><ele>1179.0</ele><time>2026-05-02T08:15:10Z</time></trkpt><trkpt lat="46.35144485529177" lon="10.072192701073947"><ele>1179.0</ele><time>2026-05-02T08:15:11Z</time></trkpt><trkpt lat="46.3514737222224" lon="10.07234427984493"><ele>1179.0</ele><time>2026-05-02T08:15:12Z</time></trkpt><trkpt lat="46.351537909673446" lon="10.072483200331098"><ele>1179.0</ele><time>2026-05-02T08:15:13Z</time></trkpt><trkpt lat="46.35166936796763" lon="10.07257616119713"><ele>1179.0</ele><time>2026-05-02T08:15:14Z</time></trkpt><trkpt lat="46.35178178303883" lon="10.072667824517824"><ele>1182.75</ele><time>2026-05-02T08:15:14.999Z</time></trkpt><trkpt lat="46.35187175531351" lon="10.072786169723804"><ele>1186.5</ele><time>2026-05-02T08:15:15.999Z</time></trkpt><trkpt lat="46.351969070136136" lon="10.072895762034522"><ele>1190.25</ele><time>2026-05-02T08:15:16.999Z</time></trkpt><trkpt lat="46.352071938694536" lon="10.072993014141455"><ele>1194.0</ele><time>2026-05-02T08:15:17.999Z</time></trkpt><trkpt lat="46.35218415014005" lon="10.07307588724904"><ele>1194.5</ele><time>2026-05-02T08:15:18.999Z</time></trkpt><trkpt lat="46.35230754236464" lon="10.073151487507644"><ele>1195.0</ele><time>2026-05-02T08:15:19.999Z</time></trkpt><trkpt lat="46.35241754603064" lon="10.073260002448583"><ele>1195.5</ele><time>2026-05-02T08:15:20.999Z</time></trkpt><trkpt lat="46.35251300957855" lon="10.073412493470466"><ele>1196.0</ele><time>2026-05-02T08:15:21.999Z</time></trkpt><trkpt lat="46.352584098973765" lon="10.073622722612049"><ele>1196.0</ele><time>2026-05-02T08:15:22.999Z</time></trkpt><trkpt lat="46.35260923279174" lon="10.073825742036572"><ele>1196.0</ele><time>2026-05-02T08:15:23.999Z</time></trkpt><trkpt lat="46.35263930230855" lon="10.074026676268552"><ele>1196.0</ele><time>2026-05-02T08:15:24.999Z</time></trkpt><trkpt lat="46.35263910979063" lon="10.07422864711273"><ele>1196.0</ele><time>2026-05-02T08:15:25.999Z</time></trkpt><trkpt lat="46.35265917259475" lon="10.07442462161"><ele>1201.75</ele><time>2026-05-02T08:15:26.999Z</time></trkpt><trkpt lat="46.35268919200035" lon="10.074626195425887"><ele>1207.5</ele><time>2026-05-02T08:15:28.02Z</time></trkpt><trkpt lat="46.35271823136036" lon="10.074821224432664"><ele>1213.25</ele><time>2026-05-02T08:15:29.02Z</time></trkpt><trkpt lat="46.35279562195999" lon="10.074960337311913"><ele>1219.0</ele><time>2026-05-02T08:15:30.018Z</time></trkpt><trkpt lat="46.35287633715033" lon="10.075044600554133"><ele>1216.0</ele><time>2026-05-02T08:15:31.021Z</time></trkpt><trkpt lat="46.35295363114855" lon="10.075127114322802"><ele>1213.0</ele><time>2026-05-02T08:15:32.012Z</time></trkpt><trkpt lat="46.3536614537947" lon="10.075488782257484"><ele>1213.0</ele><time>2026-05-02T08:15:36.999Z</time></trkpt><trkpt lat="46.35383990742206" lon="10.075595961252933"><ele>1213.0</ele><time>2026-05-02T08:15:37.999Z</time></trkpt><trkpt lat="46.35401478921625" lon="10.075641393711757"><ele>1213.0</ele><time>2026-05-02T08:15:38.999Z</time></trkpt><trkpt lat="46.35417228843597" lon="10.075718343297769"><ele>1223.3333333333333</ele><time>2026-05-02T08:15:39.999Z</time></trkpt><trkpt lat="46.35432840895919" lon="10.0758474038055"><ele>1233.6666666666667</ele><time>2026-05-02T08:15:40.999Z</time></trkpt><trkpt lat="46.35442487021833" lon="10.076006977815533"><ele>1244.0</ele><time>2026-05-02T08:15:41.999Z</time></trkpt><trkpt lat="46.35457643799666" lon="10.076127429655157"><ele>1234.3333333333335</ele><time>2026-05-02T08:15:42.999Z</time></trkpt><trkpt lat="46.35472420798251" lon="10.076239105429163"><ele>1224.6666666666667</ele><time>2026-05-02T08:15:43.999Z</time></trkpt><trkpt lat="46.35487889880441" lon="10.076359089218442"><ele>1215.0</ele><time>2026-05-02T08:15:44.999Z</time></trkpt><trkpt lat="46.35501031502814" lon="10.07647084850576"><ele>1215.0</ele><time>2026-05-02T08:15:45.999Z</time></trkpt><trkpt lat="46.35513204020831" lon="10.076583689627984"><ele>1215.0</ele><time>2026-05-02T08:15:46.999Z</time></trkpt><trkpt lat="46.355238838499275" lon="10.076690827152719"><ele>1215.0</ele><time>2026-05-02T08:15:47.999Z</time></trkpt><trkpt lat="46.35534546138638" lon="10.076805051410188"><ele>1215.0</ele><time>2026-05-02T08:15:48.999Z</time></trkpt><trkpt lat="46.355461174631564" lon="10.076944977553628"><ele>1219.0</ele><time>2026-05-02T08:15:49.999Z</time></trkpt><trkpt lat="46.35557685106897" lon="10.077059781794107"><ele>1223.0</ele><time>2026-05-02T08:15:50.999Z</time></trkpt><trkpt lat="46.355702145302516" lon="10.077151498280932"><ele>1227.0</ele><time>2026-05-02T08:15:51.999Z</time></trkpt><trkpt lat="46.35583172591103" lon="10.07725834968561"><ele>1231.0</ele><time>2026-05-02T08:15:52.999Z</time></trkpt><trkpt lat="46.35596811325607" lon="10.07734347074442"><ele>1231.0</ele><time>2026-05-02T08:15:53.999Z</time></trkpt><trkpt lat="46.356111593329395" lon="10.077398454070549"><ele>1231.0</ele><time>2026-05-02T08:15:54.999Z</time></trkpt><trkpt lat="46.35625737620586" lon="10.077443183936673"><ele>1231.0</ele><time>2026-05-02T08:15:55.999Z</time></trkpt><trkpt lat="46.35640859458339" lon="10.077487933871021"><ele>1237.0</ele><time>2026-05-02T08:15:56.999Z</time></trkpt><trkpt lat="46.356549143703276" lon="10.077540342740148"><ele>1243.0</ele><time>2026-05-02T08:15:57.999Z</time></trkpt><trkpt lat="46.35668796039994" lon="10.077592479417614"><ele>1249.0</ele><time>2026-05-02T08:15:58.999Z</time></trkpt><trkpt lat="46.356837334874356" lon="10.077630446189389"><ele>1255.0</ele><time>2026-05-02T08:15:59.999Z</time></trkpt><trkpt lat="46.356977626027145" lon="10.077655117695322"><ele>1255.0</ele><time>2026-05-02T08:16:00.999Z</time></trkpt><trkpt lat="46.35710576637562" lon="10.07767176779743"><ele>1255.0</ele><time>2026-05-02T08:16:01.999Z</time></trkpt><trkpt lat="46.35721970603351" lon="10.077680788280665"><ele>1255.0</ele><time>2026-05-02T08:16:02.999Z</time></trkpt><trkpt lat="46.357321656782794" lon="10.077699237933274"><ele>1255.0</ele><time>2026-05-02T08:16:03.999Z</time></trkpt><trkpt lat="46.35741944287264" lon="10.077727604075815"><ele>1255.0</ele><time>2026-05-02T08:16:04.999Z</time></trkpt><trkpt lat="46.35750868124018" lon="10.077732739777566"><ele>1254.1666666666665</ele><time>2026-05-02T08:16:05.999Z</time></trkpt><trkpt lat="46.35758868953333" lon="10.077730177928796"><ele>1253.3333333333333</ele><time>2026-05-02T08:16:06.999Z</time></trkpt><trkpt lat="46.357671518500965" lon="10.07771053708245"><ele>1252.5</ele><time>2026-05-02T08:16:07.999Z</time></trkpt><trkpt lat="46.3577636697861" lon="10.07769388275893"><ele>1251.6666666666667</ele><time>2026-05-02T08:16:08.999Z</time></trkpt><trkpt lat="46.35784620940148" lon="10.077685853282874"><ele>1250.8333333333335</ele><time>2026-05-02T08:16:09.999Z</time></trkpt><trkpt lat="46.35793119190353" lon="10.077678954605085"><ele>1250.0</ele><time>2026-05-02T08:16:10.999Z</time></trkpt><trkpt lat="46.35801005958466" lon="10.077696554866497"><ele>1250.0</ele><time>2026-05-02T08:16:11.999Z</time></trkpt><trkpt lat="46.35809270253021" lon="10.077747066919946"><ele>1250.0</ele><time>2026-05-02T08:16:12.999Z</time></trkpt><trkpt lat="46.358166303494734" lon="10.077822591344352"><ele>1250.0</ele><time>2026-05-02T08:16:13.999Z</time></trkpt><trkpt lat="46.358211488057755" lon="10.07793193251913"><ele>1250.0</ele><time>2026-05-02T08:16:14.999Z</time></trkpt><trkpt lat="46.35826414877899" lon="10.078039443344375"><ele>1250.0</ele><time>2026-05-02T08:16:15.999Z</time></trkpt><trkpt lat="46.35832034779327" lon="10.078149008515148"><ele>1258.6</ele><time>2026-05-02T08:16:16.999Z</time></trkpt><trkpt lat="46.35840109593934" lon="10.078279379150503"><ele>1267.2</ele><time>2026-05-02T08:16:17.999Z</time></trkpt><trkpt lat="46.35845264937536" lon="10.078377390436218"><ele>1275.8000000000002</ele><time>2026-05-02T08:16:18.999Z</time></trkpt><trkpt lat="46.35850556891927" lon="10.078467418472846"><ele>1284.4</ele><time>2026-05-02T08:16:19.999Z</time></trkpt><trkpt lat="46.358576654162206" lon="10.078537508821038"><ele>1293.0</ele><time>2026-05-02T08:16:20.999Z</time></trkpt><trkpt lat="46.35866549180889" lon="10.078572290180999"><ele>1293.0</ele><time>2026-05-02T08:16:21.999Z</time></trkpt><trkpt lat="46.35875992353112" lon="10.078574514497987"><ele>1293.0</ele><time>2026-05-02T08:16:22.999Z</time></trkpt><trkpt lat="46.35884831130508" lon="10.078571736198336"><ele>1293.0</ele><time>2026-05-02T08:16:23.998Z</time></trkpt><trkpt lat="46.3589435804599" lon="10.078571723979273"><ele>1293.0</ele><time>2026-05-02T08:16:24.998Z</time></trkpt><trkpt lat="46.359059619070315" lon="10.078568242311952"><ele>1293.0</ele><time>2026-05-02T08:16:25.998Z</time></trkpt><trkpt lat="46.35916844727953" lon="10.07856594075304"><ele>1291.6000000000001</ele><time>2026-05-02T08:16:26.998Z</time></trkpt><trkpt lat="46.35926955822855" lon="10.078558280602987"><ele>1290.2</ele><time>2026-05-02T08:16:27.998Z</time></trkpt><trkpt lat="46.359372794452" lon="10.078552316450457"><ele>1288.8</ele><time>2026-05-02T08:16:28.998Z</time></trkpt><trkpt lat="46.35948575939214" lon="10.078552146417136"><ele>1287.4</ele><time>2026-05-02T08:16:29.998Z</time></trkpt><trkpt lat="46.35959847805527" lon="10.078534427913285"><ele>1286.0</ele><time>2026-05-02T08:16:30.998Z</time></trkpt><trkpt lat="46.35971411703351" lon="10.078501128606726"><ele>1286.0</ele><time>2026-05-02T08:16:32Z</time></trkpt><trkpt lat="46.359823060763965" lon="10.07847755264831"><ele>1286.0</ele><time>2026-05-02T08:16:33Z</time></trkpt><trkpt lat="46.35993328254599" lon="10.07847785845739"><ele>1286.0</ele><time>2026-05-02T08:16:34Z</time></trkpt><trkpt lat="46.360062255223774" lon="10.078493230084947"><ele>1286.0</ele><time>2026-05-02T08:16:35Z</time></trkpt><trkpt lat="46.360192311032925" lon="10.078513835056949"><ele>1286.0</ele><time>2026-05-02T08:16:36Z</time></trkpt><trkpt lat="46.36029575572044" lon="10.078550682426108"><ele>1286.0</ele><time>2026-05-02T08:16:37Z</time></trkpt><trkpt lat="46.36039960531539" lon="10.07856849877724"><ele>1286.0</ele><time>2026-05-02T08:16:38Z</time></trkpt><trkpt lat="46.36050011032049" lon="10.07855550628862"><ele>1286.0</ele><time>2026-05-02T08:16:39Z</time></trkpt><trkpt lat="46.36060515321757" lon="10.078528915679005"><ele>1286.0</ele><time>2026-05-02T08:16:40Z</time></trkpt><trkpt lat="46.360710460788304" lon="10.078505077904115"><ele>1283.3999999999999</ele><time>2026-05-02T08:16:41Z</time></trkpt><trkpt lat="46.36080663928989" lon="10.078471108766093"><ele>1280.8</ele><time>2026-05-02T08:16:42Z</time></trkpt><trkpt lat="46.360899460873696" lon="10.0784285308233"><ele>1278.1999999999998</ele><time>2026-05-02T08:16:43Z</time></trkpt><trkpt lat="46.36098969022218" lon="10.078379548276056"><ele>1275.6</ele><time>2026-05-02T08:16:44Z</time></trkpt><trkpt lat="46.36104986029415" lon="10.07832039912622"><ele>1273.0</ele><time>2026-05-02T08:16:45Z</time></trkpt><trkpt lat="46.36112031945896" lon="10.078208464594445"><ele>1273.0</ele><time>2026-05-02T08:16:46Z</time></trkpt><trkpt lat="46.36117957621076" lon="10.07808233220591"><ele>1273.0</ele><time>2026-05-02T08:16:47Z</time></trkpt><trkpt lat="46.36123393870593" lon="10.077944673537738"><ele>1273.0</ele><time>2026-05-02T08:16:48Z</time></trkpt><trkpt lat="46.36131012483608" lon="10.077829418019057"><ele>1273.0</ele><time>2026-05-02T08:16:49Z</time></trkpt><trkpt lat="46.36141101575161" lon="10.077736073329948"><ele>1273.0</ele><time>2026-05-02T08:16:50Z</time></trkpt><trkpt lat="46.36149909870669" lon="10.077652850674522"><ele>1281.25</ele><time>2026-05-02T08:16:51Z</time></trkpt><trkpt lat="46.36159906043785" lon="10.07756837738552"><ele>1289.5</ele><time>2026-05-02T08:16:52Z</time></trkpt><trkpt lat="46.36171509086835" lon="10.077516212396377"><ele>1297.75</ele><time>2026-05-02T08:16:53Z</time></trkpt><trkpt lat="46.36182592808971" lon="10.077507211183052"><ele>1306.0</ele><time>2026-05-02T08:16:54Z</time></trkpt><trkpt lat="46.361940587674724" lon="10.077479212545429"><ele>1304.3333333333333</ele><time>2026-05-02T08:16:55Z</time></trkpt><trkpt lat="46.36213815325454" lon="10.07741534921961"><ele>1302.6666666666667</ele><time>2026-05-02T08:16:56Z</time></trkpt><trkpt lat="46.36232490227455" lon="10.077287777159341"><ele>1301.0</ele><time>2026-05-02T08:16:57Z</time></trkpt><trkpt lat="46.362513147579136" lon="10.077171010948675"><ele>1301.0</ele><time>2026-05-02T08:16:58Z</time></trkpt><trkpt lat="46.362735793017585" lon="10.076986311845609"><ele>1301.0</ele><time>2026-05-02T08:16:59Z</time></trkpt><trkpt lat="46.362988885867885" lon="10.076870164200589"><ele>1318.0</ele><time>2026-05-02T08:17:00Z</time></trkpt><trkpt lat="46.3632430920582" lon="10.076726925411005"><ele>1335.0</ele><time>2026-05-02T08:17:01Z</time></trkpt><trkpt lat="46.363480203305016" lon="10.07660344083544"><ele>1331.6666666666667</ele><time>2026-05-02T08:17:02Z</time></trkpt><trkpt lat="46.363695360870956" lon="10.076497488423279"><ele>1328.3333333333335</ele><time>2026-05-02T08:17:03Z</time></trkpt><trkpt lat="46.3638901204321" lon="10.076407504797281"><ele>1325.0</ele><time>2026-05-02T08:17:04Z</time></trkpt><trkpt lat="46.36406506936882" lon="10.076325736079706"><ele>1325.0</ele><time>2026-05-02T08:17:05Z</time></trkpt><trkpt lat="46.36424102030092" lon="10.07622299962031"><ele>1325.0</ele><time>2026-05-02T08:17:06Z</time></trkpt><trkpt lat="46.364442278786456" lon="10.076144798871395"><ele>1325.0</ele><time>2026-05-02T08:17:07Z</time></trkpt><trkpt lat="46.364620237798164" lon="10.076066372936126"><ele>1324.0</ele><time>2026-05-02T08:17:08Z</time></trkpt><trkpt lat="46.36478328280554" lon="10.075981068530368"><ele>1323.0</ele><time>2026-05-02T08:17:09Z</time></trkpt><trkpt lat="46.36491757040303" lon="10.075890959012405"><ele>1322.0</ele><time>2026-05-02T08:17:10Z</time></trkpt><trkpt lat="46.36505821470001" lon="10.075727202897575"><ele>1322.0</ele><time>2026-05-02T08:17:11Z</time></trkpt><trkpt lat="46.365196301377765" lon="10.07561007734378"><ele>1322.0</ele><time>2026-05-02T08:17:12Z</time></trkpt><trkpt lat="46.365336021915084" lon="10.0755110973578"><ele>1322.0</ele><time>2026-05-02T08:17:13Z</time></trkpt><trkpt lat="46.36548263025286" lon="10.075421931443746"><ele>1330.6666666666667</ele><time>2026-05-02T08:17:14Z</time></trkpt><trkpt lat="46.36562764160553" lon="10.075320547303813"><ele>1339.3333333333333</ele><time>2026-05-02T08:17:15Z</time></trkpt><trkpt lat="46.365808843031814" lon="10.075236428503317"><ele>1348.0</ele><time>2026-05-02T08:17:16Z</time></trkpt><trkpt lat="46.36595923411235" lon="10.075164433959692"><ele>1348.0</ele><time>2026-05-02T08:17:17Z</time></trkpt><trkpt lat="46.36610080234427" lon="10.07508121669154"><ele>1348.0</ele><time>2026-05-02T08:17:18Z</time></trkpt><trkpt lat="46.36623355895154" lon="10.074957066892665"><ele>1348.0</ele><time>2026-05-02T08:17:19Z</time></trkpt><trkpt lat="46.36637200976817" lon="10.074823995725067"><ele>1350.0</ele><time>2026-05-02T08:17:20Z</time></trkpt><trkpt lat="46.36649849138592" lon="10.074693222193913"><ele>1352.0</ele><time>2026-05-02T08:17:21Z</time></trkpt><trkpt lat="46.36662733983495" lon="10.074600578907122"><ele>1354.0</ele><time>2026-05-02T08:17:22Z</time></trkpt><trkpt lat="46.36669133055519" lon="10.074609699509626"><ele>1356.0</ele><time>2026-05-02T08:17:23Z</time></trkpt><trkpt lat="46.36709837328848" lon="10.07435046854758"><ele>1364.3333333333333</ele><time>2026-05-02T08:17:25Z</time></trkpt><trkpt lat="46.367291675909364" lon="10.074269415234497"><ele>1372.6666666666665</ele><time>2026-05-02T08:17:26Z</time></trkpt><trkpt lat="46.3674660269587" lon="10.074166885320096"><ele>1381.0</ele><time>2026-05-02T08:17:26.999Z</time></trkpt><trkpt lat="46.36759962370658" lon="10.07411090784672"><ele>1375.5</ele><time>2026-05-02T08:17:27.999Z</time></trkpt><trkpt lat="46.36767065784719" lon="10.074048010009381"><ele>1370.0</ele><time>2026-05-02T08:17:28.999Z</time></trkpt><trkpt lat="46.36776465234999" lon="10.073957170635632"><ele>1364.5</ele><time>2026-05-02T08:17:29.999Z</time></trkpt><trkpt lat="46.36785990523014" lon="10.073847299207706"><ele>1359.0</ele><time>2026-05-02T08:17:30.999Z</time></trkpt><trkpt lat="46.36795743179114" lon="10.073712854819806"><ele>1359.0</ele><time>2026-05-02T08:17:31.999Z</time></trkpt><trkpt lat="46.3680115673562" lon="10.073510924510694"><ele>1359.0</ele><time>2026-05-02T08:17:32.999Z</time></trkpt><trkpt lat="46.36808619257108" lon="10.073335807404954"><ele>1359.0</ele><time>2026-05-02T08:17:33.999Z</time></trkpt><trkpt lat="46.368157139128975" lon="10.073156064646582"><ele>1359.0</ele><time>2026-05-02T08:17:34.999Z</time></trkpt><trkpt lat="46.3682174454905" lon="10.073007693826932"><ele>1361.75</ele><time>2026-05-02T08:17:35.999Z</time></trkpt><trkpt lat="46.3682818633315" lon="10.072863259851754"><ele>1364.5</ele><time>2026-05-02T08:17:36.999Z</time></trkpt><trkpt lat="46.36836605593662" lon="10.072733136345482"><ele>1367.25</ele><time>2026-05-02T08:17:37.999Z</time></trkpt><trkpt lat="46.368485088689276" lon="10.072634262372242"><ele>1370.0</ele><time>2026-05-02T08:17:38.999Z</time></trkpt><trkpt lat="46.3686098295969" lon="10.072558748146136"><ele>1370.0</ele><time>2026-05-02T08:17:39.999Z</time></trkpt><trkpt lat="46.368734749895836" lon="10.072448623810963"><ele>1370.0</ele><time>2026-05-02T08:17:40.999Z</time></trkpt><trkpt lat="46.368857454272565" lon="10.072311939123225"><ele>1370.0</ele><time>2026-05-02T08:17:41.999Z</time></trkpt><trkpt lat="46.36896423812888" lon="10.072157970201454"><ele>1370.0</ele><time>2026-05-02T08:17:42.999Z</time></trkpt><trkpt lat="46.369056111676606" lon="10.072024375498774"><ele>1370.0</ele><time>2026-05-02T08:17:43.999Z</time></trkpt><trkpt lat="46.36914368971243" lon="10.071902431361233"><ele>1370.0</ele><time>2026-05-02T08:17:44.999Z</time></trkpt><trkpt lat="46.36924619491166" lon="10.07175222071005"><ele>1370.0</ele><time>2026-05-02T08:17:45.999Z</time></trkpt><trkpt lat="46.36936551474857" lon="10.071584871656528"><ele>1370.0</ele><time>2026-05-02T08:17:46.999Z</time></trkpt><trkpt lat="46.369497238019896" lon="10.071487322364138"><ele>1370.0</ele><time>2026-05-02T08:17:47.999Z</time></trkpt><trkpt lat="46.3695713393973" lon="10.071438384854464"><ele>1370.0</ele><time>2026-05-02T08:17:48.999Z</time></trkpt><trkpt lat="46.369734399793714" lon="10.071363502744282"><ele>1370.0</ele><time>2026-05-02T08:17:49.999Z</time></trkpt><trkpt lat="46.36989382394536" lon="10.071270455981429"><ele>1378.0</ele><time>2026-05-02T08:17:50.999Z</time></trkpt><trkpt lat="46.37007161198231" lon="10.071178582516756"><ele>1386.0</ele><time>2026-05-02T08:17:51.999Z</time></trkpt><trkpt lat="46.370204951912854" lon="10.07110757615121"><ele>1394.0</ele><time>2026-05-02T08:17:52.999Z</time></trkpt><trkpt lat="46.370371701682544" lon="10.071021521219906"><ele>1395.3333333333335</ele><time>2026-05-02T08:17:53.999Z</time></trkpt><trkpt lat="46.37053346166112" lon="10.070949094930107"><ele>1396.6666666666667</ele><time>2026-05-02T08:17:54.999Z</time></trkpt><trkpt lat="46.37064056672107" lon="10.070851445182255"><ele>1398.0</ele><time>2026-05-02T08:17:55.999Z</time></trkpt><trkpt lat="46.370828765569904" lon="10.070703045794774"><ele>1398.0</ele><time>2026-05-02T08:17:56.999Z</time></trkpt><trkpt lat="46.370958296365984" lon="10.070507827421618"><ele>1398.0</ele><time>2026-05-02T08:17:57.999Z</time></trkpt><trkpt lat="46.371061729937885" lon="10.070345784800715"><ele>1398.0</ele><time>2026-05-02T08:17:58.999Z</time></trkpt><trkpt lat="46.37115996094685" lon="10.07019677496489"><ele>1398.0</ele><time>2026-05-02T08:17:59.999Z</time></trkpt><trkpt lat="46.37124148690899" lon="10.070037061393707"><ele>1398.0</ele><time>2026-05-02T08:18:00.999Z</time></trkpt><trkpt lat="46.37142042404104" lon="10.06985330780952"><ele>1398.0</ele><time>2026-05-02T08:18:01.999Z</time></trkpt><trkpt lat="46.37156079886151" lon="10.069740627328217"><ele>1397.0</ele><time>2026-05-02T08:18:02.999Z</time></trkpt><trkpt lat="46.37170373133047" lon="10.069659887511687"><ele>1396.0</ele><time>2026-05-02T08:18:03.999Z</time></trkpt><trkpt lat="46.371855918444034" lon="10.069582056607185"><ele>1395.0</ele><time>2026-05-02T08:18:04.999Z</time></trkpt><trkpt lat="46.37203244868959" lon="10.069491901904211"><ele>1403.0</ele><time>2026-05-02T08:18:05.999Z</time></trkpt><trkpt lat="46.372228447371675" lon="10.06939235733017"><ele>1411.0</ele><time>2026-05-02T08:18:06.999Z</time></trkpt><trkpt lat="46.372427301136206" lon="10.069295096687338"><ele>1419.0</ele><time>2026-05-02T08:18:07.999Z</time></trkpt><trkpt lat="46.3726204354015" lon="10.069212713819004"><ele>1419.0</ele><time>2026-05-02T08:18:08.999Z</time></trkpt><trkpt lat="46.37281312474587" lon="10.069158373731192"><ele>1419.0</ele><time>2026-05-02T08:18:09.999Z</time></trkpt><trkpt lat="46.37299246313655" lon="10.069081947059296"><ele>1419.0</ele><time>2026-05-02T08:18:10.999Z</time></trkpt><trkpt lat="46.37317649929405" lon="10.068951949659064"><ele>1416.6666666666667</ele><time>2026-05-02T08:18:11.999Z</time></trkpt><trkpt lat="46.37335592892429" lon="10.068885650277688"><ele>1414.3333333333335</ele><time>2026-05-02T08:18:12.999Z</time></trkpt><trkpt lat="46.37352290138335" lon="10.068864431131407"><ele>1412.0</ele><time>2026-05-02T08:18:13.999Z</time></trkpt><trkpt lat="46.373698732860355" lon="10.068841961996455"><ele>1419.0</ele><time>2026-05-02T08:18:14.999Z</time></trkpt><trkpt lat="46.37387130474616" lon="10.068816106953475"><ele>1426.0</ele><time>2026-05-02T08:18:15.999Z</time></trkpt><trkpt lat="46.37405707640611" lon="10.068756820247012"><ele>1433.0</ele><time>2026-05-02T08:18:16.999Z</time></trkpt><trkpt lat="46.37423323238791" lon="10.068677996230058"><ele>1433.0</ele><time>2026-05-02T08:18:17.999Z</time></trkpt><trkpt lat="46.374410000130794" lon="10.068553828837343"><ele>1433.0</ele><time>2026-05-02T08:18:18.999Z</time></trkpt><trkpt lat="46.37454734617626" lon="10.068419555261395"><ele>1433.0</ele><time>2026-05-02T08:18:19.999Z</time></trkpt><trkpt lat="46.3746973515831" lon="10.068286000018471"><ele>1440.3333333333335</ele><time>2026-05-02T08:18:20.999Z</time></trkpt><trkpt lat="46.37487127631574" lon="10.068269405767385"><ele>1447.6666666666667</ele><time>2026-05-02T08:18:21.999Z</time></trkpt><trkpt lat="46.37505004708692" lon="10.06831303423888"><ele>1455.0</ele><time>2026-05-02T08:18:22.999Z</time></trkpt><trkpt lat="46.3752024858427" lon="10.06836469343986"><ele>1455.0</ele><time>2026-05-02T08:18:23.999Z</time></trkpt><trkpt lat="46.3754173661314" lon="10.068437115181215"><ele>1455.0</ele><time>2026-05-02T08:18:24.999Z</time></trkpt><trkpt lat="46.37561838191431" lon="10.068504185785145"><ele>1455.0</ele><time>2026-05-02T08:18:25.999Z</time></trkpt><trkpt lat="46.37580282685997" lon="10.068577367801007"><ele>1453.6666666666667</ele><time>2026-05-02T08:18:26.999Z</time></trkpt><trkpt lat="46.37598854212778" lon="10.068670355576947"><ele>1452.3333333333335</ele><time>2026-05-02T08:18:27.999Z</time></trkpt><trkpt lat="46.376159534530814" lon="10.068766722010242"><ele>1451.0</ele><time>2026-05-02T08:18:28.999Z</time></trkpt><trkpt lat="46.376317674091595" lon="10.06887226802018"><ele>1445.6666666666667</ele><time>2026-05-02T08:18:29.999Z</time></trkpt><trkpt lat="46.37644976874712" lon="10.068991465973545"><ele>1440.3333333333333</ele><time>2026-05-02T08:18:30.999Z</time></trkpt><trkpt lat="46.37656892496794" lon="10.069124230517575"><ele>1435.0</ele><time>2026-05-02T08:18:31.999Z</time></trkpt><trkpt lat="46.37669860259366" lon="10.069293926520698"><ele>1447.3333333333333</ele><time>2026-05-02T08:18:32.999Z</time></trkpt><trkpt lat="46.376832788189844" lon="10.069477048345346"><ele>1459.6666666666667</ele><time>2026-05-02T08:18:33.998Z</time></trkpt><trkpt lat="46.37697586331611" lon="10.06962323736609"><ele>1472.0</ele><time>2026-05-02T08:18:34.998Z</time></trkpt><trkpt lat="46.37712141810145" lon="10.069682741444415"><ele>1473.6</ele><time>2026-05-02T08:18:35.998Z</time></trkpt><trkpt lat="46.377246467454405" lon="10.069739854678748"><ele>1475.1999999999998</ele><time>2026-05-02T08:18:36.998Z</time></trkpt><trkpt lat="46.377355733922066" lon="10.069786417999484"><ele>1476.8</ele><time>2026-05-02T08:18:38Z</time></trkpt><trkpt lat="46.377455230153714" lon="10.069820399332288"><ele>1478.4</ele><time>2026-05-02T08:18:39Z</time></trkpt><trkpt lat="46.3775331590353" lon="10.069879928724927"><ele>1480.0</ele><time>2026-05-02T08:18:40Z</time></trkpt><trkpt lat="46.37758258812583" lon="10.069954428278978"><ele>1480.0</ele><time>2026-05-02T08:18:41Z</time></trkpt><trkpt lat="46.37759729537539" lon="10.070062793086487"><ele>1480.0</ele><time>2026-05-02T08:18:42Z</time></trkpt><trkpt lat="46.37765068864005" lon="10.07017947255195"><ele>1480.0</ele><time>2026-05-02T08:18:44Z</time></trkpt><trkpt lat="46.377638308229685" lon="10.07027355103609"><ele>1480.0</ele><time>2026-05-02T08:18:47Z</time></trkpt><trkpt lat="46.37771802878618" lon="10.070346389648154"><ele>1480.0</ele><time>2026-05-02T08:20:14.999Z</time></trkpt><trkpt lat="46.37778370129685" lon="10.070484570943334"><ele>1480.0</ele><time>2026-05-02T08:20:16.999Z</time></trkpt><trkpt lat="46.377835999749124" lon="10.07060802667607"><ele>1480.0</ele><time>2026-05-02T08:20:17.999Z</time></trkpt><trkpt lat="46.37792605762759" lon="10.070744449999136"><ele>1480.0</ele><time>2026-05-02T08:20:18.999Z</time></trkpt><trkpt lat="46.378037284084584" lon="10.07083033299516"><ele>1480.0</ele><time>2026-05-02T08:20:19.999Z</time></trkpt><trkpt lat="46.37816461823486" lon="10.07091592755928"><ele>1480.0</ele><time>2026-05-02T08:20:20.999Z</time></trkpt><trkpt lat="46.37829456903795" lon="10.070918639437231"><ele>1481.75</ele><time>2026-05-02T08:20:21.999Z</time></trkpt><trkpt lat="46.37845837796875" lon="10.070963395083357"><ele>1483.5</ele><time>2026-05-02T08:20:22.999Z</time></trkpt><trkpt lat="46.37855332447824" lon="10.071047847903262"><ele>1485.25</ele><time>2026-05-02T08:20:23.999Z</time></trkpt><trkpt lat="46.378635465591195" lon="10.071197985544442"><ele>1487.0</ele><time>2026-05-02T08:20:24.999Z</time></trkpt><trkpt lat="46.378731936611906" lon="10.07131534750196"><ele>1487.0</ele><time>2026-05-02T08:20:25.999Z</time></trkpt><trkpt lat="46.37881499769341" lon="10.071413910138622"><ele>1487.0</ele><time>2026-05-02T08:20:26.999Z</time></trkpt><trkpt lat="46.37890263133595" lon="10.071492327444489"><ele>1487.0</ele><time>2026-05-02T08:20:27.999Z</time></trkpt><trkpt lat="46.37900208234888" lon="10.071575685243792"><ele>1487.0</ele><time>2026-05-02T08:20:28.999Z</time></trkpt><trkpt lat="46.379091809443466" lon="10.071698779034167"><ele>1487.0</ele><time>2026-05-02T08:20:29.999Z</time></trkpt><trkpt lat="46.37913440333862" lon="10.071839078699467"><ele>1488.3999999999999</ele><time>2026-05-02T08:20:30.999Z</time></trkpt><trkpt lat="46.379183591309335" lon="10.071956693392059"><ele>1489.8</ele><time>2026-05-02T08:20:31.999Z</time></trkpt><trkpt lat="46.37923533907814" lon="10.072065680103513"><ele>1491.2</ele><time>2026-05-02T08:20:32.999Z</time></trkpt><trkpt lat="46.379284524500044" lon="10.072197151812102"><ele>1492.6</ele><time>2026-05-02T08:20:33.999Z</time></trkpt><trkpt lat="46.37932699290667" lon="10.072384904294568"><ele>1494.0</ele><time>2026-05-02T08:20:34.999Z</time></trkpt><trkpt lat="46.37937050940013" lon="10.072595103049567"><ele>1504.3333333333333</ele><time>2026-05-02T08:20:35.999Z</time></trkpt><trkpt lat="46.37942714823041" lon="10.072785996497787"><ele>1514.6666666666665</ele><time>2026-05-02T08:20:36.998Z</time></trkpt><trkpt lat="46.37951694082738" lon="10.07296126890036"><ele>1525.0</ele><time>2026-05-02T08:20:37.998Z</time></trkpt><trkpt lat="46.379644424540366" lon="10.073126208069779"><ele>1524.0</ele><time>2026-05-02T08:20:38.998Z</time></trkpt><trkpt lat="46.37978366329479" lon="10.073259762469162"><ele>1523.0</ele><time>2026-05-02T08:20:39.998Z</time></trkpt><trkpt lat="46.379948258703536" lon="10.073384614098353"><ele>1522.0</ele><time>2026-05-02T08:20:40.998Z</time></trkpt><trkpt lat="46.38011182857962" lon="10.073513036227883"><ele>1522.0</ele><time>2026-05-02T08:20:41.998Z</time></trkpt><trkpt lat="46.380292986373455" lon="10.073630251735832"><ele>1522.0</ele><time>2026-05-02T08:20:42.998Z</time></trkpt><trkpt lat="46.38048498031767" lon="10.073735952811901"><ele>1522.0</ele><time>2026-05-02T08:20:44Z</time></trkpt><trkpt lat="46.38066667052399" lon="10.073823759736952"><ele>1513.3333333333333</ele><time>2026-05-02T08:20:45Z</time></trkpt><trkpt lat="46.38082814450061" lon="10.07391396915583"><ele>1504.6666666666667</ele><time>2026-05-02T08:20:46Z</time></trkpt><trkpt lat="46.380989176486054" lon="10.074010108701568"><ele>1496.0</ele><time>2026-05-02T08:20:47Z</time></trkpt><trkpt lat="46.38114223625728" lon="10.074097330052496"><ele>1503.75</ele><time>2026-05-02T08:20:48Z</time></trkpt><trkpt lat="46.38128043127286" lon="10.074167797465764"><ele>1511.5</ele><time>2026-05-02T08:20:49Z</time></trkpt><trkpt lat="46.38143077856887" lon="10.074191347554107"><ele>1519.25</ele><time>2026-05-02T08:20:50Z</time></trkpt><trkpt lat="46.381581178879536" lon="10.074186180314229"><ele>1527.0</ele><time>2026-05-02T08:20:51Z</time></trkpt><trkpt lat="46.38173911759734" lon="10.074180189998351"><ele>1527.0</ele><time>2026-05-02T08:20:52Z</time></trkpt><trkpt lat="46.381897292805355" lon="10.074160601295082"><ele>1527.0</ele><time>2026-05-02T08:20:53Z</time></trkpt><trkpt lat="46.382041643003845" lon="10.074139036278922"><ele>1527.0</ele><time>2026-05-02T08:20:54Z</time></trkpt><trkpt lat="46.38221752056774" lon="10.074088019776319"><ele>1522.3333333333333</ele><time>2026-05-02T08:20:55Z</time></trkpt><trkpt lat="46.3823827968343" lon="10.073994707625218"><ele>1517.6666666666665</ele><time>2026-05-02T08:20:56Z</time></trkpt><trkpt lat="46.38252405080929" lon="10.073914088684203"><ele>1513.0</ele><time>2026-05-02T08:20:57Z</time></trkpt><trkpt lat="46.38265815913183" lon="10.073918391852303"><ele>1513.0</ele><time>2026-05-02T08:20:58Z</time></trkpt><trkpt lat="46.382813646599224" lon="10.07393813841153"><ele>1513.0</ele><time>2026-05-02T08:20:59Z</time></trkpt><trkpt lat="46.382946928075484" lon="10.073989026071004"><ele>1513.0</ele><time>2026-05-02T08:21:00Z</time></trkpt><trkpt lat="46.38304039923881" lon="10.074054690444676"><ele>1513.0</ele><time>2026-05-02T08:21:01Z</time></trkpt><trkpt lat="46.38313580365917" lon="10.074095607888239"><ele>1520.0</ele><time>2026-05-02T08:21:02Z</time></trkpt><trkpt lat="46.3832572940251" lon="10.074153323543776"><ele>1527.0</ele><time>2026-05-02T08:21:03Z</time></trkpt><trkpt lat="46.38332461729909" lon="10.07418896998651"><ele>1534.0</ele><time>2026-05-02T08:21:04Z</time></trkpt><trkpt lat="46.38341534995241" lon="10.074229849286905"><ele>1541.0</ele><time>2026-05-02T08:21:06Z</time></trkpt><trkpt lat="46.38347542634012" lon="10.07426437802973"><ele>1548.0</ele><time>2026-05-02T08:21:10Z</time></trkpt><trkpt lat="46.383600984595624" lon="10.074308903816762"><ele>1548.0</ele><time>2026-05-02T08:22:15.999Z</time></trkpt><trkpt lat="46.383682610958196" lon="10.074377194157728"><ele>1548.0</ele><time>2026-05-02T08:22:16.999Z</time></trkpt><trkpt lat="46.3837339925351" lon="10.074445099856213"><ele>1548.0</ele><time>2026-05-02T08:22:17.999Z</time></trkpt><trkpt lat="46.38380724493477" lon="10.074538874793223"><ele>1548.0</ele><time>2026-05-02T08:22:18.999Z</time></trkpt><trkpt lat="46.38386550113941" lon="10.074624402921943"><ele>1548.0</ele><time>2026-05-02T08:22:19.999Z</time></trkpt><trkpt lat="46.38391662457406" lon="10.0747646352259"><ele>1547.25</ele><time>2026-05-02T08:22:20.999Z</time></trkpt><trkpt lat="46.383976781186895" lon="10.074928059725927"><ele>1546.5</ele><time>2026-05-02T08:22:21.999Z</time></trkpt><trkpt lat="46.384030044898736" lon="10.0750727590768"><ele>1545.75</ele><time>2026-05-02T08:22:22.999Z</time></trkpt><trkpt lat="46.384080013814675" lon="10.075213851852054"><ele>1545.0</ele><time>2026-05-02T08:22:23.999Z</time></trkpt><trkpt lat="46.38413351617764" lon="10.075360740761734"><ele>1545.0</ele><time>2026-05-02T08:22:24.999Z</time></trkpt><trkpt lat="46.384208440399014" lon="10.075515833383509"><ele>1545.0</ele><time>2026-05-02T08:22:25.999Z</time></trkpt><trkpt lat="46.38424274608869" lon="10.075657288087575"><ele>1545.0</ele><time>2026-05-02T08:22:26.999Z</time></trkpt><trkpt lat="46.38428195385733" lon="10.075763732896519"><ele>1545.0</ele><time>2026-05-02T08:22:27.999Z</time></trkpt><trkpt lat="46.38432108244404" lon="10.075865676006373"><ele>1545.0</ele><time>2026-05-02T08:22:28.999Z</time></trkpt><trkpt lat="46.384357677627364" lon="10.075978239470155"><ele>1547.0</ele><time>2026-05-02T08:22:29.999Z</time></trkpt><trkpt lat="46.38438332927408" lon="10.07609796579031"><ele>1549.0</ele><time>2026-05-02T08:22:30.998Z</time></trkpt><trkpt lat="46.38439942158389" lon="10.076224139851158"><ele>1551.0</ele><time>2026-05-02T08:22:31.998Z</time></trkpt><trkpt lat="46.3843698264587" lon="10.076371052024463"><ele>1553.0</ele><time>2026-05-02T08:22:32.998Z</time></trkpt><trkpt lat="46.384330391449204" lon="10.076525012091055"><ele>1555.0</ele><time>2026-05-02T08:22:33.998Z</time></trkpt><trkpt lat="46.384295773711926" lon="10.076667169406436"><ele>1555.25</ele><time>2026-05-02T08:22:34.998Z</time></trkpt><trkpt lat="46.38427040791652" lon="10.076769909618276"><ele>1555.5</ele><time>2026-05-02T08:22:35.998Z</time></trkpt><trkpt lat="46.38423683085617" lon="10.076899756047846"><ele>1555.75</ele><time>2026-05-02T08:22:36.998Z</time></trkpt><trkpt lat="46.384191290819274" lon="10.077228122796225"><ele>1556.0</ele><time>2026-05-02T08:22:37.998Z</time></trkpt><trkpt lat="46.384217921095136" lon="10.077416474574163"><ele>1560.5</ele><time>2026-05-02T08:22:38.998Z</time></trkpt><trkpt lat="46.384243009586456" lon="10.077568197538278"><ele>1565.0</ele><time>2026-05-02T08:22:39.998Z</time></trkpt><trkpt lat="46.38429988945148" lon="10.077713414949798"><ele>1569.5</ele><time>2026-05-02T08:22:40.998Z</time></trkpt><trkpt lat="46.38438384646713" lon="10.077855998953133"><ele>1574.0</ele><time>2026-05-02T08:22:41.998Z</time></trkpt><trkpt lat="46.384489200753514" lon="10.077987925547944"><ele>1574.0</ele><time>2026-05-02T08:22:42.998Z</time></trkpt><trkpt lat="46.38458962942291" lon="10.07815491108693"><ele>1574.0</ele><time>2026-05-02T08:22:43.998Z</time></trkpt><trkpt lat="46.38467173888577" lon="10.07834474664395"><ele>1574.0</ele><time>2026-05-02T08:22:44.998Z</time></trkpt><trkpt lat="46.38476411923272" lon="10.078570757580517"><ele>1572.0</ele><time>2026-05-02T08:22:45.998Z</time></trkpt><trkpt lat="46.384850243459034" lon="10.078804720680397"><ele>1570.0</ele><time>2026-05-02T08:22:46.998Z</time></trkpt><trkpt lat="46.38490079119046" lon="10.07903403329444"><ele>1568.0</ele><time>2026-05-02T08:22:47.998Z</time></trkpt><trkpt lat="46.38494399773536" lon="10.079259952689688"><ele>1571.5</ele><time>2026-05-02T08:22:48.998Z</time></trkpt><trkpt lat="46.384958324326156" lon="10.079452534318632"><ele>1575.0</ele><time>2026-05-02T08:22:50Z</time></trkpt><trkpt lat="46.38500732352515" lon="10.079634895548814"><ele>1578.5</ele><time>2026-05-02T08:22:51Z</time></trkpt><trkpt lat="46.38507819836714" lon="10.0797627061642"><ele>1582.0</ele><time>2026-05-02T08:22:52Z</time></trkpt><trkpt lat="46.385161414548286" lon="10.079859642682132"><ele>1582.0</ele><time>2026-05-02T08:22:53Z</time></trkpt><trkpt lat="46.38526538675812" lon="10.079925860278863"><ele>1582.0</ele><time>2026-05-02T08:22:54Z</time></trkpt><trkpt lat="46.38534652010334" lon="10.079993858748477"><ele>1582.0</ele><time>2026-05-02T08:22:55Z</time></trkpt><trkpt lat="46.38542493078798" lon="10.080066810775504"><ele>1582.0</ele><time>2026-05-02T08:22:56Z</time></trkpt><trkpt lat="46.38549378320311" lon="10.080102705040662"><ele>1582.0</ele><time>2026-05-02T08:22:57Z</time></trkpt><trkpt lat="46.38557280844293" lon="10.080102114031423"><ele>1583.1999999999998</ele><time>2026-05-02T08:22:58Z</time></trkpt><trkpt lat="46.385657668252726" lon="10.080059575276513"><ele>1584.4</ele><time>2026-05-02T08:22:59Z</time></trkpt><trkpt lat="46.38574567828681" lon="10.07998708176873"><ele>1585.6</ele><time>2026-05-02T08:23:00Z</time></trkpt><trkpt lat="46.38584971740551" lon="10.079907178854226"><ele>1586.8000000000002</ele><time>2026-05-02T08:23:01Z</time></trkpt><trkpt lat="46.385965733444785" lon="10.079806101110416"><ele>1588.0</ele><time>2026-05-02T08:23:02Z</time></trkpt><trkpt lat="46.38610124471727" lon="10.079737186974251"><ele>1582.0</ele><time>2026-05-02T08:23:03Z</time></trkpt><trkpt lat="46.38625462687787" lon="10.079745977656764"><ele>1576.0</ele><time>2026-05-02T08:23:04Z</time></trkpt><trkpt lat="46.386432065637116" lon="10.079764882821065"><ele>1570.0</ele><time>2026-05-02T08:23:05Z</time></trkpt><trkpt lat="46.38660101427327" lon="10.07979070593367"><ele>1570.0</ele><time>2026-05-02T08:23:06Z</time></trkpt><trkpt lat="46.38675082083351" lon="10.07978505380356"><ele>1570.0</ele><time>2026-05-02T08:23:07Z</time></trkpt><trkpt lat="46.38691754848681" lon="10.079823721277668"><ele>1570.0</ele><time>2026-05-02T08:23:08Z</time></trkpt><trkpt lat="46.38708520838376" lon="10.07988773148678"><ele>1582.3333333333335</ele><time>2026-05-02T08:23:09Z</time></trkpt><trkpt lat="46.38726676069163" lon="10.079958490367057"><ele>1594.6666666666665</ele><time>2026-05-02T08:23:10Z</time></trkpt><trkpt lat="46.38743893795873" lon="10.080038873570944"><ele>1607.0</ele><time>2026-05-02T08:23:11Z</time></trkpt><trkpt lat="46.387622031237456" lon="10.080116768056348"><ele>1607.0</ele><time>2026-05-02T08:23:12Z</time></trkpt><trkpt lat="46.387793938593646" lon="10.080186185929964"><ele>1607.0</ele><time>2026-05-02T08:23:13Z</time></trkpt><trkpt lat="46.387972484741915" lon="10.080219244504947"><ele>1607.0</ele><time>2026-05-02T08:23:14Z</time></trkpt><trkpt lat="46.38815608226544" lon="10.080233297652338"><ele>1608.3333333333333</ele><time>2026-05-02T08:23:15Z</time></trkpt><trkpt lat="46.3883364389597" lon="10.080260220493008"><ele>1609.6666666666665</ele><time>2026-05-02T08:23:16Z</time></trkpt><trkpt lat="46.38851433874717" lon="10.080274710677237"><ele>1611.0</ele><time>2026-05-02T08:23:17Z</time></trkpt><trkpt lat="46.388677884990386" lon="10.08029205074978"><ele>1611.0</ele><time>2026-05-02T08:23:18Z</time></trkpt><trkpt lat="46.38882434473342" lon="10.080316169764757"><ele>1611.0</ele><time>2026-05-02T08:23:19Z</time></trkpt><trkpt lat="46.388950989268466" lon="10.080327833371477"><ele>1611.0</ele><time>2026-05-02T08:23:20Z</time></trkpt><trkpt lat="46.38907120395881" lon="10.080328076705532"><ele>1611.0</ele><time>2026-05-02T08:23:21Z</time></trkpt><trkpt lat="46.38918546505208" lon="10.080313404771267"><ele>1612.75</ele><time>2026-05-02T08:23:22Z</time></trkpt><trkpt lat="46.38930845537044" lon="10.080239882129419"><ele>1614.5</ele><time>2026-05-02T08:23:23Z</time></trkpt><trkpt lat="46.389420976664766" lon="10.08011254394656"><ele>1616.25</ele><time>2026-05-02T08:23:24Z</time></trkpt><trkpt lat="46.389511360872376" lon="10.079988021549823"><ele>1618.0</ele><time>2026-05-02T08:23:25Z</time></trkpt><trkpt lat="46.38959260328025" lon="10.07979013664566"><ele>1618.0</ele><time>2026-05-02T08:23:26Z</time></trkpt><trkpt lat="46.389682536895364" lon="10.07963529708966"><ele>1618.0</ele><time>2026-05-02T08:23:27Z</time></trkpt><trkpt lat="46.389783981772794" lon="10.079490655898269"><ele>1618.0</ele><time>2026-05-02T08:23:28Z</time></trkpt><trkpt lat="46.389897410110166" lon="10.079348175697087"><ele>1618.0</ele><time>2026-05-02T08:23:29Z</time></trkpt><trkpt lat="46.39003275199678" lon="10.079213745431154"><ele>1616.6666666666667</ele><time>2026-05-02T08:23:30Z</time></trkpt><trkpt lat="46.3901782483143" lon="10.07909624473093"><ele>1615.3333333333335</ele><time>2026-05-02T08:23:31Z</time></trkpt><trkpt lat="46.390325858162115" lon="10.078966419959066"><ele>1614.0</ele><time>2026-05-02T08:23:32Z</time></trkpt><trkpt lat="46.39047917096656" lon="10.078823323399014"><ele>1622.0</ele><time>2026-05-02T08:23:33Z</time></trkpt><trkpt lat="46.390633630626034" lon="10.078651859594403"><ele>1630.0</ele><time>2026-05-02T08:23:34Z</time></trkpt><trkpt lat="46.39077830636902" lon="10.078425000624703"><ele>1638.0</ele><time>2026-05-02T08:23:35Z</time></trkpt><trkpt lat="46.39091130001084" lon="10.078178286397552"><ele>1638.0</ele><time>2026-05-02T08:23:36Z</time></trkpt><trkpt lat="46.39104234593187" lon="10.077948190023134"><ele>1638.0</ele><time>2026-05-02T08:23:37Z</time></trkpt><trkpt lat="46.3911662773048" lon="10.077756826819527"><ele>1638.0</ele><time>2026-05-02T08:23:38Z</time></trkpt><trkpt lat="46.39130055376338" lon="10.077593230072747"><ele>1643.6666666666665</ele><time>2026-05-02T08:23:39Z</time></trkpt><trkpt lat="46.391420209999836" lon="10.07740755123251"><ele>1649.3333333333333</ele><time>2026-05-02T08:23:40Z</time></trkpt><trkpt lat="46.39153350069561" lon="10.077212310014989"><ele>1655.0</ele><time>2026-05-02T08:23:40.999Z</time></trkpt><trkpt lat="46.39160683679216" lon="10.076996310899636"><ele>1655.0</ele><time>2026-05-02T08:23:41.999Z</time></trkpt><trkpt lat="46.391676103402766" lon="10.07675925720925"><ele>1655.0</ele><time>2026-05-02T08:23:42.999Z</time></trkpt><trkpt lat="46.391740541319066" lon="10.076519572865378"><ele>1655.0</ele><time>2026-05-02T08:23:43.999Z</time></trkpt><trkpt lat="46.39178396428105" lon="10.076288422107098"><ele>1655.0</ele><time>2026-05-02T08:23:44.999Z</time></trkpt><trkpt lat="46.39182545428466" lon="10.076066490242493"><ele>1655.0</ele><time>2026-05-02T08:23:45.999Z</time></trkpt><trkpt lat="46.391869286865955" lon="10.075871070383585"><ele>1655.0</ele><time>2026-05-02T08:23:46.999Z</time></trkpt><trkpt lat="46.391906846400985" lon="10.075730412608968"><ele>1655.0</ele><time>2026-05-02T08:23:47.999Z</time></trkpt><trkpt lat="46.39194550457745" lon="10.07562776817863"><ele>1654.0</ele><time>2026-05-02T08:23:48.999Z</time></trkpt><trkpt lat="46.39214012495281" lon="10.07574618015273"><ele>1653.0</ele><time>2026-05-02T08:23:49.999Z</time></trkpt><trkpt lat="46.392175594974034" lon="10.075067734087082"><ele>1657.0</ele><time>2026-05-02T08:23:50.999Z</time></trkpt><trkpt lat="46.392294649690754" lon="10.074936171199049"><ele>1661.0</ele><time>2026-05-02T08:23:51.999Z</time></trkpt><trkpt lat="46.39243098733704" lon="10.074872876424964"><ele>1665.0</ele><time>2026-05-02T08:23:52.999Z</time></trkpt><trkpt lat="46.392555389549095" lon="10.07482777310914"><ele>1669.0</ele><time>2026-05-02T08:23:53.999Z</time></trkpt><trkpt lat="46.39264763230963" lon="10.074735181746952"><ele>1669.0</ele><time>2026-05-02T08:23:54.999Z</time></trkpt><trkpt lat="46.392732208846446" lon="10.074628759599403"><ele>1669.0</ele><time>2026-05-02T08:23:55.999Z</time></trkpt><trkpt lat="46.392792797938434" lon="10.074476574734856"><ele>1669.0</ele><time>2026-05-02T08:23:56.999Z</time></trkpt><trkpt lat="46.39283908625426" lon="10.074355599015515"><ele>1669.0</ele><time>2026-05-02T08:23:57.999Z</time></trkpt><trkpt lat="46.39290418480386" lon="10.074271253809998"><ele>1669.0</ele><time>2026-05-02T08:23:58.999Z</time></trkpt><trkpt lat="46.39289392270762" lon="10.074066768412845"><ele>1675.25</ele><time>2026-05-02T08:24:00.999Z</time></trkpt><trkpt lat="46.39283908770936" lon="10.073951635090376"><ele>1681.5</ele><time>2026-05-02T08:24:01.999Z</time></trkpt><trkpt lat="46.392743058741594" lon="10.073829202336924"><ele>1687.75</ele><time>2026-05-02T08:24:02.999Z</time></trkpt><trkpt lat="46.39269193930022" lon="10.07375807484595"><ele>1694.0</ele><time>2026-05-02T08:24:03.999Z</time></trkpt><trkpt lat="46.392500226346115" lon="10.073646956642836"><ele>1694.0</ele><time>2026-05-02T08:24:04.999Z</time></trkpt><trkpt lat="46.39235403126986" lon="10.073510044926742"><ele>1694.0</ele><time>2026-05-02T08:24:05.999Z</time></trkpt><trkpt lat="46.39223385672909" lon="10.073399309699381"><ele>1694.0</ele><time>2026-05-02T08:24:06.999Z</time></trkpt><trkpt lat="46.39212237897933" lon="10.073295160754915"><ele>1694.0</ele><time>2026-05-02T08:24:07.999Z</time></trkpt><trkpt lat="46.392043535187035" lon="10.073197813365178"><ele>1691.75</ele><time>2026-05-02T08:24:08.999Z</time></trkpt><trkpt lat="46.39197721504495" lon="10.073037651827704"><ele>1689.5</ele><time>2026-05-02T08:24:09.999Z</time></trkpt><trkpt lat="46.39196969152228" lon="10.072848480916036"><ele>1687.25</ele><time>2026-05-02T08:24:10.999Z</time></trkpt><trkpt lat="46.39193779118905" lon="10.072688276916509"><ele>1685.0</ele><time>2026-05-02T08:24:11.999Z</time></trkpt><trkpt lat="46.39192667193147" lon="10.07240987575533"><ele>1685.0</ele><time>2026-05-02T08:24:12.999Z</time></trkpt><trkpt lat="46.391891114007954" lon="10.072122874876255"><ele>1685.0</ele><time>2026-05-02T08:24:13.999Z</time></trkpt><trkpt lat="46.39187844678031" lon="10.071820260988515"><ele>1685.0</ele><time>2026-05-02T08:24:14.999Z</time></trkpt><trkpt lat="46.39186305435917" lon="10.071548386977792"><ele>1688.6666666666665</ele><time>2026-05-02T08:24:15.999Z</time></trkpt><trkpt lat="46.39185291577988" lon="10.071283853299537"><ele>1692.3333333333335</ele><time>2026-05-02T08:24:16.999Z</time></trkpt><trkpt lat="46.39185100725015" lon="10.07101458014808"><ele>1696.0</ele><time>2026-05-02T08:24:17.999Z</time></trkpt><trkpt lat="46.39182387370424" lon="10.070765617430574"><ele>1699.6666666666667</ele><time>2026-05-02T08:24:18.999Z</time></trkpt><trkpt lat="46.391780797715455" lon="10.070512071180437"><ele>1703.3333333333335</ele><time>2026-05-02T08:24:19.999Z</time></trkpt><trkpt lat="46.391741898399246" lon="10.070284444280032"><ele>1707.0</ele><time>2026-05-02T08:24:20.999Z</time></trkpt><trkpt lat="46.39170095715948" lon="10.070078176084603"><ele>1708.75</ele><time>2026-05-02T08:24:21.999Z</time></trkpt><trkpt lat="46.391706502486976" lon="10.069847660532588"><ele>1710.5</ele><time>2026-05-02T08:24:22.999Z</time></trkpt><trkpt lat="46.391684821664626" lon="10.069652113164981"><ele>1712.25</ele><time>2026-05-02T08:24:23.999Z</time></trkpt><trkpt lat="46.39168907507016" lon="10.06945018690466"><ele>1714.0</ele><time>2026-05-02T08:24:24.999Z</time></trkpt><trkpt lat="46.39162237401054" lon="10.06934670298495"><ele>1714.0</ele><time>2026-05-02T08:24:25.999Z</time></trkpt><trkpt lat="46.3915737233049" lon="10.069191089674435"><ele>1714.0</ele><time>2026-05-02T08:24:26.999Z</time></trkpt><trkpt lat="46.39153778155947" lon="10.069038377927006"><ele>1714.0</ele><time>2026-05-02T08:24:27.999Z</time></trkpt><trkpt lat="46.391513745438786" lon="10.06888043689664"><ele>1714.0</ele><time>2026-05-02T08:24:28.999Z</time></trkpt><trkpt lat="46.391530181230216" lon="10.068728380789292"><ele>1714.0</ele><time>2026-05-02T08:24:29.999Z</time></trkpt><trkpt lat="46.39155603781097" lon="10.068595687737897"><ele>1713.8000000000002</ele><time>2026-05-02T08:24:30.999Z</time></trkpt><trkpt lat="46.39160408764588" lon="10.068465200930104"><ele>1713.6000000000001</ele><time>2026-05-02T08:24:31.999Z</time></trkpt><trkpt lat="46.39167400556332" lon="10.068361972301961"><ele>1713.4</ele><time>2026-05-02T08:24:32.999Z</time></trkpt><trkpt lat="46.39176778240372" lon="10.068347343764977"><ele>1713.2</ele><time>2026-05-02T08:24:33.999Z</time></trkpt><trkpt lat="46.39185086913073" lon="10.068266069623364"><ele>1713.0</ele><time>2026-05-02T08:24:34.999Z</time></trkpt><trkpt lat="46.39196749732313" lon="10.068214002145188"><ele>1714.8000000000002</ele><time>2026-05-02T08:24:35.999Z</time></trkpt><trkpt lat="46.39205370283073" lon="10.06815999028807"><ele>1716.6000000000001</ele><time>2026-05-02T08:24:36.999Z</time></trkpt><trkpt lat="46.39214285381191" lon="10.068136376926313"><ele>1718.3999999999999</ele><time>2026-05-02T08:24:37.999Z</time></trkpt><trkpt lat="46.39224006423429" lon="10.068172163006281"><ele>1720.1999999999998</ele><time>2026-05-02T08:24:38.999Z</time></trkpt><trkpt lat="46.39228894115515" lon="10.068278090379103"><ele>1722.0</ele><time>2026-05-02T08:24:39.998Z</time></trkpt><trkpt lat="46.392323677070884" lon="10.068439227711083"><ele>1722.0</ele><time>2026-05-02T08:24:40.998Z</time></trkpt><trkpt lat="46.39230431045219" lon="10.068542777344971"><ele>1722.0</ele><time>2026-05-02T08:24:41.998Z</time></trkpt><trkpt lat="46.39234278090323" lon="10.068751282204962"><ele>1722.0</ele><time>2026-05-02T08:24:42.998Z</time></trkpt><trkpt lat="46.39239587193128" lon="10.068904767150714"><ele>1722.0</ele><time>2026-05-02T08:24:43.998Z</time></trkpt><trkpt lat="46.39243632297915" lon="10.069100498821898"><ele>1724.75</ele><time>2026-05-02T08:24:44.998Z</time></trkpt><trkpt lat="46.39249744434071" lon="10.06927799948281"><ele>1727.5</ele><time>2026-05-02T08:24:45.998Z</time></trkpt><trkpt lat="46.392571020666495" lon="10.069462978774082"><ele>1730.25</ele><time>2026-05-02T08:24:46.998Z</time></trkpt><trkpt lat="46.39265511717596" lon="10.069656511404368"><ele>1733.0</ele><time>2026-05-02T08:24:47.998Z</time></trkpt><trkpt lat="46.39275239594306" lon="10.069851847553766"><ele>1733.3333333333333</ele><time>2026-05-02T08:24:48.998Z</time></trkpt><trkpt lat="46.39285595230372" lon="10.070023000606229"><ele>1733.6666666666665</ele><time>2026-05-02T08:24:49.998Z</time></trkpt><trkpt lat="46.39298728915728" lon="10.070214393262972"><ele>1734.0</ele><time>2026-05-02T08:24:50.998Z</time></trkpt><trkpt lat="46.393150817658196" lon="10.070487588243472"><ele>1736.0</ele><time>2026-05-02T08:24:51.998Z</time></trkpt><trkpt lat="46.393310490955706" lon="10.07071727106567"><ele>1738.0</ele><time>2026-05-02T08:24:52.998Z</time></trkpt><trkpt lat="46.39340407098783" lon="10.07083923199629"><ele>1740.0</ele><time>2026-05-02T08:24:54.998Z</time></trkpt><trkpt lat="46.39350748899403" lon="10.070984674230292"><ele>1740.0</ele><time>2026-05-02T08:24:56Z</time></trkpt><trkpt lat="46.39359814692935" lon="10.071107804418475"><ele>1740.0</ele><time>2026-05-02T08:24:57Z</time></trkpt><trkpt lat="46.3936754068305" lon="10.071214911271007"><ele>1740.0</ele><time>2026-05-02T08:24:58Z</time></trkpt><trkpt lat="46.393756536029215" lon="10.071278867387104"><ele>1740.0</ele><time>2026-05-02T08:24:59Z</time></trkpt><trkpt lat="46.393843042035385" lon="10.071278161870797"><ele>1740.0</ele><time>2026-05-02T08:25:00Z</time></trkpt><trkpt lat="46.39393029729675" lon="10.071215149891868"><ele>1742.4</ele><time>2026-05-02T08:25:01Z</time></trkpt><trkpt lat="46.393994202610344" lon="10.071110220503853"><ele>1744.8</ele><time>2026-05-02T08:25:02Z</time></trkpt><trkpt lat="46.39406307862634" lon="10.07100250423969"><ele>1747.1999999999998</ele><time>2026-05-02T08:25:03Z</time></trkpt><trkpt lat="46.39413915021355" lon="10.070887193816684"><ele>1749.6</ele><time>2026-05-02T08:25:04Z</time></trkpt><trkpt lat="46.39421264529485" lon="10.070788574398463"><ele>1752.0</ele><time>2026-05-02T08:25:05Z</time></trkpt><trkpt lat="46.39431467443466" lon="10.07069296344919"><ele>1754.25</ele><time>2026-05-02T08:25:06Z</time></trkpt><trkpt lat="46.394416304093895" lon="10.07064348759903"><ele>1756.5</ele><time>2026-05-02T08:25:07Z</time></trkpt><trkpt lat="46.39452888156495" lon="10.07062251073772"><ele>1758.75</ele><time>2026-05-02T08:25:08Z</time></trkpt><trkpt lat="46.39465697847018" lon="10.070650204441227"><ele>1761.0</ele><time>2026-05-02T08:25:09Z</time></trkpt><trkpt lat="46.39477322398437" lon="10.070678117966883"><ele>1761.0</ele><time>2026-05-02T08:25:10Z</time></trkpt><trkpt lat="46.394895006968774" lon="10.070643020911163"><ele>1761.0</ele><time>2026-05-02T08:25:11Z</time></trkpt><trkpt lat="46.39500549023838" lon="10.07056445939421"><ele>1761.0</ele><time>2026-05-02T08:25:12Z</time></trkpt><trkpt lat="46.395103589363" lon="10.07046317459213"><ele>1761.0</ele><time>2026-05-02T08:25:13Z</time></trkpt><trkpt lat="46.39519600693151" lon="10.07036416789456"><ele>1761.0</ele><time>2026-05-02T08:25:14Z</time></trkpt><trkpt lat="46.39526737957664" lon="10.070274047107786"><ele>1761.0</ele><time>2026-05-02T08:25:15Z</time></trkpt><trkpt lat="46.395316850533995" lon="10.070160901052843"><ele>1761.0</ele><time>2026-05-02T08:25:16Z</time></trkpt><trkpt lat="46.3953318797562" lon="10.070019286497676"><ele>1761.0</ele><time>2026-05-02T08:25:17Z</time></trkpt><trkpt lat="46.39528638270508" lon="10.069869013276358"><ele>1761.0</ele><time>2026-05-02T08:25:18Z</time></trkpt><trkpt lat="46.395210090113515" lon="10.06975019187685"><ele>1762.0</ele><time>2026-05-02T08:25:19Z</time></trkpt><trkpt lat="46.39511711439779" lon="10.06967397797052"><ele>1763.0</ele><time>2026-05-02T08:25:20Z</time></trkpt><trkpt lat="46.39500133863759" lon="10.069656209124412"><ele>1764.0</ele><time>2026-05-02T08:25:21Z</time></trkpt><trkpt lat="46.39488127972464" lon="10.069684929748995"><ele>1765.0</ele><time>2026-05-02T08:25:22Z</time></trkpt><trkpt lat="46.39475964168906" lon="10.069718029503516"><ele>1766.25</ele><time>2026-05-02T08:25:23Z</time></trkpt><trkpt lat="46.394635125798196" lon="10.069759050965482"><ele>1767.5</ele><time>2026-05-02T08:25:24Z</time></trkpt><trkpt lat="46.39451444615512" lon="10.069778685556969"><ele>1768.75</ele><time>2026-05-02T08:25:25Z</time></trkpt><trkpt lat="46.394390741548875" lon="10.069746072262193"><ele>1770.0</ele><time>2026-05-02T08:25:26Z</time></trkpt><trkpt lat="46.39426776633953" lon="10.069703991099802"><ele>1770.0</ele><time>2026-05-02T08:25:27Z</time></trkpt><trkpt lat="46.39413490002667" lon="10.069611782880747"><ele>1770.0</ele><time>2026-05-02T08:25:28Z</time></trkpt><trkpt lat="46.39402086531952" lon="10.069481546634956"><ele>1770.0</ele><time>2026-05-02T08:25:29Z</time></trkpt><trkpt lat="46.393914115051146" lon="10.06932313653116"><ele>1770.0</ele><time>2026-05-02T08:25:30Z</time></trkpt><trkpt lat="46.393847326231494" lon="10.069179116589655"><ele>1772.0</ele><time>2026-05-02T08:25:31Z</time></trkpt><trkpt lat="46.39381508800014" lon="10.069023366574367"><ele>1774.0</ele><time>2026-05-02T08:25:32Z</time></trkpt><trkpt lat="46.39384159500563" lon="10.06888107451321"><ele>1776.0</ele><time>2026-05-02T08:25:33Z</time></trkpt><trkpt lat="46.39385456503051" lon="10.068688993356359"><ele>1778.0</ele><time>2026-05-02T08:25:34Z</time></trkpt><trkpt lat="46.39387170421644" lon="10.068489279856653"><ele>1778.0</ele><time>2026-05-02T08:25:35Z</time></trkpt><trkpt lat="46.39392695047276" lon="10.068321746411387"><ele>1778.0</ele><time>2026-05-02T08:25:36Z</time></trkpt><trkpt lat="46.39400653508811" lon="10.06815914943717"><ele>1778.0</ele><time>2026-05-02T08:25:37Z</time></trkpt><trkpt lat="46.39408621348388" lon="10.067990430002343"><ele>1778.0</ele><time>2026-05-02T08:25:38Z</time></trkpt><trkpt lat="46.394188047182766" lon="10.067832671682304"><ele>1779.0</ele><time>2026-05-02T08:25:39Z</time></trkpt><trkpt lat="46.39428809850961" lon="10.067684381831315"><ele>1780.0</ele><time>2026-05-02T08:25:40Z</time></trkpt><trkpt lat="46.39440921367139" lon="10.067596579537396"><ele>1781.0</ele><time>2026-05-02T08:25:41Z</time></trkpt><trkpt lat="46.39453949581498" lon="10.067527703633095"><ele>1782.0</ele><time>2026-05-02T08:25:42Z</time></trkpt><trkpt lat="46.39468101540655" lon="10.067450413502346"><ele>1789.0</ele><time>2026-05-02T08:25:43Z</time></trkpt><trkpt lat="46.39482494909918" lon="10.067398303803317"><ele>1796.0</ele><time>2026-05-02T08:25:44Z</time></trkpt><trkpt lat="46.39496898898356" lon="10.067341243841957"><ele>1803.0</ele><time>2026-05-02T08:25:44.999Z</time></trkpt><trkpt lat="46.39510655053742" lon="10.067286403982031"><ele>1810.0</ele><time>2026-05-02T08:25:45.999Z</time></trkpt><trkpt lat="46.39524875974808" lon="10.06723340119866"><ele>1810.0</ele><time>2026-05-02T08:25:46.999Z</time></trkpt><trkpt lat="46.39539342680702" lon="10.067194694203511"><ele>1810.0</ele><time>2026-05-02T08:25:47.999Z</time></trkpt><trkpt lat="46.395527770858465" lon="10.067149508489843"><ele>1810.0</ele><time>2026-05-02T08:25:48.999Z</time></trkpt><trkpt lat="46.39563591701356" lon="10.067120274267289"><ele>1810.0</ele><time>2026-05-02T08:25:49.999Z</time></trkpt><trkpt lat="46.395741388240154" lon="10.067092423908543"><ele>1810.8</ele><time>2026-05-02T08:25:50.999Z</time></trkpt><trkpt lat="46.39583576785066" lon="10.067058364169073"><ele>1811.6</ele><time>2026-05-02T08:25:51.999Z</time></trkpt><trkpt lat="46.395905004483694" lon="10.067040025019109"><ele>1812.4</ele><time>2026-05-02T08:25:52.999Z</time></trkpt><trkpt lat="46.39599982739394" lon="10.067028883320427"><ele>1813.2</ele><time>2026-05-02T08:25:54.999Z</time></trkpt><trkpt lat="46.39604214411585" lon="10.066846745001916"><ele>1814.0</ele><time>2026-05-02T08:25:56.999Z</time></trkpt><trkpt lat="46.396042897465456" lon="10.066728499655637"><ele>1814.0</ele><time>2026-05-02T08:25:57.999Z</time></trkpt><trkpt lat="46.39596965910387" lon="10.066607980836123"><ele>1814.0</ele><time>2026-05-02T08:25:58.999Z</time></trkpt><trkpt lat="46.39582715033771" lon="10.06662619839938"><ele>1814.0</ele><time>2026-05-02T08:25:59.999Z</time></trkpt><trkpt lat="46.395715071015594" lon="10.06664073679858"><ele>1814.0</ele><time>2026-05-02T08:26:00.999Z</time></trkpt><trkpt lat="46.395590253984444" lon="10.066683044998236"><ele>1812.6666666666665</ele><time>2026-05-02T08:26:01.999Z</time></trkpt><trkpt lat="46.39548283311546" lon="10.066697766387465"><ele>1811.3333333333335</ele><time>2026-05-02T08:26:02.999Z</time></trkpt><trkpt lat="46.39532909169128" lon="10.0667154731797"><ele>1810.0</ele><time>2026-05-02T08:26:03.999Z</time></trkpt><trkpt lat="46.39509107953557" lon="10.066684347176224"><ele>1810.0</ele><time>2026-05-02T08:26:04.999Z</time></trkpt><trkpt lat="46.394879032971986" lon="10.066613854528404"><ele>1810.0</ele><time>2026-05-02T08:26:05.999Z</time></trkpt><trkpt lat="46.39467326146164" lon="10.066543436276648"><ele>1810.0</ele><time>2026-05-02T08:26:06.999Z</time></trkpt><trkpt lat="46.394492357370495" lon="10.066488902913582"><ele>1816.0</ele><time>2026-05-02T08:26:07.999Z</time></trkpt><trkpt lat="46.394343243362684" lon="10.066435492108697"><ele>1822.0</ele><time>2026-05-02T08:26:08.999Z</time></trkpt><trkpt lat="46.39421605064046" lon="10.066431188080246"><ele>1828.0</ele><time>2026-05-02T08:26:09.999Z</time></trkpt><trkpt lat="46.394135047091794" lon="10.06644366307158"><ele>1834.0</ele><time>2026-05-02T08:26:10.999Z</time></trkpt><trkpt lat="46.394069765196356" lon="10.066439900475201"><ele>1840.0</ele><time>2026-05-02T08:26:11.999Z</time></trkpt><trkpt lat="46.39402814422933" lon="10.066355327723867"><ele>1840.0</ele><time>2026-05-02T08:26:12.999Z</time></trkpt><trkpt lat="46.39405128898698" lon="10.066241318420635"><ele>1840.0</ele><time>2026-05-02T08:26:14.999Z</time></trkpt><trkpt lat="46.39417266569879" lon="10.066241928712671"><ele>1840.0</ele><time>2026-05-02T08:26:16.999Z</time></trkpt><trkpt lat="46.3943475479996" lon="10.066268585145238"><ele>1840.0</ele><time>2026-05-02T08:26:17.999Z</time></trkpt><trkpt lat="46.39447148505767" lon="10.066368128380617"><ele>1840.0</ele><time>2026-05-02T08:26:18.999Z</time></trkpt><trkpt lat="46.394621843041534" lon="10.06641770701825"><ele>1840.0</ele><time>2026-05-02T08:26:19.999Z</time></trkpt><trkpt lat="46.394756467470366" lon="10.066398222502409"><ele>1840.0</ele><time>2026-05-02T08:26:20.999Z</time></trkpt><trkpt lat="46.39491239296971" lon="10.066340001341079"><ele>1838.6666666666667</ele><time>2026-05-02T08:26:21.999Z</time></trkpt><trkpt lat="46.39505672180148" lon="10.066282410911613"><ele>1837.3333333333335</ele><time>2026-05-02T08:26:22.999Z</time></trkpt><trkpt lat="46.395200851106885" lon="10.066211435834827"><ele>1836.0</ele><time>2026-05-02T08:26:23.999Z</time></trkpt><trkpt lat="46.39534313751495" lon="10.066113640775697"><ele>1836.0</ele><time>2026-05-02T08:26:24.999Z</time></trkpt><trkpt lat="46.395497302686906" lon="10.066025534471805"><ele>1836.0</ele><time>2026-05-02T08:26:25.999Z</time></trkpt><trkpt lat="46.3956673150393" lon="10.065957285270459"><ele>1836.0</ele><time>2026-05-02T08:26:26.999Z</time></trkpt><trkpt lat="46.39584061333259" lon="10.065992586309072"><ele>1840.3333333333335</ele><time>2026-05-02T08:26:27.999Z</time></trkpt><trkpt lat="46.39599321090236" lon="10.066069565301177"><ele>1844.6666666666667</ele><time>2026-05-02T08:26:28.999Z</time></trkpt><trkpt lat="46.39612543964882" lon="10.066198452011077"><ele>1849.0</ele><time>2026-05-02T08:26:29.999Z</time></trkpt><trkpt lat="46.396263742646745" lon="10.066304691986783"><ele>1857.0</ele><time>2026-05-02T08:26:30.999Z</time></trkpt><trkpt lat="46.396415750128845" lon="10.066372290905308"><ele>1865.0</ele><time>2026-05-02T08:26:31.999Z</time></trkpt><trkpt lat="46.39656798934573" lon="10.066446222104638"><ele>1873.0</ele><time>2026-05-02T08:26:32.999Z</time></trkpt><trkpt lat="46.39669700730243" lon="10.066519569998094"><ele>1869.0</ele><time>2026-05-02T08:26:33.999Z</time></trkpt><trkpt lat="46.396795436892" lon="10.066622371208696"><ele>1865.0</ele><time>2026-05-02T08:26:34.999Z</time></trkpt><trkpt lat="46.39690370093606" lon="10.066716299643266"><ele>1861.0</ele><time>2026-05-02T08:26:35.999Z</time></trkpt><trkpt lat="46.397033788459154" lon="10.066777991404512"><ele>1857.0</ele><time>2026-05-02T08:26:36.999Z</time></trkpt><trkpt lat="46.39718497959356" lon="10.066781686875986"><ele>1857.0</ele><time>2026-05-02T08:26:37.999Z</time></trkpt><trkpt lat="46.3973345504408" lon="10.066771666275073"><ele>1857.0</ele><time>2026-05-02T08:26:38.999Z</time></trkpt><trkpt lat="46.39749432845455" lon="10.066761952070978"><ele>1857.0</ele><time>2026-05-02T08:26:39.999Z</time></trkpt><trkpt lat="46.39765872475459" lon="10.06677322766801"><ele>1857.0</ele><time>2026-05-02T08:26:40.999Z</time></trkpt><trkpt lat="46.39781434296956" lon="10.066776307074685"><ele>1857.0</ele><time>2026-05-02T08:26:41.999Z</time></trkpt><trkpt lat="46.39797182861743" lon="10.066819389201122"><ele>1857.0</ele><time>2026-05-02T08:26:42.999Z</time></trkpt><trkpt lat="46.3981276654378" lon="10.066924771107375"><ele>1861.25</ele><time>2026-05-02T08:26:43.998Z</time></trkpt><trkpt lat="46.398260821052226" lon="10.06698759017993"><ele>1865.5</ele><time>2026-05-02T08:26:44.998Z</time></trkpt><trkpt lat="46.39838172842955" lon="10.067059396877143"><ele>1869.75</ele><time>2026-05-02T08:26:45.998Z</time></trkpt><trkpt lat="46.398512534440364" lon="10.067085668781166"><ele>1874.0</ele><time>2026-05-02T08:26:46.998Z</time></trkpt><trkpt lat="46.398650624392175" lon="10.06706715182943"><ele>1874.0</ele><time>2026-05-02T08:26:47.998Z</time></trkpt><trkpt lat="46.398801495353815" lon="10.067057131748209"><ele>1874.0</ele><time>2026-05-02T08:26:48.998Z</time></trkpt><trkpt lat="46.39897124297416" lon="10.06706653308884"><ele>1874.0</ele><time>2026-05-02T08:26:49.998Z</time></trkpt><trkpt lat="46.39914326934095" lon="10.067062179806339"><ele>1876.3333333333333</ele><time>2026-05-02T08:26:50.998Z</time></trkpt><trkpt lat="46.39932193796454" lon="10.06706237713505"><ele>1878.6666666666665</ele><time>2026-05-02T08:26:51.998Z</time></trkpt><trkpt lat="46.39951105452656" lon="10.067057869639749"><ele>1881.0</ele><time>2026-05-02T08:26:52.998Z</time></trkpt><trkpt lat="46.39970009172033" lon="10.067057611127513"><ele>1882.3333333333335</ele><time>2026-05-02T08:26:53.998Z</time></trkpt><trkpt lat="46.39986708620766" lon="10.067058922861253"><ele>1883.6666666666667</ele><time>2026-05-02T08:26:54.998Z</time></trkpt><trkpt lat="46.40003880531143" lon="10.067075895526726"><ele>1885.0</ele><time>2026-05-02T08:26:55.998Z</time></trkpt><trkpt lat="46.40021642393678" lon="10.067087115864023"><ele>1885.0</ele><time>2026-05-02T08:26:56.998Z</time></trkpt><trkpt lat="46.40039779050412" lon="10.067082574948344"><ele>1885.0</ele><time>2026-05-02T08:26:57.998Z</time></trkpt><trkpt lat="46.40057833475164" lon="10.067055410472587"><ele>1885.0</ele><time>2026-05-02T08:26:58.998Z</time></trkpt><trkpt lat="46.40074124417913" lon="10.06703410555517"><ele>1885.0</ele><time>2026-05-02T08:26:59.998Z</time></trkpt><trkpt lat="46.40089468880089" lon="10.067006367351004"><ele>1885.0</ele><time>2026-05-02T08:27:00.998Z</time></trkpt><trkpt lat="46.40104008325107" lon="10.066978147352286"><ele>1885.0</ele><time>2026-05-02T08:27:02Z</time></trkpt><trkpt lat="46.40119358996695" lon="10.066935551812337"><ele>1883.6666666666667</ele><time>2026-05-02T08:27:03Z</time></trkpt><trkpt lat="46.401337931256315" lon="10.066880126194858"><ele>1882.3333333333335</ele><time>2026-05-02T08:27:04Z</time></trkpt><trkpt lat="46.40150123728871" lon="10.066832486730416"><ele>1881.0</ele><time>2026-05-02T08:27:05Z</time></trkpt><trkpt lat="46.40171901607576" lon="10.066784833690734"><ele>1881.0</ele><time>2026-05-02T08:27:06Z</time></trkpt><trkpt lat="46.401968296141725" lon="10.066753136111263"><ele>1881.0</ele><time>2026-05-02T08:27:07Z</time></trkpt><trkpt lat="46.40218706771986" lon="10.066669830450246"><ele>1881.0</ele><time>2026-05-02T08:27:08Z</time></trkpt><trkpt lat="46.402158015117266" lon="10.066573239294481"><ele>1881.0</ele><time>2026-05-02T08:27:09Z</time></trkpt><trkpt lat="46.40231985691292" lon="10.066526480112717"><ele>1881.0</ele><time>2026-05-02T08:27:10Z</time></trkpt><trkpt lat="46.402479721567374" lon="10.066468850591312"><ele>1881.0</ele><time>2026-05-02T08:27:11Z</time></trkpt><trkpt lat="46.40263611357028" lon="10.066423714834642"><ele>1881.0</ele><time>2026-05-02T08:27:12Z</time></trkpt><trkpt lat="46.40278593345051" lon="10.066370570963977"><ele>1881.0</ele><time>2026-05-02T08:27:13Z</time></trkpt><trkpt lat="46.40291756233127" lon="10.066326739112498"><ele>1881.0</ele><time>2026-05-02T08:27:14Z</time></trkpt><trkpt lat="46.403047360017574" lon="10.066282035758729"><ele>1881.0</ele><time>2026-05-02T08:27:15Z</time></trkpt><trkpt lat="46.40317114904174" lon="10.066209895218671"><ele>1879.75</ele><time>2026-05-02T08:27:16Z</time></trkpt><trkpt lat="46.4032830211014" lon="10.066103333748575"><ele>1878.5</ele><time>2026-05-02T08:27:17Z</time></trkpt><trkpt lat="46.403390574811965" lon="10.06597687929591"><ele>1877.25</ele><time>2026-05-02T08:27:18Z</time></trkpt><trkpt lat="46.40349897315785" lon="10.065837386859448"><ele>1876.0</ele><time>2026-05-02T08:27:19Z</time></trkpt><trkpt lat="46.40360719874384" lon="10.065698656757515"><ele>1875.75</ele><time>2026-05-02T08:27:20Z</time></trkpt><trkpt lat="46.40370371108622" lon="10.065560088361849"><ele>1875.5</ele><time>2026-05-02T08:27:21Z</time></trkpt><trkpt lat="46.40380006111655" lon="10.065426379608954"><ele>1875.25</ele><time>2026-05-02T08:27:22Z</time></trkpt><trkpt lat="46.40390005221172" lon="10.065301465539603"><ele>1875.0</ele><time>2026-05-02T08:27:23Z</time></trkpt><trkpt lat="46.40400247414433" lon="10.06517788363367"><ele>1875.0</ele><time>2026-05-02T08:27:24Z</time></trkpt><trkpt lat="46.4040956946801" lon="10.065051535214359"><ele>1875.0</ele><time>2026-05-02T08:27:25Z</time></trkpt><trkpt lat="46.4041972422645" lon="10.064913046220093"><ele>1875.0</ele><time>2026-05-02T08:27:26Z</time></trkpt><trkpt lat="46.40431176047203" lon="10.06475544930075"><ele>1875.0</ele><time>2026-05-02T08:27:27Z</time></trkpt><trkpt lat="46.404412938462336" lon="10.064571599106202"><ele>1878.6666666666665</ele><time>2026-05-02T08:27:28Z</time></trkpt><trkpt lat="46.40449525875798" lon="10.064353809896762"><ele>1882.3333333333333</ele><time>2026-05-02T08:27:29Z</time></trkpt><trkpt lat="46.40454873418477" lon="10.064112946165496"><ele>1886.0</ele><time>2026-05-02T08:27:30Z</time></trkpt><trkpt lat="46.40456990406194" lon="10.063863255954614"><ele>1886.3333333333333</ele><time>2026-05-02T08:27:31Z</time></trkpt><trkpt lat="46.40454273817978" lon="10.063590885124084"><ele>1886.6666666666665</ele><time>2026-05-02T08:27:32Z</time></trkpt><trkpt lat="46.4045298917935" lon="10.063375785273513"><ele>1887.0</ele><time>2026-05-02T08:27:33Z</time></trkpt><trkpt lat="46.40454565164173" lon="10.063170730381955"><ele>1887.0</ele><time>2026-05-02T08:27:34Z</time></trkpt><trkpt lat="46.40455280143965" lon="10.062974439888764"><ele>1887.0</ele><time>2026-05-02T08:27:35Z</time></trkpt><trkpt lat="46.40455537189999" lon="10.062791686011861"><ele>1887.0</ele><time>2026-05-02T08:27:36Z</time></trkpt><trkpt lat="46.40454121033223" lon="10.062627932615582"><ele>1887.0</ele><time>2026-05-02T08:27:37Z</time></trkpt><trkpt lat="46.40454782899883" lon="10.06246594639675"><ele>1890.0</ele><time>2026-05-02T08:27:38Z</time></trkpt><trkpt lat="46.404556706085145" lon="10.062331978974271"><ele>1892.9999999999998</ele><time>2026-05-02T08:27:39Z</time></trkpt><trkpt lat="46.40458854290929" lon="10.062190082804602"><ele>1895.9999999999998</ele><time>2026-05-02T08:27:40Z</time></trkpt><trkpt lat="46.40463644835031" lon="10.062044602471948"><ele>1899.0</ele><time>2026-05-02T08:27:41Z</time></trkpt><trkpt lat="46.40470151133617" lon="10.061918020439375"><ele>1902.0</ele><time>2026-05-02T08:27:42Z</time></trkpt><trkpt lat="46.40480853211454" lon="10.061851002953851"><ele>1903.0</ele><time>2026-05-02T08:27:43Z</time></trkpt><trkpt lat="46.40491570222591" lon="10.061787099670816"><ele>1904.0</ele><time>2026-05-02T08:27:44Z</time></trkpt><trkpt lat="46.40503403288724" lon="10.061732113573495"><ele>1905.0</ele><time>2026-05-02T08:27:44.999Z</time></trkpt><trkpt lat="46.40517331379303" lon="10.06172344947809"><ele>1906.0</ele><time>2026-05-02T08:27:45.999Z</time></trkpt><trkpt lat="46.40530643875059" lon="10.061707770444086"><ele>1906.0</ele><time>2026-05-02T08:27:46.999Z</time></trkpt><trkpt lat="46.40543474237441" lon="10.061663851582713"><ele>1906.0</ele><time>2026-05-02T08:27:47.999Z</time></trkpt><trkpt lat="46.40556165177757" lon="10.061562480627101"><ele>1906.0</ele><time>2026-05-02T08:27:48.999Z</time></trkpt><trkpt lat="46.40568387312543" lon="10.061442571615181"><ele>1906.0</ele><time>2026-05-02T08:27:49.999Z</time></trkpt><trkpt lat="46.40580660999398" lon="10.061293922878555"><ele>1912.6666666666667</ele><time>2026-05-02T08:27:50.999Z</time></trkpt><trkpt lat="46.40594123173733" lon="10.061163453614897"><ele>1919.3333333333335</ele><time>2026-05-02T08:27:51.999Z</time></trkpt><trkpt lat="46.40608918531278" lon="10.061066881515242"><ele>1926.0</ele><time>2026-05-02T08:27:52.999Z</time></trkpt><trkpt lat="46.406260751787116" lon="10.061046941165449"><ele>1921.0</ele><time>2026-05-02T08:27:53.999Z</time></trkpt><trkpt lat="46.40644894954486" lon="10.061006239221312"><ele>1916.0</ele><time>2026-05-02T08:27:54.999Z</time></trkpt><trkpt lat="46.406589228558566" lon="10.060961119698916"><ele>1911.0</ele><time>2026-05-02T08:27:55.999Z</time></trkpt><trkpt lat="46.406763161561216" lon="10.060877445494626"><ele>1911.0</ele><time>2026-05-02T08:27:56.999Z</time></trkpt><trkpt lat="46.406920544868974" lon="10.060852328730428"><ele>1911.0</ele><time>2026-05-02T08:27:57.999Z</time></trkpt><trkpt lat="46.407069091617885" lon="10.06079731471802"><ele>1911.0</ele><time>2026-05-02T08:27:58.999Z</time></trkpt><trkpt lat="46.40722389888414" lon="10.060660505646736"><ele>1916.0</ele><time>2026-05-02T08:27:59.999Z</time></trkpt><trkpt lat="46.40736863968965" lon="10.06046586368216"><ele>1921.0</ele><time>2026-05-02T08:28:00.999Z</time></trkpt><trkpt lat="46.40751921593865" lon="10.060273724392603"><ele>1926.0</ele><time>2026-05-02T08:28:01.999Z</time></trkpt><trkpt lat="46.40766887878618" lon="10.06006163598416"><ele>1929.3333333333335</ele><time>2026-05-02T08:28:02.999Z</time></trkpt><trkpt lat="46.40782398134126" lon="10.05987202951195"><ele>1932.6666666666667</ele><time>2026-05-02T08:28:03.999Z</time></trkpt><trkpt lat="46.40799642630271" lon="10.059720400467363"><ele>1936.0</ele><time>2026-05-02T08:28:04.999Z</time></trkpt><trkpt lat="46.40817878369763" lon="10.059613300611733"><ele>1936.0</ele><time>2026-05-02T08:28:05.999Z</time></trkpt><trkpt lat="46.40839916957502" lon="10.059504124207841"><ele>1936.0</ele><time>2026-05-02T08:28:06.999Z</time></trkpt><trkpt lat="46.40857929306767" lon="10.05936642688945"><ele>1936.0</ele><time>2026-05-02T08:28:07.999Z</time></trkpt><trkpt lat="46.40875242078392" lon="10.059215407849702"><ele>1936.3333333333335</ele><time>2026-05-02T08:28:08.999Z</time></trkpt><trkpt lat="46.40889043288997" lon="10.059006518072634"><ele>1936.6666666666665</ele><time>2026-05-02T08:28:09.999Z</time></trkpt><trkpt lat="46.409002284746514" lon="10.058778270794004"><ele>1937.0</ele><time>2026-05-02T08:28:10.999Z</time></trkpt><trkpt lat="46.409052743807656" lon="10.058515003334627"><ele>1938.3333333333333</ele><time>2026-05-02T08:28:11.999Z</time></trkpt><trkpt lat="46.409101914411" lon="10.05822522508051"><ele>1939.6666666666665</ele><time>2026-05-02T08:28:12.999Z</time></trkpt><trkpt lat="46.409106547364765" lon="10.057902521704223"><ele>1941.0</ele><time>2026-05-02T08:28:13.999Z</time></trkpt><trkpt lat="46.40908957489167" lon="10.057565565315981"><ele>1943.0</ele><time>2026-05-02T08:28:14.999Z</time></trkpt><trkpt lat="46.40904589970165" lon="10.057279313402027"><ele>1945.0</ele><time>2026-05-02T08:28:15.999Z</time></trkpt><trkpt lat="46.409020657726934" lon="10.057032373705873"><ele>1947.0</ele><time>2026-05-02T08:28:16.999Z</time></trkpt><trkpt lat="46.409063214338275" lon="10.05681645611694"><ele>1952.6666666666665</ele><time>2026-05-02T08:28:17.999Z</time></trkpt><trkpt lat="46.40913400763768" lon="10.056618363071879"><ele>1958.3333333333333</ele><time>2026-05-02T08:28:18.999Z</time></trkpt><trkpt lat="46.409262950600144" lon="10.056423211591415"><ele>1964.0</ele><time>2026-05-02T08:28:19.999Z</time></trkpt><trkpt lat="46.40941548750848" lon="10.056245223468201"><ele>1964.0</ele><time>2026-05-02T08:28:20.999Z</time></trkpt><trkpt lat="46.40955141849933" lon="10.056080956028904"><ele>1964.0</ele><time>2026-05-02T08:28:21.999Z</time></trkpt><trkpt lat="46.40966497111344" lon="10.055935113155666"><ele>1964.0</ele><time>2026-05-02T08:28:22.999Z</time></trkpt><trkpt lat="46.40976685977152" lon="10.055809859841727"><ele>1963.0</ele><time>2026-05-02T08:28:23.999Z</time></trkpt><trkpt lat="46.40984459829864" lon="10.05569726888523"><ele>1962.0</ele><time>2026-05-02T08:28:24.999Z</time></trkpt><trkpt lat="46.409903382631015" lon="10.055570732198097"><ele>1961.0</ele><time>2026-05-02T08:28:25.999Z</time></trkpt><trkpt lat="46.4098883740139" lon="10.055435256906973"><ele>1960.0</ele><time>2026-05-02T08:28:26.999Z</time></trkpt><trkpt lat="46.40988156699041" lon="10.055298284647561"><ele>1959.0</ele><time>2026-05-02T08:28:27.999Z</time></trkpt><trkpt lat="46.409865439323056" lon="10.055158716468862"><ele>1959.0</ele><time>2026-05-02T08:28:28.999Z</time></trkpt><trkpt lat="46.40987675452193" lon="10.055022573552124"><ele>1959.0</ele><time>2026-05-02T08:28:29.999Z</time></trkpt><trkpt lat="46.409854894620715" lon="10.054900121166947"><ele>1959.0</ele><time>2026-05-02T08:28:30.999Z</time></trkpt><trkpt lat="46.40984908626426" lon="10.054760677326996"><ele>1959.0</ele><time>2026-05-02T08:28:31.999Z</time></trkpt><trkpt lat="46.409831685683635" lon="10.054612818833284"><ele>1959.0</ele><time>2026-05-02T08:28:32.999Z</time></trkpt><trkpt lat="46.4097981736892" lon="10.054466786555032"><ele>1961.75</ele><time>2026-05-02T08:28:33.999Z</time></trkpt><trkpt lat="46.409721642471936" lon="10.05433807813981"><ele>1964.5</ele><time>2026-05-02T08:28:34.999Z</time></trkpt><trkpt lat="46.40958679109822" lon="10.054261986328385"><ele>1967.25</ele><time>2026-05-02T08:28:35.999Z</time></trkpt><trkpt lat="46.40943655228108" lon="10.054235936614225"><ele>1970.0</ele><time>2026-05-02T08:28:36.999Z</time></trkpt><trkpt lat="46.40926633979761" lon="10.054216589942166"><ele>1970.6666666666665</ele><time>2026-05-02T08:28:37.999Z</time></trkpt><trkpt lat="46.4090955422128" lon="10.054185693714398"><ele>1971.3333333333335</ele><time>2026-05-02T08:28:38.999Z</time></trkpt><trkpt lat="46.40893292302379" lon="10.054160942502328"><ele>1972.0</ele><time>2026-05-02T08:28:39.999Z</time></trkpt><trkpt lat="46.40879055128488" lon="10.054134820565165"><ele>1974.0</ele><time>2026-05-02T08:28:40.999Z</time></trkpt><trkpt lat="46.408648934855876" lon="10.054079957080157"><ele>1976.0</ele><time>2026-05-02T08:28:41.999Z</time></trkpt><trkpt lat="46.40853533729288" lon="10.053926050312942"><ele>1978.0</ele><time>2026-05-02T08:28:42.998Z</time></trkpt><trkpt lat="46.40840171113348" lon="10.053741089417265"><ele>1978.0</ele><time>2026-05-02T08:28:43.998Z</time></trkpt><trkpt lat="46.408280485065966" lon="10.053571470860893"><ele>1978.0</ele><time>2026-05-02T08:28:44.998Z</time></trkpt><trkpt lat="46.40818661576351" lon="10.053404108183557"><ele>1978.0</ele><time>2026-05-02T08:28:45.998Z</time></trkpt><trkpt lat="46.40813503992665" lon="10.053182706725222"><ele>1976.25</ele><time>2026-05-02T08:28:46.998Z</time></trkpt><trkpt lat="46.40811315914013" lon="10.052967280797471"><ele>1974.5</ele><time>2026-05-02T08:28:47.998Z</time></trkpt><trkpt lat="46.40806526846141" lon="10.052799822212743"><ele>1972.75</ele><time>2026-05-02T08:28:48.998Z</time></trkpt><trkpt lat="46.40799562343221" lon="10.052608256860518"><ele>1971.0</ele><time>2026-05-02T08:28:49.998Z</time></trkpt><trkpt lat="46.407920628727865" lon="10.052401424574972"><ele>1971.0</ele><time>2026-05-02T08:28:50.998Z</time></trkpt><trkpt lat="46.40785418225184" lon="10.052146851822387"><ele>1971.0</ele><time>2026-05-02T08:28:51.998Z</time></trkpt><trkpt lat="46.40784458400366" lon="10.051923530980355"><ele>1971.0</ele><time>2026-05-02T08:28:52.998Z</time></trkpt><trkpt lat="46.40782750252342" lon="10.051683280668186"><ele>1971.6666666666665</ele><time>2026-05-02T08:28:53.998Z</time></trkpt><trkpt lat="46.407822604030315" lon="10.051440502582421"><ele>1972.3333333333333</ele><time>2026-05-02T08:28:54.998Z</time></trkpt><trkpt lat="46.407840209617895" lon="10.05120049038001"><ele>1973.0</ele><time>2026-05-02T08:28:55.998Z</time></trkpt><trkpt lat="46.407842542368165" lon="10.050985980745374"><ele>1973.0</ele><time>2026-05-02T08:28:56.998Z</time></trkpt><trkpt lat="46.40783719170738" lon="10.050793001072478"><ele>1973.0</ele><time>2026-05-02T08:28:57.998Z</time></trkpt><trkpt lat="46.407842671586714" lon="10.050640792451519"><ele>1973.0</ele><time>2026-05-02T08:28:58.998Z</time></trkpt><trkpt lat="46.40789400729468" lon="10.050471746205346"><ele>1973.0</ele><time>2026-05-02T08:28:59.998Z</time></trkpt><trkpt lat="46.407949705930626" lon="10.05032458670883"><ele>1981.25</ele><time>2026-05-02T08:29:00.998Z</time></trkpt><trkpt lat="46.40801737169597" lon="10.050192478994472"><ele>1989.5</ele><time>2026-05-02T08:29:01.998Z</time></trkpt><trkpt lat="46.4081126160631" lon="10.050151114573643"><ele>1997.75</ele><time>2026-05-02T08:29:02.998Z</time></trkpt><trkpt lat="46.40827798510382" lon="10.050224180936517"><ele>2006.0</ele><time>2026-05-02T08:29:04.998Z</time></trkpt><trkpt lat="46.40848185762235" lon="10.05027539940438"><ele>2006.0</ele><time>2026-05-02T08:29:05.998Z</time></trkpt><trkpt lat="46.40862352045932" lon="10.050356193456517"><ele>2006.0</ele><time>2026-05-02T08:29:06.998Z</time></trkpt><trkpt lat="46.40873478918154" lon="10.050518556775405"><ele>2006.0</ele><time>2026-05-02T08:29:08Z</time></trkpt><trkpt lat="46.40885220423705" lon="10.05068701877774"><ele>2009.0</ele><time>2026-05-02T08:29:09Z</time></trkpt><trkpt lat="46.40894227206685" lon="10.050815893531347"><ele>2012.0</ele><time>2026-05-02T08:29:10Z</time></trkpt><trkpt lat="46.409014449644765" lon="10.050923963632862"><ele>2015.0</ele><time>2026-05-02T08:29:11Z</time></trkpt><trkpt lat="46.409084397142166" lon="10.051037700321567"><ele>2018.0</ele><time>2026-05-02T08:29:12Z</time></trkpt><trkpt lat="46.40912193621002" lon="10.051171337748688"><ele>2021.0</ele><time>2026-05-02T08:29:13Z</time></trkpt><trkpt lat="46.40912347972004" lon="10.051295494570748"><ele>2021.0</ele><time>2026-05-02T08:29:14Z</time></trkpt><trkpt lat="46.40906927244032" lon="10.051411273597038"><ele>2021.0</ele><time>2026-05-02T08:29:15Z</time></trkpt><trkpt lat="46.40903642978279" lon="10.051528905531004"><ele>2021.0</ele><time>2026-05-02T08:29:16Z</time></trkpt><trkpt lat="46.40902174945083" lon="10.05166395188987"><ele>2021.0</ele><time>2026-05-02T08:29:17Z</time></trkpt><trkpt lat="46.40900037886925" lon="10.051823130078443"><ele>2021.0</ele><time>2026-05-02T08:29:18Z</time></trkpt><trkpt lat="46.40902814022263" lon="10.052004216036625"><ele>2020.75</ele><time>2026-05-02T08:29:19Z</time></trkpt><trkpt lat="46.409080352371" lon="10.052189779393599"><ele>2020.5</ele><time>2026-05-02T08:29:20Z</time></trkpt><trkpt lat="46.40918276670901" lon="10.052291021356021"><ele>2020.25</ele><time>2026-05-02T08:29:21Z</time></trkpt><trkpt lat="46.409262399206305" lon="10.052365020394422"><ele>2020.0</ele><time>2026-05-02T08:29:22Z</time></trkpt><trkpt lat="46.40935406478943" lon="10.052399764375158"><ele>2020.0</ele><time>2026-05-02T08:29:23Z</time></trkpt><trkpt lat="46.40945543999222" lon="10.05238447196827"><ele>2020.0</ele><time>2026-05-02T08:29:24Z</time></trkpt><trkpt lat="46.409559134959565" lon="10.052324058481936"><ele>2020.0</ele><time>2026-05-02T08:29:25Z</time></trkpt><trkpt lat="46.40965105937419" lon="10.05223871916625"><ele>2020.0</ele><time>2026-05-02T08:29:26Z</time></trkpt><trkpt lat="46.40973526539921" lon="10.052137754540313"><ele>2020.0</ele><time>2026-05-02T08:29:27Z</time></trkpt><trkpt lat="46.4098073794075" lon="10.052056671518729"><ele>2023.0</ele><time>2026-05-02T08:29:28Z</time></trkpt><trkpt lat="46.409871182761194" lon="10.051981715902624"><ele>2026.0</ele><time>2026-05-02T08:29:29Z</time></trkpt><trkpt lat="46.409932297376365" lon="10.051890374973146"><ele>2029.0</ele><time>2026-05-02T08:29:30Z</time></trkpt><trkpt lat="46.41000859099564" lon="10.051808821601808"><ele>2032.0</ele><time>2026-05-02T08:29:31Z</time></trkpt><trkpt lat="46.410120687507536" lon="10.051778253434675"><ele>2035.0</ele><time>2026-05-02T08:29:32Z</time></trkpt><trkpt lat="46.41024392469008" lon="10.051836966024469"><ele>2035.0</ele><time>2026-05-02T08:29:33Z</time></trkpt><trkpt lat="46.41039186114839" lon="10.051926424044144"><ele>2035.0</ele><time>2026-05-02T08:29:34Z</time></trkpt><trkpt lat="46.41051341166828" lon="10.052003935253747"><ele>2035.0</ele><time>2026-05-02T08:29:35Z</time></trkpt><trkpt lat="46.41065049236631" lon="10.052043205167104"><ele>2035.0</ele><time>2026-05-02T08:29:36Z</time></trkpt><trkpt lat="46.41078656384853" lon="10.052042090016933"><ele>2037.0</ele><time>2026-05-02T08:29:37Z</time></trkpt><trkpt lat="46.41092087356983" lon="10.052001232795213"><ele>2039.0</ele><time>2026-05-02T08:29:38Z</time></trkpt><trkpt lat="46.41104730828575" lon="10.05193721400695"><ele>2041.0</ele><time>2026-05-02T08:29:39Z</time></trkpt><trkpt lat="46.411154583439384" lon="10.051880517009732"><ele>2043.0</ele><time>2026-05-02T08:29:40Z</time></trkpt><trkpt lat="46.411234082641585" lon="10.051804580608756"><ele>2043.0</ele><time>2026-05-02T08:29:41Z</time></trkpt><trkpt lat="46.411305870785355" lon="10.05166031775067"><ele>2043.0</ele><time>2026-05-02T08:29:42Z</time></trkpt><trkpt lat="46.41134165356657" lon="10.051517622385765"><ele>2043.0</ele><time>2026-05-02T08:29:43Z</time></trkpt><trkpt lat="46.41134309278854" lon="10.051351025040953"><ele>2043.0</ele><time>2026-05-02T08:29:44Z</time></trkpt><trkpt lat="46.41141465474083" lon="10.051186042910954"><ele>2044.8000000000002</ele><time>2026-05-02T08:29:45Z</time></trkpt><trkpt lat="46.41142840398538" lon="10.051030764063519"><ele>2046.6000000000001</ele><time>2026-05-02T08:29:46Z</time></trkpt><trkpt lat="46.41144339167788" lon="10.050894238903712"><ele>2048.3999999999996</ele><time>2026-05-02T08:29:47Z</time></trkpt><trkpt lat="46.4114366147857" lon="10.050752347696212"><ele>2050.2</ele><time>2026-05-02T08:29:48Z</time></trkpt><trkpt lat="46.4113936156828" lon="10.050612625631826"><ele>2052.0</ele><time>2026-05-02T08:29:49Z</time></trkpt><trkpt lat="46.41130025539667" lon="10.050501537422942"><ele>2054.2</ele><time>2026-05-02T08:29:49.999Z</time></trkpt><trkpt lat="46.41118962844435" lon="10.050397565233466"><ele>2056.3999999999996</ele><time>2026-05-02T08:29:50.999Z</time></trkpt><trkpt lat="46.41107723748737" lon="10.050330775282148"><ele>2058.6000000000004</ele><time>2026-05-02T08:29:51.999Z</time></trkpt><trkpt lat="46.410985450444784" lon="10.050259923322997"><ele>2060.8</ele><time>2026-05-02T08:29:52.999Z</time></trkpt><trkpt lat="46.4109118072723" lon="10.050194570584456"><ele>2063.0</ele><time>2026-05-02T08:29:53.999Z</time></trkpt><trkpt lat="46.41084925413569" lon="10.050122881675339"><ele>2063.0</ele><time>2026-05-02T08:29:54.999Z</time></trkpt><trkpt lat="46.41079684865307" lon="10.050052682123539"><ele>2063.0</ele><time>2026-05-02T08:29:55.999Z</time></trkpt><trkpt lat="46.41076289555711" lon="10.049949661458001"><ele>2063.0</ele><time>2026-05-02T08:29:56.999Z</time></trkpt><trkpt lat="46.410741699280024" lon="10.049830437362989"><ele>2063.0</ele><time>2026-05-02T08:29:57.999Z</time></trkpt><trkpt lat="46.41075081519784" lon="10.049701234259677"><ele>2063.0</ele><time>2026-05-02T08:29:58.999Z</time></trkpt><trkpt lat="46.41075682807776" lon="10.049570512732172"><ele>2063.0</ele><time>2026-05-02T08:29:59.999Z</time></trkpt><trkpt lat="46.410783645265376" lon="10.049455649201585"><ele>2063.0</ele><time>2026-05-02T08:30:00.999Z</time></trkpt><trkpt lat="46.41083248307924" lon="10.0493489667528"><ele>2063.0</ele><time>2026-05-02T08:30:01.999Z</time></trkpt><trkpt lat="46.41090153356745" lon="10.049217567971837"><ele>2063.0</ele><time>2026-05-02T08:30:03.999Z</time></trkpt><trkpt lat="46.41094735534736" lon="10.049110155181905"><ele>2063.0</ele><time>2026-05-02T08:30:05.999Z</time></trkpt><trkpt lat="46.41105466916441" lon="10.049036676847024"><ele>2063.0</ele><time>2026-05-02T08:30:07.999Z</time></trkpt><trkpt lat="46.41114819754642" lon="10.048964616643824"><ele>2063.0</ele><time>2026-05-02T08:30:09.999Z</time></trkpt><trkpt lat="46.41123708526287" lon="10.048885060044652"><ele>2063.0</ele><time>2026-05-02T08:30:11.999Z</time></trkpt><trkpt lat="46.41132346060306" lon="10.048794643433297"><ele>2063.0</ele><time>2026-05-02T08:30:13.999Z</time></trkpt><trkpt lat="46.411415671990476" lon="10.04872015552559"><ele>2063.0</ele><time>2026-05-02T08:30:15.999Z</time></trkpt><trkpt lat="46.41151146619841" lon="10.048630580219374"><ele>2063.0</ele><time>2026-05-02T08:30:17.999Z</time></trkpt><trkpt lat="46.41160573832363" lon="10.04854264147874"><ele>2066.5</ele><time>2026-05-02T08:30:19.999Z</time></trkpt><trkpt lat="46.41170171408248" lon="10.048473790832729"><ele>2070.0</ele><time>2026-05-02T08:30:21.999Z</time></trkpt><trkpt lat="46.41179622990565" lon="10.048394484321419"><ele>2073.5</ele><time>2026-05-02T08:30:23.999Z</time></trkpt><trkpt lat="46.41188837355976" lon="10.048302321391603"><ele>2077.0</ele><time>2026-05-02T08:30:25.999Z</time></trkpt><trkpt lat="46.4120188918737" lon="10.04821486245623"><ele>2077.6</ele><time>2026-05-02T08:30:27.999Z</time></trkpt><trkpt lat="46.41207525490418" lon="10.048163042310541"><ele>2078.2</ele><time>2026-05-02T08:30:28.999Z</time></trkpt><trkpt lat="46.41215336205564" lon="10.048048546686953"><ele>2078.8</ele><time>2026-05-02T08:30:30.999Z</time></trkpt><trkpt lat="46.41224424105404" lon="10.04796037398824"><ele>2079.4</ele><time>2026-05-02T08:30:32.999Z</time></trkpt><trkpt lat="46.41233524615841" lon="10.047856201094575"><ele>2080.0</ele><time>2026-05-02T08:30:34.999Z</time></trkpt><trkpt lat="46.41245440579156" lon="10.047775874273261"><ele>2081.8333333333335</ele><time>2026-05-02T08:30:36.999Z</time></trkpt><trkpt lat="46.41253170633071" lon="10.047765910246076"><ele>2083.666666666667</ele><time>2026-05-02T08:30:37.999Z</time></trkpt><trkpt lat="46.41259727418329" lon="10.047768289194138"><ele>2085.5</ele><time>2026-05-02T08:30:38.999Z</time></trkpt><trkpt lat="46.41265320731571" lon="10.04788244927878"><ele>2087.3333333333335</ele><time>2026-05-02T08:30:39.999Z</time></trkpt><trkpt lat="46.41268919550183" lon="10.047976377280909"><ele>2089.1666666666665</ele><time>2026-05-02T08:30:40.999Z</time></trkpt><trkpt lat="46.412744140176684" lon="10.048065620818988"><ele>2091.0</ele><time>2026-05-02T08:30:41.999Z</time></trkpt><trkpt lat="46.41277151763746" lon="10.048161125673499"><ele>2091.0</ele><time>2026-05-02T08:30:42.999Z</time></trkpt><trkpt lat="46.4128142784941" lon="10.048244923427166"><ele>2091.0</ele><time>2026-05-02T08:30:43.999Z</time></trkpt><trkpt lat="46.41286059468401" lon="10.048339282080367"><ele>2091.0</ele><time>2026-05-02T08:30:44.999Z</time></trkpt><trkpt lat="46.41290801251646" lon="10.04842300716033"><ele>2091.0</ele><time>2026-05-02T08:30:45.999Z</time></trkpt><trkpt lat="46.412953495996945" lon="10.048511824369026"><ele>2091.0</ele><time>2026-05-02T08:30:46.999Z</time></trkpt><trkpt lat="46.413013977391444" lon="10.0485483275294"><ele>2091.0</ele><time>2026-05-02T08:30:47.999Z</time></trkpt><trkpt lat="46.413088670403454" lon="10.048532213647023"><ele>2091.0</ele><time>2026-05-02T08:30:48.999Z</time></trkpt><trkpt lat="46.41316022797162" lon="10.048481906660887"><ele>2090.8</ele><time>2026-05-02T08:30:49.998Z</time></trkpt><trkpt lat="46.4132166064149" lon="10.048390933846875"><ele>2090.6</ele><time>2026-05-02T08:30:50.998Z</time></trkpt><trkpt lat="46.41324688125582" lon="10.048283856253837"><ele>2090.4</ele><time>2026-05-02T08:30:51.998Z</time></trkpt><trkpt lat="46.41323859969189" lon="10.048150161249156"><ele>2090.2</ele><time>2026-05-02T08:30:52.998Z</time></trkpt><trkpt lat="46.41319823041818" lon="10.047999372400705"><ele>2090.0</ele><time>2026-05-02T08:30:53.998Z</time></trkpt><trkpt lat="46.41312601890396" lon="10.047877739794659"><ele>2092.8</ele><time>2026-05-02T08:30:54.998Z</time></trkpt><trkpt lat="46.413074227035295" lon="10.047773009558332"><ele>2095.6</ele><time>2026-05-02T08:30:55.998Z</time></trkpt><trkpt lat="46.41305817283981" lon="10.047637559603787"><ele>2098.4</ele><time>2026-05-02T08:30:56.998Z</time></trkpt><trkpt lat="46.41309730779377" lon="10.047499947527538"><ele>2101.2</ele><time>2026-05-02T08:30:57.998Z</time></trkpt><trkpt lat="46.413154169599046" lon="10.047426907322734"><ele>2104.0</ele><time>2026-05-02T08:30:58.998Z</time></trkpt><trkpt lat="46.41326437675513" lon="10.04745745821297"><ele>2107.25</ele><time>2026-05-02T08:30:59.998Z</time></trkpt><trkpt lat="46.4133758159615" lon="10.047425887412805"><ele>2110.5</ele><time>2026-05-02T08:31:00.998Z</time></trkpt><trkpt lat="46.413521468492" lon="10.0474135103795"><ele>2113.75</ele><time>2026-05-02T08:31:01.998Z</time></trkpt><trkpt lat="46.41368510403373" lon="10.047384888284034"><ele>2117.0</ele><time>2026-05-02T08:31:02.998Z</time></trkpt><trkpt lat="46.413803214634676" lon="10.047400276659877"><ele>2119.4</ele><time>2026-05-02T08:31:03.998Z</time></trkpt><trkpt lat="46.413887459874076" lon="10.047402778169575"><ele>2121.7999999999997</ele><time>2026-05-02T08:31:04.998Z</time></trkpt><trkpt lat="46.41395804254871" lon="10.047377376659176"><ele>2124.2</ele><time>2026-05-02T08:31:05.998Z</time></trkpt><trkpt lat="46.41402015432473" lon="10.047285669343026"><ele>2126.6</ele><time>2026-05-02T08:31:06.998Z</time></trkpt><trkpt lat="46.414042205693754" lon="10.047146566665353"><ele>2129.0</ele><time>2026-05-02T08:31:07.998Z</time></trkpt><trkpt lat="46.41401877300579" lon="10.04697274460643"><ele>2129.0</ele><time>2026-05-02T08:31:08.998Z</time></trkpt><trkpt lat="46.41396262715241" lon="10.04685347751894"><ele>2129.0</ele><time>2026-05-02T08:31:09.998Z</time></trkpt><trkpt lat="46.41387556858793" lon="10.046743089457305"><ele>2129.0</ele><time>2026-05-02T08:31:10.998Z</time></trkpt><trkpt lat="46.41375864795346" lon="10.04666648075939"><ele>2129.0</ele><time>2026-05-02T08:31:11.998Z</time></trkpt><trkpt lat="46.413609288917435" lon="10.046629846970385"><ele>2125.0</ele><time>2026-05-02T08:31:12.998Z</time></trkpt><trkpt lat="46.41343275597246" lon="10.046661547304408"><ele>2121.0</ele><time>2026-05-02T08:31:14Z</time></trkpt><trkpt lat="46.41327675652817" lon="10.046682315045949"><ele>2117.0</ele><time>2026-05-02T08:31:15Z</time></trkpt><trkpt lat="46.41313699704756" lon="10.046681581558815"><ele>2118.5</ele><time>2026-05-02T08:31:16Z</time></trkpt><trkpt lat="46.4130133265974" lon="10.046607648038"><ele>2120.0</ele><time>2026-05-02T08:31:17Z</time></trkpt><trkpt lat="46.4128960084778" lon="10.04647647275868"><ele>2121.5</ele><time>2026-05-02T08:31:18Z</time></trkpt><trkpt lat="46.412850903580335" lon="10.046339635962418"><ele>2123.0</ele><time>2026-05-02T08:31:19Z</time></trkpt><trkpt lat="46.412838409260694" lon="10.0461562444478"><ele>2123.0</ele><time>2026-05-02T08:31:20Z</time></trkpt><trkpt lat="46.41281728403251" lon="10.04594276951026"><ele>2123.0</ele><time>2026-05-02T08:31:21Z</time></trkpt><trkpt lat="46.41278738734589" lon="10.045707899541652"><ele>2123.0</ele><time>2026-05-02T08:31:22Z</time></trkpt><trkpt lat="46.41278163721578" lon="10.04552001529402"><ele>2123.0</ele><time>2026-05-02T08:31:23Z</time></trkpt><trkpt lat="46.41280968745902" lon="10.045385887878975"><ele>2126.5</ele><time>2026-05-02T08:31:24Z</time></trkpt><trkpt lat="46.41286524880694" lon="10.045276046300136"><ele>2130.0</ele><time>2026-05-02T08:31:25Z</time></trkpt><trkpt lat="46.412998692600326" lon="10.045235635222447"><ele>2133.5</ele><time>2026-05-02T08:31:26Z</time></trkpt><trkpt lat="46.41315848760656" lon="10.045201840584053"><ele>2137.0</ele><time>2026-05-02T08:31:27Z</time></trkpt><trkpt lat="46.41333887312352" lon="10.045146578463461"><ele>2137.75</ele><time>2026-05-02T08:31:28Z</time></trkpt><trkpt lat="46.413468532187245" lon="10.045065205591326"><ele>2138.5</ele><time>2026-05-02T08:31:29Z</time></trkpt><trkpt lat="46.41358901736659" lon="10.044975128667444"><ele>2139.25</ele><time>2026-05-02T08:31:30Z</time></trkpt><trkpt lat="46.413648710351026" lon="10.044838524977397"><ele>2140.0</ele><time>2026-05-02T08:31:31Z</time></trkpt><trkpt lat="46.41367602932195" lon="10.044656007823427"><ele>2140.3333333333335</ele><time>2026-05-02T08:31:32Z</time></trkpt><trkpt lat="46.41366503543692" lon="10.044447131547736"><ele>2140.6666666666665</ele><time>2026-05-02T08:31:33Z</time></trkpt><trkpt lat="46.41363325169808" lon="10.04420557572346"><ele>2141.0</ele><time>2026-05-02T08:31:34Z</time></trkpt><trkpt lat="46.41361638034118" lon="10.04395184422602"><ele>2141.0</ele><time>2026-05-02T08:31:35Z</time></trkpt><trkpt lat="46.41362040765176" lon="10.043721873985726"><ele>2141.0</ele><time>2026-05-02T08:31:36Z</time></trkpt><trkpt lat="46.41365554625441" lon="10.043480532843422"><ele>2141.0</ele><time>2026-05-02T08:31:37Z</time></trkpt><trkpt lat="46.41372974322758" lon="10.043228620167872"><ele>2150.0</ele><time>2026-05-02T08:31:38Z</time></trkpt><trkpt lat="46.4138232263336" lon="10.042982170773861"><ele>2159.0</ele><time>2026-05-02T08:31:39Z</time></trkpt><trkpt lat="46.4138907522997" lon="10.042762370804667"><ele>2168.0</ele><time>2026-05-02T08:31:40Z</time></trkpt><trkpt lat="46.413940224362406" lon="10.042528037193174"><ele>2168.333333333333</ele><time>2026-05-02T08:31:41Z</time></trkpt><trkpt lat="46.41394455615643" lon="10.042271224324766"><ele>2168.6666666666665</ele><time>2026-05-02T08:31:42Z</time></trkpt><trkpt lat="46.413934637014634" lon="10.042027120049525"><ele>2169.0</ele><time>2026-05-02T08:31:43Z</time></trkpt><trkpt lat="46.41392577334255" lon="10.041815926617476"><ele>2169.0</ele><time>2026-05-02T08:31:44Z</time></trkpt><trkpt lat="46.413910292963266" lon="10.041649742885811"><ele>2169.0</ele><time>2026-05-02T08:31:45Z</time></trkpt><trkpt lat="46.41382409188216" lon="10.041462394330827"><ele>2169.0</ele><time>2026-05-02T08:31:45.999Z</time></trkpt><trkpt lat="46.41370006891465" lon="10.041310606601465"><ele>2169.0</ele><time>2026-05-02T08:31:46.999Z</time></trkpt><trkpt lat="46.41354531874335" lon="10.041163628100893"><ele>2170.0</ele><time>2026-05-02T08:31:47.999Z</time></trkpt><trkpt lat="46.413369294549284" lon="10.041007189032932"><ele>2171.0</ele><time>2026-05-02T08:31:48.999Z</time></trkpt><trkpt lat="46.41320780520048" lon="10.040957398946118"><ele>2172.0</ele><time>2026-05-02T08:31:49.999Z</time></trkpt><trkpt lat="46.41302932135761" lon="10.040871954299078"><ele>2172.25</ele><time>2026-05-02T08:31:50.999Z</time></trkpt><trkpt lat="46.41288483522025" lon="10.040784423380995"><ele>2172.5</ele><time>2026-05-02T08:31:51.999Z</time></trkpt><trkpt lat="46.41277281772016" lon="10.040714588450166"><ele>2172.75</ele><time>2026-05-02T08:31:52.999Z</time></trkpt><trkpt lat="46.41268612372192" lon="10.040589286613246"><ele>2173.0</ele><time>2026-05-02T08:31:53.999Z</time></trkpt><trkpt lat="46.4126207572706" lon="10.040442837535553"><ele>2173.0</ele><time>2026-05-02T08:31:54.999Z</time></trkpt><trkpt lat="46.41258460339608" lon="10.040229718782317"><ele>2173.0</ele><time>2026-05-02T08:31:55.999Z</time></trkpt><trkpt lat="46.412554847542296" lon="10.039971725162715"><ele>2173.0</ele><time>2026-05-02T08:31:56.999Z</time></trkpt><trkpt lat="46.412543773517754" lon="10.039740068958258"><ele>2176.666666666667</ele><time>2026-05-02T08:31:57.999Z</time></trkpt><trkpt lat="46.4125400387388" lon="10.03950989227472"><ele>2180.3333333333335</ele><time>2026-05-02T08:31:58.999Z</time></trkpt><trkpt lat="46.41248495290556" lon="10.039322125485404"><ele>2184.0</ele><time>2026-05-02T08:31:59.999Z</time></trkpt><trkpt lat="46.412376955079445" lon="10.039169825191257"><ele>2186.6666666666665</ele><time>2026-05-02T08:32:00.999Z</time></trkpt><trkpt lat="46.41227225339432" lon="10.039022716410534"><ele>2189.333333333333</ele><time>2026-05-02T08:32:01.999Z</time></trkpt><trkpt lat="46.41211164540606" lon="10.038917736808228"><ele>2192.0</ele><time>2026-05-02T08:32:02.999Z</time></trkpt><trkpt lat="46.412027689336554" lon="10.038743208781746"><ele>2186.6666666666665</ele><time>2026-05-02T08:32:03.999Z</time></trkpt><trkpt lat="46.4120138905386" lon="10.038513367028091"><ele>2181.3333333333335</ele><time>2026-05-02T08:32:04.999Z</time></trkpt><trkpt lat="46.41206403351602" lon="10.038255092230811"><ele>2176.0</ele><time>2026-05-02T08:32:05.999Z</time></trkpt><trkpt lat="46.41215036327706" lon="10.038073388539726"><ele>2180.666666666667</ele><time>2026-05-02T08:32:06.999Z</time></trkpt><trkpt lat="46.41228083734004" lon="10.037961600325588"><ele>2185.3333333333335</ele><time>2026-05-02T08:32:07.999Z</time></trkpt><trkpt lat="46.41243021676825" lon="10.03791523777422"><ele>2190.0</ele><time>2026-05-02T08:32:08.999Z</time></trkpt><trkpt lat="46.412591553230406" lon="10.037965455436641"><ele>2190.0</ele><time>2026-05-02T08:32:09.999Z</time></trkpt><trkpt lat="46.41273472340108" lon="10.038079011392963"><ele>2190.0</ele><time>2026-05-02T08:32:10.999Z</time></trkpt><trkpt lat="46.41288590519243" lon="10.038251782808958"><ele>2190.0</ele><time>2026-05-02T08:32:11.999Z</time></trkpt><trkpt lat="46.413014584811194" lon="10.038385210388377"><ele>2196.3333333333335</ele><time>2026-05-02T08:32:12.999Z</time></trkpt><trkpt lat="46.41311706062084" lon="10.038578051205755"><ele>2202.666666666667</ele><time>2026-05-02T08:32:13.999Z</time></trkpt><trkpt lat="46.413250627840945" lon="10.038713681092384"><ele>2209.0</ele><time>2026-05-02T08:32:14.999Z</time></trkpt><trkpt lat="46.41337159993481" lon="10.038835948991458"><ele>2209.0</ele><time>2026-05-02T08:32:15.999Z</time></trkpt><trkpt lat="46.413515455809126" lon="10.038941579309597"><ele>2209.0</ele><time>2026-05-02T08:32:16.999Z</time></trkpt><trkpt lat="46.41371777572867" lon="10.03906811427286"><ele>2209.0</ele><time>2026-05-02T08:32:17.999Z</time></trkpt><trkpt lat="46.413960726303024" lon="10.039187798024116"><ele>2210.0</ele><time>2026-05-02T08:32:18.999Z</time></trkpt><trkpt lat="46.41422020920225" lon="10.039304218008619"><ele>2211.0</ele><time>2026-05-02T08:32:20.999Z</time></trkpt><trkpt lat="46.41443296687461" lon="10.039398502876296"><ele>2211.0</ele><time>2026-05-02T08:32:21.999Z</time></trkpt><trkpt lat="46.414634089543874" lon="10.039475414009049"><ele>2211.0</ele><time>2026-05-02T08:32:22.999Z</time></trkpt><trkpt lat="46.41481625003795" lon="10.03956397267687"><ele>2211.0</ele><time>2026-05-02T08:32:23.999Z</time></trkpt><trkpt lat="46.41501670619615" lon="10.03970524128402"><ele>2211.6666666666665</ele><time>2026-05-02T08:32:24.999Z</time></trkpt><trkpt lat="46.41517569503864" lon="10.039903211026624"><ele>2212.333333333333</ele><time>2026-05-02T08:32:25.999Z</time></trkpt><trkpt lat="46.41530885653481" lon="10.040096025169648"><ele>2213.0</ele><time>2026-05-02T08:32:26.999Z</time></trkpt><trkpt lat="46.41542178018719" lon="10.04026917477536"><ele>2219.75</ele><time>2026-05-02T08:32:27.999Z</time></trkpt><trkpt lat="46.41553763439937" lon="10.040417745061788"><ele>2226.5</ele><time>2026-05-02T08:32:28.999Z</time></trkpt><trkpt lat="46.415623086426336" lon="10.040557564978323"><ele>2233.25</ele><time>2026-05-02T08:32:29.999Z</time></trkpt><trkpt lat="46.415700466336936" lon="10.040675636070484"><ele>2240.0</ele><time>2026-05-02T08:32:30.999Z</time></trkpt><trkpt lat="46.41577186964443" lon="10.040755161986237"><ele>2240.0</ele><time>2026-05-02T08:32:31.999Z</time></trkpt><trkpt lat="46.4158622167984" lon="10.040763709143627"><ele>2240.0</ele><time>2026-05-02T08:32:32.999Z</time></trkpt><trkpt lat="46.415949540755086" lon="10.040692216259897"><ele>2240.0</ele><time>2026-05-02T08:32:33.999Z</time></trkpt><trkpt lat="46.41598568928097" lon="10.040562750445977"><ele>2240.0</ele><time>2026-05-02T08:32:34.999Z</time></trkpt><trkpt lat="46.41595471941728" lon="10.040402883368712"><ele>2240.0</ele><time>2026-05-02T08:32:35.999Z</time></trkpt><trkpt lat="46.415872774695245" lon="10.040252250797167"><ele>2240.0</ele><time>2026-05-02T08:32:36.999Z</time></trkpt><trkpt lat="46.415741726429516" lon="10.040138197916416"><ele>2240.0</ele><time>2026-05-02T08:32:37.999Z</time></trkpt><trkpt lat="46.4155784103853" lon="10.04001052494361"><ele>2240.0</ele><time>2026-05-02T08:32:38.999Z</time></trkpt><trkpt lat="46.41542779456836" lon="10.039804183087844"><ele>2234.5</ele><time>2026-05-02T08:32:39.999Z</time></trkpt><trkpt lat="46.41528648822529" lon="10.03954177639863"><ele>2229.0</ele><time>2026-05-02T08:32:40.999Z</time></trkpt><trkpt lat="46.41515564250161" lon="10.039248027538049"><ele>2238.0</ele><time>2026-05-02T08:32:41.999Z</time></trkpt><trkpt lat="46.41503850843909" lon="10.03895847398433"><ele>2247.0</ele><time>2026-05-02T08:32:42.999Z</time></trkpt><trkpt lat="46.414889627763515" lon="10.038688860400242"><ele>2247.0</ele><time>2026-05-02T08:32:43.999Z</time></trkpt><trkpt lat="46.41472985615984" lon="10.038502403739164"><ele>2247.0</ele><time>2026-05-02T08:32:44.999Z</time></trkpt><trkpt lat="46.414576728606875" lon="10.038349656558744"><ele>2247.0</ele><time>2026-05-02T08:32:45.998Z</time></trkpt><trkpt lat="46.414445245492686" lon="10.038178506454477"><ele>2245.3333333333335</ele><time>2026-05-02T08:32:46.998Z</time></trkpt><trkpt lat="46.414362697066785" lon="10.037987711998236"><ele>2243.666666666667</ele><time>2026-05-02T08:32:47.998Z</time></trkpt><trkpt lat="46.414309913381196" lon="10.037764083707321"><ele>2242.0</ele><time>2026-05-02T08:32:48.998Z</time></trkpt><trkpt lat="46.41430020229235" lon="10.037516309201393"><ele>2246.3333333333335</ele><time>2026-05-02T08:32:49.998Z</time></trkpt><trkpt lat="46.414305392579465" lon="10.037223724366024"><ele>2250.6666666666665</ele><time>2026-05-02T08:32:50.998Z</time></trkpt><trkpt lat="46.41430210841236" lon="10.036974964421654"><ele>2255.0</ele><time>2026-05-02T08:32:51.998Z</time></trkpt><trkpt lat="46.41423595636996" lon="10.036734537958267"><ele>2264.0</ele><time>2026-05-02T08:32:52.998Z</time></trkpt><trkpt lat="46.414147276897026" lon="10.036490789830474"><ele>2273.0</ele><time>2026-05-02T08:32:53.998Z</time></trkpt><trkpt lat="46.41401715892167" lon="10.03626973887948"><ele>2282.0</ele><time>2026-05-02T08:32:54.998Z</time></trkpt><trkpt lat="46.41386838898322" lon="10.036084501733683"><ele>2281.333333333333</ele><time>2026-05-02T08:32:55.998Z</time></trkpt><trkpt lat="46.413759964614115" lon="10.03588666741699"><ele>2280.6666666666665</ele><time>2026-05-02T08:32:56.998Z</time></trkpt><trkpt lat="46.413690077542576" lon="10.035686235033802"><ele>2280.0</ele><time>2026-05-02T08:32:57.998Z</time></trkpt><trkpt lat="46.41361893743819" lon="10.035509931298412"><ele>2280.0</ele><time>2026-05-02T08:32:58.998Z</time></trkpt><trkpt lat="46.41353757066019" lon="10.0353470427451"><ele>2280.0</ele><time>2026-05-02T08:32:59.998Z</time></trkpt><trkpt lat="46.41344169594881" lon="10.035181263381576"><ele>2280.0</ele><time>2026-05-02T08:33:00.998Z</time></trkpt><trkpt lat="46.41335094830518" lon="10.035058245434058"><ele>2280.0</ele><time>2026-05-02T08:33:01.998Z</time></trkpt><trkpt lat="46.41327793546465" lon="10.03493430722455"><ele>2281.0</ele><time>2026-05-02T08:33:02.998Z</time></trkpt><trkpt lat="46.41316763810859" lon="10.0348023580529"><ele>2282.0</ele><time>2026-05-02T08:33:03.998Z</time></trkpt><trkpt lat="46.413012413422514" lon="10.034672667349687"><ele>2283.0</ele><time>2026-05-02T08:33:04.998Z</time></trkpt><trkpt lat="46.41278761175984" lon="10.034597222458894"><ele>2283.0</ele><time>2026-05-02T08:33:05.998Z</time></trkpt><trkpt lat="46.41264051860714" lon="10.034523275425972"><ele>2283.0</ele><time>2026-05-02T08:33:06.998Z</time></trkpt><trkpt lat="46.412532762289224" lon="10.034389124616043"><ele>2283.0</ele><time>2026-05-02T08:33:07.998Z</time></trkpt><trkpt lat="46.41246071979865" lon="10.03424607901415"><ele>2283.0</ele><time>2026-05-02T08:33:08.998Z</time></trkpt><trkpt lat="46.41241422367376" lon="10.03409156889861"><ele>2280.25</ele><time>2026-05-02T08:33:09.998Z</time></trkpt><trkpt lat="46.41235949290704" lon="10.033906563333433"><ele>2277.5</ele><time>2026-05-02T08:33:10.998Z</time></trkpt><trkpt lat="46.412300779677054" lon="10.033712119048081"><ele>2274.75</ele><time>2026-05-02T08:33:11.998Z</time></trkpt><trkpt lat="46.41224325919861" lon="10.033530619512822"><ele>2272.0</ele><time>2026-05-02T08:33:12.998Z</time></trkpt><trkpt lat="46.412152118912665" lon="10.033352521205417"><ele>2281.0</ele><time>2026-05-02T08:33:13.998Z</time></trkpt><trkpt lat="46.4120313276545" lon="10.033203763796621"><ele>2290.0</ele><time>2026-05-02T08:33:14.998Z</time></trkpt><trkpt lat="46.41188110804614" lon="10.033120436060079"><ele>2299.0</ele><time>2026-05-02T08:33:15.998Z</time></trkpt><trkpt lat="46.41176084944306" lon="10.033021654680113"><ele>2299.0</ele><time>2026-05-02T08:33:16.998Z</time></trkpt><trkpt lat="46.41165201611833" lon="10.032916268225804"><ele>2299.0</ele><time>2026-05-02T08:33:17.998Z</time></trkpt><trkpt lat="46.41156121436522" lon="10.032788072814805"><ele>2299.0</ele><time>2026-05-02T08:33:18.998Z</time></trkpt><trkpt lat="46.41148391613992" lon="10.032623993055626"><ele>2299.0</ele><time>2026-05-02T08:33:20Z</time></trkpt><trkpt lat="46.41144850772577" lon="10.03241879424859"><ele>2303.0</ele><time>2026-05-02T08:33:21Z</time></trkpt><trkpt lat="46.411439379936986" lon="10.032220970436446"><ele>2307.0</ele><time>2026-05-02T08:33:22Z</time></trkpt><trkpt lat="46.41145668908344" lon="10.032017287710996"><ele>2311.0</ele><time>2026-05-02T08:33:23Z</time></trkpt><trkpt lat="46.41148180191681" lon="10.031779868903573"><ele>2315.0</ele><time>2026-05-02T08:33:24Z</time></trkpt><trkpt lat="46.41151317784802" lon="10.031587148861586"><ele>2317.25</ele><time>2026-05-02T08:33:25Z</time></trkpt><trkpt lat="46.411511965942964" lon="10.031398891613335"><ele>2319.5</ele><time>2026-05-02T08:33:26Z</time></trkpt><trkpt lat="46.41147267941289" lon="10.031214896932704"><ele>2321.75</ele><time>2026-05-02T08:33:27Z</time></trkpt><trkpt lat="46.41142498318356" lon="10.031054461548436"><ele>2324.0</ele><time>2026-05-02T08:33:28Z</time></trkpt><trkpt lat="46.41138854884529" lon="10.030918578217884"><ele>2324.8</ele><time>2026-05-02T08:33:29Z</time></trkpt><trkpt lat="46.41136853158426" lon="10.03078846385976"><ele>2325.6000000000004</ele><time>2026-05-02T08:33:30Z</time></trkpt><trkpt lat="46.4113557722616" lon="10.030648463461707"><ele>2326.4</ele><time>2026-05-02T08:33:31Z</time></trkpt><trkpt lat="46.41135957476903" lon="10.030495435887211"><ele>2327.2000000000003</ele><time>2026-05-02T08:33:32Z</time></trkpt><trkpt lat="46.41137311968871" lon="10.030354375483343"><ele>2328.0</ele><time>2026-05-02T08:33:33Z</time></trkpt><trkpt lat="46.41140110494622" lon="10.03022937824324"><ele>2328.0</ele><time>2026-05-02T08:33:34Z</time></trkpt><trkpt lat="46.41144145378412" lon="10.030109526206616"><ele>2328.0</ele><time>2026-05-02T08:33:35Z</time></trkpt><trkpt lat="46.41147964826032" lon="10.029986840543202"><ele>2328.0</ele><time>2026-05-02T08:33:36Z</time></trkpt><trkpt lat="46.41151620193135" lon="10.029852401830828"><ele>2328.0</ele><time>2026-05-02T08:33:37Z</time></trkpt><trkpt lat="46.4115426809839" lon="10.029700123044801"><ele>2328.0</ele><time>2026-05-02T08:33:38Z</time></trkpt><trkpt lat="46.4115529804633" lon="10.029548777232915"><ele>2328.25</ele><time>2026-05-02T08:33:39Z</time></trkpt><trkpt lat="46.411530919593226" lon="10.029382622931017"><ele>2328.5</ele><time>2026-05-02T08:33:40Z</time></trkpt><trkpt lat="46.41147511375692" lon="10.029199533886898"><ele>2328.75</ele><time>2026-05-02T08:33:41Z</time></trkpt><trkpt lat="46.4114187610035" lon="10.02895177716638"><ele>2329.0</ele><time>2026-05-02T08:33:42Z</time></trkpt><trkpt lat="46.4113226520568" lon="10.028828487747692"><ele>2328.75</ele><time>2026-05-02T08:33:43Z</time></trkpt><trkpt lat="46.411224490707454" lon="10.028707842185327"><ele>2328.5</ele><time>2026-05-02T08:33:44Z</time></trkpt><trkpt lat="46.41116192098258" lon="10.028566549566179"><ele>2328.25</ele><time>2026-05-02T08:33:45Z</time></trkpt><trkpt lat="46.41110852822946" lon="10.02842779501397"><ele>2328.0</ele><time>2026-05-02T08:33:46Z</time></trkpt><trkpt lat="46.41107218257605" lon="10.028268176259411"><ele>2328.0</ele><time>2026-05-02T08:33:47Z</time></trkpt><trkpt lat="46.41104286822161" lon="10.028135006412116"><ele>2328.0</ele><time>2026-05-02T08:33:48Z</time></trkpt><trkpt lat="46.41101567296786" lon="10.02801411189768"><ele>2328.0</ele><time>2026-05-02T08:33:49Z</time></trkpt><trkpt lat="46.41099330171161" lon="10.027907204387896"><ele>2328.0</ele><time>2026-05-02T08:33:50Z</time></trkpt><trkpt lat="46.410979364989814" lon="10.027808233220977"><ele>2328.0</ele><time>2026-05-02T08:33:51Z</time></trkpt><trkpt lat="46.4109633827902" lon="10.027718088865996"><ele>2328.0</ele><time>2026-05-02T08:33:52Z</time></trkpt><trkpt lat="46.4109483562583" lon="10.02762675375628"><ele>2328.0</ele><time>2026-05-02T08:33:53Z</time></trkpt><trkpt lat="46.41091184860247" lon="10.027477028873767"><ele>2322.0</ele><time>2026-05-02T08:33:55Z</time></trkpt><trkpt lat="46.41087884338696" lon="10.027380823898095"><ele>2322.0</ele><time>2026-05-02T08:33:57Z</time></trkpt><trkpt lat="46.41075837601853" lon="10.027376773537892"><ele>2322.0</ele><time>2026-05-02T08:34:03.999Z</time></trkpt></trkseg><trkseg><trkpt lat="46.4107894282579" lon="10.027263520540243"><ele>2322.0</ele><time>2026-05-02T08:56:42.999Z</time></trkpt><trkpt lat="46.41081422360765" lon="10.027177967485194"><ele>2322.0</ele><time>2026-05-02T08:56:44.999Z</time></trkpt><trkpt lat="46.410826007418166" lon="10.027027188309395"><ele>2322.0</ele><time>2026-05-02T08:56:46.999Z</time></trkpt><trkpt lat="46.41081533476605" lon="10.026929347906972"><ele>2322.0</ele><time>2026-05-02T08:56:47.999Z</time></trkpt><trkpt lat="46.410795208334115" lon="10.026828038751576"><ele>2322.0</ele><time>2026-05-02T08:56:48.999Z</time></trkpt><trkpt lat="46.41076957696028" lon="10.026715031829172"><ele>2322.0</ele><time>2026-05-02T08:56:49.999Z</time></trkpt><trkpt lat="46.410764571069954" lon="10.026592455743627"><ele>2320.7999999999997</ele><time>2026-05-02T08:56:50.999Z</time></trkpt><trkpt lat="46.410745661431804" lon="10.026454697580947"><ele>2319.6</ele><time>2026-05-02T08:56:51.999Z</time></trkpt><trkpt lat="46.41072779518747" lon="10.026304500032744"><ele>2318.3999999999996</ele><time>2026-05-02T08:56:52.999Z</time></trkpt><trkpt lat="46.41071217670923" lon="10.026159513229786"><ele>2317.2</ele><time>2026-05-02T08:56:53.999Z</time></trkpt><trkpt lat="46.41069771592898" lon="10.025995194588862"><ele>2316.0</ele><time>2026-05-02T08:56:54.999Z</time></trkpt><trkpt lat="46.41068556367289" lon="10.025812204360735"><ele>2315.25</ele><time>2026-05-02T08:56:55.999Z</time></trkpt><trkpt lat="46.410666078555494" lon="10.025625827595128"><ele>2314.5</ele><time>2026-05-02T08:56:56.999Z</time></trkpt><trkpt lat="46.41066092678769" lon="10.025432456984902"><ele>2313.75</ele><time>2026-05-02T08:56:57.999Z</time></trkpt><trkpt lat="46.41066085821715" lon="10.025205304868374"><ele>2313.0</ele><time>2026-05-02T08:56:58.999Z</time></trkpt><trkpt lat="46.410667109296035" lon="10.025004536290483"><ele>2310.3333333333335</ele><time>2026-05-02T08:56:59.999Z</time></trkpt><trkpt lat="46.410674908375235" lon="10.024795988618207"><ele>2307.666666666667</ele><time>2026-05-02T08:57:00.999Z</time></trkpt><trkpt lat="46.41068505599065" lon="10.024572791853169"><ele>2305.0</ele><time>2026-05-02T08:57:01.999Z</time></trkpt><trkpt lat="46.41068827684876" lon="10.024343888576096"><ele>2304.75</ele><time>2026-05-02T08:57:02.999Z</time></trkpt><trkpt lat="46.41069318327823" lon="10.024128963266252"><ele>2304.5</ele><time>2026-05-02T08:57:03.999Z</time></trkpt><trkpt lat="46.410703671349445" lon="10.023972231785535"><ele>2304.25</ele><time>2026-05-02T08:57:04.999Z</time></trkpt><trkpt lat="46.410726329394066" lon="10.023848766766955"><ele>2304.0</ele><time>2026-05-02T08:57:05.999Z</time></trkpt><trkpt lat="46.41075593560689" lon="10.023642420702988"><ele>2304.0</ele><time>2026-05-02T08:57:06.999Z</time></trkpt><trkpt lat="46.41073738862547" lon="10.02339736667362"><ele>2304.0</ele><time>2026-05-02T08:57:07.999Z</time></trkpt><trkpt lat="46.41074944907529" lon="10.023019628160757"><ele>2304.0</ele><time>2026-05-02T08:57:08.999Z</time></trkpt><trkpt lat="46.4107568510616" lon="10.022826991057288"><ele>2304.25</ele><time>2026-05-02T08:57:09.999Z</time></trkpt><trkpt lat="46.4107634747154" lon="10.02264437189408"><ele>2304.5</ele><time>2026-05-02T08:57:10.999Z</time></trkpt><trkpt lat="46.4107798731672" lon="10.022459944350357"><ele>2304.75</ele><time>2026-05-02T08:57:11.999Z</time></trkpt><trkpt lat="46.41080084784968" lon="10.022281976989984"><ele>2305.0</ele><time>2026-05-02T08:57:12.998Z</time></trkpt><trkpt lat="46.41083556619969" lon="10.02210260650039"><ele>2304.5</ele><time>2026-05-02T08:57:13.998Z</time></trkpt><trkpt lat="46.41088798466057" lon="10.02193195911368"><ele>2304.0</ele><time>2026-05-02T08:57:14.998Z</time></trkpt><trkpt lat="46.41095883205442" lon="10.021772292900266"><ele>2303.5</ele><time>2026-05-02T08:57:15.998Z</time></trkpt><trkpt lat="46.41104820781997" lon="10.021626220175614"><ele>2303.0</ele><time>2026-05-02T08:57:16.998Z</time></trkpt><trkpt lat="46.411150300703014" lon="10.02151050214232"><ele>2300.75</ele><time>2026-05-02T08:57:17.998Z</time></trkpt><trkpt lat="46.41126506509007" lon="10.021409040575024"><ele>2298.5</ele><time>2026-05-02T08:57:18.998Z</time></trkpt><trkpt lat="46.41137932573823" lon="10.021330807398831"><ele>2296.25</ele><time>2026-05-02T08:57:19.998Z</time></trkpt><trkpt lat="46.41150449030732" lon="10.021276467708466"><ele>2294.0</ele><time>2026-05-02T08:57:20.998Z</time></trkpt><trkpt lat="46.41163117927386" lon="10.02127815461801"><ele>2293.75</ele><time>2026-05-02T08:57:21.998Z</time></trkpt><trkpt lat="46.41175988252618" lon="10.021277453863132"><ele>2293.5</ele><time>2026-05-02T08:57:22.998Z</time></trkpt><trkpt lat="46.4118941982174" lon="10.021312847886282"><ele>2293.25</ele><time>2026-05-02T08:57:23.998Z</time></trkpt><trkpt lat="46.41203246335843" lon="10.021371541268591"><ele>2293.0</ele><time>2026-05-02T08:57:24.998Z</time></trkpt><trkpt lat="46.412179805333075" lon="10.021436186086248"><ele>2291.75</ele><time>2026-05-02T08:57:25.998Z</time></trkpt><trkpt lat="46.41232491315018" lon="10.021461986822027"><ele>2290.5</ele><time>2026-05-02T08:57:26.998Z</time></trkpt><trkpt lat="46.412468751671675" lon="10.021492127602377"><ele>2289.25</ele><time>2026-05-02T08:57:27.998Z</time></trkpt><trkpt lat="46.41261961182822" lon="10.021479761479878"><ele>2288.0</ele><time>2026-05-02T08:57:28.998Z</time></trkpt><trkpt lat="46.41276514317109" lon="10.021426498699844"><ele>2288.0</ele><time>2026-05-02T08:57:29.998Z</time></trkpt><trkpt lat="46.41290984778664" lon="10.021328444870779"><ele>2288.0</ele><time>2026-05-02T08:57:30.998Z</time></trkpt><trkpt lat="46.4131423452495" lon="10.02113547233739"><ele>2288.0</ele><time>2026-05-02T08:57:31.998Z</time></trkpt><trkpt lat="46.41335207608404" lon="10.021015331229034"><ele>2289.0</ele><time>2026-05-02T08:57:32.998Z</time></trkpt><trkpt lat="46.41345411866598" lon="10.020889077828995"><ele>2290.0</ele><time>2026-05-02T08:57:33.998Z</time></trkpt><trkpt lat="46.41359351013438" lon="10.020831385469556"><ele>2291.0</ele><time>2026-05-02T08:57:35.998Z</time></trkpt><trkpt lat="46.413670011814574" lon="10.020808738900758"><ele>2292.0</ele><time>2026-05-02T08:57:36.998Z</time></trkpt><trkpt lat="46.4137963358348" lon="10.020825204896711"><ele>2293.6666666666665</ele><time>2026-05-02T08:57:37.998Z</time></trkpt><trkpt lat="46.414041631146176" lon="10.020834051952036"><ele>2295.333333333333</ele><time>2026-05-02T08:57:38.998Z</time></trkpt><trkpt lat="46.41418296797778" lon="10.020768701517673"><ele>2297.0</ele><time>2026-05-02T08:57:39.998Z</time></trkpt><trkpt lat="46.41430643587022" lon="10.020707041028002"><ele>2290.5</ele><time>2026-05-02T08:57:40.998Z</time></trkpt><trkpt lat="46.41443072297068" lon="10.020677827242872"><ele>2284.0</ele><time>2026-05-02T08:57:41.998Z</time></trkpt><trkpt lat="46.41457590987369" lon="10.02066724884731"><ele>2277.5</ele><time>2026-05-02T08:57:43Z</time></trkpt><trkpt lat="46.414731123959854" lon="10.020702321629884"><ele>2271.0</ele><time>2026-05-02T08:57:44Z</time></trkpt><trkpt lat="46.414848129021905" lon="10.020706269759303"><ele>2271.0</ele><time>2026-05-02T08:57:45Z</time></trkpt><trkpt lat="46.41497190072205" lon="10.020742825140001"><ele>2271.0</ele><time>2026-05-02T08:57:46Z</time></trkpt><trkpt lat="46.41519498975208" lon="10.020794877791412"><ele>2271.0</ele><time>2026-05-02T08:57:47Z</time></trkpt><trkpt lat="46.415391701056514" lon="10.020829741695312"><ele>2276.0</ele><time>2026-05-02T08:57:48Z</time></trkpt><trkpt lat="46.41556558071786" lon="10.020833365384496"><ele>2281.0</ele><time>2026-05-02T08:57:49Z</time></trkpt><trkpt lat="46.41571594776842" lon="10.020829822417198"><ele>2286.0</ele><time>2026-05-02T08:57:50Z</time></trkpt><trkpt lat="46.41585884763351" lon="10.020843793192075"><ele>2286.0</ele><time>2026-05-02T08:57:51Z</time></trkpt><trkpt lat="46.416008189980296" lon="10.020900802980695"><ele>2286.0</ele><time>2026-05-02T08:57:52Z</time></trkpt><trkpt lat="46.416134810828694" lon="10.020968855598676"><ele>2286.0</ele><time>2026-05-02T08:57:53Z</time></trkpt><trkpt lat="46.41625301448142" lon="10.021039357359664"><ele>2286.0</ele><time>2026-05-02T08:57:54Z</time></trkpt><trkpt lat="46.41635840643332" lon="10.02109554960792"><ele>2286.2</ele><time>2026-05-02T08:57:55Z</time></trkpt><trkpt lat="46.41646361755609" lon="10.02111131466836"><ele>2286.3999999999996</ele><time>2026-05-02T08:57:56Z</time></trkpt><trkpt lat="46.41656807794993" lon="10.021093801231117"><ele>2286.6</ele><time>2026-05-02T08:57:57Z</time></trkpt><trkpt lat="46.41665290544132" lon="10.02102087733721"><ele>2286.7999999999997</ele><time>2026-05-02T08:57:58Z</time></trkpt><trkpt lat="46.4167222884366" lon="10.020911945303556"><ele>2287.0</ele><time>2026-05-02T08:57:59Z</time></trkpt><trkpt lat="46.416767353876715" lon="10.020755819883817"><ele>2286.5</ele><time>2026-05-02T08:58:00Z</time></trkpt><trkpt lat="46.416786173541105" lon="10.020575157829438"><ele>2286.0</ele><time>2026-05-02T08:58:01Z</time></trkpt><trkpt lat="46.416758094579336" lon="10.020382184425474"><ele>2285.5</ele><time>2026-05-02T08:58:02Z</time></trkpt><trkpt lat="46.416699295670504" lon="10.02021069034943"><ele>2285.0</ele><time>2026-05-02T08:58:03Z</time></trkpt><trkpt lat="46.41659296784055" lon="10.020050182576874"><ele>2286.25</ele><time>2026-05-02T08:58:04Z</time></trkpt><trkpt lat="46.41649843694539" lon="10.019890531792978"><ele>2287.5</ele><time>2026-05-02T08:58:05Z</time></trkpt><trkpt lat="46.41640871839628" lon="10.01971154842291"><ele>2288.75</ele><time>2026-05-02T08:58:06Z</time></trkpt><trkpt lat="46.41632785303904" lon="10.01953360344979"><ele>2290.0</ele><time>2026-05-02T08:58:07Z</time></trkpt><trkpt lat="46.41626678290446" lon="10.01935293727805"><ele>2283.0</ele><time>2026-05-02T08:58:08Z</time></trkpt><trkpt lat="46.41617571643242" lon="10.019143680393155"><ele>2276.0</ele><time>2026-05-02T08:58:09Z</time></trkpt><trkpt lat="46.41604370627782" lon="10.018892474500563"><ele>2269.0</ele><time>2026-05-02T08:58:10Z</time></trkpt><trkpt lat="46.415941967745596" lon="10.018664242177476"><ele>2269.0</ele><time>2026-05-02T08:58:11Z</time></trkpt><trkpt lat="46.41584833700809" lon="10.018424724325639"><ele>2269.0</ele><time>2026-05-02T08:58:12Z</time></trkpt><trkpt lat="46.415759376359574" lon="10.018152496290504"><ele>2269.0</ele><time>2026-05-02T08:58:13Z</time></trkpt><trkpt lat="46.415681739717044" lon="10.017869021841069"><ele>2269.3333333333335</ele><time>2026-05-02T08:58:14Z</time></trkpt><trkpt lat="46.415619354475474" lon="10.017607268484086"><ele>2269.6666666666665</ele><time>2026-05-02T08:58:15Z</time></trkpt><trkpt lat="46.41556335782834" lon="10.017365876574233"><ele>2270.0</ele><time>2026-05-02T08:58:16Z</time></trkpt><trkpt lat="46.41554336021635" lon="10.017122030134999"><ele>2270.333333333333</ele><time>2026-05-02T08:58:17Z</time></trkpt><trkpt lat="46.41554449826633" lon="10.016859776220286"><ele>2270.6666666666665</ele><time>2026-05-02T08:58:18Z</time></trkpt><trkpt lat="46.415548829590534" lon="10.016573930299078"><ele>2271.0</ele><time>2026-05-02T08:58:19Z</time></trkpt><trkpt lat="46.41553768986991" lon="10.01629255814781"><ele>2271.0</ele><time>2026-05-02T08:58:19.999Z</time></trkpt><trkpt lat="46.4155462541192" lon="10.016029898683163"><ele>2271.0</ele><time>2026-05-02T08:58:20.999Z</time></trkpt><trkpt lat="46.41554818773709" lon="10.015778220459058"><ele>2271.0</ele><time>2026-05-02T08:58:21.999Z</time></trkpt><trkpt lat="46.41554679795104" lon="10.015546412227074"><ele>2271.0</ele><time>2026-05-02T08:58:22.999Z</time></trkpt><trkpt lat="46.41554827356063" lon="10.01533201931053"><ele>2271.0</ele><time>2026-05-02T08:58:23.999Z</time></trkpt><trkpt lat="46.4155518777585" lon="10.015128466556952"><ele>2271.0</ele><time>2026-05-02T08:58:24.999Z</time></trkpt><trkpt lat="46.41556825528455" lon="10.014926060853949"><ele>2271.0</ele><time>2026-05-02T08:58:25.999Z</time></trkpt><trkpt lat="46.4156160308599" lon="10.01473153001861"><ele>2269.25</ele><time>2026-05-02T08:58:26.999Z</time></trkpt><trkpt lat="46.41567253447184" lon="10.014541983685408"><ele>2267.5</ele><time>2026-05-02T08:58:27.999Z</time></trkpt><trkpt lat="46.41573006293668" lon="10.014378960044372"><ele>2265.75</ele><time>2026-05-02T08:58:28.999Z</time></trkpt><trkpt lat="46.41577422352554" lon="10.014209798603265"><ele>2264.0</ele><time>2026-05-02T08:58:29.999Z</time></trkpt><trkpt lat="46.415835525594616" lon="10.014060945788492"><ele>2261.75</ele><time>2026-05-02T08:58:30.999Z</time></trkpt><trkpt lat="46.415894536893504" lon="10.013916504995938"><ele>2259.5</ele><time>2026-05-02T08:58:31.999Z</time></trkpt><trkpt lat="46.4159503676754" lon="10.013775207469187"><ele>2257.25</ele><time>2026-05-02T08:58:32.999Z</time></trkpt><trkpt lat="46.416024125909374" lon="10.013650138976178"><ele>2255.0</ele><time>2026-05-02T08:58:33.999Z</time></trkpt><trkpt lat="46.416126332886556" lon="10.013568624878241"><ele>2255.0</ele><time>2026-05-02T08:58:34.999Z</time></trkpt><trkpt lat="46.41625164902085" lon="10.013536722242476"><ele>2255.0</ele><time>2026-05-02T08:58:35.999Z</time></trkpt><trkpt lat="46.41637997984926" lon="10.013472494607383"><ele>2255.0</ele><time>2026-05-02T08:58:36.999Z</time></trkpt><trkpt lat="46.41651786311783" lon="10.013427611912286"><ele>2255.0</ele><time>2026-05-02T08:58:37.999Z</time></trkpt><trkpt lat="46.41665790592676" lon="10.013318816333697"><ele>2253.6666666666665</ele><time>2026-05-02T08:58:38.999Z</time></trkpt><trkpt lat="46.4168220233524" lon="10.01317403465886"><ele>2252.3333333333335</ele><time>2026-05-02T08:58:39.999Z</time></trkpt><trkpt lat="46.41701261629747" lon="10.013035346318802"><ele>2251.0</ele><time>2026-05-02T08:58:40.999Z</time></trkpt><trkpt lat="46.41713248127344" lon="10.012915473677062"><ele>2252.3333333333335</ele><time>2026-05-02T08:58:41.999Z</time></trkpt><trkpt lat="46.41726381387815" lon="10.012780503279961"><ele>2253.6666666666665</ele><time>2026-05-02T08:58:42.999Z</time></trkpt><trkpt lat="46.41739286771884" lon="10.012645250508665"><ele>2255.0</ele><time>2026-05-02T08:58:43.999Z</time></trkpt><trkpt lat="46.417532776982135" lon="10.012525288660257"><ele>2252.333333333333</ele><time>2026-05-02T08:58:44.999Z</time></trkpt><trkpt lat="46.41766347301301" lon="10.012398030458474"><ele>2249.6666666666665</ele><time>2026-05-02T08:58:45.999Z</time></trkpt><trkpt lat="46.41777738835792" lon="10.012246099616487"><ele>2247.0</ele><time>2026-05-02T08:58:46.999Z</time></trkpt><trkpt lat="46.41786139238093" lon="10.012053447628707"><ele>2247.0</ele><time>2026-05-02T08:58:47.999Z</time></trkpt><trkpt lat="46.41792489675662" lon="10.011833490879944"><ele>2247.0</ele><time>2026-05-02T08:58:48.999Z</time></trkpt><trkpt lat="46.417965640490145" lon="10.011586277828615"><ele>2247.0</ele><time>2026-05-02T08:58:49.999Z</time></trkpt><trkpt lat="46.417986888740835" lon="10.01131385380435"><ele>2248.3333333333335</ele><time>2026-05-02T08:58:50.999Z</time></trkpt><trkpt lat="46.417993864510926" lon="10.011043296511792"><ele>2249.666666666667</ele><time>2026-05-02T08:58:51.999Z</time></trkpt><trkpt lat="46.41799595067889" lon="10.010760005970878"><ele>2251.0</ele><time>2026-05-02T08:58:52.999Z</time></trkpt><trkpt lat="46.41797449902507" lon="10.010477542828072"><ele>2245.0</ele><time>2026-05-02T08:58:53.999Z</time></trkpt><trkpt lat="46.417952184076924" lon="10.01022434566937"><ele>2239.0</ele><time>2026-05-02T08:58:54.999Z</time></trkpt><trkpt lat="46.41792979330121" lon="10.010011855107084"><ele>2233.0</ele><time>2026-05-02T08:58:55.999Z</time></trkpt><trkpt lat="46.41793573621412" lon="10.009814227396914"><ele>2232.75</ele><time>2026-05-02T08:58:56.999Z</time></trkpt><trkpt lat="46.41796443498827" lon="10.00963207465942"><ele>2232.5</ele><time>2026-05-02T08:58:57.999Z</time></trkpt><trkpt lat="46.4180400551959" lon="10.009463709153165"><ele>2232.25</ele><time>2026-05-02T08:58:58.999Z</time></trkpt><trkpt lat="46.41812498201324" lon="10.009290517456996"><ele>2232.0</ele><time>2026-05-02T08:58:59.999Z</time></trkpt><trkpt lat="46.4182107806466" lon="10.009115851660125"><ele>2232.5</ele><time>2026-05-02T08:59:00.999Z</time></trkpt><trkpt lat="46.41829843396174" lon="10.008923596732345"><ele>2233.0</ele><time>2026-05-02T08:59:01.999Z</time></trkpt><trkpt lat="46.418370344700364" lon="10.00882029448235"><ele>2233.5</ele><time>2026-05-02T08:59:02.999Z</time></trkpt><trkpt lat="46.41846998152738" lon="10.008673748518998"><ele>2234.0</ele><time>2026-05-02T08:59:03.999Z</time></trkpt><trkpt lat="46.4186055548025" lon="10.008470153788412"><ele>2234.0</ele><time>2026-05-02T08:59:04.999Z</time></trkpt><trkpt lat="46.41883229040431" lon="10.00818874423866"><ele>2234.0</ele><time>2026-05-02T08:59:05.999Z</time></trkpt><trkpt lat="46.41900247347464" lon="10.007993573878593"><ele>2234.0</ele><time>2026-05-02T08:59:06.999Z</time></trkpt><trkpt lat="46.41914287070976" lon="10.007773872890656"><ele>2234.0</ele><time>2026-05-02T08:59:07.999Z</time></trkpt><trkpt lat="46.4192658142058" lon="10.007533259461141"><ele>2234.0</ele><time>2026-05-02T08:59:08.999Z</time></trkpt><trkpt lat="46.41936096401006" lon="10.007251341430573"><ele>2231.0</ele><time>2026-05-02T08:59:09.999Z</time></trkpt><trkpt lat="46.41943693918461" lon="10.006939429748863"><ele>2228.0</ele><time>2026-05-02T08:59:10.999Z</time></trkpt><trkpt lat="46.419494198593384" lon="10.00661546338682"><ele>2225.5</ele><time>2026-05-02T08:59:11.999Z</time></trkpt><trkpt lat="46.41952705294876" lon="10.006281221970836"><ele>2223.0</ele><time>2026-05-02T08:59:12.999Z</time></trkpt><trkpt lat="46.41955127104734" lon="10.005948552847617"><ele>2222.3333333333335</ele><time>2026-05-02T08:59:13.999Z</time></trkpt><trkpt lat="46.41960646785155" lon="10.005628352545541"><ele>2221.666666666667</ele><time>2026-05-02T08:59:14.999Z</time></trkpt><trkpt lat="46.419643397638126" lon="10.005328079152095"><ele>2221.0</ele><time>2026-05-02T08:59:15.999Z</time></trkpt><trkpt lat="46.4196812956573" lon="10.00504740792028"><ele>2222.0</ele><time>2026-05-02T08:59:16.999Z</time></trkpt><trkpt lat="46.419723730452645" lon="10.004787152583022"><ele>2223.0</ele><time>2026-05-02T08:59:17.999Z</time></trkpt><trkpt lat="46.419785510039475" lon="10.004530232993691"><ele>2224.0</ele><time>2026-05-02T08:59:18.999Z</time></trkpt><trkpt lat="46.41985623230309" lon="10.004260307498177"><ele>2222.666666666667</ele><time>2026-05-02T08:59:19.999Z</time></trkpt><trkpt lat="46.41996125330429" lon="10.004023538672218"><ele>2221.3333333333335</ele><time>2026-05-02T08:59:20.999Z</time></trkpt><trkpt lat="46.42007462540898" lon="10.003815890321361"><ele>2220.0</ele><time>2026-05-02T08:59:21.999Z</time></trkpt><trkpt lat="46.42020861599548" lon="10.003621883320667"><ele>2220.0</ele><time>2026-05-02T08:59:22.999Z</time></trkpt><trkpt lat="46.42035434621944" lon="10.003463429836945"><ele>2220.0</ele><time>2026-05-02T08:59:23.999Z</time></trkpt><trkpt lat="46.420509852114364" lon="10.003323459091904"><ele>2220.0</ele><time>2026-05-02T08:59:24.999Z</time></trkpt><trkpt lat="46.42069552239357" lon="10.003187633035678"><ele>2215.6666666666665</ele><time>2026-05-02T08:59:25.998Z</time></trkpt><trkpt lat="46.42087682746067" lon="10.00306502598796"><ele>2211.333333333333</ele><time>2026-05-02T08:59:26.998Z</time></trkpt><trkpt lat="46.421068490941714" lon="10.002956305646958"><ele>2207.0</ele><time>2026-05-02T08:59:27.998Z</time></trkpt><trkpt lat="46.42127039469689" lon="10.002848213274554"><ele>2203.5</ele><time>2026-05-02T08:59:28.998Z</time></trkpt><trkpt lat="46.42148053403965" lon="10.002722777551527"><ele>2200.0</ele><time>2026-05-02T08:59:29.998Z</time></trkpt><trkpt lat="46.42169040619296" lon="10.002592937692059"><ele>2195.5</ele><time>2026-05-02T08:59:30.998Z</time></trkpt><trkpt lat="46.42190805618401" lon="10.002464796422313"><ele>2191.0</ele><time>2026-05-02T08:59:31.998Z</time></trkpt><trkpt lat="46.422126362461064" lon="10.002334317702807"><ele>2190.5</ele><time>2026-05-02T08:59:32.998Z</time></trkpt><trkpt lat="46.42234986549985" lon="10.002206551146905"><ele>2190.0</ele><time>2026-05-02T08:59:33.998Z</time></trkpt><trkpt lat="46.42257458716259" lon="10.002077208431217"><ele>2190.0</ele><time>2026-05-02T08:59:34.998Z</time></trkpt><trkpt lat="46.4227979983336" lon="10.001931742377794"><ele>2190.0</ele><time>2026-05-02T08:59:35.998Z</time></trkpt><trkpt lat="46.423023787922624" lon="10.00175976274785"><ele>2185.5</ele><time>2026-05-02T08:59:36.998Z</time></trkpt><trkpt lat="46.42324765586152" lon="10.001571052579402"><ele>2181.0</ele><time>2026-05-02T08:59:37.998Z</time></trkpt><trkpt lat="46.42345849038019" lon="10.001373027761739"><ele>2181.0</ele><time>2026-05-02T08:59:38.998Z</time></trkpt><trkpt lat="46.423664670456574" lon="10.001180210273002"><ele>2181.0</ele><time>2026-05-02T08:59:39.998Z</time></trkpt><trkpt lat="46.423870633195136" lon="10.000989743696197"><ele>2176.0</ele><time>2026-05-02T08:59:40.998Z</time></trkpt><trkpt lat="46.42408053816158" lon="10.000807323152678"><ele>2171.0</ele><time>2026-05-02T08:59:41.998Z</time></trkpt><trkpt lat="46.424300921428554" lon="10.000634498494827"><ele>2171.0</ele><time>2026-05-02T08:59:42.998Z</time></trkpt><trkpt lat="46.42453233149125" lon="10.000473840636158"><ele>2171.0</ele><time>2026-05-02T08:59:43.998Z</time></trkpt><trkpt lat="46.42477428837514" lon="10.000324101157098"><ele>2170.0</ele><time>2026-05-02T08:59:44.998Z</time></trkpt><trkpt lat="46.42501779126184" lon="10.000177259722829"><ele>2169.0</ele><time>2026-05-02T08:59:45.998Z</time></trkpt><trkpt lat="46.42526146744962" lon="10.00001972817116"><ele>2165.5</ele><time>2026-05-02T08:59:46.998Z</time></trkpt><trkpt lat="46.42550518315415" lon="9.999862826178338"><ele>2162.0</ele><time>2026-05-02T08:59:47.998Z</time></trkpt><trkpt lat="46.42574379000041" lon="9.999710425316142"><ele>2162.0</ele><time>2026-05-02T08:59:49Z</time></trkpt><trkpt lat="46.42596687167654" lon="9.999566140662532"><ele>2162.0</ele><time>2026-05-02T08:59:50Z</time></trkpt><trkpt lat="46.426177642298285" lon="9.999430431438986"><ele>2163.6666666666665</ele><time>2026-05-02T08:59:51Z</time></trkpt><trkpt lat="46.42637213250141" lon="9.99931188247084"><ele>2165.3333333333335</ele><time>2026-05-02T08:59:52Z</time></trkpt><trkpt lat="46.42656093020955" lon="9.999212377095654"><ele>2167.0</ele><time>2026-05-02T08:59:53Z</time></trkpt><trkpt lat="46.426748222814716" lon="9.999153715351712"><ele>2167.0</ele><time>2026-05-02T08:59:54Z</time></trkpt><trkpt lat="46.42695081912899" lon="9.999145332942168"><ele>2167.0</ele><time>2026-05-02T08:59:55Z</time></trkpt><trkpt lat="46.427172819474926" lon="9.999159550311349"><ele>2167.0</ele><time>2026-05-02T08:59:56Z</time></trkpt><trkpt lat="46.42739667232506" lon="9.99919002303138"><ele>2167.0</ele><time>2026-05-02T08:59:57Z</time></trkpt><trkpt lat="46.42762577622956" lon="9.999225968523099"><ele>2167.0</ele><time>2026-05-02T08:59:58Z</time></trkpt><trkpt lat="46.42786436052697" lon="9.999249493616533"><ele>2168.0</ele><time>2026-05-02T08:59:59Z</time></trkpt><trkpt lat="46.42810763154081" lon="9.99927069471852"><ele>2169.0</ele><time>2026-05-02T09:00:00Z</time></trkpt><trkpt lat="46.428348669609946" lon="9.999288924918593"><ele>2169.0</ele><time>2026-05-02T09:00:01Z</time></trkpt><trkpt lat="46.42859012379717" lon="9.999313714872434"><ele>2169.0</ele><time>2026-05-02T09:00:02Z</time></trkpt><trkpt lat="46.42883454942226" lon="9.99932748297684"><ele>2168.0</ele><time>2026-05-02T09:00:03Z</time></trkpt><trkpt lat="46.42908039396181" lon="9.999334247753158"><ele>2167.0</ele><time>2026-05-02T09:00:04Z</time></trkpt><trkpt lat="46.429328545277656" lon="9.999305808397867"><ele>2167.0</ele><time>2026-05-02T09:00:05Z</time></trkpt><trkpt lat="46.429581117672555" lon="9.99925985766608"><ele>2167.0</ele><time>2026-05-02T09:00:06Z</time></trkpt><trkpt lat="46.42983303312679" lon="9.99919159805855"><ele>2153.0</ele><time>2026-05-02T09:00:07Z</time></trkpt><trkpt lat="46.43008849075415" lon="9.999121361932207"><ele>2139.0</ele><time>2026-05-02T09:00:08Z</time></trkpt><trkpt lat="46.430335996319506" lon="9.99904387566714"><ele>2141.0</ele><time>2026-05-02T09:00:09Z</time></trkpt><trkpt lat="46.43056946529667" lon="9.998964006259502"><ele>2143.0</ele><time>2026-05-02T09:00:10Z</time></trkpt><trkpt lat="46.43078476249452" lon="9.99888638378835"><ele>2143.0</ele><time>2026-05-02T09:00:11Z</time></trkpt><trkpt lat="46.43097811267333" lon="9.998811479786221"><ele>2143.0</ele><time>2026-05-02T09:00:12Z</time></trkpt><trkpt lat="46.43115975854057" lon="9.998697406059108"><ele>2143.0</ele><time>2026-05-02T09:00:13Z</time></trkpt><trkpt lat="46.431320489119415" lon="9.998531103091082"><ele>2144.666666666667</ele><time>2026-05-02T09:00:14Z</time></trkpt><trkpt lat="46.43145318380498" lon="9.998351620057239"><ele>2146.3333333333335</ele><time>2026-05-02T09:00:15Z</time></trkpt><trkpt lat="46.431573389095945" lon="9.998169751493517"><ele>2148.0</ele><time>2026-05-02T09:00:16Z</time></trkpt><trkpt lat="46.43169075926805" lon="9.99806159637477"><ele>2143.0</ele><time>2026-05-02T09:00:17Z</time></trkpt><trkpt lat="46.43184670670132" lon="9.997989854772928"><ele>2138.0</ele><time>2026-05-02T09:00:18Z</time></trkpt><trkpt lat="46.432052633747396" lon="9.997987418643035"><ele>2133.0</ele><time>2026-05-02T09:00:19Z</time></trkpt><trkpt lat="46.43224385116208" lon="9.997967778044831"><ele>2133.0</ele><time>2026-05-02T09:00:20Z</time></trkpt><trkpt lat="46.43240135200012" lon="9.997965958423485"><ele>2133.0</ele><time>2026-05-02T09:00:21Z</time></trkpt><trkpt lat="46.43255663334214" lon="9.997913913335887"><ele>2133.0</ele><time>2026-05-02T09:00:22Z</time></trkpt><trkpt lat="46.432693477326474" lon="9.997796823881677"><ele>2133.0</ele><time>2026-05-02T09:00:22.999Z</time></trkpt><trkpt lat="46.432802414736464" lon="9.99763617838102"><ele>2133.0</ele><time>2026-05-02T09:00:23.999Z</time></trkpt><trkpt lat="46.432907931632926" lon="9.9974334522732"><ele>2133.0</ele><time>2026-05-02T09:00:24.999Z</time></trkpt><trkpt lat="46.43300509149133" lon="9.997230281947225"><ele>2132.0</ele><time>2026-05-02T09:00:25.999Z</time></trkpt><trkpt lat="46.433132089963024" lon="9.997075311476005"><ele>2131.0</ele><time>2026-05-02T09:00:26.999Z</time></trkpt><trkpt lat="46.433278169951784" lon="9.9969667485437"><ele>2130.0</ele><time>2026-05-02T09:00:27.999Z</time></trkpt><trkpt lat="46.43344643619356" lon="9.996884958930208"><ele>2130.0</ele><time>2026-05-02T09:00:28.999Z</time></trkpt><trkpt lat="46.43362412097076" lon="9.996844057166319"><ele>2130.0</ele><time>2026-05-02T09:00:29.999Z</time></trkpt><trkpt lat="46.43379655497583" lon="9.996830232256896"><ele>2130.0</ele><time>2026-05-02T09:00:30.999Z</time></trkpt><trkpt lat="46.433972517331384" lon="9.996789421926946"><ele>2129.3333333333335</ele><time>2026-05-02T09:00:31.999Z</time></trkpt><trkpt lat="46.43415050784725" lon="9.996698461207428"><ele>2128.666666666667</ele><time>2026-05-02T09:00:32.999Z</time></trkpt><trkpt lat="46.43431537064834" lon="9.996561036670627"><ele>2128.0</ele><time>2026-05-02T09:00:33.999Z</time></trkpt><trkpt lat="46.43447958217965" lon="9.996392282997359"><ele>2126.3333333333335</ele><time>2026-05-02T09:00:34.999Z</time></trkpt><trkpt lat="46.4346322514595" lon="9.99622351266445"><ele>2124.6666666666665</ele><time>2026-05-02T09:00:35.999Z</time></trkpt><trkpt lat="46.434793014704454" lon="9.996077183883084"><ele>2123.0</ele><time>2026-05-02T09:00:36.999Z</time></trkpt><trkpt lat="46.43495763960445" lon="9.99596723874963"><ele>2121.6666666666665</ele><time>2026-05-02T09:00:37.999Z</time></trkpt><trkpt lat="46.435127776509454" lon="9.995878542404666"><ele>2120.3333333333335</ele><time>2026-05-02T09:00:38.999Z</time></trkpt><trkpt lat="46.435284535455835" lon="9.99578139996684"><ele>2119.0</ele><time>2026-05-02T09:00:39.999Z</time></trkpt><trkpt lat="46.43544950046942" lon="9.995668846129051"><ele>2117.0</ele><time>2026-05-02T09:00:40.999Z</time></trkpt><trkpt lat="46.43559143999336" lon="9.99557458633297"><ele>2115.0</ele><time>2026-05-02T09:00:41.999Z</time></trkpt><trkpt lat="46.43572823162052" lon="9.995449805471013"><ele>2113.0</ele><time>2026-05-02T09:00:42.999Z</time></trkpt><trkpt lat="46.43586350405107" lon="9.995256878691565"><ele>2113.0</ele><time>2026-05-02T09:00:43.999Z</time></trkpt><trkpt lat="46.435981663931116" lon="9.99503376669172"><ele>2113.0</ele><time>2026-05-02T09:00:44.999Z</time></trkpt><trkpt lat="46.43609156538515" lon="9.994788736984367"><ele>2113.0</ele><time>2026-05-02T09:00:45.999Z</time></trkpt><trkpt lat="46.43617375535282" lon="9.994563557743588"><ele>2112.0</ele><time>2026-05-02T09:00:46.999Z</time></trkpt><trkpt lat="46.43624055720866" lon="9.99438556097069"><ele>2111.0</ele><time>2026-05-02T09:00:47.999Z</time></trkpt><trkpt lat="46.436535042071995" lon="9.99403334761051"><ele>2109.6666666666665</ele><time>2026-05-02T09:00:48.999Z</time></trkpt><trkpt lat="46.43663592708834" lon="9.993786089026763"><ele>2108.3333333333335</ele><time>2026-05-02T09:00:49.999Z</time></trkpt><trkpt lat="46.43673227848688" lon="9.993535548267326"><ele>2107.0</ele><time>2026-05-02T09:00:50.999Z</time></trkpt><trkpt lat="46.436839328270736" lon="9.99327196610262"><ele>2105.666666666667</ele><time>2026-05-02T09:00:51.999Z</time></trkpt><trkpt lat="46.436947499661095" lon="9.993010075508108"><ele>2104.3333333333335</ele><time>2026-05-02T09:00:52.999Z</time></trkpt><trkpt lat="46.43705023369691" lon="9.992751723934536"><ele>2103.0</ele><time>2026-05-02T09:00:53.999Z</time></trkpt><trkpt lat="46.437167770690586" lon="9.992485064518307"><ele>2100.3333333333335</ele><time>2026-05-02T09:00:54.999Z</time></trkpt><trkpt lat="46.437307269186604" lon="9.99223568765556"><ele>2097.666666666667</ele><time>2026-05-02T09:00:55.999Z</time></trkpt><trkpt lat="46.43745433071413" lon="9.991985695939343"><ele>2095.0</ele><time>2026-05-02T09:00:56.999Z</time></trkpt><trkpt lat="46.437615583871555" lon="9.991740122099399"><ele>2095.0</ele><time>2026-05-02T09:00:57.999Z</time></trkpt><trkpt lat="46.43778510761866" lon="9.991491822002235"><ele>2095.0</ele><time>2026-05-02T09:00:58.999Z</time></trkpt><trkpt lat="46.437949404324726" lon="9.991240670300456"><ele>2093.5</ele><time>2026-05-02T09:00:59.999Z</time></trkpt><trkpt lat="46.43811841855876" lon="9.9909905867643"><ele>2092.0</ele><time>2026-05-02T09:01:00.999Z</time></trkpt><trkpt lat="46.438295055684215" lon="9.990740324319665"><ele>2092.0</ele><time>2026-05-02T09:01:01.999Z</time></trkpt><trkpt lat="46.43846703191" lon="9.990481809802011"><ele>2092.0</ele><time>2026-05-02T09:01:02.999Z</time></trkpt><trkpt lat="46.4386327793262" lon="9.990220427986381"><ele>2092.0</ele><time>2026-05-02T09:01:03.999Z</time></trkpt><trkpt lat="46.43880016718077" lon="9.989947242493672"><ele>2092.0</ele><time>2026-05-02T09:01:04.999Z</time></trkpt><trkpt lat="46.43896755665017" lon="9.989684204338738"><ele>2092.0</ele><time>2026-05-02T09:01:05.999Z</time></trkpt><trkpt lat="46.43913472056593" lon="9.98942653525872"><ele>2092.0</ele><time>2026-05-02T09:01:06.999Z</time></trkpt><trkpt lat="46.43930581533192" lon="9.989150519368904"><ele>2092.5</ele><time>2026-05-02T09:01:07.999Z</time></trkpt><trkpt lat="46.439482042997966" lon="9.988874682595432"><ele>2093.0</ele><time>2026-05-02T09:01:08.999Z</time></trkpt><trkpt lat="46.439662880865015" lon="9.988595851242764"><ele>2091.5</ele><time>2026-05-02T09:01:09.999Z</time></trkpt><trkpt lat="46.439840165899575" lon="9.98831348568048"><ele>2090.0</ele><time>2026-05-02T09:01:10.999Z</time></trkpt><trkpt lat="46.43999408174065" lon="9.988048029422652"><ele>2090.0</ele><time>2026-05-02T09:01:11.999Z</time></trkpt><trkpt lat="46.44012125091509" lon="9.987765190319374"><ele>2090.0</ele><time>2026-05-02T09:01:12.999Z</time></trkpt><trkpt lat="46.4402341690188" lon="9.987495802489951"><ele>2090.0</ele><time>2026-05-02T09:01:13.999Z</time></trkpt><trkpt lat="46.440326978055516" lon="9.987241040905165"><ele>2090.0</ele><time>2026-05-02T09:01:14.999Z</time></trkpt><trkpt lat="46.44040495883862" lon="9.987015396975487"><ele>2090.0</ele><time>2026-05-02T09:01:15.999Z</time></trkpt><trkpt lat="46.44048938701745" lon="9.986799756311791"><ele>2089.0</ele><time>2026-05-02T09:01:16.999Z</time></trkpt><trkpt lat="46.440575779924345" lon="9.986603112366263"><ele>2088.0</ele><time>2026-05-02T09:01:17.999Z</time></trkpt><trkpt lat="46.44067854352776" lon="9.986424643573645"><ele>2087.0</ele><time>2026-05-02T09:01:18.999Z</time></trkpt><trkpt lat="46.44080923492699" lon="9.986273046228463"><ele>2087.0</ele><time>2026-05-02T09:01:19.999Z</time></trkpt><trkpt lat="46.44097507377188" lon="9.986197718139255"><ele>2087.0</ele><time>2026-05-02T09:01:20.999Z</time></trkpt><trkpt lat="46.441144183075465" lon="9.986127567911234"><ele>2087.0</ele><time>2026-05-02T09:01:21.999Z</time></trkpt><trkpt lat="46.44131980894674" lon="9.986061908577497"><ele>2087.6666666666665</ele><time>2026-05-02T09:01:22.999Z</time></trkpt><trkpt lat="46.44149372652685" lon="9.985998059006748"><ele>2088.3333333333335</ele><time>2026-05-02T09:01:23.999Z</time></trkpt><trkpt lat="46.44166601081019" lon="9.985919481803233"><ele>2089.0</ele><time>2026-05-02T09:01:24.999Z</time></trkpt><trkpt lat="46.441825054777354" lon="9.985801791000673"><ele>2087.0</ele><time>2026-05-02T09:01:25.999Z</time></trkpt><trkpt lat="46.44195892016498" lon="9.985646775826087"><ele>2085.0</ele><time>2026-05-02T09:01:26.999Z</time></trkpt><trkpt lat="46.442084357237626" lon="9.985491761376561"><ele>2083.0</ele><time>2026-05-02T09:01:27.999Z</time></trkpt><trkpt lat="46.4421236713454" lon="9.985181551175003"><ele>2081.3333333333335</ele><time>2026-05-02T09:01:28.999Z</time></trkpt><trkpt lat="46.44216331353142" lon="9.984898347403929"><ele>2079.6666666666665</ele><time>2026-05-02T09:01:29.999Z</time></trkpt><trkpt lat="46.44218803029482" lon="9.984588368471401"><ele>2078.0</ele><time>2026-05-02T09:01:30.999Z</time></trkpt><trkpt lat="46.44219014193452" lon="9.9842688160839"><ele>2077.0</ele><time>2026-05-02T09:01:31.999Z</time></trkpt><trkpt lat="46.44220618166463" lon="9.983961655389663"><ele>2076.0</ele><time>2026-05-02T09:01:32.999Z</time></trkpt><trkpt lat="46.44222632675023" lon="9.983660636213198"><ele>2075.0</ele><time>2026-05-02T09:01:33.998Z</time></trkpt><trkpt lat="46.442247474774966" lon="9.983382007069725"><ele>2074.333333333333</ele><time>2026-05-02T09:01:34.998Z</time></trkpt><trkpt lat="46.44227278515492" lon="9.983045085061905"><ele>2073.6666666666665</ele><time>2026-05-02T09:01:35.998Z</time></trkpt><trkpt lat="46.44230214320387" lon="9.982736189068335"><ele>2073.0</ele><time>2026-05-02T09:01:36.998Z</time></trkpt><trkpt lat="46.44233091278862" lon="9.982433252766079"><ele>2074.6666666666665</ele><time>2026-05-02T09:01:37.998Z</time></trkpt><trkpt lat="46.44236343100188" lon="9.982131544407716"><ele>2076.333333333333</ele><time>2026-05-02T09:01:38.998Z</time></trkpt><trkpt lat="46.44241895760948" lon="9.98182872963903"><ele>2078.0</ele><time>2026-05-02T09:01:39.998Z</time></trkpt><trkpt lat="46.44244502017377" lon="9.981514564215928"><ele>2079.0</ele><time>2026-05-02T09:01:40.998Z</time></trkpt><trkpt lat="46.442494581700096" lon="9.981191108717358"><ele>2080.0</ele><time>2026-05-02T09:01:41.998Z</time></trkpt><trkpt lat="46.44254267615071" lon="9.980857809126654"><ele>2078.5</ele><time>2026-05-02T09:01:42.998Z</time></trkpt><trkpt lat="46.44259049037152" lon="9.98051739935374"><ele>2077.0</ele><time>2026-05-02T09:01:43.998Z</time></trkpt><trkpt lat="46.44263940067932" lon="9.980175980615297"><ele>2075.5</ele><time>2026-05-02T09:01:44.998Z</time></trkpt><trkpt lat="46.44269711129642" lon="9.97982679926962"><ele>2074.0</ele><time>2026-05-02T09:01:45.998Z</time></trkpt><trkpt lat="46.44275321484818" lon="9.979487499327496"><ele>2073.5</ele><time>2026-05-02T09:01:46.998Z</time></trkpt><trkpt lat="46.44281043983173" lon="9.979154368891383"><ele>2073.0</ele><time>2026-05-02T09:01:47.998Z</time></trkpt><trkpt lat="46.44286535105776" lon="9.978839750674032"><ele>2073.0</ele><time>2026-05-02T09:01:48.998Z</time></trkpt><trkpt lat="46.44292017633395" lon="9.978532059426405"><ele>2073.0</ele><time>2026-05-02T09:01:49.998Z</time></trkpt><trkpt lat="46.442955215092134" lon="9.97821965195767"><ele>2073.0</ele><time>2026-05-02T09:01:50.998Z</time></trkpt><trkpt lat="46.442963063587264" lon="9.977882786870593"><ele>2073.5</ele><time>2026-05-02T09:01:51.998Z</time></trkpt><trkpt lat="46.442937987380034" lon="9.977540402729993"><ele>2074.0</ele><time>2026-05-02T09:01:52.998Z</time></trkpt><trkpt lat="46.44287539599809" lon="9.977212378615013"><ele>2072.666666666667</ele><time>2026-05-02T09:01:53.998Z</time></trkpt><trkpt lat="46.44280559476768" lon="9.976898263630973"><ele>2071.3333333333335</ele><time>2026-05-02T09:01:55Z</time></trkpt><trkpt lat="46.442740123867665" lon="9.976593424577809"><ele>2070.0</ele><time>2026-05-02T09:01:56Z</time></trkpt><trkpt lat="46.44271133155295" lon="9.976297010738694"><ele>2068.3333333333335</ele><time>2026-05-02T09:01:57Z</time></trkpt><trkpt lat="46.44270536643948" lon="9.975993549598652"><ele>2066.666666666667</ele><time>2026-05-02T09:01:58Z</time></trkpt><trkpt lat="46.44274945401488" lon="9.975688319411146"><ele>2065.0</ele><time>2026-05-02T09:01:59Z</time></trkpt><trkpt lat="46.442828598801995" lon="9.975389316840193"><ele>2064.5</ele><time>2026-05-02T09:02:00Z</time></trkpt><trkpt lat="46.44292635302707" lon="9.975101488565425"><ele>2064.0</ele><time>2026-05-02T09:02:01Z</time></trkpt><trkpt lat="46.4430220512793" lon="9.974774339098834"><ele>2063.0</ele><time>2026-05-02T09:02:02Z</time></trkpt><trkpt lat="46.44313558751985" lon="9.974460490570642"><ele>2062.0</ele><time>2026-05-02T09:02:03Z</time></trkpt><trkpt lat="46.443277719746945" lon="9.97416733441472"><ele>2062.0</ele><time>2026-05-02T09:02:04Z</time></trkpt><trkpt lat="46.443426938858" lon="9.973881560889794"><ele>2062.0</ele><time>2026-05-02T09:02:05Z</time></trkpt><trkpt lat="46.44360010079009" lon="9.973621545194527"><ele>2062.0</ele><time>2026-05-02T09:02:06Z</time></trkpt><trkpt lat="46.443779820967904" lon="9.973388383693537"><ele>2062.0</ele><time>2026-05-02T09:02:07Z</time></trkpt><trkpt lat="46.44395432622079" lon="9.973172584995758"><ele>2060.0</ele><time>2026-05-02T09:02:08Z</time></trkpt><trkpt lat="46.4441149890321" lon="9.972946707356291"><ele>2058.0</ele><time>2026-05-02T09:02:09Z</time></trkpt><trkpt lat="46.44427552122646" lon="9.972719473160598"><ele>2056.0</ele><time>2026-05-02T09:02:10Z</time></trkpt><trkpt lat="46.44442593971488" lon="9.972463147533837"><ele>2056.0</ele><time>2026-05-02T09:02:11Z</time></trkpt><trkpt lat="46.44455712133094" lon="9.972189213916023"><ele>2056.0</ele><time>2026-05-02T09:02:12Z</time></trkpt><trkpt lat="46.44467139660313" lon="9.97189354446556"><ele>2052.0</ele><time>2026-05-02T09:02:13Z</time></trkpt><trkpt lat="46.444768776147534" lon="9.97157556342033"><ele>2048.0</ele><time>2026-05-02T09:02:14Z</time></trkpt><trkpt lat="46.44485511397055" lon="9.97125856627709"><ele>2048.0</ele><time>2026-05-02T09:02:15Z</time></trkpt><trkpt lat="46.444920116715274" lon="9.970932620145637"><ele>2048.0</ele><time>2026-05-02T09:02:16Z</time></trkpt><trkpt lat="46.444977628844484" lon="9.970602992657973"><ele>2048.5</ele><time>2026-05-02T09:02:17Z</time></trkpt><trkpt lat="46.44503017161658" lon="9.970275045325728"><ele>2049.0</ele><time>2026-05-02T09:02:18Z</time></trkpt><trkpt lat="46.44507777469629" lon="9.969951853549787"><ele>2048.3333333333335</ele><time>2026-05-02T09:02:19Z</time></trkpt><trkpt lat="46.445125484200595" lon="9.969639035968171"><ele>2047.6666666666667</ele><time>2026-05-02T09:02:20Z</time></trkpt><trkpt lat="46.445183513834934" lon="9.96933412060301"><ele>2047.0</ele><time>2026-05-02T09:02:21Z</time></trkpt><trkpt lat="46.44527616208424" lon="9.969038693404466"><ele>2046.5</ele><time>2026-05-02T09:02:22Z</time></trkpt><trkpt lat="46.44541058165382" lon="9.96877416926858"><ele>2046.0</ele><time>2026-05-02T09:02:23Z</time></trkpt><trkpt lat="46.445535212417944" lon="9.968501831391508"><ele>2045.3333333333335</ele><time>2026-05-02T09:02:24Z</time></trkpt><trkpt lat="46.4456695295061" lon="9.968265550461801"><ele>2044.6666666666667</ele><time>2026-05-02T09:02:25Z</time></trkpt><trkpt lat="46.44579700948497" lon="9.9680388508473"><ele>2044.0</ele><time>2026-05-02T09:02:26Z</time></trkpt><trkpt lat="46.445916712150314" lon="9.967825125720573"><ele>2044.0</ele><time>2026-05-02T09:02:27Z</time></trkpt><trkpt lat="46.446036654963684" lon="9.967615655750423"><ele>2044.0</ele><time>2026-05-02T09:02:28Z</time></trkpt><trkpt lat="46.446160898777634" lon="9.967403259722516"><ele>2044.0</ele><time>2026-05-02T09:02:29Z</time></trkpt><trkpt lat="46.44628773394926" lon="9.967184838199438"><ele>2044.3333333333335</ele><time>2026-05-02T09:02:30Z</time></trkpt><trkpt lat="46.44641568295146" lon="9.966948383374874"><ele>2044.6666666666665</ele><time>2026-05-02T09:02:31Z</time></trkpt><trkpt lat="46.44654182228161" lon="9.966697584652053"><ele>2045.0</ele><time>2026-05-02T09:02:32Z</time></trkpt><trkpt lat="46.44665260018954" lon="9.966415849103177"><ele>2045.0</ele><time>2026-05-02T09:02:33Z</time></trkpt><trkpt lat="46.44674611097067" lon="9.966117276062077"><ele>2045.0</ele><time>2026-05-02T09:02:34Z</time></trkpt><trkpt lat="46.446843275559566" lon="9.965813578506655"><ele>2043.3333333333333</ele><time>2026-05-02T09:02:35Z</time></trkpt><trkpt lat="46.44691569148362" lon="9.965511486624475"><ele>2041.6666666666665</ele><time>2026-05-02T09:02:36Z</time></trkpt><trkpt lat="46.44698611987787" lon="9.96520028735564"><ele>2040.0</ele><time>2026-05-02T09:02:37Z</time></trkpt><trkpt lat="46.44706233544476" lon="9.964862113898215"><ele>2041.5</ele><time>2026-05-02T09:02:38Z</time></trkpt><trkpt lat="46.44714105368263" lon="9.964512837410458"><ele>2043.0</ele><time>2026-05-02T09:02:38.999Z</time></trkpt><trkpt lat="46.44722140989163" lon="9.964156297041182"><ele>2043.0</ele><time>2026-05-02T09:02:39.999Z</time></trkpt><trkpt lat="46.44730153540207" lon="9.96380078026503"><ele>2043.0</ele><time>2026-05-02T09:02:40.999Z</time></trkpt><trkpt lat="46.44734330495525" lon="9.96344051497102"><ele>2042.5</ele><time>2026-05-02T09:02:41.999Z</time></trkpt><trkpt lat="46.44741972761791" lon="9.963091380213847"><ele>2042.0</ele><time>2026-05-02T09:02:42.999Z</time></trkpt><trkpt lat="46.4474944336108" lon="9.962743065199795"><ele>2039.5</ele><time>2026-05-02T09:02:43.999Z</time></trkpt><trkpt lat="46.44756329870577" lon="9.962393476358358"><ele>2037.0</ele><time>2026-05-02T09:02:44.999Z</time></trkpt><trkpt lat="46.447639376773296" lon="9.962073173499572"><ele>2037.0</ele><time>2026-05-02T09:02:45.999Z</time></trkpt><trkpt lat="46.44771386599681" lon="9.961770933455407"><ele>2037.0</ele><time>2026-05-02T09:02:46.999Z</time></trkpt><trkpt lat="46.44779072501017" lon="9.961471185336377"><ele>2037.0</ele><time>2026-05-02T09:02:47.999Z</time></trkpt><trkpt lat="46.44787131703759" lon="9.96117114541342"><ele>2036.3333333333335</ele><time>2026-05-02T09:02:48.999Z</time></trkpt><trkpt lat="46.447938678233044" lon="9.960869110879264"><ele>2035.6666666666667</ele><time>2026-05-02T09:02:49.999Z</time></trkpt><trkpt lat="46.44800455829228" lon="9.960579874938102"><ele>2035.0</ele><time>2026-05-02T09:02:50.999Z</time></trkpt><trkpt lat="46.44807176307444" lon="9.960294970039511"><ele>2035.6666666666667</ele><time>2026-05-02T09:02:51.999Z</time></trkpt><trkpt lat="46.44813390143803" lon="9.960026877912131"><ele>2036.3333333333335</ele><time>2026-05-02T09:02:52.999Z</time></trkpt><trkpt lat="46.44819138688711" lon="9.95975669356747"><ele>2037.0</ele><time>2026-05-02T09:02:53.999Z</time></trkpt><trkpt lat="46.44825514668609" lon="9.95949606906451"><ele>2037.0</ele><time>2026-05-02T09:02:54.999Z</time></trkpt><trkpt lat="46.448315059256075" lon="9.959251742751267"><ele>2037.0</ele><time>2026-05-02T09:02:55.999Z</time></trkpt><trkpt lat="46.44837445293239" lon="9.959021462177995"><ele>2037.0</ele><time>2026-05-02T09:02:56.999Z</time></trkpt><trkpt lat="46.44842435732741" lon="9.958727229812698"><ele>2035.0</ele><time>2026-05-02T09:02:57.999Z</time></trkpt><trkpt lat="46.44846774069012" lon="9.958389879062073"><ele>2033.0</ele><time>2026-05-02T09:02:58.999Z</time></trkpt><trkpt lat="46.44849037803236" lon="9.958028966435776"><ele>2030.5</ele><time>2026-05-02T09:02:59.999Z</time></trkpt><trkpt lat="46.4485240091536" lon="9.957641705750024"><ele>2028.0</ele><time>2026-05-02T09:03:00.999Z</time></trkpt><trkpt lat="46.448558428772614" lon="9.957367536969626"><ele>2028.0</ele><time>2026-05-02T09:03:01.999Z</time></trkpt><trkpt lat="46.44873689956578" lon="9.957368468317762"><ele>2028.0</ele><time>2026-05-02T09:03:02.999Z</time></trkpt><trkpt lat="46.44880542579954" lon="9.957091046440528"><ele>2028.0</ele><time>2026-05-02T09:03:03.999Z</time></trkpt><trkpt lat="46.4488904342912" lon="9.956820679723863"><ele>2026.3333333333335</ele><time>2026-05-02T09:03:04.999Z</time></trkpt><trkpt lat="46.449004887554054" lon="9.956569239967004"><ele>2024.6666666666667</ele><time>2026-05-02T09:03:05.999Z</time></trkpt><trkpt lat="46.44912981063683" lon="9.956326494207005"><ele>2023.0</ele><time>2026-05-02T09:03:06.999Z</time></trkpt><trkpt lat="46.449260213970426" lon="9.956100895221052"><ele>2023.0</ele><time>2026-05-02T09:03:07.999Z</time></trkpt><trkpt lat="46.449402057774016" lon="9.955883952257842"><ele>2023.0</ele><time>2026-05-02T09:03:08.999Z</time></trkpt><trkpt lat="46.44954666944805" lon="9.955662503461555"><ele>2023.0</ele><time>2026-05-02T09:03:09.999Z</time></trkpt><trkpt lat="46.44968074925177" lon="9.955441470391143"><ele>2023.3333333333335</ele><time>2026-05-02T09:03:10.999Z</time></trkpt><trkpt lat="46.44981948603743" lon="9.95522525493951"><ele>2023.6666666666665</ele><time>2026-05-02T09:03:11.999Z</time></trkpt><trkpt lat="46.44994991162524" lon="9.955002323832682"><ele>2024.0</ele><time>2026-05-02T09:03:12.999Z</time></trkpt><trkpt lat="46.450078806511904" lon="9.95479224730097"><ele>2024.3333333333333</ele><time>2026-05-02T09:03:13.999Z</time></trkpt><trkpt lat="46.450199521693996" lon="9.954585344180675"><ele>2024.6666666666665</ele><time>2026-05-02T09:03:14.999Z</time></trkpt><trkpt lat="46.45032291232259" lon="9.954380884195405"><ele>2025.0</ele><time>2026-05-02T09:03:15.999Z</time></trkpt><trkpt lat="46.45044743684247" lon="9.954201708136164"><ele>2023.6666666666665</ele><time>2026-05-02T09:03:16.999Z</time></trkpt><trkpt lat="46.45057952796871" lon="9.95402279257975"><ele>2022.3333333333333</ele><time>2026-05-02T09:03:17.999Z</time></trkpt><trkpt lat="46.4507214178274" lon="9.953839442758369"><ele>2021.0</ele><time>2026-05-02T09:03:18.999Z</time></trkpt><trkpt lat="46.450880269894306" lon="9.953654686330715"><ele>2021.0</ele><time>2026-05-02T09:03:19.999Z</time></trkpt><trkpt lat="46.451054783168175" lon="9.953472561095898"><ele>2021.0</ele><time>2026-05-02T09:03:20.999Z</time></trkpt><trkpt lat="46.45124108442406" lon="9.953305788204304"><ele>2021.0</ele><time>2026-05-02T09:03:21.999Z</time></trkpt><trkpt lat="46.45143606198489" lon="9.95315288656512"><ele>2022.3333333333333</ele><time>2026-05-02T09:03:22.999Z</time></trkpt><trkpt lat="46.451634747743356" lon="9.953015195936272"><ele>2023.6666666666665</ele><time>2026-05-02T09:03:23.999Z</time></trkpt><trkpt lat="46.45182190323218" lon="9.952870591557453"><ele>2025.0</ele><time>2026-05-02T09:03:24.999Z</time></trkpt><trkpt lat="46.45201138507881" lon="9.952728508201448"><ele>2025.6666666666665</ele><time>2026-05-02T09:03:25.999Z</time></trkpt><trkpt lat="46.452169889775085" lon="9.952572523694682"><ele>2026.3333333333333</ele><time>2026-05-02T09:03:26.999Z</time></trkpt><trkpt lat="46.45231123136244" lon="9.952387687519835"><ele>2027.0</ele><time>2026-05-02T09:03:27.999Z</time></trkpt><trkpt lat="46.452437813839424" lon="9.95216145528922"><ele>2027.0</ele><time>2026-05-02T09:03:28.999Z</time></trkpt><trkpt lat="46.45253033083212" lon="9.95190666288806"><ele>2027.0</ele><time>2026-05-02T09:03:29.999Z</time></trkpt><trkpt lat="46.452601949498494" lon="9.951620110511184"><ele>2027.0</ele><time>2026-05-02T09:03:30.999Z</time></trkpt><trkpt lat="46.45263311918945" lon="9.951307172861336"><ele>2025.0</ele><time>2026-05-02T09:03:31.999Z</time></trkpt><trkpt lat="46.45262023204558" lon="9.9510053821041"><ele>2023.0</ele><time>2026-05-02T09:03:32.999Z</time></trkpt><trkpt lat="46.45256264941957" lon="9.950705865362135"><ele>2021.0</ele><time>2026-05-02T09:03:33.999Z</time></trkpt><trkpt lat="46.45248305650463" lon="9.950434030893156"><ele>2020.0</ele><time>2026-05-02T09:03:34.999Z</time></trkpt><trkpt lat="46.452443155675375" lon="9.950191760029618"><ele>2019.0</ele><time>2026-05-02T09:03:35.999Z</time></trkpt><trkpt lat="46.45244781191442" lon="9.949954360063721"><ele>2018.0</ele><time>2026-05-02T09:03:36.999Z</time></trkpt><trkpt lat="46.452510117979884" lon="9.949725033371287"><ele>2016.3333333333333</ele><time>2026-05-02T09:03:37.999Z</time></trkpt><trkpt lat="46.45260942942526" lon="9.949544290176247"><ele>2014.6666666666665</ele><time>2026-05-02T09:03:38.999Z</time></trkpt><trkpt lat="46.45275832814195" lon="9.949396409945397"><ele>2013.0</ele><time>2026-05-02T09:03:39.999Z</time></trkpt><trkpt lat="46.45290811881574" lon="9.949263993552997"><ele>2013.3333333333335</ele><time>2026-05-02T09:03:40.999Z</time></trkpt><trkpt lat="46.45305023168646" lon="9.94906109126987"><ele>2013.6666666666667</ele><time>2026-05-02T09:03:41.999Z</time></trkpt><trkpt lat="46.45316468053411" lon="9.948787445156533"><ele>2014.0</ele><time>2026-05-02T09:03:42.999Z</time></trkpt><trkpt lat="46.45323899994216" lon="9.948484573391745"><ele>2010.5</ele><time>2026-05-02T09:03:43.999Z</time></trkpt><trkpt lat="46.45332217565404" lon="9.94817758752292"><ele>2007.0</ele><time>2026-05-02T09:03:44.999Z</time></trkpt><trkpt lat="46.45341105744395" lon="9.947867174239006"><ele>2007.0</ele><time>2026-05-02T09:03:45.999Z</time></trkpt><trkpt lat="46.453500395710655" lon="9.947561515897517"><ele>2007.0</ele><time>2026-05-02T09:03:46.999Z</time></trkpt><trkpt lat="46.45358385326349" lon="9.947270957618663"><ele>2007.0</ele><time>2026-05-02T09:03:47.999Z</time></trkpt><trkpt lat="46.453661030642515" lon="9.94701304121353"><ele>2004.0</ele><time>2026-05-02T09:03:48.999Z</time></trkpt><trkpt lat="46.453734582210366" lon="9.946789155006778"><ele>2001.0</ele><time>2026-05-02T09:03:49.998Z</time></trkpt><trkpt lat="46.45383777739625" lon="9.946596619587913"><ele>1998.0</ele><time>2026-05-02T09:03:50.998Z</time></trkpt><trkpt lat="46.4539716299751" lon="9.946449799381039"><ele>1998.0</ele><time>2026-05-02T09:03:51.998Z</time></trkpt><trkpt lat="46.454134847087275" lon="9.946296272303675"><ele>1998.0</ele><time>2026-05-02T09:03:52.998Z</time></trkpt><trkpt lat="46.45428747096394" lon="9.946173225624117"><ele>1998.0</ele><time>2026-05-02T09:03:53.998Z</time></trkpt><trkpt lat="46.45451262275666" lon="9.94599418726039"><ele>1995.0</ele><time>2026-05-02T09:03:54.998Z</time></trkpt><trkpt lat="46.454700655683254" lon="9.94582199357756"><ele>1992.0</ele><time>2026-05-02T09:03:55.998Z</time></trkpt><trkpt lat="46.454867099445714" lon="9.945641932643897"><ele>1989.0</ele><time>2026-05-02T09:03:56.998Z</time></trkpt><trkpt lat="46.4550115839346" lon="9.945434188165654"><ele>1989.0</ele><time>2026-05-02T09:03:57.998Z</time></trkpt><trkpt lat="46.45512019963794" lon="9.945217461999905"><ele>1989.0</ele><time>2026-05-02T09:03:58.998Z</time></trkpt><trkpt lat="46.455233196361405" lon="9.945019159858765"><ele>1989.0</ele><time>2026-05-02T09:03:59.998Z</time></trkpt><trkpt lat="46.45536301324303" lon="9.944876829674904"><ele>1988.0</ele><time>2026-05-02T09:04:01Z</time></trkpt><trkpt lat="46.455499601439115" lon="9.94478625655696"><ele>1987.0</ele><time>2026-05-02T09:04:02Z</time></trkpt><trkpt lat="46.455655301302656" lon="9.94472778735582"><ele>1986.0</ele><time>2026-05-02T09:04:03Z</time></trkpt><trkpt lat="46.455797876365004" lon="9.944648812970025"><ele>1986.0</ele><time>2026-05-02T09:04:04Z</time></trkpt><trkpt lat="46.45596104260996" lon="9.944595969337158"><ele>1986.0</ele><time>2026-05-02T09:04:05Z</time></trkpt><trkpt lat="46.456103871305565" lon="9.94452674373753"><ele>1986.0</ele><time>2026-05-02T09:04:06Z</time></trkpt><trkpt lat="46.456236216046804" lon="9.944429673704239"><ele>1987.75</ele><time>2026-05-02T09:04:07Z</time></trkpt><trkpt lat="46.45634816955991" lon="9.944295083559748"><ele>1989.5</ele><time>2026-05-02T09:04:08Z</time></trkpt><trkpt lat="46.456437564924634" lon="9.944128862749363"><ele>1991.25</ele><time>2026-05-02T09:04:09Z</time></trkpt><trkpt lat="46.45650551010553" lon="9.94395045933855"><ele>1993.0</ele><time>2026-05-02T09:04:10Z</time></trkpt><trkpt lat="46.45658953170192" lon="9.943775919466727"><ele>1986.6666666666667</ele><time>2026-05-02T09:04:11Z</time></trkpt><trkpt lat="46.456680842587865" lon="9.943596115176105"><ele>1980.3333333333335</ele><time>2026-05-02T09:04:12Z</time></trkpt><trkpt lat="46.45676293061159" lon="9.943354898563154"><ele>1974.0</ele><time>2026-05-02T09:04:13Z</time></trkpt><trkpt lat="46.456852708740335" lon="9.94319288978894"><ele>1972.75</ele><time>2026-05-02T09:04:14Z</time></trkpt><trkpt lat="46.456937702506174" lon="9.943071904277964"><ele>1971.5</ele><time>2026-05-02T09:04:15Z</time></trkpt><trkpt lat="46.457041190979744" lon="9.94296768413247"><ele>1970.25</ele><time>2026-05-02T09:04:16Z</time></trkpt><trkpt lat="46.4571486743577" lon="9.94291278339383"><ele>1969.0</ele><time>2026-05-02T09:04:17Z</time></trkpt><trkpt lat="46.45725394532099" lon="9.942850546524765"><ele>1969.0000000000002</ele><time>2026-05-02T09:04:18Z</time></trkpt><trkpt lat="46.457359364857595" lon="9.94284616753604"><ele>1969.0</ele><time>2026-05-02T09:04:19Z</time></trkpt><trkpt lat="46.45742720287674" lon="9.942787663660054"><ele>1969.0</ele><time>2026-05-02T09:04:20Z</time></trkpt><trkpt lat="46.45749527518223" lon="9.942722891956553"><ele>1969.0</ele><time>2026-05-02T09:04:21Z</time></trkpt><trkpt lat="46.45755950490217" lon="9.942649034906259"><ele>1969.0000000000002</ele><time>2026-05-02T09:04:22Z</time></trkpt><trkpt lat="46.45762983410024" lon="9.9425790079707"><ele>1969.0</ele><time>2026-05-02T09:04:23Z</time></trkpt><trkpt lat="46.4577160546346" lon="9.942500951425345"><ele>1967.3333333333335</ele><time>2026-05-02T09:04:24Z</time></trkpt><trkpt lat="46.45781316613027" lon="9.942460988810181"><ele>1965.6666666666667</ele><time>2026-05-02T09:04:25Z</time></trkpt><trkpt lat="46.45791413695192" lon="9.942442208374684"><ele>1964.0</ele><time>2026-05-02T09:04:26Z</time></trkpt><trkpt lat="46.45800707640374" lon="9.942481816586305"><ele>1962.3333333333335</ele><time>2026-05-02T09:04:27Z</time></trkpt><trkpt lat="46.4580823781113" lon="9.942484604052199"><ele>1960.6666666666667</ele><time>2026-05-02T09:04:28Z</time></trkpt><trkpt lat="46.45814267816524" lon="9.942444054986533"><ele>1959.0</ele><time>2026-05-02T09:04:29Z</time></trkpt><trkpt lat="46.45817997682758" lon="9.942356108510998"><ele>1959.0</ele><time>2026-05-02T09:04:30Z</time></trkpt><trkpt lat="46.45817106821354" lon="9.942214243571248"><ele>1959.0</ele><time>2026-05-02T09:04:31Z</time></trkpt><trkpt lat="46.45808596278751" lon="9.942070365093652"><ele>1959.0</ele><time>2026-05-02T09:04:32Z</time></trkpt><trkpt lat="46.45791969963562" lon="9.942041978612012"><ele>1959.0</ele><time>2026-05-02T09:04:33Z</time></trkpt><trkpt lat="46.457759794851576" lon="9.942013475041563"><ele>1957.75</ele><time>2026-05-02T09:04:34Z</time></trkpt><trkpt lat="46.45761098361428" lon="9.941968592908259"><ele>1956.5</ele><time>2026-05-02T09:04:35Z</time></trkpt><trkpt lat="46.457487537822935" lon="9.94196339945265"><ele>1955.25</ele><time>2026-05-02T09:04:36Z</time></trkpt><trkpt lat="46.457359796981144" lon="9.942011828767065"><ele>1954.0</ele><time>2026-05-02T09:04:37Z</time></trkpt><trkpt lat="46.45722856385446" lon="9.942061705911685"><ele>1951.0</ele><time>2026-05-02T09:04:38Z</time></trkpt><trkpt lat="46.457103337433026" lon="9.9421677831875"><ele>1948.0</ele><time>2026-05-02T09:04:39Z</time></trkpt><trkpt lat="46.45698992258416" lon="9.94224407543114"><ele>1945.0</ele><time>2026-05-02T09:04:40Z</time></trkpt><trkpt lat="46.45689242910105" lon="9.94232242458078"><ele>1942.0</ele><time>2026-05-02T09:04:41Z</time></trkpt><trkpt lat="46.45681611734787" lon="9.942383751241803"><ele>1942.0</ele><time>2026-05-02T09:04:42Z</time></trkpt><trkpt lat="46.45675899644637" lon="9.942426118907909"><ele>1941.9999999999998</ele><time>2026-05-02T09:04:43Z</time></trkpt><trkpt lat="46.45668918309184" lon="9.942392819754932"><ele>1941.9999999999998</ele><time>2026-05-02T09:04:45Z</time></trkpt><trkpt lat="46.456735526966874" lon="9.942211707607285"><ele>1942.0</ele><time>2026-05-02T09:04:46.999Z</time></trkpt><trkpt lat="46.45686652753668" lon="9.942132024496452"><ele>1942.0</ele><time>2026-05-02T09:04:47.999Z</time></trkpt><trkpt lat="46.4569809960368" lon="9.942012166069372"><ele>1942.0</ele><time>2026-05-02T09:04:48.999Z</time></trkpt><trkpt lat="46.457094887892254" lon="9.94186688133029"><ele>1942.0</ele><time>2026-05-02T09:04:49.999Z</time></trkpt><trkpt lat="46.45719334459818" lon="9.941718635612881"><ele>1942.0</ele><time>2026-05-02T09:04:50.999Z</time></trkpt><trkpt lat="46.45728664386315" lon="9.941568257060677"><ele>1942.0</ele><time>2026-05-02T09:04:51.999Z</time></trkpt><trkpt lat="46.45738325026604" lon="9.941438399292693"><ele>1940.25</ele><time>2026-05-02T09:04:52.999Z</time></trkpt><trkpt lat="46.45749223706258" lon="9.941323695520717"><ele>1938.5</ele><time>2026-05-02T09:04:53.999Z</time></trkpt><trkpt lat="46.45760478358835" lon="9.941237235201907"><ele>1936.75</ele><time>2026-05-02T09:04:54.999Z</time></trkpt><trkpt lat="46.45772947621163" lon="9.941203580577483"><ele>1935.0</ele><time>2026-05-02T09:04:55.999Z</time></trkpt><trkpt lat="46.45785021032203" lon="9.94119662359028"><ele>1936.4</ele><time>2026-05-02T09:04:56.999Z</time></trkpt><trkpt lat="46.45796067325484" lon="9.941226898408878"><ele>1937.8</ele><time>2026-05-02T09:04:57.999Z</time></trkpt><trkpt lat="46.45805892607054" lon="9.941282000837258"><ele>1939.1999999999998</ele><time>2026-05-02T09:04:58.999Z</time></trkpt><trkpt lat="46.458147440323906" lon="9.941322364549205"><ele>1940.6</ele><time>2026-05-02T09:04:59.999Z</time></trkpt><trkpt lat="46.458230866464675" lon="9.941332561108393"><ele>1942.0</ele><time>2026-05-02T09:05:00.999Z</time></trkpt><trkpt lat="46.45833571903139" lon="9.941262300829598"><ele>1942.0</ele><time>2026-05-02T09:05:01.999Z</time></trkpt><trkpt lat="46.458461904518025" lon="9.941126898397302"><ele>1942.0</ele><time>2026-05-02T09:05:02.999Z</time></trkpt><trkpt lat="46.45858214641849" lon="9.940989381096756"><ele>1942.0</ele><time>2026-05-02T09:05:03.999Z</time></trkpt><trkpt lat="46.458701730050386" lon="9.940865594313937"><ele>1942.0</ele><time>2026-05-02T09:05:04.999Z</time></trkpt><trkpt lat="46.45882870852401" lon="9.94072503501553"><ele>1942.0</ele><time>2026-05-02T09:05:05.999Z</time></trkpt><trkpt lat="46.45897175922466" lon="9.940582254179429"><ele>1942.0</ele><time>2026-05-02T09:05:06.999Z</time></trkpt><trkpt lat="46.459122614772404" lon="9.940453211546703"><ele>1942.0</ele><time>2026-05-02T09:05:07.999Z</time></trkpt><trkpt lat="46.459299989792854" lon="9.940387908189026"><ele>1942.0</ele><time>2026-05-02T09:05:08.999Z</time></trkpt><trkpt lat="46.459476174475405" lon="9.940356387675656"><ele>1942.0</ele><time>2026-05-02T09:05:09.999Z</time></trkpt><trkpt lat="46.45966653758178" lon="9.940275170746206"><ele>1938.0</ele><time>2026-05-02T09:05:10.999Z</time></trkpt><trkpt lat="46.45983874950895" lon="9.940177851381156"><ele>1934.0</ele><time>2026-05-02T09:05:11.999Z</time></trkpt><trkpt lat="46.46000764833224" lon="9.940044932958887"><ele>1930.0</ele><time>2026-05-02T09:05:12.999Z</time></trkpt><trkpt lat="46.46019152765498" lon="9.939919339395948"><ele>1925.5</ele><time>2026-05-02T09:05:13.999Z</time></trkpt><trkpt lat="46.46041502580664" lon="9.939738388523509"><ele>1921.0</ele><time>2026-05-02T09:05:14.999Z</time></trkpt><trkpt lat="46.46063790767183" lon="9.939538105260217"><ele>1921.0</ele><time>2026-05-02T09:05:15.999Z</time></trkpt><trkpt lat="46.460670561969884" lon="9.939419847002464"><ele>1921.0</ele><time>2026-05-02T09:05:16.999Z</time></trkpt><trkpt lat="46.4608299098672" lon="9.939254863635407"><ele>1921.0</ele><time>2026-05-02T09:05:17.999Z</time></trkpt><trkpt lat="46.46099762095444" lon="9.939108607663018"><ele>1920.6666666666667</ele><time>2026-05-02T09:05:18.999Z</time></trkpt><trkpt lat="46.461129466589185" lon="9.938989962888202"><ele>1920.3333333333335</ele><time>2026-05-02T09:05:19.999Z</time></trkpt><trkpt lat="46.46127208338655" lon="9.93887968491239"><ele>1920.0</ele><time>2026-05-02T09:05:20.999Z</time></trkpt><trkpt lat="46.461410408466946" lon="9.93875897464836"><ele>1920.0</ele><time>2026-05-02T09:05:21.999Z</time></trkpt><trkpt lat="46.46152682791973" lon="9.938561256543384"><ele>1920.0</ele><time>2026-05-02T09:05:22.999Z</time></trkpt><trkpt lat="46.46163843503788" lon="9.938340117123879"><ele>1920.0</ele><time>2026-05-02T09:05:23.999Z</time></trkpt><trkpt lat="46.46176620248035" lon="9.93809015794545"><ele>1916.0</ele><time>2026-05-02T09:05:24.999Z</time></trkpt><trkpt lat="46.46186562040808" lon="9.937829922158862"><ele>1912.0</ele><time>2026-05-02T09:05:25.999Z</time></trkpt><trkpt lat="46.4619567816916" lon="9.93757163603341"><ele>1908.0</ele><time>2026-05-02T09:05:26.999Z</time></trkpt><trkpt lat="46.46204868625452" lon="9.937303475628187"><ele>1907.3333333333335</ele><time>2026-05-02T09:05:27.999Z</time></trkpt><trkpt lat="46.462135395243074" lon="9.93702065071954"><ele>1906.6666666666667</ele><time>2026-05-02T09:05:28.999Z</time></trkpt><trkpt lat="46.46221755596637" lon="9.936763098067658"><ele>1906.0</ele><time>2026-05-02T09:05:29.999Z</time></trkpt><trkpt lat="46.46230436110474" lon="9.936505840375721"><ele>1902.3333333333335</ele><time>2026-05-02T09:05:30.999Z</time></trkpt><trkpt lat="46.462398880342164" lon="9.936251809142245"><ele>1898.6666666666665</ele><time>2026-05-02T09:05:31.999Z</time></trkpt><trkpt lat="46.46250047335362" lon="9.936008818821946"><ele>1895.0</ele><time>2026-05-02T09:05:32.999Z</time></trkpt><trkpt lat="46.462621292492535" lon="9.935771714082216"><ele>1894.6666666666665</ele><time>2026-05-02T09:05:33.999Z</time></trkpt><trkpt lat="46.46276838773115" lon="9.93555452954177"><ele>1894.3333333333335</ele><time>2026-05-02T09:05:34.999Z</time></trkpt><trkpt lat="46.46291365974258" lon="9.93535059276818"><ele>1894.0</ele><time>2026-05-02T09:05:35.999Z</time></trkpt><trkpt lat="46.46306901374595" lon="9.935152390669087"><ele>1888.0</ele><time>2026-05-02T09:05:36.999Z</time></trkpt><trkpt lat="46.46325210865183" lon="9.934956598010988"><ele>1882.0</ele><time>2026-05-02T09:05:37.999Z</time></trkpt><trkpt lat="46.46344201579318" lon="9.934770319524349"><ele>1882.0</ele><time>2026-05-02T09:05:38.999Z</time></trkpt><trkpt lat="46.46361507388305" lon="9.934563949700792"><ele>1882.0</ele><time>2026-05-02T09:05:39.999Z</time></trkpt><trkpt lat="46.46379049664564" lon="9.934333784465991"><ele>1881.5</ele><time>2026-05-02T09:05:40.999Z</time></trkpt><trkpt lat="46.46395994822972" lon="9.934113899747379"><ele>1881.0</ele><time>2026-05-02T09:05:41.999Z</time></trkpt><trkpt lat="46.46412421067167" lon="9.933893308885004"><ele>1881.0</ele><time>2026-05-02T09:05:42.999Z</time></trkpt><trkpt lat="46.46428887545493" lon="9.933670570291216"><ele>1881.0</ele><time>2026-05-02T09:05:43.999Z</time></trkpt><trkpt lat="46.46446085970026" lon="9.933456271444241"><ele>1881.6666666666665</ele><time>2026-05-02T09:05:44.999Z</time></trkpt><trkpt lat="46.46463383003188" lon="9.933257273138054"><ele>1882.3333333333333</ele><time>2026-05-02T09:05:45.999Z</time></trkpt><trkpt lat="46.46481440962967" lon="9.933093052449683"><ele>1883.0</ele><time>2026-05-02T09:05:46.999Z</time></trkpt><trkpt lat="46.46502430375604" lon="9.93293947445259"><ele>1883.0</ele><time>2026-05-02T09:05:47.999Z</time></trkpt><trkpt lat="46.465214645495266" lon="9.932788137053969"><ele>1883.0</ele><time>2026-05-02T09:05:48.999Z</time></trkpt><trkpt lat="46.46540636054773" lon="9.932644920525762"><ele>1883.0</ele><time>2026-05-02T09:05:49.999Z</time></trkpt><trkpt lat="46.46559758113159" lon="9.932453627270354"><ele>1881.0</ele><time>2026-05-02T09:05:50.999Z</time></trkpt><trkpt lat="46.465760995896574" lon="9.932235682626285"><ele>1879.0</ele><time>2026-05-02T09:05:51.999Z</time></trkpt><trkpt lat="46.465901156429574" lon="9.931970462153098"><ele>1874.0</ele><time>2026-05-02T09:05:52.999Z</time></trkpt><trkpt lat="46.466049405012114" lon="9.931691654663759"><ele>1869.0</ele><time>2026-05-02T09:05:53.999Z</time></trkpt><trkpt lat="46.46621562519799" lon="9.931440150928145"><ele>1872.0</ele><time>2026-05-02T09:05:54.999Z</time></trkpt><trkpt lat="46.46639825285569" lon="9.931195111527641"><ele>1875.0</ele><time>2026-05-02T09:05:55.999Z</time></trkpt><trkpt lat="46.46658894575504" lon="9.930963987195897"><ele>1871.0</ele><time>2026-05-02T09:05:56.999Z</time></trkpt><trkpt lat="46.466767183074445" lon="9.930749025266381"><ele>1867.0</ele><time>2026-05-02T09:05:57.998Z</time></trkpt><trkpt lat="46.46697526663987" lon="9.930503284339867"><ele>1867.5</ele><time>2026-05-02T09:05:58.998Z</time></trkpt><trkpt lat="46.4671933168234" lon="9.930257388954544"><ele>1868.0</ele><time>2026-05-02T09:05:59.998Z</time></trkpt><trkpt lat="46.46742034104706" lon="9.93000577349141"><ele>1868.0</ele><time>2026-05-02T09:06:00.998Z</time></trkpt><trkpt lat="46.46764865963437" lon="9.929739564460347"><ele>1868.0</ele><time>2026-05-02T09:06:01.998Z</time></trkpt><trkpt lat="46.467868069961106" lon="9.92949596931969"><ele>1867.0</ele><time>2026-05-02T09:06:02.998Z</time></trkpt><trkpt lat="46.46807840925754" lon="9.92930902291805"><ele>1866.0</ele><time>2026-05-02T09:06:03.998Z</time></trkpt><trkpt lat="46.46826535403197" lon="9.92913647118811"><ele>1865.3333333333335</ele><time>2026-05-02T09:06:04.998Z</time></trkpt><trkpt lat="46.468449670885136" lon="9.928947800247723"><ele>1864.6666666666667</ele><time>2026-05-02T09:06:05.998Z</time></trkpt><trkpt lat="46.46863447679476" lon="9.928845832467125"><ele>1864.0</ele><time>2026-05-02T09:06:07Z</time></trkpt><trkpt lat="46.46884781230528" lon="9.9287124979574"><ele>1864.0</ele><time>2026-05-02T09:06:08Z</time></trkpt><trkpt lat="46.46906443712631" lon="9.928551830835053"><ele>1864.0</ele><time>2026-05-02T09:06:09Z</time></trkpt><trkpt lat="46.469264868622965" lon="9.928417055465015"><ele>1863.0</ele><time>2026-05-02T09:06:10Z</time></trkpt><trkpt lat="46.46946329704909" lon="9.928278412130831"><ele>1862.0</ele><time>2026-05-02T09:06:11Z</time></trkpt><trkpt lat="46.469664227893496" lon="9.928141790396111"><ele>1861.0</ele><time>2026-05-02T09:06:12Z</time></trkpt><trkpt lat="46.469868454688935" lon="9.928006022410282"><ele>1860.6666666666667</ele><time>2026-05-02T09:06:13Z</time></trkpt><trkpt lat="46.47005945953572" lon="9.92788502913358"><ele>1860.3333333333335</ele><time>2026-05-02T09:06:14Z</time></trkpt><trkpt lat="46.47024033695422" lon="9.927771617717902"><ele>1860.0</ele><time>2026-05-02T09:06:15Z</time></trkpt><trkpt lat="46.470676668236464" lon="9.927388492192497"><ele>1858.0</ele><time>2026-05-02T09:06:16Z</time></trkpt><trkpt lat="46.47091127077646" lon="9.927211649952422"><ele>1856.0</ele><time>2026-05-02T09:06:17Z</time></trkpt><trkpt lat="46.47114561642593" lon="9.927031620775553"><ele>1854.0</ele><time>2026-05-02T09:06:18Z</time></trkpt><trkpt lat="46.47137463714288" lon="9.926847892210551"><ele>1852.0</ele><time>2026-05-02T09:06:19Z</time></trkpt><trkpt lat="46.471603832102296" lon="9.926648801729312"><ele>1852.0</ele><time>2026-05-02T09:06:20Z</time></trkpt><trkpt lat="46.47182924776414" lon="9.926446893153908"><ele>1852.0</ele><time>2026-05-02T09:06:21Z</time></trkpt><trkpt lat="46.47205224523965" lon="9.926236041024199"><ele>1849.5</ele><time>2026-05-02T09:06:22Z</time></trkpt><trkpt lat="46.472272060570816" lon="9.92602620494065"><ele>1847.0</ele><time>2026-05-02T09:06:23Z</time></trkpt><trkpt lat="46.47249514955107" lon="9.925817367295355"><ele>1847.0</ele><time>2026-05-02T09:06:24Z</time></trkpt><trkpt lat="46.47271271224996" lon="9.925611404476795"><ele>1847.0</ele><time>2026-05-02T09:06:25Z</time></trkpt><trkpt lat="46.47293775032628" lon="9.9254157045618"><ele>1845.5</ele><time>2026-05-02T09:06:26Z</time></trkpt><trkpt lat="46.47316000864151" lon="9.925211252492897"><ele>1844.0</ele><time>2026-05-02T09:06:27Z</time></trkpt><trkpt lat="46.47338267625282" lon="9.924996548787872"><ele>1844.0</ele><time>2026-05-02T09:06:28Z</time></trkpt><trkpt lat="46.47360097337303" lon="9.924788710835818"><ele>1844.0</ele><time>2026-05-02T09:06:29Z</time></trkpt><trkpt lat="46.473811735236225" lon="9.924573976516921"><ele>1846.0</ele><time>2026-05-02T09:06:30Z</time></trkpt><trkpt lat="46.47400149812152" lon="9.924354412723169"><ele>1848.0</ele><time>2026-05-02T09:06:31Z</time></trkpt><trkpt lat="46.47417082982072" lon="9.924116919492583"><ele>1848.0</ele><time>2026-05-02T09:06:32Z</time></trkpt><trkpt lat="46.474308605213096" lon="9.923871074754896"><ele>1848.0</ele><time>2026-05-02T09:06:33Z</time></trkpt><trkpt lat="46.47445378211983" lon="9.923643036787546"><ele>1848.0</ele><time>2026-05-02T09:06:34Z</time></trkpt><trkpt lat="46.474611834088634" lon="9.92344061164086"><ele>1847.0</ele><time>2026-05-02T09:06:35Z</time></trkpt><trkpt lat="46.474789540018804" lon="9.92330409118433"><ele>1846.0</ele><time>2026-05-02T09:06:36Z</time></trkpt><trkpt lat="46.474985920979286" lon="9.923199586216342"><ele>1845.0</ele><time>2026-05-02T09:06:37Z</time></trkpt><trkpt lat="46.47520379187671" lon="9.92310557765179"><ele>1845.0</ele><time>2026-05-02T09:06:38Z</time></trkpt><trkpt lat="46.475431074266396" lon="9.923053283123181"><ele>1845.0</ele><time>2026-05-02T09:06:39Z</time></trkpt><trkpt lat="46.475148243901316" lon="9.922251581392977"><ele>1839.0</ele><time>2026-05-02T09:06:40Z</time></trkpt><trkpt lat="46.47589203140772" lon="9.92244420529258"><ele>1839.0</ele><time>2026-05-02T09:06:42Z</time></trkpt><trkpt lat="46.476183015032134" lon="9.922453939903837"><ele>1839.0</ele><time>2026-05-02T09:06:43Z</time></trkpt><trkpt lat="46.476468173732" lon="9.922372894994826"><ele>1841.5</ele><time>2026-05-02T09:06:44Z</time></trkpt><trkpt lat="46.47672631824874" lon="9.922213673393319"><ele>1844.0</ele><time>2026-05-02T09:06:45Z</time></trkpt><trkpt lat="46.47697176469772" lon="9.922034992442857"><ele>1841.0</ele><time>2026-05-02T09:06:46Z</time></trkpt><trkpt lat="46.47719784120514" lon="9.921833195885101"><ele>1838.0</ele><time>2026-05-02T09:06:47Z</time></trkpt><trkpt lat="46.47740730300424" lon="9.921573160204147"><ele>1838.0</ele><time>2026-05-02T09:06:48Z</time></trkpt><trkpt lat="46.47764068925523" lon="9.9213934567029"><ele>1838.0</ele><time>2026-05-02T09:06:49Z</time></trkpt><trkpt lat="46.47785811882847" lon="9.921233838698024"><ele>1835.0</ele><time>2026-05-02T09:06:50Z</time></trkpt><trkpt lat="46.478082172132645" lon="9.921049136595965"><ele>1832.0</ele><time>2026-05-02T09:06:51Z</time></trkpt><trkpt lat="46.47830339048786" lon="9.920849621559084"><ele>1832.0</ele><time>2026-05-02T09:06:52Z</time></trkpt><trkpt lat="46.47852045353534" lon="9.92066314906723"><ele>1832.0</ele><time>2026-05-02T09:06:53Z</time></trkpt><trkpt lat="46.47872525813412" lon="9.920454851416375"><ele>1834.0</ele><time>2026-05-02T09:06:54Z</time></trkpt><trkpt lat="46.47893016513595" lon="9.920251042248578"><ele>1836.0</ele><time>2026-05-02T09:06:55Z</time></trkpt><trkpt lat="46.479102728861065" lon="9.92002587993754"><ele>1836.0</ele><time>2026-05-02T09:06:56Z</time></trkpt><trkpt lat="46.47926103867322" lon="9.919768706777262"><ele>1836.0</ele><time>2026-05-02T09:06:57Z</time></trkpt><trkpt lat="46.479402789749955" lon="9.919489027097521"><ele>1833.5</ele><time>2026-05-02T09:06:58Z</time></trkpt><trkpt lat="46.479540428350525" lon="9.919191855051741"><ele>1831.0</ele><time>2026-05-02T09:06:59Z</time></trkpt><trkpt lat="46.47966924059876" lon="9.918877395153"><ele>1832.5</ele><time>2026-05-02T09:07:00Z</time></trkpt><trkpt lat="46.479806321500874" lon="9.918557633426586"><ele>1834.0</ele><time>2026-05-02T09:07:00.999Z</time></trkpt><trkpt lat="46.47994654071315" lon="9.918245149802411"><ele>1834.0</ele><time>2026-05-02T09:07:01.999Z</time></trkpt><trkpt lat="46.48009689348682" lon="9.917941400186706"><ele>1834.0</ele><time>2026-05-02T09:07:02.999Z</time></trkpt><trkpt lat="46.48022791813474" lon="9.91764294977942"><ele>1833.0</ele><time>2026-05-02T09:07:03.999Z</time></trkpt><trkpt lat="46.480354916619575" lon="9.917363202424974"><ele>1832.0</ele><time>2026-05-02T09:07:04.999Z</time></trkpt><trkpt lat="46.4804772931047" lon="9.917110561865638"><ele>1831.0</ele><time>2026-05-02T09:07:05.999Z</time></trkpt><trkpt lat="46.48058753117023" lon="9.916883255193065"><ele>1831.3333333333335</ele><time>2026-05-02T09:07:06.999Z</time></trkpt><trkpt lat="46.48067100236237" lon="9.916669412624552"><ele>1831.6666666666665</ele><time>2026-05-02T09:07:07.999Z</time></trkpt><trkpt lat="46.48075841718286" lon="9.916472225330065"><ele>1832.0</ele><time>2026-05-02T09:07:08.999Z</time></trkpt><trkpt lat="46.4808395071653" lon="9.916292568650329"><ele>1832.0</ele><time>2026-05-02T09:07:09.999Z</time></trkpt><trkpt lat="46.48091603975956" lon="9.916126772799991"><ele>1832.0</ele><time>2026-05-02T09:07:10.999Z</time></trkpt><trkpt lat="46.481004057187945" lon="9.915969258693616"><ele>1832.0</ele><time>2026-05-02T09:07:11.999Z</time></trkpt><trkpt lat="46.481090288944266" lon="9.915817413066057"><ele>1832.0</ele><time>2026-05-02T09:07:12.999Z</time></trkpt><trkpt lat="46.48117903903445" lon="9.915653115238277"><ele>1832.75</ele><time>2026-05-02T09:07:13.999Z</time></trkpt><trkpt lat="46.48127121594352" lon="9.915494586864625"><ele>1833.5</ele><time>2026-05-02T09:07:14.999Z</time></trkpt><trkpt lat="46.48137073692441" lon="9.915337277266294"><ele>1834.25</ele><time>2026-05-02T09:07:15.999Z</time></trkpt><trkpt lat="46.48147880076618" lon="9.91518740572802"><ele>1835.0</ele><time>2026-05-02T09:07:16.999Z</time></trkpt><trkpt lat="46.48158545973932" lon="9.915038843630134"><ele>1832.6666666666665</ele><time>2026-05-02T09:07:17.999Z</time></trkpt><trkpt lat="46.481691437483" lon="9.914888833187646"><ele>1830.3333333333335</ele><time>2026-05-02T09:07:18.999Z</time></trkpt><trkpt lat="46.48180751525608" lon="9.914753698728523"><ele>1828.0</ele><time>2026-05-02T09:07:19.999Z</time></trkpt><trkpt lat="46.48191537732026" lon="9.914595455322532"><ele>1828.0</ele><time>2026-05-02T09:07:20.999Z</time></trkpt><trkpt lat="46.48202112183354" lon="9.914435310628283"><ele>1828.0</ele><time>2026-05-02T09:07:21.999Z</time></trkpt><trkpt lat="46.48212394417819" lon="9.914279225550102"><ele>1828.0</ele><time>2026-05-02T09:07:22.999Z</time></trkpt><trkpt lat="46.48222892674334" lon="9.914132380779092"><ele>1828.0</ele><time>2026-05-02T09:07:23.999Z</time></trkpt><trkpt lat="46.48232914093611" lon="9.913980842512881"><ele>1828.25</ele><time>2026-05-02T09:07:24.999Z</time></trkpt><trkpt lat="46.48242533361918" lon="9.913828994256798"><ele>1828.5</ele><time>2026-05-02T09:07:25.999Z</time></trkpt><trkpt lat="46.482521954959495" lon="9.913685242846292"><ele>1828.75</ele><time>2026-05-02T09:07:26.999Z</time></trkpt><trkpt lat="46.482621146985316" lon="9.913546521260672"><ele>1829.0</ele><time>2026-05-02T09:07:27.999Z</time></trkpt><trkpt lat="46.48272271797139" lon="9.913411594029775"><ele>1829.0</ele><time>2026-05-02T09:07:28.999Z</time></trkpt><trkpt lat="46.482825594182" lon="9.913269787731137"><ele>1829.0</ele><time>2026-05-02T09:07:29.999Z</time></trkpt><trkpt lat="46.48292212034205" lon="9.913124600459598"><ele>1829.0</ele><time>2026-05-02T09:07:30.999Z</time></trkpt><trkpt lat="46.48301889552847" lon="9.912975482916647"><ele>1829.0</ele><time>2026-05-02T09:07:31.999Z</time></trkpt><trkpt lat="46.483116335812426" lon="9.912828473012496"><ele>1829.0</ele><time>2026-05-02T09:07:32.999Z</time></trkpt><trkpt lat="46.48321438368772" lon="9.912683353041377"><ele>1829.0</ele><time>2026-05-02T09:07:33.999Z</time></trkpt><trkpt lat="46.4833140313593" lon="9.91254286556623"><ele>1829.0</ele><time>2026-05-02T09:07:34.999Z</time></trkpt><trkpt lat="46.48341121970436" lon="9.912394543751596"><ele>1829.0</ele><time>2026-05-02T09:07:35.999Z</time></trkpt><trkpt lat="46.483513237256595" lon="9.912244406308718"><ele>1829.25</ele><time>2026-05-02T09:07:36.999Z</time></trkpt><trkpt lat="46.48361655671556" lon="9.912102141609198"><ele>1829.5</ele><time>2026-05-02T09:07:37.999Z</time></trkpt><trkpt lat="46.48371836484706" lon="9.911958464122678"><ele>1829.75</ele><time>2026-05-02T09:07:38.999Z</time></trkpt><trkpt lat="46.483821539866206" lon="9.911799349819125"><ele>1830.0</ele><time>2026-05-02T09:07:39.999Z</time></trkpt><trkpt lat="46.483927576486316" lon="9.91164047189265"><ele>1830.0</ele><time>2026-05-02T09:07:40.999Z</time></trkpt><trkpt lat="46.48403479089751" lon="9.91148172296886"><ele>1830.0</ele><time>2026-05-02T09:07:41.999Z</time></trkpt><trkpt lat="46.48414294956942" lon="9.911322614783392"><ele>1830.0</ele><time>2026-05-02T09:07:42.999Z</time></trkpt><trkpt lat="46.48424659963527" lon="9.911161585936725"><ele>1830.0</ele><time>2026-05-02T09:07:43.999Z</time></trkpt><trkpt lat="46.48435132080808" lon="9.911005651840577"><ele>1830.0</ele><time>2026-05-02T09:07:44.999Z</time></trkpt><trkpt lat="46.48445973019223" lon="9.910844281191267"><ele>1830.0</ele><time>2026-05-02T09:07:45.999Z</time></trkpt><trkpt lat="46.48457074137144" lon="9.910678645421923"><ele>1833.6666666666665</ele><time>2026-05-02T09:07:46.999Z</time></trkpt><trkpt lat="46.48467682912727" lon="9.91051458327124"><ele>1837.3333333333333</ele><time>2026-05-02T09:07:47.999Z</time></trkpt><trkpt lat="46.48477775160181" lon="9.910346194897956"><ele>1841.0</ele><time>2026-05-02T09:07:48.999Z</time></trkpt><trkpt lat="46.48488163411055" lon="9.910167426650347"><ele>1835.3333333333333</ele><time>2026-05-02T09:07:49.999Z</time></trkpt><trkpt lat="46.48498097989844" lon="9.909994696972367"><ele>1829.6666666666665</ele><time>2026-05-02T09:07:50.999Z</time></trkpt><trkpt lat="46.48507869329552" lon="9.90981545365853"><ele>1824.0</ele><time>2026-05-02T09:07:51.999Z</time></trkpt><trkpt lat="46.485174496740854" lon="9.909633904279582"><ele>1824.0</ele><time>2026-05-02T09:07:52.999Z</time></trkpt><trkpt lat="46.48526492285858" lon="9.909462339851965"><ele>1824.0</ele><time>2026-05-02T09:07:53.999Z</time></trkpt><trkpt lat="46.48535486913174" lon="9.909284087728489"><ele>1824.0</ele><time>2026-05-02T09:07:54.999Z</time></trkpt><trkpt lat="46.48543972134065" lon="9.909110226199923"><ele>1824.0</ele><time>2026-05-02T09:07:55.999Z</time></trkpt><trkpt lat="46.485524674427644" lon="9.908938129816255"><ele>1825.0</ele><time>2026-05-02T09:07:56.999Z</time></trkpt><trkpt lat="46.48561508357065" lon="9.908762996825567"><ele>1826.0</ele><time>2026-05-02T09:07:57.999Z</time></trkpt><trkpt lat="46.48570266818162" lon="9.908586751232136"><ele>1827.0</ele><time>2026-05-02T09:07:58.999Z</time></trkpt><trkpt lat="46.48579101196448" lon="9.908407859369001"><ele>1824.6666666666665</ele><time>2026-05-02T09:07:59.999Z</time></trkpt><trkpt lat="46.48588136648798" lon="9.908227596781629"><ele>1822.3333333333333</ele><time>2026-05-02T09:08:00.999Z</time></trkpt><trkpt lat="46.485978143491856" lon="9.908048906225964"><ele>1820.0</ele><time>2026-05-02T09:08:01.999Z</time></trkpt><trkpt lat="46.48607438134762" lon="9.907870576616334"><ele>1820.0</ele><time>2026-05-02T09:08:02.999Z</time></trkpt><trkpt lat="46.48616112712514" lon="9.907687334694833"><ele>1820.0</ele><time>2026-05-02T09:08:03.999Z</time></trkpt><trkpt lat="46.48625502386937" lon="9.907511265820995"><ele>1820.0</ele><time>2026-05-02T09:08:04.999Z</time></trkpt><trkpt lat="46.48634905223038" lon="9.90732553764019"><ele>1819.6666666666665</ele><time>2026-05-02T09:08:05.999Z</time></trkpt><trkpt lat="46.48644198647656" lon="9.907143354721944"><ele>1819.3333333333335</ele><time>2026-05-02T09:08:06.999Z</time></trkpt><trkpt lat="46.486531252703344" lon="9.906963489471389"><ele>1819.0</ele><time>2026-05-02T09:08:07.999Z</time></trkpt><trkpt lat="46.48662910735379" lon="9.90678093386803"><ele>1815.6666666666667</ele><time>2026-05-02T09:08:08.999Z</time></trkpt><trkpt lat="46.48671959822989" lon="9.90660242328456"><ele>1812.3333333333335</ele><time>2026-05-02T09:08:09.999Z</time></trkpt><trkpt lat="46.48680899888755" lon="9.906427261319603"><ele>1809.0</ele><time>2026-05-02T09:08:10.999Z</time></trkpt><trkpt lat="46.48690283884302" lon="9.906250035911784"><ele>1809.0</ele><time>2026-05-02T09:08:11.998Z</time></trkpt><trkpt lat="46.486992787901336" lon="9.906071904361115"><ele>1809.0</ele><time>2026-05-02T09:08:13Z</time></trkpt><trkpt lat="46.48708175014108" lon="9.905894351967152"><ele>1809.0</ele><time>2026-05-02T09:08:14Z</time></trkpt><trkpt lat="46.487174117450074" lon="9.905715560339738"><ele>1810.0</ele><time>2026-05-02T09:08:15Z</time></trkpt><trkpt lat="46.48726370830344" lon="9.905542532584397"><ele>1811.0</ele><time>2026-05-02T09:08:16Z</time></trkpt><trkpt lat="46.48735760069832" lon="9.905370734023274"><ele>1812.0</ele><time>2026-05-02T09:08:17Z</time></trkpt><trkpt lat="46.487449307318464" lon="9.905202084688838"><ele>1813.0</ele><time>2026-05-02T09:08:18Z</time></trkpt><trkpt lat="46.48755054438915" lon="9.90504047877943"><ele>1814.6666666666667</ele><time>2026-05-02T09:08:19Z</time></trkpt><trkpt lat="46.48766191004082" lon="9.90487739300471"><ele>1816.3333333333335</ele><time>2026-05-02T09:08:20Z</time></trkpt><trkpt lat="46.487763655262725" lon="9.904723079933802"><ele>1818.0</ele><time>2026-05-02T09:08:21Z</time></trkpt><trkpt lat="46.48788558679959" lon="9.904592305360753"><ele>1817.6666666666665</ele><time>2026-05-02T09:08:22Z</time></trkpt><trkpt lat="46.488008406683754" lon="9.904456150903089"><ele>1817.3333333333333</ele><time>2026-05-02T09:08:23Z</time></trkpt><trkpt lat="46.488141996115885" lon="9.904310813726454"><ele>1817.0</ele><time>2026-05-02T09:08:24Z</time></trkpt><trkpt lat="46.488292574684" lon="9.904171051395085"><ele>1815.6666666666665</ele><time>2026-05-02T09:08:25Z</time></trkpt><trkpt lat="46.48846227140383" lon="9.904015724839251"><ele>1814.3333333333335</ele><time>2026-05-02T09:08:26Z</time></trkpt><trkpt lat="46.488642717127576" lon="9.90386240213054"><ele>1813.0</ele><time>2026-05-02T09:08:27Z</time></trkpt><trkpt lat="46.488832029006716" lon="9.903707801379825"><ele>1812.6666666666667</ele><time>2026-05-02T09:08:28Z</time></trkpt><trkpt lat="46.48902454752768" lon="9.903539864915263"><ele>1812.3333333333335</ele><time>2026-05-02T09:08:29Z</time></trkpt><trkpt lat="46.48921936162651" lon="9.903377273211207"><ele>1812.0</ele><time>2026-05-02T09:08:30Z</time></trkpt><trkpt lat="46.489407430034596" lon="9.903208268131044"><ele>1810.0</ele><time>2026-05-02T09:08:31Z</time></trkpt><trkpt lat="46.48957687186284" lon="9.903032626559089"><ele>1808.0</ele><time>2026-05-02T09:08:32Z</time></trkpt><trkpt lat="46.48974527572558" lon="9.902840160860357"><ele>1806.0</ele><time>2026-05-02T09:08:33Z</time></trkpt><trkpt lat="46.48991320610979" lon="9.902620376819318"><ele>1801.0</ele><time>2026-05-02T09:08:34Z</time></trkpt><trkpt lat="46.490079609042546" lon="9.902391487445314"><ele>1796.0</ele><time>2026-05-02T09:08:35Z</time></trkpt><trkpt lat="46.49023866416497" lon="9.902140409961788"><ele>1796.0</ele><time>2026-05-02T09:08:36Z</time></trkpt><trkpt lat="46.490385617293654" lon="9.90186291813931"><ele>1796.0</ele><time>2026-05-02T09:08:37Z</time></trkpt><trkpt lat="46.490525368181075" lon="9.90159081240516"><ele>1791.5</ele><time>2026-05-02T09:08:38Z</time></trkpt><trkpt lat="46.49066313713574" lon="9.901302595937098"><ele>1787.0</ele><time>2026-05-02T09:08:39Z</time></trkpt><trkpt lat="46.49079167798395" lon="9.901006011848573"><ele>1786.3333333333333</ele><time>2026-05-02T09:08:40Z</time></trkpt><trkpt lat="46.49089875012625" lon="9.900730370330443"><ele>1785.6666666666665</ele><time>2026-05-02T09:08:41Z</time></trkpt><trkpt lat="46.490985548549325" lon="9.900466891865829"><ele>1785.0</ele><time>2026-05-02T09:08:42Z</time></trkpt><trkpt lat="46.49104880616334" lon="9.900243476196039"><ele>1783.75</ele><time>2026-05-02T09:08:43Z</time></trkpt><trkpt lat="46.491088925272855" lon="9.900027190160534"><ele>1782.5</ele><time>2026-05-02T09:08:44Z</time></trkpt><trkpt lat="46.49115069679362" lon="9.899832204884184"><ele>1781.25</ele><time>2026-05-02T09:08:45Z</time></trkpt><trkpt lat="46.491188643681454" lon="9.899637360800515"><ele>1780.0</ele><time>2026-05-02T09:08:46Z</time></trkpt><trkpt lat="46.49122877147424" lon="9.899466707822913"><ele>1779.6</ele><time>2026-05-02T09:08:47Z</time></trkpt><trkpt lat="46.49127353356355" lon="9.899315356562093"><ele>1779.2</ele><time>2026-05-02T09:08:48Z</time></trkpt><trkpt lat="46.49131116616308" lon="9.89918111935794"><ele>1778.8000000000002</ele><time>2026-05-02T09:08:49Z</time></trkpt><trkpt lat="46.49135609613779" lon="9.899068517003139"><ele>1778.4</ele><time>2026-05-02T09:08:50Z</time></trkpt><trkpt lat="46.49140394991785" lon="9.898979609350034"><ele>1778.0</ele><time>2026-05-02T09:08:51Z</time></trkpt><trkpt lat="46.491452520417354" lon="9.898907445893297"><ele>1777.9999999999998</ele><time>2026-05-02T09:08:52Z</time></trkpt><trkpt lat="46.49147233120559" lon="9.898816402503453"><ele>1778.0</ele><time>2026-05-02T09:08:53Z</time></trkpt><trkpt lat="46.49147197016441" lon="9.89870016169054"><ele>1778.0</ele><time>2026-05-02T09:08:54Z</time></trkpt><trkpt lat="46.491468894708404" lon="9.898564763775092"><ele>1778.0</ele><time>2026-05-02T09:08:55Z</time></trkpt><trkpt lat="46.49148331222713" lon="9.898422955021454"><ele>1777.9999999999998</ele><time>2026-05-02T09:08:56Z</time></trkpt><trkpt lat="46.491526839455226" lon="9.898275726189025"><ele>1778.0</ele><time>2026-05-02T09:08:57Z</time></trkpt><trkpt lat="46.49158501556782" lon="9.898112637915512"><ele>1776.0</ele><time>2026-05-02T09:08:58Z</time></trkpt><trkpt lat="46.49164567601537" lon="9.897955528948394"><ele>1774.0</ele><time>2026-05-02T09:08:59Z</time></trkpt><trkpt lat="46.4917164388958" lon="9.89778768404128"><ele>1772.0</ele><time>2026-05-02T09:09:00Z</time></trkpt><trkpt lat="46.49178799553845" lon="9.897615120892977"><ele>1770.0</ele><time>2026-05-02T09:09:01Z</time></trkpt><trkpt lat="46.49186555343674" lon="9.897441232388928"><ele>1768.6666666666665</ele><time>2026-05-02T09:09:02Z</time></trkpt><trkpt lat="46.49197332997915" lon="9.897260715014077"><ele>1767.3333333333333</ele><time>2026-05-02T09:09:03Z</time></trkpt><trkpt lat="46.49207928552587" lon="9.897078205359897"><ele>1766.0</ele><time>2026-05-02T09:09:04Z</time></trkpt><trkpt lat="46.492197776342216" lon="9.896903297215454"><ele>1766.0</ele><time>2026-05-02T09:09:05Z</time></trkpt><trkpt lat="46.492316084377684" lon="9.896734458508792"><ele>1766.0</ele><time>2026-05-02T09:09:05.999Z</time></trkpt><trkpt lat="46.4924478186717" lon="9.896554553400668"><ele>1766.0</ele><time>2026-05-02T09:09:06.999Z</time></trkpt><trkpt lat="46.492590217998256" lon="9.896379186387422"><ele>1766.0</ele><time>2026-05-02T09:09:07.999Z</time></trkpt><trkpt lat="46.49273877302276" lon="9.896218406662754"><ele>1766.0</ele><time>2026-05-02T09:09:08.999Z</time></trkpt><trkpt lat="46.49291215623564" lon="9.896044721111599"><ele>1766.0</ele><time>2026-05-02T09:09:09.999Z</time></trkpt><trkpt lat="46.49309946593979" lon="9.895839279366824"><ele>1765.6666666666665</ele><time>2026-05-02T09:09:10.999Z</time></trkpt><trkpt lat="46.49327611141612" lon="9.89566372625675"><ele>1765.3333333333335</ele><time>2026-05-02T09:09:11.999Z</time></trkpt><trkpt lat="46.49340828574973" lon="9.895545869294011"><ele>1765.0</ele><time>2026-05-02T09:09:12.999Z</time></trkpt><trkpt lat="46.49357315582709" lon="9.895378192431043"><ele>1765.0</ele><time>2026-05-02T09:09:13.999Z</time></trkpt><trkpt lat="46.493741437650364" lon="9.895215084778773"><ele>1765.0</ele><time>2026-05-02T09:09:14.999Z</time></trkpt><trkpt lat="46.49390475004355" lon="9.895035115255697"><ele>1765.0</ele><time>2026-05-02T09:09:15.999Z</time></trkpt><trkpt lat="46.4940647392967" lon="9.894863812476066"><ele>1762.3333333333335</ele><time>2026-05-02T09:09:16.999Z</time></trkpt><trkpt lat="46.494237316577546" lon="9.894686891705264"><ele>1759.6666666666665</ele><time>2026-05-02T09:09:17.999Z</time></trkpt><trkpt lat="46.49439244627176" lon="9.894518098466172"><ele>1757.0</ele><time>2026-05-02T09:09:18.999Z</time></trkpt><trkpt lat="46.49449464072703" lon="9.894410881929446"><ele>1757.0</ele><time>2026-05-02T09:09:19.999Z</time></trkpt><trkpt lat="46.494548418037965" lon="9.894354865737496"><ele>1757.0</ele><time>2026-05-02T09:09:20.999Z</time></trkpt><trkpt lat="46.495312142945906" lon="9.893571957679331"><ele>1755.5</ele><time>2026-05-02T09:09:23.999Z</time></trkpt><trkpt lat="46.49550302869234" lon="9.893381894910117"><ele>1754.0</ele><time>2026-05-02T09:09:24.999Z</time></trkpt><trkpt lat="46.495687476377434" lon="9.893195166446237"><ele>1754.0</ele><time>2026-05-02T09:09:25.999Z</time></trkpt><trkpt lat="46.49586489773308" lon="9.893012416678772"><ele>1754.0</ele><time>2026-05-02T09:09:26.999Z</time></trkpt><trkpt lat="46.4960511848585" lon="9.892826141610598"><ele>1754.0</ele><time>2026-05-02T09:09:27.999Z</time></trkpt><trkpt lat="46.49623054141139" lon="9.892633981327098"><ele>1753.0</ele><time>2026-05-02T09:09:28.999Z</time></trkpt><trkpt lat="46.49641504034838" lon="9.892448920111079"><ele>1752.0</ele><time>2026-05-02T09:09:29.999Z</time></trkpt><trkpt lat="46.49660040320798" lon="9.8922643064395"><ele>1751.0</ele><time>2026-05-02T09:09:30.999Z</time></trkpt><trkpt lat="46.496778916160785" lon="9.892070271757845"><ele>1751.0</ele><time>2026-05-02T09:09:31.999Z</time></trkpt><trkpt lat="46.496973106962024" lon="9.891873295132111"><ele>1751.0</ele><time>2026-05-02T09:09:32.999Z</time></trkpt><trkpt lat="46.4971669336728" lon="9.891676267498822"><ele>1752.0</ele><time>2026-05-02T09:09:33.999Z</time></trkpt><trkpt lat="46.49735726385285" lon="9.89148408601291"><ele>1753.0</ele><time>2026-05-02T09:09:34.999Z</time></trkpt><trkpt lat="46.49754879375502" lon="9.891302008489586"><ele>1753.0</ele><time>2026-05-02T09:09:35.999Z</time></trkpt><trkpt lat="46.497738278813344" lon="9.891115194566444"><ele>1753.0</ele><time>2026-05-02T09:09:36.999Z</time></trkpt><trkpt lat="46.49792457812656" lon="9.890930718849583"><ele>1751.0</ele><time>2026-05-02T09:09:37.999Z</time></trkpt><trkpt lat="46.498119379310275" lon="9.89075213869406"><ele>1749.0</ele><time>2026-05-02T09:09:38.999Z</time></trkpt><trkpt lat="46.498311033241976" lon="9.890575769803732"><ele>1749.0</ele><time>2026-05-02T09:09:39.999Z</time></trkpt><trkpt lat="46.4985058446636" lon="9.89041109051475"><ele>1749.0</ele><time>2026-05-02T09:09:40.999Z</time></trkpt><trkpt lat="46.49870897096816" lon="9.890246926188755"><ele>1748.5</ele><time>2026-05-02T09:09:41.999Z</time></trkpt><trkpt lat="46.49891463936366" lon="9.890088325012503"><ele>1748.0</ele><time>2026-05-02T09:09:42.999Z</time></trkpt><trkpt lat="46.4991179179987" lon="9.889927550915408"><ele>1748.0</ele><time>2026-05-02T09:09:43.999Z</time></trkpt><trkpt lat="46.49931729245923" lon="9.889773724152173"><ele>1748.0</ele><time>2026-05-02T09:09:44.999Z</time></trkpt><trkpt lat="46.49954289826438" lon="9.889621675465118"><ele>1745.5</ele><time>2026-05-02T09:09:45.999Z</time></trkpt><trkpt lat="46.499768784348" lon="9.889490491358407"><ele>1743.0</ele><time>2026-05-02T09:09:46.999Z</time></trkpt><trkpt lat="46.500014728231406" lon="9.889334839658725"><ele>1743.0</ele><time>2026-05-02T09:09:47.999Z</time></trkpt><trkpt lat="46.50027344757772" lon="9.88918159502005"><ele>1743.0</ele><time>2026-05-02T09:09:48.999Z</time></trkpt><trkpt lat="46.500541794266645" lon="9.889015549939156"><ele>1743.0</ele><time>2026-05-02T09:09:49.999Z</time></trkpt><trkpt lat="46.50082760680815" lon="9.888876544385312"><ele>1743.0</ele><time>2026-05-02T09:09:50.999Z</time></trkpt><trkpt lat="46.50109178550408" lon="9.888731942729322"><ele>1743.5</ele><time>2026-05-02T09:09:51.999Z</time></trkpt><trkpt lat="46.501355370294114" lon="9.888576392946078"><ele>1744.0</ele><time>2026-05-02T09:09:52.999Z</time></trkpt><trkpt lat="46.50159205881789" lon="9.888450173492267"><ele>1743.5</ele><time>2026-05-02T09:09:53.999Z</time></trkpt><trkpt lat="46.50181949123927" lon="9.88832893845416"><ele>1743.0</ele><time>2026-05-02T09:09:54.999Z</time></trkpt><trkpt lat="46.502036963694444" lon="9.888208625436008"><ele>1746.0</ele><time>2026-05-02T09:09:55.999Z</time></trkpt><trkpt lat="46.502246516201666" lon="9.888091920732915"><ele>1749.0</ele><time>2026-05-02T09:09:56.999Z</time></trkpt><trkpt lat="46.50245596819699" lon="9.887974610103063"><ele>1752.0</ele><time>2026-05-02T09:09:57.999Z</time></trkpt><trkpt lat="46.50265738330274" lon="9.887870727567755"><ele>1752.0</ele><time>2026-05-02T09:09:58.999Z</time></trkpt><trkpt lat="46.502855567329064" lon="9.887763285043084"><ele>1752.0</ele><time>2026-05-02T09:09:59.999Z</time></trkpt><trkpt lat="46.50306851886135" lon="9.887666218433173"><ele>1752.0</ele><time>2026-05-02T09:10:00.999Z</time></trkpt><trkpt lat="46.50327640717522" lon="9.887504663757674"><ele>1752.6666666666665</ele><time>2026-05-02T09:10:01.999Z</time></trkpt><trkpt lat="46.50342916497986" lon="9.887433485334732"><ele>1753.3333333333333</ele><time>2026-05-02T09:10:02.999Z</time></trkpt><trkpt lat="46.50361134210852" lon="9.88729739013696"><ele>1754.0</ele><time>2026-05-02T09:10:03.999Z</time></trkpt><trkpt lat="46.503788389515165" lon="9.887153310793014"><ele>1752.3333333333333</ele><time>2026-05-02T09:10:04.999Z</time></trkpt><trkpt lat="46.50394640317889" lon="9.88702189571929"><ele>1750.6666666666665</ele><time>2026-05-02T09:10:05.999Z</time></trkpt><trkpt lat="46.50418217683849" lon="9.886866397672064"><ele>1749.0</ele><time>2026-05-02T09:10:06.999Z</time></trkpt><trkpt lat="46.5043910250602" lon="9.886748278218015"><ele>1750.0</ele><time>2026-05-02T09:10:07.999Z</time></trkpt><trkpt lat="46.50461716727703" lon="9.886648289797872"><ele>1751.0</ele><time>2026-05-02T09:10:08.999Z</time></trkpt><trkpt lat="46.504902712196966" lon="9.88646880231548"><ele>1751.0</ele><time>2026-05-02T09:10:09.999Z</time></trkpt><trkpt lat="46.50499853955289" lon="9.88647780583198"><ele>1751.0</ele><time>2026-05-02T09:10:10.999Z</time></trkpt><trkpt lat="46.50520103241751" lon="9.886403147475384"><ele>1751.0</ele><time>2026-05-02T09:10:11.999Z</time></trkpt><trkpt lat="46.50540031435806" lon="9.886339601765693"><ele>1750.6666666666665</ele><time>2026-05-02T09:10:12.999Z</time></trkpt><trkpt lat="46.50559602115046" lon="9.886271809543961"><ele>1750.3333333333335</ele><time>2026-05-02T09:10:13.999Z</time></trkpt><trkpt lat="46.50577647453571" lon="9.886194189527677"><ele>1750.0</ele><time>2026-05-02T09:10:14.998Z</time></trkpt><trkpt lat="46.505950673263605" lon="9.886089644643338"><ele>1750.0</ele><time>2026-05-02T09:10:15.998Z</time></trkpt><trkpt lat="46.506110509962234" lon="9.885955740104736"><ele>1750.0</ele><time>2026-05-02T09:10:16.998Z</time></trkpt><trkpt lat="46.50625384297718" lon="9.885794268958248"><ele>1750.0</ele><time>2026-05-02T09:10:17.998Z</time></trkpt><trkpt lat="46.50641566045776" lon="9.885665938313384"><ele>1748.6666666666667</ele><time>2026-05-02T09:10:19Z</time></trkpt><trkpt lat="46.50653403558321" lon="9.885448599294076"><ele>1747.3333333333335</ele><time>2026-05-02T09:10:20Z</time></trkpt><trkpt lat="46.50666608543817" lon="9.885283175910613"><ele>1746.0</ele><time>2026-05-02T09:10:21Z</time></trkpt><trkpt lat="46.50678851223586" lon="9.885129610153193"><ele>1746.3333333333335</ele><time>2026-05-02T09:10:22Z</time></trkpt><trkpt lat="46.506920542628265" lon="9.884961503252212"><ele>1746.6666666666667</ele><time>2026-05-02T09:10:23Z</time></trkpt><trkpt lat="46.507050723933304" lon="9.884798229159355"><ele>1747.0</ele><time>2026-05-02T09:10:24Z</time></trkpt><trkpt lat="46.50719655417449" lon="9.884627368882093"><ele>1747.0</ele><time>2026-05-02T09:10:25Z</time></trkpt><trkpt lat="46.507336001618945" lon="9.884453357817259"><ele>1747.0</ele><time>2026-05-02T09:10:26Z</time></trkpt><trkpt lat="46.50746954051519" lon="9.884264961234358"><ele>1747.0</ele><time>2026-05-02T09:10:27Z</time></trkpt><trkpt lat="46.507599803168375" lon="9.884085529620165"><ele>1747.6666666666667</ele><time>2026-05-02T09:10:28Z</time></trkpt><trkpt lat="46.507717187910515" lon="9.883904330531516"><ele>1748.3333333333335</ele><time>2026-05-02T09:10:29Z</time></trkpt><trkpt lat="46.50782403073513" lon="9.883718762950721"><ele>1749.0</ele><time>2026-05-02T09:10:30Z</time></trkpt><trkpt lat="46.50792354700437" lon="9.883535730145084"><ele>1747.0</ele><time>2026-05-02T09:10:31Z</time></trkpt><trkpt lat="46.50801453965014" lon="9.883365114553564"><ele>1745.0</ele><time>2026-05-02T09:10:32Z</time></trkpt><trkpt lat="46.50810378977917" lon="9.88319398916388"><ele>1743.0</ele><time>2026-05-02T09:10:33Z</time></trkpt><trkpt lat="46.50817830237509" lon="9.883028740816764"><ele>1741.0</ele><time>2026-05-02T09:10:34Z</time></trkpt><trkpt lat="46.5082469516306" lon="9.882848194846606"><ele>1741.0</ele><time>2026-05-02T09:10:35Z</time></trkpt><trkpt lat="46.50833148659782" lon="9.88267113584833"><ele>1741.0</ele><time>2026-05-02T09:10:36Z</time></trkpt><trkpt lat="46.508413465318235" lon="9.882498629013893"><ele>1741.0</ele><time>2026-05-02T09:10:37Z</time></trkpt><trkpt lat="46.50850013481518" lon="9.882324538772373"><ele>1741.0</ele><time>2026-05-02T09:10:38Z</time></trkpt><trkpt lat="46.50858752992801" lon="9.882145448946426"><ele>1741.0</ele><time>2026-05-02T09:10:39Z</time></trkpt><trkpt lat="46.50867256397194" lon="9.881969764470785"><ele>1741.0</ele><time>2026-05-02T09:10:40Z</time></trkpt><trkpt lat="46.50875716643614" lon="9.88179876733636"><ele>1741.0</ele><time>2026-05-02T09:10:41Z</time></trkpt><trkpt lat="46.50884680388014" lon="9.881622026267616"><ele>1741.0</ele><time>2026-05-02T09:10:42Z</time></trkpt><trkpt lat="46.508939519330205" lon="9.881443960090861"><ele>1738.6666666666667</ele><time>2026-05-02T09:10:43Z</time></trkpt><trkpt lat="46.509042231744516" lon="9.881280648504404"><ele>1736.3333333333335</ele><time>2026-05-02T09:10:44Z</time></trkpt><trkpt lat="46.50915121890279" lon="9.88111779775798"><ele>1734.0</ele><time>2026-05-02T09:10:45Z</time></trkpt><trkpt lat="46.50926230093115" lon="9.880958634706376"><ele>1733.6666666666665</ele><time>2026-05-02T09:10:46Z</time></trkpt><trkpt lat="46.50937408559617" lon="9.880803791141398"><ele>1733.3333333333333</ele><time>2026-05-02T09:10:47Z</time></trkpt><trkpt lat="46.509496060161645" lon="9.880654053419955"><ele>1733.0</ele><time>2026-05-02T09:10:48Z</time></trkpt><trkpt lat="46.50962587052889" lon="9.880508021243694"><ele>1732.3333333333333</ele><time>2026-05-02T09:10:49Z</time></trkpt><trkpt lat="46.50974444601828" lon="9.880373335092623"><ele>1731.6666666666665</ele><time>2026-05-02T09:10:50Z</time></trkpt><trkpt lat="46.50988184310483" lon="9.880247948482774"><ele>1731.0</ele><time>2026-05-02T09:10:51Z</time></trkpt><trkpt lat="46.51001048680184" lon="9.880129174676634"><ele>1730.6666666666665</ele><time>2026-05-02T09:10:52Z</time></trkpt><trkpt lat="46.51013749581515" lon="9.880013141633585"><ele>1730.3333333333333</ele><time>2026-05-02T09:10:53Z</time></trkpt><trkpt lat="46.51026654162882" lon="9.879901519742186"><ele>1730.0</ele><time>2026-05-02T09:10:54Z</time></trkpt><trkpt lat="46.51039547763974" lon="9.87979075897816"><ele>1729.0</ele><time>2026-05-02T09:10:55Z</time></trkpt><trkpt lat="46.51052144614665" lon="9.879687410316874"><ele>1728.0</ele><time>2026-05-02T09:10:56Z</time></trkpt><trkpt lat="46.51065175021803" lon="9.879581212523151"><ele>1727.0</ele><time>2026-05-02T09:10:57Z</time></trkpt><trkpt lat="46.51077571153505" lon="9.87947485571985"><ele>1726.0</ele><time>2026-05-02T09:10:58Z</time></trkpt><trkpt lat="46.51089833877544" lon="9.879366534585689"><ele>1726.1999999999998</ele><time>2026-05-02T09:10:59Z</time></trkpt><trkpt lat="46.51101908357757" lon="9.879266989974944"><ele>1726.3999999999999</ele><time>2026-05-02T09:11:00Z</time></trkpt><trkpt lat="46.51110260158847" lon="9.879174402980603"><ele>1726.6</ele><time>2026-05-02T09:11:01Z</time></trkpt><trkpt lat="46.51118453838645" lon="9.879102088203089"><ele>1726.8</ele><time>2026-05-02T09:11:02Z</time></trkpt><trkpt lat="46.51124779292849" lon="9.879039280435448"><ele>1727.0</ele><time>2026-05-02T09:11:03Z</time></trkpt><trkpt lat="46.51130834320113" lon="9.878994019451197"><ele>1726.9999999999998</ele><time>2026-05-02T09:11:04Z</time></trkpt><trkpt lat="46.511373755633784" lon="9.878964440397109"><ele>1727.0</ele><time>2026-05-02T09:11:05Z</time></trkpt><trkpt lat="46.51147969988041" lon="9.878924094443366"><ele>1727.0</ele><time>2026-05-02T09:11:07Z</time></trkpt><trkpt lat="46.51155117081784" lon="9.878801883484591"><ele>1727.0</ele><time>2026-05-02T09:11:08.999Z</time></trkpt><trkpt lat="46.51154725515501" lon="9.878707559641857"><ele>1726.9999999999998</ele><time>2026-05-02T09:11:09.999Z</time></trkpt><trkpt lat="46.511518040937865" lon="9.878603510156845"><ele>1727.0</ele><time>2026-05-02T09:11:10.999Z</time></trkpt><trkpt lat="46.51147336892516" lon="9.878495175774404"><ele>1727.0</ele><time>2026-05-02T09:11:11.999Z</time></trkpt><trkpt lat="46.51144562217405" lon="9.878370117405865"><ele>1726.9999999999998</ele><time>2026-05-02T09:11:12.999Z</time></trkpt><trkpt lat="46.51144582727755" lon="9.878207844334748"><ele>1726.9999999999998</ele><time>2026-05-02T09:11:13.999Z</time></trkpt><trkpt lat="46.51145990461808" lon="9.878059348838953"><ele>1727.0</ele><time>2026-05-02T09:11:14.999Z</time></trkpt><trkpt lat="46.5114637660767" lon="9.877913350349901"><ele>1727.0</ele><time>2026-05-02T09:11:15.999Z</time></trkpt><trkpt lat="46.51146097980472" lon="9.877732522953629"><ele>1726.5</ele><time>2026-05-02T09:11:16.999Z</time></trkpt><trkpt lat="46.51145042167388" lon="9.877572850703945"><ele>1726.0</ele><time>2026-05-02T09:11:17.999Z</time></trkpt><trkpt lat="46.51145407990503" lon="9.877450887216211"><ele>1725.5</ele><time>2026-05-02T09:11:18.999Z</time></trkpt><trkpt lat="46.51144685742622" lon="9.877260038318497"><ele>1725.0</ele><time>2026-05-02T09:11:19.999Z</time></trkpt><trkpt lat="46.51138120153057" lon="9.876947097221503"><ele>1724.0</ele><time>2026-05-02T09:11:20.999Z</time></trkpt><trkpt lat="46.51137333499244" lon="9.87668308106201"><ele>1723.0</ele><time>2026-05-02T09:11:21.999Z</time></trkpt><trkpt lat="46.511416265853775" lon="9.876430961391328"><ele>1722.0</ele><time>2026-05-02T09:11:22.999Z</time></trkpt><trkpt lat="46.511461644706046" lon="9.876188398874298"><ele>1722.6666666666665</ele><time>2026-05-02T09:11:23.999Z</time></trkpt><trkpt lat="46.511534290338865" lon="9.875926719525973"><ele>1723.3333333333333</ele><time>2026-05-02T09:11:24.999Z</time></trkpt><trkpt lat="46.51160019625803" lon="9.875684803439011"><ele>1724.0</ele><time>2026-05-02T09:11:25.999Z</time></trkpt><trkpt lat="46.5116663588059" lon="9.875442032455991"><ele>1724.0</ele><time>2026-05-02T09:11:26.999Z</time></trkpt><trkpt lat="46.51172606815215" lon="9.875230087507324"><ele>1724.0</ele><time>2026-05-02T09:11:27.999Z</time></trkpt><trkpt lat="46.51179348356996" lon="9.874930441670728"><ele>1724.0</ele><time>2026-05-02T09:11:28.999Z</time></trkpt><trkpt lat="46.51188977845999" lon="9.874580150656541"><ele>1725.0</ele><time>2026-05-02T09:11:29.999Z</time></trkpt><trkpt lat="46.51195991352233" lon="9.874290108623333"><ele>1726.0</ele><time>2026-05-02T09:11:30.999Z</time></trkpt><trkpt lat="46.51201625534732" lon="9.873992333029653"><ele>1727.0</ele><time>2026-05-02T09:11:31.999Z</time></trkpt><trkpt lat="46.512064084055304" lon="9.873688094033861"><ele>1727.3333333333333</ele><time>2026-05-02T09:11:32.999Z</time></trkpt><trkpt lat="46.5120797483944" lon="9.87337273584746"><ele>1727.6666666666665</ele><time>2026-05-02T09:11:33.999Z</time></trkpt><trkpt lat="46.51206745918864" lon="9.873051378669567"><ele>1728.0</ele><time>2026-05-02T09:11:34.999Z</time></trkpt><trkpt lat="46.5120424710486" lon="9.87272142152792"><ele>1727.0</ele><time>2026-05-02T09:11:35.999Z</time></trkpt><trkpt lat="46.511992703849536" lon="9.872406737565386"><ele>1726.0</ele><time>2026-05-02T09:11:36.999Z</time></trkpt><trkpt lat="46.511927696020905" lon="9.872088435279213"><ele>1724.0</ele><time>2026-05-02T09:11:37.999Z</time></trkpt><trkpt lat="46.51184324481931" lon="9.871771294908331"><ele>1722.0</ele><time>2026-05-02T09:11:38.999Z</time></trkpt><trkpt lat="46.51175474067343" lon="9.871459161465578"><ele>1722.0</ele><time>2026-05-02T09:11:39.999Z</time></trkpt><trkpt lat="46.511657236836314" lon="9.871146089356555"><ele>1722.0</ele><time>2026-05-02T09:11:40.999Z</time></trkpt><trkpt lat="46.51156220794435" lon="9.870833573795283"><ele>1720.0</ele><time>2026-05-02T09:11:41.999Z</time></trkpt><trkpt lat="46.51147405662144" lon="9.870515076835334"><ele>1718.0</ele><time>2026-05-02T09:11:42.999Z</time></trkpt><trkpt lat="46.51138422344147" lon="9.870191511999577"><ele>1717.5</ele><time>2026-05-02T09:11:43.999Z</time></trkpt><trkpt lat="46.51129931298033" lon="9.869881271149826"><ele>1717.0</ele><time>2026-05-02T09:11:44.999Z</time></trkpt><trkpt lat="46.511206857532905" lon="9.869566871344285"><ele>1716.5</ele><time>2026-05-02T09:11:45.999Z</time></trkpt><trkpt lat="46.51112358247961" lon="9.869247030366285"><ele>1716.0</ele><time>2026-05-02T09:11:46.999Z</time></trkpt><trkpt lat="46.51103761683656" lon="9.86891741160679"><ele>1716.0</ele><time>2026-05-02T09:11:47.999Z</time></trkpt><trkpt lat="46.510955841413804" lon="9.868595153696017"><ele>1716.0</ele><time>2026-05-02T09:11:48.999Z</time></trkpt><trkpt lat="46.51087641159419" lon="9.86827318724898"><ele>1715.0</ele><time>2026-05-02T09:11:49.999Z</time></trkpt><trkpt lat="46.51079801515924" lon="9.867953460809483"><ele>1714.0</ele><time>2026-05-02T09:11:50.999Z</time></trkpt><trkpt lat="46.51072804482805" lon="9.867643448200234"><ele>1714.3333333333335</ele><time>2026-05-02T09:11:51.999Z</time></trkpt><trkpt lat="46.51065698004686" lon="9.867338739380807"><ele>1714.6666666666665</ele><time>2026-05-02T09:11:52.999Z</time></trkpt><trkpt lat="46.51058634701793" lon="9.867034841701555"><ele>1715.0</ele><time>2026-05-02T09:11:53.999Z</time></trkpt><trkpt lat="46.510515671346475" lon="9.866732248994223"><ele>1715.3333333333333</ele><time>2026-05-02T09:11:54.999Z</time></trkpt><trkpt lat="46.510450209328425" lon="9.866422555449157"><ele>1715.6666666666665</ele><time>2026-05-02T09:11:55.999Z</time></trkpt><trkpt lat="46.510389892848245" lon="9.86612097017457"><ele>1716.0</ele><time>2026-05-02T09:11:56.999Z</time></trkpt><trkpt lat="46.51032420534613" lon="9.865812338113331"><ele>1716.3333333333335</ele><time>2026-05-02T09:11:57.999Z</time></trkpt><trkpt lat="46.510261559709406" lon="9.865510194670907"><ele>1716.6666666666667</ele><time>2026-05-02T09:11:58.999Z</time></trkpt><trkpt lat="46.51019561496773" lon="9.865212052584727"><ele>1717.0</ele><time>2026-05-02T09:11:59.999Z</time></trkpt><trkpt lat="46.51013274996731" lon="9.864910917712423"><ele>1717.0</ele><time>2026-05-02T09:12:00.999Z</time></trkpt><trkpt lat="46.51007632982641" lon="9.864605774556557"><ele>1717.0</ele><time>2026-05-02T09:12:01.999Z</time></trkpt><trkpt lat="46.51002101493468" lon="9.864299729181173"><ele>1717.0</ele><time>2026-05-02T09:12:02.999Z</time></trkpt><trkpt lat="46.50996478598279" lon="9.863999884485581"><ele>1716.6666666666667</ele><time>2026-05-02T09:12:03.999Z</time></trkpt><trkpt lat="46.509901018185225" lon="9.863706093555962"><ele>1716.3333333333335</ele><time>2026-05-02T09:12:04.999Z</time></trkpt><trkpt lat="46.50985825729332" lon="9.863465533686796"><ele>1716.0</ele><time>2026-05-02T09:12:05.999Z</time></trkpt><trkpt lat="46.50984016792658" lon="9.863274239083868"><ele>1715.5</ele><time>2026-05-02T09:12:06.999Z</time></trkpt><trkpt lat="46.509751823595494" lon="9.862928469662283"><ele>1715.0</ele><time>2026-05-02T09:12:07.999Z</time></trkpt><trkpt lat="46.50963752457631" lon="9.862628247186597"><ele>1716.0</ele><time>2026-05-02T09:12:08.999Z</time></trkpt><trkpt lat="46.50949306478266" lon="9.862287354479616"><ele>1717.0</ele><time>2026-05-02T09:12:09.999Z</time></trkpt><trkpt lat="46.50939473023522" lon="9.861996956998187"><ele>1717.5</ele><time>2026-05-02T09:12:10.999Z</time></trkpt><trkpt lat="46.50928859200634" lon="9.861709292105806"><ele>1718.0</ele><time>2026-05-02T09:12:11.999Z</time></trkpt><trkpt lat="46.50917206286673" lon="9.861420387333212"><ele>1718.0</ele><time>2026-05-02T09:12:12.999Z</time></trkpt><trkpt lat="46.50904869299983" lon="9.8611284292339"><ele>1718.0</ele><time>2026-05-02T09:12:13.999Z</time></trkpt><trkpt lat="46.50891888534846" lon="9.860840621977633"><ele>1717.5</ele><time>2026-05-02T09:12:14.999Z</time></trkpt><trkpt lat="46.50878023261885" lon="9.860557839180466"><ele>1717.0</ele><time>2026-05-02T09:12:15.999Z</time></trkpt><trkpt lat="46.50863342913897" lon="9.860283322615214"><ele>1716.0</ele><time>2026-05-02T09:12:16.999Z</time></trkpt><trkpt lat="46.508476016774324" lon="9.860014895340543"><ele>1715.0</ele><time>2026-05-02T09:12:17.999Z</time></trkpt><trkpt lat="46.50831272827777" lon="9.859752899660936"><ele>1715.0</ele><time>2026-05-02T09:12:18.998Z</time></trkpt><trkpt lat="46.508142992772264" lon="9.85948987649956"><ele>1715.0</ele><time>2026-05-02T09:12:19.998Z</time></trkpt><trkpt lat="46.507955266120746" lon="9.859239285607384"><ele>1715.5</ele><time>2026-05-02T09:12:20.998Z</time></trkpt><trkpt lat="46.50776269632838" lon="9.858985537038942"><ele>1716.0</ele><time>2026-05-02T09:12:21.998Z</time></trkpt><trkpt lat="46.50756500956043" lon="9.858743115892977"><ele>1716.0</ele><time>2026-05-02T09:12:22.998Z</time></trkpt><trkpt lat="46.507366010484574" lon="9.85850925345295"><ele>1716.0</ele><time>2026-05-02T09:12:23.998Z</time></trkpt><trkpt lat="46.50716286548465" lon="9.858290860862363"><ele>1716.0</ele><time>2026-05-02T09:12:25Z</time></trkpt><trkpt lat="46.50696046921367" lon="9.858076621924251"><ele>1716.0</ele><time>2026-05-02T09:12:26Z</time></trkpt><trkpt lat="46.506748956975436" lon="9.857869712502238"><ele>1716.0</ele><time>2026-05-02T09:12:27Z</time></trkpt><trkpt lat="46.50653992272432" lon="9.85766973794651"><ele>1716.0</ele><time>2026-05-02T09:12:28Z</time></trkpt><trkpt lat="46.506336074439616" lon="9.857471115519306"><ele>1718.5</ele><time>2026-05-02T09:12:29Z</time></trkpt><trkpt lat="46.50612995412734" lon="9.857284581285393"><ele>1721.0</ele><time>2026-05-02T09:12:30Z</time></trkpt><trkpt lat="46.505924562135384" lon="9.857086940566983"><ele>1721.0</ele><time>2026-05-02T09:12:31Z</time></trkpt><trkpt lat="46.50571950595713" lon="9.856892518316831"><ele>1721.0</ele><time>2026-05-02T09:12:32Z</time></trkpt><trkpt lat="46.505522686459464" lon="9.856707180821932"><ele>1728.5</ele><time>2026-05-02T09:12:33Z</time></trkpt><trkpt lat="46.50530708448263" lon="9.856523148583152"><ele>1736.0</ele><time>2026-05-02T09:12:34Z</time></trkpt><trkpt lat="46.50511503318081" lon="9.856344368849838"><ele>1736.0</ele><time>2026-05-02T09:12:35Z</time></trkpt><trkpt lat="46.504919678583455" lon="9.856144185610143"><ele>1736.0</ele><time>2026-05-02T09:12:36Z</time></trkpt><trkpt lat="46.50471808344186" lon="9.855945789896948"><ele>1748.5</ele><time>2026-05-02T09:12:37Z</time></trkpt><trkpt lat="46.5045236692245" lon="9.855754500566519"><ele>1761.0</ele><time>2026-05-02T09:12:38Z</time></trkpt><trkpt lat="46.50432224505135" lon="9.85556667262849"><ele>1761.0</ele><time>2026-05-02T09:12:39Z</time></trkpt><trkpt lat="46.50411290488896" lon="9.855351740536419"><ele>1761.0</ele><time>2026-05-02T09:12:40Z</time></trkpt><trkpt lat="46.503908975800016" lon="9.855153077160022"><ele>1763.5</ele><time>2026-05-02T09:12:41Z</time></trkpt><trkpt lat="46.50370483417228" lon="9.854950343602752"><ele>1766.0</ele><time>2026-05-02T09:12:42Z</time></trkpt><trkpt lat="46.503498758654025" lon="9.854756118166666"><ele>1766.0</ele><time>2026-05-02T09:12:43Z</time></trkpt><trkpt lat="46.50329473603888" lon="9.854569972636703"><ele>1766.0</ele><time>2026-05-02T09:12:44Z</time></trkpt><trkpt lat="46.50309494912199" lon="9.854361982357718"><ele>1771.0</ele><time>2026-05-02T09:12:45Z</time></trkpt><trkpt lat="46.50289321436112" lon="9.854162689132634"><ele>1776.0</ele><time>2026-05-02T09:12:46Z</time></trkpt><trkpt lat="46.50269948309169" lon="9.853976343135717"><ele>1776.0</ele><time>2026-05-02T09:12:47Z</time></trkpt><trkpt lat="46.50251735503079" lon="9.853797690362711"><ele>1776.0</ele><time>2026-05-02T09:12:48Z</time></trkpt><trkpt lat="46.50233305513994" lon="9.853611066029474"><ele>1776.0</ele><time>2026-05-02T09:12:49Z</time></trkpt><trkpt lat="46.502141952847886" lon="9.85343258030994"><ele>1772.5</ele><time>2026-05-02T09:12:50Z</time></trkpt><trkpt lat="46.5019443266656" lon="9.853252592476942"><ele>1769.0</ele><time>2026-05-02T09:12:51Z</time></trkpt><trkpt lat="46.50174063453768" lon="9.853078191397085"><ele>1769.0</ele><time>2026-05-02T09:12:52Z</time></trkpt><trkpt lat="46.50153936761924" lon="9.852882956092422"><ele>1769.0</ele><time>2026-05-02T09:12:53Z</time></trkpt><trkpt lat="46.50133424537346" lon="9.852679795975087"><ele>1769.5</ele><time>2026-05-02T09:12:54Z</time></trkpt><trkpt lat="46.50113217985393" lon="9.852485322036625"><ele>1770.0</ele><time>2026-05-02T09:12:55Z</time></trkpt><trkpt lat="46.50092377927269" lon="9.852297284047744"><ele>1770.0</ele><time>2026-05-02T09:12:56Z</time></trkpt><trkpt lat="46.500732635187155" lon="9.852036815887955"><ele>1770.0</ele><time>2026-05-02T09:12:57Z</time></trkpt><trkpt lat="46.50055783643277" lon="9.851766386610644"><ele>1772.0</ele><time>2026-05-02T09:12:58Z</time></trkpt><trkpt lat="46.50037757276544" lon="9.851533266903475"><ele>1774.0</ele><time>2026-05-02T09:12:59Z</time></trkpt><trkpt lat="46.50020212670656" lon="9.851300439489513"><ele>1774.0</ele><time>2026-05-02T09:13:00Z</time></trkpt><trkpt lat="46.5000731155196" lon="9.85109489681664"><ele>1774.0</ele><time>2026-05-02T09:13:01Z</time></trkpt><trkpt lat="46.499938157375276" lon="9.850787778728968"><ele>1774.0</ele><time>2026-05-02T09:13:02Z</time></trkpt><trkpt lat="46.4997720229627" lon="9.850548204831453"><ele>1770.5</ele><time>2026-05-02T09:13:03Z</time></trkpt><trkpt lat="46.49961635442783" lon="9.850302891117154"><ele>1767.0</ele><time>2026-05-02T09:13:04Z</time></trkpt><trkpt lat="46.499457470323144" lon="9.850053862337239"><ele>1767.0</ele><time>2026-05-02T09:13:05Z</time></trkpt><trkpt lat="46.4992982191192" lon="9.849823949617749"><ele>1767.0</ele><time>2026-05-02T09:13:05.999Z</time></trkpt><trkpt lat="46.49912643546275" lon="9.849576928447783"><ele>1767.0</ele><time>2026-05-02T09:13:06.999Z</time></trkpt><trkpt lat="46.4989558584963" lon="9.84933172298648"><ele>1767.0</ele><time>2026-05-02T09:13:07.999Z</time></trkpt><trkpt lat="46.498787912486215" lon="9.849085136665503"><ele>1772.5</ele><time>2026-05-02T09:13:08.999Z</time></trkpt><trkpt lat="46.49862372792131" lon="9.848822838836227"><ele>1778.0</ele><time>2026-05-02T09:13:09.999Z</time></trkpt><trkpt lat="46.49846837319152" lon="9.848588309925534"><ele>1776.3333333333333</ele><time>2026-05-02T09:13:10.999Z</time></trkpt><trkpt lat="46.49832728441661" lon="9.848369508644533"><ele>1774.6666666666665</ele><time>2026-05-02T09:13:11.999Z</time></trkpt><trkpt lat="46.4981949892347" lon="9.848167052359123"><ele>1773.0</ele><time>2026-05-02T09:13:12.999Z</time></trkpt><trkpt lat="46.4981053023753" lon="9.848029512230758"><ele>1773.0</ele><time>2026-05-02T09:13:13.999Z</time></trkpt><trkpt lat="46.49803588548542" lon="9.847868205424918"><ele>1773.0000000000002</ele><time>2026-05-02T09:13:14.999Z</time></trkpt><trkpt lat="46.49796825708725" lon="9.847742712259825"><ele>1773.0000000000002</ele><time>2026-05-02T09:13:15.999Z</time></trkpt><trkpt lat="46.4979161530044" lon="9.847636017030624"><ele>1773.0</ele><time>2026-05-02T09:13:16.999Z</time></trkpt><trkpt lat="46.49787751031014" lon="9.847546839688434"><ele>1773.0</ele><time>2026-05-02T09:13:17.999Z</time></trkpt><trkpt lat="46.49784950887001" lon="9.847452871452836"><ele>1772.857142857143</ele><time>2026-05-02T09:13:18.999Z</time></trkpt><trkpt lat="46.497815166552485" lon="9.847366382316567"><ele>1772.7142857142856</ele><time>2026-05-02T09:13:19.999Z</time></trkpt><trkpt lat="46.49775221957435" lon="9.847290232505438"><ele>1772.5714285714284</ele><time>2026-05-02T09:13:20.999Z</time></trkpt><trkpt lat="46.49769945930106" lon="9.847216960108023"><ele>1772.4285714285716</ele><time>2026-05-02T09:13:21.999Z</time></trkpt><trkpt lat="46.497664642836675" lon="9.847130133611497"><ele>1772.2857142857142</ele><time>2026-05-02T09:13:22.999Z</time></trkpt><trkpt lat="46.49763920531446" lon="9.847045983685675"><ele>1772.142857142857</ele><time>2026-05-02T09:13:23.999Z</time></trkpt><trkpt lat="46.49759597211172" lon="9.846932999169487"><ele>1772.0</ele><time>2026-05-02T09:13:25.999Z</time></trkpt><trkpt lat="46.497559877605205" lon="9.846844175029737"><ele>1772.3999999999999</ele><time>2026-05-02T09:13:27.999Z</time></trkpt><trkpt lat="46.497532803463876" lon="9.846745532546189"><ele>1772.7999999999997</ele><time>2026-05-02T09:13:30.999Z</time></trkpt><trkpt lat="46.49750751334697" lon="9.846632620903879"><ele>1773.2</ele><time>2026-05-02T09:13:43.999Z</time></trkpt><trkpt lat="46.49743879010269" lon="9.846457098182881"><ele>1773.6</ele><time>2026-05-02T09:13:45.999Z</time></trkpt><trkpt lat="46.497403411161585" lon="9.846344061766509"><ele>1774.0</ele><time>2026-05-02T09:13:46.999Z</time></trkpt><trkpt lat="46.49736142278839" lon="9.846229062922216"><ele>1774.0</ele><time>2026-05-02T09:13:47.999Z</time></trkpt><trkpt lat="46.49732947158957" lon="9.846098705955576"><ele>1774.0</ele><time>2026-05-02T09:13:48.999Z</time></trkpt><trkpt lat="46.49729108330814" lon="9.845977957104449"><ele>1774.0</ele><time>2026-05-02T09:13:49.999Z</time></trkpt><trkpt lat="46.49725575347763" lon="9.845847908883657"><ele>1774.0</ele><time>2026-05-02T09:13:50.999Z</time></trkpt><trkpt lat="46.49722076844333" lon="9.845713280737906"><ele>1774.0</ele><time>2026-05-02T09:13:51.999Z</time></trkpt><trkpt lat="46.49718841979275" lon="9.845565655222321"><ele>1774.2</ele><time>2026-05-02T09:13:52.999Z</time></trkpt><trkpt lat="46.497160035526655" lon="9.845428733232264"><ele>1774.4</ele><time>2026-05-02T09:13:53.999Z</time></trkpt><trkpt lat="46.497126202404" lon="9.845291500594637"><ele>1774.6</ele><time>2026-05-02T09:13:54.999Z</time></trkpt><trkpt lat="46.497096086913" lon="9.845157375931826"><ele>1774.8</ele><time>2026-05-02T09:13:55.999Z</time></trkpt><trkpt lat="46.497069469062644" lon="9.84501810038314"><ele>1775.0</ele><time>2026-05-02T09:13:56.999Z</time></trkpt><trkpt lat="46.497034596735624" lon="9.84486920002187"><ele>1774.4</ele><time>2026-05-02T09:13:57.999Z</time></trkpt><trkpt lat="46.49699674143553" lon="9.844716379499333"><ele>1773.8</ele><time>2026-05-02T09:13:58.999Z</time></trkpt><trkpt lat="46.4969605046561" lon="9.8445662583419"><ele>1773.1999999999998</ele><time>2026-05-02T09:13:59.999Z</time></trkpt><trkpt lat="46.496931770099735" lon="9.844434214958728"><ele>1772.6</ele><time>2026-05-02T09:14:00.999Z</time></trkpt><trkpt lat="46.4969034171812" lon="9.844326093520628"><ele>1772.0</ele><time>2026-05-02T09:14:01.999Z</time></trkpt><trkpt lat="46.49688396482952" lon="9.844219726373264"><ele>1771.9999999999998</ele><time>2026-05-02T09:14:02.999Z</time></trkpt><trkpt lat="46.49686833638756" lon="9.844124948864973"><ele>1772.0</ele><time>2026-05-02T09:14:03.999Z</time></trkpt><trkpt lat="46.4968846203443" lon="9.843933989342133"><ele>1772.0</ele><time>2026-05-02T09:14:05.999Z</time></trkpt><trkpt lat="46.49687982706327" lon="9.843837774715272"><ele>1772.0</ele><time>2026-05-02T09:14:06.999Z</time></trkpt><trkpt lat="46.49684151241598" lon="9.843744278971853"><ele>1771.9999999999998</ele><time>2026-05-02T09:14:07.999Z</time></trkpt><trkpt lat="46.49678968950564" lon="9.843660903857096"><ele>1772.0</ele><time>2026-05-02T09:14:08.999Z</time></trkpt><trkpt lat="46.49674049530131" lon="9.843568731358253"><ele>1771.9999999999998</ele><time>2026-05-02T09:14:09.999Z</time></trkpt><trkpt lat="46.496702330187155" lon="9.84346419893416"><ele>1772.0</ele><time>2026-05-02T09:14:10.999Z</time></trkpt><trkpt lat="46.496670884541565" lon="9.8433426250902"><ele>1772.0</ele><time>2026-05-02T09:14:11.999Z</time></trkpt><trkpt lat="46.49664636149309" lon="9.843217155090732"><ele>1772.0</ele><time>2026-05-02T09:14:12.999Z</time></trkpt><trkpt lat="46.49662110425173" lon="9.843084537467208"><ele>1771.9999999999998</ele><time>2026-05-02T09:14:13.999Z</time></trkpt><trkpt lat="46.49659507778336" lon="9.842953662170057"><ele>1772.0</ele><time>2026-05-02T09:14:14.999Z</time></trkpt><trkpt lat="46.4965642971405" lon="9.842818948449846"><ele>1772.8</ele><time>2026-05-02T09:14:15.999Z</time></trkpt><trkpt lat="46.49653501413601" lon="9.842689351904724"><ele>1773.6</ele><time>2026-05-02T09:14:16.999Z</time></trkpt><trkpt lat="46.496502077225344" lon="9.84256025677083"><ele>1774.3999999999999</ele><time>2026-05-02T09:14:17.999Z</time></trkpt><trkpt lat="46.49647114231137" lon="9.84243368563018"><ele>1775.1999999999998</ele><time>2026-05-02T09:14:18.999Z</time></trkpt><trkpt lat="46.4964368122079" lon="9.842311167001938"><ele>1776.0</ele><time>2026-05-02T09:14:19.998Z</time></trkpt><trkpt lat="46.49640780177052" lon="9.842204915958407"><ele>1774.8</ele><time>2026-05-02T09:14:20.998Z</time></trkpt><trkpt lat="46.49637059193048" lon="9.842096846117753"><ele>1773.6</ele><time>2026-05-02T09:14:21.998Z</time></trkpt><trkpt lat="46.49632950997769" lon="9.84197833529587"><ele>1772.4</ele><time>2026-05-02T09:14:22.998Z</time></trkpt><trkpt lat="46.496288822734485" lon="9.841865078863803"><ele>1771.2</ele><time>2026-05-02T09:14:23.998Z</time></trkpt><trkpt lat="46.4962383388476" lon="9.841733109765828"><ele>1770.0</ele><time>2026-05-02T09:14:24.998Z</time></trkpt><trkpt lat="46.49618863064366" lon="9.84160739187674"><ele>1770.0</ele><time>2026-05-02T09:14:25.998Z</time></trkpt><trkpt lat="46.4961329010855" lon="9.841488237486262"><ele>1770.0</ele><time>2026-05-02T09:14:26.998Z</time></trkpt><trkpt lat="46.496072836165986" lon="9.841373180296815"><ele>1770.0</ele><time>2026-05-02T09:14:27.998Z</time></trkpt><trkpt lat="46.49601362419315" lon="9.841261338460198"><ele>1770.0</ele><time>2026-05-02T09:14:28.998Z</time></trkpt><trkpt lat="46.495949308007816" lon="9.841151529331903"><ele>1770.0</ele><time>2026-05-02T09:14:29.998Z</time></trkpt><trkpt lat="46.495878089267435" lon="9.841044521708412"><ele>1771.6</ele><time>2026-05-02T09:14:31Z</time></trkpt><trkpt lat="46.49581144302333" lon="9.840940021598154"><ele>1773.2</ele><time>2026-05-02T09:14:32Z</time></trkpt><trkpt lat="46.49574208074014" lon="9.840838822176256"><ele>1774.8000000000002</ele><time>2026-05-02T09:14:33Z</time></trkpt><trkpt lat="46.4956755757126" lon="9.840736362488808"><ele>1776.4</ele><time>2026-05-02T09:14:34Z</time></trkpt><trkpt lat="46.49560798569547" lon="9.840635817240049"><ele>1778.0</ele><time>2026-05-02T09:14:35Z</time></trkpt><trkpt lat="46.495535067782974" lon="9.840538758323659"><ele>1778.0</ele><time>2026-05-02T09:14:36Z</time></trkpt><trkpt lat="46.49546374642024" lon="9.840439687468509"><ele>1778.0000000000002</ele><time>2026-05-02T09:14:37Z</time></trkpt><trkpt lat="46.4953901154164" lon="9.840342503017618"><ele>1778.0000000000002</ele><time>2026-05-02T09:14:38Z</time></trkpt><trkpt lat="46.49531587861524" lon="9.840242722980198"><ele>1778.0</ele><time>2026-05-02T09:14:39Z</time></trkpt><trkpt lat="46.4952441347135" lon="9.840146679823242"><ele>1778.0</ele><time>2026-05-02T09:14:40Z</time></trkpt><trkpt lat="46.4951658238142" lon="9.840039478806904"><ele>1777.2</ele><time>2026-05-02T09:14:41Z</time></trkpt><trkpt lat="46.495099172678" lon="9.839932248816071"><ele>1776.4</ele><time>2026-05-02T09:14:42Z</time></trkpt><trkpt lat="46.495030515139426" lon="9.839824075504904"><ele>1775.6000000000001</ele><time>2026-05-02T09:14:43Z</time></trkpt><trkpt lat="46.49496199421226" lon="9.839713266513117"><ele>1774.8000000000002</ele><time>2026-05-02T09:14:44Z</time></trkpt><trkpt lat="46.494891130541625" lon="9.839596674131663"><ele>1774.0</ele><time>2026-05-02T09:14:45Z</time></trkpt><trkpt lat="46.494818548938284" lon="9.839476560892113"><ele>1774.0</ele><time>2026-05-02T09:14:46Z</time></trkpt><trkpt lat="46.49475454360981" lon="9.839355086867585"><ele>1774.0</ele><time>2026-05-02T09:14:47Z</time></trkpt><trkpt lat="46.49468202429004" lon="9.839223552071763"><ele>1774.0</ele><time>2026-05-02T09:14:48Z</time></trkpt><trkpt lat="46.49462052737827" lon="9.83908906962783"><ele>1774.0</ele><time>2026-05-02T09:14:49Z</time></trkpt><trkpt lat="46.49457052298051" lon="9.8389743474291"><ele>1774.0</ele><time>2026-05-02T09:14:50Z</time></trkpt><trkpt lat="46.494525043483925" lon="9.83886181132038"><ele>1774.1666666666667</ele><time>2026-05-02T09:14:51Z</time></trkpt><trkpt lat="46.494481536813225" lon="9.838758849059742"><ele>1774.3333333333335</ele><time>2026-05-02T09:14:52Z</time></trkpt><trkpt lat="46.494438921376606" lon="9.838651732274634"><ele>1774.5</ele><time>2026-05-02T09:14:53Z</time></trkpt><trkpt lat="46.494398987501235" lon="9.838548562568961"><ele>1774.6666666666665</ele><time>2026-05-02T09:14:54Z</time></trkpt><trkpt lat="46.49436478402627" lon="9.838442077337143"><ele>1774.8333333333333</ele><time>2026-05-02T09:14:55Z</time></trkpt><trkpt lat="46.49432063304538" lon="9.838328255706354"><ele>1775.0</ele><time>2026-05-02T09:14:56Z</time></trkpt><trkpt lat="46.494282276484476" lon="9.83822525901652"><ele>1774.9999999999998</ele><time>2026-05-02T09:14:57Z</time></trkpt><trkpt lat="46.49424878982704" lon="9.838110341236325"><ele>1775.0</ele><time>2026-05-02T09:14:58Z</time></trkpt><trkpt lat="46.49421478659883" lon="9.83799535366033"><ele>1775.0</ele><time>2026-05-02T09:14:59Z</time></trkpt><trkpt lat="46.49418712893019" lon="9.837887608255372"><ele>1775.0</ele><time>2026-05-02T09:15:00Z</time></trkpt><trkpt lat="46.494157997363814" lon="9.83777428904217"><ele>1774.9999999999998</ele><time>2026-05-02T09:15:01Z</time></trkpt><trkpt lat="46.49412997051154" lon="9.837664807701481"><ele>1775.0</ele><time>2026-05-02T09:15:02Z</time></trkpt><trkpt lat="46.49410098766279" lon="9.83755543017829"><ele>1776.0</ele><time>2026-05-02T09:15:03Z</time></trkpt><trkpt lat="46.494053670660904" lon="9.83742685499944"><ele>1777.0</ele><time>2026-05-02T09:15:04Z</time></trkpt><trkpt lat="46.49398498653329" lon="9.837289746001186"><ele>1778.0</ele><time>2026-05-02T09:15:05Z</time></trkpt><trkpt lat="46.49390251735623" lon="9.83714638241029"><ele>1779.0</ele><time>2026-05-02T09:15:06Z</time></trkpt><trkpt lat="46.49383408278386" lon="9.837019042054848"><ele>1779.0</ele><time>2026-05-02T09:15:07Z</time></trkpt><trkpt lat="46.49375753404532" lon="9.836892325608108"><ele>1779.0</ele><time>2026-05-02T09:15:08Z</time></trkpt><trkpt lat="46.49367823664625" lon="9.83676679834814"><ele>1779.0</ele><time>2026-05-02T09:15:09Z</time></trkpt><trkpt lat="46.49359996072495" lon="9.836651003238131"><ele>1779.0</ele><time>2026-05-02T09:15:10Z</time></trkpt><trkpt lat="46.4935159097727" lon="9.836541439412542"><ele>1777.6666666666665</ele><time>2026-05-02T09:15:11Z</time></trkpt><trkpt lat="46.49341791835106" lon="9.836429829490717"><ele>1776.3333333333333</ele><time>2026-05-02T09:15:12Z</time></trkpt><trkpt lat="46.49328881799748" lon="9.836320332750375"><ele>1775.0</ele><time>2026-05-02T09:15:13Z</time></trkpt><trkpt lat="46.49314019066845" lon="9.836156029679053"><ele>1775.0</ele><time>2026-05-02T09:15:14Z</time></trkpt><trkpt lat="46.49305042726168" lon="9.836029145952164"><ele>1775.0</ele><time>2026-05-02T09:15:15.999Z</time></trkpt><trkpt lat="46.49292689614582" lon="9.835949251117224"><ele>1775.0</ele><time>2026-05-02T09:15:16.999Z</time></trkpt><trkpt lat="46.492806871573315" lon="9.835882519905372"><ele>1775.0</ele><time>2026-05-02T09:15:17.999Z</time></trkpt><trkpt lat="46.49267769075666" lon="9.835814431282223"><ele>1775.25</ele><time>2026-05-02T09:15:18.999Z</time></trkpt><trkpt lat="46.492541833832924" lon="9.835760130236642"><ele>1775.5</ele><time>2026-05-02T09:15:19.999Z</time></trkpt><trkpt lat="46.49240199467568" lon="9.835698357140387"><ele>1775.75</ele><time>2026-05-02T09:15:20.999Z</time></trkpt><trkpt lat="46.49225614988598" lon="9.835658760961419"><ele>1776.0</ele><time>2026-05-02T09:15:21.999Z</time></trkpt><trkpt lat="46.492110650784326" lon="9.835632848637369"><ele>1775.25</ele><time>2026-05-02T09:15:22.999Z</time></trkpt><trkpt lat="46.491972487897065" lon="9.835610185300434"><ele>1774.5</ele><time>2026-05-02T09:15:23.999Z</time></trkpt><trkpt lat="46.49183376019604" lon="9.835595422689307"><ele>1773.75</ele><time>2026-05-02T09:15:24.999Z</time></trkpt><trkpt lat="46.491691117305166" lon="9.835588211334914"><ele>1773.0</ele><time>2026-05-02T09:15:25.999Z</time></trkpt><trkpt lat="46.49155748882358" lon="9.835581435628079"><ele>1773.0</ele><time>2026-05-02T09:15:26.999Z</time></trkpt><trkpt lat="46.49141746512953" lon="9.835571327190133"><ele>1773.0</ele><time>2026-05-02T09:15:27.999Z</time></trkpt><trkpt lat="46.49128624256308" lon="9.835554729072685"><ele>1773.0</ele><time>2026-05-02T09:15:28.999Z</time></trkpt><trkpt lat="46.49115456109578" lon="9.835532305359642"><ele>1773.0</ele><time>2026-05-02T09:15:29.999Z</time></trkpt><trkpt lat="46.491024119300754" lon="9.835509866510629"><ele>1772.75</ele><time>2026-05-02T09:15:30.999Z</time></trkpt><trkpt lat="46.49090171146792" lon="9.835481304249809"><ele>1772.5</ele><time>2026-05-02T09:15:31.999Z</time></trkpt><trkpt lat="46.490776306383225" lon="9.835459878154891"><ele>1772.25</ele><time>2026-05-02T09:15:32.999Z</time></trkpt><trkpt lat="46.490654905156674" lon="9.835437702921496"><ele>1772.0</ele><time>2026-05-02T09:15:33.999Z</time></trkpt><trkpt lat="46.49052883648211" lon="9.835423596329747"><ele>1772.5</ele><time>2026-05-02T09:15:34.999Z</time></trkpt><trkpt lat="46.49040561604988" lon="9.83540159331481"><ele>1773.0</ele><time>2026-05-02T09:15:35.999Z</time></trkpt><trkpt lat="46.490282920879025" lon="9.83537531409863"><ele>1773.5</ele><time>2026-05-02T09:15:36.999Z</time></trkpt><trkpt lat="46.49015908660366" lon="9.835352667478304"><ele>1774.0</ele><time>2026-05-02T09:15:37.999Z</time></trkpt><trkpt lat="46.49003698621787" lon="9.835358957038721"><ele>1774.0</ele><time>2026-05-02T09:15:38.999Z</time></trkpt><trkpt lat="46.489910270243115" lon="9.835383628824628"><ele>1774.0</ele><time>2026-05-02T09:15:39.999Z</time></trkpt><trkpt lat="46.48978232385615" lon="9.835432336968255"><ele>1774.0</ele><time>2026-05-02T09:15:40.999Z</time></trkpt><trkpt lat="46.489662585382035" lon="9.835496642631691"><ele>1774.0</ele><time>2026-05-02T09:15:41.999Z</time></trkpt><trkpt lat="46.48954388211133" lon="9.835566004271204"><ele>1774.5</ele><time>2026-05-02T09:15:42.999Z</time></trkpt><trkpt lat="46.489421999026334" lon="9.835622005515145"><ele>1775.0</ele><time>2026-05-02T09:15:43.999Z</time></trkpt><trkpt lat="46.489311563183556" lon="9.835717006500449"><ele>1775.5</ele><time>2026-05-02T09:15:44.999Z</time></trkpt><trkpt lat="46.48921393503313" lon="9.835833297189033"><ele>1776.0</ele><time>2026-05-02T09:15:45.999Z</time></trkpt><trkpt lat="46.489099147140166" lon="9.835926503423138"><ele>1775.5</ele><time>2026-05-02T09:15:46.999Z</time></trkpt><trkpt lat="46.48898627307082" lon="9.836015511907483"><ele>1775.0</ele><time>2026-05-02T09:15:47.999Z</time></trkpt><trkpt lat="46.488878468386275" lon="9.83609359598153"><ele>1774.5</ele><time>2026-05-02T09:15:48.999Z</time></trkpt><trkpt lat="46.48876747940789" lon="9.836162702505463"><ele>1774.0</ele><time>2026-05-02T09:15:49.999Z</time></trkpt><trkpt lat="46.48866430842889" lon="9.836206920234453"><ele>1774.0000000000002</ele><time>2026-05-02T09:15:50.999Z</time></trkpt><trkpt lat="46.4885731313038" lon="9.836247505942168"><ele>1774.0</ele><time>2026-05-02T09:15:51.999Z</time></trkpt><trkpt lat="46.48848313032987" lon="9.836246293083443"><ele>1774.0</ele><time>2026-05-02T09:15:52.999Z</time></trkpt><trkpt lat="46.488407458187744" lon="9.836215021511059"><ele>1774.0</ele><time>2026-05-02T09:15:53.999Z</time></trkpt><trkpt lat="46.48834121068042" lon="9.836166136964442"><ele>1774.0000000000002</ele><time>2026-05-02T09:15:54.999Z</time></trkpt><trkpt lat="46.488288379423786" lon="9.836101372496982"><ele>1774.0</ele><time>2026-05-02T09:15:55.999Z</time></trkpt><trkpt lat="46.48822355242134" lon="9.836075225070273"><ele>1774.0</ele><time>2026-05-02T09:15:56.999Z</time></trkpt><trkpt lat="46.48814252070971" lon="9.836109172100924"><ele>1774.0</ele><time>2026-05-02T09:15:57.999Z</time></trkpt><trkpt lat="46.488094274794626" lon="9.836248001623911"><ele>1774.0</ele><time>2026-05-02T09:15:58.999Z</time></trkpt><trkpt lat="46.488037062832525" lon="9.836327232014185"><ele>1774.0</ele><time>2026-05-02T09:15:59.999Z</time></trkpt><trkpt lat="46.48786790233589" lon="9.836206228691552"><ele>1774.25</ele><time>2026-05-02T09:16:00.999Z</time></trkpt><trkpt lat="46.48776027424362" lon="9.836151028335989"><ele>1774.5</ele><time>2026-05-02T09:16:01.999Z</time></trkpt><trkpt lat="46.487645203541085" lon="9.836100863514204"><ele>1774.75</ele><time>2026-05-02T09:16:02.999Z</time></trkpt><trkpt lat="46.48752116300071" lon="9.836056855999916"><ele>1775.0</ele><time>2026-05-02T09:16:03.999Z</time></trkpt><trkpt lat="46.48738328226455" lon="9.83604514358155"><ele>1775.0</ele><time>2026-05-02T09:16:04.999Z</time></trkpt><trkpt lat="46.487263477576406" lon="9.836005646263578"><ele>1775.0</ele><time>2026-05-02T09:16:05.999Z</time></trkpt><trkpt lat="46.487164244291264" lon="9.8359435190753"><ele>1775.0</ele><time>2026-05-02T09:16:06.999Z</time></trkpt><trkpt lat="46.48704074141633" lon="9.835898413773108"><ele>1775.0</ele><time>2026-05-02T09:16:07.999Z</time></trkpt><trkpt lat="46.4869170883777" lon="9.835855026027254"><ele>1774.5</ele><time>2026-05-02T09:16:08.999Z</time></trkpt><trkpt lat="46.486796039986515" lon="9.835816837024884"><ele>1774.0</ele><time>2026-05-02T09:16:09.999Z</time></trkpt><trkpt lat="46.48667823459706" lon="9.835771080147254"><ele>1773.5</ele><time>2026-05-02T09:16:10.999Z</time></trkpt><trkpt lat="46.48655716625119" lon="9.835717538512403"><ele>1773.0</ele><time>2026-05-02T09:16:11.999Z</time></trkpt><trkpt lat="46.48643648995624" lon="9.835656297188896"><ele>1773.0</ele><time>2026-05-02T09:16:12.999Z</time></trkpt><trkpt lat="46.4863181010732" lon="9.83558445193742"><ele>1773.0</ele><time>2026-05-02T09:16:13.999Z</time></trkpt><trkpt lat="46.48620372159696" lon="9.835511220862848"><ele>1773.0</ele><time>2026-05-02T09:16:14.999Z</time></trkpt><trkpt lat="46.48609609700642" lon="9.835424386925482"><ele>1773.0</ele><time>2026-05-02T09:16:15.999Z</time></trkpt><trkpt lat="46.48598661704057" lon="9.835334255656823"><ele>1773.5</ele><time>2026-05-02T09:16:16.999Z</time></trkpt><trkpt lat="46.485877316771706" lon="9.835249531519828"><ele>1774.0</ele><time>2026-05-02T09:16:17.999Z</time></trkpt><trkpt lat="46.48576861004571" lon="9.83517027501631"><ele>1774.5</ele><time>2026-05-02T09:16:18.999Z</time></trkpt><trkpt lat="46.48565727629535" lon="9.835094594560761"><ele>1775.0</ele><time>2026-05-02T09:16:19.999Z</time></trkpt><trkpt lat="46.485544391142845" lon="9.835019790383505"><ele>1775.75</ele><time>2026-05-02T09:16:20.999Z</time></trkpt><trkpt lat="46.48543364780356" lon="9.834946712343465"><ele>1776.5</ele><time>2026-05-02T09:16:21.999Z</time></trkpt><trkpt lat="46.48532475684157" lon="9.834865681510232"><ele>1777.25</ele><time>2026-05-02T09:16:22.999Z</time></trkpt><trkpt lat="46.48521593240312" lon="9.834787107059324"><ele>1778.0</ele><time>2026-05-02T09:16:23.999Z</time></trkpt><trkpt lat="46.485115710862836" lon="9.834702236881101"><ele>1778.0</ele><time>2026-05-02T09:16:24.999Z</time></trkpt><trkpt lat="46.48501735861393" lon="9.834625623105143"><ele>1778.0</ele><time>2026-05-02T09:16:25.999Z</time></trkpt><trkpt lat="46.48491347310253" lon="9.834554259683559"><ele>1778.0</ele><time>2026-05-02T09:16:26.999Z</time></trkpt><trkpt lat="46.484814633750474" lon="9.834473162227598"><ele>1778.0</ele><time>2026-05-02T09:16:27.999Z</time></trkpt><trkpt lat="46.484710532582305" lon="9.834390176552164"><ele>1778.25</ele><time>2026-05-02T09:16:28.999Z</time></trkpt><trkpt lat="46.4846127767393" lon="9.834298252703551"><ele>1778.5</ele><time>2026-05-02T09:16:29.999Z</time></trkpt><trkpt lat="46.484513092388966" lon="9.834203044925578"><ele>1778.75</ele><time>2026-05-02T09:16:30.998Z</time></trkpt><trkpt lat="46.48441919685104" lon="9.834101032964323"><ele>1779.0</ele><time>2026-05-02T09:16:31.998Z</time></trkpt><trkpt lat="46.48432482400994" lon="9.834006557026889"><ele>1778.0</ele><time>2026-05-02T09:16:32.998Z</time></trkpt><trkpt lat="46.48423446107301" lon="9.833909711671803"><ele>1777.0</ele><time>2026-05-02T09:16:33.998Z</time></trkpt><trkpt lat="46.484149197414844" lon="9.833805406936598"><ele>1776.0</ele><time>2026-05-02T09:16:34.998Z</time></trkpt><trkpt lat="46.484061471868095" lon="9.833696474106501"><ele>1775.0</ele><time>2026-05-02T09:16:35.998Z</time></trkpt><trkpt lat="46.48398366392259" lon="9.833579864735714"><ele>1775.0</ele><time>2026-05-02T09:16:37Z</time></trkpt><trkpt lat="46.483911977450234" lon="9.83347932585778"><ele>1775.0</ele><time>2026-05-02T09:16:38Z</time></trkpt><trkpt lat="46.4838546936406" lon="9.833371797223709"><ele>1775.0</ele><time>2026-05-02T09:16:39Z</time></trkpt><trkpt lat="46.48379627610986" lon="9.833272137665366"><ele>1775.0</ele><time>2026-05-02T09:16:40Z</time></trkpt><trkpt lat="46.483731596893115" lon="9.833194254905793"><ele>1775.0</ele><time>2026-05-02T09:16:41Z</time></trkpt><trkpt lat="46.4836351820792" lon="9.833134959552352"><ele>1775.25</ele><time>2026-05-02T09:16:42Z</time></trkpt><trkpt lat="46.4835335199952" lon="9.833083417211741"><ele>1775.5</ele><time>2026-05-02T09:16:43Z</time></trkpt><trkpt lat="46.4834425043995" lon="9.83299871417267"><ele>1775.75</ele><time>2026-05-02T09:16:44Z</time></trkpt><trkpt lat="46.483351773280724" lon="9.832875679795473"><ele>1776.0</ele><time>2026-05-02T09:16:45Z</time></trkpt><trkpt lat="46.48325769254731" lon="9.832786290761916"><ele>1776.0</ele><time>2026-05-02T09:16:46Z</time></trkpt><trkpt lat="46.48316470410768" lon="9.832670330267254"><ele>1776.0</ele><time>2026-05-02T09:16:47Z</time></trkpt><trkpt lat="46.483065768179166" lon="9.832564385404448"><ele>1776.0</ele><time>2026-05-02T09:16:48Z</time></trkpt><trkpt lat="46.48296715646341" lon="9.832446340463031"><ele>1776.0</ele><time>2026-05-02T09:16:49Z</time></trkpt><trkpt lat="46.48286549991772" lon="9.832343669808694"><ele>1776.0</ele><time>2026-05-02T09:16:50Z</time></trkpt><trkpt lat="46.48276340711713" lon="9.832235623854345"><ele>1776.0</ele><time>2026-05-02T09:16:51Z</time></trkpt><trkpt lat="46.48266189627994" lon="9.832122988426773"><ele>1776.0</ele><time>2026-05-02T09:16:52Z</time></trkpt><trkpt lat="46.48256427764913" lon="9.832011150646865"><ele>1776.0</ele><time>2026-05-02T09:16:53Z</time></trkpt><trkpt lat="46.48246163674972" lon="9.831902860697138"><ele>1775.8</ele><time>2026-05-02T09:16:54Z</time></trkpt><trkpt lat="46.482364964723885" lon="9.83179556035935"><ele>1775.6</ele><time>2026-05-02T09:16:55Z</time></trkpt><trkpt lat="46.48227371026771" lon="9.831691401193039"><ele>1775.4</ele><time>2026-05-02T09:16:56Z</time></trkpt><trkpt lat="46.482190348376484" lon="9.831598329334774"><ele>1775.2</ele><time>2026-05-02T09:16:57Z</time></trkpt><trkpt lat="46.482116449725574" lon="9.831509756465145"><ele>1775.0</ele><time>2026-05-02T09:16:58Z</time></trkpt><trkpt lat="46.482059215592194" lon="9.831423261287954"><ele>1775.6666666666665</ele><time>2026-05-02T09:16:59Z</time></trkpt><trkpt lat="46.482028176155126" lon="9.83133256734212"><ele>1776.3333333333333</ele><time>2026-05-02T09:17:00Z</time></trkpt><trkpt lat="46.48197118383725" lon="9.831188213164573"><ele>1777.0</ele><time>2026-05-02T09:17:02Z</time></trkpt><trkpt lat="46.48191261766734" lon="9.8311489566581"><ele>1777.6666666666665</ele><time>2026-05-02T09:17:03Z</time></trkpt><trkpt lat="46.481840572944925" lon="9.831137180535599"><ele>1778.3333333333333</ele><time>2026-05-02T09:17:04Z</time></trkpt><trkpt lat="46.4817595913577" lon="9.831108337937485"><ele>1779.0</ele><time>2026-05-02T09:17:05Z</time></trkpt><trkpt lat="46.4816984757412" lon="9.83104094718256"><ele>1779.0</ele><time>2026-05-02T09:17:06Z</time></trkpt><trkpt lat="46.48164630576185" lon="9.830944907310563"><ele>1779.0</ele><time>2026-05-02T09:17:07Z</time></trkpt><trkpt lat="46.4815905127349" lon="9.830819369846006"><ele>1779.0</ele><time>2026-05-02T09:17:08Z</time></trkpt><trkpt lat="46.48152865319402" lon="9.830702077315534"><ele>1779.0</ele><time>2026-05-02T09:17:09Z</time></trkpt><trkpt lat="46.4814600655128" lon="9.830578180677279"><ele>1779.0</ele><time>2026-05-02T09:17:10Z</time></trkpt><trkpt lat="46.48139591643549" lon="9.830442203779587"><ele>1779.0</ele><time>2026-05-02T09:17:11Z</time></trkpt><trkpt lat="46.4813302003022" lon="9.830303831492374"><ele>1779.0</ele><time>2026-05-02T09:17:12Z</time></trkpt><trkpt lat="46.48129985730364" lon="9.830194555695194"><ele>1779.0</ele><time>2026-05-02T09:17:13Z</time></trkpt><trkpt lat="46.48125279625382" lon="9.8300541712005"><ele>1779.0</ele><time>2026-05-02T09:17:14Z</time></trkpt><trkpt lat="46.481147991884185" lon="9.829876612084734"><ele>1779.25</ele><time>2026-05-02T09:17:15Z</time></trkpt><trkpt lat="46.48103472044336" lon="9.829690983601918"><ele>1779.5</ele><time>2026-05-02T09:17:16Z</time></trkpt><trkpt lat="46.4809516702146" lon="9.829543029147766"><ele>1779.75</ele><time>2026-05-02T09:17:17Z</time></trkpt><trkpt lat="46.4808596623249" lon="9.82937885629355"><ele>1780.0</ele><time>2026-05-02T09:17:18Z</time></trkpt><trkpt lat="46.48077671427533" lon="9.82922064720408"><ele>1780.5</ele><time>2026-05-02T09:17:19Z</time></trkpt><trkpt lat="46.48071024865038" lon="9.829063350161078"><ele>1781.0</ele><time>2026-05-02T09:17:19.999Z</time></trkpt><trkpt lat="46.48064835535105" lon="9.82890413709889"><ele>1781.5</ele><time>2026-05-02T09:17:20.999Z</time></trkpt><trkpt lat="46.48060741358633" lon="9.828727833094522"><ele>1782.0</ele><time>2026-05-02T09:17:21.999Z</time></trkpt><trkpt lat="46.480579260673906" lon="9.828540218066804"><ele>1781.75</ele><time>2026-05-02T09:17:22.999Z</time></trkpt><trkpt lat="46.480556202664744" lon="9.828343127960892"><ele>1781.5</ele><time>2026-05-02T09:17:23.999Z</time></trkpt><trkpt lat="46.48052651876168" lon="9.828145099545116"><ele>1781.25</ele><time>2026-05-02T09:17:24.999Z</time></trkpt><trkpt lat="46.48044168804219" lon="9.82794596262303"><ele>1781.0</ele><time>2026-05-02T09:17:25.999Z</time></trkpt><trkpt lat="46.4804039997249" lon="9.82772300034872"><ele>1781.25</ele><time>2026-05-02T09:17:26.999Z</time></trkpt><trkpt lat="46.4803799039026" lon="9.827492393507919"><ele>1781.5</ele><time>2026-05-02T09:17:27.999Z</time></trkpt><trkpt lat="46.480362696556206" lon="9.827288897182425"><ele>1781.75</ele><time>2026-05-02T09:17:28.999Z</time></trkpt><trkpt lat="46.48034824162515" lon="9.827088454583814"><ele>1782.0</ele><time>2026-05-02T09:17:29.999Z</time></trkpt><trkpt lat="46.48034659779284" lon="9.826830245481625"><ele>1783.6666666666665</ele><time>2026-05-02T09:17:30.999Z</time></trkpt><trkpt lat="46.48029554984397" lon="9.82659002944416"><ele>1785.3333333333333</ele><time>2026-05-02T09:17:31.999Z</time></trkpt><trkpt lat="46.48024705889637" lon="9.826340611470716"><ele>1787.0</ele><time>2026-05-02T09:17:32.999Z</time></trkpt><trkpt lat="46.48020509046902" lon="9.826089631636595"><ele>1789.3333333333333</ele><time>2026-05-02T09:17:33.999Z</time></trkpt><trkpt lat="46.48016211513546" lon="9.825849569342285"><ele>1791.6666666666665</ele><time>2026-05-02T09:17:34.999Z</time></trkpt><trkpt lat="46.48009115256407" lon="9.82562323449444"><ele>1794.0</ele><time>2026-05-02T09:17:35.999Z</time></trkpt><trkpt lat="46.48000620748083" lon="9.825394833649252"><ele>1794.0</ele><time>2026-05-02T09:17:36.999Z</time></trkpt><trkpt lat="46.479911529833686" lon="9.825161656218826"><ele>1794.0</ele><time>2026-05-02T09:17:37.999Z</time></trkpt><trkpt lat="46.479812082090824" lon="9.824945789530071"><ele>1794.0</ele><time>2026-05-02T09:17:38.999Z</time></trkpt><trkpt lat="46.4796684967915" lon="9.824749268039206"><ele>1791.0</ele><time>2026-05-02T09:17:39.999Z</time></trkpt><trkpt lat="46.479519644946706" lon="9.824551712720227"><ele>1788.0</ele><time>2026-05-02T09:17:40.999Z</time></trkpt><trkpt lat="46.47937658828058" lon="9.824355050038294"><ele>1785.0</ele><time>2026-05-02T09:17:41.999Z</time></trkpt><trkpt lat="46.4792370950729" lon="9.824176240890479"><ele>1785.0</ele><time>2026-05-02T09:17:42.999Z</time></trkpt><trkpt lat="46.47909797308056" lon="9.823992453052941"><ele>1785.0</ele><time>2026-05-02T09:17:43.999Z</time></trkpt><trkpt lat="46.4789552238001" lon="9.82380396973707"><ele>1785.0</ele><time>2026-05-02T09:17:44.999Z</time></trkpt><trkpt lat="46.47880111382266" lon="9.823610022396295"><ele>1786.3333333333335</ele><time>2026-05-02T09:17:45.999Z</time></trkpt><trkpt lat="46.47863953847134" lon="9.823412530685074"><ele>1787.6666666666667</ele><time>2026-05-02T09:17:46.999Z</time></trkpt><trkpt lat="46.47847589736671" lon="9.82319799210232"><ele>1789.0</ele><time>2026-05-02T09:17:47.999Z</time></trkpt><trkpt lat="46.478329077192" lon="9.822980434010443"><ele>1789.0</ele><time>2026-05-02T09:17:48.999Z</time></trkpt><trkpt lat="46.47819919316189" lon="9.82276780847152"><ele>1789.0</ele><time>2026-05-02T09:17:49.999Z</time></trkpt><trkpt lat="46.47806088596801" lon="9.822547454745735"><ele>1789.0</ele><time>2026-05-02T09:17:50.999Z</time></trkpt><trkpt lat="46.477926790292216" lon="9.822322275896775"><ele>1792.3333333333335</ele><time>2026-05-02T09:17:51.999Z</time></trkpt><trkpt lat="46.47777340659665" lon="9.822073639729282"><ele>1795.6666666666665</ele><time>2026-05-02T09:17:52.999Z</time></trkpt><trkpt lat="46.47763511457042" lon="9.821838158207315"><ele>1799.0</ele><time>2026-05-02T09:17:53.999Z</time></trkpt><trkpt lat="46.47751377301253" lon="9.821622208677248"><ele>1799.3333333333333</ele><time>2026-05-02T09:17:54.999Z</time></trkpt><trkpt lat="46.477387136007216" lon="9.82139512236228"><ele>1799.6666666666665</ele><time>2026-05-02T09:17:55.999Z</time></trkpt><trkpt lat="46.47730965157234" lon="9.821206860114028"><ele>1800.0</ele><time>2026-05-02T09:17:56.999Z</time></trkpt><trkpt lat="46.477246947241156" lon="9.821011708110868"><ele>1800.0</ele><time>2026-05-02T09:17:57.999Z</time></trkpt><trkpt lat="46.47720049172117" lon="9.820851636975421"><ele>1800.0</ele><time>2026-05-02T09:17:58.999Z</time></trkpt><trkpt lat="46.47712503743998" lon="9.82067664630262"><ele>1800.0</ele><time>2026-05-02T09:17:59.999Z</time></trkpt><trkpt lat="46.47704560950591" lon="9.820490402756285"><ele>1800.0</ele><time>2026-05-02T09:18:00.999Z</time></trkpt><trkpt lat="46.47698784169975" lon="9.82033208532512"><ele>1800.0</ele><time>2026-05-02T09:18:01.999Z</time></trkpt><trkpt lat="46.47691321086421" lon="9.820167540833427"><ele>1800.0</ele><time>2026-05-02T09:18:02.999Z</time></trkpt><trkpt lat="46.4767021365012" lon="9.81971435799845"><ele>1801.3333333333335</ele><time>2026-05-02T09:18:03.999Z</time></trkpt><trkpt lat="46.47663563763007" lon="9.819496129174597"><ele>1802.6666666666667</ele><time>2026-05-02T09:18:04.999Z</time></trkpt><trkpt lat="46.47656715100937" lon="9.819269887152766"><ele>1804.0</ele><time>2026-05-02T09:18:05.999Z</time></trkpt><trkpt lat="46.47651278958294" lon="9.819031462231079"><ele>1806.0</ele><time>2026-05-02T09:18:06.999Z</time></trkpt><trkpt lat="46.47647686219645" lon="9.818775275877242"><ele>1808.0</ele><time>2026-05-02T09:18:07.999Z</time></trkpt><trkpt lat="46.47643118752486" lon="9.818520509129906"><ele>1810.0</ele><time>2026-05-02T09:18:08.999Z</time></trkpt><trkpt lat="46.47638813366708" lon="9.818274316703945"><ele>1810.0</ele><time>2026-05-02T09:18:09.999Z</time></trkpt><trkpt lat="46.47633870983343" lon="9.818044385868232"><ele>1810.0</ele><time>2026-05-02T09:18:10.999Z</time></trkpt><trkpt lat="46.476312953020226" lon="9.817806482727661"><ele>1810.0</ele><time>2026-05-02T09:18:11.999Z</time></trkpt><trkpt lat="46.47627885838732" lon="9.81756814572283"><ele>1805.3333333333335</ele><time>2026-05-02T09:18:12.999Z</time></trkpt><trkpt lat="46.47623290115249" lon="9.817331828997768"><ele>1800.6666666666665</ele><time>2026-05-02T09:18:13.999Z</time></trkpt><trkpt lat="46.47620556544235" lon="9.817097241878384"><ele>1796.0</ele><time>2026-05-02T09:18:14.999Z</time></trkpt><trkpt lat="46.4761739061881" lon="9.816862121459092"><ele>1795.3333333333333</ele><time>2026-05-02T09:18:15.999Z</time></trkpt><trkpt lat="46.47614150916758" lon="9.816627183192944"><ele>1794.6666666666665</ele><time>2026-05-02T09:18:16.999Z</time></trkpt><trkpt lat="46.47610252044743" lon="9.816390825466748"><ele>1794.0</ele><time>2026-05-02T09:18:17.999Z</time></trkpt><trkpt lat="46.47607209629752" lon="9.816154931515655"><ele>1795.0</ele><time>2026-05-02T09:18:18.999Z</time></trkpt><trkpt lat="46.47603531190571" lon="9.815918795759108"><ele>1796.0</ele><time>2026-05-02T09:18:19.999Z</time></trkpt><trkpt lat="46.476000833409216" lon="9.815684084157608"><ele>1797.0</ele><time>2026-05-02T09:18:20.999Z</time></trkpt><trkpt lat="46.47595796113368" lon="9.815453894236066"><ele>1797.0</ele><time>2026-05-02T09:18:21.999Z</time></trkpt><trkpt lat="46.475913796678036" lon="9.815220504718443"><ele>1797.0</ele><time>2026-05-02T09:18:22.999Z</time></trkpt><trkpt lat="46.47586649353314" lon="9.81498139401996"><ele>1797.0</ele><time>2026-05-02T09:18:23.999Z</time></trkpt><trkpt lat="46.47582645525424" lon="9.814737934776788"><ele>1797.0</ele><time>2026-05-02T09:18:24.999Z</time></trkpt><trkpt lat="46.47577129805903" lon="9.814475369745235"><ele>1797.0</ele><time>2026-05-02T09:18:25.999Z</time></trkpt><trkpt lat="46.475709755125486" lon="9.814225478710703"><ele>1797.0</ele><time>2026-05-02T09:18:26.999Z</time></trkpt><trkpt lat="46.47564802389675" lon="9.81398644281172"><ele>1797.0</ele><time>2026-05-02T09:18:27.999Z</time></trkpt><trkpt lat="46.47562465525344" lon="9.813823983601985"><ele>1797.0</ele><time>2026-05-02T09:18:28.999Z</time></trkpt><trkpt lat="46.4756100135837" lon="9.813672387562795"><ele>1797.0</ele><time>2026-05-02T09:18:29.999Z</time></trkpt><trkpt lat="46.47553209363124" lon="9.813427647479493"><ele>1797.0</ele><time>2026-05-02T09:18:30.999Z</time></trkpt><trkpt lat="46.47542863904555" lon="9.813128976503126"><ele>1795.5</ele><time>2026-05-02T09:18:31.999Z</time></trkpt><trkpt lat="46.47522086510405" lon="9.812703663825882"><ele>1794.0</ele><time>2026-05-02T09:18:32.999Z</time></trkpt><trkpt lat="46.47507885152841" lon="9.812354382318977"><ele>1794.0</ele><time>2026-05-02T09:18:33.999Z</time></trkpt><trkpt lat="46.47496746720832" lon="9.81203787180406"><ele>1794.0</ele><time>2026-05-02T09:18:34.999Z</time></trkpt><trkpt lat="46.474853070903215" lon="9.81173282699952"><ele>1798.0</ele><time>2026-05-02T09:18:35.999Z</time></trkpt><trkpt lat="46.47473665413852" lon="9.811436410009911"><ele>1802.0</ele><time>2026-05-02T09:18:36.999Z</time></trkpt><trkpt lat="46.474624809753585" lon="9.811136403504046"><ele>1797.5</ele><time>2026-05-02T09:18:37.999Z</time></trkpt><trkpt lat="46.47452251655193" lon="9.810824184844591"><ele>1793.0</ele><time>2026-05-02T09:18:38.998Z</time></trkpt><trkpt lat="46.47443325575468" lon="9.810518568239385"><ele>1793.0</ele><time>2026-05-02T09:18:39.998Z</time></trkpt><trkpt lat="46.47434796923706" lon="9.810214879053461"><ele>1793.0</ele><time>2026-05-02T09:18:40.998Z</time></trkpt><trkpt lat="46.4742668493907" lon="9.80990787094173"><ele>1792.5</ele><time>2026-05-02T09:18:41.998Z</time></trkpt><trkpt lat="46.4741854697054" lon="9.809594127268223"><ele>1792.0</ele><time>2026-05-02T09:18:43Z</time></trkpt><trkpt lat="46.474114388418194" lon="9.809274806731313"><ele>1792.0</ele><time>2026-05-02T09:18:44Z</time></trkpt><trkpt lat="46.47404667277158" lon="9.808952026804683"><ele>1792.0</ele><time>2026-05-02T09:18:45Z</time></trkpt><trkpt lat="46.47398195136971" lon="9.808625249767289"><ele>1794.0</ele><time>2026-05-02T09:18:46Z</time></trkpt><trkpt lat="46.47391918177087" lon="9.808306966922236"><ele>1796.0</ele><time>2026-05-02T09:18:47Z</time></trkpt><trkpt lat="46.47384982355307" lon="9.807988656246643"><ele>1796.0</ele><time>2026-05-02T09:18:48Z</time></trkpt><trkpt lat="46.47377992657979" lon="9.80767626417162"><ele>1796.0</ele><time>2026-05-02T09:18:49Z</time></trkpt><trkpt lat="46.47370926744874" lon="9.80737627653724"><ele>1796.0</ele><time>2026-05-02T09:18:50Z</time></trkpt><trkpt lat="46.47362764382994" lon="9.807099907640149"><ele>1796.6666666666665</ele><time>2026-05-02T09:18:51Z</time></trkpt><trkpt lat="46.47352254447544" lon="9.806822867993823"><ele>1797.3333333333335</ele><time>2026-05-02T09:18:52Z</time></trkpt><trkpt lat="46.47341643336397" lon="9.80656423950789"><ele>1798.0</ele><time>2026-05-02T09:18:53Z</time></trkpt><trkpt lat="46.47329010095641" lon="9.806307334899124"><ele>1798.0</ele><time>2026-05-02T09:18:54Z</time></trkpt><trkpt lat="46.47313095226311" lon="9.806057204024288"><ele>1798.0</ele><time>2026-05-02T09:18:55Z</time></trkpt><trkpt lat="46.47293376327189" lon="9.805801794929145"><ele>1797.0</ele><time>2026-05-02T09:18:56Z</time></trkpt><trkpt lat="46.472730495779686" lon="9.805564941601098"><ele>1796.0</ele><time>2026-05-02T09:18:57Z</time></trkpt><trkpt lat="46.47250711812422" lon="9.80535299627323"><ele>1796.0</ele><time>2026-05-02T09:18:58Z</time></trkpt><trkpt lat="46.472270491540776" lon="9.805153595383754"><ele>1796.0</ele><time>2026-05-02T09:18:59Z</time></trkpt><trkpt lat="46.47204703316252" lon="9.80496304943214"><ele>1796.0</ele><time>2026-05-02T09:19:00Z</time></trkpt><trkpt lat="46.47184147054498" lon="9.804769825641534"><ele>1796.0</ele><time>2026-05-02T09:19:01Z</time></trkpt><trkpt lat="46.471661392759174" lon="9.804553980325746"><ele>1803.0</ele><time>2026-05-02T09:19:02Z</time></trkpt><trkpt lat="46.4714999391099" lon="9.804296790209696"><ele>1810.0</ele><time>2026-05-02T09:19:03Z</time></trkpt><trkpt lat="46.471358373468846" lon="9.803988388075894"><ele>1805.0</ele><time>2026-05-02T09:19:04Z</time></trkpt><trkpt lat="46.47121300432983" lon="9.803707242426961"><ele>1800.0</ele><time>2026-05-02T09:19:05Z</time></trkpt><trkpt lat="46.47110333956387" lon="9.80342797870896"><ele>1800.0</ele><time>2026-05-02T09:19:06Z</time></trkpt><trkpt lat="46.4709568074646" lon="9.80318471343866"><ele>1800.0</ele><time>2026-05-02T09:19:07Z</time></trkpt><trkpt lat="46.47076769957919" lon="9.802984254693762"><ele>1800.0</ele><time>2026-05-02T09:19:08Z</time></trkpt><trkpt lat="46.47055135108191" lon="9.802808224202652"><ele>1800.0</ele><time>2026-05-02T09:19:09Z</time></trkpt><trkpt lat="46.47032374831218" lon="9.802655216854406"><ele>1805.0</ele><time>2026-05-02T09:19:10Z</time></trkpt><trkpt lat="46.47007953609938" lon="9.802551453082305"><ele>1810.0</ele><time>2026-05-02T09:19:11Z</time></trkpt><trkpt lat="46.4698577057387" lon="9.802473862338067"><ele>1810.0</ele><time>2026-05-02T09:19:12Z</time></trkpt><trkpt lat="46.469648458806105" lon="9.802395293059783"><ele>1810.0</ele><time>2026-05-02T09:19:13Z</time></trkpt><trkpt lat="46.469455488467986" lon="9.802325836052663"><ele>1810.0</ele><time>2026-05-02T09:19:14Z</time></trkpt><trkpt lat="46.46926631144325" lon="9.802259012627697"><ele>1807.0</ele><time>2026-05-02T09:19:15Z</time></trkpt><trkpt lat="46.46908924842367" lon="9.802203820087795"><ele>1804.0</ele><time>2026-05-02T09:19:16Z</time></trkpt><trkpt lat="46.46892476402561" lon="9.802165856018126"><ele>1801.0</ele><time>2026-05-02T09:19:17Z</time></trkpt><trkpt lat="46.46877985268258" lon="9.802133265574739"><ele>1800.1999999999998</ele><time>2026-05-02T09:19:18Z</time></trkpt><trkpt lat="46.46866218335403" lon="9.802103025659"><ele>1799.3999999999999</ele><time>2026-05-02T09:19:19Z</time></trkpt><trkpt lat="46.46856478457956" lon="9.802052872977123"><ele>1798.6</ele><time>2026-05-02T09:19:20Z</time></trkpt><trkpt lat="46.46847794122576" lon="9.801999477539725"><ele>1797.8</ele><time>2026-05-02T09:19:21Z</time></trkpt><trkpt lat="46.468412487439146" lon="9.801924745833507"><ele>1797.0</ele><time>2026-05-02T09:19:22Z</time></trkpt><trkpt lat="46.46836390276721" lon="9.801837914512305"><ele>1797.0</ele><time>2026-05-02T09:19:23Z</time></trkpt><trkpt lat="46.468309179952094" lon="9.801745821037267"><ele>1797.0</ele><time>2026-05-02T09:19:24Z</time></trkpt><trkpt lat="46.468238309308376" lon="9.801712008048327"><ele>1797.0</ele><time>2026-05-02T09:19:25Z</time></trkpt><trkpt lat="46.46815042799189" lon="9.80174692468795"><ele>1797.0</ele><time>2026-05-02T09:19:26Z</time></trkpt><trkpt lat="46.46806600983434" lon="9.801801090437873"><ele>1797.0</ele><time>2026-05-02T09:19:27Z</time></trkpt><trkpt lat="46.46796784092292" lon="9.801840539589875"><ele>1797.0</ele><time>2026-05-02T09:19:28Z</time></trkpt><trkpt lat="46.46773610926318" lon="9.80180898556592"><ele>1798.25</ele><time>2026-05-02T09:19:30Z</time></trkpt><trkpt lat="46.46763200623524" lon="9.80175302844828"><ele>1799.5</ele><time>2026-05-02T09:19:31Z</time></trkpt><trkpt lat="46.46755039077251" lon="9.801691862524757"><ele>1800.75</ele><time>2026-05-02T09:19:32Z</time></trkpt><trkpt lat="46.46742384258265" lon="9.801548092685085"><ele>1802.0</ele><time>2026-05-02T09:19:33Z</time></trkpt><trkpt lat="46.46727210076634" lon="9.801443434256727"><ele>1802.0</ele><time>2026-05-02T09:19:34Z</time></trkpt><trkpt lat="46.46716654693193" lon="9.801326343126743"><ele>1802.0</ele><time>2026-05-02T09:19:35Z</time></trkpt><trkpt lat="46.467076880287664" lon="9.801181815255488"><ele>1802.0</ele><time>2026-05-02T09:19:35.999Z</time></trkpt><trkpt lat="46.46699906680855" lon="9.801032895363234"><ele>1802.0</ele><time>2026-05-02T09:19:36.999Z</time></trkpt><trkpt lat="46.4669380033583" lon="9.800864968538015"><ele>1801.5</ele><time>2026-05-02T09:19:37.999Z</time></trkpt><trkpt lat="46.46687412330171" lon="9.800703510157604"><ele>1801.0</ele><time>2026-05-02T09:19:38.999Z</time></trkpt><trkpt lat="46.46680837661041" lon="9.80051931021957"><ele>1800.5</ele><time>2026-05-02T09:19:39.999Z</time></trkpt><trkpt lat="46.466741371730734" lon="9.800325391905634"><ele>1800.0</ele><time>2026-05-02T09:19:40.999Z</time></trkpt><trkpt lat="46.46667617719916" lon="9.80011490539594"><ele>1800.0</ele><time>2026-05-02T09:19:41.999Z</time></trkpt><trkpt lat="46.46661146268062" lon="9.799897395262791"><ele>1800.0</ele><time>2026-05-02T09:19:42.999Z</time></trkpt><trkpt lat="46.46653422416436" lon="9.799669825045717"><ele>1800.0</ele><time>2026-05-02T09:19:43.999Z</time></trkpt><trkpt lat="46.46645754548467" lon="9.799460701470618"><ele>1798.6666666666665</ele><time>2026-05-02T09:19:44.999Z</time></trkpt><trkpt lat="46.46638398252254" lon="9.79924518675424"><ele>1797.3333333333333</ele><time>2026-05-02T09:19:45.999Z</time></trkpt><trkpt lat="46.46627319108092" lon="9.79905617954711"><ele>1796.0</ele><time>2026-05-02T09:19:46.999Z</time></trkpt><trkpt lat="46.4661298152625" lon="9.798866174354522"><ele>1796.0</ele><time>2026-05-02T09:19:47.999Z</time></trkpt><trkpt lat="46.46598296985446" lon="9.798690288614456"><ele>1796.0</ele><time>2026-05-02T09:19:48.999Z</time></trkpt><trkpt lat="46.465838557906636" lon="9.798533564160733"><ele>1796.0</ele><time>2026-05-02T09:19:49.999Z</time></trkpt><trkpt lat="46.46567751604775" lon="9.798400182152871"><ele>1798.0</ele><time>2026-05-02T09:19:50.999Z</time></trkpt><trkpt lat="46.46549102521505" lon="9.798259646776915"><ele>1800.0</ele><time>2026-05-02T09:19:51.999Z</time></trkpt><trkpt lat="46.46524382133947" lon="9.79811508411341"><ele>1800.0</ele><time>2026-05-02T09:19:52.999Z</time></trkpt><trkpt lat="46.46498302423673" lon="9.798005463944069"><ele>1800.0</ele><time>2026-05-02T09:19:53.999Z</time></trkpt><trkpt lat="46.46478729737928" lon="9.797922312729806"><ele>1797.0</ele><time>2026-05-02T09:19:54.999Z</time></trkpt><trkpt lat="46.46456459131242" lon="9.79779838321147"><ele>1794.0</ele><time>2026-05-02T09:19:56.999Z</time></trkpt><trkpt lat="46.464382745801764" lon="9.797708959594686"><ele>1791.0</ele><time>2026-05-02T09:19:57.999Z</time></trkpt><trkpt lat="46.46419592789447" lon="9.797622073410503"><ele>1794.3333333333335</ele><time>2026-05-02T09:19:58.999Z</time></trkpt><trkpt lat="46.46401088384147" lon="9.797540982826211"><ele>1797.6666666666667</ele><time>2026-05-02T09:19:59.999Z</time></trkpt><trkpt lat="46.46382929979608" lon="9.797475582278208"><ele>1801.0</ele><time>2026-05-02T09:20:00.999Z</time></trkpt><trkpt lat="46.463643092655296" lon="9.797424928407436"><ele>1801.0</ele><time>2026-05-02T09:20:01.999Z</time></trkpt><trkpt lat="46.46345668214152" lon="9.79738297867425"><ele>1801.0</ele><time>2026-05-02T09:20:02.999Z</time></trkpt><trkpt lat="46.463281279457505" lon="9.79735791581998"><ele>1801.0</ele><time>2026-05-02T09:20:03.999Z</time></trkpt><trkpt lat="46.463108541600505" lon="9.797338527003122"><ele>1801.0</ele><time>2026-05-02T09:20:04.999Z</time></trkpt><trkpt lat="46.46292762725744" lon="9.797347344909783"><ele>1801.0</ele><time>2026-05-02T09:20:05.999Z</time></trkpt><trkpt lat="46.462739817959225" lon="9.797354123502883"><ele>1801.0</ele><time>2026-05-02T09:20:06.999Z</time></trkpt><trkpt lat="46.4625652496058" lon="9.7973658185866"><ele>1801.0</ele><time>2026-05-02T09:20:07.999Z</time></trkpt><trkpt lat="46.462386212775264" lon="9.797397626238213"><ele>1801.0</ele><time>2026-05-02T09:20:08.999Z</time></trkpt><trkpt lat="46.46221331606132" lon="9.797444217953467"><ele>1801.0</ele><time>2026-05-02T09:20:09.999Z</time></trkpt><trkpt lat="46.46204459225201" lon="9.797486698386878"><ele>1801.3333333333335</ele><time>2026-05-02T09:20:10.999Z</time></trkpt><trkpt lat="46.461875190109915" lon="9.79752836821607"><ele>1801.6666666666665</ele><time>2026-05-02T09:20:11.999Z</time></trkpt><trkpt lat="46.461712274903626" lon="9.797592463578994"><ele>1802.0</ele><time>2026-05-02T09:20:12.999Z</time></trkpt><trkpt lat="46.46157044003996" lon="9.797633178839977"><ele>1801.0</ele><time>2026-05-02T09:20:13.999Z</time></trkpt><trkpt lat="46.461425299184434" lon="9.797685232856672"><ele>1800.0</ele><time>2026-05-02T09:20:14.999Z</time></trkpt><trkpt lat="46.46129088305287" lon="9.797737225482916"><ele>1799.0</ele><time>2026-05-02T09:20:15.999Z</time></trkpt><trkpt lat="46.46115329446416" lon="9.79779327907149"><ele>1798.0</ele><time>2026-05-02T09:20:16.999Z</time></trkpt><trkpt lat="46.46101322262167" lon="9.79783697979651"><ele>1798.0</ele><time>2026-05-02T09:20:17.999Z</time></trkpt><trkpt lat="46.460878810536585" lon="9.797871978344304"><ele>1798.0</ele><time>2026-05-02T09:20:18.999Z</time></trkpt><trkpt lat="46.46075346819501" lon="9.797906912967763"><ele>1798.0</ele><time>2026-05-02T09:20:19.999Z</time></trkpt><trkpt lat="46.46063210568487" lon="9.797925777055669"><ele>1798.0</ele><time>2026-05-02T09:20:20.999Z</time></trkpt><trkpt lat="46.46051577789362" lon="9.797946570976446"><ele>1798.2</ele><time>2026-05-02T09:20:21.999Z</time></trkpt><trkpt lat="46.46040809842093" lon="9.79796938782441"><ele>1798.4</ele><time>2026-05-02T09:20:22.999Z</time></trkpt><trkpt lat="46.46031270259611" lon="9.797983252452955"><ele>1798.6000000000001</ele><time>2026-05-02T09:20:23.999Z</time></trkpt><trkpt lat="46.4602309989314" lon="9.797992299229692"><ele>1798.8000000000002</ele><time>2026-05-02T09:20:24.999Z</time></trkpt><trkpt lat="46.46013629235708" lon="9.797957299975074"><ele>1799.0</ele><time>2026-05-02T09:20:26.999Z</time></trkpt><trkpt lat="46.460053536898876" lon="9.797878180026922"><ele>1799.0</ele><time>2026-05-02T09:20:28.999Z</time></trkpt><trkpt lat="46.459897232879165" lon="9.797970156898721"><ele>1799.0</ele><time>2026-05-02T09:20:30.999Z</time></trkpt><trkpt lat="46.4597845460508" lon="9.798021497126193"><ele>1799.0</ele><time>2026-05-02T09:20:31.999Z</time></trkpt><trkpt lat="46.45969373074884" lon="9.798016827231137"><ele>1799.0</ele><time>2026-05-02T09:20:32.999Z</time></trkpt><trkpt lat="46.45961097442675" lon="9.797996602734619"><ele>1799.75</ele><time>2026-05-02T09:20:33.999Z</time></trkpt><trkpt lat="46.45949200995629" lon="9.797977446455567"><ele>1800.5</ele><time>2026-05-02T09:20:34.999Z</time></trkpt><trkpt lat="46.459387403371196" lon="9.797946099697796"><ele>1801.25</ele><time>2026-05-02T09:20:35.999Z</time></trkpt><trkpt lat="46.45927404312911" lon="9.797882260018818"><ele>1802.0</ele><time>2026-05-02T09:20:36.999Z</time></trkpt><trkpt lat="46.45908641962648" lon="9.79785401580503"><ele>1802.0</ele><time>2026-05-02T09:20:37.999Z</time></trkpt><trkpt lat="46.45891809499092" lon="9.797794987458328"><ele>1802.0</ele><time>2026-05-02T09:20:38.999Z</time></trkpt><trkpt lat="46.45877213905848" lon="9.797722013272423"><ele>1802.0</ele><time>2026-05-02T09:20:39.999Z</time></trkpt><trkpt lat="46.458632253269606" lon="9.797636243465371"><ele>1802.6666666666665</ele><time>2026-05-02T09:20:40.999Z</time></trkpt><trkpt lat="46.45848076765027" lon="9.79752176628251"><ele>1803.3333333333335</ele><time>2026-05-02T09:20:41.999Z</time></trkpt><trkpt lat="46.45831908220166" lon="9.797390072334931"><ele>1804.0</ele><time>2026-05-02T09:20:42.999Z</time></trkpt><trkpt lat="46.458168459696346" lon="9.797224906291394"><ele>1804.0</ele><time>2026-05-02T09:20:43.999Z</time></trkpt><trkpt lat="46.45801271104792" lon="9.79705752350968"><ele>1804.0</ele><time>2026-05-02T09:20:44.999Z</time></trkpt><trkpt lat="46.45786691085762" lon="9.796878383668087"><ele>1804.0</ele><time>2026-05-02T09:20:45.999Z</time></trkpt><trkpt lat="46.457734429624075" lon="9.796694610216184"><ele>1804.3333333333335</ele><time>2026-05-02T09:20:46.999Z</time></trkpt><trkpt lat="46.457596877993616" lon="9.796479759929198"><ele>1804.6666666666665</ele><time>2026-05-02T09:20:47.999Z</time></trkpt><trkpt lat="46.45747444995676" lon="9.796256446888268"><ele>1805.0</ele><time>2026-05-02T09:20:49Z</time></trkpt><trkpt lat="46.45735235251661" lon="9.79605100437824"><ele>1805.6666666666665</ele><time>2026-05-02T09:20:50Z</time></trkpt><trkpt lat="46.45725070230104" lon="9.795798097460148"><ele>1806.3333333333335</ele><time>2026-05-02T09:20:51Z</time></trkpt><trkpt lat="46.457144392474085" lon="9.795526759965389"><ele>1807.0</ele><time>2026-05-02T09:20:52Z</time></trkpt><trkpt lat="46.45705713790898" lon="9.795246301607609"><ele>1804.3333333333335</ele><time>2026-05-02T09:20:53Z</time></trkpt><trkpt lat="46.45698219342418" lon="9.794965041465453"><ele>1801.6666666666665</ele><time>2026-05-02T09:20:54Z</time></trkpt><trkpt lat="46.45692452530524" lon="9.794685930980776"><ele>1799.0</ele><time>2026-05-02T09:20:55Z</time></trkpt><trkpt lat="46.45687491226214" lon="9.794419809417125"><ele>1800.0</ele><time>2026-05-02T09:20:56Z</time></trkpt><trkpt lat="46.456824335858315" lon="9.794162593609501"><ele>1801.0</ele><time>2026-05-02T09:20:57Z</time></trkpt><trkpt lat="46.45677249243979" lon="9.793911390651019"><ele>1802.0</ele><time>2026-05-02T09:20:58Z</time></trkpt><trkpt lat="46.45672835885907" lon="9.79366596563392"><ele>1802.6666666666665</ele><time>2026-05-02T09:20:59Z</time></trkpt><trkpt lat="46.45669438512853" lon="9.793442014942624"><ele>1803.3333333333335</ele><time>2026-05-02T09:21:00Z</time></trkpt><trkpt lat="46.45665361629931" lon="9.793222290972778"><ele>1804.0</ele><time>2026-05-02T09:21:01Z</time></trkpt><trkpt lat="46.45661676354374" lon="9.79302788315676"><ele>1804.0</ele><time>2026-05-02T09:21:02Z</time></trkpt><trkpt lat="46.456579139666786" lon="9.792834405827449"><ele>1804.0</ele><time>2026-05-02T09:21:03Z</time></trkpt><trkpt lat="46.456547122651564" lon="9.792649669084646"><ele>1804.0</ele><time>2026-05-02T09:21:04Z</time></trkpt><trkpt lat="46.45651691023774" lon="9.792468314647616"><ele>1804.0</ele><time>2026-05-02T09:21:05Z</time></trkpt><trkpt lat="46.4564937306244" lon="9.792315020193799"><ele>1803.8333333333335</ele><time>2026-05-02T09:21:06Z</time></trkpt><trkpt lat="46.45647106314951" lon="9.79216689327979"><ele>1803.6666666666667</ele><time>2026-05-02T09:21:07Z</time></trkpt><trkpt lat="46.456456322420145" lon="9.792035792044521"><ele>1803.5</ele><time>2026-05-02T09:21:08Z</time></trkpt><trkpt lat="46.456453565561056" lon="9.7919066295695"><ele>1803.3333333333335</ele><time>2026-05-02T09:21:09Z</time></trkpt><trkpt lat="46.456468632093255" lon="9.791813724443886"><ele>1803.1666666666667</ele><time>2026-05-02T09:21:10Z</time></trkpt><trkpt lat="46.456496335476906" lon="9.791730093968404"><ele>1803.0</ele><time>2026-05-02T09:21:11Z</time></trkpt><trkpt lat="46.456455319004" lon="9.791577270344494"><ele>1802.1666666666667</ele><time>2026-05-02T09:21:13Z</time></trkpt><trkpt lat="46.45640603722414" lon="9.791519257164502"><ele>1801.3333333333335</ele><time>2026-05-02T09:21:14Z</time></trkpt><trkpt lat="46.45634020643731" lon="9.791479436698202"><ele>1800.5</ele><time>2026-05-02T09:21:15Z</time></trkpt><trkpt lat="46.456270789547304" lon="9.791396856337755"><ele>1799.6666666666667</ele><time>2026-05-02T09:21:16Z</time></trkpt><trkpt lat="46.45621909362846" lon="9.791300097142972"><ele>1798.8333333333335</ele><time>2026-05-02T09:21:17Z</time></trkpt><trkpt lat="46.45617178044542" lon="9.791208806511785"><ele>1798.0</ele><time>2026-05-02T09:21:18Z</time></trkpt><trkpt lat="46.45612834465887" lon="9.791130422202665"><ele>1798.0</ele><time>2026-05-02T09:21:19Z</time></trkpt><trkpt lat="46.456086369785375" lon="9.791054147685168"><ele>1798.0000000000002</ele><time>2026-05-02T09:21:20Z</time></trkpt><trkpt lat="46.456005571173414" lon="9.79092791573615"><ele>1798.0000000000002</ele><time>2026-05-02T09:21:22Z</time></trkpt><trkpt lat="46.45592182406776" lon="9.790795074528196"><ele>1798.0</ele><time>2026-05-02T09:21:24Z</time></trkpt><trkpt lat="46.45586862397433" lon="9.790716559905208"><ele>1798.0</ele><time>2026-05-02T09:21:25Z</time></trkpt><trkpt lat="46.45581632057782" lon="9.790641776750856"><ele>1798.3333333333335</ele><time>2026-05-02T09:21:26Z</time></trkpt><trkpt lat="46.45575605025975" lon="9.790558966565749"><ele>1798.6666666666667</ele><time>2026-05-02T09:21:27Z</time></trkpt><trkpt lat="46.45570132238928" lon="9.790479522247042"><ele>1799.0</ele><time>2026-05-02T09:21:28Z</time></trkpt><trkpt lat="46.45563857244754" lon="9.79039157014886"><ele>1799.3333333333335</ele><time>2026-05-02T09:21:29Z</time></trkpt><trkpt lat="46.45558244081227" lon="9.790292212400805"><ele>1799.6666666666667</ele><time>2026-05-02T09:21:30Z</time></trkpt><trkpt lat="46.455508192668006" lon="9.790195640988173"><ele>1800.0</ele><time>2026-05-02T09:21:31Z</time></trkpt><trkpt lat="46.455416312545445" lon="9.79008879053515"><ele>1800.5</ele><time>2026-05-02T09:21:32Z</time></trkpt><trkpt lat="46.455323744768314" lon="9.789994210185665"><ele>1801.0</ele><time>2026-05-02T09:21:33Z</time></trkpt><trkpt lat="46.45521504658253" lon="9.789895117244122"><ele>1801.5</ele><time>2026-05-02T09:21:34Z</time></trkpt><trkpt lat="46.455104384451616" lon="9.789799289106888"><ele>1802.0</ele><time>2026-05-02T09:21:35Z</time></trkpt><trkpt lat="46.454978377817774" lon="9.789686085597022"><ele>1802.0</ele><time>2026-05-02T09:21:36Z</time></trkpt><trkpt lat="46.45485281048452" lon="9.789592910805222"><ele>1802.0</ele><time>2026-05-02T09:21:37Z</time></trkpt><trkpt lat="46.45472895286437" lon="9.789484203961749"><ele>1802.0</ele><time>2026-05-02T09:21:38Z</time></trkpt><trkpt lat="46.45459054191291" lon="9.78934343845915"><ele>1803.3333333333333</ele><time>2026-05-02T09:21:39Z</time></trkpt><trkpt lat="46.4544432782426" lon="9.789135009264646"><ele>1804.6666666666665</ele><time>2026-05-02T09:21:40Z</time></trkpt><trkpt lat="46.45431289766861" lon="9.78899081474631"><ele>1806.0</ele><time>2026-05-02T09:21:41Z</time></trkpt><trkpt lat="46.454152728973305" lon="9.788860777108997"><ele>1806.0</ele><time>2026-05-02T09:21:42Z</time></trkpt><trkpt lat="46.453988590333736" lon="9.788730276994125"><ele>1806.0</ele><time>2026-05-02T09:21:43Z</time></trkpt><trkpt lat="46.453824786045104" lon="9.78859835533412"><ele>1806.0</ele><time>2026-05-02T09:21:44Z</time></trkpt><trkpt lat="46.45364850063732" lon="9.788458160002317"><ele>1806.75</ele><time>2026-05-02T09:21:45Z</time></trkpt><trkpt lat="46.45352545620795" lon="9.788339339726935"><ele>1807.5</ele><time>2026-05-02T09:21:45.999Z</time></trkpt><trkpt lat="46.45345358438368" lon="9.788245667598721"><ele>1808.25</ele><time>2026-05-02T09:21:46.999Z</time></trkpt><trkpt lat="46.45336317964757" lon="9.788138548538923"><ele>1809.0</ele><time>2026-05-02T09:21:47.999Z</time></trkpt><trkpt lat="46.453205151078784" lon="9.787965670714842"><ele>1810.0</ele><time>2026-05-02T09:21:48.999Z</time></trkpt><trkpt lat="46.45287125242898" lon="9.78777070716155"><ele>1811.0</ele><time>2026-05-02T09:21:49.999Z</time></trkpt><trkpt lat="46.452749095412486" lon="9.787621444160392"><ele>1811.0</ele><time>2026-05-02T09:21:50.999Z</time></trkpt><trkpt lat="46.45262659423473" lon="9.78748455327727"><ele>1811.0</ele><time>2026-05-02T09:21:51.999Z</time></trkpt><trkpt lat="46.45250818156863" lon="9.787353659909357"><ele>1811.0</ele><time>2026-05-02T09:21:52.999Z</time></trkpt><trkpt lat="46.45239461257721" lon="9.78723145399872"><ele>1811.0</ele><time>2026-05-02T09:21:53.999Z</time></trkpt><trkpt lat="46.45228370979564" lon="9.787112117063355"><ele>1811.0</ele><time>2026-05-02T09:21:54.999Z</time></trkpt><trkpt lat="46.45218462497904" lon="9.787005262152002"><ele>1811.0</ele><time>2026-05-02T09:21:55.999Z</time></trkpt><trkpt lat="46.45209115938136" lon="9.786904298987585"><ele>1811.0</ele><time>2026-05-02T09:21:56.999Z</time></trkpt><trkpt lat="46.45200146952582" lon="9.786807414433955"><ele>1811.0</ele><time>2026-05-02T09:21:57.999Z</time></trkpt><trkpt lat="46.45190544299583" lon="9.786703684903566"><ele>1809.5</ele><time>2026-05-02T09:21:58.999Z</time></trkpt><trkpt lat="46.451809359151625" lon="9.786599893457637"><ele>1808.0</ele><time>2026-05-02T09:21:59.999Z</time></trkpt><trkpt lat="46.45170205641377" lon="9.786513972265299"><ele>1806.5</ele><time>2026-05-02T09:22:00.999Z</time></trkpt><trkpt lat="46.45160577095158" lon="9.786394401422138"><ele>1805.0</ele><time>2026-05-02T09:22:01.999Z</time></trkpt><trkpt lat="46.45149770606186" lon="9.786276617355568"><ele>1805.0</ele><time>2026-05-02T09:22:02.999Z</time></trkpt><trkpt lat="46.451387662035955" lon="9.78615902439223"><ele>1805.0</ele><time>2026-05-02T09:22:03.999Z</time></trkpt><trkpt lat="46.45125632116692" lon="9.786060188132986"><ele>1805.0</ele><time>2026-05-02T09:22:04.999Z</time></trkpt><trkpt lat="46.45112046847667" lon="9.78596198511168"><ele>1805.0</ele><time>2026-05-02T09:22:05.999Z</time></trkpt><trkpt lat="46.45098242673712" lon="9.785837909937523"><ele>1804.3333333333333</ele><time>2026-05-02T09:22:06.999Z</time></trkpt><trkpt lat="46.4508422840744" lon="9.785732209865774"><ele>1803.6666666666665</ele><time>2026-05-02T09:22:07.999Z</time></trkpt><trkpt lat="46.45069119637909" lon="9.785614809665729"><ele>1803.0</ele><time>2026-05-02T09:22:08.999Z</time></trkpt><trkpt lat="46.45053981207275" lon="9.785494102174123"><ele>1804.3333333333335</ele><time>2026-05-02T09:22:09.999Z</time></trkpt><trkpt lat="46.450373070593415" lon="9.785375393675483"><ele>1805.6666666666667</ele><time>2026-05-02T09:22:10.999Z</time></trkpt><trkpt lat="46.45021505699985" lon="9.785247102411578"><ele>1807.0</ele><time>2026-05-02T09:22:11.999Z</time></trkpt><trkpt lat="46.45008163354572" lon="9.785100365554515"><ele>1807.0</ele><time>2026-05-02T09:22:12.999Z</time></trkpt><trkpt lat="46.44996098233935" lon="9.78497254598057"><ele>1807.0</ele><time>2026-05-02T09:22:13.999Z</time></trkpt><trkpt lat="46.44983605633569" lon="9.784780382347947"><ele>1807.0</ele><time>2026-05-02T09:22:14.999Z</time></trkpt><trkpt lat="46.44972025674244" lon="9.784579871374659"><ele>1807.6666666666667</ele><time>2026-05-02T09:22:15.999Z</time></trkpt><trkpt lat="46.44958913156032" lon="9.784375631265386"><ele>1808.3333333333335</ele><time>2026-05-02T09:22:16.999Z</time></trkpt><trkpt lat="46.44944974404647" lon="9.784219768938266"><ele>1809.0</ele><time>2026-05-02T09:22:17.999Z</time></trkpt><trkpt lat="46.44928551120873" lon="9.7841110090654"><ele>1809.0</ele><time>2026-05-02T09:22:18.999Z</time></trkpt><trkpt lat="46.44910521705445" lon="9.784017345263493"><ele>1809.0</ele><time>2026-05-02T09:22:19.999Z</time></trkpt><trkpt lat="46.448917772877124" lon="9.78386408165704"><ele>1809.0</ele><time>2026-05-02T09:22:20.999Z</time></trkpt><trkpt lat="46.448725295798354" lon="9.783768319956438"><ele>1809.3333333333335</ele><time>2026-05-02T09:22:21.999Z</time></trkpt><trkpt lat="46.448547633772904" lon="9.783641403065818"><ele>1809.6666666666667</ele><time>2026-05-02T09:22:22.999Z</time></trkpt><trkpt lat="46.448384997777715" lon="9.783489069596834"><ele>1810.0</ele><time>2026-05-02T09:22:23.999Z</time></trkpt><trkpt lat="46.44822872035586" lon="9.783361842655568"><ele>1810.0</ele><time>2026-05-02T09:22:24.999Z</time></trkpt><trkpt lat="46.44808167994345" lon="9.783269328047643"><ele>1810.0</ele><time>2026-05-02T09:22:25.999Z</time></trkpt><trkpt lat="46.447960920213546" lon="9.78318694293043"><ele>1810.0</ele><time>2026-05-02T09:22:26.999Z</time></trkpt><trkpt lat="46.44784896940553" lon="9.783059499554918"><ele>1810.0</ele><time>2026-05-02T09:22:27.999Z</time></trkpt><trkpt lat="46.44775609292629" lon="9.782921262532899"><ele>1807.6666666666667</ele><time>2026-05-02T09:22:28.999Z</time></trkpt><trkpt lat="46.44768393885158" lon="9.782731696724564"><ele>1805.3333333333335</ele><time>2026-05-02T09:22:29.999Z</time></trkpt><trkpt lat="46.44762866289763" lon="9.782530618478374"><ele>1803.0</ele><time>2026-05-02T09:22:30.999Z</time></trkpt><trkpt lat="46.447577995349626" lon="9.782319255986124"><ele>1803.0</ele><time>2026-05-02T09:22:31.999Z</time></trkpt><trkpt lat="46.44752004609717" lon="9.782132623489959"><ele>1803.0</ele><time>2026-05-02T09:22:32.999Z</time></trkpt><trkpt lat="46.447424252745115" lon="9.781957618377197"><ele>1803.0</ele><time>2026-05-02T09:22:33.999Z</time></trkpt><trkpt lat="46.44728453919779" lon="9.781803378469595"><ele>1802.0</ele><time>2026-05-02T09:22:34.999Z</time></trkpt><trkpt lat="46.44713247803362" lon="9.781673077044552"><ele>1801.0</ele><time>2026-05-02T09:22:35.999Z</time></trkpt><trkpt lat="46.446974248543114" lon="9.781553651543122"><ele>1800.0</ele><time>2026-05-02T09:22:36.999Z</time></trkpt><trkpt lat="46.44682063803661" lon="9.781407037746705"><ele>1800.0</ele><time>2026-05-02T09:22:37.999Z</time></trkpt><trkpt lat="46.44668658495461" lon="9.781224817983698"><ele>1800.0</ele><time>2026-05-02T09:22:38.999Z</time></trkpt><trkpt lat="46.44655386955132" lon="9.781056584351104"><ele>1800.0</ele><time>2026-05-02T09:22:39.999Z</time></trkpt><trkpt lat="46.44644359028222" lon="9.780892530934622"><ele>1797.6666666666665</ele><time>2026-05-02T09:22:40.999Z</time></trkpt><trkpt lat="46.44634058179042" lon="9.78072545024214"><ele>1795.3333333333333</ele><time>2026-05-02T09:22:41.999Z</time></trkpt><trkpt lat="46.44624983137156" lon="9.780546278708087"><ele>1793.0</ele><time>2026-05-02T09:22:42.999Z</time></trkpt><trkpt lat="46.44615194461921" lon="9.780357801931304"><ele>1796.6666666666665</ele><time>2026-05-02T09:22:43.999Z</time></trkpt><trkpt lat="46.44606577852494" lon="9.78015589584391"><ele>1800.3333333333335</ele><time>2026-05-02T09:22:44.999Z</time></trkpt><trkpt lat="46.44597079559773" lon="9.779956235893218"><ele>1804.0</ele><time>2026-05-02T09:22:45.999Z</time></trkpt><trkpt lat="46.44586048984038" lon="9.779767144062331"><ele>1804.0</ele><time>2026-05-02T09:22:46.999Z</time></trkpt><trkpt lat="46.44573309469564" lon="9.779595556297627"><ele>1804.0</ele><time>2026-05-02T09:22:47.999Z</time></trkpt><trkpt lat="46.445580197803864" lon="9.779467310802877"><ele>1804.0</ele><time>2026-05-02T09:22:48.999Z</time></trkpt><trkpt lat="46.44540463777528" lon="9.7793776959982"><ele>1803.0</ele><time>2026-05-02T09:22:49.999Z</time></trkpt><trkpt lat="46.44526844312272" lon="9.779255555923505"><ele>1802.0</ele><time>2026-05-02T09:22:50.999Z</time></trkpt><trkpt lat="46.445168966618006" lon="9.77909255105292"><ele>1801.0</ele><time>2026-05-02T09:22:51.999Z</time></trkpt><trkpt lat="46.44509644327569" lon="9.778908578391125"><ele>1801.0</ele><time>2026-05-02T09:22:52.999Z</time></trkpt><trkpt lat="46.445044281480385" lon="9.778688356489207"><ele>1801.0</ele><time>2026-05-02T09:22:53.999Z</time></trkpt><trkpt lat="46.44499803486964" lon="9.778452568293735"><ele>1801.0</ele><time>2026-05-02T09:22:55Z</time></trkpt><trkpt lat="46.444958236303954" lon="9.778223356452717"><ele>1803.0</ele><time>2026-05-02T09:22:56Z</time></trkpt><trkpt lat="46.4448981649081" lon="9.778006071695133"><ele>1805.0</ele><time>2026-05-02T09:22:57Z</time></trkpt><trkpt lat="46.44483590946298" lon="9.77778153908961"><ele>1807.0</ele><time>2026-05-02T09:22:58Z</time></trkpt><trkpt lat="46.44475035543014" lon="9.777582419126473"><ele>1802.6666666666667</ele><time>2026-05-02T09:22:59Z</time></trkpt><trkpt lat="46.444644791643235" lon="9.777391534446288"><ele>1798.3333333333335</ele><time>2026-05-02T09:23:00Z</time></trkpt><trkpt lat="46.44456045739766" lon="9.77717880129576"><ele>1794.0</ele><time>2026-05-02T09:23:01Z</time></trkpt><trkpt lat="46.444465115731184" lon="9.776976717503123"><ele>1797.6666666666665</ele><time>2026-05-02T09:23:02Z</time></trkpt><trkpt lat="46.44434827229683" lon="9.77678727991508"><ele>1801.3333333333333</ele><time>2026-05-02T09:23:03Z</time></trkpt><trkpt lat="46.44423594806742" lon="9.776584216309372"><ele>1805.0</ele><time>2026-05-02T09:23:04Z</time></trkpt><trkpt lat="46.44409877104199" lon="9.77638159510644"><ele>1805.0</ele><time>2026-05-02T09:23:05Z</time></trkpt><trkpt lat="46.44392597038783" lon="9.776173477661832"><ele>1805.0</ele><time>2026-05-02T09:23:06Z</time></trkpt><trkpt lat="46.44376422903224" lon="9.775980736154864"><ele>1805.0</ele><time>2026-05-02T09:23:07Z</time></trkpt><trkpt lat="46.443585041420754" lon="9.77588305423144"><ele>1803.3333333333333</ele><time>2026-05-02T09:23:08Z</time></trkpt><trkpt lat="46.443421551314664" lon="9.775742661200375"><ele>1801.6666666666665</ele><time>2026-05-02T09:23:09Z</time></trkpt><trkpt lat="46.443269366595345" lon="9.775599833420863"><ele>1800.0</ele><time>2026-05-02T09:23:10Z</time></trkpt><trkpt lat="46.44312123755616" lon="9.775462506940771"><ele>1800.0</ele><time>2026-05-02T09:23:11Z</time></trkpt><trkpt lat="46.442980625705154" lon="9.775330918378295"><ele>1800.0</ele><time>2026-05-02T09:23:12Z</time></trkpt><trkpt lat="46.44285073377036" lon="9.775220633922006"><ele>1800.0</ele><time>2026-05-02T09:23:13Z</time></trkpt><trkpt lat="46.442734548507694" lon="9.775081709685198"><ele>1798.0</ele><time>2026-05-02T09:23:14Z</time></trkpt><trkpt lat="46.44263950922023" lon="9.774936523939298"><ele>1796.0</ele><time>2026-05-02T09:23:15Z</time></trkpt><trkpt lat="46.442556762886205" lon="9.774791897661114"><ele>1794.0</ele><time>2026-05-02T09:23:16Z</time></trkpt><trkpt lat="46.44249196960261" lon="9.774651375140044"><ele>1792.0</ele><time>2026-05-02T09:23:17Z</time></trkpt><trkpt lat="46.44243983592246" lon="9.774536990659213"><ele>1792.0</ele><time>2026-05-02T09:23:18Z</time></trkpt><trkpt lat="46.44240237793992" lon="9.774444553800949"><ele>1791.9999999999998</ele><time>2026-05-02T09:23:19Z</time></trkpt><trkpt lat="46.442347083651946" lon="9.774304860432904"><ele>1791.9999999999998</ele><time>2026-05-02T09:23:21Z</time></trkpt><trkpt lat="46.442242923017375" lon="9.774392563944263"><ele>1792.0</ele><time>2026-05-02T09:23:23Z</time></trkpt><trkpt lat="46.442144309677595" lon="9.774448126962724"><ele>1792.0</ele><time>2026-05-02T09:23:25Z</time></trkpt><trkpt lat="46.442050862436716" lon="9.774521674463283"><ele>1792.0000000000002</ele><time>2026-05-02T09:23:27Z</time></trkpt><trkpt lat="46.44196919521249" lon="9.774576391904974"><ele>1792.0</ele><time>2026-05-02T09:23:29Z</time></trkpt><trkpt lat="46.441900927066705" lon="9.774618327762337"><ele>1792.0</ele><time>2026-05-02T09:23:31Z</time></trkpt><trkpt lat="46.44182673690214" lon="9.774547523366035"><ele>1792.0</ele><time>2026-05-02T09:23:34Z</time></trkpt><trkpt lat="46.441734665120805" lon="9.77456070383333"><ele>1792.0000000000002</ele><time>2026-05-02T09:23:36Z</time></trkpt><trkpt lat="46.441652561202844" lon="9.77460937196447"><ele>1792.0</ele><time>2026-05-02T09:23:38Z</time></trkpt><trkpt lat="46.44157787271987" lon="9.774656119217688"><ele>1792.0000000000002</ele><time>2026-05-02T09:23:40Z</time></trkpt><trkpt lat="46.44150906536867" lon="9.774699450117017"><ele>1792.0</ele><time>2026-05-02T09:23:42Z</time></trkpt><trkpt lat="46.441454513444384" lon="9.774807773929451"><ele>1792.0</ele><time>2026-05-02T09:23:45Z</time></trkpt><trkpt lat="46.44139036976776" lon="9.77491940443832"><ele>1792.0</ele><time>2026-05-02T09:23:48Z</time></trkpt><trkpt lat="46.441352934656834" lon="9.775019317853264"><ele>1792.0000000000002</ele><time>2026-05-02T09:32:55.999Z</time></trkpt><trkpt lat="46.44130117605824" lon="9.77508527533193"><ele>1792.0</ele><time>2026-05-02T09:32:58.999Z</time></trkpt><trkpt lat="46.44125201808022" lon="9.775000113253922"><ele>1792.0000000000002</ele><time>2026-05-02T09:33:01.999Z</time></trkpt><trkpt lat="46.44129056152111" lon="9.77492039905136"><ele>1792.0</ele><time>2026-05-02T09:33:03.998Z</time></trkpt><trkpt lat="46.44136681235279" lon="9.77485708315573"><ele>1792.0</ele><time>2026-05-02T09:33:05.998Z</time></trkpt><trkpt lat="46.44143575849413" lon="9.774762216433627"><ele>1792.0</ele><time>2026-05-02T09:33:07.998Z</time></trkpt><trkpt lat="46.44152204756755" lon="9.774693856089932"><ele>1792.0000000000002</ele><time>2026-05-02T09:33:09.998Z</time></trkpt><trkpt lat="46.44160346439575" lon="9.774638351116256"><ele>1792.0</ele><time>2026-05-02T09:33:11.998Z</time></trkpt><trkpt lat="46.44168500630127" lon="9.774592526651759"><ele>1792.0000000000002</ele><time>2026-05-02T09:33:13.998Z</time></trkpt><trkpt lat="46.44176023649639" lon="9.774567300760046"><ele>1792.0</ele><time>2026-05-02T09:33:15.998Z</time></trkpt><trkpt lat="46.4418291749402" lon="9.774604673822559"><ele>1792.0</ele><time>2026-05-02T09:33:17.998Z</time></trkpt><trkpt lat="46.441890760072916" lon="9.774645938262509"><ele>1792.0</ele><time>2026-05-02T09:33:19.998Z</time></trkpt><trkpt lat="46.441965319343915" lon="9.774634419039849"><ele>1792.0000000000002</ele><time>2026-05-02T09:33:21.998Z</time></trkpt><trkpt lat="46.44204179973162" lon="9.774581547144505"><ele>1792.0</ele><time>2026-05-02T09:33:23.998Z</time></trkpt><trkpt lat="46.442105601899215" lon="9.774511499960505"><ele>1792.0</ele><time>2026-05-02T09:33:26Z</time></trkpt><trkpt lat="46.442180792273746" lon="9.774473343022828"><ele>1791.9999999999998</ele><time>2026-05-02T09:33:28Z</time></trkpt><trkpt lat="46.44224199659021" lon="9.774401232507266"><ele>1791.9999999999998</ele><time>2026-05-02T09:33:31Z</time></trkpt><trkpt lat="46.442324181199744" lon="9.774348810549546"><ele>1792.0</ele><time>2026-05-02T09:33:34Z</time></trkpt><trkpt lat="46.44227435256246" lon="9.774135021947982"><ele>1792.0</ele><time>2026-05-02T09:33:36Z</time></trkpt><trkpt lat="46.442234039387365" lon="9.774046051513155"><ele>1792.0000000000002</ele><time>2026-05-02T09:33:37Z</time></trkpt><trkpt lat="46.44219249168389" lon="9.773936592450509"><ele>1792.0</ele><time>2026-05-02T09:33:38Z</time></trkpt><trkpt lat="46.442152430812286" lon="9.773831627613387"><ele>1792.0</ele><time>2026-05-02T09:33:39Z</time></trkpt><trkpt lat="46.44211453539387" lon="9.773751635805665"><ele>1792.0</ele><time>2026-05-02T09:33:40Z</time></trkpt><trkpt lat="46.4420940117936" lon="9.773653167940699"><ele>1792.0000000000002</ele><time>2026-05-02T09:33:41Z</time></trkpt><trkpt lat="46.44205960216072" lon="9.773528472182608"><ele>1792.0</ele><time>2026-05-02T09:33:42Z</time></trkpt><trkpt lat="46.44202874409148" lon="9.773417536500158"><ele>1792.3333333333335</ele><time>2026-05-02T09:33:43Z</time></trkpt><trkpt lat="46.442001779207324" lon="9.773319318438189"><ele>1792.6666666666665</ele><time>2026-05-02T09:33:44Z</time></trkpt><trkpt lat="46.44197992761557" lon="9.77321260934258"><ele>1793.0</ele><time>2026-05-02T09:33:45Z</time></trkpt><trkpt lat="46.44173832418172" lon="9.772785756560108"><ele>1793.0</ele><time>2026-05-02T09:33:46Z</time></trkpt><trkpt lat="46.44166385574646" lon="9.772602615872371"><ele>1793.0</ele><time>2026-05-02T09:33:47Z</time></trkpt><trkpt lat="46.44158037504639" lon="9.772394388924436"><ele>1793.0</ele><time>2026-05-02T09:33:48Z</time></trkpt><trkpt lat="46.44148883815808" lon="9.772180476952743"><ele>1793.0</ele><time>2026-05-02T09:33:49Z</time></trkpt><trkpt lat="46.4413967169333" lon="9.771951761812046"><ele>1793.0</ele><time>2026-05-02T09:33:50Z</time></trkpt><trkpt lat="46.44130393713219" lon="9.771708665607358"><ele>1793.0</ele><time>2026-05-02T09:33:51Z</time></trkpt><trkpt lat="46.44120864719379" lon="9.77146487126618"><ele>1794.0</ele><time>2026-05-02T09:33:52Z</time></trkpt><trkpt lat="46.44110903479552" lon="9.771220823981654"><ele>1795.0</ele><time>2026-05-02T09:33:53Z</time></trkpt><trkpt lat="46.441013854380955" lon="9.770980463916377"><ele>1796.0</ele><time>2026-05-02T09:33:54Z</time></trkpt><trkpt lat="46.44091480082525" lon="9.7707348522768"><ele>1796.0</ele><time>2026-05-02T09:33:55Z</time></trkpt><trkpt lat="46.44081099249617" lon="9.77048169146003"><ele>1796.0</ele><time>2026-05-02T09:33:56Z</time></trkpt><trkpt lat="46.440703517276205" lon="9.770233821852484"><ele>1796.0</ele><time>2026-05-02T09:33:57Z</time></trkpt><trkpt lat="46.44059907314042" lon="9.769970321717054"><ele>1796.0</ele><time>2026-05-02T09:33:58Z</time></trkpt><trkpt lat="46.44049192577727" lon="9.769699312288568"><ele>1796.0</ele><time>2026-05-02T09:33:59Z</time></trkpt><trkpt lat="46.4403791912364" lon="9.769434344468214"><ele>1796.0</ele><time>2026-05-02T09:34:00Z</time></trkpt><trkpt lat="46.440268759708054" lon="9.76917748845807"><ele>1795.6666666666665</ele><time>2026-05-02T09:34:01Z</time></trkpt><trkpt lat="46.4401602469927" lon="9.768910083791202"><ele>1795.3333333333335</ele><time>2026-05-02T09:34:02Z</time></trkpt><trkpt lat="46.44005604819014" lon="9.76865088053968"><ele>1795.0</ele><time>2026-05-02T09:34:03Z</time></trkpt><trkpt lat="46.43995226271279" lon="9.768414019340623"><ele>1795.6666666666667</ele><time>2026-05-02T09:34:04Z</time></trkpt><trkpt lat="46.439854546718095" lon="9.768187403646166"><ele>1796.3333333333335</ele><time>2026-05-02T09:34:05Z</time></trkpt><trkpt lat="46.439753864756256" lon="9.767949132477586"><ele>1797.0</ele><time>2026-05-02T09:34:06Z</time></trkpt><trkpt lat="46.4396611828989" lon="9.767707712712712"><ele>1797.3333333333335</ele><time>2026-05-02T09:34:07Z</time></trkpt><trkpt lat="46.43956632401265" lon="9.767475356834995"><ele>1797.6666666666667</ele><time>2026-05-02T09:34:07.999Z</time></trkpt><trkpt lat="46.439473209924266" lon="9.76724703295114"><ele>1798.0</ele><time>2026-05-02T09:34:08.999Z</time></trkpt><trkpt lat="46.439384489029024" lon="9.767031765026447"><ele>1798.0</ele><time>2026-05-02T09:34:09.999Z</time></trkpt><trkpt lat="46.4393098697893" lon="9.766856128398627"><ele>1798.0</ele><time>2026-05-02T09:34:10.999Z</time></trkpt><trkpt lat="46.439256702719" lon="9.766705648598986"><ele>1798.0</ele><time>2026-05-02T09:34:11.999Z</time></trkpt><trkpt lat="46.43920327212468" lon="9.766566004101985"><ele>1798.0</ele><time>2026-05-02T09:34:12.999Z</time></trkpt><trkpt lat="46.43915552270155" lon="9.76644721675752"><ele>1797.9999999999998</ele><time>2026-05-02T09:34:13.999Z</time></trkpt><trkpt lat="46.439119471720296" lon="9.76633867548899"><ele>1798.0</ele><time>2026-05-02T09:34:14.999Z</time></trkpt><trkpt lat="46.439087773460855" lon="9.76623475981907"><ele>1797.9999999999998</ele><time>2026-05-02T09:34:15.999Z</time></trkpt><trkpt lat="46.439063530297545" lon="9.766139226306786"><ele>1797.9999999999998</ele><time>2026-05-02T09:34:16.999Z</time></trkpt><trkpt lat="46.439069212074344" lon="9.766031858967786"><ele>1798.0</ele><time>2026-05-02T09:34:17.999Z</time></trkpt><trkpt lat="46.43908209179279" lon="9.765925068827201"><ele>1797.9999999999998</ele><time>2026-05-02T09:34:18.999Z</time></trkpt><trkpt lat="46.43907457825805" lon="9.76582777651967"><ele>1797.9999999999998</ele><time>2026-05-02T09:34:19.999Z</time></trkpt><trkpt lat="46.43898742348682" lon="9.765695772203655"><ele>1798.4</ele><time>2026-05-02T09:34:21.999Z</time></trkpt><trkpt lat="46.43890854929746" lon="9.765645139226033"><ele>1798.8000000000002</ele><time>2026-05-02T09:34:22.999Z</time></trkpt><trkpt lat="46.43882952821707" lon="9.765547797836765"><ele>1799.2</ele><time>2026-05-02T09:34:23.999Z</time></trkpt><trkpt lat="46.43876049482226" lon="9.765427449186909"><ele>1799.6</ele><time>2026-05-02T09:34:24.999Z</time></trkpt><trkpt lat="46.43869915593982" lon="9.765305814525195"><ele>1800.0</ele><time>2026-05-02T09:34:25.999Z</time></trkpt><trkpt lat="46.43864543187425" lon="9.765170130244288"><ele>1800.0</ele><time>2026-05-02T09:34:26.999Z</time></trkpt><trkpt lat="46.438575801700004" lon="9.765017781677615"><ele>1800.0</ele><time>2026-05-02T09:34:27.999Z</time></trkpt><trkpt lat="46.43850147116912" lon="9.764837962813392"><ele>1800.0</ele><time>2026-05-02T09:34:28.999Z</time></trkpt><trkpt lat="46.43843412247789" lon="9.764643152616577"><ele>1800.0</ele><time>2026-05-02T09:34:29.999Z</time></trkpt><trkpt lat="46.43836405117569" lon="9.764438682075737"><ele>1800.3333333333335</ele><time>2026-05-02T09:34:30.999Z</time></trkpt><trkpt lat="46.438287529784354" lon="9.764232442854093"><ele>1800.6666666666667</ele><time>2026-05-02T09:34:31.999Z</time></trkpt><trkpt lat="46.43817797170195" lon="9.763974995715754"><ele>1801.0</ele><time>2026-05-02T09:34:32.999Z</time></trkpt><trkpt lat="46.438085381090374" lon="9.763704362984418"><ele>1800.3333333333335</ele><time>2026-05-02T09:34:33.999Z</time></trkpt><trkpt lat="46.43802942295454" lon="9.763470882366528"><ele>1799.6666666666665</ele><time>2026-05-02T09:34:34.999Z</time></trkpt><trkpt lat="46.43799239613927" lon="9.763305856842495"><ele>1799.0</ele><time>2026-05-02T09:34:35.999Z</time></trkpt><trkpt lat="46.437949942226574" lon="9.763081819145038"><ele>1799.0</ele><time>2026-05-02T09:34:36.999Z</time></trkpt><trkpt lat="46.43789782267203" lon="9.762818319201934"><ele>1799.0</ele><time>2026-05-02T09:34:37.999Z</time></trkpt><trkpt lat="46.43786380819075" lon="9.762557635857812"><ele>1799.0</ele><time>2026-05-02T09:34:38.999Z</time></trkpt><trkpt lat="46.43784208821967" lon="9.762303877153434"><ele>1799.6666666666665</ele><time>2026-05-02T09:34:39.999Z</time></trkpt><trkpt lat="46.437825714636894" lon="9.76205056520124"><ele>1800.3333333333335</ele><time>2026-05-02T09:34:40.999Z</time></trkpt><trkpt lat="46.43780711520609" lon="9.761790588049994"><ele>1801.0</ele><time>2026-05-02T09:34:41.999Z</time></trkpt><trkpt lat="46.43777408275882" lon="9.76152809738828"><ele>1801.6666666666667</ele><time>2026-05-02T09:34:42.999Z</time></trkpt><trkpt lat="46.437729526509656" lon="9.761251520318284"><ele>1802.3333333333335</ele><time>2026-05-02T09:34:43.999Z</time></trkpt><trkpt lat="46.4376707736328" lon="9.760974558256889"><ele>1803.0</ele><time>2026-05-02T09:34:44.999Z</time></trkpt><trkpt lat="46.43758853814932" lon="9.760691817769382"><ele>1807.6666666666665</ele><time>2026-05-02T09:34:45.999Z</time></trkpt><trkpt lat="46.43749637543782" lon="9.760411586080679"><ele>1812.3333333333333</ele><time>2026-05-02T09:34:46.999Z</time></trkpt><trkpt lat="46.4373920271508" lon="9.760150376686981"><ele>1817.0</ele><time>2026-05-02T09:34:47.999Z</time></trkpt><trkpt lat="46.437273135971765" lon="9.75991323211008"><ele>1813.3333333333333</ele><time>2026-05-02T09:34:48.999Z</time></trkpt><trkpt lat="46.43713982039177" lon="9.759646076007874"><ele>1809.6666666666665</ele><time>2026-05-02T09:34:49.999Z</time></trkpt><trkpt lat="46.43701080914291" lon="9.759388310322835"><ele>1806.0</ele><time>2026-05-02T09:34:50.999Z</time></trkpt><trkpt lat="46.43688430164185" lon="9.75912030227078"><ele>1806.0</ele><time>2026-05-02T09:34:51.999Z</time></trkpt><trkpt lat="46.436756028987766" lon="9.758851135238228"><ele>1806.0</ele><time>2026-05-02T09:34:52.999Z</time></trkpt><trkpt lat="46.43663138738331" lon="9.758577186190445"><ele>1815.0</ele><time>2026-05-02T09:34:53.999Z</time></trkpt><trkpt lat="46.43651551385502" lon="9.758289523680187"><ele>1824.0</ele><time>2026-05-02T09:34:54.999Z</time></trkpt><trkpt lat="46.43641559079875" lon="9.757987579207063"><ele>1832.3333333333335</ele><time>2026-05-02T09:34:55.999Z</time></trkpt><trkpt lat="46.43633343591176" lon="9.757690101629557"><ele>1840.6666666666667</ele><time>2026-05-02T09:34:56.999Z</time></trkpt><trkpt lat="46.436263892747384" lon="9.757380025315848"><ele>1849.0</ele><time>2026-05-02T09:34:57.999Z</time></trkpt><trkpt lat="46.43619203904228" lon="9.757069702878457"><ele>1827.0</ele><time>2026-05-02T09:34:58.999Z</time></trkpt><trkpt lat="46.436103535393386" lon="9.75676369360612"><ele>1805.0</ele><time>2026-05-02T09:34:59.999Z</time></trkpt><trkpt lat="46.43599999742496" lon="9.756471900149492"><ele>1805.0</ele><time>2026-05-02T09:35:00.999Z</time></trkpt><trkpt lat="46.43587893532193" lon="9.756176806894624"><ele>1805.0</ele><time>2026-05-02T09:35:01.999Z</time></trkpt><trkpt lat="46.435739715859214" lon="9.755910626610534"><ele>1806.6666666666665</ele><time>2026-05-02T09:35:02.999Z</time></trkpt><trkpt lat="46.43560951571675" lon="9.755669369279518"><ele>1808.3333333333335</ele><time>2026-05-02T09:35:03.999Z</time></trkpt><trkpt lat="46.43547683380337" lon="9.755451153464058"><ele>1810.0</ele><time>2026-05-02T09:35:04.998Z</time></trkpt><trkpt lat="46.435357719443175" lon="9.755246328042245"><ele>1807.75</ele><time>2026-05-02T09:35:05.998Z</time></trkpt><trkpt lat="46.43526490824198" lon="9.7550823642652"><ele>1805.5</ele><time>2026-05-02T09:35:06.998Z</time></trkpt><trkpt lat="46.435185510909925" lon="9.754940186452755"><ele>1803.25</ele><time>2026-05-02T09:35:07.998Z</time></trkpt><trkpt lat="46.4351192536462" lon="9.75481719796808"><ele>1801.0</ele><time>2026-05-02T09:35:08.998Z</time></trkpt><trkpt lat="46.435064654298564" lon="9.754708124840644"><ele>1801.0</ele><time>2026-05-02T09:35:09.998Z</time></trkpt><trkpt lat="46.43501889401835" lon="9.754597811192292"><ele>1801.0</ele><time>2026-05-02T09:35:10.998Z</time></trkpt><trkpt lat="46.43497451571371" lon="9.754495675947098"><ele>1801.0</ele><time>2026-05-02T09:35:11.998Z</time></trkpt><trkpt lat="46.43491549394817" lon="9.754378352060405"><ele>1801.0</ele><time>2026-05-02T09:35:12.998Z</time></trkpt><trkpt lat="46.43485424808179" lon="9.754239346741295"><ele>1801.0</ele><time>2026-05-02T09:35:13.998Z</time></trkpt><trkpt lat="46.43478547886945" lon="9.754074375440604"><ele>1801.0</ele><time>2026-05-02T09:35:14.998Z</time></trkpt><trkpt lat="46.43472171951736" lon="9.753901331135289"><ele>1801.0</ele><time>2026-05-02T09:35:15.998Z</time></trkpt><trkpt lat="46.43466864762573" lon="9.75371213203589"><ele>1801.0</ele><time>2026-05-02T09:35:16.998Z</time></trkpt><trkpt lat="46.43461042878835" lon="9.753507605605304"><ele>1801.0</ele><time>2026-05-02T09:35:17.998Z</time></trkpt><trkpt lat="46.434562044955136" lon="9.753285721220411"><ele>1801.0</ele><time>2026-05-02T09:35:18.998Z</time></trkpt><trkpt lat="46.43450713065151" lon="9.753065544848882"><ele>1801.0</ele><time>2026-05-02T09:35:19.998Z</time></trkpt><trkpt lat="46.434453477903276" lon="9.752849063864087"><ele>1801.0</ele><time>2026-05-02T09:35:20.998Z</time></trkpt><trkpt lat="46.43439738416947" lon="9.75261107015992"><ele>1802.0</ele><time>2026-05-02T09:35:21.998Z</time></trkpt><trkpt lat="46.43432816279512" lon="9.75236831827996"><ele>1803.0</ele><time>2026-05-02T09:35:22.998Z</time></trkpt><trkpt lat="46.43424674264001" lon="9.752119594285473"><ele>1804.0</ele><time>2026-05-02T09:35:23.998Z</time></trkpt><trkpt lat="46.43415151009239" lon="9.751870231444823"><ele>1801.3333333333335</ele><time>2026-05-02T09:35:24.998Z</time></trkpt><trkpt lat="46.43404094289027" lon="9.751622382018693"><ele>1798.6666666666665</ele><time>2026-05-02T09:35:25.998Z</time></trkpt><trkpt lat="46.433899449307035" lon="9.751369270245245"><ele>1796.0</ele><time>2026-05-02T09:35:26.998Z</time></trkpt><trkpt lat="46.43376558216421" lon="9.751127787024707"><ele>1799.0</ele><time>2026-05-02T09:35:27.998Z</time></trkpt><trkpt lat="46.433635977752964" lon="9.75089133414406"><ele>1802.0</ele><time>2026-05-02T09:35:28.998Z</time></trkpt><trkpt lat="46.43351155643555" lon="9.75065059306307"><ele>1805.0</ele><time>2026-05-02T09:35:29.998Z</time></trkpt><trkpt lat="46.43338108789099" lon="9.750387914841147"><ele>1811.0</ele><time>2026-05-02T09:35:31Z</time></trkpt><trkpt lat="46.4332550459715" lon="9.750116151082908"><ele>1817.0</ele><time>2026-05-02T09:35:32Z</time></trkpt><trkpt lat="46.433145648561236" lon="9.749827589224347"><ele>1817.0</ele><time>2026-05-02T09:35:33Z</time></trkpt><trkpt lat="46.433043233227664" lon="9.749530049172431"><ele>1817.0</ele><time>2026-05-02T09:35:34Z</time></trkpt><trkpt lat="46.432936870265145" lon="9.749210347745409"><ele>1808.0</ele><time>2026-05-02T09:35:35Z</time></trkpt><trkpt lat="46.43284171849339" lon="9.748887469135061"><ele>1799.0</ele><time>2026-05-02T09:35:36Z</time></trkpt><trkpt lat="46.43276605103622" lon="9.748561548755143"><ele>1800.3333333333333</ele><time>2026-05-02T09:35:37Z</time></trkpt><trkpt lat="46.43271885306317" lon="9.748257183404945"><ele>1801.6666666666665</ele><time>2026-05-02T09:35:38Z</time></trkpt><trkpt lat="46.43268658346852" lon="9.747955489202417"><ele>1803.0</ele><time>2026-05-02T09:35:39Z</time></trkpt><trkpt lat="46.43269120210613" lon="9.747645021163768"><ele>1804.0</ele><time>2026-05-02T09:35:40Z</time></trkpt><trkpt lat="46.43270559730865" lon="9.747325310652503"><ele>1805.0</ele><time>2026-05-02T09:35:41Z</time></trkpt><trkpt lat="46.43274325497006" lon="9.746959007154729"><ele>1805.0</ele><time>2026-05-02T09:35:42Z</time></trkpt><trkpt lat="46.43278507041964" lon="9.746567980582613"><ele>1805.0</ele><time>2026-05-02T09:35:43Z</time></trkpt><trkpt lat="46.43283152821127" lon="9.746204453303063"><ele>1803.5</ele><time>2026-05-02T09:35:44Z</time></trkpt><trkpt lat="46.43284284435391" lon="9.745843895257657"><ele>1802.0</ele><time>2026-05-02T09:35:45Z</time></trkpt><trkpt lat="46.43282616993686" lon="9.74548874115351"><ele>1805.0</ele><time>2026-05-02T09:35:46Z</time></trkpt><trkpt lat="46.4327675231091" lon="9.74513021783511"><ele>1808.0</ele><time>2026-05-02T09:35:47Z</time></trkpt><trkpt lat="46.43268497661051" lon="9.74478338410805"><ele>1808.0</ele><time>2026-05-02T09:35:48Z</time></trkpt><trkpt lat="46.43257440523894" lon="9.744462139873058"><ele>1808.0</ele><time>2026-05-02T09:35:49Z</time></trkpt><trkpt lat="46.43242760101242" lon="9.744161270086284"><ele>1811.5</ele><time>2026-05-02T09:35:50Z</time></trkpt><trkpt lat="46.43227166229821" lon="9.74389371949127"><ele>1815.0</ele><time>2026-05-02T09:35:51Z</time></trkpt><trkpt lat="46.43210752060448" lon="9.743668230922857"><ele>1812.3333333333335</ele><time>2026-05-02T09:35:52Z</time></trkpt><trkpt lat="46.4319490633279" lon="9.743469076298531"><ele>1809.6666666666667</ele><time>2026-05-02T09:35:53Z</time></trkpt><trkpt lat="46.43179746376164" lon="9.743286633760214"><ele>1807.0</ele><time>2026-05-02T09:35:54Z</time></trkpt><trkpt lat="46.43166864233141" lon="9.7431141164092"><ele>1807.0</ele><time>2026-05-02T09:35:55Z</time></trkpt><trkpt lat="46.431576608054954" lon="9.742921226313435"><ele>1807.0</ele><time>2026-05-02T09:35:56Z</time></trkpt><trkpt lat="46.43149923316998" lon="9.742715213244235"><ele>1807.0</ele><time>2026-05-02T09:35:57Z</time></trkpt><trkpt lat="46.43141562725901" lon="9.74248793140117"><ele>1806.3333333333335</ele><time>2026-05-02T09:35:58Z</time></trkpt><trkpt lat="46.431357315716674" lon="9.742237895444996"><ele>1805.6666666666665</ele><time>2026-05-02T09:35:59Z</time></trkpt><trkpt lat="46.431320887425095" lon="9.7419799215942"><ele>1805.0</ele><time>2026-05-02T09:36:00Z</time></trkpt><trkpt lat="46.43127537316417" lon="9.741729936521265"><ele>1805.0</ele><time>2026-05-02T09:36:01Z</time></trkpt><trkpt lat="46.43123300093242" lon="9.741480435053004"><ele>1805.0</ele><time>2026-05-02T09:36:02Z</time></trkpt><trkpt lat="46.43117696737803" lon="9.741224094099916"><ele>1805.0</ele><time>2026-05-02T09:36:03Z</time></trkpt><trkpt lat="46.43109169312457" lon="9.74095321760957"><ele>1808.0</ele><time>2026-05-02T09:36:04Z</time></trkpt><trkpt lat="46.43099123580073" lon="9.740680728611812"><ele>1811.0</ele><time>2026-05-02T09:36:05Z</time></trkpt><trkpt lat="46.430872362515586" lon="9.740394552416763"><ele>1814.0</ele><time>2026-05-02T09:36:06Z</time></trkpt><trkpt lat="46.43074467461719" lon="9.740091563554152"><ele>1820.0</ele><time>2026-05-02T09:36:07Z</time></trkpt><trkpt lat="46.43062385832644" lon="9.739793571854351"><ele>1826.0</ele><time>2026-05-02T09:36:08Z</time></trkpt><trkpt lat="46.43051055802149" lon="9.739509898077266"><ele>1818.6666666666665</ele><time>2026-05-02T09:36:09Z</time></trkpt><trkpt lat="46.43039401927585" lon="9.739247490517588"><ele>1811.3333333333335</ele><time>2026-05-02T09:36:10Z</time></trkpt><trkpt lat="46.430255911553346" lon="9.73902264744512"><ele>1804.0</ele><time>2026-05-02T09:36:10.999Z</time></trkpt><trkpt lat="46.430084504961314" lon="9.73881923444483"><ele>1804.0</ele><time>2026-05-02T09:36:11.999Z</time></trkpt><trkpt lat="46.42989530298142" lon="9.738624761467463"><ele>1804.0</ele><time>2026-05-02T09:36:12.999Z</time></trkpt><trkpt lat="46.42970321659331" lon="9.738444174538081"><ele>1804.0</ele><time>2026-05-02T09:36:13.999Z</time></trkpt><trkpt lat="46.42954705344637" lon="9.738216786592144"><ele>1804.0</ele><time>2026-05-02T09:36:14.999Z</time></trkpt><trkpt lat="46.429391624646264" lon="9.737972429264357"><ele>1810.5</ele><time>2026-05-02T09:36:15.999Z</time></trkpt><trkpt lat="46.42924206712274" lon="9.737718029569145"><ele>1817.0</ele><time>2026-05-02T09:36:16.999Z</time></trkpt><trkpt lat="46.429095502747586" lon="9.737469168380835"><ele>1817.0</ele><time>2026-05-02T09:36:17.999Z</time></trkpt><trkpt lat="46.4289873923972" lon="9.737205058940967"><ele>1817.0</ele><time>2026-05-02T09:36:18.999Z</time></trkpt><trkpt lat="46.42887524970261" lon="9.73700585565376"><ele>1817.0</ele><time>2026-05-02T09:36:19.999Z</time></trkpt><trkpt lat="46.42879872791831" lon="9.736813393817778"><ele>1814.0</ele><time>2026-05-02T09:36:20.999Z</time></trkpt><trkpt lat="46.42874580280975" lon="9.736622368778164"><ele>1811.0</ele><time>2026-05-02T09:36:21.999Z</time></trkpt><trkpt lat="46.42872976770074" lon="9.736409519793618"><ele>1808.0</ele><time>2026-05-02T09:36:22.999Z</time></trkpt><trkpt lat="46.428753617773175" lon="9.736233198220084"><ele>1805.0</ele><time>2026-05-02T09:36:23.999Z</time></trkpt><trkpt lat="46.428731145715076" lon="9.736043906984712"><ele>1805.0</ele><time>2026-05-02T09:36:24.999Z</time></trkpt><trkpt lat="46.42871921962225" lon="9.735918584707049"><ele>1805.0</ele><time>2026-05-02T09:36:25.999Z</time></trkpt><trkpt lat="46.42876853160302" lon="9.735515574797311"><ele>1805.0</ele><time>2026-05-02T09:36:26.999Z</time></trkpt><trkpt lat="46.428804102495604" lon="9.73529007007158"><ele>1817.6666666666665</ele><time>2026-05-02T09:36:27.999Z</time></trkpt><trkpt lat="46.42882068864505" lon="9.735059492984306"><ele>1830.3333333333335</ele><time>2026-05-02T09:36:28.999Z</time></trkpt><trkpt lat="46.428852932025016" lon="9.734843907103356"><ele>1843.0</ele><time>2026-05-02T09:36:29.999Z</time></trkpt><trkpt lat="46.428874492550854" lon="9.734625969929379"><ele>1843.0</ele><time>2026-05-02T09:36:30.999Z</time></trkpt><trkpt lat="46.42888733942051" lon="9.734443527426285"><ele>1843.0</ele><time>2026-05-02T09:36:31.999Z</time></trkpt><trkpt lat="46.42855149604336" lon="9.73420794258741"><ele>1837.3333333333335</ele><time>2026-05-02T09:36:32.999Z</time></trkpt><trkpt lat="46.42838625592605" lon="9.734039377222445"><ele>1831.6666666666665</ele><time>2026-05-02T09:36:33.999Z</time></trkpt><trkpt lat="46.428201696530046" lon="9.73391637822891"><ele>1826.0</ele><time>2026-05-02T09:36:34.999Z</time></trkpt><trkpt lat="46.42800904862647" lon="9.733778760934886"><ele>1824.0</ele><time>2026-05-02T09:36:35.999Z</time></trkpt><trkpt lat="46.42782189707742" lon="9.733609514933153"><ele>1822.0</ele><time>2026-05-02T09:36:36.999Z</time></trkpt><trkpt lat="46.42766751717136" lon="9.733371821751085"><ele>1820.0</ele><time>2026-05-02T09:36:37.999Z</time></trkpt><trkpt lat="46.427519646779416" lon="9.733182781077119"><ele>1820.0</ele><time>2026-05-02T09:36:38.999Z</time></trkpt><trkpt lat="46.427376469640635" lon="9.733007257406793"><ele>1820.0</ele><time>2026-05-02T09:36:39.999Z</time></trkpt><trkpt lat="46.42724656781987" lon="9.732793412166385"><ele>1820.0</ele><time>2026-05-02T09:36:40.999Z</time></trkpt><trkpt lat="46.4271220592591" lon="9.73255468064958"><ele>1821.0</ele><time>2026-05-02T09:36:41.999Z</time></trkpt><trkpt lat="46.427002985541634" lon="9.732307487146134"><ele>1822.0</ele><time>2026-05-02T09:36:42.999Z</time></trkpt><trkpt lat="46.42687186421648" lon="9.732049523195789"><ele>1823.0</ele><time>2026-05-02T09:36:43.999Z</time></trkpt><trkpt lat="46.426726807115166" lon="9.731788194190573"><ele>1823.0</ele><time>2026-05-02T09:36:44.999Z</time></trkpt><trkpt lat="46.42657684475916" lon="9.731561653378805"><ele>1823.0</ele><time>2026-05-02T09:36:45.999Z</time></trkpt><trkpt lat="46.4264143142405" lon="9.731318854020813"><ele>1818.0</ele><time>2026-05-02T09:36:46.999Z</time></trkpt><trkpt lat="46.426260046928164" lon="9.731070057839212"><ele>1813.0</ele><time>2026-05-02T09:36:47.999Z</time></trkpt><trkpt lat="46.426096543835214" lon="9.730811239075637"><ele>1813.0</ele><time>2026-05-02T09:36:48.999Z</time></trkpt><trkpt lat="46.425945550593426" lon="9.730541745799414"><ele>1813.0</ele><time>2026-05-02T09:36:49.999Z</time></trkpt><trkpt lat="46.42579334161896" lon="9.730195364428189"><ele>1815.5</ele><time>2026-05-02T09:36:50.999Z</time></trkpt><trkpt lat="46.425646528435145" lon="9.729872693379752"><ele>1818.0</ele><time>2026-05-02T09:36:51.999Z</time></trkpt><trkpt lat="46.42552120405641" lon="9.729544483491324"><ele>1811.0</ele><time>2026-05-02T09:36:52.999Z</time></trkpt><trkpt lat="46.42539174027026" lon="9.729200038549264"><ele>1804.0</ele><time>2026-05-02T09:36:53.999Z</time></trkpt><trkpt lat="46.425246889075716" lon="9.728878573595166"><ele>1804.0</ele><time>2026-05-02T09:36:54.999Z</time></trkpt><trkpt lat="46.42507204727775" lon="9.728578950170164"><ele>1804.0</ele><time>2026-05-02T09:36:55.999Z</time></trkpt><trkpt lat="46.42488004178835" lon="9.728303784564869"><ele>1803.0</ele><time>2026-05-02T09:36:56.999Z</time></trkpt><trkpt lat="46.42467882461807" lon="9.728027725511303"><ele>1802.0</ele><time>2026-05-02T09:36:57.999Z</time></trkpt><trkpt lat="46.42448327490198" lon="9.727769869316134"><ele>1810.5</ele><time>2026-05-02T09:36:58.999Z</time></trkpt><trkpt lat="46.42428774811105" lon="9.727503736441038"><ele>1819.0</ele><time>2026-05-02T09:36:59.999Z</time></trkpt><trkpt lat="46.4241013421058" lon="9.727250525830563"><ele>1819.0</ele><time>2026-05-02T09:37:00.999Z</time></trkpt><trkpt lat="46.42392342372243" lon="9.727020353221992"><ele>1819.0</ele><time>2026-05-02T09:37:01.999Z</time></trkpt><trkpt lat="46.42373718789583" lon="9.726824666765038"><ele>1819.0</ele><time>2026-05-02T09:37:02.999Z</time></trkpt><trkpt lat="46.42352600524009" lon="9.726642602084189"><ele>1819.0</ele><time>2026-05-02T09:37:03.999Z</time></trkpt><trkpt lat="46.4233007438031" lon="9.726494902590625"><ele>1819.0</ele><time>2026-05-02T09:37:04.999Z</time></trkpt><trkpt lat="46.423086689745595" lon="9.726377634346733"><ele>1819.0</ele><time>2026-05-02T09:37:05.999Z</time></trkpt><trkpt lat="46.422881963806375" lon="9.726327047983519"><ele>1819.0</ele><time>2026-05-02T09:37:06.999Z</time></trkpt><trkpt lat="46.42269672543967" lon="9.726288058151367"><ele>1814.75</ele><time>2026-05-02T09:37:07.999Z</time></trkpt><trkpt lat="46.4225421083249" lon="9.726274636585647"><ele>1810.5</ele><time>2026-05-02T09:37:08.999Z</time></trkpt><trkpt lat="46.42240116796245" lon="9.726283764843002"><ele>1806.25</ele><time>2026-05-02T09:37:09.999Z</time></trkpt><trkpt lat="46.42226732013076" lon="9.726301310565233"><ele>1802.0</ele><time>2026-05-02T09:37:10.998Z</time></trkpt><trkpt lat="46.42212761345394" lon="9.726313904485878"><ele>1801.0</ele><time>2026-05-02T09:37:11.998Z</time></trkpt><trkpt lat="46.42199047747178" lon="9.726316356413298"><ele>1800.0</ele><time>2026-05-02T09:37:12.998Z</time></trkpt><trkpt lat="46.421845202567624" lon="9.726320431904536"><ele>1799.0</ele><time>2026-05-02T09:37:13.998Z</time></trkpt><trkpt lat="46.421706241212526" lon="9.726320041291045"><ele>1798.0</ele><time>2026-05-02T09:37:14.998Z</time></trkpt><trkpt lat="46.42155620222337" lon="9.726328319579165"><ele>1798.0</ele><time>2026-05-02T09:37:15.998Z</time></trkpt><trkpt lat="46.4214135058907" lon="9.7263385907604"><ele>1798.0</ele><time>2026-05-02T09:37:16.998Z</time></trkpt><trkpt lat="46.421267978013944" lon="9.72634343099859"><ele>1798.0</ele><time>2026-05-02T09:37:17.998Z</time></trkpt><trkpt lat="46.421132312905726" lon="9.726352746756945"><ele>1798.0</ele><time>2026-05-02T09:37:18.998Z</time></trkpt><trkpt lat="46.42099598098641" lon="9.726358774089697"><ele>1798.0</ele><time>2026-05-02T09:37:19.998Z</time></trkpt><trkpt lat="46.42085688317467" lon="9.726365889510237"><ele>1798.0</ele><time>2026-05-02T09:37:20.998Z</time></trkpt><trkpt lat="46.42071648006129" lon="9.726381687689306"><ele>1798.0</ele><time>2026-05-02T09:37:21.998Z</time></trkpt><trkpt lat="46.420581283757315" lon="9.72640843583913"><ele>1798.0</ele><time>2026-05-02T09:37:22.998Z</time></trkpt><trkpt lat="46.420452493121516" lon="9.726455456290136"><ele>1800.0</ele><time>2026-05-02T09:37:23.998Z</time></trkpt><trkpt lat="46.42032179240487" lon="9.726510923739887"><ele>1802.0</ele><time>2026-05-02T09:37:24.998Z</time></trkpt><trkpt lat="46.42019085132532" lon="9.726572332514392"><ele>1804.0</ele><time>2026-05-02T09:37:25.998Z</time></trkpt><trkpt lat="46.42006459261785" lon="9.726641904084351"><ele>1806.0</ele><time>2026-05-02T09:37:26.998Z</time></trkpt><trkpt lat="46.41994238545951" lon="9.726732407648125"><ele>1806.0</ele><time>2026-05-02T09:37:27.998Z</time></trkpt><trkpt lat="46.41982710474959" lon="9.726841222230204"><ele>1806.0</ele><time>2026-05-02T09:37:28.998Z</time></trkpt><trkpt lat="46.41971787235685" lon="9.72696973544815"><ele>1806.0</ele><time>2026-05-02T09:37:29.998Z</time></trkpt><trkpt lat="46.41960140692801" lon="9.72709652528872"><ele>1806.0</ele><time>2026-05-02T09:37:30.998Z</time></trkpt><trkpt lat="46.41949823973312" lon="9.727229422733506"><ele>1808.25</ele><time>2026-05-02T09:37:31.998Z</time></trkpt><trkpt lat="46.419386363617626" lon="9.727363354720325"><ele>1810.5</ele><time>2026-05-02T09:37:32.998Z</time></trkpt><trkpt lat="46.41926855295825" lon="9.727471402051448"><ele>1812.75</ele><time>2026-05-02T09:37:33.998Z</time></trkpt><trkpt lat="46.419128309799405" lon="9.727512511557311"><ele>1815.0</ele><time>2026-05-02T09:37:34.998Z</time></trkpt><trkpt lat="46.4189844231437" lon="9.72749054865064"><ele>1815.0</ele><time>2026-05-02T09:37:35.998Z</time></trkpt><trkpt lat="46.41885551372578" lon="9.727403436761639"><ele>1815.0</ele><time>2026-05-02T09:37:37Z</time></trkpt><trkpt lat="46.41872914114794" lon="9.727255218118993"><ele>1815.0</ele><time>2026-05-02T09:37:38Z</time></trkpt><trkpt lat="46.418611653897166" lon="9.727062529562382"><ele>1814.3333333333335</ele><time>2026-05-02T09:37:39Z</time></trkpt><trkpt lat="46.41852104423218" lon="9.726870191926565"><ele>1813.6666666666667</ele><time>2026-05-02T09:37:40Z</time></trkpt><trkpt lat="46.418421308986076" lon="9.726638847511937"><ele>1813.0</ele><time>2026-05-02T09:37:41Z</time></trkpt><trkpt lat="46.4183435246019" lon="9.726411536693618"><ele>1813.0</ele><time>2026-05-02T09:37:42Z</time></trkpt><trkpt lat="46.41827446483753" lon="9.726171524430677"><ele>1813.0</ele><time>2026-05-02T09:37:43Z</time></trkpt><trkpt lat="46.4182020922097" lon="9.725932670584237"><ele>1813.0</ele><time>2026-05-02T09:37:44Z</time></trkpt><trkpt lat="46.41809218839071" lon="9.725714073117727"><ele>1811.3333333333335</ele><time>2026-05-02T09:37:45Z</time></trkpt><trkpt lat="46.41801202194784" lon="9.725453804098336"><ele>1809.6666666666665</ele><time>2026-05-02T09:37:46Z</time></trkpt><trkpt lat="46.417924571296254" lon="9.725202019990181"><ele>1808.0</ele><time>2026-05-02T09:37:47Z</time></trkpt><trkpt lat="46.41784829138074" lon="9.724937851148287"><ele>1808.0</ele><time>2026-05-02T09:37:48Z</time></trkpt><trkpt lat="46.41776472639584" lon="9.724661163764459"><ele>1808.0</ele><time>2026-05-02T09:37:49Z</time></trkpt><trkpt lat="46.41768832871531" lon="9.724365157437742"><ele>1808.0</ele><time>2026-05-02T09:37:50Z</time></trkpt><trkpt lat="46.41758152379171" lon="9.724049139801535"><ele>1814.0</ele><time>2026-05-02T09:37:51Z</time></trkpt><trkpt lat="46.417459855515645" lon="9.723710339754781"><ele>1820.0</ele><time>2026-05-02T09:37:52Z</time></trkpt><trkpt lat="46.417336029035596" lon="9.723365165414489"><ele>1814.0</ele><time>2026-05-02T09:37:53Z</time></trkpt><trkpt lat="46.41721251121654" lon="9.723004017462973"><ele>1808.0</ele><time>2026-05-02T09:37:54Z</time></trkpt><trkpt lat="46.4170721495739" lon="9.722625265750342"><ele>1808.0</ele><time>2026-05-02T09:37:55Z</time></trkpt><trkpt lat="46.41696777921322" lon="9.722219201201588"><ele>1808.0</ele><time>2026-05-02T09:37:56Z</time></trkpt><trkpt lat="46.4168519732502" lon="9.721804644995009"><ele>1813.0</ele><time>2026-05-02T09:37:57Z</time></trkpt><trkpt lat="46.416727873740584" lon="9.721356149082718"><ele>1818.0</ele><time>2026-05-02T09:37:58Z</time></trkpt><trkpt lat="46.41658292519391" lon="9.72089280576989"><ele>1812.5</ele><time>2026-05-02T09:37:59Z</time></trkpt><trkpt lat="46.4164077269719" lon="9.720447165182131"><ele>1807.0</ele><time>2026-05-02T09:38:00Z</time></trkpt><trkpt lat="46.416256571522396" lon="9.72002481397592"><ele>1807.0</ele><time>2026-05-02T09:38:01Z</time></trkpt><trkpt lat="46.41611973861186" lon="9.719634286074129"><ele>1807.0</ele><time>2026-05-02T09:38:02Z</time></trkpt><trkpt lat="46.41602247406364" lon="9.719283491853552"><ele>1810.0</ele><time>2026-05-02T09:38:03Z</time></trkpt><trkpt lat="46.41593047567075" lon="9.718961144603597"><ele>1813.0</ele><time>2026-05-02T09:38:04Z</time></trkpt><trkpt lat="46.415835009448955" lon="9.718669605854258"><ele>1815.0</ele><time>2026-05-02T09:38:05Z</time></trkpt><trkpt lat="46.41570237292769" lon="9.718399423762627"><ele>1817.0</ele><time>2026-05-02T09:38:06Z</time></trkpt><trkpt lat="46.415548329379625" lon="9.718183591877839"><ele>1819.0</ele><time>2026-05-02T09:38:07Z</time></trkpt><trkpt lat="46.41539558904032" lon="9.717984950854683"><ele>1815.0</ele><time>2026-05-02T09:38:08Z</time></trkpt><trkpt lat="46.415270387125716" lon="9.717785980717379"><ele>1811.0</ele><time>2026-05-02T09:38:09Z</time></trkpt><trkpt lat="46.415163495764666" lon="9.71755444602073"><ele>1807.0</ele><time>2026-05-02T09:38:10Z</time></trkpt><trkpt lat="46.41510403634681" lon="9.717280767925203"><ele>1807.0</ele><time>2026-05-02T09:38:11Z</time></trkpt><trkpt lat="46.41503440279949" lon="9.71699582763307"><ele>1807.0</ele><time>2026-05-02T09:38:12Z</time></trkpt><trkpt lat="46.41496138895378" lon="9.716690528145962"><ele>1807.0</ele><time>2026-05-02T09:38:13Z</time></trkpt><trkpt lat="46.41487253816035" lon="9.716326687814908"><ele>1803.5</ele><time>2026-05-02T09:38:14Z</time></trkpt><trkpt lat="46.414756795497986" lon="9.715945674196455"><ele>1800.0</ele><time>2026-05-02T09:38:15Z</time></trkpt><trkpt lat="46.414608852729465" lon="9.715581659990807"><ele>1803.5</ele><time>2026-05-02T09:38:15.999Z</time></trkpt><trkpt lat="46.414452146836666" lon="9.715219671019927"><ele>1807.0</ele><time>2026-05-02T09:38:16.999Z</time></trkpt><trkpt lat="46.4142829262371" lon="9.714877684517283"><ele>1807.0</ele><time>2026-05-02T09:38:17.999Z</time></trkpt><trkpt lat="46.41413879711241" lon="9.714541706174675"><ele>1807.0</ele><time>2026-05-02T09:38:18.999Z</time></trkpt><trkpt lat="46.41402095656073" lon="9.714234712965654"><ele>1802.0</ele><time>2026-05-02T09:38:19.999Z</time></trkpt><trkpt lat="46.41392085442025" lon="9.713926473796795"><ele>1797.0</ele><time>2026-05-02T09:38:20.999Z</time></trkpt><trkpt lat="46.4137822485936" lon="9.713654454589747"><ele>1799.5</ele><time>2026-05-02T09:38:21.999Z</time></trkpt><trkpt lat="46.413623085363746" lon="9.713384856514057"><ele>1802.0</ele><time>2026-05-02T09:38:22.999Z</time></trkpt><trkpt lat="46.41342023604297" lon="9.713140745838482"><ele>1802.0</ele><time>2026-05-02T09:38:23.999Z</time></trkpt><trkpt lat="46.413209303286735" lon="9.71290427726972"><ele>1802.0</ele><time>2026-05-02T09:38:24.999Z</time></trkpt><trkpt lat="46.41298225440191" lon="9.712662503043584"><ele>1802.0</ele><time>2026-05-02T09:38:25.999Z</time></trkpt><trkpt lat="46.412764086841996" lon="9.712425522329356"><ele>1802.0</ele><time>2026-05-02T09:38:26.999Z</time></trkpt><trkpt lat="46.41256204719192" lon="9.712187551449789"><ele>1809.5</ele><time>2026-05-02T09:38:27.999Z</time></trkpt><trkpt lat="46.41239344828835" lon="9.711886361065858"><ele>1817.0</ele><time>2026-05-02T09:38:28.999Z</time></trkpt><trkpt lat="46.41222878702604" lon="9.71160411962825"><ele>1807.5</ele><time>2026-05-02T09:38:29.999Z</time></trkpt><trkpt lat="46.41208480335971" lon="9.711333914825271"><ele>1798.0</ele><time>2026-05-02T09:38:30.999Z</time></trkpt><trkpt lat="46.41195380003263" lon="9.711075483206798"><ele>1799.6666666666667</ele><time>2026-05-02T09:38:31.999Z</time></trkpt><trkpt lat="46.41184944152672" lon="9.710805500053086"><ele>1801.3333333333335</ele><time>2026-05-02T09:38:32.999Z</time></trkpt><trkpt lat="46.411761463244865" lon="9.710525087844509"><ele>1803.0</ele><time>2026-05-02T09:38:33.999Z</time></trkpt><trkpt lat="46.41168385812933" lon="9.710240596234643"><ele>1805.6666666666665</ele><time>2026-05-02T09:38:34.999Z</time></trkpt><trkpt lat="46.41160310187769" lon="9.709989080140351"><ele>1808.3333333333333</ele><time>2026-05-02T09:38:35.999Z</time></trkpt><trkpt lat="46.411515115472795" lon="9.70977410927427"><ele>1811.0</ele><time>2026-05-02T09:38:36.999Z</time></trkpt><trkpt lat="46.41142267849599" lon="9.709603700512542"><ele>1808.75</ele><time>2026-05-02T09:38:37.999Z</time></trkpt><trkpt lat="46.411320573087146" lon="9.709452663581384"><ele>1806.5</ele><time>2026-05-02T09:38:38.999Z</time></trkpt><trkpt lat="46.41122732954448" lon="9.709302950965643"><ele>1804.25</ele><time>2026-05-02T09:38:39.999Z</time></trkpt><trkpt lat="46.41113685857092" lon="9.709182179642507"><ele>1802.0</ele><time>2026-05-02T09:38:40.999Z</time></trkpt><trkpt lat="46.41104987070536" lon="9.70905911158057"><ele>1802.0</ele><time>2026-05-02T09:38:41.999Z</time></trkpt><trkpt lat="46.41096690293149" lon="9.70891748706131"><ele>1802.0</ele><time>2026-05-02T09:38:42.999Z</time></trkpt><trkpt lat="46.41089247845149" lon="9.70874696572343"><ele>1802.0</ele><time>2026-05-02T09:38:43.999Z</time></trkpt><trkpt lat="46.41083562279179" lon="9.708566869595302"><ele>1802.0</ele><time>2026-05-02T09:38:44.999Z</time></trkpt><trkpt lat="46.41077554855344" lon="9.708378626117494"><ele>1803.3333333333333</ele><time>2026-05-02T09:38:45.999Z</time></trkpt><trkpt lat="46.410731807557916" lon="9.708123513940937"><ele>1804.6666666666665</ele><time>2026-05-02T09:38:46.999Z</time></trkpt><trkpt lat="46.410695598377835" lon="9.70785043072542"><ele>1806.0</ele><time>2026-05-02T09:38:47.999Z</time></trkpt><trkpt lat="46.41065169903986" lon="9.707528916593997"><ele>1809.6666666666665</ele><time>2026-05-02T09:38:48.999Z</time></trkpt><trkpt lat="46.410628431049055" lon="9.707211801034216"><ele>1813.3333333333333</ele><time>2026-05-02T09:38:49.999Z</time></trkpt><trkpt lat="46.41059902473156" lon="9.70688272528853"><ele>1817.0</ele><time>2026-05-02T09:38:50.999Z</time></trkpt><trkpt lat="46.410531181871036" lon="9.706559165003593"><ele>1810.5</ele><time>2026-05-02T09:38:51.999Z</time></trkpt><trkpt lat="46.410452817295216" lon="9.70623493056086"><ele>1804.0</ele><time>2026-05-02T09:38:52.999Z</time></trkpt><trkpt lat="46.41038783207251" lon="9.705900711986875"><ele>1804.0</ele><time>2026-05-02T09:38:53.999Z</time></trkpt><trkpt lat="46.41031559856423" lon="9.705596052050034"><ele>1804.0</ele><time>2026-05-02T09:38:54.999Z</time></trkpt><trkpt lat="46.41026382296891" lon="9.705304578152651"><ele>1804.0</ele><time>2026-05-02T09:38:55.999Z</time></trkpt><trkpt lat="46.410205816034434" lon="9.705051155480527"><ele>1806.0</ele><time>2026-05-02T09:38:56.999Z</time></trkpt><trkpt lat="46.41012361302525" lon="9.704813656770423"><ele>1808.0</ele><time>2026-05-02T09:38:57.999Z</time></trkpt><trkpt lat="46.40998606419619" lon="9.704560708130519"><ele>1810.0</ele><time>2026-05-02T09:38:58.999Z</time></trkpt><trkpt lat="46.40983150483996" lon="9.704337826960131"><ele>1804.5</ele><time>2026-05-02T09:38:59.999Z</time></trkpt><trkpt lat="46.409653695718376" lon="9.704147733732837"><ele>1799.0</ele><time>2026-05-02T09:39:00.999Z</time></trkpt><trkpt lat="46.409442862826374" lon="9.703991274447452"><ele>1799.0</ele><time>2026-05-02T09:39:01.999Z</time></trkpt><trkpt lat="46.40922148754644" lon="9.703871480013918"><ele>1799.0</ele><time>2026-05-02T09:39:02.999Z</time></trkpt><trkpt lat="46.40900443732962" lon="9.703731138735158"><ele>1798.6666666666665</ele><time>2026-05-02T09:39:03.999Z</time></trkpt><trkpt lat="46.408824962771085" lon="9.703568591077541"><ele>1798.3333333333335</ele><time>2026-05-02T09:39:04.999Z</time></trkpt><trkpt lat="46.40868793505519" lon="9.703385236707904"><ele>1798.0</ele><time>2026-05-02T09:39:05.999Z</time></trkpt><trkpt lat="46.40858161521531" lon="9.70319165664103"><ele>1798.0</ele><time>2026-05-02T09:39:06.999Z</time></trkpt><trkpt lat="46.40850671456571" lon="9.702986427803907"><ele>1798.0</ele><time>2026-05-02T09:39:07.999Z</time></trkpt><trkpt lat="46.40846450812754" lon="9.702779515590276"><ele>1798.0</ele><time>2026-05-02T09:39:08.999Z</time></trkpt><trkpt lat="46.40842787573176" lon="9.702585404162845"><ele>1798.0</ele><time>2026-05-02T09:39:09.999Z</time></trkpt><trkpt lat="46.40838801582327" lon="9.70239604180077"><ele>1798.75</ele><time>2026-05-02T09:39:10.999Z</time></trkpt><trkpt lat="46.408353081866665" lon="9.70221495909388"><ele>1799.5</ele><time>2026-05-02T09:39:11.999Z</time></trkpt><trkpt lat="46.40830776645596" lon="9.702055495771091"><ele>1800.25</ele><time>2026-05-02T09:39:12.999Z</time></trkpt><trkpt lat="46.408250701535835" lon="9.70187997264913"><ele>1801.0</ele><time>2026-05-02T09:39:13.999Z</time></trkpt><trkpt lat="46.4081797074946" lon="9.701717554675083"><ele>1800.75</ele><time>2026-05-02T09:39:14.999Z</time></trkpt><trkpt lat="46.40809522980458" lon="9.701577841400937"><ele>1800.5</ele><time>2026-05-02T09:39:15.999Z</time></trkpt><trkpt lat="46.40800216003473" lon="9.701433478307575"><ele>1800.25</ele><time>2026-05-02T09:39:16.998Z</time></trkpt><trkpt lat="46.40790628588776" lon="9.70128978656116"><ele>1800.0</ele><time>2026-05-02T09:39:17.998Z</time></trkpt><trkpt lat="46.40781685526985" lon="9.701142926403264"><ele>1801.25</ele><time>2026-05-02T09:39:18.998Z</time></trkpt><trkpt lat="46.40772278944329" lon="9.70100373199783"><ele>1802.5</ele><time>2026-05-02T09:39:19.998Z</time></trkpt><trkpt lat="46.40762059016308" lon="9.700850986381761"><ele>1803.75</ele><time>2026-05-02T09:39:20.998Z</time></trkpt><trkpt lat="46.407523888212815" lon="9.700707198721972"><ele>1805.0</ele><time>2026-05-02T09:39:21.998Z</time></trkpt><trkpt lat="46.40743081428955" lon="9.700570817083992"><ele>1805.0</ele><time>2026-05-02T09:39:22.998Z</time></trkpt><trkpt lat="46.407348657016215" lon="9.700439894231016"><ele>1805.0</ele><time>2026-05-02T09:39:23.998Z</time></trkpt><trkpt lat="46.40727732181593" lon="9.700313582702188"><ele>1805.0</ele><time>2026-05-02T09:39:24.998Z</time></trkpt><trkpt lat="46.40720238593543" lon="9.700177094369613"><ele>1805.0</ele><time>2026-05-02T09:39:25.998Z</time></trkpt><trkpt lat="46.407136232612274" lon="9.70003902283395"><ele>1804.75</ele><time>2026-05-02T09:39:26.998Z</time></trkpt><trkpt lat="46.40706570610953" lon="9.699898424063006"><ele>1804.5</ele><time>2026-05-02T09:39:27.998Z</time></trkpt><trkpt lat="46.40700733531154" lon="9.699762979695363"><ele>1804.25</ele><time>2026-05-02T09:39:28.998Z</time></trkpt><trkpt lat="46.406945041494204" lon="9.699611245774964"><ele>1804.0</ele><time>2026-05-02T09:39:29.998Z</time></trkpt><trkpt lat="46.40688511806232" lon="9.699426683668067"><ele>1804.0</ele><time>2026-05-02T09:39:30.998Z</time></trkpt><trkpt lat="46.40682415143518" lon="9.699249029067708"><ele>1804.0</ele><time>2026-05-02T09:39:31.998Z</time></trkpt><trkpt lat="46.406777633605515" lon="9.699074555632654"><ele>1804.0</ele><time>2026-05-02T09:39:32.998Z</time></trkpt><trkpt lat="46.4067382857977" lon="9.698901498332653"><ele>1804.0</ele><time>2026-05-02T09:39:33.998Z</time></trkpt><trkpt lat="46.40669316581085" lon="9.69872230671352"><ele>1804.25</ele><time>2026-05-02T09:39:34.998Z</time></trkpt><trkpt lat="46.40662180757322" lon="9.698522203195534"><ele>1804.5</ele><time>2026-05-02T09:39:35.998Z</time></trkpt><trkpt lat="46.406587352020125" lon="9.69833117533974"><ele>1804.75</ele><time>2026-05-02T09:39:36.998Z</time></trkpt><trkpt lat="46.406564040179845" lon="9.69813238087768"><ele>1805.0</ele><time>2026-05-02T09:39:37.998Z</time></trkpt><trkpt lat="46.40654500341369" lon="9.697937405705098"><ele>1806.0</ele><time>2026-05-02T09:39:38.998Z</time></trkpt><trkpt lat="46.40652465647154" lon="9.697748029664384"><ele>1807.0</ele><time>2026-05-02T09:39:39.998Z</time></trkpt><trkpt lat="46.40650236228198" lon="9.697558058161967"><ele>1808.0</ele><time>2026-05-02T09:39:40.998Z</time></trkpt><trkpt lat="46.406481569675854" lon="9.69737161627076"><ele>1809.0</ele><time>2026-05-02T09:39:41.998Z</time></trkpt><trkpt lat="46.40646152684756" lon="9.697188434607538"><ele>1809.0</ele><time>2026-05-02T09:39:43Z</time></trkpt><trkpt lat="46.40643686684318" lon="9.697020395664905"><ele>1809.0</ele><time>2026-05-02T09:39:44Z</time></trkpt><trkpt lat="46.40640919537421" lon="9.696852620070638"><ele>1809.0</ele><time>2026-05-02T09:39:45Z</time></trkpt><trkpt lat="46.406362666273665" lon="9.69668536320721"><ele>1809.0</ele><time>2026-05-02T09:39:46Z</time></trkpt><trkpt lat="46.40629578879858" lon="9.696531369513702"><ele>1808.5</ele><time>2026-05-02T09:39:47Z</time></trkpt><trkpt lat="46.40621204944913" lon="9.696384213235413"><ele>1808.0</ele><time>2026-05-02T09:39:48Z</time></trkpt><trkpt lat="46.40612150061224" lon="9.696243050491951"><ele>1807.5</ele><time>2026-05-02T09:39:49Z</time></trkpt><trkpt lat="46.40602756784173" lon="9.696111383382666"><ele>1807.0</ele><time>2026-05-02T09:39:50Z</time></trkpt><trkpt lat="46.40593602794187" lon="9.6959725565509"><ele>1808.5</ele><time>2026-05-02T09:39:51Z</time></trkpt><trkpt lat="46.40584209982954" lon="9.695834412444757"><ele>1810.0</ele><time>2026-05-02T09:39:52Z</time></trkpt><trkpt lat="46.405747444351555" lon="9.695685717348079"><ele>1811.5</ele><time>2026-05-02T09:39:53Z</time></trkpt><trkpt lat="46.405647940364524" lon="9.695556275179042"><ele>1813.0</ele><time>2026-05-02T09:39:54Z</time></trkpt><trkpt lat="46.40555556088059" lon="9.69542214941682"><ele>1812.75</ele><time>2026-05-02T09:39:55Z</time></trkpt><trkpt lat="46.405459305403056" lon="9.695287562833823"><ele>1812.5</ele><time>2026-05-02T09:39:56Z</time></trkpt><trkpt lat="46.405368276798924" lon="9.695141763434362"><ele>1812.25</ele><time>2026-05-02T09:39:57Z</time></trkpt><trkpt lat="46.40527362576002" lon="9.695042088335168"><ele>1812.0</ele><time>2026-05-02T09:39:58Z</time></trkpt><trkpt lat="46.40516938945327" lon="9.69498298371605"><ele>1812.0</ele><time>2026-05-02T09:39:59Z</time></trkpt><trkpt lat="46.40506345983549" lon="9.694903436102571"><ele>1812.0</ele><time>2026-05-02T09:40:00Z</time></trkpt><trkpt lat="46.40494292889019" lon="9.69483254875978"><ele>1812.0</ele><time>2026-05-02T09:40:01Z</time></trkpt><trkpt lat="46.40482469514035" lon="9.69476813517467"><ele>1812.0</ele><time>2026-05-02T09:40:02Z</time></trkpt><trkpt lat="46.4047026704183" lon="9.694706841938459"><ele>1811.75</ele><time>2026-05-02T09:40:03Z</time></trkpt><trkpt lat="46.40458150783983" lon="9.694671255343762"><ele>1811.5</ele><time>2026-05-02T09:40:04Z</time></trkpt><trkpt lat="46.4044485532161" lon="9.694659070881354"><ele>1811.25</ele><time>2026-05-02T09:40:05Z</time></trkpt><trkpt lat="46.40431633191549" lon="9.694695154088501"><ele>1811.0</ele><time>2026-05-02T09:40:06Z</time></trkpt><trkpt lat="46.404204168078614" lon="9.69481140258558"><ele>1811.0</ele><time>2026-05-02T09:40:07Z</time></trkpt><trkpt lat="46.4040980591823" lon="9.694966689087584"><ele>1811.0</ele><time>2026-05-02T09:40:08Z</time></trkpt><trkpt lat="46.40399658675903" lon="9.69512934034285"><ele>1811.0</ele><time>2026-05-02T09:40:09Z</time></trkpt><trkpt lat="46.40389217023841" lon="9.695243647802204"><ele>1811.0</ele><time>2026-05-02T09:40:10Z</time></trkpt><trkpt lat="46.40379206785476" lon="9.695332493064882"><ele>1811.0</ele><time>2026-05-02T09:40:11Z</time></trkpt><trkpt lat="46.40368946380487" lon="9.695428143464083"><ele>1811.0</ele><time>2026-05-02T09:40:12Z</time></trkpt><trkpt lat="46.40359533863418" lon="9.695495999994222"><ele>1811.0</ele><time>2026-05-02T09:40:13Z</time></trkpt><trkpt lat="46.403489436543786" lon="9.695545344959484"><ele>1811.0</ele><time>2026-05-02T09:40:14Z</time></trkpt><trkpt lat="46.403376907308996" lon="9.69559068088898"><ele>1811.0</ele><time>2026-05-02T09:40:15Z</time></trkpt><trkpt lat="46.40325934637788" lon="9.695622061750578"><ele>1811.0</ele><time>2026-05-02T09:40:16Z</time></trkpt><trkpt lat="46.40313617062794" lon="9.695636454908259"><ele>1811.0</ele><time>2026-05-02T09:40:17Z</time></trkpt><trkpt lat="46.40301104033153" lon="9.695629511069932"><ele>1811.0</ele><time>2026-05-02T09:40:18Z</time></trkpt><trkpt lat="46.40289260941482" lon="9.69561176543257"><ele>1811.75</ele><time>2026-05-02T09:40:19Z</time></trkpt><trkpt lat="46.402770895430656" lon="9.695607941912323"><ele>1812.5</ele><time>2026-05-02T09:40:20Z</time></trkpt><trkpt lat="46.402653334451685" lon="9.69561407771461"><ele>1813.25</ele><time>2026-05-02T09:40:21Z</time></trkpt><trkpt lat="46.40253410097033" lon="9.695579476878716"><ele>1814.0</ele><time>2026-05-02T09:40:21.999Z</time></trkpt><trkpt lat="46.402415628138115" lon="9.695581859880695"><ele>1814.0</ele><time>2026-05-02T09:40:22.999Z</time></trkpt><trkpt lat="46.40230624208976" lon="9.695577865454737"><ele>1814.0</ele><time>2026-05-02T09:40:23.999Z</time></trkpt><trkpt lat="46.40219538128997" lon="9.69556678527541"><ele>1814.0</ele><time>2026-05-02T09:40:24.999Z</time></trkpt><trkpt lat="46.40208665074647" lon="9.695564687204142"><ele>1814.0</ele><time>2026-05-02T09:40:25.999Z</time></trkpt><trkpt lat="46.40198766384892" lon="9.695558665386356"><ele>1814.0</ele><time>2026-05-02T09:40:26.999Z</time></trkpt><trkpt lat="46.40189803703602" lon="9.695549350356792"><ele>1814.3333333333333</ele><time>2026-05-02T09:40:27.999Z</time></trkpt><trkpt lat="46.401819098687575" lon="9.695534447460865"><ele>1814.6666666666665</ele><time>2026-05-02T09:40:28.999Z</time></trkpt><trkpt lat="46.401743922287274" lon="9.695517472570447"><ele>1815.0</ele><time>2026-05-02T09:40:29.999Z</time></trkpt><trkpt lat="46.40167964181905" lon="9.695484907875317"><ele>1815.3333333333335</ele><time>2026-05-02T09:40:30.999Z</time></trkpt><trkpt lat="46.401582461668404" lon="9.695446646643644"><ele>1815.6666666666667</ele><time>2026-05-02T09:40:32.999Z</time></trkpt><trkpt lat="46.40150751700298" lon="9.69545750568393"><ele>1816.0</ele><time>2026-05-02T09:40:34.999Z</time></trkpt><trkpt lat="46.40146272425453" lon="9.695524116662352"><ele>1816.0</ele><time>2026-05-02T09:40:36.999Z</time></trkpt><trkpt lat="46.4014658107009" lon="9.695408059019103"><ele>1816.0</ele><time>2026-05-02T09:40:37.999Z</time></trkpt><trkpt lat="46.401325398584596" lon="9.695605212758444"><ele>1816.0</ele><time>2026-05-02T09:41:20.999Z</time></trkpt><trkpt lat="46.40142693542355" lon="9.69537201085533"><ele>1816.0</ele><time>2026-05-02T09:44:25Z</time></trkpt><trkpt lat="46.401370353379484" lon="9.695576225193543"><ele>1816.0</ele><time>2026-05-02T09:44:29Z</time></trkpt><trkpt lat="46.401454043336194" lon="9.695499034721784"><ele>1816.0</ele><time>2026-05-02T09:44:46.999Z</time></trkpt><trkpt lat="46.40154444420461" lon="9.695491818850185"><ele>1816.0</ele><time>2026-05-02T09:44:47.999Z</time></trkpt><trkpt lat="46.401556650448484" lon="9.69563248166374"><ele>1816.0</ele><time>2026-05-02T09:44:48.999Z</time></trkpt><trkpt lat="46.401624845415824" lon="9.695563258419435"><ele>1816.0</ele><time>2026-05-02T09:44:50.999Z</time></trkpt><trkpt lat="46.40152746825144" lon="9.695548165204846"><ele>1816.0</ele><time>2026-05-02T09:44:52.999Z</time></trkpt><trkpt lat="46.4014033961676" lon="9.695500087750409"><ele>1816.0</ele><time>2026-05-02T09:44:54.999Z</time></trkpt><trkpt lat="46.40133449161903" lon="9.695467046981372"><ele>1816.0</ele><time>2026-05-02T09:45:05.999Z</time></trkpt><trkpt lat="46.40086674433568" lon="9.6952862740943"><ele>1817.0</ele><time>2026-05-02T09:45:24.999Z</time></trkpt><trkpt lat="46.40072215754054" lon="9.69537253828159"><ele>1818.0</ele><time>2026-05-02T09:45:25.999Z</time></trkpt><trkpt lat="46.400556895455765" lon="9.695466339038758"><ele>1819.0</ele><time>2026-05-02T09:45:26.999Z</time></trkpt><trkpt lat="46.4006859531785" lon="9.695438130949059"><ele>1819.0</ele><time>2026-05-02T09:45:27.999Z</time></trkpt><trkpt lat="46.40060817782417" lon="9.695484048410146"><ele>1819.0</ele><time>2026-05-02T09:45:28.999Z</time></trkpt><trkpt lat="46.40053130768007" lon="9.69552720192071"><ele>1819.0</ele><time>2026-05-02T09:45:29.999Z</time></trkpt><trkpt lat="46.40045159216966" lon="9.695582584028738"><ele>1819.0</ele><time>2026-05-02T09:45:30.999Z</time></trkpt><trkpt lat="46.40036091632197" lon="9.695625952609097"><ele>1819.0</ele><time>2026-05-02T09:45:31.999Z</time></trkpt><trkpt lat="46.40026558436544" lon="9.69567627844368"><ele>1819.0000000000002</ele><time>2026-05-02T09:45:32.999Z</time></trkpt><trkpt lat="46.40017021796381" lon="9.69573085698799"><ele>1819.0</ele><time>2026-05-02T09:45:33.999Z</time></trkpt><trkpt lat="46.40008092621575" lon="9.695768329726741"><ele>1819.0</ele><time>2026-05-02T09:45:34.999Z</time></trkpt><trkpt lat="46.399996105019774" lon="9.69579334143625"><ele>1819.0</ele><time>2026-05-02T09:45:35.999Z</time></trkpt><trkpt lat="46.39991726250104" lon="9.695787238240896"><ele>1819.0000000000002</ele><time>2026-05-02T09:45:36.999Z</time></trkpt><trkpt lat="46.39983481490307" lon="9.695753451640293"><ele>1819.0</ele><time>2026-05-02T09:45:37.999Z</time></trkpt><trkpt lat="46.399764799042394" lon="9.695656824310419"><ele>1819.0</ele><time>2026-05-02T09:45:38.998Z</time></trkpt><trkpt lat="46.39967188202461" lon="9.695578153031768"><ele>1819.0</ele><time>2026-05-02T09:45:39.998Z</time></trkpt><trkpt lat="46.399561135295876" lon="9.69550607802755"><ele>1819.0</ele><time>2026-05-02T09:45:40.998Z</time></trkpt><trkpt lat="46.39946977516816" lon="9.695395570202308"><ele>1819.0</ele><time>2026-05-02T09:45:41.998Z</time></trkpt><trkpt lat="46.39935814422428" lon="9.695296078851097"><ele>1818.5</ele><time>2026-05-02T09:45:42.998Z</time></trkpt><trkpt lat="46.399241716005804" lon="9.695196794911121"><ele>1818.0</ele><time>2026-05-02T09:45:43.998Z</time></trkpt><trkpt lat="46.3991294633551" lon="9.695099011465933"><ele>1817.5</ele><time>2026-05-02T09:45:44.998Z</time></trkpt><trkpt lat="46.3990254363344" lon="9.695008397668937"><ele>1817.0</ele><time>2026-05-02T09:45:45.998Z</time></trkpt><trkpt lat="46.39892099970003" lon="9.694916602404767"><ele>1815.75</ele><time>2026-05-02T09:45:46.998Z</time></trkpt><trkpt lat="46.398813457563875" lon="9.69482578307664"><ele>1814.5</ele><time>2026-05-02T09:45:47.998Z</time></trkpt><trkpt lat="46.39871043873053" lon="9.694750308899398"><ele>1813.25</ele><time>2026-05-02T09:45:48.998Z</time></trkpt><trkpt lat="46.39859473946887" lon="9.694702118198627"><ele>1812.0</ele><time>2026-05-02T09:45:49.998Z</time></trkpt><trkpt lat="46.39848109262357" lon="9.694687732575611"><ele>1812.0</ele><time>2026-05-02T09:45:50.998Z</time></trkpt><trkpt lat="46.39837591464604" lon="9.69474018523662"><ele>1812.0</ele><time>2026-05-02T09:45:51.998Z</time></trkpt><trkpt lat="46.398294357998466" lon="9.694780896725925"><ele>1812.0</ele><time>2026-05-02T09:45:52.998Z</time></trkpt><trkpt lat="46.398215650781914" lon="9.694811887915348"><ele>1812.0</ele><time>2026-05-02T09:45:53.998Z</time></trkpt><trkpt lat="46.398136546495486" lon="9.694836678005101"><ele>1812.0</ele><time>2026-05-02T09:45:54.998Z</time></trkpt><trkpt lat="46.39805828817161" lon="9.69485425678639"><ele>1812.0</ele><time>2026-05-02T09:45:55.998Z</time></trkpt><trkpt lat="46.3979822618643" lon="9.694867102518181"><ele>1811.0</ele><time>2026-05-02T09:45:56.998Z</time></trkpt><trkpt lat="46.39791794915525" lon="9.694882754726052"><ele>1809.9999999999998</ele><time>2026-05-02T09:45:57.998Z</time></trkpt><trkpt lat="46.397799526141284" lon="9.694883888725677"><ele>1808.9999999999998</ele><time>2026-05-02T09:45:59.998Z</time></trkpt><trkpt lat="46.39768900648487" lon="9.69485873387554"><ele>1808.0</ele><time>2026-05-02T09:46:02Z</time></trkpt><trkpt lat="46.397587313832396" lon="9.694837618799074"><ele>1807.0</ele><time>2026-05-02T09:46:04Z</time></trkpt><trkpt lat="46.3974936957658" lon="9.694823214831347"><ele>1807.0000000000002</ele><time>2026-05-02T09:46:06Z</time></trkpt><trkpt lat="46.397407385744444" lon="9.694809043088195"><ele>1807.0</ele><time>2026-05-02T09:46:08Z</time></trkpt><trkpt lat="46.39733390420555" lon="9.694783963697294"><ele>1807.0</ele><time>2026-05-02T09:46:10Z</time></trkpt><trkpt lat="46.39730016024726" lon="9.69468610121269"><ele>1807.0</ele><time>2026-05-02T09:46:13Z</time></trkpt><trkpt lat="46.39735169071634" lon="9.694599699934793"><ele>1807.0000000000002</ele><time>2026-05-02T09:46:16Z</time></trkpt><trkpt lat="46.39741767131608" lon="9.69460073614128"><ele>1807.0</ele><time>2026-05-02T09:46:18Z</time></trkpt><trkpt lat="46.39748789080226" lon="9.694624049118241"><ele>1807.0000000000002</ele><time>2026-05-02T09:46:20Z</time></trkpt><trkpt lat="46.39753612786014" lon="9.694546731970567"><ele>1807.0</ele><time>2026-05-02T09:46:24Z</time></trkpt><trkpt lat="46.397504956990055" lon="9.694458407630762"><ele>1807.0</ele><time>2026-05-02T09:47:20.999Z</time></trkpt><trkpt lat="46.397535642684254" lon="9.694364420995589"><ele>1807.0</ele><time>2026-05-02T09:47:29.999Z</time></trkpt><trkpt lat="46.39747399922028" lon="9.694383826077884"><ele>1807.0000000000002</ele><time>2026-05-02T09:47:59.998Z</time></trkpt><trkpt lat="46.397458182929846" lon="9.69454538265861"><ele>1807.0</ele><time>2026-05-02T09:57:19Z</time></trkpt><trkpt lat="46.39739252649052" lon="9.694604073964197"><ele>1807.0000000000002</ele><time>2026-05-02T09:57:22Z</time></trkpt><trkpt lat="46.39733309815987" lon="9.694672400790122"><ele>1807.0</ele><time>2026-05-02T09:57:24Z</time></trkpt><trkpt lat="46.39728085391133" lon="9.694744384454335"><ele>1807.0</ele><time>2026-05-02T09:57:25.999Z</time></trkpt><trkpt lat="46.39722739067586" lon="9.694802172224072"><ele>1807.0</ele><time>2026-05-02T09:57:27.999Z</time></trkpt><trkpt lat="46.39713813813093" lon="9.694737273674102"><ele>1807.0000000000002</ele><time>2026-05-02T09:57:29.999Z</time></trkpt><trkpt lat="46.397075052769466" lon="9.694721000389098"><ele>1807.0</ele><time>2026-05-02T09:57:30.999Z</time></trkpt><trkpt lat="46.396999478710065" lon="9.694708866401959"><ele>1806.0000000000002</ele><time>2026-05-02T09:57:31.999Z</time></trkpt><trkpt lat="46.3969144562218" lon="9.694701366521873"><ele>1805.0</ele><time>2026-05-02T09:57:32.999Z</time></trkpt><trkpt lat="46.39683513433558" lon="9.694677628111215"><ele>1804.0</ele><time>2026-05-02T09:57:33.999Z</time></trkpt><trkpt lat="46.39675487781172" lon="9.694674297892064"><ele>1803.0</ele><time>2026-05-02T09:57:34.999Z</time></trkpt><trkpt lat="46.39668811614518" lon="9.694681194289872"><ele>1802.0000000000002</ele><time>2026-05-02T09:57:35.999Z</time></trkpt><trkpt lat="46.39658449028496" lon="9.69468461079402"><ele>1801.0</ele><time>2026-05-02T09:57:37.999Z</time></trkpt><trkpt lat="46.396468180470045" lon="9.694726129978765"><ele>1801.0</ele><time>2026-05-02T09:57:39.999Z</time></trkpt><trkpt lat="46.3963605318311" lon="9.694767670057203"><ele>1801.0</ele><time>2026-05-02T09:57:40.999Z</time></trkpt><trkpt lat="46.39624701254471" lon="9.69481147552951"><ele>1801.0</ele><time>2026-05-02T09:57:41.999Z</time></trkpt><trkpt lat="46.39616728770526" lon="9.694855591118273"><ele>1801.0</ele><time>2026-05-02T09:57:42.999Z</time></trkpt><trkpt lat="46.396082413348104" lon="9.694858208699916"><ele>1801.0</ele><time>2026-05-02T09:57:43.999Z</time></trkpt><trkpt lat="46.396001725714164" lon="9.694823124069705"><ele>1800.5000000000002</ele><time>2026-05-02T09:57:44.999Z</time></trkpt><trkpt lat="46.395958410811325" lon="9.694731491384848"><ele>1800.0</ele><time>2026-05-02T09:57:45.999Z</time></trkpt><trkpt lat="46.3959481687615" lon="9.694624692402371"><ele>1799.5</ele><time>2026-05-02T09:57:46.999Z</time></trkpt><trkpt lat="46.39597878914936" lon="9.69452147824457"><ele>1799.0</ele><time>2026-05-02T09:57:47.999Z</time></trkpt><trkpt lat="46.396025893624596" lon="9.694399418392317"><ele>1798.5000000000002</ele><time>2026-05-02T09:57:48.999Z</time></trkpt><trkpt lat="46.39608466011032" lon="9.694270504900466"><ele>1798.0</ele><time>2026-05-02T09:57:49.999Z</time></trkpt><trkpt lat="46.396139263085345" lon="9.694126200756427"><ele>1797.4</ele><time>2026-05-02T09:57:50.999Z</time></trkpt><trkpt lat="46.39618173184218" lon="9.69398514294654"><ele>1796.8000000000002</ele><time>2026-05-02T09:57:51.999Z</time></trkpt><trkpt lat="46.39619099107368" lon="9.693864873568705"><ele>1796.2</ele><time>2026-05-02T09:57:52.999Z</time></trkpt><trkpt lat="46.39615931936843" lon="9.69375446882189"><ele>1795.6</ele><time>2026-05-02T09:57:53.999Z</time></trkpt><trkpt lat="46.39608748844692" lon="9.693675387964106"><ele>1795.0</ele><time>2026-05-02T09:57:54.999Z</time></trkpt><trkpt lat="46.39599240158535" lon="9.693633359202614"><ele>1795.0</ele><time>2026-05-02T09:57:55.999Z</time></trkpt><trkpt lat="46.39589090936104" lon="9.693635333920435"><ele>1795.0</ele><time>2026-05-02T09:57:56.999Z</time></trkpt><trkpt lat="46.395805626678424" lon="9.693631823538626"><ele>1795.0</ele><time>2026-05-02T09:57:57.999Z</time></trkpt><trkpt lat="46.395745394419414" lon="9.69357533550651"><ele>1795.0</ele><time>2026-05-02T09:57:58.999Z</time></trkpt><trkpt lat="46.395753438175475" lon="9.693414727528223"><ele>1795.0</ele><time>2026-05-02T09:58:00.999Z</time></trkpt><trkpt lat="46.39583009980677" lon="9.693482801484176"><ele>1795.0000000000002</ele><time>2026-05-02T09:58:02.999Z</time></trkpt><trkpt lat="46.3959217540136" lon="9.693518127640782"><ele>1795.0</ele><time>2026-05-02T09:58:03.999Z</time></trkpt><trkpt lat="46.39599739171682" lon="9.69359398372345"><ele>1795.0</ele><time>2026-05-02T09:58:04.999Z</time></trkpt><trkpt lat="46.396085959408644" lon="9.69361222088145"><ele>1795.0</ele><time>2026-05-02T09:58:05.999Z</time></trkpt><trkpt lat="46.3961477363436" lon="9.693581023809388"><ele>1795.0000000000002</ele><time>2026-05-02T09:58:06.999Z</time></trkpt><trkpt lat="46.39622425115036" lon="9.693519693681994"><ele>1795.0</ele><time>2026-05-02T09:58:07.999Z</time></trkpt><trkpt lat="46.39623509967598" lon="9.69338570347553"><ele>1791.8</ele><time>2026-05-02T09:58:08.999Z</time></trkpt><trkpt lat="46.39613706146031" lon="9.693277116229853"><ele>1788.6</ele><time>2026-05-02T09:58:09.999Z</time></trkpt><trkpt lat="46.39600788714664" lon="9.693280331637416"><ele>1785.4</ele><time>2026-05-02T09:58:10.999Z</time></trkpt><trkpt lat="46.39591060547325" lon="9.693284006451927"><ele>1782.2</ele><time>2026-05-02T09:58:11.999Z</time></trkpt><trkpt lat="46.395837210807564" lon="9.693217950418221"><ele>1779.0</ele><time>2026-05-02T09:58:12.999Z</time></trkpt><trkpt lat="46.395827478176024" lon="9.693087475910799"><ele>1779.0</ele><time>2026-05-02T09:58:13.999Z</time></trkpt><trkpt lat="46.39582824670819" lon="9.69295178673346"><ele>1779.0</ele><time>2026-05-02T09:58:14.999Z</time></trkpt><trkpt lat="46.39579502276204" lon="9.692839557709561"><ele>1779.0</ele><time>2026-05-02T09:58:15.999Z</time></trkpt><trkpt lat="46.395733424832095" lon="9.69277969474989"><ele>1779.0</ele><time>2026-05-02T09:58:16.999Z</time></trkpt><trkpt lat="46.39564643429606" lon="9.692732874289677"><ele>1779.0</ele><time>2026-05-02T09:58:17.999Z</time></trkpt><trkpt lat="46.39553028589988" lon="9.692715802746635"><ele>1776.0</ele><time>2026-05-02T09:58:18.999Z</time></trkpt><trkpt lat="46.39538116977134" lon="9.692712178629991"><ele>1773.0</ele><time>2026-05-02T09:58:19.999Z</time></trkpt><trkpt lat="46.39523663795216" lon="9.692663587889475"><ele>1770.0</ele><time>2026-05-02T09:58:20.999Z</time></trkpt><trkpt lat="46.39510232080474" lon="9.692584907316107"><ele>1767.0</ele><time>2026-05-02T09:58:21.999Z</time></trkpt><trkpt lat="46.39497955799322" lon="9.69250310223275"><ele>1767.0</ele><time>2026-05-02T09:58:22.999Z</time></trkpt><trkpt lat="46.39488414978068" lon="9.692349902667361"><ele>1767.0</ele><time>2026-05-02T09:58:23.999Z</time></trkpt><trkpt lat="46.39477869593106" lon="9.692215508821977"><ele>1767.0</ele><time>2026-05-02T09:58:24.999Z</time></trkpt><trkpt lat="46.394712562283544" lon="9.692109691214778"><ele>1767.0</ele><time>2026-05-02T09:58:25.999Z</time></trkpt><trkpt lat="46.39466880327702" lon="9.691990866786767"><ele>1767.0</ele><time>2026-05-02T09:58:26.999Z</time></trkpt><trkpt lat="46.39466150774909" lon="9.69188071400585"><ele>1766.9999999999998</ele><time>2026-05-02T09:58:27.999Z</time></trkpt><trkpt lat="46.39475600738568" lon="9.691920056559345"><ele>1766.9999999999998</ele><time>2026-05-02T09:58:29.999Z</time></trkpt><trkpt lat="46.39472766959563" lon="9.692043417070918"><ele>1767.0</ele><time>2026-05-02T09:58:31.999Z</time></trkpt><trkpt lat="46.394729428819225" lon="9.691835652137408"><ele>1767.0</ele><time>2026-05-02T09:58:32.999Z</time></trkpt><trkpt lat="46.39471585126894" lon="9.692106943518787"><ele>1767.0</ele><time>2026-05-02T09:58:33.999Z</time></trkpt><trkpt lat="46.39480000176515" lon="9.692138621228246"><ele>1767.0</ele><time>2026-05-02T09:58:34.999Z</time></trkpt><trkpt lat="46.39504448549786" lon="9.69229234979559"><ele>1767.0</ele><time>2026-05-02T09:58:35.999Z</time></trkpt><trkpt lat="46.39490078264636" lon="9.691886717052183"><ele>1769.75</ele><time>2026-05-02T09:58:37Z</time></trkpt><trkpt lat="46.39478464594892" lon="9.69182621449835"><ele>1772.5</ele><time>2026-05-02T09:58:39Z</time></trkpt><trkpt lat="46.39469450754519" lon="9.691764299811656"><ele>1775.25</ele><time>2026-05-02T09:58:40Z</time></trkpt><trkpt lat="46.394608343551766" lon="9.69166270663615"><ele>1778.0</ele><time>2026-05-02T09:58:41Z</time></trkpt><trkpt lat="46.39469201142254" lon="9.691786197924129"><ele>1778.0</ele><time>2026-05-02T09:58:42Z</time></trkpt><trkpt lat="46.39460679374587" lon="9.691660827473688"><ele>1778.0</ele><time>2026-05-02T09:58:43Z</time></trkpt><trkpt lat="46.39453493265272" lon="9.691527414217157"><ele>1778.0</ele><time>2026-05-02T09:58:44Z</time></trkpt><trkpt lat="46.39450024920416" lon="9.69136085610389"><ele>1778.0</ele><time>2026-05-02T09:58:45Z</time></trkpt><trkpt lat="46.394462050026426" lon="9.691206304868544"><ele>1775.0</ele><time>2026-05-02T09:58:46Z</time></trkpt><trkpt lat="46.394441618496906" lon="9.691059833874714"><ele>1772.0000000000002</ele><time>2026-05-02T09:58:47Z</time></trkpt><trkpt lat="46.39444758836772" lon="9.690907785877252"><ele>1769.0000000000002</ele><time>2026-05-02T09:58:48Z</time></trkpt><trkpt lat="46.394484386844624" lon="9.69076563210685"><ele>1766.0</ele><time>2026-05-02T09:58:49Z</time></trkpt><trkpt lat="46.39451530938727" lon="9.69061170689622"><ele>1763.0</ele><time>2026-05-02T09:58:50Z</time></trkpt><trkpt lat="46.394530207985085" lon="9.690464503721852"><ele>1762.9999999999998</ele><time>2026-05-02T09:58:51Z</time></trkpt><trkpt lat="46.39452493829183" lon="9.690348643057526"><ele>1763.0</ele><time>2026-05-02T09:58:52Z</time></trkpt><trkpt lat="46.39447191090443" lon="9.69026223174431"><ele>1763.0</ele><time>2026-05-02T09:58:53Z</time></trkpt><trkpt lat="46.39446100955506" lon="9.690148305270561"><ele>1763.0</ele><time>2026-05-02T09:58:55Z</time></trkpt><trkpt lat="46.39458162325511" lon="9.690179731838311"><ele>1762.9999999999998</ele><time>2026-05-02T09:58:57Z</time></trkpt><trkpt lat="46.39460833068403" lon="9.690297792083031"><ele>1763.0</ele><time>2026-05-02T09:58:58Z</time></trkpt><trkpt lat="46.394616275001226" lon="9.690436595455784"><ele>1763.0</ele><time>2026-05-02T09:58:59Z</time></trkpt><trkpt lat="46.39460705003754" lon="9.690586914579837"><ele>1763.0</ele><time>2026-05-02T09:59:00Z</time></trkpt><trkpt lat="46.3945886096466" lon="9.69073659904829"><ele>1763.0</ele><time>2026-05-02T09:59:01Z</time></trkpt><trkpt lat="46.394559237661646" lon="9.690911965969955"><ele>1763.0</ele><time>2026-05-02T09:59:02Z</time></trkpt><trkpt lat="46.39459361805464" lon="9.691084663201686"><ele>1766.0</ele><time>2026-05-02T09:59:03Z</time></trkpt><trkpt lat="46.394663421609756" lon="9.691233279373504"><ele>1769.0000000000002</ele><time>2026-05-02T09:59:04Z</time></trkpt><trkpt lat="46.394724757226165" lon="9.691398182684015"><ele>1772.0000000000002</ele><time>2026-05-02T09:59:05Z</time></trkpt><trkpt lat="46.39475920164447" lon="9.691497046140617"><ele>1775.0</ele><time>2026-05-02T09:59:06Z</time></trkpt><trkpt lat="46.39487306887866" lon="9.691484990406693"><ele>1778.0</ele><time>2026-05-02T09:59:08Z</time></trkpt><trkpt lat="46.39492863346757" lon="9.691401460785817"><ele>1770.8000000000002</ele><time>2026-05-02T09:59:09Z</time></trkpt><trkpt lat="46.39489299187417" lon="9.69125304916119"><ele>1763.6000000000001</ele><time>2026-05-02T09:59:10Z</time></trkpt><trkpt lat="46.394801955939954" lon="9.691143869690142"><ele>1756.3999999999999</ele><time>2026-05-02T09:59:11Z</time></trkpt><trkpt lat="46.394739750195114" lon="9.691026728829321"><ele>1749.1999999999998</ele><time>2026-05-02T09:59:12Z</time></trkpt><trkpt lat="46.394738489111205" lon="9.69087470042642"><ele>1742.0</ele><time>2026-05-02T09:59:13Z</time></trkpt><trkpt lat="46.39478249768985" lon="9.690721524912977"><ele>1738.1666666666665</ele><time>2026-05-02T09:59:14Z</time></trkpt><trkpt lat="46.394811852780194" lon="9.690564600090465"><ele>1734.3333333333333</ele><time>2026-05-02T09:59:15Z</time></trkpt><trkpt lat="46.39482168769225" lon="9.690418358170492"><ele>1730.5</ele><time>2026-05-02T09:59:16Z</time></trkpt><trkpt lat="46.39483544975712" lon="9.690320446746263"><ele>1726.6666666666665</ele><time>2026-05-02T09:59:16.999Z</time></trkpt><trkpt lat="46.39488076459765" lon="9.690229184156173"><ele>1722.8333333333333</ele><time>2026-05-02T09:59:18.999Z</time></trkpt><trkpt lat="46.39494939035907" lon="9.690260558907378"><ele>1719.0</ele><time>2026-05-02T09:59:19.999Z</time></trkpt><trkpt lat="46.394961944931374" lon="9.690384773856765"><ele>1719.0</ele><time>2026-05-02T09:59:20.999Z</time></trkpt><trkpt lat="46.394910497625865" lon="9.690485061536979"><ele>1719.0</ele><time>2026-05-02T09:59:21.999Z</time></trkpt><trkpt lat="46.39488174401015" lon="9.690628063040895"><ele>1719.0</ele><time>2026-05-02T09:59:22.999Z</time></trkpt><trkpt lat="46.394870829051506" lon="9.69077475246506"><ele>1719.0</ele><time>2026-05-02T09:59:23.999Z</time></trkpt><trkpt lat="46.39487573703471" lon="9.690959582386808"><ele>1719.0</ele><time>2026-05-02T09:59:24.999Z</time></trkpt><trkpt lat="46.39493585268842" lon="9.691105210251477"><ele>1724.75</ele><time>2026-05-02T09:59:25.999Z</time></trkpt><trkpt lat="46.39505589518501" lon="9.691200085613227"><ele>1730.5</ele><time>2026-05-02T09:59:26.999Z</time></trkpt><trkpt lat="46.39519399558611" lon="9.6912947736304"><ele>1736.25</ele><time>2026-05-02T09:59:27.999Z</time></trkpt><trkpt lat="46.395306710183625" lon="9.691403693878247"><ele>1742.0</ele><time>2026-05-02T09:59:28.999Z</time></trkpt><trkpt lat="46.395413578422286" lon="9.691464783945724"><ele>1735.0</ele><time>2026-05-02T09:59:29.999Z</time></trkpt><trkpt lat="46.395554505622805" lon="9.69154637838659"><ele>1728.0</ele><time>2026-05-02T09:59:30.999Z</time></trkpt><trkpt lat="46.3956786844803" lon="9.69163273412383"><ele>1721.0</ele><time>2026-05-02T09:59:31.999Z</time></trkpt><trkpt lat="46.39577139480943" lon="9.691739787979786"><ele>1714.0</ele><time>2026-05-02T09:59:32.999Z</time></trkpt><trkpt lat="46.39586005819939" lon="9.691852624642909"><ele>1714.0000000000002</ele><time>2026-05-02T09:59:33.999Z</time></trkpt><trkpt lat="46.395953057714074" lon="9.691909400026045"><ele>1714.0</ele><time>2026-05-02T09:59:34.999Z</time></trkpt><trkpt lat="46.39601429753886" lon="9.691863778931696"><ele>1714.0</ele><time>2026-05-02T09:59:36.999Z</time></trkpt><trkpt lat="46.39599933732538" lon="9.691710089160875"><ele>1714.0</ele><time>2026-05-02T09:59:37.999Z</time></trkpt><trkpt lat="46.39596739159089" lon="9.691603792693524"><ele>1714.0000000000002</ele><time>2026-05-02T09:59:38.999Z</time></trkpt><trkpt lat="46.395906036116436" lon="9.691523240788506"><ele>1714.0</ele><time>2026-05-02T09:59:39.999Z</time></trkpt><trkpt lat="46.395832151225015" lon="9.691454051182356"><ele>1714.0</ele><time>2026-05-02T09:59:40.999Z</time></trkpt><trkpt lat="46.39573446008298" lon="9.69138196694828"><ele>1714.0</ele><time>2026-05-02T09:59:41.999Z</time></trkpt><trkpt lat="46.39564378279219" lon="9.691271913446121"><ele>1714.0</ele><time>2026-05-02T09:59:42.999Z</time></trkpt><trkpt lat="46.39554973989119" lon="9.691127859331461"><ele>1714.0</ele><time>2026-05-02T09:59:43.999Z</time></trkpt><trkpt lat="46.39547270552554" lon="9.690970746318309"><ele>1715.25</ele><time>2026-05-02T09:59:44.999Z</time></trkpt><trkpt lat="46.39542197536087" lon="9.690775768983514"><ele>1716.5</ele><time>2026-05-02T09:59:45.999Z</time></trkpt><trkpt lat="46.39537246845626" lon="9.690560101754489"><ele>1717.75</ele><time>2026-05-02T09:59:46.999Z</time></trkpt><trkpt lat="46.395359620965024" lon="9.690345050157296"><ele>1719.0</ele><time>2026-05-02T09:59:47.999Z</time></trkpt><trkpt lat="46.39535071059146" lon="9.690130507447426"><ele>1716.0</ele><time>2026-05-02T09:59:48.999Z</time></trkpt><trkpt lat="46.39535948502589" lon="9.689955308525194"><ele>1713.0</ele><time>2026-05-02T09:59:49.999Z</time></trkpt><trkpt lat="46.395364427082384" lon="9.68979349689129"><ele>1710.0</ele><time>2026-05-02T09:59:50.999Z</time></trkpt><trkpt lat="46.395351170754275" lon="9.689672191062725"><ele>1707.0</ele><time>2026-05-02T09:59:51.999Z</time></trkpt><trkpt lat="46.3953407012424" lon="9.689572789431375"><ele>1704.0</ele><time>2026-05-02T09:59:52.999Z</time></trkpt><trkpt lat="46.39536421627917" lon="9.689478586313617"><ele>1704.0</ele><time>2026-05-02T09:59:54.999Z</time></trkpt><trkpt lat="46.39547407926886" lon="9.6895635464119"><ele>1704.0</ele><time>2026-05-02T09:59:56.999Z</time></trkpt><trkpt lat="46.395426574995724" lon="9.68968553425219"><ele>1704.0</ele><time>2026-05-02T09:59:57.999Z</time></trkpt><trkpt lat="46.39542349208752" lon="9.68981757680279"><ele>1704.0</ele><time>2026-05-02T09:59:58.999Z</time></trkpt><trkpt lat="46.395425665448585" lon="9.689963855353378"><ele>1704.0</ele><time>2026-05-02T09:59:59.999Z</time></trkpt><trkpt lat="46.395447343546046" lon="9.690165752843432"><ele>1707.75</ele><time>2026-05-02T10:00:00.999Z</time></trkpt><trkpt lat="46.39548215485609" lon="9.690369181673658"><ele>1711.5</ele><time>2026-05-02T10:00:01.999Z</time></trkpt><trkpt lat="46.39554056349892" lon="9.690545432988328"><ele>1715.25</ele><time>2026-05-02T10:00:02.999Z</time></trkpt><trkpt lat="46.39561147188048" lon="9.690710039097802"><ele>1719.0</ele><time>2026-05-02T10:00:03.999Z</time></trkpt><trkpt lat="46.39571218642225" lon="9.690852680552533"><ele>1717.3333333333335</ele><time>2026-05-02T10:00:04.999Z</time></trkpt><trkpt lat="46.395831978545694" lon="9.690964038926888"><ele>1715.6666666666667</ele><time>2026-05-02T10:00:05.999Z</time></trkpt><trkpt lat="46.39595825611069" lon="9.691083101642764"><ele>1714.0</ele><time>2026-05-02T10:00:06.999Z</time></trkpt><trkpt lat="46.396099779433555" lon="9.691207662405768"><ele>1714.0</ele><time>2026-05-02T10:00:07.999Z</time></trkpt><trkpt lat="46.39623342380545" lon="9.69130947166094"><ele>1714.0</ele><time>2026-05-02T10:00:08.999Z</time></trkpt><trkpt lat="46.39636174749292" lon="9.691382070976134"><ele>1714.0</ele><time>2026-05-02T10:00:09.999Z</time></trkpt><trkpt lat="46.3964801433327" lon="9.691398208026103"><ele>1714.0</ele><time>2026-05-02T10:00:10.999Z</time></trkpt><trkpt lat="46.39660876261143" lon="9.69143964727269"><ele>1709.0</ele><time>2026-05-02T10:00:11.999Z</time></trkpt><trkpt lat="46.39674097794867" lon="9.69145900943269"><ele>1704.0</ele><time>2026-05-02T10:00:12.999Z</time></trkpt><trkpt lat="46.39685508164935" lon="9.691481294287138"><ele>1699.0</ele><time>2026-05-02T10:00:13.999Z</time></trkpt><trkpt lat="46.396942149548664" lon="9.691466037726446"><ele>1694.0</ele><time>2026-05-02T10:00:14.999Z</time></trkpt><trkpt lat="46.39706787988445" lon="9.691407878199973"><ele>1694.0</ele><time>2026-05-02T10:00:16.999Z</time></trkpt><trkpt lat="46.39712535381228" lon="9.691232661639784"><ele>1694.0</ele><time>2026-05-02T10:00:18.999Z</time></trkpt><trkpt lat="46.39703912688537" lon="9.691085990178673"><ele>1694.0</ele><time>2026-05-02T10:00:19.999Z</time></trkpt><trkpt lat="46.39687350838902" lon="9.691194898490563"><ele>1694.0</ele><time>2026-05-02T10:00:20.999Z</time></trkpt><trkpt lat="46.396793799484826" lon="9.691219648152176"><ele>1694.0</ele><time>2026-05-02T10:00:21.999Z</time></trkpt><trkpt lat="46.39669266491295" lon="9.69119169731955"><ele>1694.0</ele><time>2026-05-02T10:00:22.999Z</time></trkpt><trkpt lat="46.3965691044609" lon="9.691146075096311"><ele>1694.0</ele><time>2026-05-02T10:00:23.999Z</time></trkpt><trkpt lat="46.396435898884796" lon="9.691057747650964"><ele>1694.0</ele><time>2026-05-02T10:00:24.999Z</time></trkpt><trkpt lat="46.396324358181566" lon="9.69092658871363"><ele>1690.75</ele><time>2026-05-02T10:00:25.999Z</time></trkpt><trkpt lat="46.39620981221187" lon="9.690779821539513"><ele>1687.5</ele><time>2026-05-02T10:00:26.999Z</time></trkpt><trkpt lat="46.39610823547567" lon="9.690650716055343"><ele>1684.25</ele><time>2026-05-02T10:00:27.999Z</time></trkpt><trkpt lat="46.39602396075689" lon="9.690523831104148"><ele>1681.0</ele><time>2026-05-02T10:00:28.999Z</time></trkpt><trkpt lat="46.395968548727325" lon="9.690429543544253"><ele>1681.0</ele><time>2026-05-02T10:00:29.999Z</time></trkpt><trkpt lat="46.39592589675038" lon="9.69034538768055"><ele>1681.0</ele><time>2026-05-02T10:00:30.999Z</time></trkpt><trkpt lat="46.39589439201447" lon="9.690258957246249"><ele>1681.0</ele><time>2026-05-02T10:00:31.999Z</time></trkpt><trkpt lat="46.39595768506745" lon="9.690197330040794"><ele>1681.0</ele><time>2026-05-02T10:00:34.999Z</time></trkpt><trkpt lat="46.39602914946091" lon="9.690363189463461"><ele>1681.0</ele><time>2026-05-02T10:00:36.999Z</time></trkpt><trkpt lat="46.39610606345404" lon="9.690488835147974"><ele>1681.0</ele><time>2026-05-02T10:00:37.999Z</time></trkpt><trkpt lat="46.39618779702486" lon="9.690589929370555"><ele>1681.0</ele><time>2026-05-02T10:00:38.998Z</time></trkpt><trkpt lat="46.396280007556875" lon="9.690666124158483"><ele>1681.0</ele><time>2026-05-02T10:00:39.998Z</time></trkpt><trkpt lat="46.3963880525396" lon="9.690734130729483"><ele>1681.0</ele><time>2026-05-02T10:00:40.998Z</time></trkpt><trkpt lat="46.39651872116093" lon="9.69080584218808"><ele>1673.25</ele><time>2026-05-02T10:00:41.998Z</time></trkpt><trkpt lat="46.396653634218744" lon="9.690828164032341"><ele>1665.5</ele><time>2026-05-02T10:00:43Z</time></trkpt><trkpt lat="46.39678408426393" lon="9.69083816493826"><ele>1657.75</ele><time>2026-05-02T10:00:44Z</time></trkpt><trkpt lat="46.39690184537381" lon="9.690810464689791"><ele>1650.0</ele><time>2026-05-02T10:00:45Z</time></trkpt><trkpt lat="46.39700717246838" lon="9.690719138144926"><ele>1650.0</ele><time>2026-05-02T10:00:46Z</time></trkpt><trkpt lat="46.39709944439875" lon="9.690581619810951"><ele>1650.0</ele><time>2026-05-02T10:00:47Z</time></trkpt><trkpt lat="46.39718245698032" lon="9.690376143011575"><ele>1650.0</ele><time>2026-05-02T10:00:48Z</time></trkpt><trkpt lat="46.39724508055636" lon="9.690178786662386"><ele>1650.0</ele><time>2026-05-02T10:00:49Z</time></trkpt><trkpt lat="46.39728796549835" lon="9.689948817602515"><ele>1649.0</ele><time>2026-05-02T10:00:50Z</time></trkpt><trkpt lat="46.39737492641374" lon="9.689773792337387"><ele>1648.0</ele><time>2026-05-02T10:00:51Z</time></trkpt><trkpt lat="46.39747864322844" lon="9.689600034593816"><ele>1647.0</ele><time>2026-05-02T10:00:52Z</time></trkpt><trkpt lat="46.39759562019558" lon="9.689418067653849"><ele>1637.3333333333335</ele><time>2026-05-02T10:00:53Z</time></trkpt><trkpt lat="46.39773573935203" lon="9.689204436159727"><ele>1627.6666666666667</ele><time>2026-05-02T10:00:54Z</time></trkpt><trkpt lat="46.39784374342371" lon="9.689000333042479"><ele>1618.0</ele><time>2026-05-02T10:00:55Z</time></trkpt><trkpt lat="46.39792487185812" lon="9.688767872460623"><ele>1620.6666666666667</ele><time>2026-05-02T10:00:56Z</time></trkpt><trkpt lat="46.397970503834514" lon="9.68850504061229"><ele>1623.3333333333335</ele><time>2026-05-02T10:00:57Z</time></trkpt><trkpt lat="46.398036854875734" lon="9.688272534591226"><ele>1626.0</ele><time>2026-05-02T10:00:58Z</time></trkpt><trkpt lat="46.398136854248584" lon="9.688038692174619"><ele>1626.0</ele><time>2026-05-02T10:00:59Z</time></trkpt><trkpt lat="46.39824022601225" lon="9.687835835661717"><ele>1626.0</ele><time>2026-05-02T10:01:00Z</time></trkpt><trkpt lat="46.39837545163993" lon="9.687681224856023"><ele>1626.0</ele><time>2026-05-02T10:01:01Z</time></trkpt><trkpt lat="46.39850256488944" lon="9.687548094188704"><ele>1625.6666666666665</ele><time>2026-05-02T10:01:02Z</time></trkpt><trkpt lat="46.3986345195482" lon="9.687413797881435"><ele>1625.3333333333333</ele><time>2026-05-02T10:01:03Z</time></trkpt><trkpt lat="46.398757433852545" lon="9.687288702377595"><ele>1625.0</ele><time>2026-05-02T10:01:04Z</time></trkpt><trkpt lat="46.39887081560868" lon="9.687172664588152"><ele>1625.0</ele><time>2026-05-02T10:01:05Z</time></trkpt><trkpt lat="46.398935567546786" lon="9.687102671179357"><ele>1625.0</ele><time>2026-05-02T10:01:06Z</time></trkpt><trkpt lat="46.398972213700205" lon="9.686996919881455"><ele>1625.0</ele><time>2026-05-02T10:01:07Z</time></trkpt><trkpt lat="46.39891625629145" lon="9.686837075984663"><ele>1625.0</ele><time>2026-05-02T10:01:08Z</time></trkpt><trkpt lat="46.39883760819604" lon="9.686721158436223"><ele>1625.0</ele><time>2026-05-02T10:01:09Z</time></trkpt><trkpt lat="46.3987318258784" lon="9.686646512709672"><ele>1616.0</ele><time>2026-05-02T10:01:10Z</time></trkpt><trkpt lat="46.39861182617152" lon="9.686681961582432"><ele>1607.0</ele><time>2026-05-02T10:01:11Z</time></trkpt><trkpt lat="46.398504808254806" lon="9.68679158900331"><ele>1598.0</ele><time>2026-05-02T10:01:12Z</time></trkpt><trkpt lat="46.39842419158283" lon="9.686944388964807"><ele>1589.0</ele><time>2026-05-02T10:01:13Z</time></trkpt><trkpt lat="46.398300971943314" lon="9.687105798838994"><ele>1589.0</ele><time>2026-05-02T10:01:14Z</time></trkpt><trkpt lat="46.39819483453748" lon="9.687240367700694"><ele>1589.0</ele><time>2026-05-02T10:01:15Z</time></trkpt><trkpt lat="46.398071349381006" lon="9.687322274635534"><ele>1589.0</ele><time>2026-05-02T10:01:16Z</time></trkpt><trkpt lat="46.39792597302058" lon="9.687476680010276"><ele>1590.6666666666665</ele><time>2026-05-02T10:01:17Z</time></trkpt><trkpt lat="46.39778124603741" lon="9.687624427631103"><ele>1592.3333333333335</ele><time>2026-05-02T10:01:18Z</time></trkpt><trkpt lat="46.39765633686532" lon="9.687767850735083"><ele>1594.0</ele><time>2026-05-02T10:01:19Z</time></trkpt><trkpt lat="46.39754719847409" lon="9.687914897129899"><ele>1594.0</ele><time>2026-05-02T10:01:20Z</time></trkpt><trkpt lat="46.39745356755349" lon="9.688049933263658"><ele>1594.0</ele><time>2026-05-02T10:01:21Z</time></trkpt><trkpt lat="46.39736416023977" lon="9.688163876903717"><ele>1594.0</ele><time>2026-05-02T10:01:22Z</time></trkpt><trkpt lat="46.397277709089366" lon="9.688237243700376"><ele>1594.0</ele><time>2026-05-02T10:01:23Z</time></trkpt><trkpt lat="46.397180126418576" lon="9.688205851001019"><ele>1592.2</ele><time>2026-05-02T10:01:24Z</time></trkpt><trkpt lat="46.397095173549886" lon="9.68813058906047"><ele>1590.4</ele><time>2026-05-02T10:01:25Z</time></trkpt><trkpt lat="46.39706734190433" lon="9.687988544717273"><ele>1588.6</ele><time>2026-05-02T10:01:26Z</time></trkpt><trkpt lat="46.39707781213958" lon="9.687870285707943"><ele>1586.8</ele><time>2026-05-02T10:01:27Z</time></trkpt><trkpt lat="46.39714051960216" lon="9.687777766735877"><ele>1585.0</ele><time>2026-05-02T10:01:27.999Z</time></trkpt><trkpt lat="46.39724857302163" lon="9.687641560421039"><ele>1581.6666666666667</ele><time>2026-05-02T10:01:28.999Z</time></trkpt><trkpt lat="46.39740687166951" lon="9.687425772059326"><ele>1578.3333333333335</ele><time>2026-05-02T10:01:29.999Z</time></trkpt><trkpt lat="46.39751923934869" lon="9.6872338020799"><ele>1575.0</ele><time>2026-05-02T10:01:30.999Z</time></trkpt><trkpt lat="46.39761201302402" lon="9.686987828091707"><ele>1573.0</ele><time>2026-05-02T10:01:31.999Z</time></trkpt><trkpt lat="46.39770777012596" lon="9.686727515382081"><ele>1571.0</ele><time>2026-05-02T10:01:32.999Z</time></trkpt><trkpt lat="46.397774117753876" lon="9.686450027750695"><ele>1569.0</ele><time>2026-05-02T10:01:33.999Z</time></trkpt><trkpt lat="46.397861659865434" lon="9.686170897121333"><ele>1571.5</ele><time>2026-05-02T10:01:34.999Z</time></trkpt><trkpt lat="46.39797090518184" lon="9.685883825561808"><ele>1574.0</ele><time>2026-05-02T10:01:35.999Z</time></trkpt><trkpt lat="46.398122135169196" lon="9.685635266962283"><ele>1574.0</ele><time>2026-05-02T10:01:36.999Z</time></trkpt><trkpt lat="46.39827829480975" lon="9.685328629280686"><ele>1574.0</ele><time>2026-05-02T10:01:37.999Z</time></trkpt><trkpt lat="46.39840593769823" lon="9.68509980743781"><ele>1569.6666666666665</ele><time>2026-05-02T10:01:38.999Z</time></trkpt><trkpt lat="46.3985218372924" lon="9.684824673915111"><ele>1565.3333333333335</ele><time>2026-05-02T10:01:39.999Z</time></trkpt><trkpt lat="46.39861405750036" lon="9.68452428216748"><ele>1561.0</ele><time>2026-05-02T10:01:40.999Z</time></trkpt><trkpt lat="46.398667813918536" lon="9.684206354048342"><ele>1561.0</ele><time>2026-05-02T10:01:41.999Z</time></trkpt><trkpt lat="46.39869543981383" lon="9.683897166241874"><ele>1561.0</ele><time>2026-05-02T10:01:42.999Z</time></trkpt><trkpt lat="46.39871438914688" lon="9.683588030224229"><ele>1561.0</ele><time>2026-05-02T10:01:43.999Z</time></trkpt><trkpt lat="46.39873010776928" lon="9.683288027416625"><ele>1559.6666666666667</ele><time>2026-05-02T10:01:44.999Z</time></trkpt><trkpt lat="46.39873303545604" lon="9.68299061819318"><ele>1558.3333333333335</ele><time>2026-05-02T10:01:45.999Z</time></trkpt><trkpt lat="46.39871331877097" lon="9.682704964222543"><ele>1557.0</ele><time>2026-05-02T10:01:46.999Z</time></trkpt><trkpt lat="46.39867572389004" lon="9.68242100379274"><ele>1556.6666666666665</ele><time>2026-05-02T10:01:47.999Z</time></trkpt><trkpt lat="46.39860784513422" lon="9.682138429041713"><ele>1556.3333333333333</ele><time>2026-05-02T10:01:48.999Z</time></trkpt><trkpt lat="46.39852134905175" lon="9.681861311488964"><ele>1556.0</ele><time>2026-05-02T10:01:49.999Z</time></trkpt><trkpt lat="46.39841634607205" lon="9.681570855823852"><ele>1558.5</ele><time>2026-05-02T10:01:50.999Z</time></trkpt><trkpt lat="46.39829198660539" lon="9.681283396383051"><ele>1561.0</ele><time>2026-05-02T10:01:51.999Z</time></trkpt><trkpt lat="46.39813773908838" lon="9.68094659741657"><ele>1565.0</ele><time>2026-05-02T10:01:52.999Z</time></trkpt><trkpt lat="46.398013602607676" lon="9.68058525710608"><ele>1569.0</ele><time>2026-05-02T10:01:53.999Z</time></trkpt><trkpt lat="46.39789297653627" lon="9.680210647938077"><ele>1560.5</ele><time>2026-05-02T10:01:54.999Z</time></trkpt><trkpt lat="46.397774855754484" lon="9.67986948801186"><ele>1552.0</ele><time>2026-05-02T10:01:55.999Z</time></trkpt><trkpt lat="46.39765084142959" lon="9.67956359115547"><ele>1558.5</ele><time>2026-05-02T10:01:56.999Z</time></trkpt><trkpt lat="46.39750126457028" lon="9.679249328483476"><ele>1565.0</ele><time>2026-05-02T10:01:57.999Z</time></trkpt><trkpt lat="46.39733719119757" lon="9.678943826867119"><ele>1563.0</ele><time>2026-05-02T10:01:58.999Z</time></trkpt><trkpt lat="46.39712896861986" lon="9.678661944012198"><ele>1561.0</ele><time>2026-05-02T10:01:59.999Z</time></trkpt><trkpt lat="46.3968615720734" lon="9.678453989183659"><ele>1561.0</ele><time>2026-05-02T10:02:00.999Z</time></trkpt><trkpt lat="46.396612252959756" lon="9.678256546079938"><ele>1561.0</ele><time>2026-05-02T10:02:01.999Z</time></trkpt><trkpt lat="46.39639403139469" lon="9.678086014978494"><ele>1558.5</ele><time>2026-05-02T10:02:02.999Z</time></trkpt><trkpt lat="46.39618386587754" lon="9.677882799970877"><ele>1556.0</ele><time>2026-05-02T10:02:03.999Z</time></trkpt><trkpt lat="46.39600129754281" lon="9.67765171684313"><ele>1556.0</ele><time>2026-05-02T10:02:04.999Z</time></trkpt><trkpt lat="46.39584890680682" lon="9.677415983714148"><ele>1556.0</ele><time>2026-05-02T10:02:05.999Z</time></trkpt><trkpt lat="46.39567750929393" lon="9.67722365842313"><ele>1556.0</ele><time>2026-05-02T10:02:06.999Z</time></trkpt><trkpt lat="46.39548099309921" lon="9.677111897164183"><ele>1555.0</ele><time>2026-05-02T10:02:07.999Z</time></trkpt><trkpt lat="46.395288977593644" lon="9.677033763833377"><ele>1554.0</ele><time>2026-05-02T10:02:08.999Z</time></trkpt><trkpt lat="46.39510330312502" lon="9.677013873332196"><ele>1553.0</ele><time>2026-05-02T10:02:09.999Z</time></trkpt><trkpt lat="46.39494860701827" lon="9.676949793287164"><ele>1553.75</ele><time>2026-05-02T10:02:10.999Z</time></trkpt><trkpt lat="46.394838320638456" lon="9.676833152650563"><ele>1554.5</ele><time>2026-05-02T10:02:11.999Z</time></trkpt><trkpt lat="46.39476887964075" lon="9.676675121330796"><ele>1555.25</ele><time>2026-05-02T10:02:12.999Z</time></trkpt><trkpt lat="46.39473957409529" lon="9.676497371639696"><ele>1556.0</ele><time>2026-05-02T10:02:13.999Z</time></trkpt><trkpt lat="46.39468967174316" lon="9.676224727177912"><ele>1560.6666666666665</ele><time>2026-05-02T10:02:14.999Z</time></trkpt><trkpt lat="46.39461489285611" lon="9.67593112683913"><ele>1565.3333333333335</ele><time>2026-05-02T10:02:15.999Z</time></trkpt><trkpt lat="46.394510060150814" lon="9.675634873535282"><ele>1570.0</ele><time>2026-05-02T10:02:16.999Z</time></trkpt><trkpt lat="46.394441419482106" lon="9.675395454137131"><ele>1564.3333333333335</ele><time>2026-05-02T10:02:17.999Z</time></trkpt><trkpt lat="46.39442715992305" lon="9.675162761844515"><ele>1558.6666666666665</ele><time>2026-05-02T10:02:18.999Z</time></trkpt><trkpt lat="46.39446468848647" lon="9.674947641917637"><ele>1553.0</ele><time>2026-05-02T10:02:19.999Z</time></trkpt><trkpt lat="46.39450156572043" lon="9.674678195957295"><ele>1549.0</ele><time>2026-05-02T10:02:20.999Z</time></trkpt><trkpt lat="46.39446474853739" lon="9.674378992485074"><ele>1545.0</ele><time>2026-05-02T10:02:21.999Z</time></trkpt><trkpt lat="46.39440944702637" lon="9.674097401857239"><ele>1541.0</ele><time>2026-05-02T10:02:22.999Z</time></trkpt><trkpt lat="46.39437248401307" lon="9.673819834571193"><ele>1536.3333333333333</ele><time>2026-05-02T10:02:23.999Z</time></trkpt><trkpt lat="46.39439049558931" lon="9.673565366347473"><ele>1531.6666666666665</ele><time>2026-05-02T10:02:24.999Z</time></trkpt><trkpt lat="46.39441213882784" lon="9.673295963067376"><ele>1527.0</ele><time>2026-05-02T10:02:25.999Z</time></trkpt><trkpt lat="46.39440294550207" lon="9.673026900169704"><ele>1527.0</ele><time>2026-05-02T10:02:26.999Z</time></trkpt><trkpt lat="46.394352280286476" lon="9.672777220393575"><ele>1527.0</ele><time>2026-05-02T10:02:27.999Z</time></trkpt><trkpt lat="46.39428985443695" lon="9.672554310235219"><ele>1527.0</ele><time>2026-05-02T10:02:28.999Z</time></trkpt><trkpt lat="46.3942500866823" lon="9.672353419979764"><ele>1524.3333333333333</ele><time>2026-05-02T10:02:29.999Z</time></trkpt><trkpt lat="46.39420072930046" lon="9.672165218715001"><ele>1521.6666666666665</ele><time>2026-05-02T10:02:30.999Z</time></trkpt><trkpt lat="46.39423077049557" lon="9.671953004411565"><ele>1519.0</ele><time>2026-05-02T10:02:31.999Z</time></trkpt><trkpt lat="46.39429602578139" lon="9.67166743550772"><ele>1517.0</ele><time>2026-05-02T10:02:32.999Z</time></trkpt><trkpt lat="46.39442513312879" lon="9.67147431344297"><ele>1515.0</ele><time>2026-05-02T10:02:33.999Z</time></trkpt><trkpt lat="46.39455791520655" lon="9.671348850249736"><ele>1513.0</ele><time>2026-05-02T10:02:34.999Z</time></trkpt><trkpt lat="46.394626155175054" lon="9.671197738957515"><ele>1511.2</ele><time>2026-05-02T10:02:35.999Z</time></trkpt><trkpt lat="46.39465479538358" lon="9.671060959801167"><ele>1509.4</ele><time>2026-05-02T10:02:36.999Z</time></trkpt><trkpt lat="46.394630554366856" lon="9.67091462540918"><ele>1507.6000000000001</ele><time>2026-05-02T10:02:37.999Z</time></trkpt><trkpt lat="46.39456485043284" lon="9.67081044221538"><ele>1505.8000000000002</ele><time>2026-05-02T10:02:38.999Z</time></trkpt><trkpt lat="46.39445835846779" lon="9.670776841565772"><ele>1504.0</ele><time>2026-05-02T10:02:39.999Z</time></trkpt><trkpt lat="46.39434241380749" lon="9.670849701672823"><ele>1504.0</ele><time>2026-05-02T10:02:40.999Z</time></trkpt><trkpt lat="46.39425728201154" lon="9.671010759306226"><ele>1504.0</ele><time>2026-05-02T10:02:41.999Z</time></trkpt><trkpt lat="46.394209621929306" lon="9.671194010991615"><ele>1504.0</ele><time>2026-05-02T10:02:42.999Z</time></trkpt><trkpt lat="46.39418092829588" lon="9.6713888020242"><ele>1504.0</ele><time>2026-05-02T10:02:43.999Z</time></trkpt><trkpt lat="46.3941265876421" lon="9.671521935300728"><ele>1505.8000000000002</ele><time>2026-05-02T10:02:44.999Z</time></trkpt><trkpt lat="46.3940523608001" lon="9.671603030469557"><ele>1507.6000000000001</ele><time>2026-05-02T10:02:45.999Z</time></trkpt><trkpt lat="46.393960707225794" lon="9.671555416120478"><ele>1509.4</ele><time>2026-05-02T10:02:46.999Z</time></trkpt><trkpt lat="46.393889154738936" lon="9.671461466584216"><ele>1511.2</ele><time>2026-05-02T10:02:47.999Z</time></trkpt><trkpt lat="46.39384851475004" lon="9.671316887933441"><ele>1513.0</ele><time>2026-05-02T10:02:49Z</time></trkpt><trkpt lat="46.39386567400922" lon="9.671114445316597"><ele>1510.0</ele><time>2026-05-02T10:02:50Z</time></trkpt><trkpt lat="46.39394131345791" lon="9.670848028624759"><ele>1507.0</ele><time>2026-05-02T10:02:51Z</time></trkpt><trkpt lat="46.39393966163142" lon="9.670562681688432"><ele>1504.0</ele><time>2026-05-02T10:02:52Z</time></trkpt><trkpt lat="46.39392371612632" lon="9.670283379277933"><ele>1505.0</ele><time>2026-05-02T10:02:53Z</time></trkpt><trkpt lat="46.393895336812214" lon="9.669988818222786"><ele>1506.0</ele><time>2026-05-02T10:02:54Z</time></trkpt><trkpt lat="46.39386482734413" lon="9.66971460303694"><ele>1507.0</ele><time>2026-05-02T10:02:55Z</time></trkpt><trkpt lat="46.393810934644215" lon="9.66947275791939"><ele>1500.5</ele><time>2026-05-02T10:02:56Z</time></trkpt><trkpt lat="46.393752689859426" lon="9.669255506544827"><ele>1494.0</ele><time>2026-05-02T10:02:57Z</time></trkpt><trkpt lat="46.39367231233748" lon="9.669076337235115"><ele>1487.5</ele><time>2026-05-02T10:02:58Z</time></trkpt><trkpt lat="46.39359809350704" lon="9.668916896979802"><ele>1481.0</ele><time>2026-05-02T10:02:59Z</time></trkpt><trkpt lat="46.39351374427559" lon="9.668771596504618"><ele>1481.0</ele><time>2026-05-02T10:03:00Z</time></trkpt><trkpt lat="46.39343098138415" lon="9.668640544424509"><ele>1481.0</ele><time>2026-05-02T10:03:01Z</time></trkpt><trkpt lat="46.39333683984353" lon="9.668516760069286"><ele>1481.0</ele><time>2026-05-02T10:03:02Z</time></trkpt><trkpt lat="46.39323814197195" lon="9.668420849291442"><ele>1481.0</ele><time>2026-05-02T10:03:03Z</time></trkpt><trkpt lat="46.393140762346654" lon="9.668327596363149"><ele>1481.5</ele><time>2026-05-02T10:03:04Z</time></trkpt><trkpt lat="46.39305518942429" lon="9.668214663529485"><ele>1482.0</ele><time>2026-05-02T10:03:05Z</time></trkpt><trkpt lat="46.39296269888623" lon="9.668101441800916"><ele>1482.5</ele><time>2026-05-02T10:03:06Z</time></trkpt><trkpt lat="46.39286261340557" lon="9.667997880252539"><ele>1483.0</ele><time>2026-05-02T10:03:07Z</time></trkpt><trkpt lat="46.39276664169775" lon="9.667893517115058"><ele>1480.5</ele><time>2026-05-02T10:03:08Z</time></trkpt><trkpt lat="46.392678742587336" lon="9.667787297638238"><ele>1478.0</ele><time>2026-05-02T10:03:09Z</time></trkpt><trkpt lat="46.392579672968246" lon="9.667690548657934"><ele>1475.5</ele><time>2026-05-02T10:03:10Z</time></trkpt><trkpt lat="46.39248589439192" lon="9.66759494725955"><ele>1473.0</ele><time>2026-05-02T10:03:11Z</time></trkpt><trkpt lat="46.39239753664604" lon="9.667495415829249"><ele>1472.4</ele><time>2026-05-02T10:03:12Z</time></trkpt><trkpt lat="46.39231245413126" lon="9.667395710607522"><ele>1471.8000000000002</ele><time>2026-05-02T10:03:13Z</time></trkpt><trkpt lat="46.392225969934046" lon="9.667304011930547"><ele>1471.2</ele><time>2026-05-02T10:03:14Z</time></trkpt><trkpt lat="46.3921351575343" lon="9.667214315539256"><ele>1470.6</ele><time>2026-05-02T10:03:15Z</time></trkpt><trkpt lat="46.39204932404403" lon="9.667122007983648"><ele>1470.0</ele><time>2026-05-02T10:03:16Z</time></trkpt><trkpt lat="46.391965798345936" lon="9.667029237523808"><ele>1468.8</ele><time>2026-05-02T10:03:17Z</time></trkpt><trkpt lat="46.39188182334341" lon="9.666934078145808"><ele>1467.6</ele><time>2026-05-02T10:03:18Z</time></trkpt><trkpt lat="46.39179682851286" lon="9.666844231815663"><ele>1466.4</ele><time>2026-05-02T10:03:19Z</time></trkpt><trkpt lat="46.39170889405827" lon="9.666757752457434"><ele>1465.2</ele><time>2026-05-02T10:03:20Z</time></trkpt><trkpt lat="46.391618475853136" lon="9.66667359577492"><ele>1464.0</ele><time>2026-05-02T10:03:21Z</time></trkpt><trkpt lat="46.39152809769256" lon="9.666592339827153"><ele>1464.0</ele><time>2026-05-02T10:03:22Z</time></trkpt><trkpt lat="46.391437006823644" lon="9.666519747829565"><ele>1464.0</ele><time>2026-05-02T10:03:23Z</time></trkpt><trkpt lat="46.39134267059362" lon="9.666444410394508"><ele>1464.0</ele><time>2026-05-02T10:03:24Z</time></trkpt><trkpt lat="46.39124583710612" lon="9.666382292281067"><ele>1464.0</ele><time>2026-05-02T10:03:25Z</time></trkpt><trkpt lat="46.39115950399897" lon="9.666296783524448"><ele>1464.0</ele><time>2026-05-02T10:03:26Z</time></trkpt><trkpt lat="46.39105751021444" lon="9.666234125108101"><ele>1464.0</ele><time>2026-05-02T10:03:27Z</time></trkpt><trkpt lat="46.39096275226001" lon="9.666163094641048"><ele>1464.0</ele><time>2026-05-02T10:03:28Z</time></trkpt><trkpt lat="46.39087199233468" lon="9.666084482993492"><ele>1464.0</ele><time>2026-05-02T10:03:29Z</time></trkpt><trkpt lat="46.39078518337139" lon="9.665993759665247"><ele>1464.0</ele><time>2026-05-02T10:03:30Z</time></trkpt><trkpt lat="46.39069823314911" lon="9.665903234033435"><ele>1464.0</ele><time>2026-05-02T10:03:31Z</time></trkpt><trkpt lat="46.39060387679899" lon="9.665798903957915"><ele>1464.0</ele><time>2026-05-02T10:03:32Z</time></trkpt><trkpt lat="46.39050856180047" lon="9.66568012860049"><ele>1464.0</ele><time>2026-05-02T10:03:33Z</time></trkpt><trkpt lat="46.39041206526504" lon="9.665587376321586"><ele>1464.0</ele><time>2026-05-02T10:03:34Z</time></trkpt><trkpt lat="46.39031353112775" lon="9.66550747741659"><ele>1464.0</ele><time>2026-05-02T10:03:35Z</time></trkpt><trkpt lat="46.39020580247919" lon="9.665442085867916"><ele>1463.25</ele><time>2026-05-02T10:03:36Z</time></trkpt><trkpt lat="46.39009502529058" lon="9.665379524358977"><ele>1462.5</ele><time>2026-05-02T10:03:37Z</time></trkpt><trkpt lat="46.3899808941719" lon="9.665308825224106"><ele>1461.75</ele><time>2026-05-02T10:03:38Z</time></trkpt><trkpt lat="46.38985422568198" lon="9.665243546257834"><ele>1461.0</ele><time>2026-05-02T10:03:39Z</time></trkpt><trkpt lat="46.38973078313009" lon="9.66518455766093"><ele>1459.75</ele><time>2026-05-02T10:03:40Z</time></trkpt><trkpt lat="46.38961210488694" lon="9.665123370919664"><ele>1458.5</ele><time>2026-05-02T10:03:41Z</time></trkpt><trkpt lat="46.38947948725856" lon="9.665050868560774"><ele>1457.25</ele><time>2026-05-02T10:03:42Z</time></trkpt><trkpt lat="46.38934163947326" lon="9.664975987801785"><ele>1456.0</ele><time>2026-05-02T10:03:43Z</time></trkpt><trkpt lat="46.389195808469054" lon="9.664902307761883"><ele>1456.0</ele><time>2026-05-02T10:03:44Z</time></trkpt><trkpt lat="46.389055991720845" lon="9.664828136606413"><ele>1456.0</ele><time>2026-05-02T10:03:45Z</time></trkpt><trkpt lat="46.388987460418214" lon="9.664732386739761"><ele>1456.0</ele><time>2026-05-02T10:03:45.999Z</time></trkpt><trkpt lat="46.38885956544355" lon="9.664662448340179"><ele>1456.0</ele><time>2026-05-02T10:03:46.999Z</time></trkpt><trkpt lat="46.388647291584164" lon="9.664593788008311"><ele>1456.0</ele><time>2026-05-02T10:03:47.999Z</time></trkpt><trkpt lat="46.388403263778066" lon="9.664501946821494"><ele>1456.0</ele><time>2026-05-02T10:03:48.999Z</time></trkpt><trkpt lat="46.38823591396593" lon="9.66441406670318"><ele>1456.0</ele><time>2026-05-02T10:03:49.999Z</time></trkpt><trkpt lat="46.388063583336624" lon="9.664322342489317"><ele>1454.3333333333333</ele><time>2026-05-02T10:03:50.999Z</time></trkpt><trkpt lat="46.38787523571321" lon="9.66423003274599"><ele>1452.6666666666667</ele><time>2026-05-02T10:03:51.999Z</time></trkpt><trkpt lat="46.387684603868905" lon="9.664138511421976"><ele>1451.0</ele><time>2026-05-02T10:03:52.999Z</time></trkpt><trkpt lat="46.387495480975616" lon="9.664042576929926"><ele>1451.0</ele><time>2026-05-02T10:03:53.999Z</time></trkpt><trkpt lat="46.38731289074027" lon="9.663950156864942"><ele>1451.0</ele><time>2026-05-02T10:03:54.999Z</time></trkpt><trkpt lat="46.38712594183306" lon="9.663851269421766"><ele>1451.0</ele><time>2026-05-02T10:03:55.999Z</time></trkpt><trkpt lat="46.386938143030825" lon="9.663761787663118"><ele>1451.0</ele><time>2026-05-02T10:03:56.999Z</time></trkpt><trkpt lat="46.38674963555446" lon="9.66366269396318"><ele>1451.0</ele><time>2026-05-02T10:03:57.999Z</time></trkpt><trkpt lat="46.38656169867269" lon="9.663560246224426"><ele>1451.0</ele><time>2026-05-02T10:03:58.999Z</time></trkpt><trkpt lat="46.38636545914655" lon="9.663455313571415"><ele>1450.3333333333335</ele><time>2026-05-02T10:03:59.999Z</time></trkpt><trkpt lat="46.386168524779414" lon="9.663353823112175"><ele>1449.6666666666667</ele><time>2026-05-02T10:04:00.999Z</time></trkpt><trkpt lat="46.38597497426083" lon="9.663257078310242"><ele>1449.0</ele><time>2026-05-02T10:04:01.999Z</time></trkpt><trkpt lat="46.38578425881867" lon="9.663164374438145"><ele>1449.0</ele><time>2026-05-02T10:04:02.999Z</time></trkpt><trkpt lat="46.385591281503004" lon="9.663066437384305"><ele>1449.0</ele><time>2026-05-02T10:04:03.999Z</time></trkpt><trkpt lat="46.385396236035234" lon="9.662960006695984"><ele>1449.0</ele><time>2026-05-02T10:04:04.999Z</time></trkpt><trkpt lat="46.38519808678764" lon="9.662853908740928"><ele>1447.3333333333333</ele><time>2026-05-02T10:04:05.999Z</time></trkpt><trkpt lat="46.3849963865344" lon="9.662754048301464"><ele>1445.6666666666665</ele><time>2026-05-02T10:04:06.999Z</time></trkpt><trkpt lat="46.38479429239439" lon="9.662651686141723"><ele>1444.0</ele><time>2026-05-02T10:04:07.999Z</time></trkpt><trkpt lat="46.384594731737884" lon="9.662555844353326"><ele>1444.0</ele><time>2026-05-02T10:04:08.999Z</time></trkpt><trkpt lat="46.3843904371608" lon="9.662451406546447"><ele>1444.0</ele><time>2026-05-02T10:04:09.999Z</time></trkpt><trkpt lat="46.384189467672606" lon="9.662351856755356"><ele>1444.0</ele><time>2026-05-02T10:04:10.999Z</time></trkpt><trkpt lat="46.383986065471575" lon="9.662245804141097"><ele>1444.0</ele><time>2026-05-02T10:04:11.999Z</time></trkpt><trkpt lat="46.38382395001974" lon="9.662144366486192"><ele>1444.0</ele><time>2026-05-02T10:04:12.999Z</time></trkpt><trkpt lat="46.38359514785698" lon="9.662027909928415"><ele>1444.0</ele><time>2026-05-02T10:04:13.999Z</time></trkpt><trkpt lat="46.383401248529" lon="9.661931094722714"><ele>1443.3333333333333</ele><time>2026-05-02T10:04:14.999Z</time></trkpt><trkpt lat="46.383209651126265" lon="9.661833258723808"><ele>1442.6666666666667</ele><time>2026-05-02T10:04:15.999Z</time></trkpt><trkpt lat="46.38301854722907" lon="9.661732657042043"><ele>1442.0</ele><time>2026-05-02T10:04:16.999Z</time></trkpt><trkpt lat="46.3828279078024" lon="9.66162748090007"><ele>1441.6666666666667</ele><time>2026-05-02T10:04:17.999Z</time></trkpt><trkpt lat="46.382638966350896" lon="9.66152990972482"><ele>1441.3333333333333</ele><time>2026-05-02T10:04:18.999Z</time></trkpt><trkpt lat="46.38244962687294" lon="9.661435130408082"><ele>1441.0</ele><time>2026-05-02T10:04:19.999Z</time></trkpt><trkpt lat="46.382265615631205" lon="9.661342465746463"><ele>1441.3333333333333</ele><time>2026-05-02T10:04:20.999Z</time></trkpt><trkpt lat="46.38208872415164" lon="9.661252909706613"><ele>1441.6666666666667</ele><time>2026-05-02T10:04:21.999Z</time></trkpt><trkpt lat="46.38190339350712" lon="9.661176147382713"><ele>1442.0</ele><time>2026-05-02T10:04:22.999Z</time></trkpt><trkpt lat="46.38172009407296" lon="9.661106019283956"><ele>1442.0</ele><time>2026-05-02T10:04:23.999Z</time></trkpt><trkpt lat="46.381536546278014" lon="9.66105954032456"><ele>1442.0</ele><time>2026-05-02T10:04:24.999Z</time></trkpt><trkpt lat="46.38133985099823" lon="9.661038994678302"><ele>1442.0</ele><time>2026-05-02T10:04:25.999Z</time></trkpt><trkpt lat="46.38114180571337" lon="9.66101352041853"><ele>1442.6666666666667</ele><time>2026-05-02T10:04:26.999Z</time></trkpt><trkpt lat="46.380940366642164" lon="9.660990977610071"><ele>1443.3333333333333</ele><time>2026-05-02T10:04:27.999Z</time></trkpt><trkpt lat="46.38073884358464" lon="9.660970999371584"><ele>1444.0</ele><time>2026-05-02T10:04:28.999Z</time></trkpt><trkpt lat="46.38054024870331" lon="9.66094749565155"><ele>1442.3333333333333</ele><time>2026-05-02T10:04:29.999Z</time></trkpt><trkpt lat="46.380337583045744" lon="9.660927384656569"><ele>1440.6666666666667</ele><time>2026-05-02T10:04:30.999Z</time></trkpt><trkpt lat="46.380131283185186" lon="9.660908136624732"><ele>1439.0</ele><time>2026-05-02T10:04:31.999Z</time></trkpt><trkpt lat="46.37993414337501" lon="9.660894401896922"><ele>1439.0</ele><time>2026-05-02T10:04:32.999Z</time></trkpt><trkpt lat="46.37973189868366" lon="9.660880443990484"><ele>1439.0</ele><time>2026-05-02T10:04:33.999Z</time></trkpt><trkpt lat="46.379538000943356" lon="9.660854629842222"><ele>1439.0</ele><time>2026-05-02T10:04:34.999Z</time></trkpt><trkpt lat="46.37935514956873" lon="9.660841659719162"><ele>1438.6666666666667</ele><time>2026-05-02T10:04:35.999Z</time></trkpt><trkpt lat="46.37917018608718" lon="9.660818977370887"><ele>1438.3333333333333</ele><time>2026-05-02T10:04:36.999Z</time></trkpt><trkpt lat="46.37898375402577" lon="9.66079828696453"><ele>1438.0</ele><time>2026-05-02T10:04:37.999Z</time></trkpt><trkpt lat="46.378803003082666" lon="9.66077535852884"><ele>1437.3333333333333</ele><time>2026-05-02T10:04:38.999Z</time></trkpt><trkpt lat="46.37862460770017" lon="9.660753671372706"><ele>1436.6666666666667</ele><time>2026-05-02T10:04:39.999Z</time></trkpt><trkpt lat="46.37844343674152" lon="9.66072961055024"><ele>1436.0</ele><time>2026-05-02T10:04:40.999Z</time></trkpt><trkpt lat="46.37826613172983" lon="9.660704737394253"><ele>1436.0</ele><time>2026-05-02T10:04:41.999Z</time></trkpt><trkpt lat="46.378096646494846" lon="9.660685197871077"><ele>1436.0</ele><time>2026-05-02T10:04:42.999Z</time></trkpt><trkpt lat="46.37793212653499" lon="9.660663200020418"><ele>1436.0</ele><time>2026-05-02T10:04:43.999Z</time></trkpt><trkpt lat="46.37776667447407" lon="9.660640212559324"><ele>1436.6666666666667</ele><time>2026-05-02T10:04:44.999Z</time></trkpt><trkpt lat="46.377594174370785" lon="9.660618253442454"><ele>1437.3333333333333</ele><time>2026-05-02T10:04:45.999Z</time></trkpt><trkpt lat="46.377417136269344" lon="9.660584817305558"><ele>1438.0</ele><time>2026-05-02T10:04:46.999Z</time></trkpt><trkpt lat="46.377237216666686" lon="9.660542157887262"><ele>1438.3333333333333</ele><time>2026-05-02T10:04:47.999Z</time></trkpt><trkpt lat="46.37705437675569" lon="9.660484236896702"><ele>1438.6666666666667</ele><time>2026-05-02T10:04:48.999Z</time></trkpt><trkpt lat="46.3768721618335" lon="9.660417849157383"><ele>1439.0</ele><time>2026-05-02T10:04:49.999Z</time></trkpt><trkpt lat="46.37668924853456" lon="9.660354131870614"><ele>1439.0</ele><time>2026-05-02T10:04:50.999Z</time></trkpt><trkpt lat="46.37650643723091" lon="9.660284376231731"><ele>1439.0</ele><time>2026-05-02T10:04:51.999Z</time></trkpt><trkpt lat="46.37633714464535" lon="9.660226327045113"><ele>1439.0</ele><time>2026-05-02T10:04:52.999Z</time></trkpt><trkpt lat="46.37617357219225" lon="9.66017534302483"><ele>1437.0</ele><time>2026-05-02T10:04:54Z</time></trkpt><trkpt lat="46.37601377287414" lon="9.660125639644336"><ele>1435.0</ele><time>2026-05-02T10:04:55Z</time></trkpt><trkpt lat="46.375864422822005" lon="9.660074474681279"><ele>1433.0</ele><time>2026-05-02T10:04:56Z</time></trkpt><trkpt lat="46.3757198553556" lon="9.660026785627377"><ele>1433.0</ele><time>2026-05-02T10:04:57Z</time></trkpt><trkpt lat="46.37557612417836" lon="9.659977130846919"><ele>1433.0</ele><time>2026-05-02T10:04:58Z</time></trkpt><trkpt lat="46.375432207687155" lon="9.65992952424801"><ele>1433.0</ele><time>2026-05-02T10:04:59Z</time></trkpt><trkpt lat="46.37529115276771" lon="9.659884717973192"><ele>1433.0</ele><time>2026-05-02T10:05:00Z</time></trkpt><trkpt lat="46.37515076792905" lon="9.659826225407116"><ele>1435.3333333333335</ele><time>2026-05-02T10:05:01Z</time></trkpt><trkpt lat="46.375006290449484" lon="9.65975880404054"><ele>1437.6666666666667</ele><time>2026-05-02T10:05:02Z</time></trkpt><trkpt lat="46.37485967589712" lon="9.659688557477086"><ele>1440.0</ele><time>2026-05-02T10:05:03Z</time></trkpt><trkpt lat="46.37471981035424" lon="9.659607664122609"><ele>1438.0</ele><time>2026-05-02T10:05:04Z</time></trkpt><trkpt lat="46.37457726969341" lon="9.659515081611813"><ele>1436.0</ele><time>2026-05-02T10:05:05Z</time></trkpt><trkpt lat="46.374437834567004" lon="9.659425577611588"><ele>1434.0</ele><time>2026-05-02T10:05:06Z</time></trkpt><trkpt lat="46.374296942238246" lon="9.659359836421677"><ele>1434.0</ele><time>2026-05-02T10:05:07Z</time></trkpt><trkpt lat="46.37414549432922" lon="9.659326509766897"><ele>1434.0</ele><time>2026-05-02T10:05:08Z</time></trkpt><trkpt lat="46.37398851507831" lon="9.659319825030384"><ele>1434.0</ele><time>2026-05-02T10:05:09Z</time></trkpt><trkpt lat="46.37383097127614" lon="9.659338916377095"><ele>1433.3333333333333</ele><time>2026-05-02T10:05:10Z</time></trkpt><trkpt lat="46.3736736957086" lon="9.65939907726982"><ele>1432.6666666666665</ele><time>2026-05-02T10:05:11Z</time></trkpt><trkpt lat="46.37352332056108" lon="9.659471841267152"><ele>1432.0</ele><time>2026-05-02T10:05:12Z</time></trkpt><trkpt lat="46.373375655912874" lon="9.659540045010367"><ele>1435.3333333333333</ele><time>2026-05-02T10:05:13Z</time></trkpt><trkpt lat="46.37322378695319" lon="9.659612169753823"><ele>1438.6666666666667</ele><time>2026-05-02T10:05:14Z</time></trkpt><trkpt lat="46.37307206465278" lon="9.659679204397785"><ele>1442.0</ele><time>2026-05-02T10:05:15Z</time></trkpt><trkpt lat="46.372926435948884" lon="9.65973159870083"><ele>1442.0</ele><time>2026-05-02T10:05:16Z</time></trkpt><trkpt lat="46.37278134882726" lon="9.659766829855673"><ele>1442.0</ele><time>2026-05-02T10:05:17Z</time></trkpt><trkpt lat="46.37262506484432" lon="9.659752044095756"><ele>1442.0</ele><time>2026-05-02T10:05:18Z</time></trkpt><trkpt lat="46.37246982448769" lon="9.659725252849446"><ele>1442.0</ele><time>2026-05-02T10:05:19Z</time></trkpt><trkpt lat="46.372321810413126" lon="9.659680138700004"><ele>1442.0</ele><time>2026-05-02T10:05:20Z</time></trkpt><trkpt lat="46.37217969722329" lon="9.65964504570267"><ele>1442.0</ele><time>2026-05-02T10:05:21Z</time></trkpt><trkpt lat="46.37204047620203" lon="9.65963666359065"><ele>1442.0</ele><time>2026-05-02T10:05:22Z</time></trkpt><trkpt lat="46.37190749290341" lon="9.659646686457858"><ele>1440.5</ele><time>2026-05-02T10:05:23Z</time></trkpt><trkpt lat="46.37177798206564" lon="9.65966666934207"><ele>1439.0</ele><time>2026-05-02T10:05:24Z</time></trkpt><trkpt lat="46.371664193955645" lon="9.659698543148208"><ele>1437.5</ele><time>2026-05-02T10:05:25Z</time></trkpt><trkpt lat="46.3715464385892" lon="9.659699057315697"><ele>1436.0</ele><time>2026-05-02T10:05:26Z</time></trkpt><trkpt lat="46.371416256698176" lon="9.659676196333198"><ele>1435.75</ele><time>2026-05-02T10:05:27Z</time></trkpt><trkpt lat="46.37131121845294" lon="9.659529749643871"><ele>1435.5</ele><time>2026-05-02T10:05:28Z</time></trkpt><trkpt lat="46.37121574320823" lon="9.659379055964187"><ele>1435.25</ele><time>2026-05-02T10:05:29Z</time></trkpt><trkpt lat="46.37110651722614" lon="9.659252266497864"><ele>1435.0</ele><time>2026-05-02T10:05:30Z</time></trkpt><trkpt lat="46.37096535599096" lon="9.6591184377305"><ele>1430.3333333333333</ele><time>2026-05-02T10:05:31Z</time></trkpt><trkpt lat="46.37083846023338" lon="9.658984188156925"><ele>1425.6666666666667</ele><time>2026-05-02T10:05:32Z</time></trkpt><trkpt lat="46.370714818195914" lon="9.65884983463301"><ele>1421.0</ele><time>2026-05-02T10:05:33Z</time></trkpt><trkpt lat="46.37059211282009" lon="9.658709148056609"><ele>1417.6666666666667</ele><time>2026-05-02T10:05:34Z</time></trkpt><trkpt lat="46.37045178296768" lon="9.65856310973534"><ele>1414.3333333333333</ele><time>2026-05-02T10:05:35Z</time></trkpt><trkpt lat="46.37030347674674" lon="9.658432649985194"><ele>1411.0</ele><time>2026-05-02T10:05:36Z</time></trkpt><trkpt lat="46.37017909930426" lon="9.658320667936486"><ele>1411.0</ele><time>2026-05-02T10:05:37Z</time></trkpt><trkpt lat="46.37003730319067" lon="9.658227079839865"><ele>1411.0</ele><time>2026-05-02T10:05:38Z</time></trkpt><trkpt lat="46.36988706291326" lon="9.658148342614759"><ele>1411.0</ele><time>2026-05-02T10:05:39Z</time></trkpt><trkpt lat="46.36974922381842" lon="9.65805616983522"><ele>1408.3333333333333</ele><time>2026-05-02T10:05:40Z</time></trkpt><trkpt lat="46.36960265418272" lon="9.657969182125129"><ele>1405.6666666666667</ele><time>2026-05-02T10:05:41Z</time></trkpt><trkpt lat="46.36944884018955" lon="9.657895061839904"><ele>1403.0</ele><time>2026-05-02T10:05:42Z</time></trkpt><trkpt lat="46.36920947669625" lon="9.657885016895063"><ele>1403.0</ele><time>2026-05-02T10:05:43Z</time></trkpt><trkpt lat="46.369006228246015" lon="9.657857738801555"><ele>1403.0</ele><time>2026-05-02T10:05:44Z</time></trkpt><trkpt lat="46.368896329328514" lon="9.657814111764182"><ele>1403.0</ele><time>2026-05-02T10:05:45Z</time></trkpt><trkpt lat="46.36882677077906" lon="9.657797736795217"><ele>1403.0</ele><time>2026-05-02T10:05:46Z</time></trkpt><trkpt lat="46.36868847220285" lon="9.657709209672145"><ele>1399.75</ele><time>2026-05-02T10:05:47Z</time></trkpt><trkpt lat="46.368550249517746" lon="9.657597582022827"><ele>1396.5</ele><time>2026-05-02T10:05:48Z</time></trkpt><trkpt lat="46.368413295674294" lon="9.657532697033677"><ele>1393.25</ele><time>2026-05-02T10:05:49Z</time></trkpt><trkpt lat="46.36828615690199" lon="9.657441577339585"><ele>1390.0</ele><time>2026-05-02T10:05:50Z</time></trkpt><trkpt lat="46.36816206130867" lon="9.65735939381996"><ele>1387.6666666666665</ele><time>2026-05-02T10:05:51Z</time></trkpt><trkpt lat="46.36800633115242" lon="9.657313137142845"><ele>1385.3333333333333</ele><time>2026-05-02T10:05:52Z</time></trkpt><trkpt lat="46.36784975793976" lon="9.657283817854177"><ele>1383.0</ele><time>2026-05-02T10:05:53Z</time></trkpt><trkpt lat="46.367701564434675" lon="9.657257337099637"><ele>1383.0</ele><time>2026-05-02T10:05:54Z</time></trkpt><trkpt lat="46.36754897138272" lon="9.657246273898734"><ele>1383.0</ele><time>2026-05-02T10:05:55Z</time></trkpt><trkpt lat="46.36739638112362" lon="9.657247554996298"><ele>1383.0</ele><time>2026-05-02T10:05:56Z</time></trkpt><trkpt lat="46.367246346995124" lon="9.6572512167126"><ele>1381.5</ele><time>2026-05-02T10:05:57Z</time></trkpt><trkpt lat="46.367098649214874" lon="9.657268213702393"><ele>1380.0</ele><time>2026-05-02T10:05:58Z</time></trkpt><trkpt lat="46.36695236465024" lon="9.657288749822706"><ele>1378.5</ele><time>2026-05-02T10:05:58.999Z</time></trkpt><trkpt lat="46.366804257555174" lon="9.657296763629603"><ele>1377.0</ele><time>2026-05-02T10:05:59.999Z</time></trkpt><trkpt lat="46.366649605791416" lon="9.657281503217586"><ele>1377.0</ele><time>2026-05-02T10:06:00.999Z</time></trkpt><trkpt lat="46.366496558606826" lon="9.657224928168821"><ele>1377.0</ele><time>2026-05-02T10:06:01.999Z</time></trkpt><trkpt lat="46.36634612269099" lon="9.657145618171453"><ele>1377.0</ele><time>2026-05-02T10:06:02.999Z</time></trkpt><trkpt lat="46.366205027370455" lon="9.657054170560654"><ele>1376.25</ele><time>2026-05-02T10:06:03.999Z</time></trkpt><trkpt lat="46.36605846073189" lon="9.65698014666452"><ele>1375.5</ele><time>2026-05-02T10:06:04.999Z</time></trkpt><trkpt lat="46.36591939454137" lon="9.656920092844098"><ele>1374.75</ele><time>2026-05-02T10:06:05.999Z</time></trkpt><trkpt lat="46.365792793868515" lon="9.656861913483732"><ele>1374.0</ele><time>2026-05-02T10:06:06.999Z</time></trkpt><trkpt lat="46.36567693805224" lon="9.656812087639558"><ele>1372.8000000000002</ele><time>2026-05-02T10:06:07.999Z</time></trkpt><trkpt lat="46.36557039502169" lon="9.656770840168884"><ele>1371.6000000000001</ele><time>2026-05-02T10:06:08.999Z</time></trkpt><trkpt lat="46.36546967711123" lon="9.656731239512249"><ele>1370.4</ele><time>2026-05-02T10:06:09.999Z</time></trkpt><trkpt lat="46.365377670166204" lon="9.656688240956012"><ele>1369.2</ele><time>2026-05-02T10:06:10.999Z</time></trkpt><trkpt lat="46.36530995487268" lon="9.656609717302882"><ele>1368.0</ele><time>2026-05-02T10:06:11.999Z</time></trkpt><trkpt lat="46.3652686832207" lon="9.656500637456848"><ele>1368.0</ele><time>2026-05-02T10:06:12.999Z</time></trkpt><trkpt lat="46.36530468890095" lon="9.656362740579253"><ele>1368.0</ele><time>2026-05-02T10:06:13.999Z</time></trkpt><trkpt lat="46.365366633486275" lon="9.656284480419927"><ele>1368.0</ele><time>2026-05-02T10:06:14.999Z</time></trkpt><trkpt lat="46.36549155378299" lon="9.65618182607236"><ele>1368.0</ele><time>2026-05-02T10:06:15.999Z</time></trkpt><trkpt lat="46.36559593372502" lon="9.656082680209774"><ele>1363.75</ele><time>2026-05-02T10:06:16.999Z</time></trkpt><trkpt lat="46.365664796329625" lon="9.656017270672894"><ele>1359.5</ele><time>2026-05-02T10:06:17.999Z</time></trkpt><trkpt lat="46.36580441176783" lon="9.655858876575161"><ele>1355.25</ele><time>2026-05-02T10:06:18.999Z</time></trkpt><trkpt lat="46.365933278724725" lon="9.655762280150077"><ele>1351.0</ele><time>2026-05-02T10:06:19.999Z</time></trkpt><trkpt lat="46.36604858728377" lon="9.655643295624785"><ele>1351.0</ele><time>2026-05-02T10:06:20.999Z</time></trkpt><trkpt lat="46.366155562027714" lon="9.655530847400437"><ele>1351.0</ele><time>2026-05-02T10:06:21.999Z</time></trkpt><trkpt lat="46.36626634022284" lon="9.655418465144223"><ele>1351.0</ele><time>2026-05-02T10:06:22.999Z</time></trkpt><trkpt lat="46.36636888994522" lon="9.655300718993898"><ele>1351.0</ele><time>2026-05-02T10:06:23.999Z</time></trkpt><trkpt lat="46.36645539925593" lon="9.655158966873477"><ele>1350.0</ele><time>2026-05-02T10:06:24.999Z</time></trkpt><trkpt lat="46.366537281519584" lon="9.655010267559838"><ele>1349.0</ele><time>2026-05-02T10:06:25.999Z</time></trkpt><trkpt lat="46.36661056333551" lon="9.65485866097297"><ele>1348.0</ele><time>2026-05-02T10:06:26.999Z</time></trkpt><trkpt lat="46.36668183608128" lon="9.654710783168829"><ele>1347.0</ele><time>2026-05-02T10:06:27.999Z</time></trkpt><trkpt lat="46.36674329530438" lon="9.654574023354451"><ele>1344.8</ele><time>2026-05-02T10:06:28.999Z</time></trkpt><trkpt lat="46.36679309571297" lon="9.654438789831842"><ele>1342.6</ele><time>2026-05-02T10:06:29.999Z</time></trkpt><trkpt lat="46.36681822524296" lon="9.654293835622378"><ele>1340.3999999999999</ele><time>2026-05-02T10:06:30.999Z</time></trkpt><trkpt lat="46.36679558195123" lon="9.654141648937312"><ele>1338.1999999999998</ele><time>2026-05-02T10:06:31.999Z</time></trkpt><trkpt lat="46.3667396740018" lon="9.654001963127737"><ele>1336.0</ele><time>2026-05-02T10:06:32.999Z</time></trkpt><trkpt lat="46.366639626680396" lon="9.65389558884571"><ele>1336.0</ele><time>2026-05-02T10:06:33.999Z</time></trkpt><trkpt lat="46.366505377746186" lon="9.653839962131098"><ele>1336.0</ele><time>2026-05-02T10:06:34.999Z</time></trkpt><trkpt lat="46.36635949313709" lon="9.653812351651004"><ele>1336.0</ele><time>2026-05-02T10:06:35.999Z</time></trkpt><trkpt lat="46.36620039818192" lon="9.653794837880874"><ele>1336.0</ele><time>2026-05-02T10:06:36.999Z</time></trkpt><trkpt lat="46.36603984659933" lon="9.653768004883128"><ele>1335.6666666666665</ele><time>2026-05-02T10:06:37.999Z</time></trkpt><trkpt lat="46.365884549627125" lon="9.653729985557296"><ele>1335.3333333333333</ele><time>2026-05-02T10:06:38.999Z</time></trkpt><trkpt lat="46.365732813755315" lon="9.653689078332132"><ele>1335.0</ele><time>2026-05-02T10:06:39.999Z</time></trkpt><trkpt lat="46.36558389953921" lon="9.653652056487209"><ele>1332.0</ele><time>2026-05-02T10:06:40.999Z</time></trkpt><trkpt lat="46.36542903624753" lon="9.653616443713478"><ele>1329.0</ele><time>2026-05-02T10:06:41.999Z</time></trkpt><trkpt lat="46.365270961793584" lon="9.653569609332523"><ele>1326.0</ele><time>2026-05-02T10:06:42.999Z</time></trkpt><trkpt lat="46.365101863577046" lon="9.653525409412344"><ele>1326.0</ele><time>2026-05-02T10:06:43.999Z</time></trkpt><trkpt lat="46.36492907698477" lon="9.65347974687705"><ele>1326.0</ele><time>2026-05-02T10:06:44.999Z</time></trkpt><trkpt lat="46.364752852608845" lon="9.653436195074582"><ele>1326.0</ele><time>2026-05-02T10:06:45.999Z</time></trkpt><trkpt lat="46.36458199998979" lon="9.653388769598692"><ele>1328.0</ele><time>2026-05-02T10:06:46.999Z</time></trkpt><trkpt lat="46.36440688446699" lon="9.653335831245636"><ele>1330.0</ele><time>2026-05-02T10:06:47.999Z</time></trkpt><trkpt lat="46.36423648230331" lon="9.653260764840514"><ele>1332.0</ele><time>2026-05-02T10:06:48.999Z</time></trkpt><trkpt lat="46.36406947655215" lon="9.653162374420331"><ele>1332.0</ele><time>2026-05-02T10:06:49.999Z</time></trkpt><trkpt lat="46.3639040246255" lon="9.653041117590556"><ele>1332.0</ele><time>2026-05-02T10:06:50.999Z</time></trkpt><trkpt lat="46.36376105802773" lon="9.652864077897155"><ele>1332.0</ele><time>2026-05-02T10:06:51.999Z</time></trkpt><trkpt lat="46.36363948292347" lon="9.65269367292205"><ele>1329.6666666666667</ele><time>2026-05-02T10:06:52.999Z</time></trkpt><trkpt lat="46.36353052484947" lon="9.652509785281822"><ele>1327.3333333333335</ele><time>2026-05-02T10:06:53.999Z</time></trkpt><trkpt lat="46.36343625462458" lon="9.652326295570044"><ele>1325.0</ele><time>2026-05-02T10:06:54.999Z</time></trkpt><trkpt lat="46.36333955259254" lon="9.652146318275614"><ele>1325.0</ele><time>2026-05-02T10:06:55.999Z</time></trkpt><trkpt lat="46.36324416041225" lon="9.652005932284773"><ele>1325.0</ele><time>2026-05-02T10:06:56.999Z</time></trkpt><trkpt lat="46.36314961172788" lon="9.651914390744025"><ele>1325.0</ele><time>2026-05-02T10:06:57.999Z</time></trkpt><trkpt lat="46.3630372889533" lon="9.651844103687466"><ele>1325.0</ele><time>2026-05-02T10:06:58.999Z</time></trkpt><trkpt lat="46.36292541382668" lon="9.651787638650791"><ele>1324.5</ele><time>2026-05-02T10:07:00Z</time></trkpt><trkpt lat="46.36281957177455" lon="9.651751513300752"><ele>1324.0</ele><time>2026-05-02T10:07:01Z</time></trkpt><trkpt lat="46.36274450898316" lon="9.651722034436771"><ele>1323.5</ele><time>2026-05-02T10:07:02Z</time></trkpt><trkpt lat="46.36268433302775" lon="9.651680823112715"><ele>1323.0</ele><time>2026-05-02T10:07:03Z</time></trkpt><trkpt lat="46.362637066136436" lon="9.651599071776257"><ele>1322.5</ele><time>2026-05-02T10:07:04Z</time></trkpt><trkpt lat="46.362645870085466" lon="9.651480279211093"><ele>1322.0</ele><time>2026-05-02T10:07:05Z</time></trkpt><trkpt lat="46.36270712576885" lon="9.651408940953335"><ele>1322.0</ele><time>2026-05-02T10:07:06Z</time></trkpt><trkpt lat="46.3627723143495" lon="9.651398725098849"><ele>1322.0</ele><time>2026-05-02T10:07:07Z</time></trkpt><trkpt lat="46.36288109220122" lon="9.651422005904017"><ele>1322.0</ele><time>2026-05-02T10:07:08Z</time></trkpt><trkpt lat="46.363028519245" lon="9.651435825842828"><ele>1322.0</ele><time>2026-05-02T10:07:09Z</time></trkpt><trkpt lat="46.36313592610462" lon="9.651455781239118"><ele>1322.0</ele><time>2026-05-02T10:07:10Z</time></trkpt><trkpt lat="46.3632744220658" lon="9.651433481318927"><ele>1319.8</ele><time>2026-05-02T10:07:11Z</time></trkpt><trkpt lat="46.36337287291373" lon="9.651449273928645"><ele>1317.6</ele><time>2026-05-02T10:07:12Z</time></trkpt><trkpt lat="46.36348468276643" lon="9.651450859456459"><ele>1315.3999999999999</ele><time>2026-05-02T10:07:13Z</time></trkpt><trkpt lat="46.36360016129451" lon="9.651435527449735"><ele>1313.1999999999998</ele><time>2026-05-02T10:07:14Z</time></trkpt><trkpt lat="46.36370381101333" lon="9.65135851644955"><ele>1311.0</ele><time>2026-05-02T10:07:15Z</time></trkpt><trkpt lat="46.363768434867126" lon="9.651233466038335"><ele>1307.8</ele><time>2026-05-02T10:07:16Z</time></trkpt><trkpt lat="46.36380572647027" lon="9.651070965086278"><ele>1304.6</ele><time>2026-05-02T10:07:17Z</time></trkpt><trkpt lat="46.36384857408631" lon="9.650908369030796"><ele>1301.4</ele><time>2026-05-02T10:07:18Z</time></trkpt><trkpt lat="46.36389349692692" lon="9.650765710159794"><ele>1298.2</ele><time>2026-05-02T10:07:19Z</time></trkpt><trkpt lat="46.36394451683834" lon="9.650671441828369"><ele>1295.0</ele><time>2026-05-02T10:07:20Z</time></trkpt><trkpt lat="46.36400643441624" lon="9.650594765372839"><ele>1294.8</ele><time>2026-05-02T10:07:21Z</time></trkpt><trkpt lat="46.3640650708986" lon="9.650526440066258"><ele>1294.6</ele><time>2026-05-02T10:07:22Z</time></trkpt><trkpt lat="46.364108535733415" lon="9.65041620127539"><ele>1294.4</ele><time>2026-05-02T10:07:23Z</time></trkpt><trkpt lat="46.36407955681766" lon="9.650285549927075"><ele>1294.2</ele><time>2026-05-02T10:07:24Z</time></trkpt><trkpt lat="46.3640090679616" lon="9.650200738747694"><ele>1294.0</ele><time>2026-05-02T10:07:25Z</time></trkpt><trkpt lat="46.363906969457446" lon="9.650162468193846"><ele>1292.8000000000002</ele><time>2026-05-02T10:07:26Z</time></trkpt><trkpt lat="46.363793150304566" lon="9.650142205964631"><ele>1291.6000000000001</ele><time>2026-05-02T10:07:27Z</time></trkpt><trkpt lat="46.3636789648101" lon="9.650126033677381"><ele>1290.4</ele><time>2026-05-02T10:07:28Z</time></trkpt><trkpt lat="46.36360395960753" lon="9.650056187538475"><ele>1289.2</ele><time>2026-05-02T10:07:29Z</time></trkpt><trkpt lat="46.3635207075584" lon="9.64996618645142"><ele>1288.0</ele><time>2026-05-02T10:07:31Z</time></trkpt><trkpt lat="46.36358699664327" lon="9.649740608049836"><ele>1288.0</ele><time>2026-05-02T10:07:32Z</time></trkpt><trkpt lat="46.363644875948694" lon="9.649606512671097"><ele>1288.0</ele><time>2026-05-02T10:07:33Z</time></trkpt><trkpt lat="46.36371188724124" lon="9.64946856211237"><ele>1288.0</ele><time>2026-05-02T10:07:34Z</time></trkpt><trkpt lat="46.36382224869097" lon="9.649334677775153"><ele>1288.0</ele><time>2026-05-02T10:07:35Z</time></trkpt><trkpt lat="46.36397793455577" lon="9.649197983593837"><ele>1288.0</ele><time>2026-05-02T10:07:36Z</time></trkpt><trkpt lat="46.36412496046429" lon="9.649089258194989"><ele>1288.0</ele><time>2026-05-02T10:07:37Z</time></trkpt><trkpt lat="46.36268101337957" lon="9.649151560274"><ele>1288.0</ele><time>2026-05-02T10:07:38Z</time></trkpt><trkpt lat="46.36260382655621" lon="9.649027181587302"><ele>1288.0</ele><time>2026-05-02T10:07:39Z</time></trkpt><trkpt lat="46.36252143329778" lon="9.648921108818492"><ele>1288.0</ele><time>2026-05-02T10:07:40Z</time></trkpt><trkpt lat="46.362388227932136" lon="9.648872240512867"><ele>1288.0</ele><time>2026-05-02T10:07:41Z</time></trkpt><trkpt lat="46.36226536675828" lon="9.648830653268908"><ele>1288.0</ele><time>2026-05-02T10:07:42Z</time></trkpt><trkpt lat="46.362137572740025" lon="9.648855084039837"><ele>1288.0</ele><time>2026-05-02T10:07:43Z</time></trkpt><trkpt lat="46.36199713145399" lon="9.648876478846216"><ele>1288.0</ele><time>2026-05-02T10:07:44Z</time></trkpt><trkpt lat="46.36185715333446" lon="9.648860130597987"><ele>1288.0</ele><time>2026-05-02T10:07:45Z</time></trkpt><trkpt lat="46.361722761272624" lon="9.648758618279174"><ele>1288.0</ele><time>2026-05-02T10:07:46Z</time></trkpt><trkpt lat="46.361575450211525" lon="9.648649186722878"><ele>1288.0</ele><time>2026-05-02T10:07:47Z</time></trkpt><trkpt lat="46.36143418919821" lon="9.64853671393343"><ele>1288.0</ele><time>2026-05-02T10:07:48Z</time></trkpt><trkpt lat="46.361302998487346" lon="9.648432483910875"><ele>1283.5</ele><time>2026-05-02T10:07:49Z</time></trkpt><trkpt lat="46.36120505643977" lon="9.648297086183332"><ele>1279.0</ele><time>2026-05-02T10:07:50Z</time></trkpt><trkpt lat="46.36110203033855" lon="9.648179538322244"><ele>1274.5</ele><time>2026-05-02T10:07:51Z</time></trkpt><trkpt lat="46.36100763003684" lon="9.648071832330935"><ele>1270.0</ele><time>2026-05-02T10:07:52Z</time></trkpt><trkpt lat="46.36093579429345" lon="9.647980130510103"><ele>1270.0</ele><time>2026-05-02T10:07:53Z</time></trkpt><trkpt lat="46.36088110750365" lon="9.647889418392392"><ele>1270.0</ele><time>2026-05-02T10:07:54Z</time></trkpt><trkpt lat="46.360850059513396" lon="9.647791884289445"><ele>1270.0</ele><time>2026-05-02T10:07:55Z</time></trkpt><trkpt lat="46.36085618294517" lon="9.647692743273561"><ele>1270.0</ele><time>2026-05-02T10:07:56Z</time></trkpt><trkpt lat="46.36095911433674" lon="9.647594039481497"><ele>1270.0</ele><time>2026-05-02T10:07:58Z</time></trkpt><trkpt lat="46.36104381390491" lon="9.647596174310193"><ele>1270.0</ele><time>2026-05-02T10:07:59Z</time></trkpt><trkpt lat="46.361144667318705" lon="9.647599506900038"><ele>1267.0</ele><time>2026-05-02T10:08:00Z</time></trkpt><trkpt lat="46.361261779526664" lon="9.647646418337686"><ele>1264.0</ele><time>2026-05-02T10:08:01Z</time></trkpt><trkpt lat="46.361446748811694" lon="9.647550507648859"><ele>1261.0</ele><time>2026-05-02T10:08:02Z</time></trkpt><trkpt lat="46.3615945183792" lon="9.647409186181507"><ele>1261.0</ele><time>2026-05-02T10:08:03Z</time></trkpt><trkpt lat="46.36171970786554" lon="9.64729992855497"><ele>1261.0</ele><time>2026-05-02T10:08:04Z</time></trkpt><trkpt lat="46.36182453956309" lon="9.647136065551296"><ele>1261.0</ele><time>2026-05-02T10:08:04.999Z</time></trkpt><trkpt lat="46.3619367761789" lon="9.647034179951122"><ele>1261.0</ele><time>2026-05-02T10:08:05.999Z</time></trkpt><trkpt lat="46.36202058765083" lon="9.646915148315122"><ele>1258.0</ele><time>2026-05-02T10:08:06.999Z</time></trkpt><trkpt lat="46.3621133471711" lon="9.646847113794339"><ele>1255.0</ele><time>2026-05-02T10:08:07.999Z</time></trkpt><trkpt lat="46.3621773936424" lon="9.646752156144457"><ele>1252.0</ele><time>2026-05-02T10:08:08.999Z</time></trkpt><trkpt lat="46.362224770902266" lon="9.646650585047757"><ele>1249.0</ele><time>2026-05-02T10:08:09.999Z</time></trkpt><trkpt lat="46.36224319804689" lon="9.646525550426496"><ele>1246.0</ele><time>2026-05-02T10:08:10.999Z</time></trkpt><trkpt lat="46.36218455616466" lon="9.646386485528831"><ele>1246.0</ele><time>2026-05-02T10:08:11.999Z</time></trkpt><trkpt lat="46.36203352628927" lon="9.646328374818125"><ele>1246.0</ele><time>2026-05-02T10:08:12.999Z</time></trkpt><trkpt lat="46.36190444878074" lon="9.646293001815573"><ele>1246.0</ele><time>2026-05-02T10:08:13.999Z</time></trkpt><trkpt lat="46.361763864884495" lon="9.64628171697716"><ele>1246.0</ele><time>2026-05-02T10:08:14.999Z</time></trkpt><trkpt lat="46.36162973118252" lon="9.646213353565303"><ele>1246.0</ele><time>2026-05-02T10:08:15.999Z</time></trkpt><trkpt lat="46.361492072342315" lon="9.646154816132032"><ele>1246.0</ele><time>2026-05-02T10:08:16.999Z</time></trkpt><trkpt lat="46.36134351831741" lon="9.646099369176252"><ele>1246.0</ele><time>2026-05-02T10:08:17.999Z</time></trkpt><trkpt lat="46.361206349723304" lon="9.646021446150312"><ele>1246.0</ele><time>2026-05-02T10:08:18.999Z</time></trkpt><trkpt lat="46.36109630635376" lon="9.645861028217174"><ele>1243.5</ele><time>2026-05-02T10:08:19.999Z</time></trkpt><trkpt lat="46.36096107297543" lon="9.645700847912694"><ele>1241.0</ele><time>2026-05-02T10:08:20.999Z</time></trkpt><trkpt lat="46.360842587468206" lon="9.64560700519775"><ele>1238.5</ele><time>2026-05-02T10:08:21.999Z</time></trkpt><trkpt lat="46.36071639775053" lon="9.6455209865245"><ele>1236.0</ele><time>2026-05-02T10:08:22.999Z</time></trkpt><trkpt lat="46.360621960467604" lon="9.64542882241849"><ele>1236.0</ele><time>2026-05-02T10:08:23.999Z</time></trkpt><trkpt lat="46.36054001080865" lon="9.645380709018212"><ele>1236.0</ele><time>2026-05-02T10:08:24.999Z</time></trkpt><trkpt lat="46.360417054613066" lon="9.645299690101858"><ele>1236.0</ele><time>2026-05-02T10:08:25.999Z</time></trkpt><trkpt lat="46.36012485769427" lon="9.645255280173387"><ele>1232.0</ele><time>2026-05-02T10:08:26.999Z</time></trkpt><trkpt lat="46.35997873844918" lon="9.645222274008677"><ele>1228.0</ele><time>2026-05-02T10:08:27.999Z</time></trkpt><trkpt lat="46.3598399013819" lon="9.645143436980014"><ele>1224.0</ele><time>2026-05-02T10:08:28.999Z</time></trkpt><trkpt lat="46.35974329928248" lon="9.644987058898472"><ele>1220.0</ele><time>2026-05-02T10:08:29.999Z</time></trkpt><trkpt lat="46.35963411805132" lon="9.644855886840448"><ele>1220.0</ele><time>2026-05-02T10:08:30.999Z</time></trkpt><trkpt lat="46.35951682984853" lon="9.644727945726006"><ele>1220.0</ele><time>2026-05-02T10:08:31.999Z</time></trkpt><trkpt lat="46.359384738727826" lon="9.64463738138374"><ele>1220.0</ele><time>2026-05-02T10:08:32.999Z</time></trkpt><trkpt lat="46.35924983090721" lon="9.644548788812482"><ele>1220.0</ele><time>2026-05-02T10:08:33.999Z</time></trkpt><trkpt lat="46.35911757402664" lon="9.644470577459794"><ele>1216.75</ele><time>2026-05-02T10:08:34.999Z</time></trkpt><trkpt lat="46.358978376130054" lon="9.644398712201816"><ele>1213.5</ele><time>2026-05-02T10:08:35.999Z</time></trkpt><trkpt lat="46.3588459820584" lon="9.644323136611973"><ele>1210.25</ele><time>2026-05-02T10:08:36.999Z</time></trkpt><trkpt lat="46.35871033931791" lon="9.644261892623181"><ele>1207.0</ele><time>2026-05-02T10:08:37.999Z</time></trkpt><trkpt lat="46.35858758994533" lon="9.644220192746472"><ele>1206.0</ele><time>2026-05-02T10:08:38.999Z</time></trkpt><trkpt lat="46.35848665133946" lon="9.644192146953076"><ele>1205.0</ele><time>2026-05-02T10:08:39.999Z</time></trkpt><trkpt lat="46.35839334901575" lon="9.644172815499191"><ele>1204.0</ele><time>2026-05-02T10:08:40.999Z</time></trkpt><trkpt lat="46.35830542356308" lon="9.644140623305018"><ele>1203.0</ele><time>2026-05-02T10:08:41.999Z</time></trkpt><trkpt lat="46.358243933916896" lon="9.644063534024625"><ele>1202.0</ele><time>2026-05-02T10:08:42.999Z</time></trkpt><trkpt lat="46.3582091415573" lon="9.643955009010384"><ele>1202.0</ele><time>2026-05-02T10:08:43.999Z</time></trkpt><trkpt lat="46.35824938575093" lon="9.643814207647829"><ele>1202.0</ele><time>2026-05-02T10:08:44.999Z</time></trkpt><trkpt lat="46.358338205966085" lon="9.64375662211601"><ele>1202.0</ele><time>2026-05-02T10:08:45.999Z</time></trkpt><trkpt lat="46.35843599945729" lon="9.643717400966171"><ele>1202.0</ele><time>2026-05-02T10:08:46.999Z</time></trkpt><trkpt lat="46.35855391342922" lon="9.643626842667187"><ele>1202.0</ele><time>2026-05-02T10:08:47.999Z</time></trkpt><trkpt lat="46.358687372698235" lon="9.64352434522935"><ele>1199.0</ele><time>2026-05-02T10:08:48.999Z</time></trkpt><trkpt lat="46.358838199357734" lon="9.643419361657495"><ele>1196.0</ele><time>2026-05-02T10:08:49.999Z</time></trkpt><trkpt lat="46.358979860189436" lon="9.643298368824357"><ele>1193.0</ele><time>2026-05-02T10:08:50.999Z</time></trkpt><trkpt lat="46.35910629547871" lon="9.643185183117792"><ele>1193.0</ele><time>2026-05-02T10:08:51.999Z</time></trkpt><trkpt lat="46.35922828337953" lon="9.643091433778798"><ele>1193.0</ele><time>2026-05-02T10:08:52.999Z</time></trkpt><trkpt lat="46.35933921768768" lon="9.64301379714719"><ele>1193.0</ele><time>2026-05-02T10:08:53.999Z</time></trkpt><trkpt lat="46.359435376287394" lon="9.64295676099655"><ele>1193.0</ele><time>2026-05-02T10:08:54.999Z</time></trkpt><trkpt lat="46.35953356433465" lon="9.64291265522371"><ele>1193.0</ele><time>2026-05-02T10:08:55.999Z</time></trkpt><trkpt lat="46.359604844654875" lon="9.642821727522861"><ele>1193.0</ele><time>2026-05-02T10:08:56.999Z</time></trkpt><trkpt lat="46.35964555271343" lon="9.64268366747465"><ele>1193.0</ele><time>2026-05-02T10:08:57.999Z</time></trkpt><trkpt lat="46.3595955497034" lon="9.642527194918632"><ele>1193.0</ele><time>2026-05-02T10:08:58.999Z</time></trkpt><trkpt lat="46.3595299814294" lon="9.642375010218377"><ele>1193.0</ele><time>2026-05-02T10:08:59.999Z</time></trkpt><trkpt lat="46.35947782604617" lon="9.642214882073104"><ele>1190.0</ele><time>2026-05-02T10:09:00.999Z</time></trkpt><trkpt lat="46.359431955122496" lon="9.642072162730068"><ele>1187.0</ele><time>2026-05-02T10:09:01.999Z</time></trkpt><trkpt lat="46.35935905008422" lon="9.641906019295963"><ele>1184.0</ele><time>2026-05-02T10:09:02.999Z</time></trkpt><trkpt lat="46.3592510382354" lon="9.641644689385132"><ele>1182.0</ele><time>2026-05-02T10:09:03.999Z</time></trkpt><trkpt lat="46.359148745788545" lon="9.641477168604746"><ele>1180.0</ele><time>2026-05-02T10:09:04.999Z</time></trkpt><trkpt lat="46.35904644885337" lon="9.641327393727709"><ele>1178.0</ele><time>2026-05-02T10:09:06Z</time></trkpt><trkpt lat="46.35890606109661" lon="9.641221180419263"><ele>1177.5</ele><time>2026-05-02T10:09:07Z</time></trkpt><trkpt lat="46.358768755375216" lon="9.641166016915744"><ele>1177.0</ele><time>2026-05-02T10:09:08Z</time></trkpt><trkpt lat="46.35861301781009" lon="9.641151701344311"><ele>1176.5</ele><time>2026-05-02T10:09:09Z</time></trkpt><trkpt lat="46.35847546301022" lon="9.641161446051155"><ele>1176.0</ele><time>2026-05-02T10:09:10Z</time></trkpt><trkpt lat="46.3583514336936" lon="9.641115189673666"><ele>1173.75</ele><time>2026-05-02T10:09:11Z</time></trkpt><trkpt lat="46.35823136285688" lon="9.64101346812054"><ele>1171.5</ele><time>2026-05-02T10:09:12Z</time></trkpt><trkpt lat="46.35813745009553" lon="9.640861730533729"><ele>1169.25</ele><time>2026-05-02T10:09:13Z</time></trkpt><trkpt lat="46.35802649053725" lon="9.640700199906883"><ele>1167.0</ele><time>2026-05-02T10:09:14Z</time></trkpt><trkpt lat="46.3579008754736" lon="9.640538356465647"><ele>1167.0</ele><time>2026-05-02T10:09:15Z</time></trkpt><trkpt lat="46.357785997661345" lon="9.640327416113744"><ele>1167.0</ele><time>2026-05-02T10:09:16Z</time></trkpt><trkpt lat="46.3576220877298" lon="9.6400880559024"><ele>1167.0</ele><time>2026-05-02T10:09:17Z</time></trkpt><trkpt lat="46.35743289242895" lon="9.639827563744834"><ele>1163.0</ele><time>2026-05-02T10:09:18Z</time></trkpt><trkpt lat="46.35726786864429" lon="9.639556030548498"><ele>1159.0</ele><time>2026-05-02T10:09:19Z</time></trkpt><trkpt lat="46.357098387943104" lon="9.63930110753664"><ele>1158.5</ele><time>2026-05-02T10:09:20Z</time></trkpt><trkpt lat="46.356914020640616" lon="9.639044052511514"><ele>1158.0</ele><time>2026-05-02T10:09:21Z</time></trkpt><trkpt lat="46.356739201038906" lon="9.63880637876861"><ele>1155.6666666666667</ele><time>2026-05-02T10:09:22Z</time></trkpt><trkpt lat="46.356574158444914" lon="9.638575919909222"><ele>1153.3333333333335</ele><time>2026-05-02T10:09:23Z</time></trkpt><trkpt lat="46.35642197812154" lon="9.6383477856846"><ele>1151.0</ele><time>2026-05-02T10:09:24Z</time></trkpt><trkpt lat="46.35626883870798" lon="9.638110512028994"><ele>1149.6666666666667</ele><time>2026-05-02T10:09:25Z</time></trkpt><trkpt lat="46.35614615400788" lon="9.637872265506259"><ele>1148.3333333333333</ele><time>2026-05-02T10:09:26Z</time></trkpt><trkpt lat="46.356016510092374" lon="9.637618634298642"><ele>1147.0</ele><time>2026-05-02T10:09:27Z</time></trkpt><trkpt lat="46.35591546316853" lon="9.637364239653849"><ele>1145.5</ele><time>2026-05-02T10:09:28Z</time></trkpt><trkpt lat="46.355807054466595" lon="9.637063518677891"><ele>1144.0</ele><time>2026-05-02T10:09:29Z</time></trkpt><trkpt lat="46.35571908145931" lon="9.636761560910735"><ele>1142.0</ele><time>2026-05-02T10:09:30Z</time></trkpt><trkpt lat="46.35563097479639" lon="9.636436996813597"><ele>1140.0</ele><time>2026-05-02T10:09:31Z</time></trkpt><trkpt lat="46.355540567151365" lon="9.636141000418268"><ele>1139.6666666666667</ele><time>2026-05-02T10:09:32Z</time></trkpt><trkpt lat="46.35544956352242" lon="9.635841871703754"><ele>1139.3333333333335</ele><time>2026-05-02T10:09:33Z</time></trkpt><trkpt lat="46.35535753256605" lon="9.635549535400369"><ele>1139.0</ele><time>2026-05-02T10:09:34Z</time></trkpt><trkpt lat="46.35525625083797" lon="9.63525061328265"><ele>1137.0</ele><time>2026-05-02T10:09:35Z</time></trkpt><trkpt lat="46.355149612415005" lon="9.634958917603624"><ele>1135.0</ele><time>2026-05-02T10:09:36Z</time></trkpt><trkpt lat="46.35506016984199" lon="9.63467242172906"><ele>1133.0</ele><time>2026-05-02T10:09:37Z</time></trkpt><trkpt lat="46.35495630351667" lon="9.634389761281815"><ele>1130.3333333333335</ele><time>2026-05-02T10:09:38Z</time></trkpt><trkpt lat="46.35483572406505" lon="9.63413770198994"><ele>1127.6666666666667</ele><time>2026-05-02T10:09:39Z</time></trkpt><trkpt lat="46.35471281479643" lon="9.633890339774291"><ele>1125.0</ele><time>2026-05-02T10:09:40Z</time></trkpt><trkpt lat="46.354585419377706" lon="9.633656565564412"><ele>1121.3333333333333</ele><time>2026-05-02T10:09:41Z</time></trkpt><trkpt lat="46.354451281121484" lon="9.63343857453012"><ele>1117.6666666666665</ele><time>2026-05-02T10:09:42Z</time></trkpt><trkpt lat="46.354308798323096" lon="9.633235879188122"><ele>1114.0</ele><time>2026-05-02T10:09:43Z</time></trkpt><trkpt lat="46.35417801412056" lon="9.633030349161812"><ele>1114.0</ele><time>2026-05-02T10:09:44Z</time></trkpt><trkpt lat="46.354052341077605" lon="9.63282231795165"><ele>1114.0</ele><time>2026-05-02T10:09:45Z</time></trkpt><trkpt lat="46.35391430583146" lon="9.632611524299804"><ele>1114.0</ele><time>2026-05-02T10:09:46Z</time></trkpt><trkpt lat="46.35378522039078" lon="9.632391123484082"><ele>1112.6666666666665</ele><time>2026-05-02T10:09:47Z</time></trkpt><trkpt lat="46.35364837349578" lon="9.632180036595399"><ele>1111.3333333333333</ele><time>2026-05-02T10:09:48Z</time></trkpt><trkpt lat="46.353508720986454" lon="9.631963306107986"><ele>1110.0</ele><time>2026-05-02T10:09:49Z</time></trkpt><trkpt lat="46.353375306710305" lon="9.631746614503367"><ele>1108.0</ele><time>2026-05-02T10:09:50Z</time></trkpt><trkpt lat="46.35325078395619" lon="9.631535712108503"><ele>1106.0</ele><time>2026-05-02T10:09:51Z</time></trkpt><trkpt lat="46.353119895704864" lon="9.631328035388227"><ele>1104.0</ele><time>2026-05-02T10:09:52Z</time></trkpt><trkpt lat="46.35298936869357" lon="9.631130166906164"><ele>1104.0</ele><time>2026-05-02T10:09:53Z</time></trkpt><trkpt lat="46.3528733679315" lon="9.630935322591002"><ele>1104.0</ele><time>2026-05-02T10:09:54Z</time></trkpt><trkpt lat="46.35278621712164" lon="9.630729293062707"><ele>1104.0</ele><time>2026-05-02T10:09:55Z</time></trkpt><trkpt lat="46.35266716402062" lon="9.630549798404957"><ele>1104.0</ele><time>2026-05-02T10:09:56Z</time></trkpt><trkpt lat="46.35254265917283" lon="9.63036114160261"><ele>1104.0</ele><time>2026-05-02T10:09:57Z</time></trkpt><trkpt lat="46.3523940643421" lon="9.630181585532016"><ele>1104.0</ele><time>2026-05-02T10:09:58Z</time></trkpt><trkpt lat="46.3522714316383" lon="9.62999382780893"><ele>1101.0</ele><time>2026-05-02T10:09:59Z</time></trkpt><trkpt lat="46.35215556284044" lon="9.629801846371942"><ele>1098.0</ele><time>2026-05-02T10:10:00Z</time></trkpt><trkpt lat="46.3520303529803" lon="9.629606861254743"><ele>1095.0</ele><time>2026-05-02T10:10:01Z</time></trkpt><trkpt lat="46.35191683080971" lon="9.629416190742484"><ele>1093.0</ele><time>2026-05-02T10:10:02Z</time></trkpt><trkpt lat="46.35179938841799" lon="9.629222100034726"><ele>1091.0</ele><time>2026-05-02T10:10:02.999Z</time></trkpt><trkpt lat="46.35169084013755" lon="9.629017729978578"><ele>1089.0</ele><time>2026-05-02T10:10:03.999Z</time></trkpt><trkpt lat="46.351577956971525" lon="9.628797450000393"><ele>1089.0</ele><time>2026-05-02T10:10:04.999Z</time></trkpt><trkpt lat="46.351452544191304" lon="9.628555367157956"><ele>1089.0</ele><time>2026-05-02T10:10:05.999Z</time></trkpt><trkpt lat="46.35135081035546" lon="9.628285367327448"><ele>1089.0</ele><time>2026-05-02T10:10:06.999Z</time></trkpt><trkpt lat="46.351248820768824" lon="9.628013805686006"><ele>1087.6666666666667</ele><time>2026-05-02T10:10:07.999Z</time></trkpt><trkpt lat="46.35116188240319" lon="9.627763574972544"><ele>1086.3333333333335</ele><time>2026-05-02T10:10:08.999Z</time></trkpt><trkpt lat="46.35105417610472" lon="9.62747529165308"><ele>1085.0</ele><time>2026-05-02T10:10:09.999Z</time></trkpt><trkpt lat="46.35097421367162" lon="9.627156991325592"><ele>1084.3333333333335</ele><time>2026-05-02T10:10:10.999Z</time></trkpt><trkpt lat="46.35090468360149" lon="9.626867602732311"><ele>1083.6666666666667</ele><time>2026-05-02T10:10:11.999Z</time></trkpt><trkpt lat="46.35084107448526" lon="9.626566512471348"><ele>1083.0</ele><time>2026-05-02T10:10:12.999Z</time></trkpt><trkpt lat="46.35076357780774" lon="9.62626750277704"><ele>1082.6666666666667</ele><time>2026-05-02T10:10:13.999Z</time></trkpt><trkpt lat="46.35065726340048" lon="9.625973719081296"><ele>1082.3333333333335</ele><time>2026-05-02T10:10:14.999Z</time></trkpt><trkpt lat="46.350576309753734" lon="9.62568651556859"><ele>1082.0</ele><time>2026-05-02T10:10:15.999Z</time></trkpt><trkpt lat="46.350491900349375" lon="9.625400525882114"><ele>1081.0</ele><time>2026-05-02T10:10:16.999Z</time></trkpt><trkpt lat="46.350405357777326" lon="9.6251050282819"><ele>1080.0</ele><time>2026-05-02T10:10:17.999Z</time></trkpt><trkpt lat="46.35032592763421" lon="9.624810837787733"><ele>1079.0</ele><time>2026-05-02T10:10:18.999Z</time></trkpt><trkpt lat="46.350245480982096" lon="9.624514275759394"><ele>1078.0</ele><time>2026-05-02T10:10:19.999Z</time></trkpt><trkpt lat="46.35017323994064" lon="9.624221928327549"><ele>1077.0</ele><time>2026-05-02T10:10:20.999Z</time></trkpt><trkpt lat="46.35012369055717" lon="9.623909043094011"><ele>1076.0</ele><time>2026-05-02T10:10:21.999Z</time></trkpt><trkpt lat="46.35007685359092" lon="9.623608582670569"><ele>1075.6666666666667</ele><time>2026-05-02T10:10:22.999Z</time></trkpt><trkpt lat="46.35004362015368" lon="9.623314868874669"><ele>1075.3333333333333</ele><time>2026-05-02T10:10:23.999Z</time></trkpt><trkpt lat="46.35002618288393" lon="9.623032032357298"><ele>1075.0</ele><time>2026-05-02T10:10:24.999Z</time></trkpt><trkpt lat="46.35002130060951" lon="9.622758357035233"><ele>1075.0</ele><time>2026-05-02T10:10:25.999Z</time></trkpt><trkpt lat="46.350025334002936" lon="9.62248350675425"><ele>1075.0</ele><time>2026-05-02T10:10:26.999Z</time></trkpt><trkpt lat="46.35003592847731" lon="9.622218481373126"><ele>1075.0</ele><time>2026-05-02T10:10:27.999Z</time></trkpt><trkpt lat="46.35004963565136" lon="9.621959315904034"><ele>1074.0</ele><time>2026-05-02T10:10:28.999Z</time></trkpt><trkpt lat="46.35006316794308" lon="9.621706236308325"><ele>1073.0</ele><time>2026-05-02T10:10:29.999Z</time></trkpt><trkpt lat="46.35005978531611" lon="9.621462260099193"><ele>1072.0</ele><time>2026-05-02T10:10:30.999Z</time></trkpt><trkpt lat="46.35007005490492" lon="9.621229348497126"><ele>1071.0</ele><time>2026-05-02T10:10:31.999Z</time></trkpt><trkpt lat="46.35007600534279" lon="9.621006450369514"><ele>1070.0</ele><time>2026-05-02T10:10:32.999Z</time></trkpt><trkpt lat="46.3500960995868" lon="9.620801015031578"><ele>1069.0</ele><time>2026-05-02T10:10:33.999Z</time></trkpt><trkpt lat="46.350088131231175" lon="9.620601961694563"><ele>1068.0</ele><time>2026-05-02T10:10:34.999Z</time></trkpt><trkpt lat="46.35008806257214" lon="9.620414070991757"><ele>1068.0</ele><time>2026-05-02T10:10:35.999Z</time></trkpt><trkpt lat="46.35008561398504" lon="9.620232504679626"><ele>1068.0</ele><time>2026-05-02T10:10:36.999Z</time></trkpt><trkpt lat="46.350069519301734" lon="9.620053432231902"><ele>1068.0</ele><time>2026-05-02T10:10:37.999Z</time></trkpt><trkpt lat="46.35004550556917" lon="9.619883295406995"><ele>1068.0</ele><time>2026-05-02T10:10:38.999Z</time></trkpt><trkpt lat="46.350020924572696" lon="9.619713899944635"><ele>1068.0</ele><time>2026-05-02T10:10:39.999Z</time></trkpt><trkpt lat="46.35000065772247" lon="9.619552333305569"><ele>1068.0</ele><time>2026-05-02T10:10:40.999Z</time></trkpt><trkpt lat="46.34998169378227" lon="9.619393989075009"><ele>1068.0</ele><time>2026-05-02T10:10:41.999Z</time></trkpt><trkpt lat="46.34996837273429" lon="9.619237212774014"><ele>1068.0</ele><time>2026-05-02T10:10:42.999Z</time></trkpt><trkpt lat="46.34995461029862" lon="9.619080952755704"><ele>1068.0</ele><time>2026-05-02T10:10:43.999Z</time></trkpt><trkpt lat="46.349937502598166" lon="9.618928880879215"><ele>1067.8333333333333</ele><time>2026-05-02T10:10:44.999Z</time></trkpt><trkpt lat="46.34991805827588" lon="9.61878420509144"><ele>1067.6666666666667</ele><time>2026-05-02T10:10:45.999Z</time></trkpt><trkpt lat="46.34990879231167" lon="9.618640937478496"><ele>1067.5</ele><time>2026-05-02T10:10:46.999Z</time></trkpt><trkpt lat="46.34989721403583" lon="9.618515081282156"><ele>1067.3333333333335</ele><time>2026-05-02T10:10:47.999Z</time></trkpt><trkpt lat="46.3498958510606" lon="9.61841503045319"><ele>1067.1666666666667</ele><time>2026-05-02T10:10:48.999Z</time></trkpt><trkpt lat="46.34989485764501" lon="9.618313311788214"><ele>1067.0</ele><time>2026-05-02T10:10:49.999Z</time></trkpt><trkpt lat="46.349886818877664" lon="9.618217176667034"><ele>1066.4</ele><time>2026-05-02T10:10:50.999Z</time></trkpt><trkpt lat="46.34987321326503" lon="9.618036860004873"><ele>1065.8000000000002</ele><time>2026-05-02T10:10:52.999Z</time></trkpt><trkpt lat="46.349866785692626" lon="9.617928074535811"><ele>1065.2</ele><time>2026-05-02T10:10:53.999Z</time></trkpt><trkpt lat="46.34985017995938" lon="9.617803875097582"><ele>1064.6000000000001</ele><time>2026-05-02T10:10:54.999Z</time></trkpt><trkpt lat="46.34983068167946" lon="9.617677218160575"><ele>1064.0</ele><time>2026-05-02T10:10:55.999Z</time></trkpt><trkpt lat="46.34980677402898" lon="9.61753568838293"><ele>1064.0</ele><time>2026-05-02T10:10:56.999Z</time></trkpt><trkpt lat="46.34978782095794" lon="9.617394858087204"><ele>1064.0</ele><time>2026-05-02T10:10:57.999Z</time></trkpt><trkpt lat="46.34976567809273" lon="9.617256144515023"><ele>1064.0</ele><time>2026-05-02T10:10:58.999Z</time></trkpt><trkpt lat="46.3497489701921" lon="9.61711728742911"><ele>1064.0</ele><time>2026-05-02T10:10:59.999Z</time></trkpt><trkpt lat="46.34973050609379" lon="9.616975663349331"><ele>1064.0</ele><time>2026-05-02T10:11:00.999Z</time></trkpt><trkpt lat="46.34971273809614" lon="9.616833708323904"><ele>1064.6000000000001</ele><time>2026-05-02T10:11:01.999Z</time></trkpt><trkpt lat="46.34969208075651" lon="9.616693524908513"><ele>1065.2</ele><time>2026-05-02T10:11:02.999Z</time></trkpt><trkpt lat="46.349676302136345" lon="9.616534150925863"><ele>1065.8000000000002</ele><time>2026-05-02T10:11:03.999Z</time></trkpt><trkpt lat="46.3496564562107" lon="9.616363212145442"><ele>1066.4</ele><time>2026-05-02T10:11:04.999Z</time></trkpt><trkpt lat="46.34963805335598" lon="9.616194921007214"><ele>1067.0</ele><time>2026-05-02T10:11:05.999Z</time></trkpt><trkpt lat="46.349619291792294" lon="9.61603248968671"><ele>1067.0</ele><time>2026-05-02T10:11:06.999Z</time></trkpt><trkpt lat="46.34961142302697" lon="9.615867350062608"><ele>1067.0</ele><time>2026-05-02T10:11:07.999Z</time></trkpt><trkpt lat="46.34958851592973" lon="9.61571900029272"><ele>1067.0</ele><time>2026-05-02T10:11:08.999Z</time></trkpt><trkpt lat="46.349569006930956" lon="9.615538508222935"><ele>1067.0</ele><time>2026-05-02T10:11:09.999Z</time></trkpt><trkpt lat="46.349550127906284" lon="9.61535712797555"><ele>1066.75</ele><time>2026-05-02T10:11:10.999Z</time></trkpt><trkpt lat="46.349538265309846" lon="9.615162374331994"><ele>1066.5</ele><time>2026-05-02T10:11:12Z</time></trkpt><trkpt lat="46.349517062443525" lon="9.614958421021207"><ele>1066.25</ele><time>2026-05-02T10:11:13Z</time></trkpt><trkpt lat="46.34949285255645" lon="9.614732051270638"><ele>1066.0</ele><time>2026-05-02T10:11:14Z</time></trkpt><trkpt lat="46.34947021853059" lon="9.614447496915222"><ele>1067.6666666666665</ele><time>2026-05-02T10:11:15Z</time></trkpt><trkpt lat="46.349441585349155" lon="9.614083951308944"><ele>1069.3333333333333</ele><time>2026-05-02T10:11:16Z</time></trkpt><trkpt lat="46.34938056890189" lon="9.614046858304"><ele>1071.0</ele><time>2026-05-02T10:11:17Z</time></trkpt><trkpt lat="46.3493486056555" lon="9.613785487552635"><ele>1072.3333333333333</ele><time>2026-05-02T10:11:18Z</time></trkpt><trkpt lat="46.34931981410619" lon="9.613511216401719"><ele>1073.6666666666665</ele><time>2026-05-02T10:11:19Z</time></trkpt><trkpt lat="46.34928995903782" lon="9.61324629593895"><ele>1075.0</ele><time>2026-05-02T10:11:20Z</time></trkpt><trkpt lat="46.349255336641505" lon="9.612980730175718"><ele>1073.3333333333333</ele><time>2026-05-02T10:11:21Z</time></trkpt><trkpt lat="46.349227532057526" lon="9.612693488502053"><ele>1071.6666666666667</ele><time>2026-05-02T10:11:22Z</time></trkpt><trkpt lat="46.3492033405274" lon="9.612409628390523"><ele>1070.0</ele><time>2026-05-02T10:11:23Z</time></trkpt><trkpt lat="46.34916774789177" lon="9.612135955291658"><ele>1067.0</ele><time>2026-05-02T10:11:24Z</time></trkpt><trkpt lat="46.349142118953175" lon="9.611854213245593"><ele>1064.0</ele><time>2026-05-02T10:11:25Z</time></trkpt><trkpt lat="46.34910723681318" lon="9.611558030932034"><ele>1061.0</ele><time>2026-05-02T10:11:26Z</time></trkpt><trkpt lat="46.34906151137792" lon="9.611261891414252"><ele>1059.3333333333335</ele><time>2026-05-02T10:11:27Z</time></trkpt><trkpt lat="46.34901870489461" lon="9.61096902486987"><ele>1057.6666666666667</ele><time>2026-05-02T10:11:28Z</time></trkpt><trkpt lat="46.34897919605197" lon="9.610655733545594"><ele>1056.0</ele><time>2026-05-02T10:11:29Z</time></trkpt><trkpt lat="46.348944350328956" lon="9.610354478522778"><ele>1057.3333333333333</ele><time>2026-05-02T10:11:30Z</time></trkpt><trkpt lat="46.34891098458586" lon="9.610050716799163"><ele>1058.6666666666665</ele><time>2026-05-02T10:11:31Z</time></trkpt><trkpt lat="46.34888870265945" lon="9.609747986454346"><ele>1060.0</ele><time>2026-05-02T10:11:32Z</time></trkpt><trkpt lat="46.348858539718115" lon="9.60945137941322"><ele>1060.0</ele><time>2026-05-02T10:11:33Z</time></trkpt><trkpt lat="46.34883424118122" lon="9.609161469882173"><ele>1060.0</ele><time>2026-05-02T10:11:34Z</time></trkpt><trkpt lat="46.34881446112091" lon="9.608882860090105"><ele>1060.0</ele><time>2026-05-02T10:11:35Z</time></trkpt><trkpt lat="46.34879960349114" lon="9.608608015994099"><ele>1059.0</ele><time>2026-05-02T10:11:36Z</time></trkpt><trkpt lat="46.34879569948856" lon="9.608345893795224"><ele>1058.0</ele><time>2026-05-02T10:11:37Z</time></trkpt><trkpt lat="46.3487935741895" lon="9.608083693265321"><ele>1057.0</ele><time>2026-05-02T10:11:38Z</time></trkpt><trkpt lat="46.348808131284706" lon="9.60781827280679"><ele>1057.0</ele><time>2026-05-02T10:11:39Z</time></trkpt><trkpt lat="46.34882892558887" lon="9.607548129207691"><ele>1057.0</ele><time>2026-05-02T10:11:40Z</time></trkpt><trkpt lat="46.34885852904346" lon="9.607379414022594"><ele>1057.0</ele><time>2026-05-02T10:11:41Z</time></trkpt><trkpt lat="46.34888129041071" lon="9.607127893979586"><ele>1051.0</ele><time>2026-05-02T10:11:42Z</time></trkpt><trkpt lat="46.3489119273193" lon="9.606794302765293"><ele>1045.0</ele><time>2026-05-02T10:11:43Z</time></trkpt><trkpt lat="46.348928199616054" lon="9.606500784303037"><ele>1039.0</ele><time>2026-05-02T10:11:44Z</time></trkpt><trkpt lat="46.34895011488206" lon="9.606228657887362"><ele>1039.0</ele><time>2026-05-02T10:11:45Z</time></trkpt><trkpt lat="46.34896365978575" lon="9.605956284148395"><ele>1039.0</ele><time>2026-05-02T10:11:46Z</time></trkpt><trkpt lat="46.34895400960899" lon="9.605694047454703"><ele>1039.0</ele><time>2026-05-02T10:11:47Z</time></trkpt><trkpt lat="46.3489575731773" lon="9.605405944006703"><ele>1039.3333333333333</ele><time>2026-05-02T10:11:48Z</time></trkpt><trkpt lat="46.348929026096094" lon="9.605125941530522"><ele>1039.6666666666667</ele><time>2026-05-02T10:11:49Z</time></trkpt><trkpt lat="46.348878857586925" lon="9.604849517895678"><ele>1040.0</ele><time>2026-05-02T10:11:50Z</time></trkpt><trkpt lat="46.34881451435632" lon="9.604577296231882"><ele>1040.6666666666667</ele><time>2026-05-02T10:11:51Z</time></trkpt><trkpt lat="46.34873183335622" lon="9.604310004320741"><ele>1041.3333333333333</ele><time>2026-05-02T10:11:52Z</time></trkpt><trkpt lat="46.34863380122024" lon="9.604061002897009"><ele>1042.0</ele><time>2026-05-02T10:11:53Z</time></trkpt><trkpt lat="46.348540574661044" lon="9.603805262165094"><ele>1040.3333333333333</ele><time>2026-05-02T10:11:54Z</time></trkpt><trkpt lat="46.34841348708725" lon="9.60357574580035"><ele>1038.6666666666667</ele><time>2026-05-02T10:11:55Z</time></trkpt><trkpt lat="46.34828354602985" lon="9.603354809692565"><ele>1037.0</ele><time>2026-05-02T10:11:56Z</time></trkpt><trkpt lat="46.34809480515323" lon="9.603188881615585"><ele>1036.0</ele><time>2026-05-02T10:11:57Z</time></trkpt><trkpt lat="46.347939700328034" lon="9.602993967476575"><ele>1035.0</ele><time>2026-05-02T10:11:58Z</time></trkpt><trkpt lat="46.34777705695256" lon="9.60283011563602"><ele>1034.0</ele><time>2026-05-02T10:11:59Z</time></trkpt><trkpt lat="46.347623329686115" lon="9.602675067332509"><ele>1034.0</ele><time>2026-05-02T10:12:00Z</time></trkpt><trkpt lat="46.34747987978522" lon="9.60252184855808"><ele>1034.0</ele><time>2026-05-02T10:12:01Z</time></trkpt><trkpt lat="46.34735147645963" lon="9.602363347642683"><ele>1034.0</ele><time>2026-05-02T10:12:02Z</time></trkpt><trkpt lat="46.347210019258526" lon="9.602161579253801"><ele>1034.3333333333335</ele><time>2026-05-02T10:12:03Z</time></trkpt><trkpt lat="46.34709558338128" lon="9.601975922454399"><ele>1034.6666666666667</ele><time>2026-05-02T10:12:03.999Z</time></trkpt><trkpt lat="46.347030717551526" lon="9.601738276131018"><ele>1035.0</ele><time>2026-05-02T10:12:04.999Z</time></trkpt><trkpt lat="46.346930208019046" lon="9.601527302409073"><ele>1035.0</ele><time>2026-05-02T10:12:05.999Z</time></trkpt><trkpt lat="46.34682448574474" lon="9.601314791640506"><ele>1035.0</ele><time>2026-05-02T10:12:06.999Z</time></trkpt><trkpt lat="46.346746798142064" lon="9.601086095437172"><ele>1035.0</ele><time>2026-05-02T10:12:07.999Z</time></trkpt><trkpt lat="46.346685445495275" lon="9.600837008821715"><ele>1033.3333333333333</ele><time>2026-05-02T10:12:08.999Z</time></trkpt><trkpt lat="46.34663658189024" lon="9.600579855241877"><ele>1031.6666666666665</ele><time>2026-05-02T10:12:09.999Z</time></trkpt><trkpt lat="46.34660975230608" lon="9.600318730093864"><ele>1030.0</ele><time>2026-05-02T10:12:10.999Z</time></trkpt><trkpt lat="46.34659695710425" lon="9.6000504304035"><ele>1028.3333333333333</ele><time>2026-05-02T10:12:11.999Z</time></trkpt><trkpt lat="46.34660618658087" lon="9.599777661467916"><ele>1026.6666666666667</ele><time>2026-05-02T10:12:12.999Z</time></trkpt><trkpt lat="46.34659747276138" lon="9.599503714275338"><ele>1025.0</ele><time>2026-05-02T10:12:13.999Z</time></trkpt><trkpt lat="46.34662068840217" lon="9.599233184470181"><ele>1024.6666666666667</ele><time>2026-05-02T10:12:14.999Z</time></trkpt><trkpt lat="46.34663411008485" lon="9.598962349592373"><ele>1024.3333333333333</ele><time>2026-05-02T10:12:15.999Z</time></trkpt><trkpt lat="46.34662739519646" lon="9.598688261273569"><ele>1024.0</ele><time>2026-05-02T10:12:16.999Z</time></trkpt><trkpt lat="46.34660983933489" lon="9.598413398882995"><ele>1024.0</ele><time>2026-05-02T10:12:17.999Z</time></trkpt><trkpt lat="46.34656627214496" lon="9.59814754205464"><ele>1024.0</ele><time>2026-05-02T10:12:18.999Z</time></trkpt><trkpt lat="46.346499197957655" lon="9.597879681008962"><ele>1024.0</ele><time>2026-05-02T10:12:19.999Z</time></trkpt><trkpt lat="46.346418915428636" lon="9.597637989347238"><ele>1026.0</ele><time>2026-05-02T10:12:20.999Z</time></trkpt><trkpt lat="46.34633486220004" lon="9.597422534245739"><ele>1028.0</ele><time>2026-05-02T10:12:21.999Z</time></trkpt><trkpt lat="46.34624223452189" lon="9.597233445523326"><ele>1030.0</ele><time>2026-05-02T10:12:22.999Z</time></trkpt><trkpt lat="46.34615226007895" lon="9.597058552591692"><ele>1028.5</ele><time>2026-05-02T10:12:23.999Z</time></trkpt><trkpt lat="46.346057267116436" lon="9.596908222344728"><ele>1027.0</ele><time>2026-05-02T10:12:24.999Z</time></trkpt><trkpt lat="46.345941598747025" lon="9.596783194041835"><ele>1025.5</ele><time>2026-05-02T10:12:25.999Z</time></trkpt><trkpt lat="46.345844155159355" lon="9.596657664664509"><ele>1024.0</ele><time>2026-05-02T10:12:26.999Z</time></trkpt><trkpt lat="46.3457548401913" lon="9.59652617420429"><ele>1024.0</ele><time>2026-05-02T10:12:27.999Z</time></trkpt><trkpt lat="46.34566384903341" lon="9.596400874227811"><ele>1024.0</ele><time>2026-05-02T10:12:28.999Z</time></trkpt><trkpt lat="46.34557944662109" lon="9.596282206812562"><ele>1024.0</ele><time>2026-05-02T10:12:29.999Z</time></trkpt><trkpt lat="46.34549301962618" lon="9.596163345747538"><ele>1024.0</ele><time>2026-05-02T10:12:30.999Z</time></trkpt><trkpt lat="46.34540130353393" lon="9.596054959025462"><ele>1024.5</ele><time>2026-05-02T10:12:31.999Z</time></trkpt><trkpt lat="46.34531987380523" lon="9.595933182010768"><ele>1025.0</ele><time>2026-05-02T10:12:32.999Z</time></trkpt><trkpt lat="46.34523072764148" lon="9.59581895319278"><ele>1025.5</ele><time>2026-05-02T10:12:33.999Z</time></trkpt><trkpt lat="46.34514996520929" lon="9.595696333121959"><ele>1026.0</ele><time>2026-05-02T10:12:34.999Z</time></trkpt><trkpt lat="46.34505852168433" lon="9.595571608641604"><ele>1026.0</ele><time>2026-05-02T10:12:35.999Z</time></trkpt><trkpt lat="46.34497356846499" lon="9.595445288005946"><ele>1026.0</ele><time>2026-05-02T10:12:36.999Z</time></trkpt><trkpt lat="46.344888736171356" lon="9.595318437822089"><ele>1026.0</ele><time>2026-05-02T10:12:37.999Z</time></trkpt><trkpt lat="46.34479880828979" lon="9.595195698661913"><ele>1026.0</ele><time>2026-05-02T10:12:38.999Z</time></trkpt><trkpt lat="46.344710056435524" lon="9.595073986445719"><ele>1025.0</ele><time>2026-05-02T10:12:39.999Z</time></trkpt><trkpt lat="46.344617987634" lon="9.594960576875085"><ele>1024.0</ele><time>2026-05-02T10:12:40.999Z</time></trkpt><trkpt lat="46.34453793678691" lon="9.594839355434114"><ele>1023.0</ele><time>2026-05-02T10:12:41.999Z</time></trkpt><trkpt lat="46.344454730085" lon="9.594716842461814"><ele>1022.0</ele><time>2026-05-02T10:12:42.999Z</time></trkpt><trkpt lat="46.34436978773804" lon="9.594594914819524"><ele>1021.2</ele><time>2026-05-02T10:12:43.999Z</time></trkpt><trkpt lat="46.344294509851636" lon="9.594471906516393"><ele>1020.4000000000001</ele><time>2026-05-02T10:12:44.999Z</time></trkpt><trkpt lat="46.344225198180595" lon="9.59433641369815"><ele>1019.5999999999999</ele><time>2026-05-02T10:12:45.999Z</time></trkpt><trkpt lat="46.34417362335125" lon="9.594198398427732"><ele>1018.8</ele><time>2026-05-02T10:12:46.999Z</time></trkpt><trkpt lat="46.34412247854433" lon="9.594057982837304"><ele>1018.0</ele><time>2026-05-02T10:12:47.999Z</time></trkpt><trkpt lat="46.3440772471699" lon="9.593925362013843"><ele>1018.0</ele><time>2026-05-02T10:12:48.999Z</time></trkpt><trkpt lat="46.34402666398052" lon="9.593792011834482"><ele>1018.0</ele><time>2026-05-02T10:12:49.999Z</time></trkpt><trkpt lat="46.34399278306217" lon="9.593653969947242"><ele>1018.0</ele><time>2026-05-02T10:12:50.999Z</time></trkpt><trkpt lat="46.343962080297786" lon="9.593505258393025"><ele>1018.0</ele><time>2026-05-02T10:12:51.999Z</time></trkpt><trkpt lat="46.34392559113564" lon="9.593351607665594"><ele>1018.0</ele><time>2026-05-02T10:12:52.999Z</time></trkpt><trkpt lat="46.343891385687144" lon="9.593192684694058"><ele>1018.5999999999999</ele><time>2026-05-02T10:12:53.999Z</time></trkpt><trkpt lat="46.34385695509106" lon="9.593036782002855"><ele>1019.1999999999999</ele><time>2026-05-02T10:12:54.999Z</time></trkpt><trkpt lat="46.34382868071336" lon="9.592889020934857"><ele>1019.8</ele><time>2026-05-02T10:12:55.999Z</time></trkpt><trkpt lat="46.34380021084223" lon="9.592733852170337"><ele>1020.4</ele><time>2026-05-02T10:12:56.999Z</time></trkpt><trkpt lat="46.34376225998923" lon="9.59259065677222"><ele>1021.0</ele><time>2026-05-02T10:12:57.999Z</time></trkpt><trkpt lat="46.34374206693297" lon="9.5924536346078"><ele>1019.8</ele><time>2026-05-02T10:12:58.999Z</time></trkpt><trkpt lat="46.34371978175908" lon="9.592319486387847"><ele>1018.5999999999999</ele><time>2026-05-02T10:12:59.999Z</time></trkpt><trkpt lat="46.343691063816074" lon="9.592179302063684"><ele>1017.4</ele><time>2026-05-02T10:13:00.999Z</time></trkpt><trkpt lat="46.343655526043925" lon="9.592041989532676"><ele>1016.2</ele><time>2026-05-02T10:13:01.999Z</time></trkpt><trkpt lat="46.343634542180524" lon="9.591895618566454"><ele>1015.0</ele><time>2026-05-02T10:13:02.999Z</time></trkpt><trkpt lat="46.34361845791688" lon="9.591744973588213"><ele>1014.2</ele><time>2026-05-02T10:13:03.999Z</time></trkpt><trkpt lat="46.343599861736486" lon="9.591592408952064"><ele>1013.4</ele><time>2026-05-02T10:13:04.999Z</time></trkpt><trkpt lat="46.343592876301976" lon="9.591440274783645"><ele>1012.5999999999999</ele><time>2026-05-02T10:13:05.999Z</time></trkpt><trkpt lat="46.3435700493101" lon="9.591288063420922"><ele>1011.8</ele><time>2026-05-02T10:13:06.999Z</time></trkpt><trkpt lat="46.34354899856119" lon="9.591145074326311"><ele>1011.0</ele><time>2026-05-02T10:13:07.999Z</time></trkpt><trkpt lat="46.34352575351124" lon="9.591004179253401"><ele>1009.5999999999999</ele><time>2026-05-02T10:13:08.999Z</time></trkpt><trkpt lat="46.3435020117565" lon="9.590863367651925"><ele>1008.1999999999999</ele><time>2026-05-02T10:13:09.999Z</time></trkpt><trkpt lat="46.3434683762467" lon="9.59072994476673"><ele>1006.8000000000001</ele><time>2026-05-02T10:13:10.999Z</time></trkpt><trkpt lat="46.3434352333974" lon="9.590578993860863"><ele>1005.4000000000001</ele><time>2026-05-02T10:13:11.999Z</time></trkpt><trkpt lat="46.34336148371821" lon="9.590476448613614"><ele>1004.0</ele><time>2026-05-02T10:13:12.999Z</time></trkpt><trkpt lat="46.343276620803486" lon="9.59034902486276"><ele>1003.0</ele><time>2026-05-02T10:13:13.999Z</time></trkpt><trkpt lat="46.343217003624275" lon="9.590218032698747"><ele>1002.0000000000001</ele><time>2026-05-02T10:13:14.998Z</time></trkpt><trkpt lat="46.34317961018056" lon="9.590089334536714"><ele>1001.0000000000001</ele><time>2026-05-02T10:13:15.998Z</time></trkpt><trkpt lat="46.34309199717512" lon="9.589987385522427"><ele>1000.0</ele><time>2026-05-02T10:13:17Z</time></trkpt><trkpt lat="46.343017271047955" lon="9.589874319028775"><ele>999.0</ele><time>2026-05-02T10:13:18Z</time></trkpt><trkpt lat="46.34294554427077" lon="9.58976720023423"><ele>998.8000000000001</ele><time>2026-05-02T10:13:19Z</time></trkpt><trkpt lat="46.3428730715895" lon="9.58966662786642"><ele>998.6000000000001</ele><time>2026-05-02T10:13:20Z</time></trkpt><trkpt lat="46.34280309842356" lon="9.589573076507387"><ele>998.4</ele><time>2026-05-02T10:13:21Z</time></trkpt><trkpt lat="46.34273116362995" lon="9.589463562307978"><ele>998.2</ele><time>2026-05-02T10:13:22Z</time></trkpt><trkpt lat="46.34266394903974" lon="9.58936154337088"><ele>998.0</ele><time>2026-05-02T10:13:23Z</time></trkpt><trkpt lat="46.34259638457031" lon="9.589258618952458"><ele>996.8</ele><time>2026-05-02T10:13:24Z</time></trkpt><trkpt lat="46.34254017241265" lon="9.589159021887088"><ele>995.5999999999999</ele><time>2026-05-02T10:13:25Z</time></trkpt><trkpt lat="46.342475897495625" lon="9.589065463494299"><ele>994.4000000000001</ele><time>2026-05-02T10:13:26Z</time></trkpt><trkpt lat="46.34240696700014" lon="9.58897090323749"><ele>993.2</ele><time>2026-05-02T10:13:27Z</time></trkpt><trkpt lat="46.3423378510511" lon="9.5888761948071"><ele>992.0</ele><time>2026-05-02T10:13:28Z</time></trkpt><trkpt lat="46.342270640302296" lon="9.58877241306914"><ele>993.4000000000001</ele><time>2026-05-02T10:13:29Z</time></trkpt><trkpt lat="46.34220032030078" lon="9.588670940881437"><ele>994.8000000000001</ele><time>2026-05-02T10:13:30Z</time></trkpt><trkpt lat="46.34213541129061" lon="9.58856393337519"><ele>996.2</ele><time>2026-05-02T10:13:31Z</time></trkpt><trkpt lat="46.34206760816578" lon="9.588454530138305"><ele>997.6</ele><time>2026-05-02T10:13:32Z</time></trkpt><trkpt lat="46.3420078716449" lon="9.58833547851483"><ele>999.0</ele><time>2026-05-02T10:13:33Z</time></trkpt><trkpt lat="46.34195864986844" lon="9.588206080275748"><ele>999.0</ele><time>2026-05-02T10:13:34Z</time></trkpt><trkpt lat="46.34192343143221" lon="9.588071038662218"><ele>999.0000000000001</ele><time>2026-05-02T10:13:35Z</time></trkpt><trkpt lat="46.34189311321815" lon="9.58792357965676"><ele>999.0000000000001</ele><time>2026-05-02T10:13:36Z</time></trkpt><trkpt lat="46.34186261914377" lon="9.58776968320042"><ele>999.0</ele><time>2026-05-02T10:13:37Z</time></trkpt><trkpt lat="46.341827806953674" lon="9.587612315139546"><ele>999.0</ele><time>2026-05-02T10:13:38Z</time></trkpt><trkpt lat="46.34179417024245" lon="9.587441642060913"><ele>997.0</ele><time>2026-05-02T10:13:39Z</time></trkpt><trkpt lat="46.341756243006714" lon="9.587275741327005"><ele>995.0</ele><time>2026-05-02T10:13:40Z</time></trkpt><trkpt lat="46.3417176859754" lon="9.587104705501465"><ele>993.0</ele><time>2026-05-02T10:13:41Z</time></trkpt><trkpt lat="46.34168278055134" lon="9.586930780060042"><ele>991.0</ele><time>2026-05-02T10:13:42Z</time></trkpt><trkpt lat="46.34164383637982" lon="9.586754765911143"><ele>989.75</ele><time>2026-05-02T10:13:43Z</time></trkpt><trkpt lat="46.34159966053335" lon="9.586576744744386"><ele>988.5</ele><time>2026-05-02T10:13:44Z</time></trkpt><trkpt lat="46.34156010332505" lon="9.586406523734343"><ele>987.25</ele><time>2026-05-02T10:13:45Z</time></trkpt><trkpt lat="46.34151523304941" lon="9.586227591322958"><ele>986.0</ele><time>2026-05-02T10:13:46Z</time></trkpt><trkpt lat="46.34147839854509" lon="9.586040741563156"><ele>986.0</ele><time>2026-05-02T10:13:47Z</time></trkpt><trkpt lat="46.34143421813576" lon="9.585858809757152"><ele>986.0</ele><time>2026-05-02T10:13:48Z</time></trkpt><trkpt lat="46.341392503946935" lon="9.585680716041963"><ele>986.0</ele><time>2026-05-02T10:13:49Z</time></trkpt><trkpt lat="46.341356637920384" lon="9.585494584078253"><ele>986.0</ele><time>2026-05-02T10:13:50Z</time></trkpt><trkpt lat="46.341316479168" lon="9.585309641627035"><ele>994.25</ele><time>2026-05-02T10:13:51Z</time></trkpt><trkpt lat="46.34127848540234" lon="9.58512505817779"><ele>1002.5</ele><time>2026-05-02T10:13:52Z</time></trkpt><trkpt lat="46.34124237892303" lon="9.58492847751868"><ele>1010.75</ele><time>2026-05-02T10:13:53Z</time></trkpt><trkpt lat="46.34120761303274" lon="9.584727772886133"><ele>1019.0</ele><time>2026-05-02T10:13:54Z</time></trkpt><trkpt lat="46.34118157176014" lon="9.584534425288906"><ele>1016.75</ele><time>2026-05-02T10:13:55Z</time></trkpt><trkpt lat="46.34116207523106" lon="9.584318885579009"><ele>1014.5</ele><time>2026-05-02T10:13:56Z</time></trkpt><trkpt lat="46.34112341990387" lon="9.584134693431599"><ele>1012.25</ele><time>2026-05-02T10:13:57Z</time></trkpt><trkpt lat="46.34110098730248" lon="9.58394479588848"><ele>1010.0</ele><time>2026-05-02T10:13:58Z</time></trkpt><trkpt lat="46.34107629221479" lon="9.583757682303386"><ele>1006.25</ele><time>2026-05-02T10:13:59Z</time></trkpt><trkpt lat="46.34104535764149" lon="9.583572537318082"><ele>1002.5</ele><time>2026-05-02T10:13:59.999Z</time></trkpt><trkpt lat="46.34101919694014" lon="9.583391639911303"><ele>998.75</ele><time>2026-05-02T10:14:00.999Z</time></trkpt><trkpt lat="46.340999713353646" lon="9.583209693738103"><ele>995.0</ele><time>2026-05-02T10:14:01.999Z</time></trkpt><trkpt lat="46.340981212115445" lon="9.58302963582531"><ele>995.0</ele><time>2026-05-02T10:14:02.999Z</time></trkpt><trkpt lat="46.3409519633056" lon="9.582848858374563"><ele>995.0</ele><time>2026-05-02T10:14:03.999Z</time></trkpt><trkpt lat="46.34093051674915" lon="9.582661841750188"><ele>995.0</ele><time>2026-05-02T10:14:04.999Z</time></trkpt><trkpt lat="46.34089761388277" lon="9.582480990510856"><ele>995.0</ele><time>2026-05-02T10:14:05.999Z</time></trkpt><trkpt lat="46.34087558480724" lon="9.582291243535536"><ele>991.75</ele><time>2026-05-02T10:14:06.999Z</time></trkpt><trkpt lat="46.34085518345888" lon="9.582097055860729"><ele>988.5</ele><time>2026-05-02T10:14:07.999Z</time></trkpt><trkpt lat="46.340830495255844" lon="9.581920392628602"><ele>985.25</ele><time>2026-05-02T10:14:08.999Z</time></trkpt><trkpt lat="46.34077980822798" lon="9.58174973548041"><ele>982.0</ele><time>2026-05-02T10:14:09.999Z</time></trkpt><trkpt lat="46.34072559449159" lon="9.581562047155886"><ele>981.0</ele><time>2026-05-02T10:14:10.999Z</time></trkpt><trkpt lat="46.34065327314589" lon="9.581388978790375"><ele>980.0</ele><time>2026-05-02T10:14:11.999Z</time></trkpt><trkpt lat="46.340566686310794" lon="9.58122037209703"><ele>979.0</ele><time>2026-05-02T10:14:12.999Z</time></trkpt><trkpt lat="46.340508929263024" lon="9.581013572916817"><ele>978.0</ele><time>2026-05-02T10:14:13.999Z</time></trkpt><trkpt lat="46.340450232788776" lon="9.580806818449068"><ele>984.6666666666667</ele><time>2026-05-02T10:14:14.999Z</time></trkpt><trkpt lat="46.340391723099096" lon="9.580588247148938"><ele>991.3333333333334</ele><time>2026-05-02T10:14:15.999Z</time></trkpt><trkpt lat="46.340330220171175" lon="9.580349095108941"><ele>998.0</ele><time>2026-05-02T10:14:16.999Z</time></trkpt><trkpt lat="46.34024709430023" lon="9.579997271049864"><ele>998.0</ele><time>2026-05-02T10:14:17.999Z</time></trkpt><trkpt lat="46.34017930453541" lon="9.579780855681433"><ele>998.0</ele><time>2026-05-02T10:14:19.999Z</time></trkpt><trkpt lat="46.34012073696504" lon="9.579557033900738"><ele>998.0</ele><time>2026-05-02T10:14:20.999Z</time></trkpt><trkpt lat="46.340067583207755" lon="9.579344810031387"><ele>992.3333333333334</ele><time>2026-05-02T10:14:21.999Z</time></trkpt><trkpt lat="46.34001062299079" lon="9.579111742957371"><ele>986.6666666666667</ele><time>2026-05-02T10:14:22.999Z</time></trkpt><trkpt lat="46.339954362038206" lon="9.578890297619072"><ele>981.0</ele><time>2026-05-02T10:14:23.999Z</time></trkpt><trkpt lat="46.33991052120906" lon="9.57867650833761"><ele>977.3333333333333</ele><time>2026-05-02T10:14:24.999Z</time></trkpt><trkpt lat="46.33990033802069" lon="9.578453394648829"><ele>973.6666666666666</ele><time>2026-05-02T10:14:25.999Z</time></trkpt><trkpt lat="46.339919478545255" lon="9.578236546736369"><ele>970.0</ele><time>2026-05-02T10:14:26.999Z</time></trkpt><trkpt lat="46.33996172899982" lon="9.578023390515598"><ele>968.3333333333333</ele><time>2026-05-02T10:14:27.999Z</time></trkpt><trkpt lat="46.339985147664606" lon="9.57780324253996"><ele>966.6666666666667</ele><time>2026-05-02T10:14:28.999Z</time></trkpt><trkpt lat="46.34007738055696" lon="9.577638937827828"><ele>965.0</ele><time>2026-05-02T10:14:29.999Z</time></trkpt><trkpt lat="46.340196386488046" lon="9.577473361088334"><ele>965.0</ele><time>2026-05-02T10:14:30.999Z</time></trkpt><trkpt lat="46.34026227539316" lon="9.57728692450595"><ele>965.0</ele><time>2026-05-02T10:14:31.999Z</time></trkpt><trkpt lat="46.340277838086834" lon="9.577083050458992"><ele>965.0</ele><time>2026-05-02T10:14:32.999Z</time></trkpt><trkpt lat="46.34025240576529" lon="9.576866434689165"><ele>965.0</ele><time>2026-05-02T10:14:33.999Z</time></trkpt><trkpt lat="46.3401894405989" lon="9.576659322213493"><ele>964.5</ele><time>2026-05-02T10:14:34.999Z</time></trkpt><trkpt lat="46.34012233206985" lon="9.576468028089412"><ele>964.0</ele><time>2026-05-02T10:14:35.999Z</time></trkpt><trkpt lat="46.34003511812888" lon="9.57629401393205"><ele>963.5</ele><time>2026-05-02T10:14:36.999Z</time></trkpt><trkpt lat="46.33996431650336" lon="9.576102742382718"><ele>963.0</ele><time>2026-05-02T10:14:37.999Z</time></trkpt><trkpt lat="46.339926173733915" lon="9.575896919152202"><ele>962.0</ele><time>2026-05-02T10:14:38.999Z</time></trkpt><trkpt lat="46.33992221316525" lon="9.575656737807273"><ele>961.0</ele><time>2026-05-02T10:14:39.999Z</time></trkpt><trkpt lat="46.33996564436809" lon="9.575410069284397"><ele>960.0</ele><time>2026-05-02T10:14:40.999Z</time></trkpt><trkpt lat="46.33999520897355" lon="9.575176777299378"><ele>957.6666666666667</ele><time>2026-05-02T10:14:41.999Z</time></trkpt><trkpt lat="46.340001834694824" lon="9.574943648697012"><ele>955.3333333333334</ele><time>2026-05-02T10:14:42.999Z</time></trkpt><trkpt lat="46.33999591489643" lon="9.574695114937786"><ele>953.0</ele><time>2026-05-02T10:14:43.999Z</time></trkpt><trkpt lat="46.33997274596207" lon="9.574453896411082"><ele>951.3333333333334</ele><time>2026-05-02T10:14:44.999Z</time></trkpt><trkpt lat="46.33994076068503" lon="9.574212316858235"><ele>949.6666666666667</ele><time>2026-05-02T10:14:45.999Z</time></trkpt><trkpt lat="46.33992120247038" lon="9.573977826169369"><ele>948.0</ele><time>2026-05-02T10:14:46.999Z</time></trkpt><trkpt lat="46.339912252281415" lon="9.573747021582605"><ele>944.3333333333333</ele><time>2026-05-02T10:14:47.999Z</time></trkpt><trkpt lat="46.33989840511582" lon="9.573519137154104"><ele>940.6666666666666</ele><time>2026-05-02T10:14:48.999Z</time></trkpt><trkpt lat="46.33989539446858" lon="9.573294271325267"><ele>937.0</ele><time>2026-05-02T10:14:49.999Z</time></trkpt><trkpt lat="46.339877442223084" lon="9.573083004767764"><ele>937.0</ele><time>2026-05-02T10:14:50.999Z</time></trkpt><trkpt lat="46.33986781107557" lon="9.572874334322954"><ele>937.0</ele><time>2026-05-02T10:14:51.999Z</time></trkpt><trkpt lat="46.33985124961024" lon="9.572682015519568"><ele>937.0</ele><time>2026-05-02T10:14:52.999Z</time></trkpt><trkpt lat="46.339828850037854" lon="9.572488165908258"><ele>937.0</ele><time>2026-05-02T10:14:53.999Z</time></trkpt><trkpt lat="46.339812722136315" lon="9.572295456994544"><ele>933.75</ele><time>2026-05-02T10:14:54.999Z</time></trkpt><trkpt lat="46.33977495208484" lon="9.572104627602366"><ele>930.5</ele><time>2026-05-02T10:14:55.999Z</time></trkpt><trkpt lat="46.339733729748254" lon="9.571921566955938"><ele>927.25</ele><time>2026-05-02T10:14:56.999Z</time></trkpt><trkpt lat="46.33968826655887" lon="9.57172587617598"><ele>924.0</ele><time>2026-05-02T10:14:57.999Z</time></trkpt><trkpt lat="46.339627092616475" lon="9.571543864268756"><ele>930.0</ele><time>2026-05-02T10:14:58.999Z</time></trkpt><trkpt lat="46.33954970447312" lon="9.571353015605977"><ele>936.0</ele><time>2026-05-02T10:14:59.999Z</time></trkpt><trkpt lat="46.339477154911236" lon="9.57115613021741"><ele>942.0</ele><time>2026-05-02T10:15:00.999Z</time></trkpt><trkpt lat="46.33940083190094" lon="9.570957537751797"><ele>942.0</ele><time>2026-05-02T10:15:01.999Z</time></trkpt><trkpt lat="46.33931194882151" lon="9.570749102970966"><ele>942.0</ele><time>2026-05-02T10:15:02.999Z</time></trkpt><trkpt lat="46.339259695553636" lon="9.570557733959808"><ele>942.0</ele><time>2026-05-02T10:15:03.999Z</time></trkpt><trkpt lat="46.33920827276978" lon="9.570374159912145"><ele>942.0</ele><time>2026-05-02T10:15:04.999Z</time></trkpt><trkpt lat="46.339167811363986" lon="9.570113565690292"><ele>939.3333333333333</ele><time>2026-05-02T10:15:05.999Z</time></trkpt><trkpt lat="46.339103832197324" lon="9.569869187849529"><ele>936.6666666666666</ele><time>2026-05-02T10:15:06.999Z</time></trkpt><trkpt lat="46.33907650047971" lon="9.569642366328534"><ele>934.0</ele><time>2026-05-02T10:15:07.999Z</time></trkpt><trkpt lat="46.33906181835826" lon="9.569401703140457"><ele>928.6666666666666</ele><time>2026-05-02T10:15:08.999Z</time></trkpt><trkpt lat="46.33906039165422" lon="9.56916884566363"><ele>923.3333333333333</ele><time>2026-05-02T10:15:09.999Z</time></trkpt><trkpt lat="46.339066775743746" lon="9.568962745241246"><ele>918.0</ele><time>2026-05-02T10:15:10.999Z</time></trkpt><trkpt lat="46.33907533360396" lon="9.56873781250362"><ele>915.3333333333333</ele><time>2026-05-02T10:15:11.999Z</time></trkpt><trkpt lat="46.33908624455746" lon="9.56851522091012"><ele>912.6666666666666</ele><time>2026-05-02T10:15:12.999Z</time></trkpt><trkpt lat="46.33909775783033" lon="9.568289291646163"><ele>910.0</ele><time>2026-05-02T10:15:13.998Z</time></trkpt><trkpt lat="46.33910933067019" lon="9.568086238238088"><ele>909.6666666666666</ele><time>2026-05-02T10:15:14.998Z</time></trkpt><trkpt lat="46.33912424702466" lon="9.567830728363578"><ele>909.3333333333333</ele><time>2026-05-02T10:15:15.998Z</time></trkpt><trkpt lat="46.339139725006014" lon="9.567605999962952"><ele>909.0</ele><time>2026-05-02T10:15:16.998Z</time></trkpt><trkpt lat="46.339160223973984" lon="9.567343918828847"><ele>909.0</ele><time>2026-05-02T10:15:17.998Z</time></trkpt><trkpt lat="46.339176050084724" lon="9.56709056324188"><ele>909.0</ele><time>2026-05-02T10:15:18.998Z</time></trkpt><trkpt lat="46.339186816409224" lon="9.566888045711408"><ele>909.0</ele><time>2026-05-02T10:15:19.998Z</time></trkpt><trkpt lat="46.3392008750369" lon="9.566689666931081"><ele>909.3333333333333</ele><time>2026-05-02T10:15:20.998Z</time></trkpt><trkpt lat="46.33921314682465" lon="9.56648315686813"><ele>909.6666666666666</ele><time>2026-05-02T10:15:21.998Z</time></trkpt><trkpt lat="46.33930217238565" lon="9.56624778173772"><ele>910.0</ele><time>2026-05-02T10:15:23Z</time></trkpt><trkpt lat="46.339344315145205" lon="9.56601191692029"><ele>910.0</ele><time>2026-05-02T10:15:24Z</time></trkpt><trkpt lat="46.33938552203364" lon="9.565776579396676"><ele>910.0</ele><time>2026-05-02T10:15:25Z</time></trkpt><trkpt lat="46.33942792038262" lon="9.565536087324986"><ele>910.0</ele><time>2026-05-02T10:15:26Z</time></trkpt><trkpt lat="46.33947453986529" lon="9.56527165290748"><ele>909.3333333333333</ele><time>2026-05-02T10:15:27Z</time></trkpt><trkpt lat="46.339515212058565" lon="9.565027345272876"><ele>908.6666666666667</ele><time>2026-05-02T10:15:28Z</time></trkpt><trkpt lat="46.33955462487548" lon="9.564776608844147"><ele>908.0</ele><time>2026-05-02T10:15:29Z</time></trkpt><trkpt lat="46.339584046125815" lon="9.564525217252429"><ele>908.0</ele><time>2026-05-02T10:15:30Z</time></trkpt><trkpt lat="46.33961258688475" lon="9.56425461827278"><ele>908.0</ele><time>2026-05-02T10:15:31Z</time></trkpt><trkpt lat="46.339603603234096" lon="9.563997857581983"><ele>908.0</ele><time>2026-05-02T10:15:32Z</time></trkpt><trkpt lat="46.339609883073166" lon="9.563742584561147"><ele>911.0</ele><time>2026-05-02T10:15:33Z</time></trkpt><trkpt lat="46.33961627206052" lon="9.563481388787615"><ele>914.0</ele><time>2026-05-02T10:15:34.022Z</time></trkpt><trkpt lat="46.33962245372341" lon="9.563228828618412"><ele>917.0</ele><time>2026-05-02T10:15:35.01Z</time></trkpt><trkpt lat="46.3395897526109" lon="9.56298470452853"><ele>923.5</ele><time>2026-05-02T10:15:36.022Z</time></trkpt><trkpt lat="46.33954576730044" lon="9.562753038990179"><ele>930.0</ele><time>2026-05-02T10:15:37.022Z</time></trkpt><trkpt lat="46.33839208189021" lon="9.560409078182074"><ele>936.0</ele><time>2026-05-02T10:15:40.477Z</time></trkpt><trkpt lat="46.337932819836496" lon="9.559609062417433"><ele>900.0</ele><time>2026-05-02T10:15:41.477Z</time></trkpt><trkpt lat="46.337489521924375" lon="9.55879130154447"><ele>869.0</ele><time>2026-05-02T10:15:42.477Z</time></trkpt><trkpt lat="46.3372163" lon="9.5581055"><ele>822.0</ele><time>2026-05-02T10:15:43.474Z</time></trkpt><trkpt lat="46.336974534249244" lon="9.556290954360325"><ele>819.75</ele><time>2026-05-02T10:16:06.999Z</time></trkpt><trkpt lat="46.33691020798437" lon="9.55605452462999"><ele>817.5</ele><time>2026-05-02T10:16:07.999Z</time></trkpt><trkpt lat="46.33702700254834" lon="9.555854436231442"><ele>815.25</ele><time>2026-05-02T10:16:09.999Z</time></trkpt><trkpt lat="46.337034296592314" lon="9.555727156670104"><ele>813.0</ele><time>2026-05-02T10:16:10.999Z</time></trkpt><trkpt lat="46.33704349223744" lon="9.555566694310002"><ele>813.0</ele><time>2026-05-02T10:16:11.999Z</time></trkpt><trkpt lat="46.337051750529064" lon="9.555422015875687"><ele>813.0</ele><time>2026-05-02T10:16:12.999Z</time></trkpt><trkpt lat="46.33705917894709" lon="9.555280625022984"><ele>813.0</ele><time>2026-05-02T10:16:13.999Z</time></trkpt><trkpt lat="46.337066410622995" lon="9.555142978885565"><ele>813.0</ele><time>2026-05-02T10:16:14.999Z</time></trkpt><trkpt lat="46.33707087249053" lon="9.555000493773434"><ele>813.0</ele><time>2026-05-02T10:16:15.999Z</time></trkpt><trkpt lat="46.33707805490039" lon="9.554852805168657"><ele>812.5999999999999</ele><time>2026-05-02T10:16:16.999Z</time></trkpt><trkpt lat="46.337083847623525" lon="9.554696496226674"><ele>812.1999999999999</ele><time>2026-05-02T10:16:17.999Z</time></trkpt><trkpt lat="46.3370972945793" lon="9.55454687928549"><ele>811.8</ele><time>2026-05-02T10:16:18.999Z</time></trkpt><trkpt lat="46.33710036313635" lon="9.554399505563104"><ele>811.4</ele><time>2026-05-02T10:16:19.999Z</time></trkpt><trkpt lat="46.33710540540372" lon="9.554244286611603"><ele>811.0</ele><time>2026-05-02T10:16:20.999Z</time></trkpt><trkpt lat="46.33711443122456" lon="9.554096047025855"><ele>810.9999999999999</ele><time>2026-05-02T10:16:21.999Z</time></trkpt><trkpt lat="46.33712459666665" lon="9.553957965033492"><ele>811.0</ele><time>2026-05-02T10:16:22.999Z</time></trkpt><trkpt lat="46.33712426067966" lon="9.553823091311212"><ele>811.0</ele><time>2026-05-02T10:16:23.999Z</time></trkpt><trkpt lat="46.33712315857003" lon="9.553687594888153"><ele>811.0</ele><time>2026-05-02T10:16:24.999Z</time></trkpt><trkpt lat="46.337114680792915" lon="9.553570025554915"><ele>810.9999999999999</ele><time>2026-05-02T10:16:25.999Z</time></trkpt><trkpt lat="46.33710668995402" lon="9.553450263161096"><ele>811.0</ele><time>2026-05-02T10:16:26.999Z</time></trkpt><trkpt lat="46.33712008109509" lon="9.553321437527787"><ele>810.4999999999999</ele><time>2026-05-02T10:16:27.999Z</time></trkpt><trkpt lat="46.33710354417394" lon="9.553208548653464"><ele>810.0</ele><time>2026-05-02T10:16:28.999Z</time></trkpt><trkpt lat="46.33709178779613" lon="9.553092749972947"><ele>809.5</ele><time>2026-05-02T10:16:29.999Z</time></trkpt><trkpt lat="46.337082233196384" lon="9.552989501866854"><ele>809.0</ele><time>2026-05-02T10:16:30.999Z</time></trkpt><trkpt lat="46.337083807540346" lon="9.552884176892995"><ele>808.4999999999999</ele><time>2026-05-02T10:16:31.999Z</time></trkpt><trkpt lat="46.33710093152255" lon="9.552787538057572"><ele>808.0</ele><time>2026-05-02T10:16:32.999Z</time></trkpt><trkpt lat="46.337111407751266" lon="9.552639682672849"><ele>807.1666666666666</ele><time>2026-05-02T10:16:34.999Z</time></trkpt><trkpt lat="46.337078791129635" lon="9.552557526440463"><ele>806.3333333333333</ele><time>2026-05-02T10:16:35.999Z</time></trkpt><trkpt lat="46.337032895532886" lon="9.552472866075949"><ele>805.5</ele><time>2026-05-02T10:16:36.999Z</time></trkpt><trkpt lat="46.33699255892465" lon="9.552375532098473"><ele>804.6666666666667</ele><time>2026-05-02T10:16:37.999Z</time></trkpt><trkpt lat="46.33695879474569" lon="9.552254890055858"><ele>803.8333333333334</ele><time>2026-05-02T10:16:38.999Z</time></trkpt><trkpt lat="46.33693030712228" lon="9.552102692991747"><ele>803.0</ele><time>2026-05-02T10:16:39.999Z</time></trkpt><trkpt lat="46.33689415658537" lon="9.551954017637609"><ele>803.0</ele><time>2026-05-02T10:16:40.999Z</time></trkpt><trkpt lat="46.33683502690508" lon="9.551751327108493"><ele>803.0</ele><time>2026-05-02T10:16:41.999Z</time></trkpt><trkpt lat="46.336772325377694" lon="9.551558615894956"><ele>803.0</ele><time>2026-05-02T10:16:42.999Z</time></trkpt><trkpt lat="46.33669934950609" lon="9.551367562795457"><ele>803.3333333333334</ele><time>2026-05-02T10:16:43.999Z</time></trkpt><trkpt lat="46.33661636075595" lon="9.551155321490905"><ele>803.6666666666667</ele><time>2026-05-02T10:16:44.999Z</time></trkpt><trkpt lat="46.336545187933154" lon="9.550942923844666"><ele>804.0</ele><time>2026-05-02T10:16:45.999Z</time></trkpt><trkpt lat="46.336464945877346" lon="9.550715619649877"><ele>802.0</ele><time>2026-05-02T10:16:46.999Z</time></trkpt><trkpt lat="46.336386267116644" lon="9.550488009871577"><ele>800.0</ele><time>2026-05-02T10:16:47.999Z</time></trkpt><trkpt lat="46.33631282692368" lon="9.550262399146185"><ele>798.0</ele><time>2026-05-02T10:16:48.999Z</time></trkpt><trkpt lat="46.33624683332016" lon="9.550015150286175"><ele>797.0</ele><time>2026-05-02T10:16:49.999Z</time></trkpt><trkpt lat="46.336186773411846" lon="9.54974956987534"><ele>796.0</ele><time>2026-05-02T10:16:50.999Z</time></trkpt><trkpt lat="46.336149263040376" lon="9.549525634983794"><ele>795.0</ele><time>2026-05-02T10:16:51.999Z</time></trkpt><trkpt lat="46.336102929839655" lon="9.549298510259373"><ele>794.0</ele><time>2026-05-02T10:16:52.999Z</time></trkpt><trkpt lat="46.33608265742785" lon="9.548897731637286"><ele>793.0</ele><time>2026-05-02T10:16:53.999Z</time></trkpt><trkpt lat="46.3360696788102" lon="9.54857689293828"><ele>792.6666666666666</ele><time>2026-05-02T10:16:54.999Z</time></trkpt><trkpt lat="46.336066047684376" lon="9.548281220925467"><ele>792.3333333333333</ele><time>2026-05-02T10:16:55.999Z</time></trkpt><trkpt lat="46.336092542296285" lon="9.547989115973172"><ele>792.0</ele><time>2026-05-02T10:16:56.999Z</time></trkpt><trkpt lat="46.33611956529029" lon="9.547654634321711"><ele>791.5</ele><time>2026-05-02T10:16:57.999Z</time></trkpt><trkpt lat="46.336179047405295" lon="9.547254626543657"><ele>791.0</ele><time>2026-05-02T10:16:58.999Z</time></trkpt><trkpt lat="46.3362677826437" lon="9.546845481895422"><ele>788.5</ele><time>2026-05-02T10:16:59.999Z</time></trkpt><trkpt lat="46.336341885880124" lon="9.546480956929454"><ele>786.0</ele><time>2026-05-02T10:17:01.999Z</time></trkpt><trkpt lat="46.33638720420755" lon="9.546170851976767"><ele>794.0</ele><time>2026-05-02T10:17:02.999Z</time></trkpt><trkpt lat="46.33645790018621" lon="9.545891353980736"><ele>802.0</ele><time>2026-05-02T10:17:03.999Z</time></trkpt><trkpt lat="46.336506199981095" lon="9.545602343347978"><ele>810.0</ele><time>2026-05-02T10:17:04.999Z</time></trkpt><trkpt lat="46.33653475372365" lon="9.545298812747625"><ele>810.0</ele><time>2026-05-02T10:17:05.999Z</time></trkpt><trkpt lat="46.33656214452397" lon="9.545005728402323"><ele>810.0</ele><time>2026-05-02T10:17:06.999Z</time></trkpt><trkpt lat="46.33657890477889" lon="9.544719568737769"><ele>810.0</ele><time>2026-05-02T10:17:07.999Z</time></trkpt><trkpt lat="46.33656716793849" lon="9.544445158312753"><ele>810.0</ele><time>2026-05-02T10:17:08.999Z</time></trkpt><trkpt lat="46.33654633216045" lon="9.544176159104756"><ele>810.0</ele><time>2026-05-02T10:17:09.999Z</time></trkpt><trkpt lat="46.33649854470082" lon="9.543900837207085"><ele>810.0</ele><time>2026-05-02T10:17:10.999Z</time></trkpt><trkpt lat="46.33644113233939" lon="9.54361778960976"><ele>804.3333333333333</ele><time>2026-05-02T10:17:11.999Z</time></trkpt><trkpt lat="46.33636199478975" lon="9.543362052823532"><ele>798.6666666666666</ele><time>2026-05-02T10:17:12.999Z</time></trkpt><trkpt lat="46.336257537378664" lon="9.543117275456519"><ele>793.0</ele><time>2026-05-02T10:17:13.999Z</time></trkpt><trkpt lat="46.3361439120629" lon="9.542876478570966"><ele>793.0</ele><time>2026-05-02T10:17:14.999Z</time></trkpt><trkpt lat="46.336031269301415" lon="9.542642981511557"><ele>793.0</ele><time>2026-05-02T10:17:15.999Z</time></trkpt><trkpt lat="46.335927545584816" lon="9.542418787671672"><ele>793.0</ele><time>2026-05-02T10:17:16.999Z</time></trkpt><trkpt lat="46.33583461268514" lon="9.542182888630478"><ele>795.6666666666666</ele><time>2026-05-02T10:17:17.999Z</time></trkpt><trkpt lat="46.33577043408694" lon="9.541949927865659"><ele>798.3333333333333</ele><time>2026-05-02T10:17:18.999Z</time></trkpt><trkpt lat="46.33570708594459" lon="9.541712008233986"><ele>801.0</ele><time>2026-05-02T10:17:19.999Z</time></trkpt><trkpt lat="46.33565039636017" lon="9.54146594601784"><ele>801.0</ele><time>2026-05-02T10:17:20.999Z</time></trkpt><trkpt lat="46.33560460191948" lon="9.541227758287203"><ele>801.0</ele><time>2026-05-02T10:17:21.999Z</time></trkpt><trkpt lat="46.33554895450359" lon="9.54100538327932"><ele>801.0</ele><time>2026-05-02T10:17:22.999Z</time></trkpt><trkpt lat="46.33547301149832" lon="9.54079338141177"><ele>797.6666666666667</ele><time>2026-05-02T10:17:23.998Z</time></trkpt><trkpt lat="46.33533806144009" lon="9.540569162661795"><ele>794.3333333333334</ele><time>2026-05-02T10:17:24.998Z</time></trkpt><trkpt lat="46.33525125058113" lon="9.540360983437825"><ele>791.0</ele><time>2026-05-02T10:17:25.998Z</time></trkpt><trkpt lat="46.33516905820948" lon="9.540159488261146"><ele>791.0</ele><time>2026-05-02T10:17:26.998Z</time></trkpt><trkpt lat="46.33509447017344" lon="9.539958592123913"><ele>791.0</ele><time>2026-05-02T10:17:27.998Z</time></trkpt><trkpt lat="46.335016635609485" lon="9.539765310924002"><ele>791.0</ele><time>2026-05-02T10:17:29Z</time></trkpt><trkpt lat="46.33495976772729" lon="9.53955591998161"><ele>793.0</ele><time>2026-05-02T10:17:30Z</time></trkpt><trkpt lat="46.334893495382914" lon="9.539353475560615"><ele>795.0</ele><time>2026-05-02T10:17:31Z</time></trkpt><trkpt lat="46.33483324472631" lon="9.539156892427625"><ele>797.0</ele><time>2026-05-02T10:17:32Z</time></trkpt><trkpt lat="46.33477758272855" lon="9.538973511089461"><ele>799.0</ele><time>2026-05-02T10:17:33Z</time></trkpt><trkpt lat="46.33472182303194" lon="9.53878751476594"><ele>794.5</ele><time>2026-05-02T10:17:34Z</time></trkpt><trkpt lat="46.3346558662441" lon="9.538615769560522"><ele>790.0</ele><time>2026-05-02T10:17:35Z</time></trkpt><trkpt lat="46.334613808041446" lon="9.538442647797744"><ele>785.5</ele><time>2026-05-02T10:17:36Z</time></trkpt><trkpt lat="46.33457547566631" lon="9.538291425304514"><ele>781.0</ele><time>2026-05-02T10:17:37Z</time></trkpt><trkpt lat="46.33453587521957" lon="9.5381529777006"><ele>781.0</ele><time>2026-05-02T10:17:38Z</time></trkpt><trkpt lat="46.334500848635514" lon="9.538020028897625"><ele>781.0</ele><time>2026-05-02T10:17:39Z</time></trkpt><trkpt lat="46.33446712841164" lon="9.53789046241518"><ele>781.0</ele><time>2026-05-02T10:17:40Z</time></trkpt><trkpt lat="46.33444390517164" lon="9.537754432648377"><ele>781.0</ele><time>2026-05-02T10:17:41Z</time></trkpt><trkpt lat="46.33442748525489" lon="9.53760260259863"><ele>781.0</ele><time>2026-05-02T10:17:42Z</time></trkpt><trkpt lat="46.33441207873276" lon="9.537450535836554"><ele>780.0</ele><time>2026-05-02T10:17:43Z</time></trkpt><trkpt lat="46.33441662862839" lon="9.537292451087295"><ele>779.0</ele><time>2026-05-02T10:17:44Z</time></trkpt><trkpt lat="46.334422406120495" lon="9.537132568063916"><ele>778.0</ele><time>2026-05-02T10:17:45Z</time></trkpt><trkpt lat="46.33441387710414" lon="9.53696553237951"><ele>777.0</ele><time>2026-05-02T10:17:46Z</time></trkpt><trkpt lat="46.33440889209611" lon="9.536775183168642"><ele>776.75</ele><time>2026-05-02T10:17:47Z</time></trkpt><trkpt lat="46.33439115435264" lon="9.53657227925465"><ele>776.5</ele><time>2026-05-02T10:17:48Z</time></trkpt><trkpt lat="46.33438279582409" lon="9.53636540988904"><ele>776.25</ele><time>2026-05-02T10:17:49Z</time></trkpt><trkpt lat="46.33440005629283" lon="9.536150933045914"><ele>776.0</ele><time>2026-05-02T10:17:50Z</time></trkpt><trkpt lat="46.33442237672289" lon="9.53593165297272"><ele>776.0</ele><time>2026-05-02T10:17:51Z</time></trkpt><trkpt lat="46.33444474854122" lon="9.535721704040197"><ele>776.0</ele><time>2026-05-02T10:17:52Z</time></trkpt><trkpt lat="46.33446656354009" lon="9.535518778677837"><ele>776.0</ele><time>2026-05-02T10:17:53Z</time></trkpt><trkpt lat="46.334489850951975" lon="9.535303425060487"><ele>776.0</ele><time>2026-05-02T10:17:54Z</time></trkpt><trkpt lat="46.33452170155185" lon="9.535059742599037"><ele>776.0</ele><time>2026-05-02T10:17:55Z</time></trkpt><trkpt lat="46.33454510437973" lon="9.53482059052869"><ele>776.0</ele><time>2026-05-02T10:17:56Z</time></trkpt><trkpt lat="46.33458828216448" lon="9.534585193583693"><ele>776.0</ele><time>2026-05-02T10:17:57Z</time></trkpt><trkpt lat="46.33462085775375" lon="9.53433204628549"><ele>774.3333333333334</ele><time>2026-05-02T10:17:58Z</time></trkpt><trkpt lat="46.33464429690013" lon="9.53405979703975"><ele>772.6666666666667</ele><time>2026-05-02T10:17:59Z</time></trkpt><trkpt lat="46.33466841703458" lon="9.533790576779966"><ele>771.0</ele><time>2026-05-02T10:18:00Z</time></trkpt><trkpt lat="46.33468152023185" lon="9.533479236010333"><ele>772.0</ele><time>2026-05-02T10:18:01Z</time></trkpt><trkpt lat="46.334659517826545" lon="9.533071326059074"><ele>773.0</ele><time>2026-05-02T10:18:02Z</time></trkpt><trkpt lat="46.33457180190575" lon="9.532708329279936"><ele>773.0</ele><time>2026-05-02T10:18:03Z</time></trkpt><trkpt lat="46.334470004138325" lon="9.532420281695632"><ele>773.0</ele><time>2026-05-02T10:18:05Z</time></trkpt><trkpt lat="46.33434103238632" lon="9.53220840862043"><ele>773.0</ele><time>2026-05-02T10:18:06Z</time></trkpt><trkpt lat="46.33419541219334" lon="9.531994292241874"><ele>770.3333333333334</ele><time>2026-05-02T10:18:07Z</time></trkpt><trkpt lat="46.334051112396196" lon="9.53179536127012"><ele>767.6666666666667</ele><time>2026-05-02T10:18:08Z</time></trkpt><trkpt lat="46.33391547553177" lon="9.53160562171592"><ele>765.0</ele><time>2026-05-02T10:18:09Z</time></trkpt><trkpt lat="46.33378877469283" lon="9.531420660174154"><ele>765.0</ele><time>2026-05-02T10:18:10Z</time></trkpt><trkpt lat="46.333668786423566" lon="9.531255081536699"><ele>765.0</ele><time>2026-05-02T10:18:11Z</time></trkpt><trkpt lat="46.33356390419267" lon="9.531068276846165"><ele>765.0</ele><time>2026-05-02T10:18:12Z</time></trkpt><trkpt lat="46.333506686364196" lon="9.530881629303272"><ele>765.3333333333334</ele><time>2026-05-02T10:18:13Z</time></trkpt><trkpt lat="46.333489164779905" lon="9.530668590071112"><ele>765.6666666666667</ele><time>2026-05-02T10:18:14Z</time></trkpt><trkpt lat="46.33346191476271" lon="9.530454871622348"><ele>766.0</ele><time>2026-05-02T10:18:15Z</time></trkpt><trkpt lat="46.33346113372196" lon="9.530216181563686"><ele>766.0</ele><time>2026-05-02T10:18:16Z</time></trkpt><trkpt lat="46.33347786936553" lon="9.529965041136828"><ele>766.0</ele><time>2026-05-02T10:18:17Z</time></trkpt><trkpt lat="46.33349850517231" lon="9.529729123983506"><ele>766.0</ele><time>2026-05-02T10:18:18Z</time></trkpt><trkpt lat="46.33352128531735" lon="9.529487478525892"><ele>766.0</ele><time>2026-05-02T10:18:19Z</time></trkpt><trkpt lat="46.33352870519409" lon="9.529239637907947"><ele>766.0</ele><time>2026-05-02T10:18:19.999Z</time></trkpt><trkpt lat="46.33350832443975" lon="9.528981277038092"><ele>766.0</ele><time>2026-05-02T10:18:20.999Z</time></trkpt><trkpt lat="46.3334630018418" lon="9.528739240232108"><ele>766.6666666666667</ele><time>2026-05-02T10:18:21.999Z</time></trkpt><trkpt lat="46.33340084585782" lon="9.528485976386973"><ele>767.3333333333334</ele><time>2026-05-02T10:18:22.999Z</time></trkpt><trkpt lat="46.33336682863123" lon="9.528247711253078"><ele>768.0</ele><time>2026-05-02T10:18:23.999Z</time></trkpt><trkpt lat="46.333333462802365" lon="9.528010409041803"><ele>764.6666666666666</ele><time>2026-05-02T10:18:24.999Z</time></trkpt><trkpt lat="46.33330539063208" lon="9.527783457507727"><ele>761.3333333333333</ele><time>2026-05-02T10:18:25.999Z</time></trkpt><trkpt lat="46.33327748813438" lon="9.52755828137985"><ele>758.0</ele><time>2026-05-02T10:18:26.999Z</time></trkpt><trkpt lat="46.333289419414996" lon="9.527309992863666"><ele>758.0</ele><time>2026-05-02T10:18:27.999Z</time></trkpt><trkpt lat="46.33326556708262" lon="9.527088575696853"><ele>758.0</ele><time>2026-05-02T10:18:28.999Z</time></trkpt><trkpt lat="46.33326347119562" lon="9.526873849099546"><ele>758.0</ele><time>2026-05-02T10:18:29.999Z</time></trkpt><trkpt lat="46.333273973740646" lon="9.526667310316428"><ele>758.0</ele><time>2026-05-02T10:18:30.999Z</time></trkpt><trkpt lat="46.333355529693925" lon="9.526507268410183"><ele>755.5</ele><time>2026-05-02T10:18:31.999Z</time></trkpt><trkpt lat="46.33343393771343" lon="9.526347467595194"><ele>753.0</ele><time>2026-05-02T10:18:32.999Z</time></trkpt><trkpt lat="46.33352501544744" lon="9.526226190294196"><ele>750.5</ele><time>2026-05-02T10:18:33.999Z</time></trkpt><trkpt lat="46.333589409343105" lon="9.526058314880569"><ele>748.0</ele><time>2026-05-02T10:18:34.999Z</time></trkpt><trkpt lat="46.33366115519323" lon="9.525900277799607"><ele>746.75</ele><time>2026-05-02T10:18:35.999Z</time></trkpt><trkpt lat="46.33373922694264" lon="9.525738093064733"><ele>745.5</ele><time>2026-05-02T10:18:36.999Z</time></trkpt><trkpt lat="46.33381183012168" lon="9.525572093764405"><ele>744.25</ele><time>2026-05-02T10:18:37.999Z</time></trkpt><trkpt lat="46.3338638941221" lon="9.525382720725744"><ele>743.0</ele><time>2026-05-02T10:18:38.999Z</time></trkpt><trkpt lat="46.3338765430392" lon="9.525162180919027"><ele>742.25</ele><time>2026-05-02T10:18:39.999Z</time></trkpt><trkpt lat="46.33388497722947" lon="9.524952612041394"><ele>741.5</ele><time>2026-05-02T10:18:40.999Z</time></trkpt><trkpt lat="46.33387599746608" lon="9.524739503868199"><ele>740.75</ele><time>2026-05-02T10:18:41.999Z</time></trkpt><trkpt lat="46.33386173996629" lon="9.52453131932001"><ele>740.0</ele><time>2026-05-02T10:18:42.999Z</time></trkpt><trkpt lat="46.33385509957843" lon="9.52433150126906"><ele>740.25</ele><time>2026-05-02T10:18:43.999Z</time></trkpt><trkpt lat="46.33385670126308" lon="9.524125405011969"><ele>740.5</ele><time>2026-05-02T10:18:44.999Z</time></trkpt><trkpt lat="46.333862705209064" lon="9.5239144965515"><ele>740.75</ele><time>2026-05-02T10:18:45.999Z</time></trkpt><trkpt lat="46.333874878743906" lon="9.523711045550314"><ele>741.0</ele><time>2026-05-02T10:18:46.999Z</time></trkpt><trkpt lat="46.33390738043828" lon="9.523493653906657"><ele>741.0</ele><time>2026-05-02T10:18:47.999Z</time></trkpt><trkpt lat="46.33395751906403" lon="9.523272119358005"><ele>741.0</ele><time>2026-05-02T10:18:48.999Z</time></trkpt><trkpt lat="46.334004792931395" lon="9.523042540416057"><ele>741.0</ele><time>2026-05-02T10:18:49.999Z</time></trkpt><trkpt lat="46.334065391830734" lon="9.52279898319521"><ele>736.0</ele><time>2026-05-02T10:18:50.999Z</time></trkpt><trkpt lat="46.33413343764055" lon="9.522562527472278"><ele>731.0</ele><time>2026-05-02T10:18:51.999Z</time></trkpt><trkpt lat="46.33420227406092" lon="9.522332292476829"><ele>726.0</ele><time>2026-05-02T10:18:52.999Z</time></trkpt><trkpt lat="46.334259076103216" lon="9.522096127411743"><ele>722.3333333333334</ele><time>2026-05-02T10:18:53.999Z</time></trkpt><trkpt lat="46.33429763060508" lon="9.521851788974518"><ele>718.6666666666667</ele><time>2026-05-02T10:18:54.999Z</time></trkpt><trkpt lat="46.33432166595781" lon="9.521602697569968"><ele>715.0</ele><time>2026-05-02T10:18:55.999Z</time></trkpt><trkpt lat="46.33433907008923" lon="9.521354870638886"><ele>712.3333333333334</ele><time>2026-05-02T10:18:56.999Z</time></trkpt><trkpt lat="46.33434644274146" lon="9.521106905794705"><ele>709.6666666666666</ele><time>2026-05-02T10:18:57.999Z</time></trkpt><trkpt lat="46.3343495607409" lon="9.520866639223742"><ele>707.0</ele><time>2026-05-02T10:18:58.999Z</time></trkpt><trkpt lat="46.33432762711276" lon="9.520616598760226"><ele>706.0</ele><time>2026-05-02T10:18:59.999Z</time></trkpt><trkpt lat="46.334296236373106" lon="9.520375022736719"><ele>705.0</ele><time>2026-05-02T10:19:00.999Z</time></trkpt><trkpt lat="46.33426104767754" lon="9.520136551946415"><ele>704.0</ele><time>2026-05-02T10:19:01.999Z</time></trkpt><trkpt lat="46.33421188724044" lon="9.519893367023814"><ele>704.0</ele><time>2026-05-02T10:19:02.999Z</time></trkpt><trkpt lat="46.33415323349622" lon="9.519656502997984"><ele>704.0</ele><time>2026-05-02T10:19:03.999Z</time></trkpt><trkpt lat="46.33409024175514" lon="9.519406658911972"><ele>704.0</ele><time>2026-05-02T10:19:05.022Z</time></trkpt><trkpt lat="46.334031992862094" lon="9.519164985104263"><ele>703.3333333333333</ele><time>2026-05-02T10:19:06.019Z</time></trkpt><trkpt lat="46.333952743632956" lon="9.51894944420312"><ele>702.6666666666666</ele><time>2026-05-02T10:19:07.013Z</time></trkpt><trkpt lat="46.33385997651672" lon="9.51873686087032"><ele>702.0</ele><time>2026-05-02T10:19:08.015Z</time></trkpt><trkpt lat="46.33376847345444" lon="9.518531023966235"><ele>698.3333333333334</ele><time>2026-05-02T10:19:09.012Z</time></trkpt><trkpt lat="46.33367717984353" lon="9.518328323553115"><ele>694.6666666666667</ele><time>2026-05-02T10:19:10.01Z</time></trkpt><trkpt lat="46.33358204503903" lon="9.518117211173127"><ele>691.0</ele><time>2026-05-02T10:19:11.021Z</time></trkpt><trkpt lat="46.33348670704577" lon="9.517905647844708"><ele>685.0</ele><time>2026-05-02T10:19:12.022Z</time></trkpt><trkpt lat="46.33282704283142" lon="9.516591243454736"><ele>685.0</ele><time>2026-05-02T10:19:17.999Z</time></trkpt><trkpt lat="46.33273004359741" lon="9.51637885983053"><ele>685.0</ele><time>2026-05-02T10:19:18.999Z</time></trkpt><trkpt lat="46.33306931616656" lon="9.516396647389293"><ele>684.8</ele><time>2026-05-02T10:19:19.999Z</time></trkpt><trkpt lat="46.33300345516934" lon="9.51622948823237"><ele>684.6</ele><time>2026-05-02T10:19:20.999Z</time></trkpt><trkpt lat="46.33299978662539" lon="9.51608736080292"><ele>684.4000000000001</ele><time>2026-05-02T10:19:21.999Z</time></trkpt><trkpt lat="46.33299048541727" lon="9.515947858327372"><ele>684.2</ele><time>2026-05-02T10:19:22.999Z</time></trkpt><trkpt lat="46.332999672508265" lon="9.515825852247083"><ele>684.0</ele><time>2026-05-02T10:19:23.999Z</time></trkpt><trkpt lat="46.332994759744615" lon="9.515721291629127"><ele>684.0</ele><time>2026-05-02T10:19:24.999Z</time></trkpt><trkpt lat="46.33299941165314" lon="9.51562573761665"><ele>684.0</ele><time>2026-05-02T10:19:25.999Z</time></trkpt><trkpt lat="46.33302969118537" lon="9.51553774501724"><ele>684.0</ele><time>2026-05-02T10:19:26.999Z</time></trkpt><trkpt lat="46.33305286457246" lon="9.515452401302662"><ele>684.0</ele><time>2026-05-02T10:19:27.999Z</time></trkpt><trkpt lat="46.33305471772516" lon="9.515274075525888"><ele>684.0</ele><time>2026-05-02T10:19:29.999Z</time></trkpt><trkpt lat="46.3330450577237" lon="9.515180122292914"><ele>684.0</ele><time>2026-05-02T10:19:30.999Z</time></trkpt><trkpt lat="46.33304181006866" lon="9.515030988924622"><ele>683.2857142857142</ele><time>2026-05-02T10:19:32.999Z</time></trkpt><trkpt lat="46.33303541814638" lon="9.514929146676874"><ele>682.5714285714286</ele><time>2026-05-02T10:19:35Z</time></trkpt><trkpt lat="46.33302802287261" lon="9.514830853220829"><ele>681.8571428571429</ele><time>2026-05-02T10:19:37Z</time></trkpt><trkpt lat="46.33300933917079" lon="9.514718479195713"><ele>681.1428571428571</ele><time>2026-05-02T10:19:41Z</time></trkpt><trkpt lat="46.333001752840126" lon="9.514621392696274"><ele>680.4285714285714</ele><time>2026-05-02T10:19:45Z</time></trkpt><trkpt lat="46.3329760259563" lon="9.51452085297584"><ele>679.7142857142857</ele><time>2026-05-02T10:19:54Z</time></trkpt><trkpt lat="46.33296469707414" lon="9.514411147668925"><ele>679.0</ele><time>2026-05-02T10:19:58Z</time></trkpt><trkpt lat="46.332959563691425" lon="9.514311661340518"><ele>677.6666666666667</ele><time>2026-05-02T10:20:00Z</time></trkpt><trkpt lat="46.33294383388922" lon="9.514209473833791"><ele>676.3333333333334</ele><time>2026-05-02T10:20:02Z</time></trkpt><trkpt lat="46.33291652674347" lon="9.514086887733125"><ele>675.0</ele><time>2026-05-02T10:20:04Z</time></trkpt><trkpt lat="46.33286215127514" lon="9.514016592134087"><ele>673.6666666666666</ele><time>2026-05-02T10:20:06Z</time></trkpt><trkpt lat="46.33284038849306" lon="9.513911547068194"><ele>672.3333333333333</ele><time>2026-05-02T10:20:09Z</time></trkpt><trkpt lat="46.33281460675529" lon="9.513819289965102"><ele>671.0</ele><time>2026-05-02T10:20:12Z</time></trkpt><trkpt lat="46.33278075073614" lon="9.513711697421998"><ele>670.1999999999999</ele><time>2026-05-02T10:20:15Z</time></trkpt><trkpt lat="46.3327528874954" lon="9.513615743911593"><ele>669.4</ele><time>2026-05-02T10:20:17Z</time></trkpt><trkpt lat="46.33271795213342" lon="9.513488387970355"><ele>668.6</ele><time>2026-05-02T10:20:19Z</time></trkpt><trkpt lat="46.33266440653161" lon="9.51333700586654"><ele>667.8</ele><time>2026-05-02T10:20:20.999Z</time></trkpt><trkpt lat="46.33262025246958" lon="9.51316365854182"><ele>667.0</ele><time>2026-05-02T10:20:22.999Z</time></trkpt><trkpt lat="46.332589705481524" lon="9.513073181574072"><ele>667.0</ele><time>2026-05-02T10:20:23.999Z</time></trkpt><trkpt lat="46.33254793684242" lon="9.512960268353309"><ele>667.0</ele><time>2026-05-02T10:20:24.999Z</time></trkpt><trkpt lat="46.33251274552334" lon="9.512833411498896"><ele>667.0</ele><time>2026-05-02T10:20:25.999Z</time></trkpt><trkpt lat="46.33247445272613" lon="9.51269124208466"><ele>667.0</ele><time>2026-05-02T10:20:26.999Z</time></trkpt><trkpt lat="46.33243093151256" lon="9.512546006417677"><ele>667.0</ele><time>2026-05-02T10:20:27.999Z</time></trkpt><trkpt lat="46.33237971256904" lon="9.512379715178195"><ele>666.75</ele><time>2026-05-02T10:20:28.999Z</time></trkpt><trkpt lat="46.33233851024473" lon="9.512180109548765"><ele>666.5</ele><time>2026-05-02T10:20:29.999Z</time></trkpt><trkpt lat="46.33232766049009" lon="9.511956568486575"><ele>666.25</ele><time>2026-05-02T10:20:30.999Z</time></trkpt><trkpt lat="46.33231362171045" lon="9.511803588156177"><ele>666.0</ele><time>2026-05-02T10:20:31.999Z</time></trkpt><trkpt lat="46.332300675293965" lon="9.51162850092419"><ele>666.0</ele><time>2026-05-02T10:20:32.999Z</time></trkpt><trkpt lat="46.33228574027666" lon="9.511419220478857"><ele>666.0</ele><time>2026-05-02T10:20:33.999Z</time></trkpt><trkpt lat="46.33227107677244" lon="9.511208661907684"><ele>666.0</ele><time>2026-05-02T10:20:34.999Z</time></trkpt><trkpt lat="46.33227071979917" lon="9.51101562513831"><ele>666.0</ele><time>2026-05-02T10:20:35.999Z</time></trkpt><trkpt lat="46.332269885378786" lon="9.510837161443549"><ele>667.5</ele><time>2026-05-02T10:20:36.999Z</time></trkpt><trkpt lat="46.33229641796866" lon="9.510667504945955"><ele>669.0</ele><time>2026-05-02T10:20:37.999Z</time></trkpt><trkpt lat="46.332320360705445" lon="9.51049885935708"><ele>670.5</ele><time>2026-05-02T10:20:38.999Z</time></trkpt><trkpt lat="46.332341999800676" lon="9.510344154100766"><ele>672.0</ele><time>2026-05-02T10:20:39.999Z</time></trkpt><trkpt lat="46.33236855359943" lon="9.510191595011504"><ele>672.5</ele><time>2026-05-02T10:20:40.999Z</time></trkpt><trkpt lat="46.33239501020475" lon="9.510041258186565"><ele>673.0</ele><time>2026-05-02T10:20:41.999Z</time></trkpt><trkpt lat="46.33243556620653" lon="9.509909312787071"><ele>673.5</ele><time>2026-05-02T10:20:42.999Z</time></trkpt><trkpt lat="46.3324899047559" lon="9.509806733221135"><ele>674.0</ele><time>2026-05-02T10:20:43.999Z</time></trkpt><trkpt lat="46.332541812877594" lon="9.509732646285737"><ele>674.5</ele><time>2026-05-02T10:20:44.999Z</time></trkpt><trkpt lat="46.33258788470377" lon="9.509647437615442"><ele>675.0</ele><time>2026-05-02T10:20:45.999Z</time></trkpt><trkpt lat="46.3325631604812" lon="9.50947468450139"><ele>676.0</ele><time>2026-05-02T10:20:46.999Z</time></trkpt><trkpt lat="46.33255361088935" lon="9.509328737542697"><ele>677.0</ele><time>2026-05-02T10:20:47.999Z</time></trkpt><trkpt lat="46.33253389991358" lon="9.50918873861795"><ele>678.0</ele><time>2026-05-02T10:20:48.999Z</time></trkpt><trkpt lat="46.33251094876672" lon="9.50904584587853"><ele>679.0</ele><time>2026-05-02T10:20:49.999Z</time></trkpt><trkpt lat="46.332489306479175" lon="9.50888515849107"><ele>680.0</ele><time>2026-05-02T10:20:50.999Z</time></trkpt><trkpt lat="46.33244808654773" lon="9.508738426136702"><ele>681.3333333333333</ele><time>2026-05-02T10:20:51.999Z</time></trkpt><trkpt lat="46.33240920210387" lon="9.50864423200579"><ele>682.6666666666666</ele><time>2026-05-02T10:20:52.999Z</time></trkpt><trkpt lat="46.33239543600343" lon="9.508551987414243"><ele>684.0</ele><time>2026-05-02T10:20:54.999Z</time></trkpt><trkpt lat="46.332201508223164" lon="9.508027975586993"><ele>676.25</ele><time>2026-05-02T10:20:55.999Z</time></trkpt><trkpt lat="46.332111656267465" lon="9.507867637067964"><ele>668.5</ele><time>2026-05-02T10:20:56.999Z</time></trkpt><trkpt lat="46.33202290370287" lon="9.50770478884538"><ele>660.75</ele><time>2026-05-02T10:20:57.999Z</time></trkpt><trkpt lat="46.331968024593834" lon="9.507514351128654"><ele>653.0</ele><time>2026-05-02T10:20:58.999Z</time></trkpt><trkpt lat="46.33193287658569" lon="9.507312046153196"><ele>653.0</ele><time>2026-05-02T10:20:59.999Z</time></trkpt><trkpt lat="46.33190239292281" lon="9.507084487679572"><ele>653.0</ele><time>2026-05-02T10:21:00.999Z</time></trkpt><trkpt lat="46.331875331790386" lon="9.506842908413763"><ele>653.0</ele><time>2026-05-02T10:21:01.999Z</time></trkpt><trkpt lat="46.3318493400901" lon="9.50660492988263"><ele>654.6666666666666</ele><time>2026-05-02T10:21:02.999Z</time></trkpt><trkpt lat="46.33182260552863" lon="9.506360149925689"><ele>656.3333333333334</ele><time>2026-05-02T10:21:03.999Z</time></trkpt><trkpt lat="46.33179673902329" lon="9.506124112384967"><ele>658.0</ele><time>2026-05-02T10:21:04.999Z</time></trkpt><trkpt lat="46.331770902592375" lon="9.50588933150216"><ele>659.5</ele><time>2026-05-02T10:21:05.999Z</time></trkpt><trkpt lat="46.3317469016871" lon="9.505673965564348"><ele>661.0</ele><time>2026-05-02T10:21:06.999Z</time></trkpt><trkpt lat="46.331723170903786" lon="9.505461023311131"><ele>662.5</ele><time>2026-05-02T10:21:07.999Z</time></trkpt><trkpt lat="46.33170004867255" lon="9.505253541937751"><ele>664.0</ele><time>2026-05-02T10:21:08.999Z</time></trkpt><trkpt lat="46.331677350870436" lon="9.505049869056911"><ele>664.0</ele><time>2026-05-02T10:21:09.999Z</time></trkpt><trkpt lat="46.33163984755034" lon="9.504847002966548"><ele>664.0</ele><time>2026-05-02T10:21:10.999Z</time></trkpt><trkpt lat="46.33163271860528" lon="9.504645609143619"><ele>664.0</ele><time>2026-05-02T10:21:11.999Z</time></trkpt><trkpt lat="46.33161066194062" lon="9.50443263508372"><ele>664.0</ele><time>2026-05-02T10:21:12.999Z</time></trkpt><trkpt lat="46.3315974962939" lon="9.504239949476407"><ele>663.0</ele><time>2026-05-02T10:21:13.999Z</time></trkpt><trkpt lat="46.331603558044996" lon="9.504057742450998"><ele>662.0</ele><time>2026-05-02T10:21:14.999Z</time></trkpt><trkpt lat="46.331619719844056" lon="9.503888431987386"><ele>661.0</ele><time>2026-05-02T10:21:15.999Z</time></trkpt><trkpt lat="46.33164631437766" lon="9.503700497510783"><ele>660.0</ele><time>2026-05-02T10:21:16.999Z</time></trkpt><trkpt lat="46.331657286669575" lon="9.503510641419432"><ele>659.25</ele><time>2026-05-02T10:21:17.999Z</time></trkpt><trkpt lat="46.331687520785394" lon="9.503330660691619"><ele>658.5</ele><time>2026-05-02T10:21:18.999Z</time></trkpt><trkpt lat="46.331714153529255" lon="9.503130619325747"><ele>657.75</ele><time>2026-05-02T10:21:19.999Z</time></trkpt><trkpt lat="46.33173289144022" lon="9.502932712989024"><ele>657.0</ele><time>2026-05-02T10:21:20.999Z</time></trkpt><trkpt lat="46.331679128679106" lon="9.50274317369377"><ele>657.0</ele><time>2026-05-02T10:21:21.999Z</time></trkpt><trkpt lat="46.3316363688955" lon="9.50255936497395"><ele>657.0</ele><time>2026-05-02T10:21:22.999Z</time></trkpt><trkpt lat="46.33159246519161" lon="9.502386957296581"><ele>657.0</ele><time>2026-05-02T10:21:23.999Z</time></trkpt><trkpt lat="46.331615903411674" lon="9.502156146536798"><ele>657.0</ele><time>2026-05-02T10:21:24.999Z</time></trkpt><trkpt lat="46.33155645933707" lon="9.501941320528177"><ele>657.0</ele><time>2026-05-02T10:21:25.999Z</time></trkpt><trkpt lat="46.331564326758915" lon="9.501711692565951"><ele>657.0</ele><time>2026-05-02T10:21:26.999Z</time></trkpt><trkpt lat="46.33154624205755" lon="9.501475975881647"><ele>657.0</ele><time>2026-05-02T10:21:27.999Z</time></trkpt><trkpt lat="46.331538618881225" lon="9.501232766099642"><ele>658.0</ele><time>2026-05-02T10:21:28.999Z</time></trkpt><trkpt lat="46.331525491732" lon="9.501018284962754"><ele>659.0</ele><time>2026-05-02T10:21:29.999Z</time></trkpt><trkpt lat="46.33152010821161" lon="9.50077500804946"><ele>660.0</ele><time>2026-05-02T10:21:30.999Z</time></trkpt><trkpt lat="46.331506874635124" lon="9.500550989654295"><ele>664.3333333333334</ele><time>2026-05-02T10:21:31.999Z</time></trkpt><trkpt lat="46.33145098397519" lon="9.500328307259032"><ele>668.6666666666667</ele><time>2026-05-02T10:21:32.999Z</time></trkpt><trkpt lat="46.33139151752746" lon="9.500118157916964"><ele>673.0</ele><time>2026-05-02T10:21:33.999Z</time></trkpt><trkpt lat="46.33135031976552" lon="9.499914945396295"><ele>660.3333333333334</ele><time>2026-05-02T10:21:34.999Z</time></trkpt><trkpt lat="46.331310496327724" lon="9.499720575003618"><ele>647.6666666666666</ele><time>2026-05-02T10:21:35.999Z</time></trkpt><trkpt lat="46.3312620765339" lon="9.499479400822286"><ele>635.0</ele><time>2026-05-02T10:21:36.999Z</time></trkpt><trkpt lat="46.331228884524805" lon="9.499267176183084"><ele>635.0</ele><time>2026-05-02T10:21:37.999Z</time></trkpt><trkpt lat="46.33119781411677" lon="9.499062950897917"><ele>635.0</ele><time>2026-05-02T10:21:38.999Z</time></trkpt><trkpt lat="46.33116652122362" lon="9.498848895180819"><ele>635.0</ele><time>2026-05-02T10:21:39.999Z</time></trkpt><trkpt lat="46.33116882782348" lon="9.498632688133224"><ele>635.0</ele><time>2026-05-02T10:21:41Z</time></trkpt><trkpt lat="46.331159290764" lon="9.49842326711786"><ele>635.0</ele><time>2026-05-02T10:21:42Z</time></trkpt><trkpt lat="46.331135677636865" lon="9.498200479805035"><ele>635.0</ele><time>2026-05-02T10:21:43Z</time></trkpt><trkpt lat="46.33113933072437" lon="9.497982168977652"><ele>635.0</ele><time>2026-05-02T10:21:44Z</time></trkpt><trkpt lat="46.331129738292155" lon="9.497757283934945"><ele>635.0</ele><time>2026-05-02T10:21:45Z</time></trkpt><trkpt lat="46.33111969749476" lon="9.49752188746432"><ele>635.0</ele><time>2026-05-02T10:21:46Z</time></trkpt><trkpt lat="46.331102966279666" lon="9.497313879125247"><ele>635.0</ele><time>2026-05-02T10:21:47Z</time></trkpt><trkpt lat="46.33111952219993" lon="9.497100635735633"><ele>634.75</ele><time>2026-05-02T10:21:48Z</time></trkpt><trkpt lat="46.33115763631984" lon="9.496887888220002"><ele>634.5</ele><time>2026-05-02T10:21:49Z</time></trkpt><trkpt lat="46.33120916964928" lon="9.4967043102074"><ele>634.25</ele><time>2026-05-02T10:21:50Z</time></trkpt><trkpt lat="46.33126644685943" lon="9.496532894090826"><ele>634.0</ele><time>2026-05-02T10:21:51Z</time></trkpt><trkpt lat="46.331305336595854" lon="9.496350983473913"><ele>634.0</ele><time>2026-05-02T10:21:52Z</time></trkpt><trkpt lat="46.331322297963" lon="9.496183855263624"><ele>634.0</ele><time>2026-05-02T10:21:53Z</time></trkpt><trkpt lat="46.331362613836326" lon="9.496003076922076"><ele>634.0</ele><time>2026-05-02T10:21:54Z</time></trkpt><trkpt lat="46.33137481093784" lon="9.495823361852704"><ele>634.0</ele><time>2026-05-02T10:21:55Z</time></trkpt><trkpt lat="46.33136643237903" lon="9.495640965825977"><ele>634.0</ele><time>2026-05-02T10:21:56Z</time></trkpt><trkpt lat="46.33135745816834" lon="9.495461218788787"><ele>634.0</ele><time>2026-05-02T10:21:57Z</time></trkpt><trkpt lat="46.331363042980016" lon="9.495261657749936"><ele>634.0</ele><time>2026-05-02T10:21:58Z</time></trkpt><trkpt lat="46.331347795469874" lon="9.49506129212956"><ele>634.0</ele><time>2026-05-02T10:21:59Z</time></trkpt><trkpt lat="46.33133732706786" lon="9.494846139094792"><ele>634.0</ele><time>2026-05-02T10:22:00Z</time></trkpt><trkpt lat="46.33134066310273" lon="9.494620552684477"><ele>634.0</ele><time>2026-05-02T10:22:01Z</time></trkpt><trkpt lat="46.33132908687761" lon="9.494374298918515"><ele>634.0</ele><time>2026-05-02T10:22:02Z</time></trkpt><trkpt lat="46.33127558215553" lon="9.49413885989645"><ele>634.0</ele><time>2026-05-02T10:22:03Z</time></trkpt><trkpt lat="46.331230251653096" lon="9.49390771435952"><ele>634.0</ele><time>2026-05-02T10:22:04Z</time></trkpt><trkpt lat="46.33121432244926" lon="9.493681045885626"><ele>634.0</ele><time>2026-05-02T10:22:05Z</time></trkpt><trkpt lat="46.331197951865775" lon="9.493474832369126"><ele>633.5</ele><time>2026-05-02T10:22:06Z</time></trkpt><trkpt lat="46.33116861095218" lon="9.493290309952886"><ele>633.0</ele><time>2026-05-02T10:22:07Z</time></trkpt><trkpt lat="46.331180267862315" lon="9.493086979466462"><ele>632.5</ele><time>2026-05-02T10:22:08Z</time></trkpt><trkpt lat="46.33121313755401" lon="9.492880002100884"><ele>632.0</ele><time>2026-05-02T10:22:09Z</time></trkpt><trkpt lat="46.33126192932487" lon="9.492695890802349"><ele>631.5</ele><time>2026-05-02T10:22:10Z</time></trkpt><trkpt lat="46.33131844867043" lon="9.492521917854033"><ele>631.0</ele><time>2026-05-02T10:22:11Z</time></trkpt><trkpt lat="46.33135086984964" lon="9.492354654755918"><ele>630.5</ele><time>2026-05-02T10:22:12Z</time></trkpt><trkpt lat="46.33138884596755" lon="9.49219490737846"><ele>630.0</ele><time>2026-05-02T10:22:13Z</time></trkpt><trkpt lat="46.331417005226754" lon="9.492041211124535"><ele>631.75</ele><time>2026-05-02T10:22:14Z</time></trkpt><trkpt lat="46.33142791823097" lon="9.491884099237058"><ele>633.5</ele><time>2026-05-02T10:22:15Z</time></trkpt><trkpt lat="46.33141446118071" lon="9.491715162863912"><ele>635.25</ele><time>2026-05-02T10:22:16Z</time></trkpt><trkpt lat="46.33136181205361" lon="9.491546442439452"><ele>637.0</ele><time>2026-05-02T10:22:17Z</time></trkpt><trkpt lat="46.331272093575095" lon="9.491403160623507"><ele>637.0</ele><time>2026-05-02T10:22:18Z</time></trkpt><trkpt lat="46.33114998656189" lon="9.491291298176153"><ele>637.0</ele><time>2026-05-02T10:22:19Z</time></trkpt><trkpt lat="46.33099926279336" lon="9.491236047200097"><ele>637.0</ele><time>2026-05-02T10:22:20Z</time></trkpt><trkpt lat="46.33086589814747" lon="9.491188001130794"><ele>637.0</ele><time>2026-05-02T10:22:21Z</time></trkpt><trkpt lat="46.33074620830964" lon="9.491143803626526"><ele>639.25</ele><time>2026-05-02T10:22:22Z</time></trkpt><trkpt lat="46.33063212265763" lon="9.491079970555175"><ele>641.5</ele><time>2026-05-02T10:22:23Z</time></trkpt><trkpt lat="46.330524203051205" lon="9.490998897638601"><ele>643.75</ele><time>2026-05-02T10:22:23.999Z</time></trkpt><trkpt lat="46.33042827444699" lon="9.490894791687682"><ele>646.0</ele><time>2026-05-02T10:22:24.999Z</time></trkpt><trkpt lat="46.33035930008928" lon="9.490748868292995"><ele>641.0</ele><time>2026-05-02T10:22:25.999Z</time></trkpt><trkpt lat="46.330305123356155" lon="9.490608658566423"><ele>636.0</ele><time>2026-05-02T10:22:26.999Z</time></trkpt><trkpt lat="46.33028419932202" lon="9.490455539499402"><ele>631.0</ele><time>2026-05-02T10:22:27.999Z</time></trkpt><trkpt lat="46.33029314350704" lon="9.490280855256994"><ele>626.0</ele><time>2026-05-02T10:22:28.999Z</time></trkpt><trkpt lat="46.330307348753806" lon="9.490098141654878"><ele>625.8</ele><time>2026-05-02T10:22:29.999Z</time></trkpt><trkpt lat="46.330322943915554" lon="9.489954382994032"><ele>625.6</ele><time>2026-05-02T10:22:30.999Z</time></trkpt><trkpt lat="46.330315053574225" lon="9.489795448481788"><ele>625.4</ele><time>2026-05-02T10:22:31.999Z</time></trkpt><trkpt lat="46.33035187321245" lon="9.48964515475995"><ele>625.2</ele><time>2026-05-02T10:22:32.999Z</time></trkpt><trkpt lat="46.33037209479374" lon="9.489515298254073"><ele>625.0</ele><time>2026-05-02T10:22:33.999Z</time></trkpt><trkpt lat="46.33039586651561" lon="9.489369167441806"><ele>624.3333333333334</ele><time>2026-05-02T10:22:34.999Z</time></trkpt><trkpt lat="46.33043458749578" lon="9.489229428083592"><ele>623.6666666666667</ele><time>2026-05-02T10:22:35.999Z</time></trkpt><trkpt lat="46.330474726528124" lon="9.489101445772238"><ele>623.0</ele><time>2026-05-02T10:22:36.999Z</time></trkpt><trkpt lat="46.33049500172679" lon="9.488996351998114"><ele>622.3333333333334</ele><time>2026-05-02T10:22:37.999Z</time></trkpt><trkpt lat="46.33053329683278" lon="9.48888731368283"><ele>621.6666666666666</ele><time>2026-05-02T10:22:38.999Z</time></trkpt><trkpt lat="46.33057274479595" lon="9.48878262336048"><ele>621.0</ele><time>2026-05-02T10:22:39.999Z</time></trkpt><trkpt lat="46.3306236983248" lon="9.488680626153334"><ele>623.3333333333334</ele><time>2026-05-02T10:22:40.999Z</time></trkpt><trkpt lat="46.33067670148545" lon="9.488602342349424"><ele>625.6666666666666</ele><time>2026-05-02T10:22:41.999Z</time></trkpt><trkpt lat="46.33071105381179" lon="9.488505236583556"><ele>628.0</ele><time>2026-05-02T10:22:42.999Z</time></trkpt><trkpt lat="46.33072636340503" lon="9.488393699238431"><ele>630.3333333333333</ele><time>2026-05-02T10:22:43.999Z</time></trkpt><trkpt lat="46.33075810554402" lon="9.4882135921757"><ele>632.6666666666666</ele><time>2026-05-02T10:22:45.999Z</time></trkpt><trkpt lat="46.330787318967566" lon="9.488123839553191"><ele>635.0</ele><time>2026-05-02T10:22:46.999Z</time></trkpt><trkpt lat="46.33082089607894" lon="9.48801366185222"><ele>633.1666666666666</ele><time>2026-05-02T10:22:47.999Z</time></trkpt><trkpt lat="46.33086628732592" lon="9.487904181363072"><ele>631.3333333333333</ele><time>2026-05-02T10:22:48.999Z</time></trkpt><trkpt lat="46.33090007801735" lon="9.48779067570615"><ele>629.5</ele><time>2026-05-02T10:22:49.999Z</time></trkpt><trkpt lat="46.330944569624926" lon="9.487678427522885"><ele>627.6666666666666</ele><time>2026-05-02T10:22:50.999Z</time></trkpt><trkpt lat="46.33098478659391" lon="9.48755703199971"><ele>625.8333333333334</ele><time>2026-05-02T10:22:51.999Z</time></trkpt><trkpt lat="46.33102226905064" lon="9.487452030225011"><ele>624.0</ele><time>2026-05-02T10:22:52.999Z</time></trkpt><trkpt lat="46.331046591886256" lon="9.487341671755186"><ele>624.0</ele><time>2026-05-02T10:22:53.999Z</time></trkpt><trkpt lat="46.331041270216964" lon="9.487226348437266"><ele>624.0</ele><time>2026-05-02T10:22:54.999Z</time></trkpt><trkpt lat="46.331012765760825" lon="9.487054102494497"><ele>624.0</ele><time>2026-05-02T10:22:56.999Z</time></trkpt><trkpt lat="46.33100349773492" lon="9.486954494113105"><ele>624.0</ele><time>2026-05-02T10:22:57.999Z</time></trkpt><trkpt lat="46.330975285491846" lon="9.48685386320846"><ele>624.0</ele><time>2026-05-02T10:22:58.999Z</time></trkpt><trkpt lat="46.330891822428" lon="9.48678603819663"><ele>624.0</ele><time>2026-05-02T10:22:59.999Z</time></trkpt><trkpt lat="46.33078922996949" lon="9.486724571310944"><ele>625.5</ele><time>2026-05-02T10:23:00.999Z</time></trkpt><trkpt lat="46.33070245469426" lon="9.486620911174843"><ele>627.0</ele><time>2026-05-02T10:23:01.999Z</time></trkpt><trkpt lat="46.33060746189099" lon="9.486484024243692"><ele>628.5</ele><time>2026-05-02T10:23:02.999Z</time></trkpt><trkpt lat="46.33052856219627" lon="9.486344230823454"><ele>630.0</ele><time>2026-05-02T10:23:03.999Z</time></trkpt><trkpt lat="46.330453456948476" lon="9.4861834708126"><ele>625.0</ele><time>2026-05-02T10:23:04.999Z</time></trkpt><trkpt lat="46.330389144079746" lon="9.486020113557656"><ele>620.0</ele><time>2026-05-02T10:23:05.999Z</time></trkpt><trkpt lat="46.330334538182626" lon="9.485854495940261"><ele>615.0</ele><time>2026-05-02T10:23:06.999Z</time></trkpt><trkpt lat="46.3303116146366" lon="9.485651981737542"><ele>610.0</ele><time>2026-05-02T10:23:07.999Z</time></trkpt><trkpt lat="46.33025396059165" lon="9.485498338723705"><ele>613.25</ele><time>2026-05-02T10:23:08.999Z</time></trkpt><trkpt lat="46.33020663787286" lon="9.48533005723911"><ele>616.5</ele><time>2026-05-02T10:23:09.999Z</time></trkpt><trkpt lat="46.33019381089479" lon="9.4851627309466"><ele>619.75</ele><time>2026-05-02T10:23:10.999Z</time></trkpt><trkpt lat="46.33019215962858" lon="9.484996579317672"><ele>623.0</ele><time>2026-05-02T10:23:11.999Z</time></trkpt><trkpt lat="46.33019623575533" lon="9.484847122299302"><ele>623.0</ele><time>2026-05-02T10:23:12.999Z</time></trkpt><trkpt lat="46.33019281793798" lon="9.48471163259965"><ele>623.0</ele><time>2026-05-02T10:23:13.999Z</time></trkpt><trkpt lat="46.330144920433604" lon="9.484603450703263"><ele>623.0</ele><time>2026-05-02T10:23:14.999Z</time></trkpt><trkpt lat="46.330068197243236" lon="9.484494088060528"><ele>623.0</ele><time>2026-05-02T10:23:15.999Z</time></trkpt><trkpt lat="46.32999041266535" lon="9.48441079192041"><ele>623.0</ele><time>2026-05-02T10:23:16.999Z</time></trkpt><trkpt lat="46.32990808997876" lon="9.484331783332188"><ele>624.0</ele><time>2026-05-02T10:23:17.999Z</time></trkpt><trkpt lat="46.32982872376898" lon="9.484258322083692"><ele>625.0</ele><time>2026-05-02T10:23:18.999Z</time></trkpt><trkpt lat="46.32975485621212" lon="9.484183446143588"><ele>626.0</ele><time>2026-05-02T10:23:19.999Z</time></trkpt><trkpt lat="46.32968618024422" lon="9.484113269269166"><ele>627.0</ele><time>2026-05-02T10:23:20.999Z</time></trkpt><trkpt lat="46.329628750987034" lon="9.484026528174866"><ele>628.0</ele><time>2026-05-02T10:23:21.999Z</time></trkpt><trkpt lat="46.3295942654323" lon="9.483841816077275"><ele>626.3333333333334</ele><time>2026-05-02T10:23:23.999Z</time></trkpt><trkpt lat="46.32962788653692" lon="9.48374777400461"><ele>624.6666666666667</ele><time>2026-05-02T10:23:24.999Z</time></trkpt><trkpt lat="46.329665511375445" lon="9.483657510565944"><ele>623.0</ele><time>2026-05-02T10:23:25.999Z</time></trkpt><trkpt lat="46.32970409280585" lon="9.483571969944933"><ele>621.3333333333334</ele><time>2026-05-02T10:23:26.999Z</time></trkpt><trkpt lat="46.32976759076676" lon="9.483491425813549"><ele>619.6666666666666</ele><time>2026-05-02T10:23:27.999Z</time></trkpt><trkpt lat="46.32986258960706" lon="9.483500116773365"><ele>618.0</ele><time>2026-05-02T10:23:28.999Z</time></trkpt><trkpt lat="46.32995116332244" lon="9.483459938514399"><ele>618.0</ele><time>2026-05-02T10:23:29.999Z</time></trkpt><trkpt lat="46.3300204100444" lon="9.48347558066914"><ele>618.0</ele><time>2026-05-02T10:23:30.999Z</time></trkpt><trkpt lat="46.33011903575637" lon="9.483455304390882"><ele>618.0</ele><time>2026-05-02T10:23:31.999Z</time></trkpt><trkpt lat="46.33020255336291" lon="9.483442407000672"><ele>618.0</ele><time>2026-05-02T10:23:32.999Z</time></trkpt><trkpt lat="46.3302862501372" lon="9.483395894356251"><ele>618.0</ele><time>2026-05-02T10:23:33.999Z</time></trkpt><trkpt lat="46.3303654939864" lon="9.483389789761436"><ele>618.0</ele><time>2026-05-02T10:23:34.999Z</time></trkpt><trkpt lat="46.330441472030266" lon="9.483335450249811"><ele>618.0</ele><time>2026-05-02T10:23:35.999Z</time></trkpt><trkpt lat="46.3305239773349" lon="9.483245949661011"><ele>618.0</ele><time>2026-05-02T10:23:36.999Z</time></trkpt><trkpt lat="46.33060127552991" lon="9.48313050078474"><ele>618.0</ele><time>2026-05-02T10:23:37.999Z</time></trkpt><trkpt lat="46.33066168167844" lon="9.483002731218704"><ele>618.0</ele><time>2026-05-02T10:23:38.999Z</time></trkpt><trkpt lat="46.33072624612933" lon="9.48290212533781"><ele>618.0</ele><time>2026-05-02T10:23:39.999Z</time></trkpt><trkpt lat="46.33080735710753" lon="9.482777980803496"><ele>618.0</ele><time>2026-05-02T10:23:40.999Z</time></trkpt><trkpt lat="46.330900933793714" lon="9.482659664433276"><ele>618.0</ele><time>2026-05-02T10:23:41.999Z</time></trkpt><trkpt lat="46.330965693781025" lon="9.482550811923607"><ele>618.0</ele><time>2026-05-02T10:23:42.999Z</time></trkpt><trkpt lat="46.33101897169549" lon="9.482468909892345"><ele>618.0</ele><time>2026-05-02T10:23:43.999Z</time></trkpt><trkpt lat="46.33104428016407" lon="9.482375295369568"><ele>618.0</ele><time>2026-05-02T10:23:44.999Z</time></trkpt><trkpt lat="46.331053780846204" lon="9.482283564960406"><ele>618.0</ele><time>2026-05-02T10:23:45.999Z</time></trkpt><trkpt lat="46.33106007312065" lon="9.482186949635654"><ele>617.3333333333334</ele><time>2026-05-02T10:23:47Z</time></trkpt><trkpt lat="46.331072983487594" lon="9.482081017653973"><ele>616.6666666666666</ele><time>2026-05-02T10:23:48Z</time></trkpt><trkpt lat="46.331058966130215" lon="9.481990899739653"><ele>616.0</ele><time>2026-05-02T10:23:49Z</time></trkpt><trkpt lat="46.33102894467603" lon="9.481886788366287"><ele>615.3333333333333</ele><time>2026-05-02T10:23:50Z</time></trkpt><trkpt lat="46.330995637904614" lon="9.48175472171014"><ele>614.6666666666666</ele><time>2026-05-02T10:23:51Z</time></trkpt><trkpt lat="46.33093450344038" lon="9.481639195963977"><ele>614.0</ele><time>2026-05-02T10:23:52Z</time></trkpt><trkpt lat="46.33088469506354" lon="9.481521355587509"><ele>614.0</ele><time>2026-05-02T10:23:53Z</time></trkpt><trkpt lat="46.33084509560794" lon="9.481400423739332"><ele>614.0</ele><time>2026-05-02T10:23:54Z</time></trkpt><trkpt lat="46.33079738825711" lon="9.481285932205825"><ele>614.0</ele><time>2026-05-02T10:23:55Z</time></trkpt><trkpt lat="46.33073740602789" lon="9.48115121378527"><ele>614.0</ele><time>2026-05-02T10:23:56Z</time></trkpt><trkpt lat="46.330691818862526" lon="9.480998533134935"><ele>614.0</ele><time>2026-05-02T10:23:57Z</time></trkpt><trkpt lat="46.33063978080145" lon="9.480861885195786"><ele>615.0</ele><time>2026-05-02T10:23:58Z</time></trkpt><trkpt lat="46.33058597644703" lon="9.480720555443572"><ele>616.0</ele><time>2026-05-02T10:23:59Z</time></trkpt><trkpt lat="46.33053055599043" lon="9.480574980486484"><ele>617.0</ele><time>2026-05-02T10:24:00Z</time></trkpt><trkpt lat="46.3304656540972" lon="9.480404500336"><ele>618.0</ele><time>2026-05-02T10:24:01Z</time></trkpt><trkpt lat="46.330393692756246" lon="9.480215556602385"><ele>615.6666666666666</ele><time>2026-05-02T10:24:02Z</time></trkpt><trkpt lat="46.33032349124504" lon="9.480031924133215"><ele>613.3333333333333</ele><time>2026-05-02T10:24:03Z</time></trkpt><trkpt lat="46.330255239470894" lon="9.479853391799098"><ele>611.0</ele><time>2026-05-02T10:24:04Z</time></trkpt><trkpt lat="46.330153525930555" lon="9.479587330460957"><ele>611.0</ele><time>2026-05-02T10:24:05Z</time></trkpt><trkpt lat="46.330034974421245" lon="9.479277224518457"><ele>611.0</ele><time>2026-05-02T10:24:06Z</time></trkpt><trkpt lat="46.32995543523684" lon="9.479063122362662"><ele>611.0</ele><time>2026-05-02T10:24:08Z</time></trkpt><trkpt lat="46.329891033882745" lon="9.47888200357561"><ele>613.25</ele><time>2026-05-02T10:24:09Z</time></trkpt><trkpt lat="46.3298164565346" lon="9.47869798722066"><ele>615.5</ele><time>2026-05-02T10:24:10Z</time></trkpt><trkpt lat="46.32974077454642" lon="9.47851992793789"><ele>617.75</ele><time>2026-05-02T10:24:11Z</time></trkpt><trkpt lat="46.329664078383644" lon="9.478369841148632"><ele>620.0</ele><time>2026-05-02T10:24:12Z</time></trkpt><trkpt lat="46.32958010766065" lon="9.478231982453606"><ele>617.0</ele><time>2026-05-02T10:24:13Z</time></trkpt><trkpt lat="46.329474795600596" lon="9.47809876884226"><ele>614.0</ele><time>2026-05-02T10:24:14Z</time></trkpt><trkpt lat="46.3293769007269" lon="9.477981220285523"><ele>611.0</ele><time>2026-05-02T10:24:15Z</time></trkpt><trkpt lat="46.329284942286876" lon="9.477856014170605"><ele>608.0</ele><time>2026-05-02T10:24:16Z</time></trkpt><trkpt lat="46.32918914192207" lon="9.477724663791452"><ele>608.0</ele><time>2026-05-02T10:24:17Z</time></trkpt><trkpt lat="46.32908660298588" lon="9.477594495249582"><ele>608.0</ele><time>2026-05-02T10:24:18Z</time></trkpt><trkpt lat="46.328995705576126" lon="9.47744870588053"><ele>608.0</ele><time>2026-05-02T10:24:19Z</time></trkpt><trkpt lat="46.32892332566471" lon="9.477289494660742"><ele>608.0</ele><time>2026-05-02T10:24:20Z</time></trkpt><trkpt lat="46.32886712376433" lon="9.477098239796955"><ele>602.75</ele><time>2026-05-02T10:24:21Z</time></trkpt><trkpt lat="46.32880559817971" lon="9.476907087879937"><ele>597.5</ele><time>2026-05-02T10:24:22Z</time></trkpt><trkpt lat="46.328753755911805" lon="9.476706751837535"><ele>592.25</ele><time>2026-05-02T10:24:23Z</time></trkpt><trkpt lat="46.32870843770642" lon="9.476518636290859"><ele>587.0</ele><time>2026-05-02T10:24:24Z</time></trkpt><trkpt lat="46.32867706421191" lon="9.47634981335317"><ele>586.8000000000001</ele><time>2026-05-02T10:24:25Z</time></trkpt><trkpt lat="46.32865305375106" lon="9.4761862123096"><ele>586.6</ele><time>2026-05-02T10:24:26Z</time></trkpt><trkpt lat="46.3286200105591" lon="9.47602027381664"><ele>586.4000000000001</ele><time>2026-05-02T10:24:27Z</time></trkpt><trkpt lat="46.32859002324023" lon="9.475874404440612"><ele>586.2</ele><time>2026-05-02T10:24:28Z</time></trkpt><trkpt lat="46.32856550598406" lon="9.475731013005676"><ele>586.0</ele><time>2026-05-02T10:24:29Z</time></trkpt><trkpt lat="46.32855974151818" lon="9.475630996989834"><ele>586.0</ele><time>2026-05-02T10:24:30Z</time></trkpt><trkpt lat="46.32853901010839" lon="9.47551480085115"><ele>586.0</ele><time>2026-05-02T10:24:31Z</time></trkpt><trkpt lat="46.32851079415487" lon="9.475397798324918"><ele>586.0</ele><time>2026-05-02T10:24:32Z</time></trkpt><trkpt lat="46.32850222794365" lon="9.47530597119366"><ele>586.0</ele><time>2026-05-02T10:24:33Z</time></trkpt><trkpt lat="46.32848851352905" lon="9.475203270174617"><ele>586.0</ele><time>2026-05-02T10:24:33.999Z</time></trkpt><trkpt lat="46.32847657015948" lon="9.47510289162366"><ele>586.0</ele><time>2026-05-02T10:24:34.999Z</time></trkpt><trkpt lat="46.32847511675588" lon="9.474994228949184"><ele>585.6</ele><time>2026-05-02T10:24:35.999Z</time></trkpt><trkpt lat="46.32847185810845" lon="9.474862158911332"><ele>585.2</ele><time>2026-05-02T10:24:36.999Z</time></trkpt><trkpt lat="46.328473062695686" lon="9.47472323515941"><ele>584.8</ele><time>2026-05-02T10:24:37.999Z</time></trkpt><trkpt lat="46.328493838365965" lon="9.474598856853783"><ele>584.4</ele><time>2026-05-02T10:24:38.999Z</time></trkpt><trkpt lat="46.32850382817514" lon="9.474464629730102"><ele>584.0</ele><time>2026-05-02T10:24:39.999Z</time></trkpt><trkpt lat="46.3285379183589" lon="9.47433511654642"><ele>582.6</ele><time>2026-05-02T10:24:40.999Z</time></trkpt><trkpt lat="46.32856282130366" lon="9.474189532573789"><ele>581.2</ele><time>2026-05-02T10:24:41.999Z</time></trkpt><trkpt lat="46.32858561444864" lon="9.47403914503587"><ele>579.8000000000001</ele><time>2026-05-02T10:24:42.999Z</time></trkpt><trkpt lat="46.32859425513796" lon="9.473862050445721"><ele>578.4</ele><time>2026-05-02T10:24:43.999Z</time></trkpt><trkpt lat="46.32858405009651" lon="9.473702285726919"><ele>577.0</ele><time>2026-05-02T10:24:44.999Z</time></trkpt><trkpt lat="46.32856189141981" lon="9.473530484009812"><ele>575.6666666666667</ele><time>2026-05-02T10:24:45.999Z</time></trkpt><trkpt lat="46.3285521709722" lon="9.473276941625361"><ele>574.3333333333334</ele><time>2026-05-02T10:24:46.999Z</time></trkpt><trkpt lat="46.32854879494575" lon="9.47304762164054"><ele>573.0</ele><time>2026-05-02T10:24:47.999Z</time></trkpt><trkpt lat="46.328537444545915" lon="9.472819462039157"><ele>573.0</ele><time>2026-05-02T10:24:48.999Z</time></trkpt><trkpt lat="46.328524558348875" lon="9.47258977387009"><ele>573.0</ele><time>2026-05-02T10:24:49.999Z</time></trkpt><trkpt lat="46.328510725984266" lon="9.472382147640012"><ele>573.0</ele><time>2026-05-02T10:24:50.999Z</time></trkpt><trkpt lat="46.32849823810293" lon="9.47217051523752"><ele>575.0</ele><time>2026-05-02T10:24:51.999Z</time></trkpt><trkpt lat="46.32843061420653" lon="9.471987392492238"><ele>577.0</ele><time>2026-05-02T10:24:52.999Z</time></trkpt><trkpt lat="46.328340686292556" lon="9.471762479447923"><ele>579.0</ele><time>2026-05-02T10:24:53.999Z</time></trkpt><trkpt lat="46.328254540104865" lon="9.471458890754135"><ele>580.6666666666666</ele><time>2026-05-02T10:24:54.999Z</time></trkpt><trkpt lat="46.32816931429235" lon="9.471251956682934"><ele>582.3333333333333</ele><time>2026-05-02T10:24:55.999Z</time></trkpt><trkpt lat="46.32803096059967" lon="9.47098870222135"><ele>584.0</ele><time>2026-05-02T10:24:56.999Z</time></trkpt><trkpt lat="46.3279378789542" lon="9.470732313593398"><ele>572.3333333333333</ele><time>2026-05-02T10:24:57.999Z</time></trkpt><trkpt lat="46.32782679356685" lon="9.470495713122006"><ele>560.6666666666666</ele><time>2026-05-02T10:24:58.999Z</time></trkpt><trkpt lat="46.32774773095472" lon="9.470247360620322"><ele>549.0</ele><time>2026-05-02T10:24:59.999Z</time></trkpt><trkpt lat="46.327727766011975" lon="9.470007112589867"><ele>548.0</ele><time>2026-05-02T10:25:00.999Z</time></trkpt><trkpt lat="46.32771792114248" lon="9.469763863830202"><ele>547.0</ele><time>2026-05-02T10:25:01.999Z</time></trkpt><trkpt lat="46.32776380084511" lon="9.469522065393118"><ele>546.0</ele><time>2026-05-02T10:25:02.999Z</time></trkpt><trkpt lat="46.32783115776571" lon="9.469250123922365"><ele>545.3333333333334</ele><time>2026-05-02T10:25:03.999Z</time></trkpt><trkpt lat="46.32789889898902" lon="9.469018982301142"><ele>544.6666666666667</ele><time>2026-05-02T10:25:04.999Z</time></trkpt><trkpt lat="46.3279491595686" lon="9.468804232385379"><ele>544.0</ele><time>2026-05-02T10:25:05.999Z</time></trkpt><trkpt lat="46.32793016464484" lon="9.468561120402395"><ele>544.0</ele><time>2026-05-02T10:25:06.999Z</time></trkpt><trkpt lat="46.32787235486677" lon="9.468293866066299"><ele>544.0</ele><time>2026-05-02T10:25:07.999Z</time></trkpt><trkpt lat="46.32778592185839" lon="9.468063579417043"><ele>544.0</ele><time>2026-05-02T10:25:08.999Z</time></trkpt><trkpt lat="46.32773285808775" lon="9.467837482245033"><ele>544.0</ele><time>2026-05-02T10:25:09.999Z</time></trkpt><trkpt lat="46.32774099407751" lon="9.467597352475188"><ele>544.0</ele><time>2026-05-02T10:25:10.999Z</time></trkpt><trkpt lat="46.32776963516243" lon="9.46734205630165"><ele>544.0</ele><time>2026-05-02T10:25:11.999Z</time></trkpt><trkpt lat="46.32779344983292" lon="9.467113979694483"><ele>543.3333333333334</ele><time>2026-05-02T10:25:12.999Z</time></trkpt><trkpt lat="46.32781642097486" lon="9.46687996436525"><ele>542.6666666666666</ele><time>2026-05-02T10:25:13.999Z</time></trkpt><trkpt lat="46.327820776260175" lon="9.46664973080565"><ele>542.0</ele><time>2026-05-02T10:25:14.999Z</time></trkpt><trkpt lat="46.32781515430533" lon="9.46643278450116"><ele>542.0</ele><time>2026-05-02T10:25:15.999Z</time></trkpt><trkpt lat="46.327796777861046" lon="9.466288959394285"><ele>542.0</ele><time>2026-05-02T10:25:16.999Z</time></trkpt><trkpt lat="46.3277561092575" lon="9.466119698694179"><ele>542.0</ele><time>2026-05-02T10:25:17.999Z</time></trkpt><trkpt lat="46.327707446669066" lon="9.46585465222826"><ele>542.0</ele><time>2026-05-02T10:25:18.999Z</time></trkpt><trkpt lat="46.327654415273095" lon="9.465638760449025"><ele>543.5</ele><time>2026-05-02T10:25:19.999Z</time></trkpt><trkpt lat="46.32759921720498" lon="9.46544556977706"><ele>545.0</ele><time>2026-05-02T10:25:20.999Z</time></trkpt><trkpt lat="46.32752009902723" lon="9.465275449685532"><ele>546.5</ele><time>2026-05-02T10:25:21.999Z</time></trkpt><trkpt lat="46.32743364971678" lon="9.465096854924267"><ele>548.0</ele><time>2026-05-02T10:25:22.999Z</time></trkpt><trkpt lat="46.32734813229141" lon="9.46495822072617"><ele>550.0</ele><time>2026-05-02T10:25:23.999Z</time></trkpt><trkpt lat="46.32724717000905" lon="9.464801513777916"><ele>552.0</ele><time>2026-05-02T10:25:24.999Z</time></trkpt><trkpt lat="46.32712229082286" lon="9.464677870200383"><ele>554.0</ele><time>2026-05-02T10:25:25.999Z</time></trkpt><trkpt lat="46.327002390069495" lon="9.464570988641832"><ele>556.0</ele><time>2026-05-02T10:25:26.999Z</time></trkpt><trkpt lat="46.3269017024184" lon="9.46447293960313"><ele>552.0</ele><time>2026-05-02T10:25:27.999Z</time></trkpt><trkpt lat="46.32679656283654" lon="9.464363989298946"><ele>548.0</ele><time>2026-05-02T10:25:28.999Z</time></trkpt><trkpt lat="46.32671301525374" lon="9.4642210434517"><ele>544.0</ele><time>2026-05-02T10:25:29.999Z</time></trkpt><trkpt lat="46.32665045938722" lon="9.46404316702649"><ele>540.0</ele><time>2026-05-02T10:25:30.999Z</time></trkpt><trkpt lat="46.32659447870962" lon="9.463869868230093"><ele>540.0</ele><time>2026-05-02T10:25:31.999Z</time></trkpt><trkpt lat="46.32656432238153" lon="9.463685837453058"><ele>540.0</ele><time>2026-05-02T10:25:32.999Z</time></trkpt><trkpt lat="46.32654399655808" lon="9.463520221541074"><ele>540.0</ele><time>2026-05-02T10:25:33.999Z</time></trkpt><trkpt lat="46.32654755008682" lon="9.463349754049165"><ele>540.0</ele><time>2026-05-02T10:25:34.999Z</time></trkpt><trkpt lat="46.32659539091755" lon="9.463158790106082"><ele>540.0</ele><time>2026-05-02T10:25:35.999Z</time></trkpt><trkpt lat="46.32664536088329" lon="9.46296120629499"><ele>540.0</ele><time>2026-05-02T10:25:36.999Z</time></trkpt><trkpt lat="46.32668142555014" lon="9.462781244882958"><ele>540.0</ele><time>2026-05-02T10:25:37.999Z</time></trkpt><trkpt lat="46.32672915608393" lon="9.46261131583226"><ele>540.0</ele><time>2026-05-02T10:25:38.999Z</time></trkpt><trkpt lat="46.32676613101937" lon="9.462431460652867"><ele>538.0</ele><time>2026-05-02T10:25:39.999Z</time></trkpt><trkpt lat="46.326801069914794" lon="9.46224477745527"><ele>536.0</ele><time>2026-05-02T10:25:40.999Z</time></trkpt><trkpt lat="46.32682175697797" lon="9.46205765136051"><ele>534.0</ele><time>2026-05-02T10:25:41.999Z</time></trkpt><trkpt lat="46.32680792579153" lon="9.461855135905987"><ele>532.0</ele><time>2026-05-02T10:25:42.999Z</time></trkpt><trkpt lat="46.32675682258539" lon="9.461626582543097"><ele>531.6666666666667</ele><time>2026-05-02T10:25:43.999Z</time></trkpt><trkpt lat="46.32669051189748" lon="9.461368984337623"><ele>531.3333333333334</ele><time>2026-05-02T10:25:44.999Z</time></trkpt><trkpt lat="46.32659862263766" lon="9.461084366887619"><ele>531.0</ele><time>2026-05-02T10:25:45.999Z</time></trkpt><trkpt lat="46.32650910437403" lon="9.460805643564061"><ele>531.0</ele><time>2026-05-02T10:25:46.999Z</time></trkpt><trkpt lat="46.3264143121517" lon="9.460520039894769"><ele>531.0</ele><time>2026-05-02T10:25:47.999Z</time></trkpt><trkpt lat="46.326337712302774" lon="9.460275721791344"><ele>531.0</ele><time>2026-05-02T10:25:48.999Z</time></trkpt><trkpt lat="46.32631246572222" lon="9.460012742012042"><ele>525.3333333333334</ele><time>2026-05-02T10:25:49.999Z</time></trkpt><trkpt lat="46.3262981574365" lon="9.459773643786264"><ele>519.6666666666667</ele><time>2026-05-02T10:25:50.999Z</time></trkpt><trkpt lat="46.326283326544946" lon="9.459538824285497"><ele>514.0</ele><time>2026-05-02T10:25:51.999Z</time></trkpt><trkpt lat="46.32629110589271" lon="9.459318053692169"><ele>514.25</ele><time>2026-05-02T10:25:53Z</time></trkpt><trkpt lat="46.326308239880085" lon="9.459139373369867"><ele>514.5</ele><time>2026-05-02T10:25:54Z</time></trkpt><trkpt lat="46.326313135244455" lon="9.458951324088153"><ele>514.75</ele><time>2026-05-02T10:25:55Z</time></trkpt><trkpt lat="46.32628303278912" lon="9.458811504069793"><ele>515.0</ele><time>2026-05-02T10:25:56Z</time></trkpt><trkpt lat="46.326208443744" lon="9.458667768120975"><ele>515.0</ele><time>2026-05-02T10:25:57Z</time></trkpt><trkpt lat="46.32614057879076" lon="9.458539405821359"><ele>515.0</ele><time>2026-05-02T10:25:58Z</time></trkpt><trkpt lat="46.3260405810694" lon="9.458464086629563"><ele>515.0</ele><time>2026-05-02T10:25:59Z</time></trkpt><trkpt lat="46.32595753653736" lon="9.45838681753628"><ele>515.0</ele><time>2026-05-02T10:26:00Z</time></trkpt><trkpt lat="46.32586840953001" lon="9.458325249320149"><ele>515.0</ele><time>2026-05-02T10:26:01Z</time></trkpt><trkpt lat="46.32579298997454" lon="9.4582325978012"><ele>515.0</ele><time>2026-05-02T10:26:02Z</time></trkpt><trkpt lat="46.325730588374405" lon="9.458144638075934"><ele>515.0</ele><time>2026-05-02T10:26:03Z</time></trkpt><trkpt lat="46.325675954386746" lon="9.458049870951719"><ele>515.0</ele><time>2026-05-02T10:26:04Z</time></trkpt><trkpt lat="46.32563934221496" lon="9.457965873463134"><ele>515.0</ele><time>2026-05-02T10:26:05Z</time></trkpt><trkpt lat="46.32556777449424" lon="9.4578476566529"><ele>515.0</ele><time>2026-05-02T10:26:07Z</time></trkpt><trkpt lat="46.32545096700348" lon="9.45793540857899"><ele>513.2</ele><time>2026-05-02T10:26:10Z</time></trkpt><trkpt lat="46.325329321266615" lon="9.457976396672466"><ele>511.4</ele><time>2026-05-02T10:26:12Z</time></trkpt><trkpt lat="46.32521640776373" lon="9.458013231281893"><ele>509.6</ele><time>2026-05-02T10:26:14Z</time></trkpt><trkpt lat="46.32514955486322" lon="9.45802840877637"><ele>507.8</ele><time>2026-05-02T10:26:15Z</time></trkpt><trkpt lat="46.325053277268374" lon="9.458060032115204"><ele>506.0</ele><time>2026-05-02T10:26:17Z</time></trkpt><trkpt lat="46.32498174845498" lon="9.45809757070698"><ele>506.0</ele><time>2026-05-02T10:26:20Z</time></trkpt><trkpt lat="46.324915365869956" lon="9.458217605037808"><ele>506.0</ele><time>2026-05-02T10:26:23Z</time></trkpt><trkpt lat="46.324866700697925" lon="9.458373161364195"><ele>506.0</ele><time>2026-05-02T10:26:25Z</time></trkpt><trkpt lat="46.32489285024815" lon="9.458513456678633"><ele>506.0</ele><time>2026-05-02T10:26:26Z</time></trkpt><trkpt lat="46.32491014803001" lon="9.458635141613785"><ele>506.0</ele><time>2026-05-02T10:26:27Z</time></trkpt><trkpt lat="46.32493478961376" lon="9.45873236944786"><ele>507.6</ele><time>2026-05-02T10:26:28Z</time></trkpt><trkpt lat="46.32494520047134" lon="9.458885990224069"><ele>509.20000000000005</ele><time>2026-05-02T10:26:30Z</time></trkpt><trkpt lat="46.32496626758405" lon="9.458995909544985"><ele>510.79999999999995</ele><time>2026-05-02T10:26:32Z</time></trkpt><trkpt lat="46.32499023274583" lon="9.459103363278594"><ele>512.4</ele><time>2026-05-02T10:26:34Z</time></trkpt><trkpt lat="46.325019759303125" lon="9.45923125727168"><ele>514.0</ele><time>2026-05-02T10:26:36Z</time></trkpt><trkpt lat="46.325043593296904" lon="9.45936359108733"><ele>514.0</ele><time>2026-05-02T10:26:38Z</time></trkpt><trkpt lat="46.32506273909101" lon="9.459488474197444"><ele>514.0</ele><time>2026-05-02T10:26:39.999Z</time></trkpt><trkpt lat="46.32509083768894" lon="9.459623562788932"><ele>514.0</ele><time>2026-05-02T10:26:41.999Z</time></trkpt><trkpt lat="46.325086214860846" lon="9.45975942122728"><ele>514.0</ele><time>2026-05-02T10:26:43.999Z</time></trkpt><trkpt lat="46.32504505662782" lon="9.459906248582035"><ele>514.0</ele><time>2026-05-02T10:26:45.999Z</time></trkpt><trkpt lat="46.32497778277732" lon="9.460022556273113"><ele>515.8333333333334</ele><time>2026-05-02T10:26:47.999Z</time></trkpt><trkpt lat="46.3249305495122" lon="9.460135001895882"><ele>517.6666666666667</ele><time>2026-05-02T10:26:49.999Z</time></trkpt><trkpt lat="46.324882334788576" lon="9.460237315588909"><ele>519.5</ele><time>2026-05-02T10:26:51.999Z</time></trkpt><trkpt lat="46.32484023617071" lon="9.460312099031965"><ele>521.3333333333334</ele><time>2026-05-02T10:26:53.999Z</time></trkpt><trkpt lat="46.32475896791672" lon="9.460313535270654"><ele>523.1666666666666</ele><time>2026-05-02T10:26:55.999Z</time></trkpt><trkpt lat="46.32469754668851" lon="9.460257902819878"><ele>525.0</ele><time>2026-05-02T10:26:57.999Z</time></trkpt><trkpt lat="46.32461068154419" lon="9.460195728487248"><ele>526.1666666666666</ele><time>2026-05-02T10:26:59.999Z</time></trkpt><trkpt lat="46.32453866383538" lon="9.460118735980924"><ele>527.3333333333334</ele><time>2026-05-02T10:27:01.999Z</time></trkpt><trkpt lat="46.32444403597274" lon="9.46006672958306"><ele>528.5</ele><time>2026-05-02T10:27:03.999Z</time></trkpt><trkpt lat="46.32436286741545" lon="9.460068032584763"><ele>529.6666666666667</ele><time>2026-05-02T10:27:05.999Z</time></trkpt><trkpt lat="46.32429199121051" lon="9.46004053028166"><ele>530.8333333333334</ele><time>2026-05-02T10:27:07.999Z</time></trkpt><trkpt lat="46.32422047332758" lon="9.460049481235009"><ele>532.0</ele><time>2026-05-02T10:27:09.999Z</time></trkpt><trkpt lat="46.32413731542378" lon="9.460030550133766"><ele>532.0</ele><time>2026-05-02T10:27:12.999Z</time></trkpt><trkpt lat="46.32407355085645" lon="9.459938221494308"><ele>532.0</ele><time>2026-05-02T10:27:15.999Z</time></trkpt><trkpt lat="46.32403202324163" lon="9.45983667039705"><ele>532.0</ele><time>2026-05-02T10:27:18.999Z</time></trkpt><trkpt lat="46.32397781989603" lon="9.45972881081679"><ele>532.0</ele><time>2026-05-02T10:27:21.999Z</time></trkpt><trkpt lat="46.32393051280327" lon="9.459647068803182"><ele>532.0</ele><time>2026-05-02T10:27:23.999Z</time></trkpt><trkpt lat="46.323868541789864" lon="9.459542641420091"><ele>532.0</ele><time>2026-05-02T10:27:25.999Z</time></trkpt><trkpt lat="46.32382055499978" lon="9.459465153394701"><ele>538.0</ele><time>2026-05-02T10:27:28.999Z</time></trkpt><trkpt lat="46.32377654622183" lon="9.459385420015929"><ele>538.0</ele><time>2026-05-02T10:29:13.999Z</time></trkpt></trkseg><trkseg><trkpt lat="46.32378480123766" lon="9.459658140101087"><ele>562.0</ele><time>2026-05-02T11:36:13.998Z</time></trkpt><trkpt lat="46.32383567851725" lon="9.459748377674517"><ele>562.0</ele><time>2026-05-02T11:36:16.998Z</time></trkpt><trkpt lat="46.323886530656004" lon="9.459832296397831"><ele>562.0</ele><time>2026-05-02T11:36:18.998Z</time></trkpt><trkpt lat="46.32395202003982" lon="9.459936860036999"><ele>562.0</ele><time>2026-05-02T11:36:19.998Z</time></trkpt><trkpt lat="46.32406177599306" lon="9.460020838666576"><ele>562.0</ele><time>2026-05-02T11:36:21.998Z</time></trkpt><trkpt lat="46.3241454907729" lon="9.460112827066755"><ele>557.0</ele><time>2026-05-02T11:36:23.999Z</time></trkpt><trkpt lat="46.324246868356866" lon="9.460124244101168"><ele>552.0</ele><time>2026-05-02T11:36:25.999Z</time></trkpt><trkpt lat="46.324313510758145" lon="9.460120997627724"><ele>547.0</ele><time>2026-05-02T11:36:26.999Z</time></trkpt><trkpt lat="46.32438617994014" lon="9.460125568233174"><ele>542.0</ele><time>2026-05-02T11:36:27.999Z</time></trkpt><trkpt lat="46.32445175534279" lon="9.460143698612534"><ele>537.0</ele><time>2026-05-02T11:36:28.999Z</time></trkpt><trkpt lat="46.324565691792706" lon="9.460233357200615"><ele>532.0</ele><time>2026-05-02T11:36:31Z</time></trkpt><trkpt lat="46.324695939320925" lon="9.460322048432545"><ele>530.6</ele><time>2026-05-02T11:36:33Z</time></trkpt><trkpt lat="46.32481146253488" lon="9.460367432837806"><ele>529.2</ele><time>2026-05-02T11:36:35Z</time></trkpt><trkpt lat="46.32491402632721" lon="9.460279263677817"><ele>527.8</ele><time>2026-05-02T11:36:37Z</time></trkpt><trkpt lat="46.32495222117753" lon="9.460162561398269"><ele>526.4</ele><time>2026-05-02T11:36:38Z</time></trkpt><trkpt lat="46.32499514206705" lon="9.460073893550257"><ele>525.0</ele><time>2026-05-02T11:36:39Z</time></trkpt><trkpt lat="46.32503569969698" lon="9.459978774247029"><ele>525.0</ele><time>2026-05-02T11:36:40Z</time></trkpt><trkpt lat="46.32507580432151" lon="9.459885468391555"><ele>525.0</ele><time>2026-05-02T11:36:41Z</time></trkpt><trkpt lat="46.325094778019846" lon="9.459785359240994"><ele>525.0</ele><time>2026-05-02T11:36:42Z</time></trkpt><trkpt lat="46.32513486920531" lon="9.459708214496025"><ele>525.0</ele><time>2026-05-02T11:36:43Z</time></trkpt><trkpt lat="46.32512500910843" lon="9.4595850920257"><ele>525.0</ele><time>2026-05-02T11:36:44Z</time></trkpt><trkpt lat="46.325097254787906" lon="9.459478006342922"><ele>525.0</ele><time>2026-05-02T11:36:45Z</time></trkpt><trkpt lat="46.32507933084571" lon="9.459377244747248"><ele>522.8</ele><time>2026-05-02T11:36:46Z</time></trkpt><trkpt lat="46.32506333255053" lon="9.459280143436366"><ele>520.6</ele><time>2026-05-02T11:36:47Z</time></trkpt><trkpt lat="46.32503251532875" lon="9.459114515089453"><ele>518.4</ele><time>2026-05-02T11:36:49Z</time></trkpt><trkpt lat="46.324996763652486" lon="9.458943391760545"><ele>516.2</ele><time>2026-05-02T11:36:51Z</time></trkpt><trkpt lat="46.324963689693455" lon="9.458768277388117"><ele>514.0</ele><time>2026-05-02T11:36:53Z</time></trkpt><trkpt lat="46.324932430840136" lon="9.45860306609593"><ele>512.6666666666667</ele><time>2026-05-02T11:36:55Z</time></trkpt><trkpt lat="46.32491659661361" lon="9.458507059285493"><ele>511.33333333333337</ele><time>2026-05-02T11:36:56Z</time></trkpt><trkpt lat="46.32490763770863" lon="9.458352515506494"><ele>510.0</ele><time>2026-05-02T11:36:58Z</time></trkpt><trkpt lat="46.324915227124514" lon="9.45823373013541"><ele>508.66666666666663</ele><time>2026-05-02T11:37:00Z</time></trkpt><trkpt lat="46.32497693063784" lon="9.458149757196699"><ele>507.3333333333333</ele><time>2026-05-02T11:37:01.999Z</time></trkpt><trkpt lat="46.32504872919589" lon="9.458096299071952"><ele>506.0</ele><time>2026-05-02T11:37:03.999Z</time></trkpt><trkpt lat="46.32511406837664" lon="9.458093708019177"><ele>506.0</ele><time>2026-05-02T11:37:04.999Z</time></trkpt><trkpt lat="46.32522157625972" lon="9.458075198927151"><ele>506.0</ele><time>2026-05-02T11:37:06.999Z</time></trkpt><trkpt lat="46.325289935352664" lon="9.458067969312458"><ele>506.0</ele><time>2026-05-02T11:37:07.999Z</time></trkpt><trkpt lat="46.32540706514277" lon="9.458023710581317"><ele>506.0</ele><time>2026-05-02T11:37:09.999Z</time></trkpt><trkpt lat="46.32550855974482" lon="9.457985902869332"><ele>506.0</ele><time>2026-05-02T11:37:11.999Z</time></trkpt><trkpt lat="46.32556733216946" lon="9.45794711564644"><ele>505.75</ele><time>2026-05-02T11:37:14.999Z</time></trkpt><trkpt lat="46.325538136164724" lon="9.457753582243093"><ele>505.5</ele><time>2026-05-02T11:37:18.999Z</time></trkpt><trkpt lat="46.32548925201693" lon="9.457489140032452"><ele>505.25</ele><time>2026-05-02T11:37:20.999Z</time></trkpt><trkpt lat="46.325444570399284" lon="9.45735519414885"><ele>505.0</ele><time>2026-05-02T11:37:21.999Z</time></trkpt><trkpt lat="46.32541018586261" lon="9.457183021947387"><ele>504.5</ele><time>2026-05-02T11:37:22.999Z</time></trkpt><trkpt lat="46.3254242683957" lon="9.45704082697859"><ele>504.0</ele><time>2026-05-02T11:37:23.999Z</time></trkpt><trkpt lat="46.32543218804052" lon="9.456880615065309"><ele>503.5</ele><time>2026-05-02T11:37:24.999Z</time></trkpt><trkpt lat="46.32546696944729" lon="9.456698586827287"><ele>503.0</ele><time>2026-05-02T11:37:25.999Z</time></trkpt><trkpt lat="46.32547620063661" lon="9.456493933829476"><ele>503.0</ele><time>2026-05-02T11:37:26.999Z</time></trkpt><trkpt lat="46.32549363243059" lon="9.456299168707725"><ele>503.0</ele><time>2026-05-02T11:37:27.999Z</time></trkpt><trkpt lat="46.32550538048158" lon="9.456115061605901"><ele>503.0</ele><time>2026-05-02T11:37:28.999Z</time></trkpt><trkpt lat="46.32551509358191" lon="9.455926104216816"><ele>503.0</ele><time>2026-05-02T11:37:29.999Z</time></trkpt><trkpt lat="46.32552611864262" lon="9.45573080497103"><ele>503.0</ele><time>2026-05-02T11:37:30.999Z</time></trkpt><trkpt lat="46.32554214811404" lon="9.45553491222674"><ele>503.0</ele><time>2026-05-02T11:37:31.999Z</time></trkpt><trkpt lat="46.325571936024495" lon="9.455325500349803"><ele>503.0</ele><time>2026-05-02T11:37:32.999Z</time></trkpt><trkpt lat="46.32561785306104" lon="9.455131474513632"><ele>503.0</ele><time>2026-05-02T11:37:33.999Z</time></trkpt><trkpt lat="46.3256965308313" lon="9.454949694473617"><ele>503.0</ele><time>2026-05-02T11:37:34.999Z</time></trkpt><trkpt lat="46.32579526773459" lon="9.454783564682355"><ele>503.0</ele><time>2026-05-02T11:37:35.999Z</time></trkpt><trkpt lat="46.32591976805052" lon="9.45462415631284"><ele>503.0</ele><time>2026-05-02T11:37:36.999Z</time></trkpt><trkpt lat="46.326072961446656" lon="9.454536516299983"><ele>503.66666666666663</ele><time>2026-05-02T11:37:37.999Z</time></trkpt><trkpt lat="46.32623868910061" lon="9.4544247558322"><ele>504.33333333333337</ele><time>2026-05-02T11:37:38.999Z</time></trkpt><trkpt lat="46.3263853156205" lon="9.454258168803268"><ele>505.0</ele><time>2026-05-02T11:37:39.999Z</time></trkpt><trkpt lat="46.326480169975234" lon="9.45419564595059"><ele>505.0</ele><time>2026-05-02T11:37:40.999Z</time></trkpt><trkpt lat="46.326578656216505" lon="9.454015578756861"><ele>505.0</ele><time>2026-05-02T11:37:41.999Z</time></trkpt><trkpt lat="46.32667389848526" lon="9.453811390976053"><ele>505.0</ele><time>2026-05-02T11:37:42.999Z</time></trkpt><trkpt lat="46.32677012112155" lon="9.453597053805947"><ele>497.6666666666667</ele><time>2026-05-02T11:37:43.999Z</time></trkpt><trkpt lat="46.32686094550173" lon="9.45337031891657"><ele>490.33333333333337</ele><time>2026-05-02T11:37:44.999Z</time></trkpt><trkpt lat="46.326980337534366" lon="9.453177651024323"><ele>483.0</ele><time>2026-05-02T11:37:45.999Z</time></trkpt><trkpt lat="46.32712331930731" lon="9.453020600791952"><ele>484.0</ele><time>2026-05-02T11:37:46.999Z</time></trkpt><trkpt lat="46.32725448684607" lon="9.452846206377068"><ele>485.0</ele><time>2026-05-02T11:37:47.999Z</time></trkpt><trkpt lat="46.327387836121936" lon="9.45265990901356"><ele>486.0</ele><time>2026-05-02T11:37:48.999Z</time></trkpt><trkpt lat="46.32752359195982" lon="9.452478743996108"><ele>486.0</ele><time>2026-05-02T11:37:49.999Z</time></trkpt><trkpt lat="46.3276576283511" lon="9.452310436690833"><ele>486.0</ele><time>2026-05-02T11:37:50.999Z</time></trkpt><trkpt lat="46.32778596458679" lon="9.452143723498082"><ele>486.0</ele><time>2026-05-02T11:37:51.999Z</time></trkpt><trkpt lat="46.327903446342034" lon="9.451982094266578"><ele>479.0</ele><time>2026-05-02T11:37:52.999Z</time></trkpt><trkpt lat="46.32800381578264" lon="9.451793532346665"><ele>472.0</ele><time>2026-05-02T11:37:53.999Z</time></trkpt><trkpt lat="46.328072238569604" lon="9.451573784630416"><ele>465.0</ele><time>2026-05-02T11:37:54.999Z</time></trkpt><trkpt lat="46.32805435248603" lon="9.451317368837666"><ele>461.0</ele><time>2026-05-02T11:37:55.999Z</time></trkpt><trkpt lat="46.32802814141482" lon="9.451045811891204"><ele>457.0</ele><time>2026-05-02T11:37:56.999Z</time></trkpt><trkpt lat="46.32804912871579" lon="9.450777467144178"><ele>453.0</ele><time>2026-05-02T11:37:57.999Z</time></trkpt><trkpt lat="46.32807190948792" lon="9.450543092546479"><ele>472.0</ele><time>2026-05-02T11:37:58.999Z</time></trkpt><trkpt lat="46.32811037284009" lon="9.450467333993009"><ele>491.0</ele><time>2026-05-02T11:37:59.999Z</time></trkpt><trkpt lat="46.32821332017991" lon="9.449739837187803"><ele>488.66666666666663</ele><time>2026-05-02T11:38:01.999Z</time></trkpt><trkpt lat="46.32821614539507" lon="9.449465285571799"><ele>486.33333333333337</ele><time>2026-05-02T11:38:02.999Z</time></trkpt><trkpt lat="46.328184848679015" lon="9.449198345128128"><ele>484.0</ele><time>2026-05-02T11:38:03.999Z</time></trkpt><trkpt lat="46.32814114977783" lon="9.448930455465238"><ele>483.33333333333337</ele><time>2026-05-02T11:38:04.999Z</time></trkpt><trkpt lat="46.32810964228694" lon="9.44866950189936"><ele>482.66666666666663</ele><time>2026-05-02T11:38:05.999Z</time></trkpt><trkpt lat="46.328106687983095" lon="9.448399614901632"><ele>482.0</ele><time>2026-05-02T11:38:06.999Z</time></trkpt><trkpt lat="46.32811000539045" lon="9.448118847848919"><ele>479.0</ele><time>2026-05-02T11:38:07.999Z</time></trkpt><trkpt lat="46.328138043095926" lon="9.44784591665808"><ele>476.0</ele><time>2026-05-02T11:38:08.999Z</time></trkpt><trkpt lat="46.328171676100695" lon="9.447565383259656"><ele>473.0</ele><time>2026-05-02T11:38:09.999Z</time></trkpt><trkpt lat="46.32817429023684" lon="9.447280673695465"><ele>469.0</ele><time>2026-05-02T11:38:10.999Z</time></trkpt><trkpt lat="46.32816895395583" lon="9.447011302256287"><ele>465.0</ele><time>2026-05-02T11:38:11.999Z</time></trkpt><trkpt lat="46.32817852365498" lon="9.44674924242932"><ele>461.0</ele><time>2026-05-02T11:38:12.999Z</time></trkpt><trkpt lat="46.32821680071349" lon="9.446493676753667"><ele>456.66666666666663</ele><time>2026-05-02T11:38:13.999Z</time></trkpt><trkpt lat="46.3282632484984" lon="9.446235843970603"><ele>452.33333333333337</ele><time>2026-05-02T11:38:14.999Z</time></trkpt><trkpt lat="46.32829564805076" lon="9.445983748002256"><ele>448.0</ele><time>2026-05-02T11:38:15.999Z</time></trkpt><trkpt lat="46.32834317993581" lon="9.44573887732993"><ele>448.0</ele><time>2026-05-02T11:38:16.999Z</time></trkpt><trkpt lat="46.32838393414091" lon="9.445494455277816"><ele>448.0</ele><time>2026-05-02T11:38:17.999Z</time></trkpt><trkpt lat="46.328431500999116" lon="9.445250790166194"><ele>448.0</ele><time>2026-05-02T11:38:18.999Z</time></trkpt><trkpt lat="46.32847854521327" lon="9.445007345060063"><ele>445.6666666666667</ele><time>2026-05-02T11:38:19.999Z</time></trkpt><trkpt lat="46.32852436946744" lon="9.444768189292866"><ele>443.33333333333337</ele><time>2026-05-02T11:38:20.999Z</time></trkpt><trkpt lat="46.32856735610564" lon="9.444529729029332"><ele>441.0</ele><time>2026-05-02T11:38:21.999Z</time></trkpt><trkpt lat="46.32861811776267" lon="9.444306489326806"><ele>439.33333333333337</ele><time>2026-05-02T11:38:22.999Z</time></trkpt><trkpt lat="46.32867757531688" lon="9.444106805320803"><ele>437.6666666666667</ele><time>2026-05-02T11:38:23.999Z</time></trkpt><trkpt lat="46.32872525542514" lon="9.443898889157389"><ele>436.0</ele><time>2026-05-02T11:38:24.999Z</time></trkpt><trkpt lat="46.32883682292968" lon="9.443702125653099"><ele>440.0</ele><time>2026-05-02T11:38:25.999Z</time></trkpt><trkpt lat="46.328914894463956" lon="9.443497849490447"><ele>444.0</ele><time>2026-05-02T11:38:26.999Z</time></trkpt><trkpt lat="46.328987335112835" lon="9.443296892715813"><ele>448.0</ele><time>2026-05-02T11:38:27.999Z</time></trkpt><trkpt lat="46.329065368647306" lon="9.443092104202353"><ele>443.6666666666667</ele><time>2026-05-02T11:38:28.999Z</time></trkpt><trkpt lat="46.329145515723894" lon="9.442895563149094"><ele>439.33333333333337</ele><time>2026-05-02T11:38:29.999Z</time></trkpt><trkpt lat="46.32921369276901" lon="9.44270525221119"><ele>435.0</ele><time>2026-05-02T11:38:30.999Z</time></trkpt><trkpt lat="46.329266080704954" lon="9.442510960831024"><ele>435.0</ele><time>2026-05-02T11:38:31.999Z</time></trkpt><trkpt lat="46.32932050336398" lon="9.442312492845963"><ele>435.0</ele><time>2026-05-02T11:38:32.999Z</time></trkpt><trkpt lat="46.32935246348116" lon="9.442090072075752"><ele>435.0</ele><time>2026-05-02T11:38:33.999Z</time></trkpt><trkpt lat="46.32934224003734" lon="9.441850723566425"><ele>431.33333333333337</ele><time>2026-05-02T11:38:34.999Z</time></trkpt><trkpt lat="46.32933697666095" lon="9.441603378086661"><ele>427.6666666666667</ele><time>2026-05-02T11:38:35.999Z</time></trkpt><trkpt lat="46.32933952916998" lon="9.441364035764702"><ele>424.0</ele><time>2026-05-02T11:38:36.999Z</time></trkpt><trkpt lat="46.32935120665732" lon="9.441132845599501"><ele>423.6666666666667</ele><time>2026-05-02T11:38:37.999Z</time></trkpt><trkpt lat="46.32935073901022" lon="9.440905258676661"><ele>423.33333333333337</ele><time>2026-05-02T11:38:38.999Z</time></trkpt><trkpt lat="46.32933278933978" lon="9.440679086999419"><ele>423.0</ele><time>2026-05-02T11:38:39.999Z</time></trkpt><trkpt lat="46.329301858203294" lon="9.440448759309911"><ele>423.0</ele><time>2026-05-02T11:38:40.999Z</time></trkpt><trkpt lat="46.32924778603673" lon="9.440229331516694"><ele>423.0</ele><time>2026-05-02T11:38:41.999Z</time></trkpt><trkpt lat="46.32919225938956" lon="9.440019704273992"><ele>423.0</ele><time>2026-05-02T11:38:42.999Z</time></trkpt><trkpt lat="46.329103109482844" lon="9.439813706094034"><ele>424.33333333333337</ele><time>2026-05-02T11:38:43.999Z</time></trkpt><trkpt lat="46.329000762101906" lon="9.439614486207885"><ele>425.6666666666667</ele><time>2026-05-02T11:38:44.999Z</time></trkpt><trkpt lat="46.32891541662155" lon="9.439388467029879"><ele>427.0</ele><time>2026-05-02T11:38:45.999Z</time></trkpt><trkpt lat="46.32884401180896" lon="9.439164024632273"><ele>423.0</ele><time>2026-05-02T11:38:46.999Z</time></trkpt><trkpt lat="46.32877900321028" lon="9.438929012528318"><ele>419.0</ele><time>2026-05-02T11:38:47.999Z</time></trkpt><trkpt lat="46.32872684468751" lon="9.438693741885102"><ele>415.0</ele><time>2026-05-02T11:38:48.999Z</time></trkpt><trkpt lat="46.32871720769309" lon="9.438463061739172"><ele>415.0</ele><time>2026-05-02T11:38:49.999Z</time></trkpt><trkpt lat="46.32866958825321" lon="9.438247090816061"><ele>415.0</ele><time>2026-05-02T11:38:50.999Z</time></trkpt><trkpt lat="46.32866672377087" lon="9.438038352613166"><ele>415.0</ele><time>2026-05-02T11:38:51.999Z</time></trkpt><trkpt lat="46.32865808491516" lon="9.437876789385557"><ele>415.0</ele><time>2026-05-02T11:38:52.999Z</time></trkpt><trkpt lat="46.328649011071626" lon="9.437740655225243"><ele>414.8</ele><time>2026-05-02T11:38:53.999Z</time></trkpt><trkpt lat="46.32864210068986" lon="9.437567202872058"><ele>414.6</ele><time>2026-05-02T11:38:55.999Z</time></trkpt><trkpt lat="46.32864125743954" lon="9.437466422250635"><ele>414.4</ele><time>2026-05-02T11:38:57.999Z</time></trkpt><trkpt lat="46.32864901689243" lon="9.437350658915124"><ele>414.2</ele><time>2026-05-02T11:39:00.999Z</time></trkpt><trkpt lat="46.328630945518306" lon="9.43718731693631"><ele>414.0</ele><time>2026-05-02T11:39:02.999Z</time></trkpt><trkpt lat="46.32862458261537" lon="9.437087589198093"><ele>413.6</ele><time>2026-05-02T11:39:03.999Z</time></trkpt><trkpt lat="46.32861416393528" lon="9.436971791938982"><ele>413.2</ele><time>2026-05-02T11:39:04.999Z</time></trkpt><trkpt lat="46.32860754111423" lon="9.436851489612565"><ele>412.8</ele><time>2026-05-02T11:39:05.999Z</time></trkpt><trkpt lat="46.328595752179204" lon="9.43672865176033"><ele>412.40000000000003</ele><time>2026-05-02T11:39:06.999Z</time></trkpt><trkpt lat="46.32858993897119" lon="9.436588665703793"><ele>412.0</ele><time>2026-05-02T11:39:07.999Z</time></trkpt><trkpt lat="46.32857786923443" lon="9.436432136540457"><ele>411.6</ele><time>2026-05-02T11:39:08.999Z</time></trkpt><trkpt lat="46.328570140337085" lon="9.436276782944722"><ele>411.20000000000005</ele><time>2026-05-02T11:39:09.999Z</time></trkpt><trkpt lat="46.32855656430609" lon="9.436130386591522"><ele>410.8</ele><time>2026-05-02T11:39:10.999Z</time></trkpt><trkpt lat="46.32854027916032" lon="9.435975614709475"><ele>410.4</ele><time>2026-05-02T11:39:11.999Z</time></trkpt><trkpt lat="46.32852848434668" lon="9.43578614029753"><ele>410.0</ele><time>2026-05-02T11:39:12.999Z</time></trkpt><trkpt lat="46.328518952597605" lon="9.43559872801445"><ele>410.0</ele><time>2026-05-02T11:39:13.999Z</time></trkpt><trkpt lat="46.3285107266426" lon="9.435408459512287"><ele>410.0</ele><time>2026-05-02T11:39:14.999Z</time></trkpt><trkpt lat="46.328498587530525" lon="9.435214852931784"><ele>410.0</ele><time>2026-05-02T11:39:15.999Z</time></trkpt><trkpt lat="46.32848567101084" lon="9.43502384443139"><ele>410.0</ele><time>2026-05-02T11:39:16.999Z</time></trkpt><trkpt lat="46.3284720123767" lon="9.434822021441372"><ele>409.5</ele><time>2026-05-02T11:39:17.999Z</time></trkpt><trkpt lat="46.32846247944496" lon="9.434621936894942"><ele>409.0</ele><time>2026-05-02T11:39:18.999Z</time></trkpt><trkpt lat="46.328446491359315" lon="9.434407182057942"><ele>408.5</ele><time>2026-05-02T11:39:19.999Z</time></trkpt><trkpt lat="46.32842495003551" lon="9.434188900280434"><ele>408.0</ele><time>2026-05-02T11:39:20.999Z</time></trkpt><trkpt lat="46.32840761594609" lon="9.433975776535313"><ele>407.66666666666663</ele><time>2026-05-02T11:39:21.999Z</time></trkpt><trkpt lat="46.328379156356434" lon="9.433768842462115"><ele>407.3333333333333</ele><time>2026-05-02T11:39:22.999Z</time></trkpt><trkpt lat="46.32832634838951" lon="9.433557903065388"><ele>407.0</ele><time>2026-05-02T11:39:23.999Z</time></trkpt><trkpt lat="46.32824060237497" lon="9.433333079042484"><ele>407.0</ele><time>2026-05-02T11:39:24.999Z</time></trkpt><trkpt lat="46.32813729651943" lon="9.433117016172963"><ele>407.0</ele><time>2026-05-02T11:39:25.999Z</time></trkpt><trkpt lat="46.32801019252532" lon="9.432932880529458"><ele>407.0</ele><time>2026-05-02T11:39:26.999Z</time></trkpt><trkpt lat="46.32793931684655" lon="9.432775321276493"><ele>405.0</ele><time>2026-05-02T11:39:27.999Z</time></trkpt><trkpt lat="46.32784955189102" lon="9.432586233919045"><ele>403.0</ele><time>2026-05-02T11:39:28.999Z</time></trkpt><trkpt lat="46.32774913798127" lon="9.432397327718922"><ele>401.0</ele><time>2026-05-02T11:39:29.999Z</time></trkpt><trkpt lat="46.327644911917254" lon="9.432203704294986"><ele>401.66666666666663</ele><time>2026-05-02T11:39:30.999Z</time></trkpt><trkpt lat="46.32754814052266" lon="9.43200279309016"><ele>402.33333333333337</ele><time>2026-05-02T11:39:31.999Z</time></trkpt><trkpt lat="46.32745455727764" lon="9.431808283555446"><ele>403.0</ele><time>2026-05-02T11:39:32.999Z</time></trkpt><trkpt lat="46.32735210658411" lon="9.431598487430989"><ele>403.0</ele><time>2026-05-02T11:39:33.999Z</time></trkpt><trkpt lat="46.32724567627333" lon="9.431391426528863"><ele>403.0</ele><time>2026-05-02T11:39:34.999Z</time></trkpt><trkpt lat="46.32713910934" lon="9.43118314131559"><ele>403.0</ele><time>2026-05-02T11:39:35.999Z</time></trkpt><trkpt lat="46.327032486481535" lon="9.430983840755124"><ele>400.6666666666667</ele><time>2026-05-02T11:39:36.999Z</time></trkpt><trkpt lat="46.32693692107049" lon="9.430788208939932"><ele>398.33333333333337</ele><time>2026-05-02T11:39:37.999Z</time></trkpt><trkpt lat="46.32683865500452" lon="9.430592548314257"><ele>396.0</ele><time>2026-05-02T11:39:38.999Z</time></trkpt><trkpt lat="46.32674583220831" lon="9.430402064194775"><ele>396.0</ele><time>2026-05-02T11:39:39.999Z</time></trkpt><trkpt lat="46.32665307970053" lon="9.430201348667715"><ele>396.0</ele><time>2026-05-02T11:39:40.999Z</time></trkpt><trkpt lat="46.326563643901586" lon="9.429999543192206"><ele>396.0</ele><time>2026-05-02T11:39:41.999Z</time></trkpt><trkpt lat="46.326498350147006" lon="9.42979333528265"><ele>395.0</ele><time>2026-05-02T11:39:42.999Z</time></trkpt><trkpt lat="46.32642720279762" lon="9.429568506261583"><ele>394.0</ele><time>2026-05-02T11:39:43.999Z</time></trkpt><trkpt lat="46.3263593909647" lon="9.429319672343485"><ele>393.0</ele><time>2026-05-02T11:39:44.999Z</time></trkpt><trkpt lat="46.326302586320985" lon="9.42905635881282"><ele>390.66666666666663</ele><time>2026-05-02T11:39:45.999Z</time></trkpt><trkpt lat="46.32625929615082" lon="9.428788807226239"><ele>388.3333333333333</ele><time>2026-05-02T11:39:46.999Z</time></trkpt><trkpt lat="46.32624019965951" lon="9.42851803003856"><ele>386.0</ele><time>2026-05-02T11:39:47.999Z</time></trkpt><trkpt lat="46.32619755845837" lon="9.428209376366263"><ele>385.66666666666663</ele><time>2026-05-02T11:39:48.999Z</time></trkpt><trkpt lat="46.32618158790558" lon="9.427916675909342"><ele>385.33333333333337</ele><time>2026-05-02T11:39:49.999Z</time></trkpt><trkpt lat="46.32617595249723" lon="9.427626432971126"><ele>385.0</ele><time>2026-05-02T11:39:50.999Z</time></trkpt><trkpt lat="46.32617647085738" lon="9.427346004010962"><ele>385.0</ele><time>2026-05-02T11:39:51.999Z</time></trkpt><trkpt lat="46.32617164650937" lon="9.427070250240838"><ele>385.0</ele><time>2026-05-02T11:39:52.999Z</time></trkpt><trkpt lat="46.32617645020865" lon="9.426807952489034"><ele>385.0</ele><time>2026-05-02T11:39:53.999Z</time></trkpt><trkpt lat="46.326182904036024" lon="9.426554084452286"><ele>385.0</ele><time>2026-05-02T11:39:54.999Z</time></trkpt><trkpt lat="46.32617489984613" lon="9.426287189958192"><ele>385.0</ele><time>2026-05-02T11:39:55.999Z</time></trkpt><trkpt lat="46.3261752848132" lon="9.426012603116149"><ele>385.0</ele><time>2026-05-02T11:39:56.999Z</time></trkpt><trkpt lat="46.32617314342651" lon="9.425728115987237"><ele>384.0</ele><time>2026-05-02T11:39:57.999Z</time></trkpt><trkpt lat="46.32617398300514" lon="9.42544534340305"><ele>383.0</ele><time>2026-05-02T11:39:58.999Z</time></trkpt><trkpt lat="46.32617071994408" lon="9.425158298621506"><ele>382.0</ele><time>2026-05-02T11:39:59.999Z</time></trkpt><trkpt lat="46.326154069167025" lon="9.424874940538077"><ele>381.0</ele><time>2026-05-02T11:40:00.999Z</time></trkpt><trkpt lat="46.3261484237562" lon="9.42462220314102"><ele>380.0</ele><time>2026-05-02T11:40:01.999Z</time></trkpt><trkpt lat="46.3261408430423" lon="9.424383173245229"><ele>379.0</ele><time>2026-05-02T11:40:02.999Z</time></trkpt><trkpt lat="46.32614608529223" lon="9.424159041822286"><ele>379.0</ele><time>2026-05-02T11:40:03.999Z</time></trkpt><trkpt lat="46.326169895798586" lon="9.423943157415422"><ele>379.0</ele><time>2026-05-02T11:40:04.999Z</time></trkpt><trkpt lat="46.32623402404778" lon="9.423742578844777"><ele>379.0</ele><time>2026-05-02T11:40:05.999Z</time></trkpt><trkpt lat="46.32631169738664" lon="9.423549664505044"><ele>381.0</ele><time>2026-05-02T11:40:06.999Z</time></trkpt><trkpt lat="46.32640315772294" lon="9.423360295119815"><ele>383.0</ele><time>2026-05-02T11:40:07.999Z</time></trkpt><trkpt lat="46.32652706234448" lon="9.423184564679362"><ele>385.0</ele><time>2026-05-02T11:40:08.999Z</time></trkpt><trkpt lat="46.32664208988181" lon="9.423000234458629"><ele>383.33333333333337</ele><time>2026-05-02T11:40:09.999Z</time></trkpt><trkpt lat="46.32676177485826" lon="9.422831751761896"><ele>381.6666666666667</ele><time>2026-05-02T11:40:10.999Z</time></trkpt><trkpt lat="46.32687489549802" lon="9.422657042910163"><ele>380.0</ele><time>2026-05-02T11:40:11.999Z</time></trkpt><trkpt lat="46.326969942584455" lon="9.422459544309612"><ele>380.0</ele><time>2026-05-02T11:40:12.999Z</time></trkpt><trkpt lat="46.32705651484433" lon="9.422226344678316"><ele>380.0</ele><time>2026-05-02T11:40:13.999Z</time></trkpt><trkpt lat="46.327110082789105" lon="9.421988264543552"><ele>380.0</ele><time>2026-05-02T11:40:14.999Z</time></trkpt><trkpt lat="46.32714468357894" lon="9.421726368578867"><ele>379.33333333333337</ele><time>2026-05-02T11:40:15.999Z</time></trkpt><trkpt lat="46.32719562445373" lon="9.421476047455338"><ele>378.6666666666667</ele><time>2026-05-02T11:40:16.999Z</time></trkpt><trkpt lat="46.327244194665724" lon="9.421231752877812"><ele>378.0</ele><time>2026-05-02T11:40:17.999Z</time></trkpt><trkpt lat="46.327289563736194" lon="9.42099361809478"><ele>378.0</ele><time>2026-05-02T11:40:18.999Z</time></trkpt><trkpt lat="46.327329115559536" lon="9.420760342366107"><ele>378.0</ele><time>2026-05-02T11:40:19.999Z</time></trkpt><trkpt lat="46.32736881110615" lon="9.420511961577706"><ele>378.0</ele><time>2026-05-02T11:40:20.999Z</time></trkpt><trkpt lat="46.32738793648044" lon="9.42026293515155"><ele>378.3333333333333</ele><time>2026-05-02T11:40:21.999Z</time></trkpt><trkpt lat="46.3273795868662" lon="9.420007244142488"><ele>378.66666666666663</ele><time>2026-05-02T11:40:22.999Z</time></trkpt><trkpt lat="46.32735162781634" lon="9.419761595902854"><ele>379.0</ele><time>2026-05-02T11:40:23.999Z</time></trkpt><trkpt lat="46.32733391369056" lon="9.419509042657433"><ele>378.5</ele><time>2026-05-02T11:40:24.999Z</time></trkpt><trkpt lat="46.32731589580205" lon="9.419286806014139"><ele>378.0</ele><time>2026-05-02T11:40:25.999Z</time></trkpt><trkpt lat="46.32730185948708" lon="9.41907503909782"><ele>377.5</ele><time>2026-05-02T11:40:26.999Z</time></trkpt><trkpt lat="46.327291284676136" lon="9.41887120634669"><ele>377.0</ele><time>2026-05-02T11:40:27.999Z</time></trkpt><trkpt lat="46.32728078164615" lon="9.418681481911355"><ele>377.0</ele><time>2026-05-02T11:40:28.999Z</time></trkpt><trkpt lat="46.32726622755167" lon="9.418505447442264"><ele>377.0</ele><time>2026-05-02T11:40:29.999Z</time></trkpt><trkpt lat="46.32725821205293" lon="9.418331318444391"><ele>377.0</ele><time>2026-05-02T11:40:30.999Z</time></trkpt><trkpt lat="46.327238767867364" lon="9.418153184610171"><ele>377.0</ele><time>2026-05-02T11:40:31.999Z</time></trkpt><trkpt lat="46.32722375495816" lon="9.417967011434065"><ele>374.5</ele><time>2026-05-02T11:40:32.999Z</time></trkpt><trkpt lat="46.32721406679879" lon="9.417784040746794"><ele>372.0</ele><time>2026-05-02T11:40:33.999Z</time></trkpt><trkpt lat="46.3271982879655" lon="9.41760723966012"><ele>369.5</ele><time>2026-05-02T11:40:34.999Z</time></trkpt><trkpt lat="46.327186081586426" lon="9.417441313249972"><ele>367.0</ele><time>2026-05-02T11:40:35.999Z</time></trkpt><trkpt lat="46.32717520911028" lon="9.417288327411308"><ele>367.6</ele><time>2026-05-02T11:40:36.999Z</time></trkpt><trkpt lat="46.327168833923494" lon="9.417137602502438"><ele>368.20000000000005</ele><time>2026-05-02T11:40:37.999Z</time></trkpt><trkpt lat="46.327161666227454" lon="9.416981782373947"><ele>368.8</ele><time>2026-05-02T11:40:38.999Z</time></trkpt><trkpt lat="46.32715109261943" lon="9.41682766982827"><ele>369.4</ele><time>2026-05-02T11:40:39.999Z</time></trkpt><trkpt lat="46.327145216085576" lon="9.416670961671416"><ele>370.0</ele><time>2026-05-02T11:40:40.999Z</time></trkpt><trkpt lat="46.327144127588504" lon="9.416512851272271"><ele>370.0</ele><time>2026-05-02T11:40:41.999Z</time></trkpt><trkpt lat="46.32715109998452" lon="9.416355943461655"><ele>370.0</ele><time>2026-05-02T11:40:42.999Z</time></trkpt><trkpt lat="46.32715954719967" lon="9.416184022512969"><ele>370.0</ele><time>2026-05-02T11:40:43.999Z</time></trkpt><trkpt lat="46.32717618823165" lon="9.416017574765299"><ele>370.0</ele><time>2026-05-02T11:40:44.999Z</time></trkpt><trkpt lat="46.32718556423307" lon="9.41586709805677"><ele>370.0</ele><time>2026-05-02T11:40:45.999Z</time></trkpt><trkpt lat="46.32720431353154" lon="9.41572004071945"><ele>370.2</ele><time>2026-05-02T11:40:46.999Z</time></trkpt><trkpt lat="46.327201630137175" lon="9.41557615560072"><ele>370.4</ele><time>2026-05-02T11:40:47.999Z</time></trkpt><trkpt lat="46.32720793550509" lon="9.415433614254992"><ele>370.6</ele><time>2026-05-02T11:40:48.999Z</time></trkpt><trkpt lat="46.327237054913525" lon="9.415294870680466"><ele>370.8</ele><time>2026-05-02T11:40:50Z</time></trkpt><trkpt lat="46.327254707308505" lon="9.415152909647897"><ele>371.0</ele><time>2026-05-02T11:40:51Z</time></trkpt><trkpt lat="46.32726404758588" lon="9.415003681516051"><ele>371.0</ele><time>2026-05-02T11:40:52Z</time></trkpt><trkpt lat="46.32727598442086" lon="9.41485362461909"><ele>371.0</ele><time>2026-05-02T11:40:53Z</time></trkpt><trkpt lat="46.327285993243294" lon="9.414708036246338"><ele>371.0</ele><time>2026-05-02T11:40:54Z</time></trkpt><trkpt lat="46.32730379776914" lon="9.414563511527257"><ele>371.0</ele><time>2026-05-02T11:40:55Z</time></trkpt><trkpt lat="46.32731997085712" lon="9.414412845324085"><ele>371.0</ele><time>2026-05-02T11:40:56Z</time></trkpt><trkpt lat="46.327326316278466" lon="9.41426574479622"><ele>370.8</ele><time>2026-05-02T11:40:57Z</time></trkpt><trkpt lat="46.32733887349005" lon="9.414110484311331"><ele>370.6</ele><time>2026-05-02T11:40:58Z</time></trkpt><trkpt lat="46.32735348343645" lon="9.413962328101169"><ele>370.4</ele><time>2026-05-02T11:40:59Z</time></trkpt><trkpt lat="46.327352340833" lon="9.413821618707889"><ele>370.2</ele><time>2026-05-02T11:41:00Z</time></trkpt><trkpt lat="46.32732561580691" lon="9.413667926616029"><ele>370.0</ele><time>2026-05-02T11:41:01Z</time></trkpt><trkpt lat="46.32732508044387" lon="9.413484203563"><ele>370.0</ele><time>2026-05-02T11:41:02Z</time></trkpt><trkpt lat="46.32732681234102" lon="9.41330075412878"><ele>370.0</ele><time>2026-05-02T11:41:03Z</time></trkpt><trkpt lat="46.32732360793057" lon="9.41315202048"><ele>370.0</ele><time>2026-05-02T11:41:04Z</time></trkpt><trkpt lat="46.327320414111256" lon="9.412991110724448"><ele>370.0</ele><time>2026-05-02T11:41:05Z</time></trkpt><trkpt lat="46.32731424324783" lon="9.41283783989154"><ele>370.0</ele><time>2026-05-02T11:41:06Z</time></trkpt><trkpt lat="46.327309145161294" lon="9.412681957187482"><ele>369.75</ele><time>2026-05-02T11:41:07Z</time></trkpt><trkpt lat="46.32730706867393" lon="9.412519231914548"><ele>369.5</ele><time>2026-05-02T11:41:08Z</time></trkpt><trkpt lat="46.32730129763905" lon="9.412347728841542"><ele>369.25</ele><time>2026-05-02T11:41:09Z</time></trkpt><trkpt lat="46.327330662249814" lon="9.412175822314268"><ele>369.0</ele><time>2026-05-02T11:41:10Z</time></trkpt><trkpt lat="46.327360430475935" lon="9.411998034312607"><ele>369.0</ele><time>2026-05-02T11:41:11Z</time></trkpt><trkpt lat="46.32738387254411" lon="9.411821727547418"><ele>369.0</ele><time>2026-05-02T11:41:12Z</time></trkpt><trkpt lat="46.32739327500184" lon="9.411624185207822"><ele>369.0</ele><time>2026-05-02T11:41:13Z</time></trkpt><trkpt lat="46.327392866623065" lon="9.411421586001788"><ele>369.0</ele><time>2026-05-02T11:41:14Z</time></trkpt><trkpt lat="46.32738676001892" lon="9.411180050921155"><ele>368.0</ele><time>2026-05-02T11:41:15Z</time></trkpt><trkpt lat="46.32738445510204" lon="9.410894885192544"><ele>367.0</ele><time>2026-05-02T11:41:16Z</time></trkpt><trkpt lat="46.32738575749021" lon="9.410595335960302"><ele>366.0</ele><time>2026-05-02T11:41:17Z</time></trkpt><trkpt lat="46.327388317500976" lon="9.410290270585035"><ele>365.75</ele><time>2026-05-02T11:41:18Z</time></trkpt><trkpt lat="46.32738142494497" lon="9.409997660938416"><ele>365.5</ele><time>2026-05-02T11:41:19Z</time></trkpt><trkpt lat="46.32737199744904" lon="9.410121821846325"><ele>365.25</ele><time>2026-05-02T11:41:20Z</time></trkpt><trkpt lat="46.32736153343035" lon="9.409939532910935"><ele>365.0</ele><time>2026-05-02T11:41:21Z</time></trkpt><trkpt lat="46.32733547735321" lon="9.409763512501838"><ele>365.25</ele><time>2026-05-02T11:41:22Z</time></trkpt><trkpt lat="46.32729493126454" lon="9.4095807662976"><ele>365.5</ele><time>2026-05-02T11:41:23Z</time></trkpt><trkpt lat="46.32723372228463" lon="9.409406521395915"><ele>365.75</ele><time>2026-05-02T11:41:24Z</time></trkpt><trkpt lat="46.327178351308" lon="9.409237052805173"><ele>366.0</ele><time>2026-05-02T11:41:25Z</time></trkpt><trkpt lat="46.32712048075215" lon="9.409068846574458"><ele>363.75</ele><time>2026-05-02T11:41:26Z</time></trkpt><trkpt lat="46.327056434410025" lon="9.40891705742314"><ele>361.5</ele><time>2026-05-02T11:41:27Z</time></trkpt><trkpt lat="46.326977808805424" lon="9.408773946853321"><ele>359.25</ele><time>2026-05-02T11:41:27.999Z</time></trkpt><trkpt lat="46.32689548108086" lon="9.40865773272989"><ele>357.0</ele><time>2026-05-02T11:41:28.999Z</time></trkpt><trkpt lat="46.32679545677688" lon="9.408567751002497"><ele>357.0</ele><time>2026-05-02T11:41:29.999Z</time></trkpt><trkpt lat="46.326675181667184" lon="9.408516658577547"><ele>357.0</ele><time>2026-05-02T11:41:30.999Z</time></trkpt><trkpt lat="46.32655222587774" lon="9.408484046772056"><ele>357.0</ele><time>2026-05-02T11:41:31.999Z</time></trkpt><trkpt lat="46.32643181930973" lon="9.40844144233649"><ele>357.0</ele><time>2026-05-02T11:41:32.999Z</time></trkpt><trkpt lat="46.3263146757904" lon="9.408399885369576"><ele>354.25</ele><time>2026-05-02T11:41:33.999Z</time></trkpt><trkpt lat="46.32620855690062" lon="9.408357525041998"><ele>351.5</ele><time>2026-05-02T11:41:34.999Z</time></trkpt><trkpt lat="46.326105545519475" lon="9.408299382703273"><ele>348.75</ele><time>2026-05-02T11:41:35.999Z</time></trkpt><trkpt lat="46.326008408018694" lon="9.40821593116772"><ele>346.0</ele><time>2026-05-02T11:41:36.999Z</time></trkpt><trkpt lat="46.32589648872269" lon="9.40813264975915"><ele>347.0</ele><time>2026-05-02T11:41:37.999Z</time></trkpt><trkpt lat="46.32583084444463" lon="9.407991022064511"><ele>348.0</ele><time>2026-05-02T11:41:38.999Z</time></trkpt><trkpt lat="46.3257400103519" lon="9.407896589873365"><ele>349.0</ele><time>2026-05-02T11:41:39.999Z</time></trkpt><trkpt lat="46.3256671765065" lon="9.407782530975688"><ele>350.0</ele><time>2026-05-02T11:41:40.999Z</time></trkpt><trkpt lat="46.325590071907484" lon="9.407662509690125"><ele>347.5</ele><time>2026-05-02T11:41:41.999Z</time></trkpt><trkpt lat="46.325532653285656" lon="9.407514383226047"><ele>345.0</ele><time>2026-05-02T11:41:42.999Z</time></trkpt><trkpt lat="46.325469544363735" lon="9.40736849460787"><ele>342.5</ele><time>2026-05-02T11:41:43.999Z</time></trkpt><trkpt lat="46.325430766924526" lon="9.407213764442442"><ele>340.0</ele><time>2026-05-02T11:41:44.999Z</time></trkpt><trkpt lat="46.32539931630611" lon="9.407058341597708"><ele>338.75</ele><time>2026-05-02T11:41:45.999Z</time></trkpt><trkpt lat="46.32536649826147" lon="9.406906100193495"><ele>337.5</ele><time>2026-05-02T11:41:46.999Z</time></trkpt><trkpt lat="46.32531792218814" lon="9.406718631886495"><ele>336.25</ele><time>2026-05-02T11:41:47.999Z</time></trkpt><trkpt lat="46.32527497929744" lon="9.406540381052409"><ele>335.0</ele><time>2026-05-02T11:41:48.999Z</time></trkpt><trkpt lat="46.325230222134735" lon="9.406348769387018"><ele>336.0</ele><time>2026-05-02T11:41:49.999Z</time></trkpt><trkpt lat="46.32518091828602" lon="9.40619297605613"><ele>337.0</ele><time>2026-05-02T11:41:50.999Z</time></trkpt><trkpt lat="46.32512987026406" lon="9.406020644425945"><ele>338.0</ele><time>2026-05-02T11:41:51.999Z</time></trkpt><trkpt lat="46.32508990360905" lon="9.405853576649376"><ele>339.0</ele><time>2026-05-02T11:41:52.999Z</time></trkpt><trkpt lat="46.32504291959432" lon="9.405692337357674"><ele>339.0</ele><time>2026-05-02T11:41:53.999Z</time></trkpt><trkpt lat="46.32497989135204" lon="9.405544624163266"><ele>339.0</ele><time>2026-05-02T11:41:54.999Z</time></trkpt><trkpt lat="46.32492179575738" lon="9.405404194240528"><ele>339.0</ele><time>2026-05-02T11:41:55.999Z</time></trkpt><trkpt lat="46.32486960152518" lon="9.405272231293836"><ele>339.0</ele><time>2026-05-02T11:41:56.999Z</time></trkpt><trkpt lat="46.32481901400357" lon="9.40513784426368"><ele>339.0</ele><time>2026-05-02T11:41:57.999Z</time></trkpt><trkpt lat="46.32477093310061" lon="9.40499893035191"><ele>337.25</ele><time>2026-05-02T11:41:58.999Z</time></trkpt><trkpt lat="46.32471842161882" lon="9.404844010775548"><ele>335.5</ele><time>2026-05-02T11:41:59.999Z</time></trkpt><trkpt lat="46.32465926285165" lon="9.404694284043128"><ele>333.75</ele><time>2026-05-02T11:42:00.999Z</time></trkpt><trkpt lat="46.32460000053208" lon="9.40455386422556"><ele>332.0</ele><time>2026-05-02T11:42:01.999Z</time></trkpt><trkpt lat="46.32454398254372" lon="9.40441302689566"><ele>331.8</ele><time>2026-05-02T11:42:02.999Z</time></trkpt><trkpt lat="46.32449113598852" lon="9.404281085701047"><ele>331.6</ele><time>2026-05-02T11:42:03.999Z</time></trkpt><trkpt lat="46.324438938689354" lon="9.404155577677853"><ele>331.40000000000003</ele><time>2026-05-02T11:42:04.999Z</time></trkpt><trkpt lat="46.32439240399361" lon="9.404037355098593"><ele>331.20000000000005</ele><time>2026-05-02T11:42:05.999Z</time></trkpt><trkpt lat="46.32434243754457" lon="9.403919814935358"><ele>331.0</ele><time>2026-05-02T11:42:06.999Z</time></trkpt><trkpt lat="46.324296608856436" lon="9.403803809742161"><ele>331.0</ele><time>2026-05-02T11:42:07.999Z</time></trkpt><trkpt lat="46.32425236214491" lon="9.403689626633954"><ele>331.0</ele><time>2026-05-02T11:42:08.999Z</time></trkpt><trkpt lat="46.32421158443717" lon="9.403586313896477"><ele>331.0</ele><time>2026-05-02T11:42:09.999Z</time></trkpt><trkpt lat="46.324173840839904" lon="9.403485715981569"><ele>331.0</ele><time>2026-05-02T11:42:10.999Z</time></trkpt><trkpt lat="46.324128680689704" lon="9.403383301163704"><ele>331.0</ele><time>2026-05-02T11:42:11.999Z</time></trkpt><trkpt lat="46.324084858125374" lon="9.403269837230736"><ele>331.0</ele><time>2026-05-02T11:42:12.999Z</time></trkpt><trkpt lat="46.32403894819286" lon="9.403155349369147"><ele>331.0</ele><time>2026-05-02T11:42:13.999Z</time></trkpt><trkpt lat="46.32399830779277" lon="9.403047454790167"><ele>331.0</ele><time>2026-05-02T11:42:14.999Z</time></trkpt><trkpt lat="46.32396170046374" lon="9.402946506274048"><ele>331.0</ele><time>2026-05-02T11:42:15.999Z</time></trkpt><trkpt lat="46.323928638559" lon="9.402860640410681"><ele>331.0</ele><time>2026-05-02T11:42:16.999Z</time></trkpt><trkpt lat="46.32386850624694" lon="9.402736597217256"><ele>331.0</ele><time>2026-05-02T11:42:18.999Z</time></trkpt><trkpt lat="46.32383341079671" lon="9.402620235425854"><ele>331.0</ele><time>2026-05-02T11:42:20.999Z</time></trkpt><trkpt lat="46.32378956335417" lon="9.402510171324284"><ele>330.4</ele><time>2026-05-02T11:42:22.999Z</time></trkpt><trkpt lat="46.32372873428903" lon="9.402351730245242"><ele>329.8</ele><time>2026-05-02T11:42:24.999Z</time></trkpt><trkpt lat="46.32369426930702" lon="9.402252157905444"><ele>329.2</ele><time>2026-05-02T11:42:25.999Z</time></trkpt><trkpt lat="46.32365517322465" lon="9.402141992953654"><ele>328.59999999999997</ele><time>2026-05-02T11:42:26.999Z</time></trkpt><trkpt lat="46.32360911152721" lon="9.402018475733986"><ele>328.0</ele><time>2026-05-02T11:42:27.999Z</time></trkpt><trkpt lat="46.32357151191086" lon="9.401918370512167"><ele>328.0</ele><time>2026-05-02T11:42:28.999Z</time></trkpt><trkpt lat="46.32353314913732" lon="9.40182460473865"><ele>328.0</ele><time>2026-05-02T11:42:29.999Z</time></trkpt><trkpt lat="46.32348714579497" lon="9.401727993316621"><ele>328.0</ele><time>2026-05-02T11:42:30.999Z</time></trkpt><trkpt lat="46.32344337456772" lon="9.401615805522729"><ele>328.0</ele><time>2026-05-02T11:42:31.999Z</time></trkpt><trkpt lat="46.323400421155675" lon="9.401493929374313"><ele>328.0</ele><time>2026-05-02T11:42:32.999Z</time></trkpt><trkpt lat="46.32335365327867" lon="9.401361729203058"><ele>328.0</ele><time>2026-05-02T11:42:33.999Z</time></trkpt><trkpt lat="46.323301734466035" lon="9.401229900201827"><ele>327.4</ele><time>2026-05-02T11:42:34.999Z</time></trkpt><trkpt lat="46.32324924680346" lon="9.401098914157833"><ele>326.79999999999995</ele><time>2026-05-02T11:42:35.999Z</time></trkpt><trkpt lat="46.32319141998014" lon="9.400963677198007"><ele>326.2</ele><time>2026-05-02T11:42:36.999Z</time></trkpt><trkpt lat="46.32314452563366" lon="9.4008440396555"><ele>325.6</ele><time>2026-05-02T11:42:37.999Z</time></trkpt><trkpt lat="46.32310355523213" lon="9.400693096125579"><ele>325.0</ele><time>2026-05-02T11:42:38.999Z</time></trkpt><trkpt lat="46.32303286973453" lon="9.400557446196819"><ele>326.5</ele><time>2026-05-02T11:42:39.999Z</time></trkpt><trkpt lat="46.3229698383243" lon="9.400391233981852"><ele>328.0</ele><time>2026-05-02T11:42:40.999Z</time></trkpt><trkpt lat="46.322886605970886" lon="9.400219362315438"><ele>329.5</ele><time>2026-05-02T11:42:42Z</time></trkpt><trkpt lat="46.32281752659212" lon="9.40006825886989"><ele>331.0</ele><time>2026-05-02T11:42:43Z</time></trkpt><trkpt lat="46.32274808060619" lon="9.39991387564435"><ele>331.0</ele><time>2026-05-02T11:42:44Z</time></trkpt><trkpt lat="46.322683206648705" lon="9.39975797545204"><ele>331.0</ele><time>2026-05-02T11:42:45Z</time></trkpt><trkpt lat="46.32262083858433" lon="9.399608758460857"><ele>331.0</ele><time>2026-05-02T11:42:46Z</time></trkpt><trkpt lat="46.32256812082669" lon="9.399467313867046"><ele>331.0</ele><time>2026-05-02T11:42:47Z</time></trkpt><trkpt lat="46.32251335756222" lon="9.399329343025506"><ele>331.8</ele><time>2026-05-02T11:42:48Z</time></trkpt><trkpt lat="46.32246335084379" lon="9.399198218834636"><ele>332.6</ele><time>2026-05-02T11:42:49Z</time></trkpt><trkpt lat="46.32242014540521" lon="9.399079832088228"><ele>333.4</ele><time>2026-05-02T11:42:50Z</time></trkpt><trkpt lat="46.3223641882422" lon="9.398956588147806"><ele>334.2</ele><time>2026-05-02T11:42:51Z</time></trkpt><trkpt lat="46.32231470884738" lon="9.398827559436123"><ele>335.0</ele><time>2026-05-02T11:42:52Z</time></trkpt><trkpt lat="46.32226055813462" lon="9.398695380795722"><ele>333.4</ele><time>2026-05-02T11:42:53Z</time></trkpt><trkpt lat="46.322197814706854" lon="9.39856604077227"><ele>331.8</ele><time>2026-05-02T11:42:54Z</time></trkpt><trkpt lat="46.3221348610685" lon="9.398448243232563"><ele>330.20000000000005</ele><time>2026-05-02T11:42:55Z</time></trkpt><trkpt lat="46.32204876505963" lon="9.39833253134779"><ele>328.6</ele><time>2026-05-02T11:42:56Z</time></trkpt><trkpt lat="46.32196257494385" lon="9.398226679798071"><ele>327.0</ele><time>2026-05-02T11:42:57Z</time></trkpt><trkpt lat="46.321864953163654" lon="9.398134422968287"><ele>327.0</ele><time>2026-05-02T11:42:58Z</time></trkpt><trkpt lat="46.32176039108304" lon="9.398055299165936"><ele>327.0</ele><time>2026-05-02T11:42:59Z</time></trkpt><trkpt lat="46.32166490113294" lon="9.397978740794159"><ele>327.0</ele><time>2026-05-02T11:43:00Z</time></trkpt><trkpt lat="46.321561751944635" lon="9.397921729716819"><ele>327.0</ele><time>2026-05-02T11:43:01Z</time></trkpt><trkpt lat="46.3214745406883" lon="9.397877645949285"><ele>327.0</ele><time>2026-05-02T11:43:02Z</time></trkpt><trkpt lat="46.32138987190603" lon="9.39783974775268"><ele>326.8</ele><time>2026-05-02T11:43:03Z</time></trkpt><trkpt lat="46.3212855689251" lon="9.397792558386998"><ele>326.6</ele><time>2026-05-02T11:43:05Z</time></trkpt><trkpt lat="46.32119626476058" lon="9.397744819085668"><ele>326.40000000000003</ele><time>2026-05-02T11:43:07Z</time></trkpt><trkpt lat="46.321102173582" lon="9.397700245849405"><ele>326.20000000000005</ele><time>2026-05-02T11:43:09Z</time></trkpt><trkpt lat="46.32101130421335" lon="9.397669931979268"><ele>326.0</ele><time>2026-05-02T11:43:11Z</time></trkpt><trkpt lat="46.32090160679658" lon="9.397626456659378"><ele>326.0</ele><time>2026-05-02T11:43:13Z</time></trkpt><trkpt lat="46.320838224596585" lon="9.397643726914554"><ele>326.0</ele><time>2026-05-02T11:43:14Z</time></trkpt><trkpt lat="46.32077816105413" lon="9.397691642683585"><ele>326.0</ele><time>2026-05-02T11:43:15Z</time></trkpt><trkpt lat="46.3207412488238" lon="9.397790085224782"><ele>326.0</ele><time>2026-05-02T11:43:16Z</time></trkpt><trkpt lat="46.32069666058416" lon="9.397881523093501"><ele>326.0</ele><time>2026-05-02T11:43:17Z</time></trkpt><trkpt lat="46.320644487007115" lon="9.397949100292422"><ele>326.0</ele><time>2026-05-02T11:43:18Z</time></trkpt><trkpt lat="46.32056144860302" lon="9.39800552553131"><ele>326.0</ele><time>2026-05-02T11:43:19Z</time></trkpt><trkpt lat="46.32048742797787" lon="9.398037394833347"><ele>325.75</ele><time>2026-05-02T11:43:20Z</time></trkpt><trkpt lat="46.320384668198564" lon="9.398124114546205"><ele>325.5</ele><time>2026-05-02T11:43:21Z</time></trkpt><trkpt lat="46.3202966371312" lon="9.398220195661192"><ele>325.25</ele><time>2026-05-02T11:43:22Z</time></trkpt><trkpt lat="46.320189792747755" lon="9.398309951619447"><ele>325.0</ele><time>2026-05-02T11:43:23Z</time></trkpt><trkpt lat="46.32008435482379" lon="9.398397187028435"><ele>325.0</ele><time>2026-05-02T11:43:24Z</time></trkpt><trkpt lat="46.31997397476631" lon="9.398484684707404"><ele>325.0</ele><time>2026-05-02T11:43:25Z</time></trkpt><trkpt lat="46.319878337911106" lon="9.398561118451049"><ele>325.0</ele><time>2026-05-02T11:43:26Z</time></trkpt><trkpt lat="46.31977561766029" lon="9.39866043679098"><ele>325.0</ele><time>2026-05-02T11:43:27Z</time></trkpt><trkpt lat="46.3196621513381" lon="9.398750754490608"><ele>323.5</ele><time>2026-05-02T11:43:28Z</time></trkpt><trkpt lat="46.319552692312584" lon="9.398850010303379"><ele>322.0</ele><time>2026-05-02T11:43:29Z</time></trkpt><trkpt lat="46.319429871997315" lon="9.398946061802436"><ele>320.5</ele><time>2026-05-02T11:43:30Z</time></trkpt><trkpt lat="46.31930246240985" lon="9.399061305536927"><ele>319.0</ele><time>2026-05-02T11:43:31Z</time></trkpt><trkpt lat="46.31917879450887" lon="9.399157849125064"><ele>319.0</ele><time>2026-05-02T11:43:32Z</time></trkpt><trkpt lat="46.31905636191368" lon="9.399258957935183"><ele>319.0</ele><time>2026-05-02T11:43:33Z</time></trkpt><trkpt lat="46.318949332781756" lon="9.39936126006934"><ele>319.0</ele><time>2026-05-02T11:43:34Z</time></trkpt><trkpt lat="46.318860613151394" lon="9.399428837065198"><ele>319.0</ele><time>2026-05-02T11:43:35Z</time></trkpt><trkpt lat="46.31877774182601" lon="9.399513140814479"><ele>319.79999999999995</ele><time>2026-05-02T11:43:36Z</time></trkpt><trkpt lat="46.31869619105591" lon="9.399588096488275"><ele>320.59999999999997</ele><time>2026-05-02T11:43:37Z</time></trkpt><trkpt lat="46.31861817528354" lon="9.399656953448783"><ele>321.4</ele><time>2026-05-02T11:43:38Z</time></trkpt><trkpt lat="46.3185382625317" lon="9.399708146246414"><ele>322.2</ele><time>2026-05-02T11:43:39Z</time></trkpt><trkpt lat="46.31845199446455" lon="9.399745664305208"><ele>323.0</ele><time>2026-05-02T11:43:40Z</time></trkpt><trkpt lat="46.31834563421281" lon="9.399775929950426"><ele>323.2</ele><time>2026-05-02T11:43:41Z</time></trkpt><trkpt lat="46.31824074429034" lon="9.399796430702628"><ele>323.4</ele><time>2026-05-02T11:43:42Z</time></trkpt><trkpt lat="46.31813031549037" lon="9.39980438600789"><ele>323.59999999999997</ele><time>2026-05-02T11:43:42.999Z</time></trkpt><trkpt lat="46.31804025154589" lon="9.399808245149911"><ele>323.79999999999995</ele><time>2026-05-02T11:43:43.999Z</time></trkpt><trkpt lat="46.31793421730992" lon="9.399809411756829"><ele>324.0</ele><time>2026-05-02T11:43:44.999Z</time></trkpt><trkpt lat="46.31782104320709" lon="9.399798279528168"><ele>323.5</ele><time>2026-05-02T11:43:45.999Z</time></trkpt><trkpt lat="46.31770101502218" lon="9.399782140204778"><ele>323.0</ele><time>2026-05-02T11:43:46.999Z</time></trkpt><trkpt lat="46.31758658815535" lon="9.399752974964597"><ele>322.5</ele><time>2026-05-02T11:43:47.999Z</time></trkpt><trkpt lat="46.317465855942785" lon="9.399690839055726"><ele>322.0</ele><time>2026-05-02T11:43:48.999Z</time></trkpt><trkpt lat="46.31735290372707" lon="9.399623200404163"><ele>320.25</ele><time>2026-05-02T11:43:49.999Z</time></trkpt><trkpt lat="46.31722925305625" lon="9.399561671109295"><ele>318.5</ele><time>2026-05-02T11:43:50.999Z</time></trkpt><trkpt lat="46.31712953995716" lon="9.39944699275895"><ele>316.75</ele><time>2026-05-02T11:43:51.999Z</time></trkpt><trkpt lat="46.317021599418716" lon="9.399360047622281"><ele>315.0</ele><time>2026-05-02T11:43:52.999Z</time></trkpt><trkpt lat="46.316919742679424" lon="9.399263662126303"><ele>315.0</ele><time>2026-05-02T11:43:53.999Z</time></trkpt><trkpt lat="46.31682820346886" lon="9.399159647522936"><ele>315.0</ele><time>2026-05-02T11:43:54.999Z</time></trkpt><trkpt lat="46.31672108408205" lon="9.399063451918789"><ele>315.0</ele><time>2026-05-02T11:43:55.999Z</time></trkpt><trkpt lat="46.31662540780738" lon="9.398940035589881"><ele>315.0</ele><time>2026-05-02T11:43:56.999Z</time></trkpt><trkpt lat="46.31652293514862" lon="9.398851547415383"><ele>314.2</ele><time>2026-05-02T11:43:57.999Z</time></trkpt><trkpt lat="46.316431020695354" lon="9.398775558410213"><ele>313.4</ele><time>2026-05-02T11:43:58.999Z</time></trkpt><trkpt lat="46.31634832275322" lon="9.398705641589677"><ele>312.6</ele><time>2026-05-02T11:43:59.999Z</time></trkpt><trkpt lat="46.31626685316868" lon="9.398642950979115"><ele>311.8</ele><time>2026-05-02T11:44:00.999Z</time></trkpt><trkpt lat="46.31619262815617" lon="9.398596170986629"><ele>311.0</ele><time>2026-05-02T11:44:01.999Z</time></trkpt><trkpt lat="46.3161070587696" lon="9.398564768754001"><ele>309.40000000000003</ele><time>2026-05-02T11:44:02.999Z</time></trkpt><trkpt lat="46.316050134713926" lon="9.398485726804806"><ele>307.8</ele><time>2026-05-02T11:44:03.999Z</time></trkpt><trkpt lat="46.31590817820286" lon="9.398387471171022"><ele>306.20000000000005</ele><time>2026-05-02T11:44:05.999Z</time></trkpt><trkpt lat="46.31582419705884" lon="9.398333618060978"><ele>304.6</ele><time>2026-05-02T11:44:06.999Z</time></trkpt><trkpt lat="46.315735346139164" lon="9.39828400196255"><ele>303.0</ele><time>2026-05-02T11:44:07.999Z</time></trkpt><trkpt lat="46.31564525019818" lon="9.398235340250835"><ele>302.2</ele><time>2026-05-02T11:44:08.999Z</time></trkpt><trkpt lat="46.31554448502846" lon="9.398188152483357"><ele>301.4</ele><time>2026-05-02T11:44:09.999Z</time></trkpt><trkpt lat="46.31544249739505" lon="9.39814270903104"><ele>300.59999999999997</ele><time>2026-05-02T11:44:10.999Z</time></trkpt><trkpt lat="46.315338493590716" lon="9.398097611332895"><ele>299.8</ele><time>2026-05-02T11:44:11.999Z</time></trkpt><trkpt lat="46.31523325061603" lon="9.398049855488884"><ele>299.0</ele><time>2026-05-02T11:44:12.999Z</time></trkpt><trkpt lat="46.31512982018322" lon="9.398010310435442"><ele>298.75</ele><time>2026-05-02T11:44:13.999Z</time></trkpt><trkpt lat="46.315020351953684" lon="9.39797107379792"><ele>298.5</ele><time>2026-05-02T11:44:14.999Z</time></trkpt><trkpt lat="46.31489829932831" lon="9.397926738663617"><ele>298.25</ele><time>2026-05-02T11:44:15.999Z</time></trkpt><trkpt lat="46.31477275171834" lon="9.397879042899415"><ele>298.0</ele><time>2026-05-02T11:44:16.999Z</time></trkpt><trkpt lat="46.31463358107088" lon="9.397834405529194"><ele>298.0</ele><time>2026-05-02T11:44:17.999Z</time></trkpt><trkpt lat="46.31448333120839" lon="9.397784997273263"><ele>298.0</ele><time>2026-05-02T11:44:18.999Z</time></trkpt><trkpt lat="46.3143346870232" lon="9.3977247155886"><ele>298.0</ele><time>2026-05-02T11:44:19.999Z</time></trkpt><trkpt lat="46.31416672364363" lon="9.397656207603244"><ele>298.0</ele><time>2026-05-02T11:44:20.999Z</time></trkpt><trkpt lat="46.31393695221906" lon="9.397613482200825"><ele>298.0</ele><time>2026-05-02T11:44:21.999Z</time></trkpt><trkpt lat="46.31367255597256" lon="9.397576969250181"><ele>298.0</ele><time>2026-05-02T11:44:22.999Z</time></trkpt><trkpt lat="46.31351139663187" lon="9.397430660214976"><ele>298.0</ele><time>2026-05-02T11:44:24.999Z</time></trkpt><trkpt lat="46.31333736769454" lon="9.39734903746008"><ele>298.0</ele><time>2026-05-02T11:44:25.999Z</time></trkpt><trkpt lat="46.313158730008325" lon="9.397275838687923"><ele>298.0</ele><time>2026-05-02T11:44:26.999Z</time></trkpt><trkpt lat="46.312972702576374" lon="9.397214856639785"><ele>298.0</ele><time>2026-05-02T11:44:27.999Z</time></trkpt><trkpt lat="46.31278792304932" lon="9.397153112541066"><ele>298.0</ele><time>2026-05-02T11:44:28.999Z</time></trkpt><trkpt lat="46.31261007134392" lon="9.397096117845415"><ele>297.0</ele><time>2026-05-02T11:44:29.999Z</time></trkpt><trkpt lat="46.31243522822924" lon="9.397037440157419"><ele>296.0</ele><time>2026-05-02T11:44:30.999Z</time></trkpt><trkpt lat="46.3122641270448" lon="9.396977210985806"><ele>295.0</ele><time>2026-05-02T11:44:31.999Z</time></trkpt><trkpt lat="46.312106669292746" lon="9.396916955845272"><ele>295.0</ele><time>2026-05-02T11:44:32.999Z</time></trkpt><trkpt lat="46.3119528945894" lon="9.396865743241547"><ele>295.0</ele><time>2026-05-02T11:44:33.999Z</time></trkpt><trkpt lat="46.311800471625915" lon="9.396797580958932"><ele>295.0</ele><time>2026-05-02T11:44:34.999Z</time></trkpt><trkpt lat="46.31165148245393" lon="9.396732292199774"><ele>295.0</ele><time>2026-05-02T11:44:35.999Z</time></trkpt><trkpt lat="46.311512932787586" lon="9.396673877721431"><ele>295.0</ele><time>2026-05-02T11:44:36.999Z</time></trkpt><trkpt lat="46.31138391589476" lon="9.396626845369015"><ele>295.0</ele><time>2026-05-02T11:44:37.999Z</time></trkpt><trkpt lat="46.31126573628643" lon="9.39658478431114"><ele>295.0</ele><time>2026-05-02T11:44:38.999Z</time></trkpt><trkpt lat="46.3111603726931" lon="9.396552083420112"><ele>294.6</ele><time>2026-05-02T11:44:39.999Z</time></trkpt><trkpt lat="46.311070810109726" lon="9.396515236916"><ele>294.2</ele><time>2026-05-02T11:44:40.999Z</time></trkpt><trkpt lat="46.31100216740819" lon="9.396440922074747"><ele>293.8</ele><time>2026-05-02T11:44:41.999Z</time></trkpt><trkpt lat="46.31094677686626" lon="9.396338590939658"><ele>293.4</ele><time>2026-05-02T11:44:42.999Z</time></trkpt><trkpt lat="46.310876838038425" lon="9.396258509700631"><ele>293.0</ele><time>2026-05-02T11:44:43.999Z</time></trkpt><trkpt lat="46.31077671417718" lon="9.396235087616391"><ele>292.75</ele><time>2026-05-02T11:44:44.999Z</time></trkpt><trkpt lat="46.31067442332417" lon="9.396280319444195"><ele>292.5</ele><time>2026-05-02T11:44:45.999Z</time></trkpt><trkpt lat="46.310563544265456" lon="9.396350374638212"><ele>292.25</ele><time>2026-05-02T11:44:46.999Z</time></trkpt><trkpt lat="46.310432424525104" lon="9.39634763822371"><ele>292.0</ele><time>2026-05-02T11:44:47.999Z</time></trkpt><trkpt lat="46.31031570617301" lon="9.396258381866861"><ele>292.0</ele><time>2026-05-02T11:44:48.999Z</time></trkpt><trkpt lat="46.31017794566805" lon="9.396217202834375"><ele>292.0</ele><time>2026-05-02T11:44:49.999Z</time></trkpt><trkpt lat="46.310050653448414" lon="9.396160214285198"><ele>292.0</ele><time>2026-05-02T11:44:50.999Z</time></trkpt><trkpt lat="46.30992408841014" lon="9.396103865992796"><ele>292.0</ele><time>2026-05-02T11:44:51.999Z</time></trkpt><trkpt lat="46.309787371000915" lon="9.396038707869229"><ele>292.75</ele><time>2026-05-02T11:44:52.999Z</time></trkpt><trkpt lat="46.30964896867828" lon="9.395954494043117"><ele>293.5</ele><time>2026-05-02T11:44:53.999Z</time></trkpt><trkpt lat="46.309512947194435" lon="9.395850035621308"><ele>294.25</ele><time>2026-05-02T11:44:55Z</time></trkpt><trkpt lat="46.30939082101536" lon="9.39573837549531"><ele>295.0</ele><time>2026-05-02T11:44:56Z</time></trkpt><trkpt lat="46.30928165165235" lon="9.395606792296457"><ele>294.0</ele><time>2026-05-02T11:44:57Z</time></trkpt><trkpt lat="46.30917442361326" lon="9.395458282737247"><ele>293.0</ele><time>2026-05-02T11:44:58Z</time></trkpt><trkpt lat="46.309077041059844" lon="9.39530440488523"><ele>292.0</ele><time>2026-05-02T11:44:59Z</time></trkpt><trkpt lat="46.30899892993691" lon="9.395126025002094"><ele>291.0</ele><time>2026-05-02T11:45:00Z</time></trkpt><trkpt lat="46.30892447115404" lon="9.394949886245477"><ele>292.0</ele><time>2026-05-02T11:45:01Z</time></trkpt><trkpt lat="46.308857099848865" lon="9.394755177666338"><ele>293.0</ele><time>2026-05-02T11:45:02Z</time></trkpt><trkpt lat="46.30880006494889" lon="9.39457857438322"><ele>294.0</ele><time>2026-05-02T11:45:03Z</time></trkpt><trkpt lat="46.30873029296451" lon="9.394389602371684"><ele>295.0</ele><time>2026-05-02T11:45:04Z</time></trkpt><trkpt lat="46.30866126764466" lon="9.394201175540745"><ele>295.0</ele><time>2026-05-02T11:45:05Z</time></trkpt><trkpt lat="46.3085937105704" lon="9.393998152649784"><ele>295.0</ele><time>2026-05-02T11:45:06Z</time></trkpt><trkpt lat="46.30851824628492" lon="9.393755551562093"><ele>295.0</ele><time>2026-05-02T11:45:07Z</time></trkpt><trkpt lat="46.30844667654229" lon="9.393549933293441"><ele>294.25</ele><time>2026-05-02T11:45:08Z</time></trkpt><trkpt lat="46.30837497798696" lon="9.393344637761265"><ele>293.5</ele><time>2026-05-02T11:45:09Z</time></trkpt><trkpt lat="46.30832179628337" lon="9.393155417653928"><ele>292.75</ele><time>2026-05-02T11:45:10Z</time></trkpt><trkpt lat="46.30826180411486" lon="9.392966719037434"><ele>292.0</ele><time>2026-05-02T11:45:11Z</time></trkpt><trkpt lat="46.308163535372174" lon="9.392772445662406"><ele>292.66666666666663</ele><time>2026-05-02T11:45:12Z</time></trkpt><trkpt lat="46.308079364336784" lon="9.39258821844664"><ele>293.3333333333333</ele><time>2026-05-02T11:45:13Z</time></trkpt><trkpt lat="46.30797297525404" lon="9.39241088562551"><ele>294.0</ele><time>2026-05-02T11:45:14Z</time></trkpt><trkpt lat="46.30785160647374" lon="9.392252819113569"><ele>292.0</ele><time>2026-05-02T11:45:15Z</time></trkpt><trkpt lat="46.30772354037575" lon="9.392105995044517"><ele>290.0</ele><time>2026-05-02T11:45:16Z</time></trkpt><trkpt lat="46.307584447999346" lon="9.391958046164188"><ele>288.0</ele><time>2026-05-02T11:45:17Z</time></trkpt><trkpt lat="46.30742710218075" lon="9.39184174943759"><ele>288.0</ele><time>2026-05-02T11:45:18Z</time></trkpt><trkpt lat="46.307277838543115" lon="9.391725591555211"><ele>288.0</ele><time>2026-05-02T11:45:19Z</time></trkpt><trkpt lat="46.30714367354996" lon="9.391595637679227"><ele>288.0</ele><time>2026-05-02T11:45:20Z</time></trkpt><trkpt lat="46.30700812085671" lon="9.391465880222354"><ele>287.6666666666667</ele><time>2026-05-02T11:45:21Z</time></trkpt><trkpt lat="46.306873807945884" lon="9.391340804184633"><ele>287.33333333333337</ele><time>2026-05-02T11:45:22Z</time></trkpt><trkpt lat="46.306771875898164" lon="9.391185443536756"><ele>287.0</ele><time>2026-05-02T11:45:23Z</time></trkpt><trkpt lat="46.30661909058504" lon="9.391055927290772"><ele>287.0</ele><time>2026-05-02T11:45:24Z</time></trkpt><trkpt lat="46.30646946857031" lon="9.390916147202425"><ele>287.0</ele><time>2026-05-02T11:45:25Z</time></trkpt><trkpt lat="46.30632073470208" lon="9.390782392494058"><ele>287.0</ele><time>2026-05-02T11:45:26Z</time></trkpt><trkpt lat="46.30616021201796" lon="9.390635661519916"><ele>286.33333333333337</ele><time>2026-05-02T11:45:27Z</time></trkpt><trkpt lat="46.3060137161134" lon="9.390502854601003"><ele>285.6666666666667</ele><time>2026-05-02T11:45:28Z</time></trkpt><trkpt lat="46.30585265505551" lon="9.390375864591347"><ele>285.0</ele><time>2026-05-02T11:45:29Z</time></trkpt><trkpt lat="46.305678916554015" lon="9.390249111672922"><ele>287.3333333333333</ele><time>2026-05-02T11:45:30Z</time></trkpt><trkpt lat="46.305532611680974" lon="9.390121767373179"><ele>289.66666666666663</ele><time>2026-05-02T11:45:31Z</time></trkpt><trkpt lat="46.305415426694616" lon="9.390021678889266"><ele>292.0</ele><time>2026-05-02T11:45:32Z</time></trkpt><trkpt lat="46.30525387930432" lon="9.389929045777087"><ele>292.0</ele><time>2026-05-02T11:45:33Z</time></trkpt><trkpt lat="46.30504202628173" lon="9.389812842816097"><ele>292.0</ele><time>2026-05-02T11:45:34Z</time></trkpt><trkpt lat="46.30479645579327" lon="9.389713166255795"><ele>290.3333333333333</ele><time>2026-05-02T11:45:35Z</time></trkpt><trkpt lat="46.3046069103654" lon="9.389635441733503"><ele>288.6666666666667</ele><time>2026-05-02T11:45:36Z</time></trkpt><trkpt lat="46.30441932531436" lon="9.389560634666632"><ele>287.0</ele><time>2026-05-02T11:45:37Z</time></trkpt><trkpt lat="46.304253719746235" lon="9.389489359198713"><ele>287.0</ele><time>2026-05-02T11:45:38Z</time></trkpt><trkpt lat="46.304122624693846" lon="9.389379289645095"><ele>287.0</ele><time>2026-05-02T11:45:39Z</time></trkpt><trkpt lat="46.303873624433365" lon="9.389363177315232"><ele>287.0</ele><time>2026-05-02T11:45:40Z</time></trkpt><trkpt lat="46.30368893147474" lon="9.389293986278275"><ele>286.6666666666667</ele><time>2026-05-02T11:45:41Z</time></trkpt><trkpt lat="46.3035203144873" lon="9.38919498379294"><ele>286.3333333333333</ele><time>2026-05-02T11:45:42Z</time></trkpt><trkpt lat="46.303351427747764" lon="9.389075042722386"><ele>286.0</ele><time>2026-05-02T11:45:43Z</time></trkpt><trkpt lat="46.30318856199242" lon="9.388954986808576"><ele>285.0</ele><time>2026-05-02T11:45:44Z</time></trkpt><trkpt lat="46.30296748485237" lon="9.38883340166325"><ele>284.0</ele><time>2026-05-02T11:45:45Z</time></trkpt><trkpt lat="46.30276066556861" lon="9.388705678956482"><ele>284.0</ele><time>2026-05-02T11:45:46Z</time></trkpt><trkpt lat="46.30263709442359" lon="9.388610320720861"><ele>284.0</ele><time>2026-05-02T11:45:47Z</time></trkpt><trkpt lat="46.30246771445807" lon="9.388480115055147"><ele>284.0</ele><time>2026-05-02T11:45:48Z</time></trkpt><trkpt lat="46.30229484293181" lon="9.38834603020822"><ele>283.33333333333337</ele><time>2026-05-02T11:45:49Z</time></trkpt><trkpt lat="46.30210433050453" lon="9.388233315666549"><ele>282.6666666666667</ele><time>2026-05-02T11:45:50Z</time></trkpt><trkpt lat="46.301911681978375" lon="9.388122268785738"><ele>282.0</ele><time>2026-05-02T11:45:51Z</time></trkpt><trkpt lat="46.301721057491164" lon="9.388014796281276"><ele>281.0</ele><time>2026-05-02T11:45:52Z</time></trkpt><trkpt lat="46.30153521560833" lon="9.387904411252503"><ele>280.0</ele><time>2026-05-02T11:45:53Z</time></trkpt><trkpt lat="46.301345467933324" lon="9.387788480878461"><ele>279.0</ele><time>2026-05-02T11:45:54Z</time></trkpt><trkpt lat="46.30116464052081" lon="9.387677566091275"><ele>279.0</ele><time>2026-05-02T11:45:55Z</time></trkpt><trkpt lat="46.300983090678564" lon="9.387565734233162"><ele>279.0</ele><time>2026-05-02T11:45:56Z</time></trkpt><trkpt lat="46.30079854504653" lon="9.387443376660533"><ele>279.0</ele><time>2026-05-02T11:45:56.999Z</time></trkpt><trkpt lat="46.30061053365167" lon="9.387322250942539"><ele>279.3333333333333</ele><time>2026-05-02T11:45:57.999Z</time></trkpt><trkpt lat="46.30041754864496" lon="9.387201060240068"><ele>279.66666666666663</ele><time>2026-05-02T11:45:58.999Z</time></trkpt><trkpt lat="46.30022719559098" lon="9.38707824025752"><ele>280.0</ele><time>2026-05-02T11:45:59.999Z</time></trkpt><trkpt lat="46.300060754860894" lon="9.386947947773528"><ele>278.0</ele><time>2026-05-02T11:46:00.999Z</time></trkpt><trkpt lat="46.299801484227665" lon="9.38681315572567"><ele>276.0</ele><time>2026-05-02T11:46:01.999Z</time></trkpt><trkpt lat="46.29954407392451" lon="9.386701310972985"><ele>276.0</ele><time>2026-05-02T11:46:02.999Z</time></trkpt><trkpt lat="46.29933320092348" lon="9.386654340343553"><ele>276.0</ele><time>2026-05-02T11:46:03.999Z</time></trkpt><trkpt lat="46.299167171688104" lon="9.386661836067542"><ele>276.0</ele><time>2026-05-02T11:46:04.999Z</time></trkpt><trkpt lat="46.29895505281757" lon="9.386635672130598"><ele>275.3333333333333</ele><time>2026-05-02T11:46:05.999Z</time></trkpt><trkpt lat="46.29873933199644" lon="9.386592967298597"><ele>274.66666666666663</ele><time>2026-05-02T11:46:06.999Z</time></trkpt><trkpt lat="46.298526180817746" lon="9.38655400145925"><ele>274.0</ele><time>2026-05-02T11:46:07.999Z</time></trkpt><trkpt lat="46.29831013466934" lon="9.386510418396698"><ele>274.0</ele><time>2026-05-02T11:46:08.999Z</time></trkpt><trkpt lat="46.29809188277889" lon="9.386474331500711"><ele>274.0</ele><time>2026-05-02T11:46:09.999Z</time></trkpt><trkpt lat="46.297874955462866" lon="9.386432772863989"><ele>274.0</ele><time>2026-05-02T11:46:10.999Z</time></trkpt><trkpt lat="46.297659326138266" lon="9.386389394419627"><ele>271.0</ele><time>2026-05-02T11:46:11.999Z</time></trkpt><trkpt lat="46.297443918283186" lon="9.386341387016227"><ele>268.0</ele><time>2026-05-02T11:46:12.999Z</time></trkpt><trkpt lat="46.29722603035945" lon="9.386302416006266"><ele>265.0</ele><time>2026-05-02T11:46:13.999Z</time></trkpt><trkpt lat="46.29700777451167" lon="9.386263073161127"><ele>264.3333333333333</ele><time>2026-05-02T11:46:14.999Z</time></trkpt><trkpt lat="46.296787446518636" lon="9.386226526531258"><ele>263.6666666666667</ele><time>2026-05-02T11:46:15.999Z</time></trkpt><trkpt lat="46.2965691264144" lon="9.386188005169823"><ele>263.0</ele><time>2026-05-02T11:46:16.999Z</time></trkpt><trkpt lat="46.296345570879694" lon="9.386140112033482"><ele>263.0</ele><time>2026-05-02T11:46:17.999Z</time></trkpt><trkpt lat="46.29612209669695" lon="9.386098189973076"><ele>263.0</ele><time>2026-05-02T11:46:18.999Z</time></trkpt><trkpt lat="46.2959006402892" lon="9.386053964477147"><ele>263.0</ele><time>2026-05-02T11:46:19.999Z</time></trkpt><trkpt lat="46.29568059219045" lon="9.38601868891174"><ele>262.0</ele><time>2026-05-02T11:46:20.999Z</time></trkpt><trkpt lat="46.295463474585205" lon="9.385981010978705"><ele>261.0</ele><time>2026-05-02T11:46:21.999Z</time></trkpt><trkpt lat="46.29525775039631" lon="9.385942900693259"><ele>260.0</ele><time>2026-05-02T11:46:22.999Z</time></trkpt><trkpt lat="46.29505303504719" lon="9.385902509248258"><ele>260.0</ele><time>2026-05-02T11:46:23.999Z</time></trkpt><trkpt lat="46.29485053355875" lon="9.38586482281238"><ele>260.0</ele><time>2026-05-02T11:46:24.999Z</time></trkpt><trkpt lat="46.29464682580011" lon="9.385822891688324"><ele>260.0</ele><time>2026-05-02T11:46:25.999Z</time></trkpt><trkpt lat="46.29444178229113" lon="9.385788592099912"><ele>259.0</ele><time>2026-05-02T11:46:26.999Z</time></trkpt><trkpt lat="46.294242325835306" lon="9.385763737271454"><ele>258.0</ele><time>2026-05-02T11:46:27.999Z</time></trkpt><trkpt lat="46.2940506217047" lon="9.38575376173426"><ele>257.0</ele><time>2026-05-02T11:46:28.999Z</time></trkpt><trkpt lat="46.29386420246278" lon="9.385767883439296"><ele>257.0</ele><time>2026-05-02T11:46:29.999Z</time></trkpt><trkpt lat="46.29367654918187" lon="9.38580813946523"><ele>257.0</ele><time>2026-05-02T11:46:30.999Z</time></trkpt><trkpt lat="46.29349560248657" lon="9.385865945738077"><ele>257.0</ele><time>2026-05-02T11:46:31.999Z</time></trkpt><trkpt lat="46.29333186057725" lon="9.385934653372958"><ele>257.0</ele><time>2026-05-02T11:46:32.999Z</time></trkpt><trkpt lat="46.293178703891314" lon="9.386013681365096"><ele>257.0</ele><time>2026-05-02T11:46:33.999Z</time></trkpt><trkpt lat="46.29302976593983" lon="9.386100772075544"><ele>257.0</ele><time>2026-05-02T11:46:34.999Z</time></trkpt><trkpt lat="46.2928852203446" lon="9.386202465287885"><ele>256.0</ele><time>2026-05-02T11:46:35.999Z</time></trkpt><trkpt lat="46.29274194287444" lon="9.386324052794155"><ele>255.0</ele><time>2026-05-02T11:46:36.999Z</time></trkpt><trkpt lat="46.29258429271182" lon="9.386467366403782"><ele>254.0</ele><time>2026-05-02T11:46:37.999Z</time></trkpt><trkpt lat="46.292430275795596" lon="9.386620559783395"><ele>254.0</ele><time>2026-05-02T11:46:38.999Z</time></trkpt><trkpt lat="46.292295875917176" lon="9.386776924687117"><ele>254.0</ele><time>2026-05-02T11:46:39.999Z</time></trkpt><trkpt lat="46.29213672952919" lon="9.386883512660365"><ele>254.0</ele><time>2026-05-02T11:46:40.999Z</time></trkpt><trkpt lat="46.292018480351196" lon="9.387081707608154"><ele>251.0</ele><time>2026-05-02T11:46:41.999Z</time></trkpt><trkpt lat="46.291775632070234" lon="9.387325188866148"><ele>248.0</ele><time>2026-05-02T11:46:42.999Z</time></trkpt><trkpt lat="46.29160134901327" lon="9.387508170827516"><ele>248.0</ele><time>2026-05-02T11:46:43.999Z</time></trkpt><trkpt lat="46.29143853096424" lon="9.387687012122539"><ele>248.0</ele><time>2026-05-02T11:46:44.999Z</time></trkpt><trkpt lat="46.2912826576639" lon="9.387868616934508"><ele>248.0</ele><time>2026-05-02T11:46:45.999Z</time></trkpt><trkpt lat="46.29111853948439" lon="9.388054207698236"><ele>248.0</ele><time>2026-05-02T11:46:46.999Z</time></trkpt><trkpt lat="46.29094973597411" lon="9.388231788816535"><ele>248.0</ele><time>2026-05-02T11:46:47.999Z</time></trkpt><trkpt lat="46.29077744941921" lon="9.388420781332622"><ele>248.0</ele><time>2026-05-02T11:46:48.999Z</time></trkpt><trkpt lat="46.29060586904787" lon="9.388607083394655"><ele>248.0</ele><time>2026-05-02T11:46:49.999Z</time></trkpt><trkpt lat="46.29043697520153" lon="9.388796435051907"><ele>248.0</ele><time>2026-05-02T11:46:50.999Z</time></trkpt><trkpt lat="46.290277357000264" lon="9.388952058092057"><ele>248.0</ele><time>2026-05-02T11:46:51.999Z</time></trkpt><trkpt lat="46.29009827369117" lon="9.389155076408548"><ele>248.0</ele><time>2026-05-02T11:46:52.999Z</time></trkpt><trkpt lat="46.289931655034366" lon="9.389331826652846"><ele>248.0</ele><time>2026-05-02T11:46:53.999Z</time></trkpt><trkpt lat="46.28975890616516" lon="9.389504720650267"><ele>248.0</ele><time>2026-05-02T11:46:54.999Z</time></trkpt><trkpt lat="46.289591493428446" lon="9.389659255645658"><ele>247.33333333333334</ele><time>2026-05-02T11:46:55.999Z</time></trkpt><trkpt lat="46.28944334736724" lon="9.389787994687909"><ele>246.66666666666669</ele><time>2026-05-02T11:46:56.999Z</time></trkpt><trkpt lat="46.28929639969696" lon="9.389896833405645"><ele>246.0</ele><time>2026-05-02T11:46:57.999Z</time></trkpt><trkpt lat="46.289159224233224" lon="9.389973792766392"><ele>246.0</ele><time>2026-05-02T11:46:58.999Z</time></trkpt><trkpt lat="46.289042127691616" lon="9.39004399086786"><ele>246.00000000000003</ele><time>2026-05-02T11:46:59.999Z</time></trkpt><trkpt lat="46.28893143484058" lon="9.390109146959473"><ele>246.00000000000003</ele><time>2026-05-02T11:47:00.999Z</time></trkpt><trkpt lat="46.28884325462731" lon="9.390163618645321"><ele>246.0</ele><time>2026-05-02T11:47:01.999Z</time></trkpt><trkpt lat="46.28876774071534" lon="9.390207053977988"><ele>246.0</ele><time>2026-05-02T11:47:02.999Z</time></trkpt><trkpt lat="46.288704273511044" lon="9.39023292288682"><ele>245.0</ele><time>2026-05-02T11:47:03.999Z</time></trkpt><trkpt lat="46.28859326564772" lon="9.390257972812284"><ele>244.00000000000003</ele><time>2026-05-02T11:47:05.999Z</time></trkpt><trkpt lat="46.28848273603003" lon="9.390232990745291"><ele>243.00000000000003</ele><time>2026-05-02T11:47:07.999Z</time></trkpt><trkpt lat="46.288369899328536" lon="9.390231739850387"><ele>242.0</ele><time>2026-05-02T11:47:09.999Z</time></trkpt><trkpt lat="46.28831197964429" lon="9.390291366727471"><ele>241.0</ele><time>2026-05-02T11:47:10.999Z</time></trkpt><trkpt lat="46.28826573009788" lon="9.390389223040481"><ele>240.99999999999997</ele><time>2026-05-02T11:47:11.999Z</time></trkpt><trkpt lat="46.28822039117915" lon="9.390477019817673"><ele>241.0</ele><time>2026-05-02T11:47:13Z</time></trkpt><trkpt lat="46.28814670144831" lon="9.39051616446133"><ele>241.0</ele><time>2026-05-02T11:47:14Z</time></trkpt><trkpt lat="46.288066384304656" lon="9.390516429941918"><ele>241.0</ele><time>2026-05-02T11:47:15Z</time></trkpt><trkpt lat="46.2879788051903" lon="9.390501420981328"><ele>240.99999999999997</ele><time>2026-05-02T11:47:16Z</time></trkpt><trkpt lat="46.287904630524935" lon="9.390519053643636"><ele>241.0</ele><time>2026-05-02T11:47:17Z</time></trkpt><trkpt lat="46.2877819522321" lon="9.390603396725444"><ele>241.33333333333331</ele><time>2026-05-02T11:47:18Z</time></trkpt><trkpt lat="46.28764398798618" lon="9.390836983375175"><ele>241.66666666666669</ele><time>2026-05-02T11:47:19Z</time></trkpt><trkpt lat="46.28750887585504" lon="9.390999701751756"><ele>242.0</ele><time>2026-05-02T11:47:20Z</time></trkpt><trkpt lat="46.287398317136024" lon="9.391089039225358"><ele>242.0</ele><time>2026-05-02T11:47:21Z</time></trkpt><trkpt lat="46.28727223127122" lon="9.39124266553927"><ele>242.0</ele><time>2026-05-02T11:47:22Z</time></trkpt><trkpt lat="46.28714366241878" lon="9.391459279459747"><ele>242.0</ele><time>2026-05-02T11:47:23Z</time></trkpt><trkpt lat="46.28698127145467" lon="9.391718734666915"><ele>241.0</ele><time>2026-05-02T11:47:24Z</time></trkpt><trkpt lat="46.28687194448127" lon="9.39146819942122"><ele>240.0</ele><time>2026-05-02T11:47:25Z</time></trkpt><trkpt lat="46.28673348602096" lon="9.391567260103923"><ele>239.0</ele><time>2026-05-02T11:47:26Z</time></trkpt><trkpt lat="46.28657895593796" lon="9.391676581507866"><ele>238.66666666666669</ele><time>2026-05-02T11:47:27Z</time></trkpt><trkpt lat="46.28640930264502" lon="9.391785026727472"><ele>238.33333333333331</ele><time>2026-05-02T11:47:28Z</time></trkpt><trkpt lat="46.28624564685502" lon="9.391891171577463"><ele>238.0</ele><time>2026-05-02T11:47:29Z</time></trkpt><trkpt lat="46.2860770670757" lon="9.392008928233848"><ele>238.0</ele><time>2026-05-02T11:47:30Z</time></trkpt><trkpt lat="46.285911920799194" lon="9.392112321612247"><ele>238.0</ele><time>2026-05-02T11:47:31Z</time></trkpt><trkpt lat="46.285740910686485" lon="9.392220885219846"><ele>238.0</ele><time>2026-05-02T11:47:32Z</time></trkpt><trkpt lat="46.285561316241136" lon="9.392293525498893"><ele>236.66666666666666</ele><time>2026-05-02T11:47:33Z</time></trkpt><trkpt lat="46.28538999394439" lon="9.3924056456043"><ele>235.33333333333331</ele><time>2026-05-02T11:47:34Z</time></trkpt><trkpt lat="46.28521831663082" lon="9.392518231816174"><ele>234.0</ele><time>2026-05-02T11:47:35Z</time></trkpt><trkpt lat="46.28504256777615" lon="9.392656400343528"><ele>234.0</ele><time>2026-05-02T11:47:36Z</time></trkpt><trkpt lat="46.28486590969272" lon="9.392773520311733"><ele>234.0</ele><time>2026-05-02T11:47:37Z</time></trkpt><trkpt lat="46.28469150767069" lon="9.3928619547885"><ele>234.0</ele><time>2026-05-02T11:47:38Z</time></trkpt><trkpt lat="46.28450933812182" lon="9.392977878567232"><ele>233.33333333333331</ele><time>2026-05-02T11:47:39Z</time></trkpt><trkpt lat="46.284330866763106" lon="9.393081124074296"><ele>232.66666666666666</ele><time>2026-05-02T11:47:40Z</time></trkpt><trkpt lat="46.28414444736021" lon="9.393177269702765"><ele>232.0</ele><time>2026-05-02T11:47:41Z</time></trkpt><trkpt lat="46.28395517928261" lon="9.393262744174525"><ele>232.33333333333331</ele><time>2026-05-02T11:47:42Z</time></trkpt><trkpt lat="46.283767624027995" lon="9.393346499064544"><ele>232.66666666666669</ele><time>2026-05-02T11:47:43Z</time></trkpt><trkpt lat="46.283580363877675" lon="9.393429939719837"><ele>233.0</ele><time>2026-05-02T11:47:44Z</time></trkpt><trkpt lat="46.28339298526306" lon="9.393513433162862"><ele>233.0</ele><time>2026-05-02T11:47:45Z</time></trkpt><trkpt lat="46.28320447449704" lon="9.393600440804235"><ele>233.0</ele><time>2026-05-02T11:47:46Z</time></trkpt><trkpt lat="46.28302342808257" lon="9.393712303894983"><ele>233.0</ele><time>2026-05-02T11:47:47Z</time></trkpt><trkpt lat="46.28284409655538" lon="9.393805959372976"><ele>231.66666666666669</ele><time>2026-05-02T11:47:48Z</time></trkpt><trkpt lat="46.282675750964266" lon="9.393909695544268"><ele>230.33333333333331</ele><time>2026-05-02T11:47:49Z</time></trkpt><trkpt lat="46.282490581671055" lon="9.39400094483184"><ele>229.0</ele><time>2026-05-02T11:47:50Z</time></trkpt><trkpt lat="46.282311487957436" lon="9.394113036511564"><ele>229.66666666666666</ele><time>2026-05-02T11:47:51Z</time></trkpt><trkpt lat="46.28213216691405" lon="9.39422570409207"><ele>230.33333333333331</ele><time>2026-05-02T11:47:52Z</time></trkpt><trkpt lat="46.28195087823501" lon="9.39433980343888"><ele>231.0</ele><time>2026-05-02T11:47:53Z</time></trkpt><trkpt lat="46.28177396283954" lon="9.394449867814574"><ele>231.0</ele><time>2026-05-02T11:47:54Z</time></trkpt><trkpt lat="46.28159501964958" lon="9.394561442720462"><ele>231.0</ele><time>2026-05-02T11:47:55Z</time></trkpt><trkpt lat="46.2814073229463" lon="9.394679528156907"><ele>231.0</ele><time>2026-05-02T11:47:56Z</time></trkpt><trkpt lat="46.28121585101438" lon="9.394800361851779"><ele>231.0</ele><time>2026-05-02T11:47:57Z</time></trkpt><trkpt lat="46.28102848810832" lon="9.394918602421518"><ele>231.0</ele><time>2026-05-02T11:47:58Z</time></trkpt><trkpt lat="46.28083063150399" lon="9.395043465347923"><ele>231.0</ele><time>2026-05-02T11:47:59Z</time></trkpt><trkpt lat="46.28063915366443" lon="9.39516430275168"><ele>229.66666666666669</ele><time>2026-05-02T11:48:00Z</time></trkpt><trkpt lat="46.280455026854064" lon="9.39530209840802"><ele>228.33333333333334</ele><time>2026-05-02T11:48:01Z</time></trkpt><trkpt lat="46.28026921394446" lon="9.3954039707537"><ele>227.0</ele><time>2026-05-02T11:48:02Z</time></trkpt><trkpt lat="46.28009737008849" lon="9.395492127247667"><ele>227.33333333333334</ele><time>2026-05-02T11:48:02.999Z</time></trkpt><trkpt lat="46.27991502782672" lon="9.39554340085499"><ele>227.66666666666669</ele><time>2026-05-02T11:48:03.999Z</time></trkpt><trkpt lat="46.27975593393825" lon="9.395611587769881"><ele>228.0</ele><time>2026-05-02T11:48:04.999Z</time></trkpt><trkpt lat="46.279650872709105" lon="9.395768798919544"><ele>228.0</ele><time>2026-05-02T11:48:05.999Z</time></trkpt><trkpt lat="46.27950609392901" lon="9.39587694555945"><ele>228.0</ele><time>2026-05-02T11:48:06.999Z</time></trkpt><trkpt lat="46.279375851002285" lon="9.395974828215458"><ele>228.0</ele><time>2026-05-02T11:48:07.999Z</time></trkpt><trkpt lat="46.27924383708548" lon="9.396041609304422"><ele>228.0</ele><time>2026-05-02T11:48:08.999Z</time></trkpt><trkpt lat="46.279126834182314" lon="9.396109332470422"><ele>228.0</ele><time>2026-05-02T11:48:09.999Z</time></trkpt><trkpt lat="46.27900211423703" lon="9.396181567387545"><ele>228.0</ele><time>2026-05-02T11:48:10.999Z</time></trkpt><trkpt lat="46.27887965092295" lon="9.396279306530579"><ele>228.0</ele><time>2026-05-02T11:48:11.999Z</time></trkpt><trkpt lat="46.27875311977287" lon="9.396360779486248"><ele>227.75</ele><time>2026-05-02T11:48:12.999Z</time></trkpt><trkpt lat="46.27862322923116" lon="9.396443922740195"><ele>227.5</ele><time>2026-05-02T11:48:13.999Z</time></trkpt><trkpt lat="46.2784937182277" lon="9.396516303373675"><ele>227.25</ele><time>2026-05-02T11:48:14.999Z</time></trkpt><trkpt lat="46.27836354820111" lon="9.396589702393571"><ele>227.0</ele><time>2026-05-02T11:48:15.999Z</time></trkpt><trkpt lat="46.27823501986122" lon="9.396669125040514"><ele>227.0</ele><time>2026-05-02T11:48:16.999Z</time></trkpt><trkpt lat="46.278109938797726" lon="9.396733155826261"><ele>227.0</ele><time>2026-05-02T11:48:17.999Z</time></trkpt><trkpt lat="46.27798212239823" lon="9.396780586361468"><ele>227.0</ele><time>2026-05-02T11:48:18.999Z</time></trkpt><trkpt lat="46.27784426986733" lon="9.39681697267401"><ele>227.0</ele><time>2026-05-02T11:48:19.999Z</time></trkpt><trkpt lat="46.27769233029909" lon="9.396821103430371"><ele>227.0</ele><time>2026-05-02T11:48:20.999Z</time></trkpt><trkpt lat="46.277525023734206" lon="9.396835775499582"><ele>227.0</ele><time>2026-05-02T11:48:21.999Z</time></trkpt><trkpt lat="46.27734992635364" lon="9.39684792027931"><ele>227.0</ele><time>2026-05-02T11:48:22.999Z</time></trkpt><trkpt lat="46.27717378256706" lon="9.396858845030446"><ele>227.0</ele><time>2026-05-02T11:48:23.999Z</time></trkpt><trkpt lat="46.27700266759415" lon="9.396918241583958"><ele>227.0</ele><time>2026-05-02T11:48:24.999Z</time></trkpt><trkpt lat="46.2768460878844" lon="9.396910202884953"><ele>227.0</ele><time>2026-05-02T11:48:25.999Z</time></trkpt><trkpt lat="46.276692767823164" lon="9.396907007108924"><ele>227.0</ele><time>2026-05-02T11:48:26.999Z</time></trkpt><trkpt lat="46.27654805304535" lon="9.396918083385978"><ele>227.0</ele><time>2026-05-02T11:48:27.999Z</time></trkpt><trkpt lat="46.276389383202755" lon="9.396924111540711"><ele>227.0</ele><time>2026-05-02T11:48:28.999Z</time></trkpt><trkpt lat="46.27622108468573" lon="9.396935539060516"><ele>226.33333333333334</ele><time>2026-05-02T11:48:29.999Z</time></trkpt><trkpt lat="46.27605129311239" lon="9.39696475525706"><ele>225.66666666666669</ele><time>2026-05-02T11:48:30.999Z</time></trkpt><trkpt lat="46.27588884333976" lon="9.397005248922008"><ele>225.0</ele><time>2026-05-02T11:48:31.999Z</time></trkpt><trkpt lat="46.27572636738898" lon="9.397018427624877"><ele>224.66666666666669</ele><time>2026-05-02T11:48:32.999Z</time></trkpt><trkpt lat="46.27556737554686" lon="9.397073916789068"><ele>224.33333333333334</ele><time>2026-05-02T11:48:33.999Z</time></trkpt><trkpt lat="46.27539472371882" lon="9.397102884676062"><ele>224.0</ele><time>2026-05-02T11:48:34.999Z</time></trkpt><trkpt lat="46.27522105379485" lon="9.39714160371117"><ele>224.33333333333334</ele><time>2026-05-02T11:48:35.999Z</time></trkpt><trkpt lat="46.27504346485348" lon="9.397171874854537"><ele>224.66666666666669</ele><time>2026-05-02T11:48:36.999Z</time></trkpt><trkpt lat="46.27488200110487" lon="9.39721471570979"><ele>225.0</ele><time>2026-05-02T11:48:37.999Z</time></trkpt><trkpt lat="46.27471722099416" lon="9.397252764932967"><ele>225.33333333333331</ele><time>2026-05-02T11:48:38.999Z</time></trkpt><trkpt lat="46.27454011714615" lon="9.397280976269618"><ele>225.66666666666666</ele><time>2026-05-02T11:48:39.999Z</time></trkpt><trkpt lat="46.27436839150345" lon="9.397313847478557"><ele>226.0</ele><time>2026-05-02T11:48:40.999Z</time></trkpt><trkpt lat="46.274190411993544" lon="9.3973509529628"><ele>226.0</ele><time>2026-05-02T11:48:41.999Z</time></trkpt><trkpt lat="46.27401792333405" lon="9.39740869339697"><ele>226.0</ele><time>2026-05-02T11:48:42.999Z</time></trkpt><trkpt lat="46.273838197837605" lon="9.397470038086905"><ele>226.0</ele><time>2026-05-02T11:48:43.999Z</time></trkpt><trkpt lat="46.27365648509471" lon="9.397531063193984"><ele>224.66666666666666</ele><time>2026-05-02T11:48:44.999Z</time></trkpt><trkpt lat="46.27347752282883" lon="9.397599284168592"><ele>223.33333333333331</ele><time>2026-05-02T11:48:45.999Z</time></trkpt><trkpt lat="46.27333987307709" lon="9.397626408356173"><ele>222.0</ele><time>2026-05-02T11:48:46.999Z</time></trkpt><trkpt lat="46.273115088931135" lon="9.397712758226287"><ele>221.0</ele><time>2026-05-02T11:48:47.999Z</time></trkpt><trkpt lat="46.272929786451186" lon="9.39777212792645"><ele>220.0</ele><time>2026-05-02T11:48:48.999Z</time></trkpt><trkpt lat="46.272745828056195" lon="9.39783540319712"><ele>219.0</ele><time>2026-05-02T11:48:49.999Z</time></trkpt><trkpt lat="46.272556292847554" lon="9.397896859750142"><ele>219.0</ele><time>2026-05-02T11:48:50.999Z</time></trkpt><trkpt lat="46.272376517585684" lon="9.397954377452086"><ele>219.0</ele><time>2026-05-02T11:48:51.999Z</time></trkpt><trkpt lat="46.27220935144058" lon="9.398008339186319"><ele>219.0</ele><time>2026-05-02T11:48:52.999Z</time></trkpt><trkpt lat="46.27204803413043" lon="9.398059174411602"><ele>219.0</ele><time>2026-05-02T11:48:53.999Z</time></trkpt><trkpt lat="46.27189753893025" lon="9.398137260442816"><ele>219.0</ele><time>2026-05-02T11:48:54.999Z</time></trkpt><trkpt lat="46.2717435096601" lon="9.39820269033828"><ele>219.0</ele><time>2026-05-02T11:48:55.999Z</time></trkpt><trkpt lat="46.271680209309565" lon="9.39840778770724"><ele>219.0</ele><time>2026-05-02T11:48:56.999Z</time></trkpt><trkpt lat="46.27159883109681" lon="9.398551350523698"><ele>219.0</ele><time>2026-05-02T11:48:57.999Z</time></trkpt><trkpt lat="46.27155427399392" lon="9.39871373536695"><ele>219.0</ele><time>2026-05-02T11:48:58.999Z</time></trkpt><trkpt lat="46.271529221788974" lon="9.398884210086955"><ele>219.0</ele><time>2026-05-02T11:49:00Z</time></trkpt><trkpt lat="46.271517834148206" lon="9.399057400380078"><ele>219.0</ele><time>2026-05-02T11:49:01Z</time></trkpt><trkpt lat="46.27151611729166" lon="9.39921698178007"><ele>219.0</ele><time>2026-05-02T11:49:02Z</time></trkpt><trkpt lat="46.27150546377634" lon="9.399379634096865"><ele>219.0</ele><time>2026-05-02T11:49:03Z</time></trkpt><trkpt lat="46.271479365609494" lon="9.399553103532382"><ele>219.0</ele><time>2026-05-02T11:49:04Z</time></trkpt><trkpt lat="46.27143053621843" lon="9.399717759692109"><ele>219.0</ele><time>2026-05-02T11:49:05Z</time></trkpt><trkpt lat="46.2713600220012" lon="9.399872649939606"><ele>219.0</ele><time>2026-05-02T11:49:06Z</time></trkpt><trkpt lat="46.271238434779185" lon="9.399981800529392"><ele>219.0</ele><time>2026-05-02T11:49:07Z</time></trkpt><trkpt lat="46.271114005565686" lon="9.40010073662679"><ele>219.0</ele><time>2026-05-02T11:49:08Z</time></trkpt><trkpt lat="46.27098119469083" lon="9.40023271878926"><ele>219.0</ele><time>2026-05-02T11:49:09Z</time></trkpt><trkpt lat="46.27084457854088" lon="9.400369560060636"><ele>219.0</ele><time>2026-05-02T11:49:10Z</time></trkpt><trkpt lat="46.2706268832029" lon="9.400556062665585"><ele>219.0</ele><time>2026-05-02T11:49:11Z</time></trkpt><trkpt lat="46.27053256004925" lon="9.400702354397103"><ele>219.0</ele><time>2026-05-02T11:49:12Z</time></trkpt><trkpt lat="46.27039235235218" lon="9.40086081598612"><ele>219.0</ele><time>2026-05-02T11:49:13Z</time></trkpt><trkpt lat="46.27024600880823" lon="9.401037706402667"><ele>219.0</ele><time>2026-05-02T11:49:14Z</time></trkpt><trkpt lat="46.27008064309921" lon="9.40122895564115"><ele>219.33333333333331</ele><time>2026-05-02T11:49:15Z</time></trkpt><trkpt lat="46.26992267490143" lon="9.40143717739018"><ele>219.66666666666666</ele><time>2026-05-02T11:49:16Z</time></trkpt><trkpt lat="46.26978721771668" lon="9.401647269396364"><ele>220.0</ele><time>2026-05-02T11:49:17Z</time></trkpt><trkpt lat="46.26965307070347" lon="9.401867415552136"><ele>219.0</ele><time>2026-05-02T11:49:18Z</time></trkpt><trkpt lat="46.26951023362507" lon="9.40210039531605"><ele>218.0</ele><time>2026-05-02T11:49:19Z</time></trkpt><trkpt lat="46.26936564185929" lon="9.402328462008834"><ele>217.0</ele><time>2026-05-02T11:49:20Z</time></trkpt><trkpt lat="46.26922458469464" lon="9.402564455184892"><ele>217.0</ele><time>2026-05-02T11:49:21Z</time></trkpt><trkpt lat="46.26908334339122" lon="9.402801956050734"><ele>217.0</ele><time>2026-05-02T11:49:22Z</time></trkpt><trkpt lat="46.268943714064484" lon="9.403028946409679"><ele>217.0</ele><time>2026-05-02T11:49:23Z</time></trkpt><trkpt lat="46.26879348571529" lon="9.403243410597522"><ele>216.5</ele><time>2026-05-02T11:49:24Z</time></trkpt><trkpt lat="46.26863646957236" lon="9.40348592583133"><ele>216.0</ele><time>2026-05-02T11:49:25Z</time></trkpt><trkpt lat="46.26847010562047" lon="9.403746699712661"><ele>216.66666666666669</ele><time>2026-05-02T11:49:26Z</time></trkpt><trkpt lat="46.2682760019062" lon="9.40399468756976"><ele>217.33333333333334</ele><time>2026-05-02T11:49:27Z</time></trkpt><trkpt lat="46.26816837024945" lon="9.404203154796935"><ele>218.0</ele><time>2026-05-02T11:49:28Z</time></trkpt><trkpt lat="46.268051998579395" lon="9.40439939609201"><ele>217.66666666666669</ele><time>2026-05-02T11:49:29Z</time></trkpt><trkpt lat="46.267929444847596" lon="9.404622394338915"><ele>217.33333333333331</ele><time>2026-05-02T11:49:30Z</time></trkpt><trkpt lat="46.267803866631894" lon="9.404830540067437"><ele>217.0</ele><time>2026-05-02T11:49:31Z</time></trkpt><trkpt lat="46.267686697544086" lon="9.405029915869397"><ele>217.0</ele><time>2026-05-02T11:49:32Z</time></trkpt><trkpt lat="46.26756620887179" lon="9.405229857277504"><ele>217.0</ele><time>2026-05-02T11:49:33Z</time></trkpt><trkpt lat="46.26742357857854" lon="9.405433930134887"><ele>217.0</ele><time>2026-05-02T11:49:34Z</time></trkpt><trkpt lat="46.26729661152966" lon="9.405637913241078"><ele>217.0</ele><time>2026-05-02T11:49:35Z</time></trkpt><trkpt lat="46.267164922924366" lon="9.405846999101504"><ele>217.0</ele><time>2026-05-02T11:49:36Z</time></trkpt><trkpt lat="46.267025932724735" lon="9.406047980431508"><ele>217.0</ele><time>2026-05-02T11:49:37Z</time></trkpt><trkpt lat="46.266869204965566" lon="9.406239138617083"><ele>216.0</ele><time>2026-05-02T11:49:38Z</time></trkpt><trkpt lat="46.266703697418095" lon="9.40642066062032"><ele>215.0</ele><time>2026-05-02T11:49:39Z</time></trkpt><trkpt lat="46.26653260701913" lon="9.406593692392569"><ele>214.0</ele><time>2026-05-02T11:49:40Z</time></trkpt><trkpt lat="46.26635819472271" lon="9.40676762436392"><ele>214.0</ele><time>2026-05-02T11:49:41Z</time></trkpt><trkpt lat="46.26618617962629" lon="9.406942106797365"><ele>214.0</ele><time>2026-05-02T11:49:42Z</time></trkpt><trkpt lat="46.26600423828594" lon="9.407103104657155"><ele>214.0</ele><time>2026-05-02T11:49:43Z</time></trkpt><trkpt lat="46.26582340307572" lon="9.407253123886617"><ele>212.66666666666666</ele><time>2026-05-02T11:49:44Z</time></trkpt><trkpt lat="46.26563302842861" lon="9.407397599444847"><ele>211.33333333333331</ele><time>2026-05-02T11:49:45Z</time></trkpt><trkpt lat="46.26545368965347" lon="9.407522325635933"><ele>210.0</ele><time>2026-05-02T11:49:46Z</time></trkpt><trkpt lat="46.26523223733627" lon="9.407637206266006"><ele>210.0</ele><time>2026-05-02T11:49:47Z</time></trkpt><trkpt lat="46.26495575896909" lon="9.407736218383205"><ele>210.0</ele><time>2026-05-02T11:49:48Z</time></trkpt><trkpt lat="46.26473429091844" lon="9.407839605996342"><ele>210.0</ele><time>2026-05-02T11:49:49Z</time></trkpt><trkpt lat="46.26462184300737" lon="9.407974152125716"><ele>210.0</ele><time>2026-05-02T11:49:50Z</time></trkpt><trkpt lat="46.264477256355576" lon="9.408090938305744"><ele>210.0</ele><time>2026-05-02T11:49:51Z</time></trkpt><trkpt lat="46.2643118928355" lon="9.408181463255982"><ele>210.0</ele><time>2026-05-02T11:49:52Z</time></trkpt><trkpt lat="46.26410635457087" lon="9.40831095869543"><ele>210.0</ele><time>2026-05-02T11:49:53Z</time></trkpt><trkpt lat="46.2639261482137" lon="9.408404315959341"><ele>210.0</ele><time>2026-05-02T11:49:54Z</time></trkpt><trkpt lat="46.26375860038795" lon="9.40850633772241"><ele>210.0</ele><time>2026-05-02T11:49:55Z</time></trkpt><trkpt lat="46.263591395202184" lon="9.408624640893517"><ele>210.0</ele><time>2026-05-02T11:49:56Z</time></trkpt><trkpt lat="46.26343348829685" lon="9.408754288653231"><ele>210.0</ele><time>2026-05-02T11:49:57Z</time></trkpt><trkpt lat="46.263298956104094" lon="9.408930257515413"><ele>210.0</ele><time>2026-05-02T11:49:58Z</time></trkpt><trkpt lat="46.26317069756495" lon="9.409128534732936"><ele>210.0</ele><time>2026-05-02T11:49:59Z</time></trkpt><trkpt lat="46.263054547285684" lon="9.409346845663025"><ele>210.0</ele><time>2026-05-02T11:50:00Z</time></trkpt><trkpt lat="46.26293119123267" lon="9.40955968792916"><ele>209.33333333333331</ele><time>2026-05-02T11:50:01Z</time></trkpt><trkpt lat="46.26280216282889" lon="9.409778523115916"><ele>208.66666666666666</ele><time>2026-05-02T11:50:02Z</time></trkpt><trkpt lat="46.26268596941323" lon="9.409982979922624"><ele>208.0</ele><time>2026-05-02T11:50:03Z</time></trkpt><trkpt lat="46.26257155822315" lon="9.41017828688857"><ele>208.0</ele><time>2026-05-02T11:50:04Z</time></trkpt><trkpt lat="46.262463307088915" lon="9.410371598717367"><ele>208.0</ele><time>2026-05-02T11:50:05Z</time></trkpt><trkpt lat="46.26235225532398" lon="9.410560453161171"><ele>208.0</ele><time>2026-05-02T11:50:06Z</time></trkpt><trkpt lat="46.262225476360946" lon="9.410744454036783"><ele>208.0</ele><time>2026-05-02T11:50:07Z</time></trkpt><trkpt lat="46.26211308125597" lon="9.410933053919923"><ele>208.0</ele><time>2026-05-02T11:50:08Z</time></trkpt><trkpt lat="46.262003391532716" lon="9.411117113968073"><ele>208.0</ele><time>2026-05-02T11:50:09Z</time></trkpt><trkpt lat="46.261905216182164" lon="9.411284051459516"><ele>207.75</ele><time>2026-05-02T11:50:10Z</time></trkpt><trkpt lat="46.26181980265479" lon="9.41145809028936"><ele>207.5</ele><time>2026-05-02T11:50:11Z</time></trkpt><trkpt lat="46.26174334893268" lon="9.411610000857285"><ele>207.25</ele><time>2026-05-02T11:50:12Z</time></trkpt><trkpt lat="46.261703100440286" lon="9.41181243681969"><ele>207.0</ele><time>2026-05-02T11:50:13Z</time></trkpt><trkpt lat="46.261664498267535" lon="9.412041668922685"><ele>207.33333333333331</ele><time>2026-05-02T11:50:14Z</time></trkpt><trkpt lat="46.26162843014808" lon="9.412268252564484"><ele>207.66666666666666</ele><time>2026-05-02T11:50:15Z</time></trkpt><trkpt lat="46.261580803207664" lon="9.412526194725551"><ele>208.0</ele><time>2026-05-02T11:50:16Z</time></trkpt><trkpt lat="46.26154341903608" lon="9.41279977741743"><ele>207.66666666666666</ele><time>2026-05-02T11:50:17Z</time></trkpt><trkpt lat="46.26147226287255" lon="9.413025215855804"><ele>207.33333333333331</ele><time>2026-05-02T11:50:18Z</time></trkpt><trkpt lat="46.26140531737898" lon="9.413253895241196"><ele>207.0</ele><time>2026-05-02T11:50:19Z</time></trkpt><trkpt lat="46.26138166919017" lon="9.413635013714392"><ele>207.33333333333331</ele><time>2026-05-02T11:50:20Z</time></trkpt><trkpt lat="46.261272935380404" lon="9.413901094820282"><ele>207.66666666666666</ele><time>2026-05-02T11:50:21Z</time></trkpt><trkpt lat="46.261134722553756" lon="9.41413709892196"><ele>208.0</ele><time>2026-05-02T11:50:22Z</time></trkpt><trkpt lat="46.260982809411914" lon="9.414373705210593"><ele>208.0</ele><time>2026-05-02T11:50:23Z</time></trkpt><trkpt lat="46.26084228280724" lon="9.414616178551938"><ele>208.0</ele><time>2026-05-02T11:50:24Z</time></trkpt><trkpt lat="46.2606970189367" lon="9.414859428596905"><ele>208.0</ele><time>2026-05-02T11:50:25Z</time></trkpt><trkpt lat="46.26055628755664" lon="9.415101415107543"><ele>208.0</ele><time>2026-05-02T11:50:26Z</time></trkpt><trkpt lat="46.26041124161471" lon="9.415335416481042"><ele>208.0</ele><time>2026-05-02T11:50:27Z</time></trkpt><trkpt lat="46.26027080103588" lon="9.415588845079872"><ele>208.0</ele><time>2026-05-02T11:50:28Z</time></trkpt><trkpt lat="46.26012397424648" lon="9.415838895057027"><ele>208.0</ele><time>2026-05-02T11:50:29Z</time></trkpt><trkpt lat="46.25997044994835" lon="9.416081314283296"><ele>208.0</ele><time>2026-05-02T11:50:30Z</time></trkpt><trkpt lat="46.25981512221529" lon="9.416336690887032"><ele>207.5</ele><time>2026-05-02T11:50:31Z</time></trkpt><trkpt lat="46.25965775479787" lon="9.416592230967005"><ele>207.0</ele><time>2026-05-02T11:50:32Z</time></trkpt><trkpt lat="46.25949785346199" lon="9.416857947464646"><ele>207.0</ele><time>2026-05-02T11:50:33Z</time></trkpt><trkpt lat="46.25933234637141" lon="9.417121964025531"><ele>207.0</ele><time>2026-05-02T11:50:34Z</time></trkpt><trkpt lat="46.25916773119197" lon="9.417395456359866"><ele>207.5</ele><time>2026-05-02T11:50:35Z</time></trkpt><trkpt lat="46.25900659721303" lon="9.41766605170221"><ele>208.0</ele><time>2026-05-02T11:50:36Z</time></trkpt><trkpt lat="46.25885111391362" lon="9.417923596844329"><ele>207.0</ele><time>2026-05-02T11:50:37Z</time></trkpt><trkpt lat="46.25870081614925" lon="9.418189830497749"><ele>206.0</ele><time>2026-05-02T11:50:38Z</time></trkpt><trkpt lat="46.25855687384658" lon="9.418464534142526"><ele>206.0</ele><time>2026-05-02T11:50:39Z</time></trkpt><trkpt lat="46.25839903010175" lon="9.418728382869768"><ele>206.0</ele><time>2026-05-02T11:50:40Z</time></trkpt><trkpt lat="46.25824061804532" lon="9.418986817412556"><ele>206.5</ele><time>2026-05-02T11:50:41Z</time></trkpt><trkpt lat="46.258085230953014" lon="9.41925055350579"><ele>207.0</ele><time>2026-05-02T11:50:42Z</time></trkpt><trkpt lat="46.257928537830836" lon="9.419509726325472"><ele>209.0</ele><time>2026-05-02T11:50:43Z</time></trkpt><trkpt lat="46.25778832691622" lon="9.419766934020624"><ele>211.0</ele><time>2026-05-02T11:50:44Z</time></trkpt><trkpt lat="46.25764085072783" lon="9.42000301696295"><ele>213.0</ele><time>2026-05-02T11:50:45Z</time></trkpt><trkpt lat="46.257503747631574" lon="9.420239281430378"><ele>213.0</ele><time>2026-05-02T11:50:46Z</time></trkpt><trkpt lat="46.25736026747936" lon="9.42046479507407"><ele>213.0</ele><time>2026-05-02T11:50:47Z</time></trkpt><trkpt lat="46.257226408573445" lon="9.420694495473127"><ele>213.0</ele><time>2026-05-02T11:50:48Z</time></trkpt><trkpt lat="46.257091536872196" lon="9.420910200952457"><ele>213.0</ele><time>2026-05-02T11:50:49Z</time></trkpt><trkpt lat="46.25695140625051" lon="9.421116416053746"><ele>213.0</ele><time>2026-05-02T11:50:50Z</time></trkpt><trkpt lat="46.25677987505148" lon="9.421265266665218"><ele>213.0</ele><time>2026-05-02T11:50:51Z</time></trkpt><trkpt lat="46.256606811734414" lon="9.421393651976787"><ele>211.66666666666669</ele><time>2026-05-02T11:50:52Z</time></trkpt><trkpt lat="46.2564200289651" lon="9.421524942235552"><ele>210.33333333333334</ele><time>2026-05-02T11:50:53Z</time></trkpt><trkpt lat="46.25622415522875" lon="9.421606725532998"><ele>209.0</ele><time>2026-05-02T11:50:54Z</time></trkpt><trkpt lat="46.256047279754" lon="9.421679543610757"><ele>209.0</ele><time>2026-05-02T11:50:55Z</time></trkpt><trkpt lat="46.25587136367324" lon="9.421749220138448"><ele>209.0</ele><time>2026-05-02T11:50:56Z</time></trkpt><trkpt lat="46.255694821234705" lon="9.421825459776908"><ele>209.0</ele><time>2026-05-02T11:50:57Z</time></trkpt><trkpt lat="46.25552458984019" lon="9.421900623805138"><ele>209.0</ele><time>2026-05-02T11:50:58Z</time></trkpt><trkpt lat="46.25535784232699" lon="9.421979838596354"><ele>209.0</ele><time>2026-05-02T11:50:59Z</time></trkpt><trkpt lat="46.25519096765589" lon="9.42205443606548"><ele>209.0</ele><time>2026-05-02T11:51:00Z</time></trkpt><trkpt lat="46.25503245968505" lon="9.422134657610144"><ele>209.5</ele><time>2026-05-02T11:51:01Z</time></trkpt><trkpt lat="46.25488699269011" lon="9.422185904588765"><ele>210.0</ele><time>2026-05-02T11:51:02Z</time></trkpt><trkpt lat="46.254737635325824" lon="9.422254227771736"><ele>210.5</ele><time>2026-05-02T11:51:03Z</time></trkpt><trkpt lat="46.254615220726045" lon="9.42231398616379"><ele>211.0</ele><time>2026-05-02T11:51:04Z</time></trkpt><trkpt lat="46.25447959007024" lon="9.422409884835549"><ele>211.0</ele><time>2026-05-02T11:51:05Z</time></trkpt><trkpt lat="46.25434732616581" lon="9.422460866138993"><ele>211.0</ele><time>2026-05-02T11:51:06Z</time></trkpt><trkpt lat="46.25422933724548" lon="9.422555762254804"><ele>211.0</ele><time>2026-05-02T11:51:07Z</time></trkpt><trkpt lat="46.254093027645254" lon="9.42261605186429"><ele>211.0</ele><time>2026-05-02T11:51:08Z</time></trkpt><trkpt lat="46.253970868826585" lon="9.422714382741276"><ele>210.33333333333331</ele><time>2026-05-02T11:51:09Z</time></trkpt><trkpt lat="46.253843921662245" lon="9.422828015720231"><ele>209.66666666666669</ele><time>2026-05-02T11:51:10Z</time></trkpt><trkpt lat="46.25371276711209" lon="9.422949322182786"><ele>209.0</ele><time>2026-05-02T11:51:11Z</time></trkpt><trkpt lat="46.2535537700441" lon="9.423047922179807"><ele>209.0</ele><time>2026-05-02T11:51:12Z</time></trkpt><trkpt lat="46.253281867864985" lon="9.423323955031602"><ele>209.0</ele><time>2026-05-02T11:51:14Z</time></trkpt><trkpt lat="46.25314222822144" lon="9.423476235282724"><ele>209.0</ele><time>2026-05-02T11:51:15Z</time></trkpt><trkpt lat="46.25300251642659" lon="9.423619916374488"><ele>209.0</ele><time>2026-05-02T11:51:16Z</time></trkpt><trkpt lat="46.252862415977944" lon="9.423755677964015"><ele>209.0</ele><time>2026-05-02T11:51:17Z</time></trkpt><trkpt lat="46.252725574050345" lon="9.423900733605029"><ele>209.0</ele><time>2026-05-02T11:51:18Z</time></trkpt><trkpt lat="46.25259060661725" lon="9.424038302393248"><ele>209.0</ele><time>2026-05-02T11:51:19Z</time></trkpt><trkpt lat="46.25245736287106" lon="9.42416267691325"><ele>209.0</ele><time>2026-05-02T11:51:20Z</time></trkpt><trkpt lat="46.25231263717144" lon="9.424243142984508"><ele>209.33333333333334</ele><time>2026-05-02T11:51:21Z</time></trkpt><trkpt lat="46.252161271744214" lon="9.424303250993606"><ele>209.66666666666669</ele><time>2026-05-02T11:51:22Z</time></trkpt><trkpt lat="46.2520072359342" lon="9.424358521735062"><ele>210.0</ele><time>2026-05-02T11:51:23Z</time></trkpt><trkpt lat="46.251855103742365" lon="9.424383172816873"><ele>210.0</ele><time>2026-05-02T11:51:24Z</time></trkpt><trkpt lat="46.25169687741628" lon="9.424358159249536"><ele>210.0</ele><time>2026-05-02T11:51:25Z</time></trkpt><trkpt lat="46.251375599737514" lon="9.424260063158217"><ele>210.0</ele><time>2026-05-02T11:51:27Z</time></trkpt><trkpt lat="46.251217729943875" lon="9.424208227385725"><ele>210.0</ele><time>2026-05-02T11:51:28Z</time></trkpt><trkpt lat="46.25104048627128" lon="9.42416694025571"><ele>210.0</ele><time>2026-05-02T11:51:29Z</time></trkpt><trkpt lat="46.25085891173493" lon="9.424125918566094"><ele>210.0</ele><time>2026-05-02T11:51:30Z</time></trkpt><trkpt lat="46.25066337376705" lon="9.424060904135818"><ele>210.0</ele><time>2026-05-02T11:51:31Z</time></trkpt><trkpt lat="46.250475621591846" lon="9.42398915423441"><ele>210.0</ele><time>2026-05-02T11:51:32Z</time></trkpt><trkpt lat="46.2502808782732" lon="9.42391920481689"><ele>209.66666666666669</ele><time>2026-05-02T11:51:33Z</time></trkpt><trkpt lat="46.250091738924006" lon="9.42387702260251"><ele>209.33333333333334</ele><time>2026-05-02T11:51:34Z</time></trkpt><trkpt lat="46.24990874826395" lon="9.423829008689184"><ele>209.0</ele><time>2026-05-02T11:51:35Z</time></trkpt><trkpt lat="46.24972289135393" lon="9.423779953230971"><ele>208.33333333333334</ele><time>2026-05-02T11:51:36Z</time></trkpt><trkpt lat="46.249549933205124" lon="9.42372997969846"><ele>207.66666666666669</ele><time>2026-05-02T11:51:37Z</time></trkpt><trkpt lat="46.24939696377749" lon="9.423669464112809"><ele>207.0</ele><time>2026-05-02T11:51:38Z</time></trkpt><trkpt lat="46.24926652068074" lon="9.423632230952917"><ele>207.0</ele><time>2026-05-02T11:51:39Z</time></trkpt><trkpt lat="46.2491515171798" lon="9.423574401897497"><ele>207.0</ele><time>2026-05-02T11:51:40Z</time></trkpt><trkpt lat="46.24903477585232" lon="9.423522610811165"><ele>207.0</ele><time>2026-05-02T11:51:41Z</time></trkpt><trkpt lat="46.248936939000856" lon="9.423488379806978"><ele>207.0</ele><time>2026-05-02T11:51:42Z</time></trkpt><trkpt lat="46.24884321128535" lon="9.423455103583366"><ele>207.0</ele><time>2026-05-02T11:51:43Z</time></trkpt><trkpt lat="46.248405639557646" lon="9.423427071264326"><ele>206.8</ele><time>2026-05-02T11:51:44Z</time></trkpt><trkpt lat="46.24829466968789" lon="9.423409760676162"><ele>206.6</ele><time>2026-05-02T11:51:45Z</time></trkpt><trkpt lat="46.24819576965831" lon="9.4233911447087"><ele>206.4</ele><time>2026-05-02T11:51:46Z</time></trkpt><trkpt lat="46.2480949964078" lon="9.42337528690625"><ele>206.20000000000002</ele><time>2026-05-02T11:51:47Z</time></trkpt><trkpt lat="46.24799549779251" lon="9.42338253176172"><ele>206.0</ele><time>2026-05-02T11:51:48Z</time></trkpt><trkpt lat="46.247883395952144" lon="9.423436793225447"><ele>206.0</ele><time>2026-05-02T11:51:49Z</time></trkpt><trkpt lat="46.2477610791576" lon="9.42348608345814"><ele>206.0</ele><time>2026-05-02T11:51:50Z</time></trkpt><trkpt lat="46.24762602060732" lon="9.423531410561141"><ele>206.0</ele><time>2026-05-02T11:51:51Z</time></trkpt><trkpt lat="46.24750304747566" lon="9.423576569619765"><ele>206.0</ele><time>2026-05-02T11:51:52Z</time></trkpt><trkpt lat="46.24737541405394" lon="9.423658175203922"><ele>205.33333333333334</ele><time>2026-05-02T11:51:53Z</time></trkpt><trkpt lat="46.24723029605753" lon="9.423754093320566"><ele>204.66666666666669</ele><time>2026-05-02T11:51:54Z</time></trkpt><trkpt lat="46.24709360675203" lon="9.42386465122892"><ele>204.0</ele><time>2026-05-02T11:51:55Z</time></trkpt><trkpt lat="46.24693877187993" lon="9.4239783649674"><ele>204.0</ele><time>2026-05-02T11:51:56Z</time></trkpt><trkpt lat="46.24678213548652" lon="9.424103847621081"><ele>204.0</ele><time>2026-05-02T11:51:57Z</time></trkpt><trkpt lat="46.24662284613837" lon="9.424237923881975"><ele>204.0</ele><time>2026-05-02T11:51:58Z</time></trkpt><trkpt lat="46.24646766203952" lon="9.424361481738924"><ele>204.33333333333331</ele><time>2026-05-02T11:51:59Z</time></trkpt><trkpt lat="46.246313646577285" lon="9.424490612624421"><ele>204.66666666666666</ele><time>2026-05-02T11:52:00Z</time></trkpt><trkpt lat="46.2461405755267" lon="9.424613268694232"><ele>205.0</ele><time>2026-05-02T11:52:01Z</time></trkpt><trkpt lat="46.24597743900426" lon="9.424746441151125"><ele>205.0</ele><time>2026-05-02T11:52:02Z</time></trkpt><trkpt lat="46.245802194389746" lon="9.424883306261467"><ele>205.0</ele><time>2026-05-02T11:52:03Z</time></trkpt><trkpt lat="46.24563123739132" lon="9.42502410720321"><ele>205.0</ele><time>2026-05-02T11:52:04Z</time></trkpt><trkpt lat="46.2454506049492" lon="9.425159779548448"><ele>203.5</ele><time>2026-05-02T11:52:05Z</time></trkpt><trkpt lat="46.24527475972355" lon="9.42530328264861"><ele>202.0</ele><time>2026-05-02T11:52:06Z</time></trkpt><trkpt lat="46.245046704985" lon="9.425462045214717"><ele>202.33333333333331</ele><time>2026-05-02T11:52:07Z</time></trkpt><trkpt lat="46.24487772132805" lon="9.425588922527716"><ele>202.66666666666669</ele><time>2026-05-02T11:52:08Z</time></trkpt><trkpt lat="46.24471815480217" lon="9.425740785275382"><ele>203.0</ele><time>2026-05-02T11:52:09Z</time></trkpt><trkpt lat="46.24456270468072" lon="9.425919863033155"><ele>203.0</ele><time>2026-05-02T11:52:10Z</time></trkpt><trkpt lat="46.24441048221598" lon="9.42611224839434"><ele>203.0</ele><time>2026-05-02T11:52:11Z</time></trkpt><trkpt lat="46.24425610940951" lon="9.42630402739026"><ele>203.0</ele><time>2026-05-02T11:52:12Z</time></trkpt><trkpt lat="46.24410036190831" lon="9.426499842000396"><ele>201.5</ele><time>2026-05-02T11:52:13Z</time></trkpt><trkpt lat="46.24392903828743" lon="9.42669478283572"><ele>200.0</ele><time>2026-05-02T11:52:14Z</time></trkpt><trkpt lat="46.24371823471181" lon="9.42690181924179"><ele>200.0</ele><time>2026-05-02T11:52:15Z</time></trkpt><trkpt lat="46.24361904962413" lon="9.427069576185271"><ele>200.0</ele><time>2026-05-02T11:52:16Z</time></trkpt><trkpt lat="46.24345105932863" lon="9.427262427786413"><ele>200.0</ele><time>2026-05-02T11:52:17Z</time></trkpt><trkpt lat="46.24328046373212" lon="9.42745315090026"><ele>201.0</ele><time>2026-05-02T11:52:18Z</time></trkpt><trkpt lat="46.24310313072652" lon="9.427628833839828"><ele>202.0</ele><time>2026-05-02T11:52:19Z</time></trkpt><trkpt lat="46.24291701206635" lon="9.427796954844643"><ele>203.0</ele><time>2026-05-02T11:52:20Z</time></trkpt><trkpt lat="46.24272701612412" lon="9.427972616007933"><ele>202.0</ele><time>2026-05-02T11:52:21Z</time></trkpt><trkpt lat="46.242536116001425" lon="9.428149658093465"><ele>201.0</ele><time>2026-05-02T11:52:22Z</time></trkpt><trkpt lat="46.24235104437682" lon="9.42831381436062"><ele>200.0</ele><time>2026-05-02T11:52:23Z</time></trkpt><trkpt lat="46.242157053213575" lon="9.42849648340985"><ele>200.0</ele><time>2026-05-02T11:52:24Z</time></trkpt><trkpt lat="46.241963388825994" lon="9.428670904921441"><ele>200.0</ele><time>2026-05-02T11:52:25Z</time></trkpt><trkpt lat="46.24177129660168" lon="9.428847538850286"><ele>200.0</ele><time>2026-05-02T11:52:26Z</time></trkpt><trkpt lat="46.241575900517965" lon="9.429024315167554"><ele>200.0</ele><time>2026-05-02T11:52:27Z</time></trkpt><trkpt lat="46.24138416805812" lon="9.429201491571883"><ele>200.0</ele><time>2026-05-02T11:52:28Z</time></trkpt><trkpt lat="46.24118428370376" lon="9.429379195115335"><ele>200.0</ele><time>2026-05-02T11:52:29Z</time></trkpt><trkpt lat="46.2409868216761" lon="9.42955870387489"><ele>200.5</ele><time>2026-05-02T11:52:30Z</time></trkpt><trkpt lat="46.24079039075946" lon="9.429737593625426"><ele>201.0</ele><time>2026-05-02T11:52:31Z</time></trkpt><trkpt lat="46.24059305886807" lon="9.429913335496103"><ele>201.0</ele><time>2026-05-02T11:52:32Z</time></trkpt><trkpt lat="46.24040302705146" lon="9.430092675016017"><ele>201.0</ele><time>2026-05-02T11:52:33Z</time></trkpt><trkpt lat="46.240210570168394" lon="9.430268872724648"><ele>201.0</ele><time>2026-05-02T11:52:34Z</time></trkpt><trkpt lat="46.24001162085642" lon="9.430451547860205"><ele>201.0</ele><time>2026-05-02T11:52:35Z</time></trkpt><trkpt lat="46.239814938845875" lon="9.430633590830643"><ele>201.0</ele><time>2026-05-02T11:52:36Z</time></trkpt><trkpt lat="46.239617306332306" lon="9.430808014082452"><ele>201.0</ele><time>2026-05-02T11:52:37Z</time></trkpt><trkpt lat="46.23942366376157" lon="9.430980337163502"><ele>201.0</ele><time>2026-05-02T11:52:38Z</time></trkpt><trkpt lat="46.239223700161844" lon="9.431171182972038"><ele>201.0</ele><time>2026-05-02T11:52:39Z</time></trkpt><trkpt lat="46.23902840144388" lon="9.431346505446578"><ele>199.5</ele><time>2026-05-02T11:52:40Z</time></trkpt><trkpt lat="46.23883412286616" lon="9.431517336714595"><ele>198.0</ele><time>2026-05-02T11:52:41Z</time></trkpt><trkpt lat="46.2386406629216" lon="9.431688712963544"><ele>198.0</ele><time>2026-05-02T11:52:42Z</time></trkpt><trkpt lat="46.23845370122149" lon="9.431864721002613"><ele>198.0</ele><time>2026-05-02T11:52:43Z</time></trkpt><trkpt lat="46.23826480440673" lon="9.432035682570474"><ele>198.0</ele><time>2026-05-02T11:52:44Z</time></trkpt><trkpt lat="46.238071346227684" lon="9.43220724819801"><ele>198.66666666666669</ele><time>2026-05-02T11:52:45Z</time></trkpt><trkpt lat="46.23788751397447" lon="9.432376206316325"><ele>199.33333333333334</ele><time>2026-05-02T11:52:46Z</time></trkpt><trkpt lat="46.23770158085166" lon="9.432549128102513"><ele>200.0</ele><time>2026-05-02T11:52:47Z</time></trkpt><trkpt lat="46.23750906617615" lon="9.432717409682292"><ele>200.0</ele><time>2026-05-02T11:52:48Z</time></trkpt><trkpt lat="46.23732103720807" lon="9.432879537288493"><ele>200.0</ele><time>2026-05-02T11:52:49Z</time></trkpt><trkpt lat="46.2371351142791" lon="9.433048492018496"><ele>200.0</ele><time>2026-05-02T11:52:50Z</time></trkpt><trkpt lat="46.236946062875745" lon="9.433223899840012"><ele>199.5</ele><time>2026-05-02T11:52:51Z</time></trkpt><trkpt lat="46.23675598876324" lon="9.433396125527413"><ele>199.0</ele><time>2026-05-02T11:52:52Z</time></trkpt><trkpt lat="46.236586837745016" lon="9.433621052673075"><ele>199.0</ele><time>2026-05-02T11:52:53Z</time></trkpt><trkpt lat="46.23640974367576" lon="9.433835829136264"><ele>199.0</ele><time>2026-05-02T11:52:54Z</time></trkpt><trkpt lat="46.23623782779342" lon="9.434053644414634"><ele>199.0</ele><time>2026-05-02T11:52:55Z</time></trkpt><trkpt lat="46.23606300317957" lon="9.434273544502068"><ele>199.0</ele><time>2026-05-02T11:52:56Z</time></trkpt><trkpt lat="46.23588986494711" lon="9.434492042631833"><ele>199.0</ele><time>2026-05-02T11:52:57Z</time></trkpt><trkpt lat="46.23571265874172" lon="9.434709693015115"><ele>199.0</ele><time>2026-05-02T11:52:58Z</time></trkpt><trkpt lat="46.23553339587837" lon="9.434928185571248"><ele>200.0</ele><time>2026-05-02T11:52:59Z</time></trkpt><trkpt lat="46.235352491163454" lon="9.435134902870386"><ele>201.0</ele><time>2026-05-02T11:53:00Z</time></trkpt><trkpt lat="46.23517826395661" lon="9.435342255038965"><ele>200.5</ele><time>2026-05-02T11:53:01Z</time></trkpt><trkpt lat="46.234997216036064" lon="9.435540767033396"><ele>200.0</ele><time>2026-05-02T11:53:02Z</time></trkpt><trkpt lat="46.23481651163855" lon="9.435733488975474"><ele>200.0</ele><time>2026-05-02T11:53:03Z</time></trkpt><trkpt lat="46.234628948937505" lon="9.4359146295582"><ele>200.0</ele><time>2026-05-02T11:53:04Z</time></trkpt><trkpt lat="46.23443943208829" lon="9.436091429291613"><ele>200.0</ele><time>2026-05-02T11:53:05Z</time></trkpt><trkpt lat="46.23424451505734" lon="9.436262126901642"><ele>200.0</ele><time>2026-05-02T11:53:06Z</time></trkpt><trkpt lat="46.23404924134864" lon="9.43643108850623"><ele>199.33333333333334</ele><time>2026-05-02T11:53:07Z</time></trkpt><trkpt lat="46.23385714621696" lon="9.436595384871602"><ele>198.66666666666669</ele><time>2026-05-02T11:53:08Z</time></trkpt><trkpt lat="46.23366326375641" lon="9.436762530776214"><ele>198.0</ele><time>2026-05-02T11:53:09Z</time></trkpt><trkpt lat="46.23347314377216" lon="9.43692974721376"><ele>198.0</ele><time>2026-05-02T11:53:10Z</time></trkpt><trkpt lat="46.233275863115786" lon="9.4370957066145"><ele>198.0</ele><time>2026-05-02T11:53:11Z</time></trkpt><trkpt lat="46.23307818230128" lon="9.437259842493308"><ele>198.66666666666669</ele><time>2026-05-02T11:53:12Z</time></trkpt><trkpt lat="46.23288195355884" lon="9.43741676721286"><ele>199.33333333333334</ele><time>2026-05-02T11:53:13Z</time></trkpt><trkpt lat="46.232688655569966" lon="9.437579249014986"><ele>200.0</ele><time>2026-05-02T11:53:14Z</time></trkpt><trkpt lat="46.23249484261736" lon="9.437748198867512"><ele>200.0</ele><time>2026-05-02T11:53:15Z</time></trkpt><trkpt lat="46.23230681162604" lon="9.43792025214371"><ele>200.0</ele><time>2026-05-02T11:53:16Z</time></trkpt><trkpt lat="46.232117925161916" lon="9.43808710910458"><ele>200.0</ele><time>2026-05-02T11:53:17Z</time></trkpt><trkpt lat="46.231921661993574" lon="9.438252282982534"><ele>198.5</ele><time>2026-05-02T11:53:18Z</time></trkpt><trkpt lat="46.23173294386662" lon="9.438426597623607"><ele>197.0</ele><time>2026-05-02T11:53:19Z</time></trkpt><trkpt lat="46.23154501399395" lon="9.43860947542154"><ele>197.33333333333334</ele><time>2026-05-02T11:53:20Z</time></trkpt><trkpt lat="46.23136101828047" lon="9.438789870986481"><ele>197.66666666666669</ele><time>2026-05-02T11:53:21Z</time></trkpt><trkpt lat="46.23117785279168" lon="9.438979551428849"><ele>198.0</ele><time>2026-05-02T11:53:22Z</time></trkpt><trkpt lat="46.23100039884666" lon="9.439174804149944"><ele>198.0</ele><time>2026-05-02T11:53:23Z</time></trkpt><trkpt lat="46.23081345292755" lon="9.439368671509799"><ele>198.0</ele><time>2026-05-02T11:53:24Z</time></trkpt><trkpt lat="46.23063120522959" lon="9.43955979861205"><ele>197.5</ele><time>2026-05-02T11:53:25Z</time></trkpt><trkpt lat="46.23044660384283" lon="9.439757816272"><ele>197.0</ele><time>2026-05-02T11:53:26Z</time></trkpt><trkpt lat="46.230260079074206" lon="9.43994966899178"><ele>197.0</ele><time>2026-05-02T11:53:27Z</time></trkpt><trkpt lat="46.23007200335097" lon="9.440143306176585"><ele>197.0</ele><time>2026-05-02T11:53:28Z</time></trkpt><trkpt lat="46.22989152707138" lon="9.440341683956444"><ele>198.5</ele><time>2026-05-02T11:53:29Z</time></trkpt><trkpt lat="46.2297085813241" lon="9.440533169643873"><ele>200.0</ele><time>2026-05-02T11:53:30Z</time></trkpt><trkpt lat="46.22953370726188" lon="9.440736659261443"><ele>200.0</ele><time>2026-05-02T11:53:31Z</time></trkpt><trkpt lat="46.22936677476477" lon="9.44094830594219"><ele>200.0</ele><time>2026-05-02T11:53:32Z</time></trkpt><trkpt lat="46.22921866840331" lon="9.44117951086989"><ele>200.0</ele><time>2026-05-02T11:53:33Z</time></trkpt><trkpt lat="46.22908535291835" lon="9.44141951287621"><ele>197.0</ele><time>2026-05-02T11:53:34Z</time></trkpt><trkpt lat="46.22894802286131" lon="9.441680267465813"><ele>194.0</ele><time>2026-05-02T11:53:35Z</time></trkpt><trkpt lat="46.22878139507262" lon="9.44195646049735"><ele>194.66666666666669</ele><time>2026-05-02T11:53:36Z</time></trkpt><trkpt lat="46.22868969144884" lon="9.442248983042962"><ele>195.33333333333331</ele><time>2026-05-02T11:53:37Z</time></trkpt><trkpt lat="46.22870517005153" lon="9.442500031699284"><ele>196.0</ele><time>2026-05-02T11:53:38Z</time></trkpt><trkpt lat="46.228657094755214" lon="9.442761796763026"><ele>197.33333333333331</ele><time>2026-05-02T11:53:39Z</time></trkpt><trkpt lat="46.2285977997913" lon="9.443010240141751"><ele>198.66666666666669</ele><time>2026-05-02T11:53:40Z</time></trkpt><trkpt lat="46.22853805452853" lon="9.443252674784109"><ele>200.0</ele><time>2026-05-02T11:53:41Z</time></trkpt><trkpt lat="46.228447505729314" lon="9.443520254496782"><ele>204.33333333333334</ele><time>2026-05-02T11:53:42Z</time></trkpt><trkpt lat="46.22836802447901" lon="9.443798746497313"><ele>208.66666666666669</ele><time>2026-05-02T11:53:43Z</time></trkpt><trkpt lat="46.22828005799765" lon="9.444095227422316"><ele>213.0</ele><time>2026-05-02T11:53:44Z</time></trkpt><trkpt lat="46.228187540742894" lon="9.444403163168968"><ele>208.0</ele><time>2026-05-02T11:53:45Z</time></trkpt><trkpt lat="46.22810593012753" lon="9.444725668707077"><ele>203.0</ele><time>2026-05-02T11:53:46Z</time></trkpt><trkpt lat="46.22804405041185" lon="9.444954890706574"><ele>198.0</ele><time>2026-05-02T11:53:47Z</time></trkpt><trkpt lat="46.22796114385824" lon="9.44521646035861"><ele>201.33333333333331</ele><time>2026-05-02T11:53:48Z</time></trkpt><trkpt lat="46.227883035964005" lon="9.44546467963951"><ele>204.66666666666666</ele><time>2026-05-02T11:53:49Z</time></trkpt><trkpt lat="46.22780465928807" lon="9.445706740245098"><ele>208.0</ele><time>2026-05-02T11:53:50Z</time></trkpt><trkpt lat="46.22768217511581" lon="9.445925063383756"><ele>208.0</ele><time>2026-05-02T11:53:51Z</time></trkpt><trkpt lat="46.227524792032646" lon="9.446186246340492"><ele>208.0</ele><time>2026-05-02T11:53:52Z</time></trkpt><trkpt lat="46.22738951955261" lon="9.446406847091982"><ele>208.0</ele><time>2026-05-02T11:53:53Z</time></trkpt><trkpt lat="46.2272308435918" lon="9.446594560752994"><ele>206.33333333333331</ele><time>2026-05-02T11:53:54Z</time></trkpt><trkpt lat="46.22706694698055" lon="9.446784327284783"><ele>204.66666666666669</ele><time>2026-05-02T11:53:55Z</time></trkpt><trkpt lat="46.22688080827518" lon="9.446949113429035"><ele>203.0</ele><time>2026-05-02T11:53:56Z</time></trkpt><trkpt lat="46.226702996292104" lon="9.44711043190184"><ele>206.33333333333334</ele><time>2026-05-02T11:53:57Z</time></trkpt><trkpt lat="46.22653458016275" lon="9.447269355517372"><ele>209.66666666666669</ele><time>2026-05-02T11:53:58Z</time></trkpt><trkpt lat="46.22633244157717" lon="9.447383446516076"><ele>213.0</ele><time>2026-05-02T11:53:59Z</time></trkpt><trkpt lat="46.226154765184766" lon="9.447524424514434"><ele>213.0</ele><time>2026-05-02T11:54:00Z</time></trkpt><trkpt lat="46.22597498797664" lon="9.44764110160379"><ele>213.0</ele><time>2026-05-02T11:54:01Z</time></trkpt><trkpt lat="46.22579081094997" lon="9.447777523816844"><ele>213.0</ele><time>2026-05-02T11:54:02Z</time></trkpt><trkpt lat="46.225561899929886" lon="9.447805831026834"><ele>211.66666666666669</ele><time>2026-05-02T11:54:03Z</time></trkpt><trkpt lat="46.22534513585983" lon="9.447817814210927"><ele>210.33333333333334</ele><time>2026-05-02T11:54:04Z</time></trkpt><trkpt lat="46.22514223762015" lon="9.44781073391552"><ele>209.0</ele><time>2026-05-02T11:54:05Z</time></trkpt><trkpt lat="46.22495291535129" lon="9.447771409824247"><ele>209.0</ele><time>2026-05-02T11:54:06Z</time></trkpt><trkpt lat="46.224764484160715" lon="9.447679310968326"><ele>209.0</ele><time>2026-05-02T11:54:07Z</time></trkpt><trkpt lat="46.224583523832436" lon="9.447581948690154"><ele>209.0</ele><time>2026-05-02T11:54:08Z</time></trkpt><trkpt lat="46.22441822209432" lon="9.447507539137511"><ele>209.0</ele><time>2026-05-02T11:54:09Z</time></trkpt><trkpt lat="46.22423517577224" lon="9.447384437363397"><ele>209.0</ele><time>2026-05-02T11:54:10Z</time></trkpt><trkpt lat="46.22405452645664" lon="9.447285404920793"><ele>209.0</ele><time>2026-05-02T11:54:11Z</time></trkpt><trkpt lat="46.22387166015901" lon="9.44719062759443"><ele>208.33333333333334</ele><time>2026-05-02T11:54:12Z</time></trkpt><trkpt lat="46.22370124225447" lon="9.447102765451282"><ele>207.66666666666669</ele><time>2026-05-02T11:54:13Z</time></trkpt><trkpt lat="46.22354154915622" lon="9.447016685400287"><ele>207.0</ele><time>2026-05-02T11:54:14Z</time></trkpt><trkpt lat="46.223380801452315" lon="9.446928177510127"><ele>207.0</ele><time>2026-05-02T11:54:15Z</time></trkpt><trkpt lat="46.22320619708592" lon="9.446833321539684"><ele>207.0</ele><time>2026-05-02T11:54:16Z</time></trkpt><trkpt lat="46.22303121676779" lon="9.446734786609447"><ele>207.0</ele><time>2026-05-02T11:54:17Z</time></trkpt><trkpt lat="46.22284805180681" lon="9.44662722841464"><ele>207.0</ele><time>2026-05-02T11:54:18Z</time></trkpt><trkpt lat="46.222675239710824" lon="9.446531231398717"><ele>207.0</ele><time>2026-05-02T11:54:19Z</time></trkpt><trkpt lat="46.222481275933525" lon="9.446428702820405"><ele>207.0</ele><time>2026-05-02T11:54:20Z</time></trkpt><trkpt lat="46.22229753119263" lon="9.446334809118202"><ele>205.66666666666669</ele><time>2026-05-02T11:54:21Z</time></trkpt><trkpt lat="46.222102826072934" lon="9.446244731603668"><ele>204.33333333333334</ele><time>2026-05-02T11:54:22Z</time></trkpt><trkpt lat="46.22190061193668" lon="9.44617606990917"><ele>203.0</ele><time>2026-05-02T11:54:23Z</time></trkpt><trkpt lat="46.221697386121186" lon="9.446130159962998"><ele>203.0</ele><time>2026-05-02T11:54:24Z</time></trkpt><trkpt lat="46.221509665604046" lon="9.4460985403958"><ele>203.0</ele><time>2026-05-02T11:54:25Z</time></trkpt><trkpt lat="46.22134059875889" lon="9.446073637078143"><ele>203.0</ele><time>2026-05-02T11:54:26Z</time></trkpt><trkpt lat="46.2211903780893" lon="9.446060445435835"><ele>202.75</ele><time>2026-05-02T11:54:27Z</time></trkpt><trkpt lat="46.22104691929408" lon="9.446062943340737"><ele>202.5</ele><time>2026-05-02T11:54:28Z</time></trkpt><trkpt lat="46.22090811881212" lon="9.446053626175827"><ele>202.25</ele><time>2026-05-02T11:54:29Z</time></trkpt><trkpt lat="46.22077540138548" lon="9.44607556652764"><ele>202.0</ele><time>2026-05-02T11:54:30Z</time></trkpt><trkpt lat="46.22064650746758" lon="9.446104383101426"><ele>202.0</ele><time>2026-05-02T11:54:31Z</time></trkpt><trkpt lat="46.22052162697354" lon="9.446130301765674"><ele>202.0</ele><time>2026-05-02T11:54:32Z</time></trkpt><trkpt lat="46.22039453036224" lon="9.446154847467609"><ele>202.0</ele><time>2026-05-02T11:54:33Z</time></trkpt><trkpt lat="46.220267155174355" lon="9.446179750838391"><ele>202.0</ele><time>2026-05-02T11:54:34Z</time></trkpt><trkpt lat="46.22012733394401" lon="9.446198882471707"><ele>202.0</ele><time>2026-05-02T11:54:35Z</time></trkpt><trkpt lat="46.21999224158547" lon="9.446218594163815"><ele>202.0</ele><time>2026-05-02T11:54:36Z</time></trkpt><trkpt lat="46.21985668546505" lon="9.446243219435203"><ele>202.0</ele><time>2026-05-02T11:54:37Z</time></trkpt><trkpt lat="46.21970723354651" lon="9.446275259203972"><ele>202.0</ele><time>2026-05-02T11:54:38Z</time></trkpt><trkpt lat="46.21956342747021" lon="9.446279568305416"><ele>203.0</ele><time>2026-05-02T11:54:39Z</time></trkpt><trkpt lat="46.219393902107086" lon="9.446304191036292"><ele>204.0</ele><time>2026-05-02T11:54:40Z</time></trkpt><trkpt lat="46.219231554263345" lon="9.446327771250733"><ele>205.0</ele><time>2026-05-02T11:54:41Z</time></trkpt><trkpt lat="46.21903002693961" lon="9.446357042080889"><ele>204.33333333333331</ele><time>2026-05-02T11:54:42Z</time></trkpt><trkpt lat="46.218915173280664" lon="9.446373724009717"><ele>203.66666666666669</ele><time>2026-05-02T11:54:43Z</time></trkpt><trkpt lat="46.218752280428056" lon="9.446420713925908"><ele>203.0</ele><time>2026-05-02T11:54:44Z</time></trkpt><trkpt lat="46.21858183922372" lon="9.446421739960305"><ele>203.0</ele><time>2026-05-02T11:54:45Z</time></trkpt><trkpt lat="46.21840558964703" lon="9.446446745203566"><ele>203.0</ele><time>2026-05-02T11:54:46Z</time></trkpt><trkpt lat="46.218230716697725" lon="9.446471460713243"><ele>203.0</ele><time>2026-05-02T11:54:47Z</time></trkpt><trkpt lat="46.218066264817146" lon="9.446494622944538"><ele>204.5</ele><time>2026-05-02T11:54:48Z</time></trkpt><trkpt lat="46.217930485594174" lon="9.446514047218315"><ele>206.0</ele><time>2026-05-02T11:54:49Z</time></trkpt><trkpt lat="46.217806475827295" lon="9.446532022707427"><ele>207.5</ele><time>2026-05-02T11:54:50Z</time></trkpt><trkpt lat="46.21769933397132" lon="9.446570984110188"><ele>209.0</ele><time>2026-05-02T11:54:51Z</time></trkpt><trkpt lat="46.2175692935623" lon="9.446571668023314"><ele>209.0</ele><time>2026-05-02T11:54:52Z</time></trkpt><trkpt lat="46.2174404886175" lon="9.446595008137985"><ele>209.0</ele><time>2026-05-02T11:54:53Z</time></trkpt><trkpt lat="46.21731985541425" lon="9.446619548187629"><ele>209.0</ele><time>2026-05-02T11:54:54Z</time></trkpt><trkpt lat="46.21719812730174" lon="9.446663250183745"><ele>209.0</ele><time>2026-05-02T11:54:55Z</time></trkpt><trkpt lat="46.21708322436683" lon="9.446714686585144"><ele>208.39999999999998</ele><time>2026-05-02T11:54:56Z</time></trkpt><trkpt lat="46.216972914119566" lon="9.446783400199754"><ele>207.8</ele><time>2026-05-02T11:54:57Z</time></trkpt><trkpt lat="46.216876752421" lon="9.446847319339449"><ele>207.2</ele><time>2026-05-02T11:54:58Z</time></trkpt><trkpt lat="46.21678289567169" lon="9.446903998225466"><ele>206.60000000000002</ele><time>2026-05-02T11:54:59Z</time></trkpt><trkpt lat="46.21669029789246" lon="9.446960320097363"><ele>206.0</ele><time>2026-05-02T11:55:00Z</time></trkpt><trkpt lat="46.21659520995699" lon="9.447020570844076"><ele>206.0</ele><time>2026-05-02T11:55:01Z</time></trkpt><trkpt lat="46.216510142524335" lon="9.447068641952905"><ele>206.0</ele><time>2026-05-02T11:55:02Z</time></trkpt><trkpt lat="46.21642413308074" lon="9.447080560377858"><ele>206.0</ele><time>2026-05-02T11:55:03Z</time></trkpt><trkpt lat="46.21634973846434" lon="9.44709727877303"><ele>206.0</ele><time>2026-05-02T11:55:04Z</time></trkpt><trkpt lat="46.21621822030733" lon="9.447125071755105"><ele>206.0</ele><time>2026-05-02T11:55:06Z</time></trkpt><trkpt lat="46.216106887473615" lon="9.447118566593232"><ele>206.0</ele><time>2026-05-02T11:55:08Z</time></trkpt><trkpt lat="46.216017716367645" lon="9.447118704975432"><ele>206.0</ele><time>2026-05-02T11:55:10Z</time></trkpt><trkpt lat="46.215925609577106" lon="9.44713818420899"><ele>206.0</ele><time>2026-05-02T11:55:12Z</time></trkpt><trkpt lat="46.21578755264484" lon="9.447138416347931"><ele>206.0</ele><time>2026-05-02T11:55:14Z</time></trkpt><trkpt lat="46.21569373288669" lon="9.44713421379764"><ele>206.0</ele><time>2026-05-02T11:55:15Z</time></trkpt><trkpt lat="46.21559218133374" lon="9.447128265530724"><ele>206.0</ele><time>2026-05-02T11:55:16Z</time></trkpt><trkpt lat="46.21550303916154" lon="9.447108603393586"><ele>206.0</ele><time>2026-05-02T11:55:17Z</time></trkpt><trkpt lat="46.21540395079777" lon="9.447083620964674"><ele>206.0</ele><time>2026-05-02T11:55:18Z</time></trkpt><trkpt lat="46.21529173610239" lon="9.44704766340204"><ele>206.0</ele><time>2026-05-02T11:55:19Z</time></trkpt><trkpt lat="46.21518774452671" lon="9.447026359629211"><ele>206.0</ele><time>2026-05-02T11:55:20Z</time></trkpt><trkpt lat="46.21508460966235" lon="9.447014343767014"><ele>206.0</ele><time>2026-05-02T11:55:21Z</time></trkpt><trkpt lat="46.21498314984217" lon="9.44697649942416"><ele>206.0</ele><time>2026-05-02T11:55:22Z</time></trkpt><trkpt lat="46.21487957438742" lon="9.446968978264936"><ele>206.0</ele><time>2026-05-02T11:55:23Z</time></trkpt><trkpt lat="46.214780484158844" lon="9.44697630648389"><ele>206.0</ele><time>2026-05-02T11:55:24Z</time></trkpt><trkpt lat="46.214689021380075" lon="9.447010504265872"><ele>206.0</ele><time>2026-05-02T11:55:25Z</time></trkpt><trkpt lat="46.21460429116584" lon="9.446999472003812"><ele>205.50000000000003</ele><time>2026-05-02T11:55:26Z</time></trkpt><trkpt lat="46.21452972590108" lon="9.44701005493936"><ele>205.0</ele><time>2026-05-02T11:55:27Z</time></trkpt><trkpt lat="46.21446451972908" lon="9.447019999122704"><ele>204.5</ele><time>2026-05-02T11:55:28Z</time></trkpt><trkpt lat="46.21435120110112" lon="9.44706070309913"><ele>204.0</ele><time>2026-05-02T11:55:30Z</time></trkpt><trkpt lat="46.21426229079951" lon="9.447062268007558"><ele>203.50000000000003</ele><time>2026-05-02T11:55:32Z</time></trkpt><trkpt lat="46.21416912015282" lon="9.447077291597797"><ele>203.0</ele><time>2026-05-02T11:55:34Z</time></trkpt><trkpt lat="46.214099580191544" lon="9.44708039133056"><ele>203.0</ele><time>2026-05-02T11:55:35Z</time></trkpt><trkpt lat="46.21400641703916" lon="9.447092475412918"><ele>203.0</ele><time>2026-05-02T11:55:36Z</time></trkpt><trkpt lat="46.21389738033453" lon="9.447116634714073"><ele>203.0</ele><time>2026-05-02T11:55:37Z</time></trkpt><trkpt lat="46.213789346728696" lon="9.447141427613854"><ele>203.0</ele><time>2026-05-02T11:55:38Z</time></trkpt><trkpt lat="46.21368222515705" lon="9.44717272551736"><ele>203.0</ele><time>2026-05-02T11:55:39Z</time></trkpt><trkpt lat="46.213559968341805" lon="9.447226369875859"><ele>203.25</ele><time>2026-05-02T11:55:40Z</time></trkpt><trkpt lat="46.213409763744274" lon="9.447294845915165"><ele>203.5</ele><time>2026-05-02T11:55:41Z</time></trkpt><trkpt lat="46.213290901362846" lon="9.447348123576866"><ele>203.75</ele><time>2026-05-02T11:55:42Z</time></trkpt><trkpt lat="46.21317057310617" lon="9.44743619585982"><ele>204.0</ele><time>2026-05-02T11:55:43Z</time></trkpt><trkpt lat="46.21305098837124" lon="9.447525414736447"><ele>204.0</ele><time>2026-05-02T11:55:44Z</time></trkpt><trkpt lat="46.212925411070565" lon="9.44764058043341"><ele>204.0</ele><time>2026-05-02T11:55:45Z</time></trkpt><trkpt lat="46.21279759414584" lon="9.447765743690946"><ele>204.0</ele><time>2026-05-02T11:55:46Z</time></trkpt><trkpt lat="46.212696888148066" lon="9.447873731998369"><ele>204.0</ele><time>2026-05-02T11:55:47Z</time></trkpt><trkpt lat="46.21258509653192" lon="9.447967099831653"><ele>204.33333333333331</ele><time>2026-05-02T11:55:48Z</time></trkpt><trkpt lat="46.212435402461075" lon="9.448151220843132"><ele>204.66666666666666</ele><time>2026-05-02T11:55:49Z</time></trkpt><trkpt lat="46.21222450236647" lon="9.448337812099552"><ele>205.0</ele><time>2026-05-02T11:55:50Z</time></trkpt><trkpt lat="46.21206576984865" lon="9.448487541549763"><ele>204.33333333333331</ele><time>2026-05-02T11:55:51Z</time></trkpt><trkpt lat="46.211921315749365" lon="9.448622074752352"><ele>203.66666666666669</ele><time>2026-05-02T11:55:52Z</time></trkpt><trkpt lat="46.211783084888005" lon="9.448771801790736"><ele>203.0</ele><time>2026-05-02T11:55:53Z</time></trkpt><trkpt lat="46.21164331684026" lon="9.448936390158002"><ele>203.0</ele><time>2026-05-02T11:55:54Z</time></trkpt><trkpt lat="46.21151106463223" lon="9.449121600310583"><ele>203.0</ele><time>2026-05-02T11:55:55Z</time></trkpt><trkpt lat="46.21137477792802" lon="9.449346071015661"><ele>203.0</ele><time>2026-05-02T11:55:56Z</time></trkpt><trkpt lat="46.21122486665665" lon="9.449611803793031"><ele>202.33333333333334</ele><time>2026-05-02T11:55:57Z</time></trkpt><trkpt lat="46.211131615777276" lon="9.449825733722898"><ele>201.66666666666669</ele><time>2026-05-02T11:55:58Z</time></trkpt><trkpt lat="46.21105017923558" lon="9.450044804749862"><ele>201.0</ele><time>2026-05-02T11:55:59Z</time></trkpt><trkpt lat="46.210963236498245" lon="9.450296385077477"><ele>202.0</ele><time>2026-05-02T11:56:00Z</time></trkpt><trkpt lat="46.21086892561883" lon="9.450552685319263"><ele>203.0</ele><time>2026-05-02T11:56:01Z</time></trkpt><trkpt lat="46.210769976284666" lon="9.45082016457779"><ele>204.0</ele><time>2026-05-02T11:56:02Z</time></trkpt><trkpt lat="46.210683182010534" lon="9.45108858792544"><ele>203.33333333333331</ele><time>2026-05-02T11:56:03Z</time></trkpt><trkpt lat="46.210578413206335" lon="9.451368791039371"><ele>202.66666666666666</ele><time>2026-05-02T11:56:04Z</time></trkpt><trkpt lat="46.210480374850775" lon="9.45165628292441"><ele>202.0</ele><time>2026-05-02T11:56:05Z</time></trkpt><trkpt lat="46.21039482795169" lon="9.451944882445668"><ele>203.0</ele><time>2026-05-02T11:56:06Z</time></trkpt><trkpt lat="46.210307392207056" lon="9.452237338068882"><ele>204.0</ele><time>2026-05-02T11:56:07Z</time></trkpt><trkpt lat="46.21022298371532" lon="9.45261080105657"><ele>204.0</ele><time>2026-05-02T11:56:08Z</time></trkpt><trkpt lat="46.210122142854715" lon="9.452955086604767"><ele>204.0</ele><time>2026-05-02T11:56:09Z</time></trkpt><trkpt lat="46.21006111082282" lon="9.453202015937004"><ele>204.0</ele><time>2026-05-02T11:56:10Z</time></trkpt><trkpt lat="46.210059961685424" lon="9.453348869412993"><ele>204.66666666666669</ele><time>2026-05-02T11:56:11Z</time></trkpt><trkpt lat="46.21002603571097" lon="9.453584420093874"><ele>205.33333333333334</ele><time>2026-05-02T11:56:12Z</time></trkpt><trkpt lat="46.209978567391396" lon="9.453814220683302"><ele>206.0</ele><time>2026-05-02T11:56:13Z</time></trkpt><trkpt lat="46.209943532739935" lon="9.45406049617329"><ele>206.33333333333334</ele><time>2026-05-02T11:56:14Z</time></trkpt><trkpt lat="46.209911259155476" lon="9.454305446425487"><ele>206.66666666666669</ele><time>2026-05-02T11:56:15Z</time></trkpt><trkpt lat="46.2098837910244" lon="9.454545520218543"><ele>207.0</ele><time>2026-05-02T11:56:16Z</time></trkpt><trkpt lat="46.20985633562184" lon="9.454789955909671"><ele>207.0</ele><time>2026-05-02T11:56:17Z</time></trkpt><trkpt lat="46.209831169493285" lon="9.455041035465623"><ele>207.0</ele><time>2026-05-02T11:56:18Z</time></trkpt><trkpt lat="46.20980522293511" lon="9.455301612323996"><ele>207.0</ele><time>2026-05-02T11:56:19Z</time></trkpt><trkpt lat="46.20977904775214" lon="9.455570748922367"><ele>205.33333333333331</ele><time>2026-05-02T11:56:20Z</time></trkpt><trkpt lat="46.20975252022871" lon="9.455843508278305"><ele>203.66666666666666</ele><time>2026-05-02T11:56:21Z</time></trkpt><trkpt lat="46.209725486138474" lon="9.456123365564821"><ele>202.0</ele><time>2026-05-02T11:56:22Z</time></trkpt><trkpt lat="46.2096986307832" lon="9.456402106951591"><ele>201.33333333333331</ele><time>2026-05-02T11:56:23Z</time></trkpt><trkpt lat="46.2096711353478" lon="9.456687493776718"><ele>200.66666666666669</ele><time>2026-05-02T11:56:24Z</time></trkpt><trkpt lat="46.20964475473819" lon="9.456955488614685"><ele>200.0</ele><time>2026-05-02T11:56:25Z</time></trkpt><trkpt lat="46.209617904183645" lon="9.457230353579947"><ele>200.0</ele><time>2026-05-02T11:56:26Z</time></trkpt><trkpt lat="46.209591132165336" lon="9.45750161500553"><ele>200.0</ele><time>2026-05-02T11:56:27Z</time></trkpt><trkpt lat="46.209565768960246" lon="9.457763421630187"><ele>200.0</ele><time>2026-05-02T11:56:28Z</time></trkpt><trkpt lat="46.209541444371155" lon="9.458014507488528"><ele>200.66666666666669</ele><time>2026-05-02T11:56:29Z</time></trkpt><trkpt lat="46.2095181121569" lon="9.45825534967528"><ele>201.33333333333331</ele><time>2026-05-02T11:56:30Z</time></trkpt><trkpt lat="46.20949410696537" lon="9.458486377062325"><ele>202.0</ele><time>2026-05-02T11:56:31Z</time></trkpt><trkpt lat="46.20947014366584" lon="9.458709571694795"><ele>202.33333333333331</ele><time>2026-05-02T11:56:32Z</time></trkpt><trkpt lat="46.2094385691577" lon="9.458924433804627"><ele>202.66666666666669</ele><time>2026-05-02T11:56:33Z</time></trkpt><trkpt lat="46.20938734963765" lon="9.45912711720653"><ele>203.0</ele><time>2026-05-02T11:56:34Z</time></trkpt><trkpt lat="46.20931623503409" lon="9.459322155394425"><ele>203.0</ele><time>2026-05-02T11:56:35Z</time></trkpt><trkpt lat="46.20923454092454" lon="9.459494872456924"><ele>203.0</ele><time>2026-05-02T11:56:36Z</time></trkpt><trkpt lat="46.209141732980235" lon="9.459661371929899"><ele>203.0</ele><time>2026-05-02T11:56:37Z</time></trkpt><trkpt lat="46.20904277136301" lon="9.45980288734153"><ele>203.0</ele><time>2026-05-02T11:56:38Z</time></trkpt><trkpt lat="46.20891197510343" lon="9.459971780555012"><ele>202.66666666666669</ele><time>2026-05-02T11:56:39Z</time></trkpt><trkpt lat="46.208781601481995" lon="9.460108515117872"><ele>202.33333333333331</ele><time>2026-05-02T11:56:40Z</time></trkpt><trkpt lat="46.20865808704301" lon="9.460246414932998"><ele>202.0</ele><time>2026-05-02T11:56:41Z</time></trkpt><trkpt lat="46.208529675661275" lon="9.46036844702226"><ele>202.0</ele><time>2026-05-02T11:56:42Z</time></trkpt><trkpt lat="46.20838223250021" lon="9.460447224659392"><ele>202.0</ele><time>2026-05-02T11:56:43Z</time></trkpt><trkpt lat="46.20823410723284" lon="9.4605132338625"><ele>202.0</ele><time>2026-05-02T11:56:44Z</time></trkpt><trkpt lat="46.208056306754614" lon="9.46054573440013"><ele>205.0</ele><time>2026-05-02T11:56:45Z</time></trkpt><trkpt lat="46.20787915874821" lon="9.460551029287675"><ele>208.0</ele><time>2026-05-02T11:56:46Z</time></trkpt><trkpt lat="46.20771070590187" lon="9.460513339595515"><ele>211.0</ele><time>2026-05-02T11:56:47Z</time></trkpt><trkpt lat="46.207555612731234" lon="9.460481546013352"><ele>211.0</ele><time>2026-05-02T11:56:48Z</time></trkpt><trkpt lat="46.207395667976" lon="9.460480727832381"><ele>211.0</ele><time>2026-05-02T11:56:49Z</time></trkpt><trkpt lat="46.20723898164554" lon="9.460526704539072"><ele>211.0</ele><time>2026-05-02T11:56:50Z</time></trkpt><trkpt lat="46.20708336219857" lon="9.460588874372668"><ele>216.66666666666666</ele><time>2026-05-02T11:56:51Z</time></trkpt><trkpt lat="46.20692441182987" lon="9.460652782195378"><ele>222.33333333333331</ele><time>2026-05-02T11:56:52Z</time></trkpt><trkpt lat="46.20676791717555" lon="9.460723555245384"><ele>228.0</ele><time>2026-05-02T11:56:53Z</time></trkpt><trkpt lat="46.20661154876971" lon="9.46078757653063"><ele>250.0</ele><time>2026-05-02T11:56:54Z</time></trkpt><trkpt lat="46.206453018236445" lon="9.460851618989928"><ele>272.0</ele><time>2026-05-02T11:56:55Z</time></trkpt><trkpt lat="46.20628954515006" lon="9.46091596696543"><ele>294.0</ele><time>2026-05-02T11:56:56.02Z</time></trkpt><trkpt lat="46.206130369209646" lon="9.46097847482051"><ele>294.0</ele><time>2026-05-02T11:56:57.019Z</time></trkpt><trkpt lat="46.20596384979934" lon="9.461001273897342"><ele>294.0</ele><time>2026-05-02T11:56:58.02Z</time></trkpt><trkpt lat="46.20580413050313" lon="9.461019903949643"><ele>294.0</ele><time>2026-05-02T11:56:59.013Z</time></trkpt><trkpt lat="46.20564655825494" lon="9.461028255880295"><ele>311.0</ele><time>2026-05-02T11:57:00.02Z</time></trkpt><trkpt lat="46.20404559126365" lon="9.460508224921968"><ele>290.0</ele><time>2026-05-02T11:57:03.711Z</time></trkpt><trkpt lat="46.203652418625474" lon="9.460194204034602"><ele>269.0</ele><time>2026-05-02T11:57:04.71Z</time></trkpt><trkpt lat="46.20325948746686" lon="9.45987743525818"><ele>247.0</ele><time>2026-05-02T11:57:05.711Z</time></trkpt><trkpt lat="46.20288125861646" lon="9.45952876929181"><ele>225.0</ele><time>2026-05-02T11:57:06.712Z</time></trkpt><trkpt lat="46.2026984" lon="9.4592285"><ele>216.0</ele><time>2026-05-02T11:57:07.711Z</time></trkpt><trkpt lat="46.20260847736728" lon="9.458683189013469"><ele>207.0</ele><time>2026-05-02T11:57:20.999Z</time></trkpt><trkpt lat="46.202545083985335" lon="9.458532405550665"><ele>207.0</ele><time>2026-05-02T11:57:21.999Z</time></trkpt><trkpt lat="46.202490608692784" lon="9.458333802802095"><ele>207.0</ele><time>2026-05-02T11:57:22.999Z</time></trkpt><trkpt lat="46.20244039644798" lon="9.458128364736103"><ele>207.0</ele><time>2026-05-02T11:57:23.999Z</time></trkpt><trkpt lat="46.202386210692666" lon="9.457915968250605"><ele>208.33333333333331</ele><time>2026-05-02T11:57:24.999Z</time></trkpt><trkpt lat="46.20233079147502" lon="9.457718435849484"><ele>209.66666666666666</ele><time>2026-05-02T11:57:25.999Z</time></trkpt><trkpt lat="46.20228037633722" lon="9.457511992730067"><ele>211.0</ele><time>2026-05-02T11:57:27Z</time></trkpt><trkpt lat="46.202231983393844" lon="9.45730491714415"><ele>209.66666666666666</ele><time>2026-05-02T11:57:28Z</time></trkpt><trkpt lat="46.20217276940164" lon="9.45708719538662"><ele>208.33333333333331</ele><time>2026-05-02T11:57:29Z</time></trkpt><trkpt lat="46.202114006791724" lon="9.456866464097248"><ele>207.0</ele><time>2026-05-02T11:57:30Z</time></trkpt><trkpt lat="46.20205959099351" lon="9.456654297065295"><ele>207.0</ele><time>2026-05-02T11:57:31Z</time></trkpt><trkpt lat="46.202005285341066" lon="9.456440004714093"><ele>207.0</ele><time>2026-05-02T11:57:32Z</time></trkpt><trkpt lat="46.20195660815768" lon="9.456224017325235"><ele>207.0</ele><time>2026-05-02T11:57:33Z</time></trkpt><trkpt lat="46.20189584164561" lon="9.45599545795757"><ele>206.33333333333331</ele><time>2026-05-02T11:57:34Z</time></trkpt><trkpt lat="46.20182703629431" lon="9.45578735126389"><ele>205.66666666666666</ele><time>2026-05-02T11:57:35Z</time></trkpt><trkpt lat="46.201777880295275" lon="9.455555348865794"><ele>205.0</ele><time>2026-05-02T11:57:36Z</time></trkpt><trkpt lat="46.20171852699929" lon="9.455319391529288"><ele>204.66666666666666</ele><time>2026-05-02T11:57:37Z</time></trkpt><trkpt lat="46.20164612689939" lon="9.455086444257637"><ele>204.33333333333331</ele><time>2026-05-02T11:57:38Z</time></trkpt><trkpt lat="46.201588792720145" lon="9.454836029643145"><ele>204.0</ele><time>2026-05-02T11:57:39Z</time></trkpt><trkpt lat="46.20150586057483" lon="9.454620380491871"><ele>204.66666666666669</ele><time>2026-05-02T11:57:40Z</time></trkpt><trkpt lat="46.201421907966804" lon="9.454390419948085"><ele>205.33333333333334</ele><time>2026-05-02T11:57:41Z</time></trkpt><trkpt lat="46.201352465103724" lon="9.454170963232457"><ele>206.0</ele><time>2026-05-02T11:57:42Z</time></trkpt><trkpt lat="46.20126205840669" lon="9.453971072111338"><ele>206.0</ele><time>2026-05-02T11:57:43Z</time></trkpt><trkpt lat="46.2011733316034" lon="9.453700621886412"><ele>206.0</ele><time>2026-05-02T11:57:44Z</time></trkpt><trkpt lat="46.20107716540896" lon="9.453471667953655"><ele>206.0</ele><time>2026-05-02T11:57:45Z</time></trkpt><trkpt lat="46.200979796234506" lon="9.453259449831943"><ele>206.0</ele><time>2026-05-02T11:57:46Z</time></trkpt><trkpt lat="46.20088274006952" lon="9.453081387961815"><ele>206.0</ele><time>2026-05-02T11:57:47Z</time></trkpt><trkpt lat="46.20076139680169" lon="9.452881059087167"><ele>206.0</ele><time>2026-05-02T11:57:48Z</time></trkpt><trkpt lat="46.200633193934905" lon="9.452704900806284"><ele>205.66666666666669</ele><time>2026-05-02T11:57:49Z</time></trkpt><trkpt lat="46.2004981214325" lon="9.452535157874872"><ele>205.33333333333331</ele><time>2026-05-02T11:57:50Z</time></trkpt><trkpt lat="46.2003908462229" lon="9.452420769466597"><ele>205.0</ele><time>2026-05-02T11:57:51Z</time></trkpt><trkpt lat="46.200256087016044" lon="9.4522817834469"><ele>205.0</ele><time>2026-05-02T11:57:52Z</time></trkpt><trkpt lat="46.20011170108189" lon="9.452154924945388"><ele>205.0</ele><time>2026-05-02T11:57:53Z</time></trkpt><trkpt lat="46.19992852326043" lon="9.45205262634619"><ele>205.0</ele><time>2026-05-02T11:57:54Z</time></trkpt><trkpt lat="46.199753342284744" lon="9.45195361408757"><ele>205.33333333333331</ele><time>2026-05-02T11:57:55Z</time></trkpt><trkpt lat="46.19956841586409" lon="9.451857599421917"><ele>205.66666666666669</ele><time>2026-05-02T11:57:56Z</time></trkpt><trkpt lat="46.19937583542573" lon="9.451766673859645"><ele>206.0</ele><time>2026-05-02T11:57:57Z</time></trkpt><trkpt lat="46.19918513488085" lon="9.451666504309767"><ele>206.0</ele><time>2026-05-02T11:57:58Z</time></trkpt><trkpt lat="46.19898957722741" lon="9.451575412119094"><ele>206.0</ele><time>2026-05-02T11:57:59Z</time></trkpt><trkpt lat="46.19879788277308" lon="9.451497546098938"><ele>206.0</ele><time>2026-05-02T11:58:00Z</time></trkpt><trkpt lat="46.198600151796825" lon="9.451450863346356"><ele>206.0</ele><time>2026-05-02T11:58:01Z</time></trkpt><trkpt lat="46.19840024910195" lon="9.451421888155537"><ele>206.0</ele><time>2026-05-02T11:58:02Z</time></trkpt><trkpt lat="46.19820745359635" lon="9.451430715490723"><ele>206.0</ele><time>2026-05-02T11:58:03Z</time></trkpt><trkpt lat="46.19801493645556" lon="9.451450732945636"><ele>205.66666666666669</ele><time>2026-05-02T11:58:04Z</time></trkpt><trkpt lat="46.1978149310548" lon="9.45145007569963"><ele>205.33333333333331</ele><time>2026-05-02T11:58:05Z</time></trkpt><trkpt lat="46.197615540497885" lon="9.451457186406728"><ele>205.0</ele><time>2026-05-02T11:58:06Z</time></trkpt><trkpt lat="46.1974246315659" lon="9.451472891314097"><ele>204.33333333333331</ele><time>2026-05-02T11:58:07Z</time></trkpt><trkpt lat="46.19724887914931" lon="9.451477834804042"><ele>203.66666666666669</ele><time>2026-05-02T11:58:08Z</time></trkpt><trkpt lat="46.197083264038746" lon="9.451469166512817"><ele>203.0</ele><time>2026-05-02T11:58:09Z</time></trkpt><trkpt lat="46.196936960157466" lon="9.451473948367765"><ele>203.0</ele><time>2026-05-02T11:58:10Z</time></trkpt><trkpt lat="46.19678777558094" lon="9.451475989125562"><ele>203.0</ele><time>2026-05-02T11:58:11Z</time></trkpt><trkpt lat="46.19664004824766" lon="9.451468705499385"><ele>203.0</ele><time>2026-05-02T11:58:12Z</time></trkpt><trkpt lat="46.196492485389875" lon="9.451454517655717"><ele>203.0</ele><time>2026-05-02T11:58:13Z</time></trkpt><trkpt lat="46.196343117999454" lon="9.451421654146202"><ele>203.0</ele><time>2026-05-02T11:58:14Z</time></trkpt><trkpt lat="46.19619263527438" lon="9.451378532689727"><ele>203.0</ele><time>2026-05-02T11:58:15Z</time></trkpt><trkpt lat="46.196047171637574" lon="9.451333112859789"><ele>203.0</ele><time>2026-05-02T11:58:16Z</time></trkpt><trkpt lat="46.19589940508413" lon="9.451266610737388"><ele>203.0</ele><time>2026-05-02T11:58:17Z</time></trkpt><trkpt lat="46.19575160990428" lon="9.451203694264123"><ele>203.0</ele><time>2026-05-02T11:58:18Z</time></trkpt><trkpt lat="46.19559863626316" lon="9.451125659559436"><ele>203.0</ele><time>2026-05-02T11:58:19Z</time></trkpt><trkpt lat="46.19544676555817" lon="9.451036837959734"><ele>203.0</ele><time>2026-05-02T11:58:20Z</time></trkpt><trkpt lat="46.195302890056" lon="9.450952953886407"><ele>203.0</ele><time>2026-05-02T11:58:21Z</time></trkpt><trkpt lat="46.195145382660805" lon="9.450886196100642"><ele>203.0</ele><time>2026-05-02T11:58:22Z</time></trkpt><trkpt lat="46.19497554892697" lon="9.450830595965579"><ele>213.0</ele><time>2026-05-02T11:58:23Z</time></trkpt><trkpt lat="46.19480217429759" lon="9.45077755900413"><ele>223.0</ele><time>2026-05-02T11:58:24Z</time></trkpt><trkpt lat="46.19462958214253" lon="9.450751530742645"><ele>233.0</ele><time>2026-05-02T11:58:25Z</time></trkpt><trkpt lat="46.194458442057915" lon="9.450734539061985"><ele>233.0</ele><time>2026-05-02T11:58:26Z</time></trkpt><trkpt lat="46.19428947631151" lon="9.450708382609768"><ele>233.0</ele><time>2026-05-02T11:58:27Z</time></trkpt><trkpt lat="46.194112619595096" lon="9.450680936795234"><ele>233.0</ele><time>2026-05-02T11:58:28.019Z</time></trkpt><trkpt lat="46.19394179274199" lon="9.45065445871102"><ele>253.0</ele><time>2026-05-02T11:58:29.018Z</time></trkpt><trkpt lat="46.192356364878485" lon="9.449991210855824"><ele>282.0</ele><time>2026-05-02T11:58:32.709Z</time></trkpt><trkpt lat="46.191934482552554" lon="9.44976529640548"><ele>241.0</ele><time>2026-05-02T11:58:33.71Z</time></trkpt><trkpt lat="46.191512549664836" lon="9.449539354879724"><ele>253.5</ele><time>2026-05-02T11:58:34.711Z</time></trkpt><trkpt lat="46.191091261414776" lon="9.449313758552032"><ele>266.0</ele><time>2026-05-02T11:58:35.71Z</time></trkpt><trkpt lat="46.19066969661866" lon="9.44908787508443"><ele>277.0</ele><time>2026-05-02T11:58:36.71Z</time></trkpt><trkpt lat="46.19025768957944" lon="9.448828960408907"><ele>288.0</ele><time>2026-05-02T11:58:37.71Z</time></trkpt><trkpt lat="46.18986952364944" lon="9.44850239741139"><ele>285.5</ele><time>2026-05-02T11:58:38.71Z</time></trkpt><trkpt lat="46.1896244" lon="9.4482422"><ele>283.0</ele><time>2026-05-02T11:58:39.711Z</time></trkpt><trkpt lat="46.18847797163407" lon="9.445959040903901"><ele>262.0</ele><time>2026-05-02T11:59:01.999Z</time></trkpt><trkpt lat="46.188374306285745" lon="9.445749845910772"><ele>241.0</ele><time>2026-05-02T11:59:02.999Z</time></trkpt><trkpt lat="46.18819199393816" lon="9.44552313146607"><ele>220.0</ele><time>2026-05-02T11:59:03.999Z</time></trkpt><trkpt lat="46.18803157696488" lon="9.445338723961346"><ele>220.0</ele><time>2026-05-02T11:59:04.999Z</time></trkpt><trkpt lat="46.187903713880765" lon="9.445162025172449"><ele>220.0</ele><time>2026-05-02T11:59:05.999Z</time></trkpt><trkpt lat="46.18774381163399" lon="9.444997862289078"><ele>220.0</ele><time>2026-05-02T11:59:06.999Z</time></trkpt><trkpt lat="46.1875751182577" lon="9.444862875448232"><ele>220.0</ele><time>2026-05-02T11:59:07.999Z</time></trkpt><trkpt lat="46.18741463119052" lon="9.444746301201688"><ele>220.0</ele><time>2026-05-02T11:59:08.999Z</time></trkpt><trkpt lat="46.187252576047285" lon="9.444615954796367"><ele>220.0</ele><time>2026-05-02T11:59:09.999Z</time></trkpt><trkpt lat="46.187100812771" lon="9.444536365889263"><ele>215.0</ele><time>2026-05-02T11:59:10.999Z</time></trkpt><trkpt lat="46.18695201857416" lon="9.44444681558677"><ele>210.0</ele><time>2026-05-02T11:59:11.999Z</time></trkpt><trkpt lat="46.186811945839146" lon="9.444376535465649"><ele>205.0</ele><time>2026-05-02T11:59:12.999Z</time></trkpt><trkpt lat="46.18663871902947" lon="9.444354544678566"><ele>206.0</ele><time>2026-05-02T11:59:13.999Z</time></trkpt><trkpt lat="46.18647081497551" lon="9.444298748234202"><ele>207.0</ele><time>2026-05-02T11:59:14.999Z</time></trkpt><trkpt lat="46.186307535398385" lon="9.444257648513261"><ele>208.0</ele><time>2026-05-02T11:59:15.999Z</time></trkpt><trkpt lat="46.18611727284673" lon="9.444217182613773"><ele>208.0</ele><time>2026-05-02T11:59:16.999Z</time></trkpt><trkpt lat="46.18590198457192" lon="9.444171272595248"><ele>208.0</ele><time>2026-05-02T11:59:17.999Z</time></trkpt><trkpt lat="46.185679031744804" lon="9.444133760844863"><ele>208.0</ele><time>2026-05-02T11:59:18.999Z</time></trkpt><trkpt lat="46.18550239979293" lon="9.444073933841869"><ele>207.66666666666666</ele><time>2026-05-02T11:59:19.999Z</time></trkpt><trkpt lat="46.185332912505295" lon="9.444010604157711"><ele>207.33333333333331</ele><time>2026-05-02T11:59:20.999Z</time></trkpt><trkpt lat="46.18515993131065" lon="9.443961552752306"><ele>207.0</ele><time>2026-05-02T11:59:21.999Z</time></trkpt><trkpt lat="46.18499536715205" lon="9.44392301160945"><ele>205.0</ele><time>2026-05-02T11:59:22.999Z</time></trkpt><trkpt lat="46.18484453088456" lon="9.443866276743071"><ele>203.0</ele><time>2026-05-02T11:59:23.999Z</time></trkpt><trkpt lat="46.18470376734724" lon="9.443805831549119"><ele>201.0</ele><time>2026-05-02T11:59:24.999Z</time></trkpt><trkpt lat="46.18455392545415" lon="9.443733114308465"><ele>200.33333333333331</ele><time>2026-05-02T11:59:25.999Z</time></trkpt><trkpt lat="46.184402003663095" lon="9.443654881886637"><ele>199.66666666666666</ele><time>2026-05-02T11:59:26.999Z</time></trkpt><trkpt lat="46.18425063280453" lon="9.44357111391663"><ele>199.0</ele><time>2026-05-02T11:59:27.999Z</time></trkpt><trkpt lat="46.184094483937756" lon="9.443480383606106"><ele>199.33333333333331</ele><time>2026-05-02T11:59:28.999Z</time></trkpt><trkpt lat="46.183942143213066" lon="9.443372475679352"><ele>199.66666666666669</ele><time>2026-05-02T11:59:29.999Z</time></trkpt><trkpt lat="46.18378320868724" lon="9.443243938488168"><ele>200.0</ele><time>2026-05-02T11:59:30.999Z</time></trkpt><trkpt lat="46.18362323029967" lon="9.443111765893585"><ele>200.0</ele><time>2026-05-02T11:59:31.999Z</time></trkpt><trkpt lat="46.18346668551287" lon="9.4429715683119"><ele>200.0</ele><time>2026-05-02T11:59:33Z</time></trkpt><trkpt lat="46.183310646009204" lon="9.442830756037171"><ele>200.0</ele><time>2026-05-02T11:59:34Z</time></trkpt><trkpt lat="46.183158122560755" lon="9.442677779788362"><ele>201.0</ele><time>2026-05-02T11:59:35Z</time></trkpt><trkpt lat="46.182978691992574" lon="9.442471764100132"><ele>202.0</ele><time>2026-05-02T11:59:36Z</time></trkpt><trkpt lat="46.18278719477236" lon="9.442282890704059"><ele>201.66666666666666</ele><time>2026-05-02T11:59:37Z</time></trkpt><trkpt lat="46.182613546908804" lon="9.442106119762144"><ele>201.33333333333331</ele><time>2026-05-02T11:59:38Z</time></trkpt><trkpt lat="46.18244830900981" lon="9.441947111417091"><ele>201.0</ele><time>2026-05-02T11:59:39Z</time></trkpt><trkpt lat="46.18229488460162" lon="9.441811076029303"><ele>200.5</ele><time>2026-05-02T11:59:40Z</time></trkpt><trkpt lat="46.182138207080925" lon="9.44167741651869"><ele>200.0</ele><time>2026-05-02T11:59:41Z</time></trkpt><trkpt lat="46.18187420197168" lon="9.44138768417622"><ele>199.33333333333334</ele><time>2026-05-02T11:59:43Z</time></trkpt><trkpt lat="46.181738859515846" lon="9.441240410558786"><ele>198.66666666666669</ele><time>2026-05-02T11:59:44Z</time></trkpt><trkpt lat="46.18160818942388" lon="9.441106641874613"><ele>198.0</ele><time>2026-05-02T11:59:45Z</time></trkpt><trkpt lat="46.18146915309029" lon="9.440968524231252"><ele>199.66666666666669</ele><time>2026-05-02T11:59:46Z</time></trkpt><trkpt lat="46.18134324976339" lon="9.440839355132178"><ele>201.33333333333334</ele><time>2026-05-02T11:59:47Z</time></trkpt><trkpt lat="46.18120468749771" lon="9.440712837395258"><ele>203.0</ele><time>2026-05-02T11:59:48Z</time></trkpt><trkpt lat="46.18107435866011" lon="9.440579464374178"><ele>202.0</ele><time>2026-05-02T11:59:49Z</time></trkpt><trkpt lat="46.18093631811121" lon="9.440438240848335"><ele>201.0</ele><time>2026-05-02T11:59:50Z</time></trkpt><trkpt lat="46.180793176318666" lon="9.440300986097546"><ele>200.0</ele><time>2026-05-02T11:59:51Z</time></trkpt><trkpt lat="46.18066209970333" lon="9.440169586599842"><ele>200.0</ele><time>2026-05-02T11:59:52Z</time></trkpt><trkpt lat="46.18053405877622" lon="9.440042446930091"><ele>200.0</ele><time>2026-05-02T11:59:53Z</time></trkpt><trkpt lat="46.18040899683914" lon="9.439920615148017"><ele>200.0</ele><time>2026-05-02T11:59:54Z</time></trkpt><trkpt lat="46.18028752066531" lon="9.439800186569153"><ele>200.0</ele><time>2026-05-02T11:59:55Z</time></trkpt><trkpt lat="46.18014855910456" lon="9.439669882600414"><ele>200.0</ele><time>2026-05-02T11:59:56Z</time></trkpt><trkpt lat="46.18001633720883" lon="9.439542130463764"><ele>200.0</ele><time>2026-05-02T11:59:57Z</time></trkpt><trkpt lat="46.179904298314334" lon="9.439416467741198"><ele>200.33333333333334</ele><time>2026-05-02T11:59:58Z</time></trkpt><trkpt lat="46.179784563373964" lon="9.439295193946782"><ele>200.66666666666669</ele><time>2026-05-02T11:59:59Z</time></trkpt><trkpt lat="46.17965689839337" lon="9.439171958219957"><ele>201.0</ele><time>2026-05-02T12:00:00Z</time></trkpt><trkpt lat="46.17952847180852" lon="9.43904197514307"><ele>201.0</ele><time>2026-05-02T12:00:01Z</time></trkpt><trkpt lat="46.1794033121239" lon="9.438915166024605"><ele>201.0</ele><time>2026-05-02T12:00:02Z</time></trkpt><trkpt lat="46.17927652773099" lon="9.438780733297564"><ele>201.0</ele><time>2026-05-02T12:00:03Z</time></trkpt><trkpt lat="46.17914892455108" lon="9.438651785359195"><ele>201.33333333333331</ele><time>2026-05-02T12:00:04Z</time></trkpt><trkpt lat="46.17901177725747" lon="9.438526713960691"><ele>201.66666666666666</ele><time>2026-05-02T12:00:05Z</time></trkpt><trkpt lat="46.17888043548749" lon="9.438396435551654"><ele>202.0</ele><time>2026-05-02T12:00:06Z</time></trkpt><trkpt lat="46.17875524499181" lon="9.438262688173857"><ele>202.0</ele><time>2026-05-02T12:00:07Z</time></trkpt><trkpt lat="46.17862459085618" lon="9.438134209024613"><ele>202.0</ele><time>2026-05-02T12:00:08Z</time></trkpt><trkpt lat="46.17849031373007" lon="9.438005184576152"><ele>202.0</ele><time>2026-05-02T12:00:09Z</time></trkpt><trkpt lat="46.178368140957346" lon="9.437877731004647"><ele>201.0</ele><time>2026-05-02T12:00:10Z</time></trkpt><trkpt lat="46.17823543540094" lon="9.437751919658158"><ele>200.0</ele><time>2026-05-02T12:00:11Z</time></trkpt><trkpt lat="46.178099944702936" lon="9.437620566875847"><ele>199.0</ele><time>2026-05-02T12:00:12Z</time></trkpt><trkpt lat="46.17796982792128" lon="9.437484150808029"><ele>199.0</ele><time>2026-05-02T12:00:13Z</time></trkpt><trkpt lat="46.177844813941" lon="9.437352239218445"><ele>199.0</ele><time>2026-05-02T12:00:14Z</time></trkpt><trkpt lat="46.17773936305912" lon="9.437239161756818"><ele>199.0</ele><time>2026-05-02T12:00:15Z</time></trkpt><trkpt lat="46.17760826851023" lon="9.437107946701648"><ele>199.0</ele><time>2026-05-02T12:00:16Z</time></trkpt><trkpt lat="46.17752662572065" lon="9.436978927255627"><ele>199.66666666666666</ele><time>2026-05-02T12:00:17Z</time></trkpt><trkpt lat="46.17737140174711" lon="9.436836489453919"><ele>200.33333333333331</ele><time>2026-05-02T12:00:18Z</time></trkpt><trkpt lat="46.17720156747741" lon="9.43669260043136"><ele>201.0</ele><time>2026-05-02T12:00:19Z</time></trkpt><trkpt lat="46.177071689600986" lon="9.436520608688653"><ele>201.0</ele><time>2026-05-02T12:00:20Z</time></trkpt><trkpt lat="46.17691209565657" lon="9.43635719125266"><ele>201.0</ele><time>2026-05-02T12:00:21Z</time></trkpt><trkpt lat="46.17673998892748" lon="9.436195185701338"><ele>201.0</ele><time>2026-05-02T12:00:22Z</time></trkpt><trkpt lat="46.176549868928824" lon="9.43602649644101"><ele>201.0</ele><time>2026-05-02T12:00:23Z</time></trkpt><trkpt lat="46.17635669716485" lon="9.435838889458228"><ele>201.0</ele><time>2026-05-02T12:00:24Z</time></trkpt><trkpt lat="46.1761706255201" lon="9.435628058202555"><ele>201.33333333333331</ele><time>2026-05-02T12:00:25Z</time></trkpt><trkpt lat="46.17602054400587" lon="9.435433685583211"><ele>201.66666666666666</ele><time>2026-05-02T12:00:26Z</time></trkpt><trkpt lat="46.17586044928591" lon="9.435274098904216"><ele>202.0</ele><time>2026-05-02T12:00:27Z</time></trkpt><trkpt lat="46.17571303023653" lon="9.43512728703927"><ele>202.33333333333331</ele><time>2026-05-02T12:00:28Z</time></trkpt><trkpt lat="46.175567955359554" lon="9.43499344760244"><ele>202.66666666666669</ele><time>2026-05-02T12:00:29Z</time></trkpt><trkpt lat="46.1754194240477" lon="9.434851166502904"><ele>203.0</ele><time>2026-05-02T12:00:30Z</time></trkpt><trkpt lat="46.17526978910143" lon="9.434731539527672"><ele>202.25</ele><time>2026-05-02T12:00:31Z</time></trkpt><trkpt lat="46.1751285555588" lon="9.434620094050398"><ele>201.5</ele><time>2026-05-02T12:00:32Z</time></trkpt><trkpt lat="46.1750063434227" lon="9.434543701236185"><ele>200.75</ele><time>2026-05-02T12:00:33Z</time></trkpt><trkpt lat="46.17489400681734" lon="9.434487245863481"><ele>200.0</ele><time>2026-05-02T12:00:34Z</time></trkpt><trkpt lat="46.17478961673416" lon="9.434432582473487"><ele>199.75</ele><time>2026-05-02T12:00:35Z</time></trkpt><trkpt lat="46.174683004304484" lon="9.434370741905084"><ele>199.5</ele><time>2026-05-02T12:00:36Z</time></trkpt><trkpt lat="46.17457222351006" lon="9.434307504456546"><ele>199.25</ele><time>2026-05-02T12:00:37Z</time></trkpt><trkpt lat="46.174447461785256" lon="9.434248991347307"><ele>199.0</ele><time>2026-05-02T12:00:38Z</time></trkpt><trkpt lat="46.174324275800174" lon="9.434203470171468"><ele>199.0</ele><time>2026-05-02T12:00:39Z</time></trkpt><trkpt lat="46.17421669804945" lon="9.43415378566592"><ele>199.0</ele><time>2026-05-02T12:00:40Z</time></trkpt><trkpt lat="46.174106723010745" lon="9.43410863468551"><ele>199.0</ele><time>2026-05-02T12:00:41Z</time></trkpt><trkpt lat="46.17399019513832" lon="9.434066439241128"><ele>199.0</ele><time>2026-05-02T12:00:42Z</time></trkpt><trkpt lat="46.17388640047013" lon="9.434026676422755"><ele>198.99999999999997</ele><time>2026-05-02T12:00:43Z</time></trkpt><trkpt lat="46.17379866959587" lon="9.433975260791645"><ele>199.0</ele><time>2026-05-02T12:00:44Z</time></trkpt><trkpt lat="46.17371025334812" lon="9.433932217276425"><ele>199.0</ele><time>2026-05-02T12:00:45Z</time></trkpt><trkpt lat="46.17363033510011" lon="9.433889539538765"><ele>199.0</ele><time>2026-05-02T12:00:46Z</time></trkpt><trkpt lat="46.17355027799719" lon="9.433860967564957"><ele>198.99999999999997</ele><time>2026-05-02T12:00:47Z</time></trkpt><trkpt lat="46.17346664778675" lon="9.433822843231889"><ele>199.0</ele><time>2026-05-02T12:00:48Z</time></trkpt><trkpt lat="46.17337849051775" lon="9.433779942838552"><ele>199.0</ele><time>2026-05-02T12:00:49Z</time></trkpt><trkpt lat="46.173277213133915" lon="9.433735512081672"><ele>199.0</ele><time>2026-05-02T12:00:49.999Z</time></trkpt><trkpt lat="46.17316736034615" lon="9.433699116775163"><ele>199.0</ele><time>2026-05-02T12:00:50.999Z</time></trkpt><trkpt lat="46.17306140338485" lon="9.433651034938357"><ele>199.0</ele><time>2026-05-02T12:00:51.999Z</time></trkpt><trkpt lat="46.17295441390054" lon="9.43359835443173"><ele>199.0</ele><time>2026-05-02T12:00:52.999Z</time></trkpt><trkpt lat="46.17284223012432" lon="9.433556133993632"><ele>199.2</ele><time>2026-05-02T12:00:53.999Z</time></trkpt><trkpt lat="46.172732013529924" lon="9.433508856425128"><ele>199.39999999999998</ele><time>2026-05-02T12:00:54.999Z</time></trkpt><trkpt lat="46.172629497559235" lon="9.433463065346391"><ele>199.6</ele><time>2026-05-02T12:00:55.999Z</time></trkpt><trkpt lat="46.17254635303242" lon="9.433426499539914"><ele>199.8</ele><time>2026-05-02T12:00:56.999Z</time></trkpt><trkpt lat="46.17246072381677" lon="9.43339325257733"><ele>200.0</ele><time>2026-05-02T12:00:57.999Z</time></trkpt><trkpt lat="46.17237719156358" lon="9.43335331771575"><ele>200.16666666666669</ele><time>2026-05-02T12:00:58.999Z</time></trkpt><trkpt lat="46.17229533876062" lon="9.433315411302283"><ele>200.33333333333334</ele><time>2026-05-02T12:00:59.999Z</time></trkpt><trkpt lat="46.1722164867567" lon="9.433277466195143"><ele>200.5</ele><time>2026-05-02T12:01:00.999Z</time></trkpt><trkpt lat="46.172136305552115" lon="9.433231824492493"><ele>200.66666666666669</ele><time>2026-05-02T12:01:01.999Z</time></trkpt><trkpt lat="46.17206511978524" lon="9.433179662644445"><ele>200.83333333333334</ele><time>2026-05-02T12:01:02.999Z</time></trkpt><trkpt lat="46.17199631858999" lon="9.433126507980404"><ele>201.0</ele><time>2026-05-02T12:01:03.999Z</time></trkpt><trkpt lat="46.171928735825766" lon="9.433064638307266"><ele>201.0</ele><time>2026-05-02T12:01:04.999Z</time></trkpt><trkpt lat="46.17185974796225" lon="9.432993538325697"><ele>201.0</ele><time>2026-05-02T12:01:05.999Z</time></trkpt><trkpt lat="46.17178858900455" lon="9.43291873988701"><ele>201.0</ele><time>2026-05-02T12:01:06.999Z</time></trkpt><trkpt lat="46.17171981138132" lon="9.432837370551438"><ele>201.0</ele><time>2026-05-02T12:01:07.999Z</time></trkpt><trkpt lat="46.17165606613927" lon="9.432755292067286"><ele>201.0</ele><time>2026-05-02T12:01:08.999Z</time></trkpt><trkpt lat="46.171607858363345" lon="9.432670745163108"><ele>201.0</ele><time>2026-05-02T12:01:09.999Z</time></trkpt><trkpt lat="46.17156128705725" lon="9.43256184727807"><ele>201.0</ele><time>2026-05-02T12:01:10.999Z</time></trkpt><trkpt lat="46.17153993509896" lon="9.432462251369966"><ele>201.0</ele><time>2026-05-02T12:01:11.999Z</time></trkpt><trkpt lat="46.171538117499885" lon="9.432337873568457"><ele>201.0</ele><time>2026-05-02T12:01:12.999Z</time></trkpt><trkpt lat="46.171543958940326" lon="9.432200855596736"><ele>201.0</ele><time>2026-05-02T12:01:13.999Z</time></trkpt><trkpt lat="46.171558628265004" lon="9.432046279721638"><ele>201.0</ele><time>2026-05-02T12:01:14.999Z</time></trkpt><trkpt lat="46.171569284761745" lon="9.431875783611966"><ele>200.8</ele><time>2026-05-02T12:01:15.999Z</time></trkpt><trkpt lat="46.17156380250886" lon="9.43172347228396"><ele>200.60000000000002</ele><time>2026-05-02T12:01:16.999Z</time></trkpt><trkpt lat="46.171565495196525" lon="9.43159430600665"><ele>200.4</ele><time>2026-05-02T12:01:17.999Z</time></trkpt><trkpt lat="46.1715727714123" lon="9.431476036963552"><ele>200.2</ele><time>2026-05-02T12:01:18.999Z</time></trkpt><trkpt lat="46.17157761695002" lon="9.431359794536112"><ele>200.0</ele><time>2026-05-02T12:01:19.999Z</time></trkpt><trkpt lat="46.17156194692348" lon="9.431205863043234"><ele>200.0</ele><time>2026-05-02T12:01:20.999Z</time></trkpt><trkpt lat="46.17156310953321" lon="9.431027034293628"><ele>200.0</ele><time>2026-05-02T12:01:21.999Z</time></trkpt><trkpt lat="46.17157736797419" lon="9.430834366662792"><ele>200.0</ele><time>2026-05-02T12:01:22.999Z</time></trkpt><trkpt lat="46.171589689732315" lon="9.430574720452448"><ele>200.0</ele><time>2026-05-02T12:01:23.999Z</time></trkpt><trkpt lat="46.17160159577456" lon="9.430331586831178"><ele>200.5</ele><time>2026-05-02T12:01:24.999Z</time></trkpt><trkpt lat="46.17161374076407" lon="9.430129946149968"><ele>201.0</ele><time>2026-05-02T12:01:25.999Z</time></trkpt><trkpt lat="46.17161787789909" lon="9.429937870825976"><ele>201.5</ele><time>2026-05-02T12:01:26.999Z</time></trkpt><trkpt lat="46.171624893023925" lon="9.429740853194865"><ele>202.0</ele><time>2026-05-02T12:01:27.999Z</time></trkpt><trkpt lat="46.17163325718375" lon="9.429529559709712"><ele>202.0</ele><time>2026-05-02T12:01:28.999Z</time></trkpt><trkpt lat="46.17164556662374" lon="9.429312861415523"><ele>202.0</ele><time>2026-05-02T12:01:29.999Z</time></trkpt><trkpt lat="46.1716542530679" lon="9.429087114464057"><ele>202.0</ele><time>2026-05-02T12:01:30.999Z</time></trkpt><trkpt lat="46.17166258462857" lon="9.428843231129353"><ele>202.0</ele><time>2026-05-02T12:01:31.999Z</time></trkpt><trkpt lat="46.17166011534985" lon="9.428589396800477"><ele>202.0</ele><time>2026-05-02T12:01:32.999Z</time></trkpt><trkpt lat="46.171666682307844" lon="9.428332884337923"><ele>202.0</ele><time>2026-05-02T12:01:33.999Z</time></trkpt><trkpt lat="46.17168118990159" lon="9.428074927626348"><ele>201.66666666666666</ele><time>2026-05-02T12:01:34.999Z</time></trkpt><trkpt lat="46.17169329531198" lon="9.42781590427589"><ele>201.33333333333331</ele><time>2026-05-02T12:01:35.999Z</time></trkpt><trkpt lat="46.171702253391494" lon="9.427554118380172"><ele>201.0</ele><time>2026-05-02T12:01:36.999Z</time></trkpt><trkpt lat="46.17170668159092" lon="9.427301306663907"><ele>201.0</ele><time>2026-05-02T12:01:37.999Z</time></trkpt><trkpt lat="46.171709500195526" lon="9.427058409012679"><ele>201.0</ele><time>2026-05-02T12:01:39Z</time></trkpt><trkpt lat="46.17172178059366" lon="9.426831044450948"><ele>201.0</ele><time>2026-05-02T12:01:40Z</time></trkpt><trkpt lat="46.171729607853116" lon="9.426591110339436"><ele>201.0</ele><time>2026-05-02T12:01:41Z</time></trkpt><trkpt lat="46.171741054043466" lon="9.426356212652857"><ele>201.0</ele><time>2026-05-02T12:01:42Z</time></trkpt><trkpt lat="46.1717497953572" lon="9.426122226231636"><ele>201.0</ele><time>2026-05-02T12:01:43Z</time></trkpt><trkpt lat="46.17175759849981" lon="9.425883491256002"><ele>200.33333333333331</ele><time>2026-05-02T12:01:44Z</time></trkpt><trkpt lat="46.17176693257158" lon="9.425641784122309"><ele>199.66666666666666</ele><time>2026-05-02T12:01:45Z</time></trkpt><trkpt lat="46.17177739369782" lon="9.42537953329935"><ele>199.0</ele><time>2026-05-02T12:01:46Z</time></trkpt><trkpt lat="46.171789380727134" lon="9.425103713073542"><ele>199.0</ele><time>2026-05-02T12:01:47Z</time></trkpt><trkpt lat="46.17179525281013" lon="9.42479352538085"><ele>199.0</ele><time>2026-05-02T12:01:48Z</time></trkpt><trkpt lat="46.17181827637652" lon="9.424396043973472"><ele>199.33333333333331</ele><time>2026-05-02T12:01:49Z</time></trkpt><trkpt lat="46.17181841802071" lon="9.424277661409667"><ele>199.66666666666669</ele><time>2026-05-02T12:01:50Z</time></trkpt><trkpt lat="46.17182172096477" lon="9.423973936277848"><ele>200.0</ele><time>2026-05-02T12:01:51Z</time></trkpt><trkpt lat="46.17183025147351" lon="9.423671458684252"><ele>200.0</ele><time>2026-05-02T12:01:52Z</time></trkpt><trkpt lat="46.17183825248963" lon="9.423351512047219"><ele>200.0</ele><time>2026-05-02T12:01:53Z</time></trkpt><trkpt lat="46.1718561899311" lon="9.423047819706294"><ele>200.0</ele><time>2026-05-02T12:01:54Z</time></trkpt><trkpt lat="46.17187035331085" lon="9.422737447083785"><ele>200.0</ele><time>2026-05-02T12:01:55Z</time></trkpt><trkpt lat="46.17187789492151" lon="9.422423212867358"><ele>200.0</ele><time>2026-05-02T12:01:56Z</time></trkpt><trkpt lat="46.171888563339046" lon="9.422107786953768"><ele>200.0</ele><time>2026-05-02T12:01:57Z</time></trkpt><trkpt lat="46.17189934252721" lon="9.421793631236046"><ele>200.0</ele><time>2026-05-02T12:01:58Z</time></trkpt><trkpt lat="46.1719091271399" lon="9.421474618600142"><ele>200.0</ele><time>2026-05-02T12:01:59Z</time></trkpt><trkpt lat="46.171917373021316" lon="9.421151623627644"><ele>200.0</ele><time>2026-05-02T12:02:00Z</time></trkpt><trkpt lat="46.17192779882624" lon="9.420827043494713"><ele>200.0</ele><time>2026-05-02T12:02:01Z</time></trkpt><trkpt lat="46.17193969479171" lon="9.420498425639813"><ele>200.0</ele><time>2026-05-02T12:02:02Z</time></trkpt><trkpt lat="46.17195078811459" lon="9.420172254023187"><ele>200.5</ele><time>2026-05-02T12:02:03Z</time></trkpt><trkpt lat="46.17196154294933" lon="9.419843924170706"><ele>201.0</ele><time>2026-05-02T12:02:04Z</time></trkpt><trkpt lat="46.17197534742813" lon="9.419521201641592"><ele>201.0</ele><time>2026-05-02T12:02:05Z</time></trkpt><trkpt lat="46.171985461754275" lon="9.419201566026453"><ele>201.0</ele><time>2026-05-02T12:02:06Z</time></trkpt><trkpt lat="46.17199417873411" lon="9.418888112296543"><ele>201.0</ele><time>2026-05-02T12:02:07Z</time></trkpt><trkpt lat="46.172011444913004" lon="9.418574521142894"><ele>201.0</ele><time>2026-05-02T12:02:08Z</time></trkpt><trkpt lat="46.1720231310521" lon="9.418252437378069"><ele>201.0</ele><time>2026-05-02T12:02:09Z</time></trkpt><trkpt lat="46.17202702001727" lon="9.417937048801441"><ele>201.0</ele><time>2026-05-02T12:02:10Z</time></trkpt><trkpt lat="46.17203567044374" lon="9.417621176172167"><ele>200.5</ele><time>2026-05-02T12:02:11Z</time></trkpt><trkpt lat="46.1720498435937" lon="9.417300685622228"><ele>200.0</ele><time>2026-05-02T12:02:12Z</time></trkpt><trkpt lat="46.17206311021334" lon="9.416967137315252"><ele>200.0</ele><time>2026-05-02T12:02:13Z</time></trkpt><trkpt lat="46.17207597311462" lon="9.416634677014088"><ele>200.0</ele><time>2026-05-02T12:02:14Z</time></trkpt><trkpt lat="46.172086660338515" lon="9.416288872977072"><ele>200.0</ele><time>2026-05-02T12:02:15Z</time></trkpt><trkpt lat="46.17210319973926" lon="9.415977119929156"><ele>200.0</ele><time>2026-05-02T12:02:16Z</time></trkpt><trkpt lat="46.172127120777" lon="9.415717697319048"><ele>200.0</ele><time>2026-05-02T12:02:17Z</time></trkpt><trkpt lat="46.17213607302233" lon="9.415418104900162"><ele>200.0</ele><time>2026-05-02T12:02:18Z</time></trkpt><trkpt lat="46.172132924674166" lon="9.414949994219775"><ele>200.0</ele><time>2026-05-02T12:02:19Z</time></trkpt><trkpt lat="46.17211324102905" lon="9.414560812701092"><ele>200.33333333333334</ele><time>2026-05-02T12:02:20Z</time></trkpt><trkpt lat="46.17214036066062" lon="9.414177872794415"><ele>200.66666666666669</ele><time>2026-05-02T12:02:21Z</time></trkpt><trkpt lat="46.17215617177414" lon="9.413918205952303"><ele>201.0</ele><time>2026-05-02T12:02:22Z</time></trkpt><trkpt lat="46.172172559934545" lon="9.413586762463096"><ele>201.0</ele><time>2026-05-02T12:02:23Z</time></trkpt><trkpt lat="46.17218390358461" lon="9.413258858868774"><ele>201.0</ele><time>2026-05-02T12:02:24Z</time></trkpt><trkpt lat="46.172196399266944" lon="9.412926209115016"><ele>201.5</ele><time>2026-05-02T12:02:25Z</time></trkpt><trkpt lat="46.17220217363963" lon="9.412581453728428"><ele>202.0</ele><time>2026-05-02T12:02:26Z</time></trkpt><trkpt lat="46.17222171425018" lon="9.412259540319612"><ele>202.0</ele><time>2026-05-02T12:02:27Z</time></trkpt><trkpt lat="46.17221430380811" lon="9.41189803682719"><ele>202.0</ele><time>2026-05-02T12:02:28Z</time></trkpt><trkpt lat="46.172231633184914" lon="9.411478583599314"><ele>202.0</ele><time>2026-05-02T12:02:29Z</time></trkpt><trkpt lat="46.17224525417256" lon="9.411259616714705"><ele>202.0</ele><time>2026-05-02T12:02:30Z</time></trkpt><trkpt lat="46.172256966052544" lon="9.410934742453797"><ele>202.0</ele><time>2026-05-02T12:02:31Z</time></trkpt><trkpt lat="46.17227248125885" lon="9.41060969718443"><ele>201.5</ele><time>2026-05-02T12:02:32Z</time></trkpt><trkpt lat="46.172284857034796" lon="9.410285371146387"><ele>201.0</ele><time>2026-05-02T12:02:33Z</time></trkpt><trkpt lat="46.17229256837347" lon="9.409956921574622"><ele>201.0</ele><time>2026-05-02T12:02:34Z</time></trkpt><trkpt lat="46.17230291794285" lon="9.409635841147281"><ele>201.0</ele><time>2026-05-02T12:02:35Z</time></trkpt><trkpt lat="46.17230986769755" lon="9.409332075002958"><ele>201.0</ele><time>2026-05-02T12:02:36Z</time></trkpt><trkpt lat="46.17232133387519" lon="9.40902843273745"><ele>201.33333333333331</ele><time>2026-05-02T12:02:37Z</time></trkpt><trkpt lat="46.17232989663923" lon="9.408730977356912"><ele>201.66666666666666</ele><time>2026-05-02T12:02:38Z</time></trkpt><trkpt lat="46.172337004075764" lon="9.408431680335351"><ele>202.0</ele><time>2026-05-02T12:02:39Z</time></trkpt><trkpt lat="46.17234790449751" lon="9.408128399429367"><ele>201.33333333333331</ele><time>2026-05-02T12:02:40Z</time></trkpt><trkpt lat="46.17235586082905" lon="9.407827571463805"><ele>200.66666666666669</ele><time>2026-05-02T12:02:41Z</time></trkpt><trkpt lat="46.17235880283513" lon="9.407527315372372"><ele>200.0</ele><time>2026-05-02T12:02:42Z</time></trkpt><trkpt lat="46.17236869899659" lon="9.407233669353884"><ele>201.0</ele><time>2026-05-02T12:02:43Z</time></trkpt><trkpt lat="46.17237843447101" lon="9.406933502254013"><ele>202.0</ele><time>2026-05-02T12:02:44Z</time></trkpt><trkpt lat="46.17238900884989" lon="9.406641867912061"><ele>203.0</ele><time>2026-05-02T12:02:45Z</time></trkpt><trkpt lat="46.17238238917554" lon="9.406355047708699"><ele>203.33333333333334</ele><time>2026-05-02T12:02:46Z</time></trkpt><trkpt lat="46.17235037267998" lon="9.406091058125998"><ele>203.66666666666669</ele><time>2026-05-02T12:02:47Z</time></trkpt><trkpt lat="46.172298261692596" lon="9.405845066147517"><ele>204.0</ele><time>2026-05-02T12:02:48Z</time></trkpt><trkpt lat="46.17222988653698" lon="9.40562216536105"><ele>203.0</ele><time>2026-05-02T12:02:49Z</time></trkpt><trkpt lat="46.172178184003776" lon="9.405409264131375"><ele>202.0</ele><time>2026-05-02T12:02:50Z</time></trkpt><trkpt lat="46.17206293850151" lon="9.40524490095996"><ele>201.0</ele><time>2026-05-02T12:02:51Z</time></trkpt><trkpt lat="46.171981688342804" lon="9.40509501415937"><ele>201.0</ele><time>2026-05-02T12:02:52Z</time></trkpt><trkpt lat="46.171904352991014" lon="9.405047597479653"><ele>201.0</ele><time>2026-05-02T12:02:53Z</time></trkpt><trkpt lat="46.17186479646291" lon="9.404921031924586"><ele>201.0</ele><time>2026-05-02T12:02:55Z</time></trkpt><trkpt lat="46.17186397552018" lon="9.404804555044102"><ele>201.0</ele><time>2026-05-02T12:02:57Z</time></trkpt><trkpt lat="46.17188221373857" lon="9.404631321947013"><ele>201.0</ele><time>2026-05-02T12:02:59Z</time></trkpt><trkpt lat="46.17192127775325" lon="9.404534774660231"><ele>201.33333333333334</ele><time>2026-05-02T12:03:00Z</time></trkpt><trkpt lat="46.17199236901984" lon="9.404433594884267"><ele>201.66666666666669</ele><time>2026-05-02T12:03:01Z</time></trkpt><trkpt lat="46.17205925804627" lon="9.404378743294005"><ele>202.0</ele><time>2026-05-02T12:03:02Z</time></trkpt><trkpt lat="46.17213742941819" lon="9.404333666888107"><ele>202.33333333333334</ele><time>2026-05-02T12:03:03Z</time></trkpt><trkpt lat="46.17221779025063" lon="9.404289563522497"><ele>202.66666666666669</ele><time>2026-05-02T12:03:04Z</time></trkpt><trkpt lat="46.172296278603774" lon="9.404278289870376"><ele>203.0</ele><time>2026-05-02T12:03:05Z</time></trkpt><trkpt lat="46.1723622120576" lon="9.404241624727804"><ele>201.8</ele><time>2026-05-02T12:03:06Z</time></trkpt><trkpt lat="46.17242402981581" lon="9.404190733037463"><ele>200.60000000000002</ele><time>2026-05-02T12:03:07Z</time></trkpt><trkpt lat="46.17251789093926" lon="9.40412584885341"><ele>199.39999999999998</ele><time>2026-05-02T12:03:07.999Z</time></trkpt><trkpt lat="46.17260965940021" lon="9.4040622090714"><ele>198.2</ele><time>2026-05-02T12:03:08.999Z</time></trkpt><trkpt lat="46.172709801335934" lon="9.403998722302942"><ele>197.0</ele><time>2026-05-02T12:03:09.999Z</time></trkpt><trkpt lat="46.172801982491386" lon="9.403952284892204"><ele>197.00000000000003</ele><time>2026-05-02T12:03:10.999Z</time></trkpt><trkpt lat="46.17287910922385" lon="9.403907666241091"><ele>197.0</ele><time>2026-05-02T12:03:11.999Z</time></trkpt><trkpt lat="46.17296287315594" lon="9.403850154001946"><ele>197.0</ele><time>2026-05-02T12:03:12.999Z</time></trkpt><trkpt lat="46.17304580863556" lon="9.40380854372706"><ele>197.0</ele><time>2026-05-02T12:03:13.999Z</time></trkpt><trkpt lat="46.173108399990774" lon="9.403750694057562"><ele>197.00000000000003</ele><time>2026-05-02T12:03:14.999Z</time></trkpt><trkpt lat="46.1731879220056" lon="9.403678982341427"><ele>197.0</ele><time>2026-05-02T12:03:15.999Z</time></trkpt><trkpt lat="46.17325268280736" lon="9.403588090279401"><ele>199.66666666666669</ele><time>2026-05-02T12:03:16.999Z</time></trkpt><trkpt lat="46.17329394421306" lon="9.403479354918261"><ele>202.33333333333334</ele><time>2026-05-02T12:03:17.999Z</time></trkpt><trkpt lat="46.17331863900455" lon="9.403369301559714"><ele>205.0</ele><time>2026-05-02T12:03:18.999Z</time></trkpt><trkpt lat="46.17333496092725" lon="9.40326151143563"><ele>207.66666666666669</ele><time>2026-05-02T12:03:19.999Z</time></trkpt><trkpt lat="46.17332606054997" lon="9.403143391918373"><ele>210.33333333333334</ele><time>2026-05-02T12:03:20.999Z</time></trkpt><trkpt lat="46.17330650906929" lon="9.403020988320087"><ele>213.0</ele><time>2026-05-02T12:03:21.999Z</time></trkpt><trkpt lat="46.173272275706765" lon="9.402897183724717"><ele>212.60000000000002</ele><time>2026-05-02T12:03:22.999Z</time></trkpt><trkpt lat="46.173221410550525" lon="9.402776590624105"><ele>212.20000000000002</ele><time>2026-05-02T12:03:23.999Z</time></trkpt><trkpt lat="46.17316330324611" lon="9.402645026160851"><ele>211.8</ele><time>2026-05-02T12:03:24.999Z</time></trkpt><trkpt lat="46.17310561384951" lon="9.402499684277835"><ele>211.4</ele><time>2026-05-02T12:03:25.999Z</time></trkpt><trkpt lat="46.173049441200156" lon="9.402356205861047"><ele>211.0</ele><time>2026-05-02T12:03:26.999Z</time></trkpt><trkpt lat="46.17299219327317" lon="9.402221172703651"><ele>210.4</ele><time>2026-05-02T12:03:27.999Z</time></trkpt><trkpt lat="46.172931265733695" lon="9.4020875697423"><ele>209.8</ele><time>2026-05-02T12:03:28.999Z</time></trkpt><trkpt lat="46.17286383603719" lon="9.401975729214433"><ele>209.20000000000002</ele><time>2026-05-02T12:03:29.999Z</time></trkpt><trkpt lat="46.17279349824017" lon="9.40186608924025"><ele>208.60000000000002</ele><time>2026-05-02T12:03:30.999Z</time></trkpt><trkpt lat="46.17272586404808" lon="9.401758304873947"><ele>208.0</ele><time>2026-05-02T12:03:31.999Z</time></trkpt><trkpt lat="46.172654256116566" lon="9.401622679116691"><ele>208.0</ele><time>2026-05-02T12:03:32.999Z</time></trkpt><trkpt lat="46.17258076593288" lon="9.401483824318902"><ele>208.0</ele><time>2026-05-02T12:03:33.999Z</time></trkpt><trkpt lat="46.172514133423185" lon="9.40135687573516"><ele>208.0</ele><time>2026-05-02T12:03:34.999Z</time></trkpt><trkpt lat="46.17243570182703" lon="9.401202723001335"><ele>208.0</ele><time>2026-05-02T12:03:35.999Z</time></trkpt><trkpt lat="46.17235250224776" lon="9.401054049222775"><ele>206.75</ele><time>2026-05-02T12:03:36.999Z</time></trkpt><trkpt lat="46.17227718742106" lon="9.400892784743892"><ele>205.5</ele><time>2026-05-02T12:03:37.999Z</time></trkpt><trkpt lat="46.17222807702775" lon="9.40072546507846"><ele>204.25</ele><time>2026-05-02T12:03:38.999Z</time></trkpt><trkpt lat="46.17221231631781" lon="9.400552892963495"><ele>203.0</ele><time>2026-05-02T12:03:39.999Z</time></trkpt><trkpt lat="46.17222960963593" lon="9.400380848351213"><ele>203.0</ele><time>2026-05-02T12:03:40.999Z</time></trkpt><trkpt lat="46.17224542135099" lon="9.400203959375157"><ele>203.0</ele><time>2026-05-02T12:03:41.999Z</time></trkpt><trkpt lat="46.172261610937284" lon="9.40001763165362"><ele>203.0</ele><time>2026-05-02T12:03:42.999Z</time></trkpt><trkpt lat="46.17227890557348" lon="9.399825483046643"><ele>203.0</ele><time>2026-05-02T12:03:43.999Z</time></trkpt><trkpt lat="46.17225484056737" lon="9.399590205414917"><ele>203.0</ele><time>2026-05-02T12:03:45Z</time></trkpt><trkpt lat="46.172237915636" lon="9.399332372708416"><ele>203.0</ele><time>2026-05-02T12:03:46Z</time></trkpt><trkpt lat="46.17224199841366" lon="9.399040839236093"><ele>203.0</ele><time>2026-05-02T12:03:47Z</time></trkpt><trkpt lat="46.172249419610075" lon="9.398737095997951"><ele>203.0</ele><time>2026-05-02T12:03:48Z</time></trkpt><trkpt lat="46.172293821372854" lon="9.39845869000119"><ele>203.0</ele><time>2026-05-02T12:03:49Z</time></trkpt><trkpt lat="46.17227757402397" lon="9.398170854667208"><ele>203.0</ele><time>2026-05-02T12:03:50Z</time></trkpt><trkpt lat="46.17222007261028" lon="9.397886245835453"><ele>204.0</ele><time>2026-05-02T12:03:51Z</time></trkpt><trkpt lat="46.17213397849743" lon="9.397620376388678"><ele>205.0</ele><time>2026-05-02T12:03:52Z</time></trkpt><trkpt lat="46.172060242094325" lon="9.397340701316873"><ele>206.0</ele><time>2026-05-02T12:03:53Z</time></trkpt><trkpt lat="46.171991223649826" lon="9.3970653101434"><ele>207.0</ele><time>2026-05-02T12:03:54Z</time></trkpt><trkpt lat="46.1719384268498" lon="9.396818781733932"><ele>208.0</ele><time>2026-05-02T12:03:55Z</time></trkpt><trkpt lat="46.17189291975541" lon="9.396583618378587"><ele>209.0</ele><time>2026-05-02T12:03:56Z</time></trkpt><trkpt lat="46.17189448067298" lon="9.396345864233224"><ele>209.66666666666669</ele><time>2026-05-02T12:03:57Z</time></trkpt><trkpt lat="46.17191671567947" lon="9.39609813464712"><ele>210.33333333333331</ele><time>2026-05-02T12:03:58Z</time></trkpt><trkpt lat="46.17194328219992" lon="9.395825043348895"><ele>211.0</ele><time>2026-05-02T12:03:59Z</time></trkpt><trkpt lat="46.1719593307344" lon="9.395535507178074"><ele>208.66666666666666</ele><time>2026-05-02T12:04:00Z</time></trkpt><trkpt lat="46.171993374764" lon="9.395257340220162"><ele>206.33333333333331</ele><time>2026-05-02T12:04:01Z</time></trkpt><trkpt lat="46.17201026430213" lon="9.394977091542751"><ele>204.0</ele><time>2026-05-02T12:04:02Z</time></trkpt><trkpt lat="46.17204035639771" lon="9.394719086406328"><ele>203.33333333333331</ele><time>2026-05-02T12:04:03Z</time></trkpt><trkpt lat="46.172071488122114" lon="9.394474775782593"><ele>202.66666666666666</ele><time>2026-05-02T12:04:04Z</time></trkpt><trkpt lat="46.1720954656369" lon="9.394247694552563"><ele>202.0</ele><time>2026-05-02T12:04:05Z</time></trkpt><trkpt lat="46.17211803169198" lon="9.394020879826924"><ele>202.33333333333331</ele><time>2026-05-02T12:04:06Z</time></trkpt><trkpt lat="46.172135274318215" lon="9.393794510486257"><ele>202.66666666666669</ele><time>2026-05-02T12:04:07Z</time></trkpt><trkpt lat="46.172143645579254" lon="9.39353664758261"><ele>203.0</ele><time>2026-05-02T12:04:08Z</time></trkpt><trkpt lat="46.172176915156236" lon="9.393265005762165"><ele>203.33333333333334</ele><time>2026-05-02T12:04:09Z</time></trkpt><trkpt lat="46.17218107460593" lon="9.392976794456073"><ele>203.66666666666669</ele><time>2026-05-02T12:04:10Z</time></trkpt><trkpt lat="46.17218913388718" lon="9.392682395572873"><ele>204.0</ele><time>2026-05-02T12:04:11Z</time></trkpt><trkpt lat="46.17218895709539" lon="9.392401803791119"><ele>204.0</ele><time>2026-05-02T12:04:12Z</time></trkpt><trkpt lat="46.17218295121144" lon="9.392119169623745"><ele>204.0</ele><time>2026-05-02T12:04:13Z</time></trkpt><trkpt lat="46.17220152689174" lon="9.391842848946967"><ele>204.0</ele><time>2026-05-02T12:04:14Z</time></trkpt><trkpt lat="46.17224661491506" lon="9.391588052844138"><ele>203.66666666666669</ele><time>2026-05-02T12:04:15Z</time></trkpt><trkpt lat="46.17228110231961" lon="9.391316339895917"><ele>203.33333333333334</ele><time>2026-05-02T12:04:16Z</time></trkpt><trkpt lat="46.172325068290384" lon="9.391050749016628"><ele>203.0</ele><time>2026-05-02T12:04:17Z</time></trkpt><trkpt lat="46.17239434203811" lon="9.390788069562337"><ele>207.33333333333334</ele><time>2026-05-02T12:04:18Z</time></trkpt><trkpt lat="46.172419725207845" lon="9.390524855417526"><ele>211.66666666666669</ele><time>2026-05-02T12:04:19Z</time></trkpt><trkpt lat="46.17242459488445" lon="9.39028476656875"><ele>216.0</ele><time>2026-05-02T12:04:20Z</time></trkpt><trkpt lat="46.17244003853236" lon="9.390006784757816"><ele>216.0</ele><time>2026-05-02T12:04:21Z</time></trkpt><trkpt lat="46.17245650075535" lon="9.38976537875424"><ele>216.0</ele><time>2026-05-02T12:04:22Z</time></trkpt><trkpt lat="46.17247266937491" lon="9.389511989962024"><ele>216.0</ele><time>2026-05-02T12:04:23Z</time></trkpt><trkpt lat="46.17249747110555" lon="9.389271707551979"><ele>212.66666666666669</ele><time>2026-05-02T12:04:24Z</time></trkpt><trkpt lat="46.17252853362082" lon="9.389026515530055"><ele>209.33333333333334</ele><time>2026-05-02T12:04:25Z</time></trkpt><trkpt lat="46.17256291315436" lon="9.388793825150215"><ele>206.0</ele><time>2026-05-02T12:04:26Z</time></trkpt><trkpt lat="46.17262700062124" lon="9.388551845455616"><ele>205.66666666666669</ele><time>2026-05-02T12:04:27Z</time></trkpt><trkpt lat="46.1726939389556" lon="9.38831527960922"><ele>205.33333333333331</ele><time>2026-05-02T12:04:28Z</time></trkpt><trkpt lat="46.172758529504925" lon="9.388070559380674"><ele>205.0</ele><time>2026-05-02T12:04:29Z</time></trkpt><trkpt lat="46.17283218203331" lon="9.387821424878597"><ele>205.0</ele><time>2026-05-02T12:04:30Z</time></trkpt><trkpt lat="46.17289944935044" lon="9.387576728084976"><ele>205.0</ele><time>2026-05-02T12:04:31Z</time></trkpt><trkpt lat="46.17296421933327" lon="9.387328115696404"><ele>205.0</ele><time>2026-05-02T12:04:32Z</time></trkpt><trkpt lat="46.173035487535735" lon="9.387055363277264"><ele>204.0</ele><time>2026-05-02T12:04:33Z</time></trkpt><trkpt lat="46.17310742802939" lon="9.386800296534403"><ele>203.0</ele><time>2026-05-02T12:04:34Z</time></trkpt><trkpt lat="46.17317423037359" lon="9.386552661193194"><ele>202.0</ele><time>2026-05-02T12:04:35Z</time></trkpt><trkpt lat="46.17324355339327" lon="9.386292706678079"><ele>204.66666666666666</ele><time>2026-05-02T12:04:36Z</time></trkpt><trkpt lat="46.17330730524432" lon="9.38604173808692"><ele>207.33333333333331</ele><time>2026-05-02T12:04:37Z</time></trkpt><trkpt lat="46.17337645793858" lon="9.385784388347782"><ele>210.0</ele><time>2026-05-02T12:04:38Z</time></trkpt><trkpt lat="46.17344581693592" lon="9.385529405069043"><ele>211.0</ele><time>2026-05-02T12:04:39Z</time></trkpt><trkpt lat="46.173516368328585" lon="9.38527295040635"><ele>212.0</ele><time>2026-05-02T12:04:40Z</time></trkpt><trkpt lat="46.17358472806981" lon="9.385012682093068"><ele>213.0</ele><time>2026-05-02T12:04:41Z</time></trkpt><trkpt lat="46.17365887751054" lon="9.384750023807298"><ele>212.66666666666669</ele><time>2026-05-02T12:04:42Z</time></trkpt><trkpt lat="46.17371401666808" lon="9.38448264535099"><ele>212.33333333333334</ele><time>2026-05-02T12:04:43Z</time></trkpt><trkpt lat="46.17376850456409" lon="9.384160890087992"><ele>212.0</ele><time>2026-05-02T12:04:44Z</time></trkpt><trkpt lat="46.17379882226569" lon="9.383906390259117"><ele>211.5</ele><time>2026-05-02T12:04:45Z</time></trkpt><trkpt lat="46.17382100230204" lon="9.383715312631976"><ele>211.0</ele><time>2026-05-02T12:04:46Z</time></trkpt><trkpt lat="46.17381614566869" lon="9.383614578712882"><ele>210.5</ele><time>2026-05-02T12:04:47Z</time></trkpt><trkpt lat="46.17380533748707" lon="9.383431133638727"><ele>210.0</ele><time>2026-05-02T12:04:48Z</time></trkpt><trkpt lat="46.17375758482526" lon="9.383238086894993"><ele>210.0</ele><time>2026-05-02T12:04:49Z</time></trkpt><trkpt lat="46.17368344829152" lon="9.383049598661414"><ele>210.0</ele><time>2026-05-02T12:04:50Z</time></trkpt><trkpt lat="46.1736049700226" lon="9.382858964991483"><ele>210.0</ele><time>2026-05-02T12:04:51Z</time></trkpt><trkpt lat="46.17353705421783" lon="9.382693659705827"><ele>210.0</ele><time>2026-05-02T12:04:52Z</time></trkpt><trkpt lat="46.173466623775475" lon="9.382538142678754"><ele>210.5</ele><time>2026-05-02T12:04:53Z</time></trkpt><trkpt lat="46.173391731825745" lon="9.382392299644609"><ele>211.0</ele><time>2026-05-02T12:04:54Z</time></trkpt><trkpt lat="46.173317829785084" lon="9.38225680302641"><ele>211.5</ele><time>2026-05-02T12:04:55Z</time></trkpt><trkpt lat="46.17323497838915" lon="9.382112691570715"><ele>212.0</ele><time>2026-05-02T12:04:56Z</time></trkpt><trkpt lat="46.173153052632486" lon="9.381972036920093"><ele>210.39999999999998</ele><time>2026-05-02T12:04:57Z</time></trkpt><trkpt lat="46.17307384383437" lon="9.381848816602679"><ele>208.79999999999998</ele><time>2026-05-02T12:04:58Z</time></trkpt><trkpt lat="46.17301500847915" lon="9.381746683157058"><ele>207.2</ele><time>2026-05-02T12:04:59Z</time></trkpt><trkpt lat="46.172964956271606" lon="9.381643099401533"><ele>205.6</ele><time>2026-05-02T12:05:00Z</time></trkpt><trkpt lat="46.172907804100504" lon="9.381538649080587"><ele>204.0</ele><time>2026-05-02T12:05:01Z</time></trkpt><trkpt lat="46.1728618297979" lon="9.381453074258216"><ele>204.0</ele><time>2026-05-02T12:05:02Z</time></trkpt><trkpt lat="46.172799119561674" lon="9.38135116250572"><ele>204.0</ele><time>2026-05-02T12:05:04Z</time></trkpt><trkpt lat="46.17272998241202" lon="9.38122110327277"><ele>204.0</ele><time>2026-05-02T12:05:06Z</time></trkpt><trkpt lat="46.17268648998417" lon="9.381146624649658"><ele>204.0</ele><time>2026-05-02T12:05:07Z</time></trkpt><trkpt lat="46.17263878119828" lon="9.381056324932919"><ele>204.0</ele><time>2026-05-02T12:05:07.999Z</time></trkpt><trkpt lat="46.17258501289455" lon="9.380961332073047"><ele>204.0</ele><time>2026-05-02T12:05:08.999Z</time></trkpt><trkpt lat="46.172527891448034" lon="9.380858279000021"><ele>204.0</ele><time>2026-05-02T12:05:09.999Z</time></trkpt><trkpt lat="46.17247598054191" lon="9.380751877478144"><ele>204.0</ele><time>2026-05-02T12:05:10.999Z</time></trkpt><trkpt lat="46.17242219980799" lon="9.38063086606138"><ele>204.0</ele><time>2026-05-02T12:05:11.999Z</time></trkpt><trkpt lat="46.172353267919824" lon="9.380486614771998"><ele>204.0</ele><time>2026-05-02T12:05:12.999Z</time></trkpt><trkpt lat="46.17231140375086" lon="9.380332564967016"><ele>204.0</ele><time>2026-05-02T12:05:13.999Z</time></trkpt><trkpt lat="46.17229845764565" lon="9.38019273125957"><ele>204.25</ele><time>2026-05-02T12:05:14.999Z</time></trkpt><trkpt lat="46.17228333076385" lon="9.380029940099062"><ele>204.5</ele><time>2026-05-02T12:05:15.999Z</time></trkpt><trkpt lat="46.17224877361425" lon="9.379848601260344"><ele>204.75</ele><time>2026-05-02T12:05:16.999Z</time></trkpt><trkpt lat="46.17223894961766" lon="9.379640425737326"><ele>205.0</ele><time>2026-05-02T12:05:17.999Z</time></trkpt><trkpt lat="46.172210692500556" lon="9.379396425172876"><ele>205.0</ele><time>2026-05-02T12:05:18.999Z</time></trkpt><trkpt lat="46.17217904950486" lon="9.379123400581394"><ele>205.0</ele><time>2026-05-02T12:05:19.999Z</time></trkpt><trkpt lat="46.17215062545265" lon="9.378878149696083"><ele>205.0</ele><time>2026-05-02T12:05:20.999Z</time></trkpt><trkpt lat="46.17213098997602" lon="9.378713596003236"><ele>205.0</ele><time>2026-05-02T12:05:21.999Z</time></trkpt><trkpt lat="46.172106770480696" lon="9.378511803436556"><ele>205.0</ele><time>2026-05-02T12:05:22.999Z</time></trkpt><trkpt lat="46.17207864226107" lon="9.378321544735405"><ele>205.0</ele><time>2026-05-02T12:05:23.999Z</time></trkpt><trkpt lat="46.17205616478493" lon="9.378136904807196"><ele>205.0</ele><time>2026-05-02T12:05:24.999Z</time></trkpt><trkpt lat="46.172031832105205" lon="9.377975152084991"><ele>204.75</ele><time>2026-05-02T12:05:25.999Z</time></trkpt><trkpt lat="46.172020990912195" lon="9.3778008599542"><ele>204.5</ele><time>2026-05-02T12:05:26.999Z</time></trkpt><trkpt lat="46.17201421380659" lon="9.377639739838731"><ele>204.25</ele><time>2026-05-02T12:05:27.999Z</time></trkpt><trkpt lat="46.17198938378801" lon="9.377447571110135"><ele>204.0</ele><time>2026-05-02T12:05:28.999Z</time></trkpt><trkpt lat="46.17200493531765" lon="9.377258717349342"><ele>203.75</ele><time>2026-05-02T12:05:29.999Z</time></trkpt><trkpt lat="46.17202893736845" lon="9.377099153922906"><ele>203.5</ele><time>2026-05-02T12:05:30.999Z</time></trkpt><trkpt lat="46.172072282129115" lon="9.376923922619055"><ele>203.25</ele><time>2026-05-02T12:05:31.999Z</time></trkpt><trkpt lat="46.17211451477313" lon="9.376746390893777"><ele>203.0</ele><time>2026-05-02T12:05:32.999Z</time></trkpt><trkpt lat="46.17213670527538" lon="9.37659427286193"><ele>203.0</ele><time>2026-05-02T12:05:33.999Z</time></trkpt><trkpt lat="46.17218486361364" lon="9.376456989095812"><ele>203.0</ele><time>2026-05-02T12:05:34.999Z</time></trkpt><trkpt lat="46.17223052682111" lon="9.37632836536971"><ele>203.0</ele><time>2026-05-02T12:05:35.999Z</time></trkpt><trkpt lat="46.17226883684469" lon="9.376185804401652"><ele>203.0</ele><time>2026-05-02T12:05:36.999Z</time></trkpt><trkpt lat="46.17229647871362" lon="9.376038891039062"><ele>203.0</ele><time>2026-05-02T12:05:37.999Z</time></trkpt><trkpt lat="46.17233070371319" lon="9.375904431211222"><ele>204.8</ele><time>2026-05-02T12:05:38.999Z</time></trkpt><trkpt lat="46.17236605142151" lon="9.375771530788114"><ele>206.60000000000002</ele><time>2026-05-02T12:05:39.999Z</time></trkpt><trkpt lat="46.17238066581299" lon="9.375643403861755"><ele>208.39999999999998</ele><time>2026-05-02T12:05:40.999Z</time></trkpt><trkpt lat="46.172400646262645" lon="9.375500268802574"><ele>210.2</ele><time>2026-05-02T12:05:41.999Z</time></trkpt><trkpt lat="46.17241727978012" lon="9.375357594325644"><ele>212.0</ele><time>2026-05-02T12:05:42.999Z</time></trkpt><trkpt lat="46.17240637639948" lon="9.375214999213844"><ele>214.25</ele><time>2026-05-02T12:05:43.999Z</time></trkpt><trkpt lat="46.17238491083917" lon="9.375077053645098"><ele>216.5</ele><time>2026-05-02T12:05:44.999Z</time></trkpt><trkpt lat="46.172361885210364" lon="9.374930861020902"><ele>218.75</ele><time>2026-05-02T12:05:45.999Z</time></trkpt><trkpt lat="46.172355046126164" lon="9.374755758807511"><ele>221.0</ele><time>2026-05-02T12:05:46.999Z</time></trkpt><trkpt lat="46.1723298499805" lon="9.374530766915013"><ele>215.66666666666669</ele><time>2026-05-02T12:05:47.999Z</time></trkpt><trkpt lat="46.17227254730829" lon="9.374291703965234"><ele>210.33333333333331</ele><time>2026-05-02T12:05:48.999Z</time></trkpt><trkpt lat="46.17222502123107" lon="9.374044696084086"><ele>205.0</ele><time>2026-05-02T12:05:49.999Z</time></trkpt><trkpt lat="46.17220914355551" lon="9.373814874970641"><ele>205.0</ele><time>2026-05-02T12:05:51Z</time></trkpt><trkpt lat="46.17223619249623" lon="9.37395106426703"><ele>205.0</ele><time>2026-05-02T12:05:52Z</time></trkpt><trkpt lat="46.17221612471522" lon="9.373736665945563"><ele>205.0</ele><time>2026-05-02T12:05:53Z</time></trkpt><trkpt lat="46.17221242250935" lon="9.373528235532653"><ele>205.0</ele><time>2026-05-02T12:05:54Z</time></trkpt><trkpt lat="46.17221518949909" lon="9.373341036776194"><ele>205.0</ele><time>2026-05-02T12:05:55Z</time></trkpt><trkpt lat="46.17220564042983" lon="9.37314689012002"><ele>205.0</ele><time>2026-05-02T12:05:56Z</time></trkpt><trkpt lat="46.17217600280999" lon="9.372970046729803"><ele>205.0</ele><time>2026-05-02T12:05:57Z</time></trkpt><trkpt lat="46.172138050536965" lon="9.372804465107412"><ele>205.0</ele><time>2026-05-02T12:05:58Z</time></trkpt><trkpt lat="46.17208080558756" lon="9.37265052407624"><ele>205.0</ele><time>2026-05-02T12:05:59Z</time></trkpt><trkpt lat="46.17200659318504" lon="9.372510140715244"><ele>205.0</ele><time>2026-05-02T12:06:00Z</time></trkpt><trkpt lat="46.1719160308764" lon="9.372379478473844"><ele>205.0</ele><time>2026-05-02T12:06:01Z</time></trkpt><trkpt lat="46.17181630043462" lon="9.372261844025013"><ele>205.0</ele><time>2026-05-02T12:06:02Z</time></trkpt><trkpt lat="46.17171267682668" lon="9.372144897814943"><ele>204.75</ele><time>2026-05-02T12:06:03Z</time></trkpt><trkpt lat="46.17160580415144" lon="9.372036060668897"><ele>204.5</ele><time>2026-05-02T12:06:04Z</time></trkpt><trkpt lat="46.17149437413706" lon="9.371925439166228"><ele>204.25</ele><time>2026-05-02T12:06:05Z</time></trkpt><trkpt lat="46.17137409607126" lon="9.371810103163785"><ele>204.0</ele><time>2026-05-02T12:06:06Z</time></trkpt><trkpt lat="46.171273332337464" lon="9.37170337104092"><ele>204.0</ele><time>2026-05-02T12:06:07Z</time></trkpt><trkpt lat="46.17117523299917" lon="9.371604267761688"><ele>204.0</ele><time>2026-05-02T12:06:08Z</time></trkpt><trkpt lat="46.17107622546511" lon="9.371501648727262"><ele>204.0</ele><time>2026-05-02T12:06:09Z</time></trkpt><trkpt lat="46.17096810301418" lon="9.371417297831806"><ele>204.0</ele><time>2026-05-02T12:06:10Z</time></trkpt><trkpt lat="46.17084081007155" lon="9.371344677189176"><ele>204.75</ele><time>2026-05-02T12:06:11Z</time></trkpt><trkpt lat="46.17070849513275" lon="9.37128333053262"><ele>205.5</ele><time>2026-05-02T12:06:12Z</time></trkpt><trkpt lat="46.17058446016935" lon="9.371239500493513"><ele>206.25</ele><time>2026-05-02T12:06:13Z</time></trkpt><trkpt lat="46.170433018001795" lon="9.37123541564196"><ele>207.0</ele><time>2026-05-02T12:06:14Z</time></trkpt><trkpt lat="46.17028886496902" lon="9.37126846143852"><ele>207.0</ele><time>2026-05-02T12:06:15Z</time></trkpt><trkpt lat="46.170155923478035" lon="9.371262550459964"><ele>207.0</ele><time>2026-05-02T12:06:16Z</time></trkpt><trkpt lat="46.17001835474175" lon="9.371253313705056"><ele>207.0</ele><time>2026-05-02T12:06:17Z</time></trkpt><trkpt lat="46.16988704112507" lon="9.371216092133848"><ele>207.0</ele><time>2026-05-02T12:06:18Z</time></trkpt><trkpt lat="46.169796764026124" lon="9.371138397084572"><ele>206.33333333333334</ele><time>2026-05-02T12:06:19Z</time></trkpt><trkpt lat="46.16971310984913" lon="9.371067520654869"><ele>205.66666666666669</ele><time>2026-05-02T12:06:20Z</time></trkpt><trkpt lat="46.16964450341892" lon="9.371060713517744"><ele>205.0</ele><time>2026-05-02T12:06:21Z</time></trkpt><trkpt lat="46.16957914243675" lon="9.371015674931838"><ele>204.33333333333334</ele><time>2026-05-02T12:06:22Z</time></trkpt><trkpt lat="46.169525766453155" lon="9.370966976904946"><ele>203.66666666666669</ele><time>2026-05-02T12:06:23Z</time></trkpt><trkpt lat="46.16941386224247" lon="9.370924200467877"><ele>203.0</ele><time>2026-05-02T12:06:25Z</time></trkpt><trkpt lat="46.169346642967206" lon="9.370904969800568"><ele>203.0</ele><time>2026-05-02T12:06:26Z</time></trkpt><trkpt lat="46.16919593933721" lon="9.370626988355202"><ele>203.0</ele><time>2026-05-02T12:06:28Z</time></trkpt><trkpt lat="46.1691345527494" lon="9.370443979912114"><ele>203.0</ele><time>2026-05-02T12:06:29Z</time></trkpt><trkpt lat="46.1691075699848" lon="9.370252023355333"><ele>203.25</ele><time>2026-05-02T12:06:30Z</time></trkpt><trkpt lat="46.16908526569305" lon="9.37006869930144"><ele>203.5</ele><time>2026-05-02T12:06:31Z</time></trkpt><trkpt lat="46.168979010162566" lon="9.369904158330796"><ele>203.75</ele><time>2026-05-02T12:06:32Z</time></trkpt><trkpt lat="46.168924623893766" lon="9.369698072074712"><ele>204.0</ele><time>2026-05-02T12:06:33Z</time></trkpt><trkpt lat="46.1688891557907" lon="9.369490086653474"><ele>204.0</ele><time>2026-05-02T12:06:34Z</time></trkpt><trkpt lat="46.16884631615975" lon="9.369273551239266"><ele>204.0</ele><time>2026-05-02T12:06:35Z</time></trkpt><trkpt lat="46.16884978895725" lon="9.369026564321791"><ele>204.0</ele><time>2026-05-02T12:06:36Z</time></trkpt><trkpt lat="46.16884726394797" lon="9.368775540613612"><ele>204.0</ele><time>2026-05-02T12:06:37Z</time></trkpt><trkpt lat="46.168853843269474" lon="9.36853486599035"><ele>204.0</ele><time>2026-05-02T12:06:38Z</time></trkpt><trkpt lat="46.16889774960367" lon="9.368290621495266"><ele>204.0</ele><time>2026-05-02T12:06:39Z</time></trkpt><trkpt lat="46.168950988749636" lon="9.368020575850846"><ele>204.0</ele><time>2026-05-02T12:06:40Z</time></trkpt><trkpt lat="46.16901840106113" lon="9.367771017371062"><ele>204.0</ele><time>2026-05-02T12:06:41Z</time></trkpt><trkpt lat="46.16908118624929" lon="9.36750582069445"><ele>204.0</ele><time>2026-05-02T12:06:42Z</time></trkpt><trkpt lat="46.16913334355831" lon="9.367248505700568"><ele>207.0</ele><time>2026-05-02T12:06:43Z</time></trkpt><trkpt lat="46.16916567464242" lon="9.367036614602263"><ele>210.0</ele><time>2026-05-02T12:06:44Z</time></trkpt><trkpt lat="46.16920720948881" lon="9.366827723972381"><ele>213.0</ele><time>2026-05-02T12:06:45Z</time></trkpt><trkpt lat="46.16927813997985" lon="9.366598191536813"><ele>212.0</ele><time>2026-05-02T12:06:46Z</time></trkpt><trkpt lat="46.16933639963189" lon="9.366323312049516"><ele>211.0</ele><time>2026-05-02T12:06:47Z</time></trkpt><trkpt lat="46.169401163322036" lon="9.366041838262175"><ele>210.0</ele><time>2026-05-02T12:06:48Z</time></trkpt><trkpt lat="46.16944247498483" lon="9.36576847082851"><ele>208.66666666666669</ele><time>2026-05-02T12:06:49Z</time></trkpt><trkpt lat="46.16948501554133" lon="9.365516040269677"><ele>207.33333333333334</ele><time>2026-05-02T12:06:50Z</time></trkpt><trkpt lat="46.1695459812987" lon="9.3652645690261"><ele>206.0</ele><time>2026-05-02T12:06:51Z</time></trkpt><trkpt lat="46.169601828884915" lon="9.36502727916635"><ele>206.0</ele><time>2026-05-02T12:06:52Z</time></trkpt><trkpt lat="46.16964010124981" lon="9.36479547432097"><ele>206.0</ele><time>2026-05-02T12:06:53Z</time></trkpt><trkpt lat="46.16968625730329" lon="9.36454886939565"><ele>206.0</ele><time>2026-05-02T12:06:54Z</time></trkpt><trkpt lat="46.169729174347246" lon="9.364313515978557"><ele>205.5</ele><time>2026-05-02T12:06:55Z</time></trkpt><trkpt lat="46.16977015887719" lon="9.364098505598806"><ele>205.0</ele><time>2026-05-02T12:06:56Z</time></trkpt><trkpt lat="46.1697944402091" lon="9.363919508852453"><ele>204.5</ele><time>2026-05-02T12:06:57Z</time></trkpt><trkpt lat="46.169828802514644" lon="9.363744731211714"><ele>204.0</ele><time>2026-05-02T12:06:58Z</time></trkpt><trkpt lat="46.1698598397136" lon="9.363576705189882"><ele>206.39999999999998</ele><time>2026-05-02T12:06:59Z</time></trkpt><trkpt lat="46.169879681071826" lon="9.363411069401455"><ele>208.8</ele><time>2026-05-02T12:07:00Z</time></trkpt><trkpt lat="46.16989114992144" lon="9.363254288879634"><ele>211.20000000000002</ele><time>2026-05-02T12:07:01Z</time></trkpt><trkpt lat="46.169893501813505" lon="9.363098252063551"><ele>213.60000000000002</ele><time>2026-05-02T12:07:02Z</time></trkpt><trkpt lat="46.16990412052409" lon="9.36293844086194"><ele>216.0</ele><time>2026-05-02T12:07:03Z</time></trkpt><trkpt lat="46.16992042472551" lon="9.362780038914838"><ele>216.8</ele><time>2026-05-02T12:07:04Z</time></trkpt><trkpt lat="46.169930085786284" lon="9.362624938506062"><ele>217.60000000000002</ele><time>2026-05-02T12:07:05Z</time></trkpt><trkpt lat="46.169932195728805" lon="9.362465982377005"><ele>218.4</ele><time>2026-05-02T12:07:06Z</time></trkpt><trkpt lat="46.169928640953465" lon="9.362300671722256"><ele>219.2</ele><time>2026-05-02T12:07:07Z</time></trkpt><trkpt lat="46.16990607414006" lon="9.362137842023076"><ele>220.0</ele><time>2026-05-02T12:07:08Z</time></trkpt><trkpt lat="46.169867904094694" lon="9.361976743901808"><ele>215.25</ele><time>2026-05-02T12:07:09Z</time></trkpt><trkpt lat="46.169820331742336" lon="9.361829512585697"><ele>210.5</ele><time>2026-05-02T12:07:10Z</time></trkpt><trkpt lat="46.16976643766991" lon="9.36167594575979"><ele>205.75</ele><time>2026-05-02T12:07:11Z</time></trkpt><trkpt lat="46.169716520964364" lon="9.36152873584916"><ele>201.0</ele><time>2026-05-02T12:07:12Z</time></trkpt><trkpt lat="46.169672800074075" lon="9.361385881822889"><ele>201.4</ele><time>2026-05-02T12:07:13Z</time></trkpt><trkpt lat="46.1696309071064" lon="9.361246162729193"><ele>201.8</ele><time>2026-05-02T12:07:13.999Z</time></trkpt><trkpt lat="46.16958449303266" lon="9.36111102818184"><ele>202.20000000000002</ele><time>2026-05-02T12:07:14.999Z</time></trkpt><trkpt lat="46.169542178467616" lon="9.360970600617078"><ele>202.60000000000002</ele><time>2026-05-02T12:07:15.999Z</time></trkpt><trkpt lat="46.16949666218863" lon="9.360823431455678"><ele>203.0</ele><time>2026-05-02T12:07:16.999Z</time></trkpt><trkpt lat="46.16945490797252" lon="9.360675858965669"><ele>203.0</ele><time>2026-05-02T12:07:17.999Z</time></trkpt><trkpt lat="46.16940990835629" lon="9.360536284367104"><ele>203.0</ele><time>2026-05-02T12:07:18.999Z</time></trkpt><trkpt lat="46.16937561234395" lon="9.360405148300801"><ele>203.0</ele><time>2026-05-02T12:07:19.999Z</time></trkpt><trkpt lat="46.16934762365784" lon="9.360275266186797"><ele>203.0</ele><time>2026-05-02T12:07:20.999Z</time></trkpt><trkpt lat="46.1693478496994" lon="9.360130175631387"><ele>203.0</ele><time>2026-05-02T12:07:21.999Z</time></trkpt><trkpt lat="46.16934994251254" lon="9.359960476508485"><ele>204.75</ele><time>2026-05-02T12:07:22.999Z</time></trkpt><trkpt lat="46.16934411893438" lon="9.359787920078668"><ele>206.5</ele><time>2026-05-02T12:07:23.999Z</time></trkpt><trkpt lat="46.16934585098967" lon="9.359613180845962"><ele>208.25</ele><time>2026-05-02T12:07:24.999Z</time></trkpt><trkpt lat="46.16933285200737" lon="9.359432518681562"><ele>210.0</ele><time>2026-05-02T12:07:25.999Z</time></trkpt><trkpt lat="46.16930579260088" lon="9.359237581049824"><ele>210.75</ele><time>2026-05-02T12:07:26.999Z</time></trkpt><trkpt lat="46.16927878208074" lon="9.359054552818714"><ele>211.5</ele><time>2026-05-02T12:07:27.999Z</time></trkpt><trkpt lat="46.169219201551336" lon="9.358866576342857"><ele>212.25</ele><time>2026-05-02T12:07:28.999Z</time></trkpt><trkpt lat="46.169146225421514" lon="9.358688294090136"><ele>213.0</ele><time>2026-05-02T12:07:29.999Z</time></trkpt><trkpt lat="46.169061962710096" lon="9.358486577972839"><ele>211.0</ele><time>2026-05-02T12:07:30.999Z</time></trkpt><trkpt lat="46.16892064084606" lon="9.358240843290748"><ele>209.0</ele><time>2026-05-02T12:07:31.999Z</time></trkpt><trkpt lat="46.16883363002806" lon="9.357989080691482"><ele>207.0</ele><time>2026-05-02T12:07:32.999Z</time></trkpt><trkpt lat="46.16874707496415" lon="9.357761448441044"><ele>207.0</ele><time>2026-05-02T12:07:33.999Z</time></trkpt><trkpt lat="46.168677228175824" lon="9.357575197759653"><ele>207.0</ele><time>2026-05-02T12:07:34.999Z</time></trkpt><trkpt lat="46.16860308359341" lon="9.357403347915884"><ele>207.0</ele><time>2026-05-02T12:07:35.999Z</time></trkpt><trkpt lat="46.16853464922066" lon="9.357245505981767"><ele>207.0</ele><time>2026-05-02T12:07:36.999Z</time></trkpt><trkpt lat="46.16846338504183" lon="9.35707537292478"><ele>209.66666666666669</ele><time>2026-05-02T12:07:37.999Z</time></trkpt><trkpt lat="46.16839230261776" lon="9.356886845655646"><ele>212.33333333333334</ele><time>2026-05-02T12:07:38.999Z</time></trkpt><trkpt lat="46.16830503275346" lon="9.356671377405604"><ele>215.0</ele><time>2026-05-02T12:07:39.999Z</time></trkpt><trkpt lat="46.16821932463101" lon="9.356461270524603"><ele>211.33333333333334</ele><time>2026-05-02T12:07:40.999Z</time></trkpt><trkpt lat="46.168141922332815" lon="9.356245481802299"><ele>207.66666666666669</ele><time>2026-05-02T12:07:41.999Z</time></trkpt><trkpt lat="46.168063771704965" lon="9.356037212073852"><ele>204.0</ele><time>2026-05-02T12:07:42.999Z</time></trkpt><trkpt lat="46.167991552189385" lon="9.35582119840362"><ele>204.0</ele><time>2026-05-02T12:07:43.999Z</time></trkpt><trkpt lat="46.167905520223826" lon="9.35559772923613"><ele>204.0</ele><time>2026-05-02T12:07:44.999Z</time></trkpt><trkpt lat="46.16783718041682" lon="9.355384389938814"><ele>204.0</ele><time>2026-05-02T12:07:45.999Z</time></trkpt><trkpt lat="46.167771197313805" lon="9.35518946914483"><ele>205.25</ele><time>2026-05-02T12:07:46.999Z</time></trkpt><trkpt lat="46.16770605796085" lon="9.35499757939605"><ele>206.5</ele><time>2026-05-02T12:07:47.999Z</time></trkpt><trkpt lat="46.167644914359485" lon="9.35481032547855"><ele>207.75</ele><time>2026-05-02T12:07:48.999Z</time></trkpt><trkpt lat="46.16758757954657" lon="9.35464365503554"><ele>209.0</ele><time>2026-05-02T12:07:49.999Z</time></trkpt><trkpt lat="46.16751713008006" lon="9.354461960767061"><ele>207.0</ele><time>2026-05-02T12:07:50.999Z</time></trkpt><trkpt lat="46.167439432853584" lon="9.354288806901902"><ele>205.0</ele><time>2026-05-02T12:07:51.999Z</time></trkpt><trkpt lat="46.16734352751655" lon="9.354102766491653"><ele>203.0</ele><time>2026-05-02T12:07:52.999Z</time></trkpt><trkpt lat="46.16725471473231" lon="9.353925620080846"><ele>205.0</ele><time>2026-05-02T12:07:53.999Z</time></trkpt><trkpt lat="46.16716774064161" lon="9.353761271368478"><ele>207.0</ele><time>2026-05-02T12:07:54.999Z</time></trkpt><trkpt lat="46.16704843555494" lon="9.353543780391236"><ele>209.0</ele><time>2026-05-02T12:07:55.999Z</time></trkpt><trkpt lat="46.16693175114132" lon="9.353342944378728"><ele>209.0</ele><time>2026-05-02T12:07:57Z</time></trkpt><trkpt lat="46.16682798735033" lon="9.353169972917687"><ele>209.0</ele><time>2026-05-02T12:07:58Z</time></trkpt><trkpt lat="46.166736780112046" lon="9.35301848226425"><ele>209.0</ele><time>2026-05-02T12:07:59Z</time></trkpt><trkpt lat="46.1666335954389" lon="9.352876420759111"><ele>209.0</ele><time>2026-05-02T12:08:00Z</time></trkpt><trkpt lat="46.16653879261671" lon="9.352737138131408"><ele>208.2</ele><time>2026-05-02T12:08:01Z</time></trkpt><trkpt lat="46.16645094255649" lon="9.352592757795241"><ele>207.39999999999998</ele><time>2026-05-02T12:08:02Z</time></trkpt><trkpt lat="46.1663809787104" lon="9.352463034883815"><ele>206.6</ele><time>2026-05-02T12:08:03Z</time></trkpt><trkpt lat="46.166314697069105" lon="9.352355143043967"><ele>205.8</ele><time>2026-05-02T12:08:04Z</time></trkpt><trkpt lat="46.16625667965936" lon="9.352267328530331"><ele>205.0</ele><time>2026-05-02T12:08:05Z</time></trkpt><trkpt lat="46.166198373065924" lon="9.35218227794985"><ele>206.83333333333331</ele><time>2026-05-02T12:08:06Z</time></trkpt><trkpt lat="46.166145170715055" lon="9.35209844397138"><ele>208.66666666666666</ele><time>2026-05-02T12:08:07Z</time></trkpt><trkpt lat="46.16610058572751" lon="9.35201875248501"><ele>210.5</ele><time>2026-05-02T12:08:08Z</time></trkpt><trkpt lat="46.166033679421616" lon="9.351920304834307"><ele>212.33333333333331</ele><time>2026-05-02T12:08:09Z</time></trkpt><trkpt lat="46.165969604689444" lon="9.351808613300854"><ele>214.16666666666666</ele><time>2026-05-02T12:08:10Z</time></trkpt><trkpt lat="46.165905655927034" lon="9.351692389611701"><ele>216.0</ele><time>2026-05-02T12:08:11Z</time></trkpt><trkpt lat="46.165839108211586" lon="9.351565359661116"><ele>216.0</ele><time>2026-05-02T12:08:12Z</time></trkpt><trkpt lat="46.165785503976444" lon="9.351424747084035"><ele>216.0</ele><time>2026-05-02T12:08:13Z</time></trkpt><trkpt lat="46.16572352119337" lon="9.35128381330588"><ele>216.0</ele><time>2026-05-02T12:08:14Z</time></trkpt><trkpt lat="46.16564597057936" lon="9.35113691722349"><ele>216.0</ele><time>2026-05-02T12:08:15Z</time></trkpt><trkpt lat="46.16554844124856" lon="9.350971282447706"><ele>214.33333333333331</ele><time>2026-05-02T12:08:16Z</time></trkpt><trkpt lat="46.165458681540464" lon="9.350790075897118"><ele>212.66666666666666</ele><time>2026-05-02T12:08:17Z</time></trkpt><trkpt lat="46.16537058919992" lon="9.350605411739979"><ele>211.0</ele><time>2026-05-02T12:08:18Z</time></trkpt><trkpt lat="46.16527068354137" lon="9.350380600772619"><ele>211.0</ele><time>2026-05-02T12:08:19Z</time></trkpt><trkpt lat="46.16516051191346" lon="9.350116679993574"><ele>211.0</ele><time>2026-05-02T12:08:20Z</time></trkpt><trkpt lat="46.165044430099826" lon="9.349853329057689"><ele>211.0</ele><time>2026-05-02T12:08:21Z</time></trkpt><trkpt lat="46.164937250717514" lon="9.349641451181345"><ele>207.66666666666666</ele><time>2026-05-02T12:08:22Z</time></trkpt><trkpt lat="46.164832858092225" lon="9.349440003463025"><ele>204.33333333333331</ele><time>2026-05-02T12:08:23Z</time></trkpt><trkpt lat="46.164744023043156" lon="9.349263340408731"><ele>201.0</ele><time>2026-05-02T12:08:24Z</time></trkpt><trkpt lat="46.16466159550743" lon="9.349089796175644"><ele>201.0</ele><time>2026-05-02T12:08:25Z</time></trkpt><trkpt lat="46.164575374999025" lon="9.348932155698828"><ele>201.0</ele><time>2026-05-02T12:08:26Z</time></trkpt><trkpt lat="46.16448844386959" lon="9.348798641636144"><ele>201.0</ele><time>2026-05-02T12:08:27Z</time></trkpt><trkpt lat="46.16439604062598" lon="9.348673934234386"><ele>201.0</ele><time>2026-05-02T12:08:28Z</time></trkpt><trkpt lat="46.16431280797014" lon="9.348544058919178"><ele>203.5</ele><time>2026-05-02T12:08:29Z</time></trkpt><trkpt lat="46.16424093478129" lon="9.34840183795238"><ele>206.0</ele><time>2026-05-02T12:08:30Z</time></trkpt><trkpt lat="46.16417825060573" lon="9.348245484069327"><ele>208.5</ele><time>2026-05-02T12:08:31Z</time></trkpt><trkpt lat="46.16412600580233" lon="9.348074041736247"><ele>211.0</ele><time>2026-05-02T12:08:32Z</time></trkpt><trkpt lat="46.16407803548738" lon="9.347912482199268"><ele>208.5</ele><time>2026-05-02T12:08:33Z</time></trkpt><trkpt lat="46.16403836271222" lon="9.347755342342053"><ele>206.0</ele><time>2026-05-02T12:08:34Z</time></trkpt><trkpt lat="46.16398189763487" lon="9.347601014728854"><ele>203.5</ele><time>2026-05-02T12:08:35Z</time></trkpt><trkpt lat="46.163914984728606" lon="9.347445664605079"><ele>201.0</ele><time>2026-05-02T12:08:36Z</time></trkpt><trkpt lat="46.163834361611364" lon="9.347301029623779"><ele>203.5</ele><time>2026-05-02T12:08:37Z</time></trkpt><trkpt lat="46.1637499619566" lon="9.34715136860275"><ele>206.0</ele><time>2026-05-02T12:08:38Z</time></trkpt><trkpt lat="46.163668064579305" lon="9.347008114834276"><ele>208.5</ele><time>2026-05-02T12:08:39Z</time></trkpt><trkpt lat="46.163579474133776" lon="9.346857631588447"><ele>211.0</ele><time>2026-05-02T12:08:40Z</time></trkpt><trkpt lat="46.163464370277104" lon="9.346695854051807"><ele>211.0</ele><time>2026-05-02T12:08:41Z</time></trkpt><trkpt lat="46.16333588608333" lon="9.346545200344623"><ele>211.0</ele><time>2026-05-02T12:08:42Z</time></trkpt><trkpt lat="46.16319782490101" lon="9.346364980092657"><ele>211.0</ele><time>2026-05-02T12:08:43Z</time></trkpt><trkpt lat="46.163076787018746" lon="9.346190238268587"><ele>209.33333333333331</ele><time>2026-05-02T12:08:44Z</time></trkpt><trkpt lat="46.16296040384267" lon="9.346018897303853"><ele>207.66666666666669</ele><time>2026-05-02T12:08:45Z</time></trkpt><trkpt lat="46.16284100971883" lon="9.345862156244056"><ele>206.0</ele><time>2026-05-02T12:08:46Z</time></trkpt><trkpt lat="46.162719058304795" lon="9.345706271251823"><ele>206.0</ele><time>2026-05-02T12:08:47Z</time></trkpt><trkpt lat="46.16262031777146" lon="9.345564734318252"><ele>206.0</ele><time>2026-05-02T12:08:48Z</time></trkpt><trkpt lat="46.16251363835835" lon="9.345436133605931"><ele>206.0</ele><time>2026-05-02T12:08:49Z</time></trkpt><trkpt lat="46.162409924370834" lon="9.345300803791993"><ele>206.0</ele><time>2026-05-02T12:08:50Z</time></trkpt><trkpt lat="46.1622996861158" lon="9.345169233102663"><ele>204.33333333333334</ele><time>2026-05-02T12:08:51Z</time></trkpt><trkpt lat="46.16218987982868" lon="9.345015548815704"><ele>202.66666666666669</ele><time>2026-05-02T12:08:52Z</time></trkpt><trkpt lat="46.162076348231" lon="9.3448579956559"><ele>201.0</ele><time>2026-05-02T12:08:53Z</time></trkpt><trkpt lat="46.161973629472406" lon="9.344711589993572"><ele>205.33333333333331</ele><time>2026-05-02T12:08:54Z</time></trkpt><trkpt lat="46.16186602186522" lon="9.344578824082381"><ele>209.66666666666666</ele><time>2026-05-02T12:08:55Z</time></trkpt><trkpt lat="46.161743669716586" lon="9.344460412984024"><ele>214.0</ele><time>2026-05-02T12:08:56Z</time></trkpt><trkpt lat="46.16156184184998" lon="9.344297323801436"><ele>214.0</ele><time>2026-05-02T12:08:57Z</time></trkpt><trkpt lat="46.16140192089171" lon="9.344166166109929"><ele>214.0</ele><time>2026-05-02T12:08:58Z</time></trkpt><trkpt lat="46.161232106651475" lon="9.344015585231693"><ele>214.0</ele><time>2026-05-02T12:08:59Z</time></trkpt><trkpt lat="46.16107774029321" lon="9.343865119025873"><ele>214.0</ele><time>2026-05-02T12:09:00Z</time></trkpt><trkpt lat="46.160921805592146" lon="9.34371810954105"><ele>214.0</ele><time>2026-05-02T12:09:01Z</time></trkpt><trkpt lat="46.16079123940289" lon="9.34358150417772"><ele>214.0</ele><time>2026-05-02T12:09:02Z</time></trkpt><trkpt lat="46.16065607989719" lon="9.343465804349037"><ele>211.25</ele><time>2026-05-02T12:09:03Z</time></trkpt><trkpt lat="46.16052713892689" lon="9.343353493109257"><ele>208.5</ele><time>2026-05-02T12:09:04Z</time></trkpt><trkpt lat="46.16040841513604" lon="9.343248911975486"><ele>205.75</ele><time>2026-05-02T12:09:05Z</time></trkpt><trkpt lat="46.16029214192486" lon="9.34314891214831"><ele>203.0</ele><time>2026-05-02T12:09:06Z</time></trkpt><trkpt lat="46.16019162444783" lon="9.343050033965907"><ele>203.25</ele><time>2026-05-02T12:09:07Z</time></trkpt><trkpt lat="46.16008722170937" lon="9.342950560753808"><ele>203.5</ele><time>2026-05-02T12:09:08Z</time></trkpt><trkpt lat="46.15997973937424" lon="9.342842631379424"><ele>203.75</ele><time>2026-05-02T12:09:09Z</time></trkpt><trkpt lat="46.15988815097203" lon="9.342709214413611"><ele>204.0</ele><time>2026-05-02T12:09:10Z</time></trkpt><trkpt lat="46.1598025279576" lon="9.342568676675496"><ele>204.0</ele><time>2026-05-02T12:09:11Z</time></trkpt><trkpt lat="46.15972105583691" lon="9.342438312593021"><ele>204.0</ele><time>2026-05-02T12:09:12Z</time></trkpt><trkpt lat="46.15962607214635" lon="9.342305836922023"><ele>204.0</ele><time>2026-05-02T12:09:13Z</time></trkpt><trkpt lat="46.15954313927227" lon="9.342182907875152"><ele>204.0</ele><time>2026-05-02T12:09:14Z</time></trkpt><trkpt lat="46.15945903458236" lon="9.342064041948527"><ele>205.75</ele><time>2026-05-02T12:09:15Z</time></trkpt><trkpt lat="46.159370072792726" lon="9.341937074545182"><ele>207.5</ele><time>2026-05-02T12:09:16Z</time></trkpt><trkpt lat="46.15929020973232" lon="9.341800614203224"><ele>209.25</ele><time>2026-05-02T12:09:17Z</time></trkpt><trkpt lat="46.15921363494492" lon="9.341675326237269"><ele>211.0</ele><time>2026-05-02T12:09:17.999Z</time></trkpt><trkpt lat="46.159130760060876" lon="9.341542946446056"><ele>211.0</ele><time>2026-05-02T12:09:18.999Z</time></trkpt><trkpt lat="46.1590545636827" lon="9.341410501019439"><ele>211.0</ele><time>2026-05-02T12:09:19.999Z</time></trkpt><trkpt lat="46.15898484033467" lon="9.341276226505215"><ele>211.0</ele><time>2026-05-02T12:09:20.999Z</time></trkpt><trkpt lat="46.158913062206004" lon="9.341130124878577"><ele>211.0</ele><time>2026-05-02T12:09:21.999Z</time></trkpt><trkpt lat="46.158840091969225" lon="9.340983437650774"><ele>211.25</ele><time>2026-05-02T12:09:22.999Z</time></trkpt><trkpt lat="46.158796965498986" lon="9.340833078544346"><ele>211.5</ele><time>2026-05-02T12:09:23.999Z</time></trkpt><trkpt lat="46.158737546346174" lon="9.34067630037698"><ele>211.75</ele><time>2026-05-02T12:09:24.999Z</time></trkpt><trkpt lat="46.15868709672589" lon="9.340507441178"><ele>212.0</ele><time>2026-05-02T12:09:25.999Z</time></trkpt><trkpt lat="46.15862920139033" lon="9.340335280364718"><ele>212.0</ele><time>2026-05-02T12:09:26.999Z</time></trkpt><trkpt lat="46.15855636882576" lon="9.340181354480972"><ele>212.0</ele><time>2026-05-02T12:09:27.999Z</time></trkpt><trkpt lat="46.15849114717648" lon="9.340033602875934"><ele>212.0</ele><time>2026-05-02T12:09:28.999Z</time></trkpt><trkpt lat="46.15841359385867" lon="9.339901889434893"><ele>212.0</ele><time>2026-05-02T12:09:29.999Z</time></trkpt><trkpt lat="46.158333038031" lon="9.339782433678032"><ele>210.6</ele><time>2026-05-02T12:09:30.999Z</time></trkpt><trkpt lat="46.1582526323169" lon="9.33967457595282"><ele>209.2</ele><time>2026-05-02T12:09:31.999Z</time></trkpt><trkpt lat="46.15817055805935" lon="9.339574135413365"><ele>207.8</ele><time>2026-05-02T12:09:32.999Z</time></trkpt><trkpt lat="46.15808793286497" lon="9.339475680463622"><ele>206.4</ele><time>2026-05-02T12:09:33.999Z</time></trkpt><trkpt lat="46.15799667468395" lon="9.339377657710765"><ele>205.0</ele><time>2026-05-02T12:09:34.999Z</time></trkpt><trkpt lat="46.15790696426499" lon="9.3392784614154"><ele>205.0</ele><time>2026-05-02T12:09:35.999Z</time></trkpt><trkpt lat="46.15783284570837" lon="9.339171683864107"><ele>205.0</ele><time>2026-05-02T12:09:36.999Z</time></trkpt><trkpt lat="46.15775499493793" lon="9.339068336845678"><ele>205.0</ele><time>2026-05-02T12:09:37.999Z</time></trkpt><trkpt lat="46.157675677129525" lon="9.338960120769727"><ele>205.0</ele><time>2026-05-02T12:09:38.999Z</time></trkpt><trkpt lat="46.15761342354688" lon="9.338837480062013"><ele>205.0</ele><time>2026-05-02T12:09:39.999Z</time></trkpt><trkpt lat="46.157552634525125" lon="9.33872927731725"><ele>204.2</ele><time>2026-05-02T12:09:40.999Z</time></trkpt><trkpt lat="46.15749588897617" lon="9.33863285285598"><ele>203.4</ele><time>2026-05-02T12:09:41.999Z</time></trkpt><trkpt lat="46.15744994377285" lon="9.338514334049107"><ele>202.60000000000002</ele><time>2026-05-02T12:09:42.999Z</time></trkpt><trkpt lat="46.15740079544606" lon="9.33840019319302"><ele>201.8</ele><time>2026-05-02T12:09:43.999Z</time></trkpt><trkpt lat="46.157330714847056" lon="9.33830355327871"><ele>201.0</ele><time>2026-05-02T12:09:44.999Z</time></trkpt><trkpt lat="46.157253662061095" lon="9.338215546131584"><ele>201.0</ele><time>2026-05-02T12:09:45.999Z</time></trkpt><trkpt lat="46.157180159249386" lon="9.338151130337591"><ele>201.0</ele><time>2026-05-02T12:09:46.999Z</time></trkpt><trkpt lat="46.15709852181179" lon="9.338100740478465"><ele>201.0</ele><time>2026-05-02T12:09:47.999Z</time></trkpt><trkpt lat="46.157012299496564" lon="9.33810488535076"><ele>201.0</ele><time>2026-05-02T12:09:48.999Z</time></trkpt><trkpt lat="46.15692604543418" lon="9.338099112310257"><ele>201.0</ele><time>2026-05-02T12:09:49.999Z</time></trkpt><trkpt lat="46.15684698705691" lon="9.338084804315212"><ele>201.0</ele><time>2026-05-02T12:09:50.999Z</time></trkpt><trkpt lat="46.15677737905923" lon="9.338068803562575"><ele>201.0</ele><time>2026-05-02T12:09:51.999Z</time></trkpt><trkpt lat="46.15671092678981" lon="9.338058662662293"><ele>201.0</ele><time>2026-05-02T12:09:52.999Z</time></trkpt><trkpt lat="46.156631704323765" lon="9.338050257885909"><ele>201.0</ele><time>2026-05-02T12:09:53.999Z</time></trkpt><trkpt lat="46.156557773609336" lon="9.338038140631932"><ele>201.0</ele><time>2026-05-02T12:09:54.999Z</time></trkpt><trkpt lat="46.15648536784303" lon="9.338026833975368"><ele>201.0</ele><time>2026-05-02T12:09:55.999Z</time></trkpt><trkpt lat="46.15641619540395" lon="9.338009459817098"><ele>201.0</ele><time>2026-05-02T12:09:56.999Z</time></trkpt><trkpt lat="46.15634602458319" lon="9.337997493301806"><ele>201.0</ele><time>2026-05-02T12:09:57.999Z</time></trkpt><trkpt lat="46.15627532115925" lon="9.33797746599772"><ele>201.33333333333334</ele><time>2026-05-02T12:09:58.999Z</time></trkpt><trkpt lat="46.156202644067314" lon="9.33795454944539"><ele>201.66666666666669</ele><time>2026-05-02T12:09:59.999Z</time></trkpt><trkpt lat="46.156120709062336" lon="9.337928407513925"><ele>202.0</ele><time>2026-05-02T12:10:00.999Z</time></trkpt><trkpt lat="46.156031189831225" lon="9.337882835836522"><ele>202.33333333333334</ele><time>2026-05-02T12:10:01.999Z</time></trkpt><trkpt lat="46.155943596446775" lon="9.33782095464334"><ele>202.66666666666669</ele><time>2026-05-02T12:10:03Z</time></trkpt><trkpt lat="46.1558559519738" lon="9.337755352710175"><ele>203.0</ele><time>2026-05-02T12:10:04Z</time></trkpt><trkpt lat="46.15575281846188" lon="9.337664918872466"><ele>202.8</ele><time>2026-05-02T12:10:05Z</time></trkpt><trkpt lat="46.15565796606135" lon="9.337573832546152"><ele>202.60000000000002</ele><time>2026-05-02T12:10:06Z</time></trkpt><trkpt lat="46.15557565869496" lon="9.337493920791298"><ele>202.39999999999998</ele><time>2026-05-02T12:10:07Z</time></trkpt><trkpt lat="46.15549316449049" lon="9.337409825562474"><ele>202.2</ele><time>2026-05-02T12:10:08Z</time></trkpt><trkpt lat="46.15540534324115" lon="9.337314932920968"><ele>202.0</ele><time>2026-05-02T12:10:09Z</time></trkpt><trkpt lat="46.15530394037737" lon="9.337198138759717"><ele>202.5</ele><time>2026-05-02T12:10:10Z</time></trkpt><trkpt lat="46.155208346111415" lon="9.337095294651986"><ele>203.0</ele><time>2026-05-02T12:10:11Z</time></trkpt><trkpt lat="46.155102792410645" lon="9.336991766205687"><ele>203.5</ele><time>2026-05-02T12:10:12Z</time></trkpt><trkpt lat="46.15501631781015" lon="9.33690383363679"><ele>204.0</ele><time>2026-05-02T12:10:13Z</time></trkpt><trkpt lat="46.15494119152038" lon="9.336807603516545"><ele>203.5</ele><time>2026-05-02T12:10:14Z</time></trkpt><trkpt lat="46.15486310260499" lon="9.33670693738714"><ele>203.0</ele><time>2026-05-02T12:10:15Z</time></trkpt><trkpt lat="46.15477223290017" lon="9.336599520334808"><ele>202.5</ele><time>2026-05-02T12:10:16Z</time></trkpt><trkpt lat="46.1546500499824" lon="9.336494563173714"><ele>202.0</ele><time>2026-05-02T12:10:17Z</time></trkpt><trkpt lat="46.15456803515804" lon="9.336391484478783"><ele>202.2</ele><time>2026-05-02T12:10:18Z</time></trkpt><trkpt lat="46.154477858731745" lon="9.33628739943466"><ele>202.39999999999998</ele><time>2026-05-02T12:10:19Z</time></trkpt><trkpt lat="46.15440273964538" lon="9.336194267612411"><ele>202.60000000000002</ele><time>2026-05-02T12:10:20Z</time></trkpt><trkpt lat="46.15432909452954" lon="9.336097310441158"><ele>202.8</ele><time>2026-05-02T12:10:21Z</time></trkpt><trkpt lat="46.154241885757244" lon="9.335995176407453"><ele>203.0</ele><time>2026-05-02T12:10:22Z</time></trkpt><trkpt lat="46.154151244447995" lon="9.335910505540173"><ele>203.0</ele><time>2026-05-02T12:10:23Z</time></trkpt><trkpt lat="46.15406905903217" lon="9.335820504631013"><ele>203.0</ele><time>2026-05-02T12:10:24Z</time></trkpt><trkpt lat="46.15399405520011" lon="9.335728016640159"><ele>203.0</ele><time>2026-05-02T12:10:25Z</time></trkpt><trkpt lat="46.1539046491483" lon="9.335632943388697"><ele>203.0</ele><time>2026-05-02T12:10:26Z</time></trkpt><trkpt lat="46.15381992341943" lon="9.335545654927875"><ele>203.0</ele><time>2026-05-02T12:10:27Z</time></trkpt><trkpt lat="46.15373808350857" lon="9.335453838411574"><ele>203.4</ele><time>2026-05-02T12:10:28Z</time></trkpt><trkpt lat="46.15364901053286" lon="9.33536529861968"><ele>203.8</ele><time>2026-05-02T12:10:29Z</time></trkpt><trkpt lat="46.15356071550785" lon="9.335277539298422"><ele>204.2</ele><time>2026-05-02T12:10:30Z</time></trkpt><trkpt lat="46.15347910182149" lon="9.335195713795509"><ele>204.6</ele><time>2026-05-02T12:10:31Z</time></trkpt><trkpt lat="46.15342032400072" lon="9.335128621849114"><ele>205.0</ele><time>2026-05-02T12:10:32Z</time></trkpt><trkpt lat="46.15335655350476" lon="9.3350634871525"><ele>204.99999999999997</ele><time>2026-05-02T12:10:33Z</time></trkpt><trkpt lat="46.15329259891986" lon="9.334995546981471"><ele>205.0</ele><time>2026-05-02T12:10:34Z</time></trkpt><trkpt lat="46.15322688892083" lon="9.33491732378744"><ele>205.0</ele><time>2026-05-02T12:10:35Z</time></trkpt><trkpt lat="46.15316795697695" lon="9.334853878038475"><ele>205.0</ele><time>2026-05-02T12:10:36Z</time></trkpt><trkpt lat="46.153105441625044" lon="9.334791244559387"><ele>204.99999999999997</ele><time>2026-05-02T12:10:37Z</time></trkpt><trkpt lat="46.15304585870353" lon="9.334719844957016"><ele>205.0</ele><time>2026-05-02T12:10:38Z</time></trkpt><trkpt lat="46.152976873074444" lon="9.33465042138081"><ele>205.16666666666666</ele><time>2026-05-02T12:10:39Z</time></trkpt><trkpt lat="46.15291061403529" lon="9.334582687429213"><ele>205.33333333333331</ele><time>2026-05-02T12:10:40Z</time></trkpt><trkpt lat="46.15284956831551" lon="9.334517815689152"><ele>205.5</ele><time>2026-05-02T12:10:41Z</time></trkpt><trkpt lat="46.152794597087734" lon="9.334453752614452"><ele>205.66666666666669</ele><time>2026-05-02T12:10:42Z</time></trkpt><trkpt lat="46.152731588138145" lon="9.33438419955833"><ele>205.83333333333334</ele><time>2026-05-02T12:10:43Z</time></trkpt><trkpt lat="46.15267115236307" lon="9.334314767479022"><ele>206.0</ele><time>2026-05-02T12:10:44Z</time></trkpt><trkpt lat="46.15260931134601" lon="9.334244081508952"><ele>206.0</ele><time>2026-05-02T12:10:45Z</time></trkpt><trkpt lat="46.15253991708686" lon="9.334165407305361"><ele>206.0</ele><time>2026-05-02T12:10:46Z</time></trkpt><trkpt lat="46.152480857156846" lon="9.334077494101962"><ele>206.0</ele><time>2026-05-02T12:10:47Z</time></trkpt><trkpt lat="46.15240506465813" lon="9.333989431894798"><ele>206.0</ele><time>2026-05-02T12:10:48Z</time></trkpt><trkpt lat="46.15232243079901" lon="9.333905071404216"><ele>206.0</ele><time>2026-05-02T12:10:49Z</time></trkpt><trkpt lat="46.15223616930409" lon="9.333823670225497"><ele>205.8</ele><time>2026-05-02T12:10:50Z</time></trkpt><trkpt lat="46.152157786710596" lon="9.333734492023677"><ele>205.60000000000002</ele><time>2026-05-02T12:10:51Z</time></trkpt><trkpt lat="46.15207174946763" lon="9.33364360376992"><ele>205.4</ele><time>2026-05-02T12:10:52Z</time></trkpt><trkpt lat="46.15199605451801" lon="9.333545068301031"><ele>205.2</ele><time>2026-05-02T12:10:53Z</time></trkpt><trkpt lat="46.15190206125667" lon="9.333455032640858"><ele>205.0</ele><time>2026-05-02T12:10:54Z</time></trkpt><trkpt lat="46.151826153794076" lon="9.33337106232624"><ele>205.0</ele><time>2026-05-02T12:10:55Z</time></trkpt><trkpt lat="46.15173431400166" lon="9.333275970300013"><ele>205.0</ele><time>2026-05-02T12:10:56Z</time></trkpt><trkpt lat="46.151644127117244" lon="9.333171973094105"><ele>205.0</ele><time>2026-05-02T12:10:57Z</time></trkpt><trkpt lat="46.15154976049852" lon="9.33307080099452"><ele>205.0</ele><time>2026-05-02T12:10:58Z</time></trkpt><trkpt lat="46.15146662430905" lon="9.332969069994279"><ele>205.0</ele><time>2026-05-02T12:10:59Z</time></trkpt><trkpt lat="46.15138333808383" lon="9.332862435935715"><ele>205.0</ele><time>2026-05-02T12:11:00Z</time></trkpt><trkpt lat="46.151311989193815" lon="9.332765814812536"><ele>205.0</ele><time>2026-05-02T12:11:01Z</time></trkpt><trkpt lat="46.1512597529645" lon="9.332674266497461"><ele>205.0</ele><time>2026-05-02T12:11:02Z</time></trkpt><trkpt lat="46.151200683954535" lon="9.332582933209851"><ele>205.0</ele><time>2026-05-02T12:11:03Z</time></trkpt><trkpt lat="46.15114579811638" lon="9.332492835423812"><ele>204.99999999999997</ele><time>2026-05-02T12:11:04Z</time></trkpt><trkpt lat="46.15109296009599" lon="9.332405513449517"><ele>205.0</ele><time>2026-05-02T12:11:05Z</time></trkpt><trkpt lat="46.15105283053881" lon="9.332313935969504"><ele>205.0</ele><time>2026-05-02T12:11:06Z</time></trkpt><trkpt lat="46.15101058958553" lon="9.332229966135731"><ele>205.0</ele><time>2026-05-02T12:11:07Z</time></trkpt><trkpt lat="46.150974079166396" lon="9.332149100485372"><ele>204.99999999999997</ele><time>2026-05-02T12:11:08Z</time></trkpt><trkpt lat="46.15093146987887" lon="9.332047961412988"><ele>205.0</ele><time>2026-05-02T12:11:09Z</time></trkpt><trkpt lat="46.15088968585866" lon="9.331931321905868"><ele>204.99999999999997</ele><time>2026-05-02T12:11:10Z</time></trkpt><trkpt lat="46.150852497874524" lon="9.331803797581765"><ele>205.0</ele><time>2026-05-02T12:11:11Z</time></trkpt><trkpt lat="46.15082354142267" lon="9.331695430738204"><ele>205.0</ele><time>2026-05-02T12:11:12Z</time></trkpt><trkpt lat="46.15079130373063" lon="9.331592136557008"><ele>205.0</ele><time>2026-05-02T12:11:13Z</time></trkpt><trkpt lat="46.15076099160659" lon="9.3314897166958"><ele>204.99999999999997</ele><time>2026-05-02T12:11:14Z</time></trkpt><trkpt lat="46.15073978592006" lon="9.331378048674855"><ele>205.0</ele><time>2026-05-02T12:11:15Z</time></trkpt><trkpt lat="46.1507241643048" lon="9.331254371151994"><ele>204.99999999999997</ele><time>2026-05-02T12:11:16Z</time></trkpt><trkpt lat="46.15071001574881" lon="9.33111520059874"><ele>205.0</ele><time>2026-05-02T12:11:17Z</time></trkpt><trkpt lat="46.150688452299434" lon="9.33098009233591"><ele>205.0</ele><time>2026-05-02T12:11:18Z</time></trkpt><trkpt lat="46.15066850884299" lon="9.330865086939223"><ele>205.0</ele><time>2026-05-02T12:11:19Z</time></trkpt><trkpt lat="46.150657470093364" lon="9.330767218498242"><ele>204.99999999999997</ele><time>2026-05-02T12:11:20Z</time></trkpt><trkpt lat="46.150642664109306" lon="9.330675285471875"><ele>205.0</ele><time>2026-05-02T12:11:21Z</time></trkpt><trkpt lat="46.15062735556348" lon="9.330478777800488"><ele>204.66666666666666</ele><time>2026-05-02T12:11:23Z</time></trkpt><trkpt lat="46.150600940818286" lon="9.330369805732575"><ele>204.33333333333331</ele><time>2026-05-02T12:11:24Z</time></trkpt><trkpt lat="46.1505682898292" lon="9.330254310773327"><ele>204.0</ele><time>2026-05-02T12:11:25Z</time></trkpt><trkpt lat="46.150533075546576" lon="9.330139517732478"><ele>203.66666666666669</ele><time>2026-05-02T12:11:26Z</time></trkpt><trkpt lat="46.150487696399566" lon="9.330028127866685"><ele>203.33333333333334</ele><time>2026-05-02T12:11:27Z</time></trkpt><trkpt lat="46.15043662760396" lon="9.32993800970583"><ele>203.0</ele><time>2026-05-02T12:11:28Z</time></trkpt><trkpt lat="46.15036695356871" lon="9.329847530774028"><ele>203.0</ele><time>2026-05-02T12:11:29Z</time></trkpt><trkpt lat="46.15030177236675" lon="9.32977016118428"><ele>203.0</ele><time>2026-05-02T12:11:30Z</time></trkpt><trkpt lat="46.150222316349776" lon="9.329694421310538"><ele>203.0</ele><time>2026-05-02T12:11:31Z</time></trkpt><trkpt lat="46.150143334103" lon="9.329624636384532"><ele>203.0</ele><time>2026-05-02T12:11:32Z</time></trkpt><trkpt lat="46.150068591976606" lon="9.329561381597353"><ele>203.0</ele><time>2026-05-02T12:11:33Z</time></trkpt><trkpt lat="46.14998143247249" lon="9.329507324874339"><ele>202.8</ele><time>2026-05-02T12:11:34Z</time></trkpt><trkpt lat="46.149898748311465" lon="9.329444947388225"><ele>202.60000000000002</ele><time>2026-05-02T12:11:35Z</time></trkpt><trkpt lat="46.14983555631151" lon="9.329369167122978"><ele>202.39999999999998</ele><time>2026-05-02T12:11:35.999Z</time></trkpt><trkpt lat="46.14977713291424" lon="9.329269454716819"><ele>202.2</ele><time>2026-05-02T12:11:36.999Z</time></trkpt><trkpt lat="46.14973665407533" lon="9.329139082919344"><ele>202.0</ele><time>2026-05-02T12:11:37.999Z</time></trkpt><trkpt lat="46.14972043823728" lon="9.328992231188963"><ele>202.39999999999998</ele><time>2026-05-02T12:11:38.999Z</time></trkpt><trkpt lat="46.14973429457467" lon="9.328838217044302"><ele>202.79999999999998</ele><time>2026-05-02T12:11:39.999Z</time></trkpt><trkpt lat="46.149774908967984" lon="9.32868686628144"><ele>203.2</ele><time>2026-05-02T12:11:40.999Z</time></trkpt><trkpt lat="46.149824117655605" lon="9.328534626726134"><ele>203.6</ele><time>2026-05-02T12:11:41.999Z</time></trkpt><trkpt lat="46.149883861420676" lon="9.328412214556954"><ele>204.0</ele><time>2026-05-02T12:11:42.999Z</time></trkpt><trkpt lat="46.149928490372325" lon="9.328281610146975"><ele>204.0</ele><time>2026-05-02T12:11:43.999Z</time></trkpt><trkpt lat="46.149976028323664" lon="9.32815504068837"><ele>204.0</ele><time>2026-05-02T12:11:44.999Z</time></trkpt><trkpt lat="46.15001582754154" lon="9.328040360642342"><ele>204.0</ele><time>2026-05-02T12:11:45.999Z</time></trkpt><trkpt lat="46.150054299778546" lon="9.3279117933746"><ele>204.0</ele><time>2026-05-02T12:11:46.999Z</time></trkpt><trkpt lat="46.150085396238374" lon="9.327746556425742"><ele>204.0</ele><time>2026-05-02T12:11:47.999Z</time></trkpt><trkpt lat="46.150165932907406" lon="9.327557656466434"><ele>203.66666666666669</ele><time>2026-05-02T12:11:48.999Z</time></trkpt><trkpt lat="46.150248815207" lon="9.327306209729144"><ele>203.33333333333334</ele><time>2026-05-02T12:11:49.999Z</time></trkpt><trkpt lat="46.15033693950178" lon="9.327039187127575"><ele>203.0</ele><time>2026-05-02T12:11:50.999Z</time></trkpt><trkpt lat="46.15043009638937" lon="9.326754668658308"><ele>202.25</ele><time>2026-05-02T12:11:51.999Z</time></trkpt><trkpt lat="46.15039159633477" lon="9.326872254888729"><ele>201.5</ele><time>2026-05-02T12:11:52.999Z</time></trkpt><trkpt lat="46.15045608687132" lon="9.326675352561248"><ele>200.75</ele><time>2026-05-02T12:11:53.999Z</time></trkpt><trkpt lat="46.150524344674906" lon="9.326467926898589"><ele>200.0</ele><time>2026-05-02T12:11:54.999Z</time></trkpt><trkpt lat="46.1505900464286" lon="9.326268269107478"><ele>200.0</ele><time>2026-05-02T12:11:55.999Z</time></trkpt><trkpt lat="46.15064349766858" lon="9.326096828045719"><ele>200.0</ele><time>2026-05-02T12:11:56.999Z</time></trkpt><trkpt lat="46.1506861395845" lon="9.325937900562408"><ele>200.0</ele><time>2026-05-02T12:11:57.999Z</time></trkpt><trkpt lat="46.15073561027179" lon="9.325784149200002"><ele>200.0</ele><time>2026-05-02T12:11:58.999Z</time></trkpt><trkpt lat="46.150770268525264" lon="9.325644851559918"><ele>202.0</ele><time>2026-05-02T12:11:59.999Z</time></trkpt><trkpt lat="46.15078457950641" lon="9.325506183653959"><ele>204.0</ele><time>2026-05-02T12:12:00.999Z</time></trkpt><trkpt lat="46.150785408359134" lon="9.32535953773243"><ele>206.0</ele><time>2026-05-02T12:12:01.999Z</time></trkpt><trkpt lat="46.150768476018115" lon="9.32521578380539"><ele>208.0</ele><time>2026-05-02T12:12:02.999Z</time></trkpt><trkpt lat="46.150757436168284" lon="9.325069728679688"><ele>210.0</ele><time>2026-05-02T12:12:03.999Z</time></trkpt><trkpt lat="46.15073181787713" lon="9.324927976350468"><ele>208.8</ele><time>2026-05-02T12:12:04.999Z</time></trkpt><trkpt lat="46.15069427595112" lon="9.324798084780502"><ele>207.6</ele><time>2026-05-02T12:12:05.999Z</time></trkpt><trkpt lat="46.15064268193608" lon="9.324670686796447"><ele>206.39999999999998</ele><time>2026-05-02T12:12:06.999Z</time></trkpt><trkpt lat="46.150573384601174" lon="9.324563554951977"><ele>205.2</ele><time>2026-05-02T12:12:07.999Z</time></trkpt><trkpt lat="46.15050600444288" lon="9.324445864136516"><ele>204.0</ele><time>2026-05-02T12:12:09Z</time></trkpt><trkpt lat="46.15043657246523" lon="9.324330113456316"><ele>204.0</ele><time>2026-05-02T12:12:10Z</time></trkpt><trkpt lat="46.15037537505878" lon="9.324222060651376"><ele>204.0</ele><time>2026-05-02T12:12:11Z</time></trkpt><trkpt lat="46.15031123405254" lon="9.324117549918629"><ele>204.0</ele><time>2026-05-02T12:12:12Z</time></trkpt><trkpt lat="46.15024723826675" lon="9.324003973088036"><ele>204.0</ele><time>2026-05-02T12:12:13Z</time></trkpt><trkpt lat="46.150179730982416" lon="9.32389043285274"><ele>204.0</ele><time>2026-05-02T12:12:14Z</time></trkpt><trkpt lat="46.15012051115947" lon="9.32378267748334"><ele>204.33333333333334</ele><time>2026-05-02T12:12:15Z</time></trkpt><trkpt lat="46.150063347576285" lon="9.323710584154503"><ele>204.66666666666669</ele><time>2026-05-02T12:12:16Z</time></trkpt><trkpt lat="46.15001545451533" lon="9.323612468163926"><ele>205.0</ele><time>2026-05-02T12:12:17Z</time></trkpt><trkpt lat="46.14995890055814" lon="9.32352837591859"><ele>205.33333333333334</ele><time>2026-05-02T12:12:18Z</time></trkpt><trkpt lat="46.14991784168884" lon="9.323440562695616"><ele>205.66666666666669</ele><time>2026-05-02T12:12:19Z</time></trkpt><trkpt lat="46.149886427383926" lon="9.323356408828248"><ele>206.0</ele><time>2026-05-02T12:12:20Z</time></trkpt><trkpt lat="46.14987016839883" lon="9.323253729180884"><ele>206.0</ele><time>2026-05-02T12:12:21Z</time></trkpt><trkpt lat="46.14989158560721" lon="9.323106555703157"><ele>206.0</ele><time>2026-05-02T12:12:22Z</time></trkpt><trkpt lat="46.149858471552044" lon="9.322957195068664"><ele>206.0</ele><time>2026-05-02T12:12:23Z</time></trkpt><trkpt lat="46.14983964738509" lon="9.32278319789981"><ele>206.0</ele><time>2026-05-02T12:12:24Z</time></trkpt><trkpt lat="46.14981773215095" lon="9.322605463505003"><ele>205.60000000000002</ele><time>2026-05-02T12:12:25Z</time></trkpt><trkpt lat="46.14979166840739" lon="9.322440921442906"><ele>205.2</ele><time>2026-05-02T12:12:26Z</time></trkpt><trkpt lat="46.14976617091027" lon="9.322282997133742"><ele>204.8</ele><time>2026-05-02T12:12:27Z</time></trkpt><trkpt lat="46.14974684622616" lon="9.322127072879109"><ele>204.39999999999998</ele><time>2026-05-02T12:12:28Z</time></trkpt><trkpt lat="46.14971981153276" lon="9.321982613557164"><ele>204.0</ele><time>2026-05-02T12:12:29Z</time></trkpt><trkpt lat="46.14967704982178" lon="9.321844737542419"><ele>204.0</ele><time>2026-05-02T12:12:30Z</time></trkpt><trkpt lat="46.14962925919712" lon="9.321710481498668"><ele>204.0</ele><time>2026-05-02T12:12:31Z</time></trkpt><trkpt lat="46.14957372919803" lon="9.321574329272678"><ele>204.0</ele><time>2026-05-02T12:12:32Z</time></trkpt><trkpt lat="46.14951092058267" lon="9.321434779259198"><ele>204.0</ele><time>2026-05-02T12:12:33Z</time></trkpt><trkpt lat="46.14942184437452" lon="9.321292709520801"><ele>203.5</ele><time>2026-05-02T12:12:34Z</time></trkpt><trkpt lat="46.14933641187331" lon="9.321128245038931"><ele>203.0</ele><time>2026-05-02T12:12:35Z</time></trkpt><trkpt lat="46.1492518983326" lon="9.32093760459883"><ele>202.5</ele><time>2026-05-02T12:12:36Z</time></trkpt><trkpt lat="46.14923176434837" lon="9.320816218805815"><ele>202.0</ele><time>2026-05-02T12:12:37Z</time></trkpt><trkpt lat="46.14920228385806" lon="9.320646366085041"><ele>203.0</ele><time>2026-05-02T12:12:38Z</time></trkpt><trkpt lat="46.14918286546249" lon="9.320484154808621"><ele>204.0</ele><time>2026-05-02T12:12:39Z</time></trkpt><trkpt lat="46.14916665970051" lon="9.320306500672038"><ele>205.0</ele><time>2026-05-02T12:12:40Z</time></trkpt><trkpt lat="46.14915599005418" lon="9.320119565276398"><ele>206.0</ele><time>2026-05-02T12:12:41Z</time></trkpt><trkpt lat="46.14915077684673" lon="9.319937856516981"><ele>206.0</ele><time>2026-05-02T12:12:42Z</time></trkpt><trkpt lat="46.14914731478436" lon="9.319755901682024"><ele>206.0</ele><time>2026-05-02T12:12:43Z</time></trkpt><trkpt lat="46.14914563392288" lon="9.319568854789775"><ele>206.0</ele><time>2026-05-02T12:12:44Z</time></trkpt><trkpt lat="46.14914794448692" lon="9.319401943395958"><ele>206.0</ele><time>2026-05-02T12:12:45Z</time></trkpt><trkpt lat="46.149150648000045" lon="9.319240381149939"><ele>206.0</ele><time>2026-05-02T12:12:46Z</time></trkpt><trkpt lat="46.14916310113211" lon="9.319089003180533"><ele>206.0</ele><time>2026-05-02T12:12:47Z</time></trkpt><trkpt lat="46.14916985268717" lon="9.318920482649977"><ele>206.0</ele><time>2026-05-02T12:12:48Z</time></trkpt><trkpt lat="46.14917261767231" lon="9.318772693265746"><ele>206.0</ele><time>2026-05-02T12:12:49Z</time></trkpt><trkpt lat="46.14918601094202" lon="9.318634401911686"><ele>206.0</ele><time>2026-05-02T12:12:50Z</time></trkpt><trkpt lat="46.149196447413686" lon="9.318497634235749"><ele>206.60000000000002</ele><time>2026-05-02T12:12:51Z</time></trkpt><trkpt lat="46.1492190525002" lon="9.31834770151492"><ele>207.2</ele><time>2026-05-02T12:12:52Z</time></trkpt><trkpt lat="46.14924746488775" lon="9.318184698949002"><ele>207.8</ele><time>2026-05-02T12:12:53Z</time></trkpt><trkpt lat="46.14926737903939" lon="9.318032586391697"><ele>208.39999999999998</ele><time>2026-05-02T12:12:54Z</time></trkpt><trkpt lat="46.14928361453195" lon="9.317888738613531"><ele>209.0</ele><time>2026-05-02T12:12:55Z</time></trkpt><trkpt lat="46.14930061929743" lon="9.317764031543717"><ele>209.33333333333334</ele><time>2026-05-02T12:12:56Z</time></trkpt><trkpt lat="46.1493128743225" lon="9.317659469639437"><ele>209.66666666666669</ele><time>2026-05-02T12:12:57Z</time></trkpt><trkpt lat="46.14932829877486" lon="9.317566197913132"><ele>210.0</ele><time>2026-05-02T12:12:58Z</time></trkpt><trkpt lat="46.14934775411663" lon="9.317465217747886"><ele>210.33333333333331</ele><time>2026-05-02T12:13:00Z</time></trkpt><trkpt lat="46.14936354299453" lon="9.317322589071829"><ele>210.66666666666666</ele><time>2026-05-02T12:13:03Z</time></trkpt><trkpt lat="46.149383270480804" lon="9.31712921634789"><ele>211.0</ele><time>2026-05-02T12:13:05Z</time></trkpt><trkpt lat="46.149399160637806" lon="9.317006129876289"><ele>211.0</ele><time>2026-05-02T12:13:06Z</time></trkpt><trkpt lat="46.14942119059217" lon="9.316859067218573"><ele>211.0</ele><time>2026-05-02T12:13:07Z</time></trkpt><trkpt lat="46.14943298022541" lon="9.316670243523133"><ele>211.0</ele><time>2026-05-02T12:13:08Z</time></trkpt><trkpt lat="46.14944812716097" lon="9.316464755508559"><ele>211.0</ele><time>2026-05-02T12:13:09Z</time></trkpt><trkpt lat="46.14946001823077" lon="9.316260327244906"><ele>211.0</ele><time>2026-05-02T12:13:10Z</time></trkpt><trkpt lat="46.14946153808229" lon="9.316047831442997"><ele>211.0</ele><time>2026-05-02T12:13:11Z</time></trkpt><trkpt lat="46.14944607736535" lon="9.31579927834783"><ele>211.0</ele><time>2026-05-02T12:13:12Z</time></trkpt><trkpt lat="46.14942725155191" lon="9.31554863361476"><ele>211.66666666666666</ele><time>2026-05-02T12:13:13Z</time></trkpt><trkpt lat="46.14939074734518" lon="9.31530140357816"><ele>212.33333333333331</ele><time>2026-05-02T12:13:14Z</time></trkpt><trkpt lat="46.149344724098725" lon="9.315083031837585"><ele>213.0</ele><time>2026-05-02T12:13:15Z</time></trkpt><trkpt lat="46.14928754919966" lon="9.314853927778083"><ele>214.66666666666669</ele><time>2026-05-02T12:13:16Z</time></trkpt><trkpt lat="46.149265796952804" lon="9.314608429726775"><ele>216.33333333333334</ele><time>2026-05-02T12:13:17Z</time></trkpt><trkpt lat="46.14924404270573" lon="9.314351976544492"><ele>218.0</ele><time>2026-05-02T12:13:18Z</time></trkpt><trkpt lat="46.149247043813666" lon="9.3140788952242"><ele>218.33333333333334</ele><time>2026-05-02T12:13:19Z</time></trkpt><trkpt lat="46.14923634663171" lon="9.313808026223075"><ele>218.66666666666669</ele><time>2026-05-02T12:13:20Z</time></trkpt><trkpt lat="46.14923901778488" lon="9.313535070465303"><ele>219.0</ele><time>2026-05-02T12:13:21Z</time></trkpt><trkpt lat="46.14923572176749" lon="9.313267486659528"><ele>219.33333333333331</ele><time>2026-05-02T12:13:22Z</time></trkpt><trkpt lat="46.149223517720614" lon="9.312999099700463"><ele>219.66666666666666</ele><time>2026-05-02T12:13:23Z</time></trkpt><trkpt lat="46.14920734010755" lon="9.312709915525687"><ele>220.0</ele><time>2026-05-02T12:13:24Z</time></trkpt><trkpt lat="46.149185662354625" lon="9.312436860946143"><ele>221.0</ele><time>2026-05-02T12:13:25Z</time></trkpt><trkpt lat="46.14913881567669" lon="9.312173022559852"><ele>222.0</ele><time>2026-05-02T12:13:26Z</time></trkpt><trkpt lat="46.14910126277332" lon="9.311904934386629"><ele>223.0</ele><time>2026-05-02T12:13:27Z</time></trkpt><trkpt lat="46.14906541327601" lon="9.311633673097761"><ele>217.0</ele><time>2026-05-02T12:13:28Z</time></trkpt><trkpt lat="46.1490250950575" lon="9.311360776062179"><ele>211.0</ele><time>2026-05-02T12:13:29Z</time></trkpt><trkpt lat="46.14898184185842" lon="9.311048760777158"><ele>205.0</ele><time>2026-05-02T12:13:30Z</time></trkpt><trkpt lat="46.14894795932444" lon="9.310742095970664"><ele>206.66666666666666</ele><time>2026-05-02T12:13:31Z</time></trkpt><trkpt lat="46.14891332653658" lon="9.31043166468973"><ele>208.33333333333331</ele><time>2026-05-02T12:13:32Z</time></trkpt><trkpt lat="46.148873630195254" lon="9.310128845113594"><ele>210.0</ele><time>2026-05-02T12:13:33Z</time></trkpt><trkpt lat="46.148834201784936" lon="9.309833437148335"><ele>212.33333333333331</ele><time>2026-05-02T12:13:34Z</time></trkpt><trkpt lat="46.14879631584079" lon="9.309539984942855"><ele>214.66666666666666</ele><time>2026-05-02T12:13:35Z</time></trkpt><trkpt lat="46.14875887506169" lon="9.309255278895202"><ele>217.0</ele><time>2026-05-02T12:13:36Z</time></trkpt><trkpt lat="46.14872921155017" lon="9.308993103812984"><ele>217.66666666666666</ele><time>2026-05-02T12:13:37Z</time></trkpt><trkpt lat="46.148701392449915" lon="9.308733804283252"><ele>218.33333333333331</ele><time>2026-05-02T12:13:38Z</time></trkpt><trkpt lat="46.1486756029565" lon="9.308500421288668"><ele>219.0</ele><time>2026-05-02T12:13:39Z</time></trkpt><trkpt lat="46.1486706860361" lon="9.308310595400945"><ele>219.0</ele><time>2026-05-02T12:13:40Z</time></trkpt><trkpt lat="46.148668203778605" lon="9.308147121086614"><ele>218.99999999999997</ele><time>2026-05-02T12:13:41Z</time></trkpt><trkpt lat="46.14866626064124" lon="9.30801726270754"><ele>218.99999999999997</ele><time>2026-05-02T12:13:42Z</time></trkpt><trkpt lat="46.14865124033148" lon="9.307872868353671"><ele>219.0</ele><time>2026-05-02T12:13:43Z</time></trkpt><trkpt lat="46.14865507217201" lon="9.307723757772347"><ele>219.0</ele><time>2026-05-02T12:13:44Z</time></trkpt><trkpt lat="46.14862635473254" lon="9.307543566581648"><ele>220.25</ele><time>2026-05-02T12:13:45Z</time></trkpt><trkpt lat="46.14860647866916" lon="9.307376405647581"><ele>221.5</ele><time>2026-05-02T12:13:46Z</time></trkpt><trkpt lat="46.14858470352358" lon="9.307175500510594"><ele>222.75</ele><time>2026-05-02T12:13:47Z</time></trkpt><trkpt lat="46.14854312494387" lon="9.306955587775414"><ele>224.0</ele><time>2026-05-02T12:13:48Z</time></trkpt><trkpt lat="46.14849022875687" lon="9.306735720319352"><ele>224.25</ele><time>2026-05-02T12:13:49Z</time></trkpt><trkpt lat="46.14845966488404" lon="9.306524681584618"><ele>224.5</ele><time>2026-05-02T12:13:50Z</time></trkpt><trkpt lat="46.14844713728151" lon="9.306318077243855"><ele>224.75</ele><time>2026-05-02T12:13:51Z</time></trkpt><trkpt lat="46.148428412472136" lon="9.306123406137662"><ele>225.0</ele><time>2026-05-02T12:13:52Z</time></trkpt><trkpt lat="46.14840887930436" lon="9.305936808087282"><ele>225.0</ele><time>2026-05-02T12:13:53Z</time></trkpt><trkpt lat="46.14838317590813" lon="9.30576541154889"><ele>225.0</ele><time>2026-05-02T12:13:54Z</time></trkpt><trkpt lat="46.148384198797224" lon="9.305603622626483"><ele>225.0</ele><time>2026-05-02T12:13:55Z</time></trkpt><trkpt lat="46.14840256136747" lon="9.305449939539082"><ele>225.0</ele><time>2026-05-02T12:13:56Z</time></trkpt><trkpt lat="46.14847687412716" lon="9.305292129311649"><ele>224.25</ele><time>2026-05-02T12:13:57Z</time></trkpt><trkpt lat="46.14854646337691" lon="9.305089615127901"><ele>223.5</ele><time>2026-05-02T12:13:58Z</time></trkpt><trkpt lat="46.14860095410162" lon="9.304929577668005"><ele>222.75</ele><time>2026-05-02T12:13:59Z</time></trkpt><trkpt lat="46.14865061239317" lon="9.304758811049508"><ele>222.0</ele><time>2026-05-02T12:14:00Z</time></trkpt><trkpt lat="46.14865526224586" lon="9.304574980028061"><ele>223.2</ele><time>2026-05-02T12:14:01Z</time></trkpt><trkpt lat="46.148628405890044" lon="9.304407741471074"><ele>224.39999999999998</ele><time>2026-05-02T12:14:02Z</time></trkpt><trkpt lat="46.148590161965906" lon="9.30428724920617"><ele>225.60000000000002</ele><time>2026-05-02T12:14:03Z</time></trkpt><trkpt lat="46.148535076246056" lon="9.304191692089256"><ele>226.8</ele><time>2026-05-02T12:14:04Z</time></trkpt><trkpt lat="46.148457057827684" lon="9.304098183694032"><ele>228.0</ele><time>2026-05-02T12:14:05Z</time></trkpt><trkpt lat="46.14837795403812" lon="9.30401305819261"><ele>228.0</ele><time>2026-05-02T12:14:05.999Z</time></trkpt><trkpt lat="46.1483249634306" lon="9.303918166171938"><ele>228.0</ele><time>2026-05-02T12:14:06.999Z</time></trkpt><trkpt lat="46.14826856214882" lon="9.303816112305325"><ele>228.0</ele><time>2026-05-02T12:14:07.999Z</time></trkpt><trkpt lat="46.148208165676486" lon="9.30371699489714"><ele>228.0</ele><time>2026-05-02T12:14:08.999Z</time></trkpt><trkpt lat="46.14815627317488" lon="9.30363116348298"><ele>228.0</ele><time>2026-05-02T12:14:09.999Z</time></trkpt><trkpt lat="46.14810231802169" lon="9.303552298145249"><ele>228.0</ele><time>2026-05-02T12:14:10.999Z</time></trkpt><trkpt lat="46.14805633559031" lon="9.30348498667642"><ele>227.8</ele><time>2026-05-02T12:14:11.999Z</time></trkpt><trkpt lat="46.14796944699898" lon="9.303347144694653"><ele>227.60000000000002</ele><time>2026-05-02T12:14:13.999Z</time></trkpt><trkpt lat="46.147927319184646" lon="9.30327671428322"><ele>227.39999999999998</ele><time>2026-05-02T12:14:15Z</time></trkpt><trkpt lat="46.14785308317103" lon="9.303160958914962"><ele>227.2</ele><time>2026-05-02T12:14:17Z</time></trkpt><trkpt lat="46.14779780795144" lon="9.303054731186222"><ele>227.0</ele><time>2026-05-02T12:14:19Z</time></trkpt><trkpt lat="46.14772496157245" lon="9.302920361139245"><ele>227.00000000000003</ele><time>2026-05-02T12:14:21Z</time></trkpt><trkpt lat="46.147682057101" lon="9.302843230718384"><ele>227.0</ele><time>2026-05-02T12:14:22Z</time></trkpt><trkpt lat="46.14762396348357" lon="9.30276263387679"><ele>227.0</ele><time>2026-05-02T12:14:23Z</time></trkpt><trkpt lat="46.14757405992519" lon="9.302681516556342"><ele>227.0</ele><time>2026-05-02T12:14:24Z</time></trkpt><trkpt lat="46.14752635797145" lon="9.30259298232308"><ele>227.00000000000003</ele><time>2026-05-02T12:14:25Z</time></trkpt><trkpt lat="46.14746840937816" lon="9.302512406547164"><ele>227.0</ele><time>2026-05-02T12:14:26Z</time></trkpt><trkpt lat="46.14737497565072" lon="9.302488769138964"><ele>227.0</ele><time>2026-05-02T12:14:27Z</time></trkpt><trkpt lat="46.14727795855154" lon="9.302494614354758"><ele>227.0</ele><time>2026-05-02T12:14:28Z</time></trkpt><trkpt lat="46.14714615338345" lon="9.302432887678963"><ele>227.0</ele><time>2026-05-02T12:14:29Z</time></trkpt><trkpt lat="46.14707733290678" lon="9.302454500474687"><ele>227.0</ele><time>2026-05-02T12:14:30Z</time></trkpt><trkpt lat="46.14698528843698" lon="9.302437679911169"><ele>227.0</ele><time>2026-05-02T12:14:31Z</time></trkpt><trkpt lat="46.14689285283598" lon="9.302427656710408"><ele>227.0</ele><time>2026-05-02T12:14:32Z</time></trkpt><trkpt lat="46.146805486495296" lon="9.302416587272527"><ele>227.0</ele><time>2026-05-02T12:14:33Z</time></trkpt><trkpt lat="46.14670979952055" lon="9.302412093522486"><ele>227.0</ele><time>2026-05-02T12:14:34Z</time></trkpt><trkpt lat="46.14661699074683" lon="9.302404743338077"><ele>227.0</ele><time>2026-05-02T12:14:35Z</time></trkpt><trkpt lat="46.146522150411386" lon="9.302374317270719"><ele>227.0</ele><time>2026-05-02T12:14:36Z</time></trkpt><trkpt lat="46.146427315542184" lon="9.302342833936917"><ele>227.2</ele><time>2026-05-02T12:14:37Z</time></trkpt><trkpt lat="46.146343817579016" lon="9.302302300344179"><ele>227.39999999999998</ele><time>2026-05-02T12:14:38Z</time></trkpt><trkpt lat="46.14627147036692" lon="9.302255926958434"><ele>227.60000000000002</ele><time>2026-05-02T12:14:39Z</time></trkpt><trkpt lat="46.1461805451364" lon="9.302151736278988"><ele>227.8</ele><time>2026-05-02T12:14:40Z</time></trkpt><trkpt lat="46.146113326620714" lon="9.302056165394008"><ele>228.0</ele><time>2026-05-02T12:14:41Z</time></trkpt><trkpt lat="46.14601681776689" lon="9.301951690722897"><ele>228.0</ele><time>2026-05-02T12:14:42Z</time></trkpt><trkpt lat="46.14593329710577" lon="9.301831386487114"><ele>228.0</ele><time>2026-05-02T12:14:43Z</time></trkpt><trkpt lat="46.145858755471664" lon="9.301704701281409"><ele>228.0</ele><time>2026-05-02T12:14:44Z</time></trkpt><trkpt lat="46.14570606845018" lon="9.301557820669714"><ele>228.0</ele><time>2026-05-02T12:14:45Z</time></trkpt><trkpt lat="46.14556878711032" lon="9.301376869327491"><ele>228.0</ele><time>2026-05-02T12:14:46Z</time></trkpt><trkpt lat="46.145427787411606" lon="9.30119584790717"><ele>228.0</ele><time>2026-05-02T12:14:47Z</time></trkpt><trkpt lat="46.145310647845015" lon="9.301039287018037"><ele>228.0</ele><time>2026-05-02T12:14:48Z</time></trkpt><trkpt lat="46.14521008498429" lon="9.300911511917578"><ele>228.0</ele><time>2026-05-02T12:14:49Z</time></trkpt><trkpt lat="46.145113764662796" lon="9.300799299064034"><ele>228.0</ele><time>2026-05-02T12:14:50Z</time></trkpt><trkpt lat="46.14504004893306" lon="9.300717677587352"><ele>228.0</ele><time>2026-05-02T12:14:51Z</time></trkpt><trkpt lat="46.14498922099084" lon="9.300642866210625"><ele>228.0</ele><time>2026-05-02T12:14:52Z</time></trkpt><trkpt lat="46.14491828424995" lon="9.30057898924204"><ele>228.0</ele><time>2026-05-02T12:14:54Z</time></trkpt><trkpt lat="46.14485934386049" lon="9.300543340615874"><ele>228.0</ele><time>2026-05-02T12:14:59Z</time></trkpt><trkpt lat="46.14479522782398" lon="9.300455259092027"><ele>226.66666666666666</ele><time>2026-05-02T12:15:02Z</time></trkpt><trkpt lat="46.14473356682523" lon="9.300350598884744"><ele>225.33333333333331</ele><time>2026-05-02T12:15:04Z</time></trkpt><trkpt lat="46.144682447322744" lon="9.300283213041267"><ele>224.0</ele><time>2026-05-02T12:15:05Z</time></trkpt><trkpt lat="46.14463174414888" lon="9.300203158591968"><ele>222.66666666666666</ele><time>2026-05-02T12:15:06Z</time></trkpt><trkpt lat="46.14458691827844" lon="9.300100234571119"><ele>221.33333333333331</ele><time>2026-05-02T12:15:07Z</time></trkpt><trkpt lat="46.144534957720865" lon="9.300021546078161"><ele>220.0</ele><time>2026-05-02T12:15:08Z</time></trkpt><trkpt lat="46.144496374057745" lon="9.299949316241994"><ele>220.0</ele><time>2026-05-02T12:15:09Z</time></trkpt><trkpt lat="46.144457413410315" lon="9.299848860346778"><ele>220.0</ele><time>2026-05-02T12:15:10Z</time></trkpt><trkpt lat="46.1444074350627" lon="9.299744414350878"><ele>220.0</ele><time>2026-05-02T12:15:11Z</time></trkpt><trkpt lat="46.144353282423104" lon="9.299634092505617"><ele>220.0</ele><time>2026-05-02T12:15:12Z</time></trkpt><trkpt lat="46.144285898601346" lon="9.299511144338615"><ele>220.0</ele><time>2026-05-02T12:15:13Z</time></trkpt><trkpt lat="46.14425003226351" lon="9.299393928007193"><ele>219.83333333333331</ele><time>2026-05-02T12:15:14Z</time></trkpt><trkpt lat="46.144260030871735" lon="9.299260666059233"><ele>219.66666666666666</ele><time>2026-05-02T12:15:15Z</time></trkpt><trkpt lat="46.14424483014575" lon="9.299146420897543"><ele>219.5</ele><time>2026-05-02T12:15:16Z</time></trkpt><trkpt lat="46.144218733438834" lon="9.29902408214251"><ele>219.33333333333331</ele><time>2026-05-02T12:15:17Z</time></trkpt><trkpt lat="46.14419696607272" lon="9.298899475572622"><ele>219.16666666666666</ele><time>2026-05-02T12:15:18Z</time></trkpt><trkpt lat="46.14416722258476" lon="9.2987793894188"><ele>219.0</ele><time>2026-05-02T12:15:19Z</time></trkpt><trkpt lat="46.14413412660583" lon="9.298651826173963"><ele>219.0</ele><time>2026-05-02T12:15:20Z</time></trkpt><trkpt lat="46.14409314548668" lon="9.298519969580395"><ele>218.99999999999997</ele><time>2026-05-02T12:15:21Z</time></trkpt><trkpt lat="46.14405563018677" lon="9.298371544444809"><ele>218.99999999999997</ele><time>2026-05-02T12:15:22Z</time></trkpt><trkpt lat="46.14402754857725" lon="9.298229290057835"><ele>219.0</ele><time>2026-05-02T12:15:23Z</time></trkpt><trkpt lat="46.14399080481034" lon="9.298082999592907"><ele>219.0</ele><time>2026-05-02T12:15:24Z</time></trkpt><trkpt lat="46.14394836830715" lon="9.297901486277782"><ele>219.5</ele><time>2026-05-02T12:15:25Z</time></trkpt><trkpt lat="46.14389936486445" lon="9.297723872880773"><ele>220.0</ele><time>2026-05-02T12:15:26Z</time></trkpt><trkpt lat="46.14386335596709" lon="9.29755488745535"><ele>220.5</ele><time>2026-05-02T12:15:27Z</time></trkpt><trkpt lat="46.14382872851258" lon="9.297365025099007"><ele>221.0</ele><time>2026-05-02T12:15:28Z</time></trkpt><trkpt lat="46.143803248636864" lon="9.297204817609103"><ele>221.0</ele><time>2026-05-02T12:15:29Z</time></trkpt><trkpt lat="46.143778024709086" lon="9.297057088749561"><ele>221.00000000000003</ele><time>2026-05-02T12:15:30Z</time></trkpt><trkpt lat="46.1437308606969" lon="9.29692317849194"><ele>221.00000000000003</ele><time>2026-05-02T12:15:31Z</time></trkpt><trkpt lat="46.14365625504435" lon="9.296799546431213"><ele>221.0</ele><time>2026-05-02T12:15:32Z</time></trkpt><trkpt lat="46.143562665474654" lon="9.296704407856106"><ele>221.0</ele><time>2026-05-02T12:15:33Z</time></trkpt><trkpt lat="46.14347649380034" lon="9.296601114000737"><ele>221.0</ele><time>2026-05-02T12:15:34Z</time></trkpt><trkpt lat="46.143410075551756" lon="9.296493347608148"><ele>221.0</ele><time>2026-05-02T12:15:35Z</time></trkpt><trkpt lat="46.143316355395775" lon="9.29636741998337"><ele>221.0</ele><time>2026-05-02T12:15:36Z</time></trkpt><trkpt lat="46.14317375033481" lon="9.29624922677688"><ele>221.0</ele><time>2026-05-02T12:15:37Z</time></trkpt><trkpt lat="46.14297301323718" lon="9.29613480206753"><ele>220.25</ele><time>2026-05-02T12:15:38Z</time></trkpt><trkpt lat="46.142846526330295" lon="9.296016423562262"><ele>219.5</ele><time>2026-05-02T12:15:39Z</time></trkpt><trkpt lat="46.142730650690226" lon="9.295907113558586"><ele>218.75</ele><time>2026-05-02T12:15:40Z</time></trkpt><trkpt lat="46.14262885674481" lon="9.2958116737356"><ele>218.0</ele><time>2026-05-02T12:15:41Z</time></trkpt><trkpt lat="46.14251879680495" lon="9.295724345402782"><ele>218.0</ele><time>2026-05-02T12:15:42Z</time></trkpt><trkpt lat="46.14241663800498" lon="9.295630861222792"><ele>218.0</ele><time>2026-05-02T12:15:43Z</time></trkpt><trkpt lat="46.142379705551306" lon="9.295511985962412"><ele>218.0</ele><time>2026-05-02T12:15:44Z</time></trkpt><trkpt lat="46.14232390135039" lon="9.295380533354034"><ele>218.0</ele><time>2026-05-02T12:15:45Z</time></trkpt><trkpt lat="46.14224654704449" lon="9.295253164977039"><ele>218.0</ele><time>2026-05-02T12:15:46Z</time></trkpt><trkpt lat="46.14216877958209" lon="9.295099295489637"><ele>216.66666666666669</ele><time>2026-05-02T12:15:47Z</time></trkpt><trkpt lat="46.14213127201433" lon="9.294922972458222"><ele>215.33333333333331</ele><time>2026-05-02T12:15:48Z</time></trkpt><trkpt lat="46.14199894516337" lon="9.29472512384235"><ele>214.0</ele><time>2026-05-02T12:15:49Z</time></trkpt><trkpt lat="46.14188768247884" lon="9.29450709001473"><ele>214.0</ele><time>2026-05-02T12:15:50Z</time></trkpt><trkpt lat="46.14179506294141" lon="9.294296290905828"><ele>214.0</ele><time>2026-05-02T12:15:51Z</time></trkpt><trkpt lat="46.14169667982073" lon="9.294084533538976"><ele>214.0</ele><time>2026-05-02T12:15:52Z</time></trkpt><trkpt lat="46.14158478751577" lon="9.293869409471577"><ele>213.0</ele><time>2026-05-02T12:15:53Z</time></trkpt><trkpt lat="46.14148102825321" lon="9.293654543555851"><ele>212.0</ele><time>2026-05-02T12:15:54Z</time></trkpt><trkpt lat="46.141374450533405" lon="9.293441161028245"><ele>211.0</ele><time>2026-05-02T12:15:55Z</time></trkpt><trkpt lat="46.141285257640135" lon="9.293241802157072"><ele>211.0</ele><time>2026-05-02T12:15:56Z</time></trkpt><trkpt lat="46.14118551938962" lon="9.293052769165506"><ele>211.0</ele><time>2026-05-02T12:15:57Z</time></trkpt><trkpt lat="46.14110100986265" lon="9.292876490738442"><ele>211.0</ele><time>2026-05-02T12:15:58Z</time></trkpt><trkpt lat="46.14101260232875" lon="9.292702548437921"><ele>211.0</ele><time>2026-05-02T12:15:58.999Z</time></trkpt><trkpt lat="46.14093742966392" lon="9.292533375687949"><ele>211.0</ele><time>2026-05-02T12:15:59.999Z</time></trkpt><trkpt lat="46.140869673826266" lon="9.292375264384159"><ele>211.0</ele><time>2026-05-02T12:16:00.999Z</time></trkpt><trkpt lat="46.14079843169845" lon="9.292234093057226"><ele>211.0</ele><time>2026-05-02T12:16:01.999Z</time></trkpt><trkpt lat="46.140698364894256" lon="9.292085316937817"><ele>210.5</ele><time>2026-05-02T12:16:02.999Z</time></trkpt><trkpt lat="46.140593132107824" lon="9.291947173293895"><ele>210.0</ele><time>2026-05-02T12:16:03.999Z</time></trkpt><trkpt lat="46.140487119864446" lon="9.291817226768035"><ele>209.5</ele><time>2026-05-02T12:16:04.999Z</time></trkpt><trkpt lat="46.14037142527555" lon="9.291706385375138"><ele>209.0</ele><time>2026-05-02T12:16:05.999Z</time></trkpt><trkpt lat="46.14025514335465" lon="9.291607819568883"><ele>209.0</ele><time>2026-05-02T12:16:06.999Z</time></trkpt><trkpt lat="46.14011669498524" lon="9.291480800847067"><ele>209.0</ele><time>2026-05-02T12:16:07.999Z</time></trkpt><trkpt lat="46.139965284699166" lon="9.291340957881612"><ele>209.0</ele><time>2026-05-02T12:16:08.999Z</time></trkpt><trkpt lat="46.13981083249851" lon="9.291199147052666"><ele>208.0</ele><time>2026-05-02T12:16:09.999Z</time></trkpt><trkpt lat="46.139652690066356" lon="9.291063194900671"><ele>207.0</ele><time>2026-05-02T12:16:10.999Z</time></trkpt><trkpt lat="46.13948466721754" lon="9.290942159795188"><ele>206.0</ele><time>2026-05-02T12:16:11.999Z</time></trkpt><trkpt lat="46.139329118528615" lon="9.29082232590064"><ele>206.0</ele><time>2026-05-02T12:16:12.999Z</time></trkpt><trkpt lat="46.139190158677046" lon="9.290704540745951"><ele>206.0</ele><time>2026-05-02T12:16:13.999Z</time></trkpt><trkpt lat="46.13905632304319" lon="9.290596815183502"><ele>206.0</ele><time>2026-05-02T12:16:14.999Z</time></trkpt><trkpt lat="46.138927564503625" lon="9.290476608215814"><ele>205.33333333333334</ele><time>2026-05-02T12:16:15.999Z</time></trkpt><trkpt lat="46.13881602676702" lon="9.29034883580941"><ele>204.66666666666669</ele><time>2026-05-02T12:16:16.999Z</time></trkpt><trkpt lat="46.138658960328854" lon="9.29022857366665"><ele>204.0</ele><time>2026-05-02T12:16:17.999Z</time></trkpt><trkpt lat="46.138515028571675" lon="9.290106588938375"><ele>204.0</ele><time>2026-05-02T12:16:18.999Z</time></trkpt><trkpt lat="46.13837938878517" lon="9.289989235538725"><ele>204.0</ele><time>2026-05-02T12:16:19.999Z</time></trkpt><trkpt lat="46.13823146572509" lon="9.289872519390157"><ele>204.0</ele><time>2026-05-02T12:16:21Z</time></trkpt><trkpt lat="46.13808372257083" lon="9.289750301597696"><ele>203.33333333333331</ele><time>2026-05-02T12:16:22Z</time></trkpt><trkpt lat="46.1379482723841" lon="9.289608543632477"><ele>202.66666666666666</ele><time>2026-05-02T12:16:23Z</time></trkpt><trkpt lat="46.137802316418586" lon="9.289471884106323"><ele>202.0</ele><time>2026-05-02T12:16:24Z</time></trkpt><trkpt lat="46.137647193630045" lon="9.28934374735858"><ele>202.0</ele><time>2026-05-02T12:16:25Z</time></trkpt><trkpt lat="46.137497495776685" lon="9.28921992456471"><ele>202.0</ele><time>2026-05-02T12:16:26Z</time></trkpt><trkpt lat="46.13736212213637" lon="9.289111800482463"><ele>202.0</ele><time>2026-05-02T12:16:27Z</time></trkpt><trkpt lat="46.137240548390565" lon="9.28901242886807"><ele>203.25</ele><time>2026-05-02T12:16:28Z</time></trkpt><trkpt lat="46.13712674546753" lon="9.288912477707395"><ele>204.5</ele><time>2026-05-02T12:16:29Z</time></trkpt><trkpt lat="46.13701341631999" lon="9.288816469768477"><ele>205.75</ele><time>2026-05-02T12:16:30Z</time></trkpt><trkpt lat="46.13690645947778" lon="9.288727273146641"><ele>207.0</ele><time>2026-05-02T12:16:31Z</time></trkpt><trkpt lat="46.13680401841011" lon="9.288641692888024"><ele>207.0</ele><time>2026-05-02T12:16:32Z</time></trkpt><trkpt lat="46.13671080049028" lon="9.288545699191873"><ele>207.0</ele><time>2026-05-02T12:16:33Z</time></trkpt><trkpt lat="46.13660650863327" lon="9.28847063901922"><ele>207.0</ele><time>2026-05-02T12:16:34Z</time></trkpt><trkpt lat="46.13650856392548" lon="9.288387653811924"><ele>207.0</ele><time>2026-05-02T12:16:35Z</time></trkpt><trkpt lat="46.13642069887061" lon="9.288311671220482"><ele>207.0</ele><time>2026-05-02T12:16:36Z</time></trkpt><trkpt lat="46.136340244405" lon="9.288243689582554"><ele>206.66666666666666</ele><time>2026-05-02T12:16:37Z</time></trkpt><trkpt lat="46.136257923731065" lon="9.288177074083531"><ele>206.33333333333331</ele><time>2026-05-02T12:16:38Z</time></trkpt><trkpt lat="46.13618360158359" lon="9.288120382879024"><ele>206.0</ele><time>2026-05-02T12:16:39Z</time></trkpt><trkpt lat="46.136110281999024" lon="9.288061607124206"><ele>205.66666666666666</ele><time>2026-05-02T12:16:40Z</time></trkpt><trkpt lat="46.136043137111905" lon="9.288013889499949"><ele>205.33333333333331</ele><time>2026-05-02T12:16:41Z</time></trkpt><trkpt lat="46.13598986377581" lon="9.287960653603939"><ele>205.0</ele><time>2026-05-02T12:16:42Z</time></trkpt><trkpt lat="46.13587732630704" lon="9.28788032750805"><ele>204.99999999999997</ele><time>2026-05-02T12:16:44Z</time></trkpt><trkpt lat="46.13577936349123" lon="9.287799464286728"><ele>205.0</ele><time>2026-05-02T12:16:46Z</time></trkpt><trkpt lat="46.13572585217294" lon="9.287750658223434"><ele>205.0</ele><time>2026-05-02T12:16:47Z</time></trkpt><trkpt lat="46.13566987864016" lon="9.287703072727085"><ele>205.0</ele><time>2026-05-02T12:16:48Z</time></trkpt><trkpt lat="46.13560603708213" lon="9.28765448610425"><ele>204.99999999999997</ele><time>2026-05-02T12:16:49Z</time></trkpt><trkpt lat="46.13550564178196" lon="9.287594296751713"><ele>205.0</ele><time>2026-05-02T12:16:51Z</time></trkpt><trkpt lat="46.135436872786315" lon="9.287554575374276"><ele>204.99999999999997</ele><time>2026-05-02T12:16:54Z</time></trkpt><trkpt lat="46.13537836267113" lon="9.287504043001745"><ele>205.0</ele><time>2026-05-02T12:16:58Z</time></trkpt><trkpt lat="46.135313919598616" lon="9.287420288208457"><ele>205.0</ele><time>2026-05-02T12:17:01Z</time></trkpt><trkpt lat="46.13523973445327" lon="9.287320138177492"><ele>205.0</ele><time>2026-05-02T12:17:03Z</time></trkpt><trkpt lat="46.135163696833594" lon="9.287279433710946"><ele>204.99999999999997</ele><time>2026-05-02T12:17:04Z</time></trkpt><trkpt lat="46.135083408012775" lon="9.287230846828871"><ele>205.0</ele><time>2026-05-02T12:17:05Z</time></trkpt><trkpt lat="46.13499824844652" lon="9.287179512329985"><ele>205.0</ele><time>2026-05-02T12:17:06Z</time></trkpt><trkpt lat="46.13490252402016" lon="9.287099758941626"><ele>205.0</ele><time>2026-05-02T12:17:07Z</time></trkpt><trkpt lat="46.13477333859668" lon="9.287017271565258"><ele>205.0</ele><time>2026-05-02T12:17:08Z</time></trkpt><trkpt lat="46.13464689603619" lon="9.2869616534912"><ele>205.0</ele><time>2026-05-02T12:17:09Z</time></trkpt><trkpt lat="46.13452981174606" lon="9.28691589637336"><ele>205.0</ele><time>2026-05-02T12:17:10Z</time></trkpt><trkpt lat="46.13441991410622" lon="9.2868835563036"><ele>205.0</ele><time>2026-05-02T12:17:11Z</time></trkpt><trkpt lat="46.134330550858266" lon="9.28684375160615"><ele>205.0</ele><time>2026-05-02T12:17:12Z</time></trkpt><trkpt lat="46.13423567341972" lon="9.28681287743869"><ele>205.0</ele><time>2026-05-02T12:17:13Z</time></trkpt><trkpt lat="46.1341222308161" lon="9.286777488447743"><ele>205.0</ele><time>2026-05-02T12:17:14Z</time></trkpt><trkpt lat="46.133991768830064" lon="9.286748393166103"><ele>205.66666666666666</ele><time>2026-05-02T12:17:15Z</time></trkpt><trkpt lat="46.13384927552131" lon="9.286721910313494"><ele>206.33333333333331</ele><time>2026-05-02T12:17:16Z</time></trkpt><trkpt lat="46.13369917460007" lon="9.286710436848749"><ele>207.0</ele><time>2026-05-02T12:17:17Z</time></trkpt><trkpt lat="46.13354094578368" lon="9.286707171178408"><ele>207.0</ele><time>2026-05-02T12:17:18Z</time></trkpt><trkpt lat="46.133377492724485" lon="9.286676083417786"><ele>207.0</ele><time>2026-05-02T12:17:19Z</time></trkpt><trkpt lat="46.13319239913086" lon="9.286647375085813"><ele>207.0</ele><time>2026-05-02T12:17:20Z</time></trkpt><trkpt lat="46.13302268198369" lon="9.286627841101438"><ele>207.0</ele><time>2026-05-02T12:17:21Z</time></trkpt><trkpt lat="46.132862995226944" lon="9.286608249009236"><ele>207.0</ele><time>2026-05-02T12:17:22Z</time></trkpt><trkpt lat="46.1326711928964" lon="9.286592259660738"><ele>207.0</ele><time>2026-05-02T12:17:23Z</time></trkpt><trkpt lat="46.132491229323215" lon="9.286547735271814"><ele>207.25</ele><time>2026-05-02T12:17:24Z</time></trkpt><trkpt lat="46.13228523718237" lon="9.286525037801391"><ele>207.5</ele><time>2026-05-02T12:17:25Z</time></trkpt><trkpt lat="46.132353478576" lon="9.286520755733749"><ele>207.75</ele><time>2026-05-02T12:17:26Z</time></trkpt><trkpt lat="46.132242049943976" lon="9.286503110537762"><ele>208.0</ele><time>2026-05-02T12:17:27Z</time></trkpt><trkpt lat="46.13212707599303" lon="9.286498572988982"><ele>208.0</ele><time>2026-05-02T12:17:28Z</time></trkpt><trkpt lat="46.13198941922069" lon="9.286483777498267"><ele>208.0</ele><time>2026-05-02T12:17:29Z</time></trkpt><trkpt lat="46.131841980466945" lon="9.286467907093298"><ele>208.0</ele><time>2026-05-02T12:17:30Z</time></trkpt><trkpt lat="46.1316870674344" lon="9.286450045034993"><ele>208.0</ele><time>2026-05-02T12:17:31Z</time></trkpt><trkpt lat="46.131547846992746" lon="9.2864272774726"><ele>207.5</ele><time>2026-05-02T12:17:32Z</time></trkpt><trkpt lat="46.13142242004599" lon="9.286402993943863"><ele>207.0</ele><time>2026-05-02T12:17:33Z</time></trkpt><trkpt lat="46.131308327076106" lon="9.286384648916325"><ele>206.5</ele><time>2026-05-02T12:17:34Z</time></trkpt><trkpt lat="46.13119904711092" lon="9.286361218942263"><ele>206.0</ele><time>2026-05-02T12:17:35Z</time></trkpt><trkpt lat="46.131093693407195" lon="9.286340801588603"><ele>206.0</ele><time>2026-05-02T12:17:36Z</time></trkpt><trkpt lat="46.13097528053638" lon="9.28630574623929"><ele>206.0</ele><time>2026-05-02T12:17:37Z</time></trkpt><trkpt lat="46.13085296296061" lon="9.28626555235913"><ele>206.0</ele><time>2026-05-02T12:17:38Z</time></trkpt><trkpt lat="46.130732837663444" lon="9.286218457319805"><ele>206.0</ele><time>2026-05-02T12:17:39Z</time></trkpt><trkpt lat="46.13060793353439" lon="9.28617458571227"><ele>205.75</ele><time>2026-05-02T12:17:40Z</time></trkpt><trkpt lat="46.13048836224854" lon="9.286141261908478"><ele>205.5</ele><time>2026-05-02T12:17:41Z</time></trkpt><trkpt lat="46.1303693194214" lon="9.286100491243559"><ele>205.25</ele><time>2026-05-02T12:17:42Z</time></trkpt><trkpt lat="46.13024835413771" lon="9.28605127230203"><ele>205.0</ele><time>2026-05-02T12:17:43Z</time></trkpt><trkpt lat="46.13012516458372" lon="9.28600678650365"><ele>205.0</ele><time>2026-05-02T12:17:44Z</time></trkpt><trkpt lat="46.13000184334333" lon="9.285948601514457"><ele>205.0</ele><time>2026-05-02T12:17:45Z</time></trkpt><trkpt lat="46.129875731656725" lon="9.285878312458971"><ele>205.0</ele><time>2026-05-02T12:17:46Z</time></trkpt><trkpt lat="46.12974830016558" lon="9.285798332161786"><ele>205.0</ele><time>2026-05-02T12:17:47Z</time></trkpt><trkpt lat="46.12963560506918" lon="9.285685117875264"><ele>204.75</ele><time>2026-05-02T12:17:48Z</time></trkpt><trkpt lat="46.129530319823374" lon="9.285585785108786"><ele>204.5</ele><time>2026-05-02T12:17:49Z</time></trkpt><trkpt lat="46.12943041612446" lon="9.285473583079163"><ele>204.25</ele><time>2026-05-02T12:17:50Z</time></trkpt><trkpt lat="46.12931534879634" lon="9.28538216641674"><ele>204.0</ele><time>2026-05-02T12:17:51Z</time></trkpt><trkpt lat="46.12919685129271" lon="9.285283317228972"><ele>204.0</ele><time>2026-05-02T12:17:52Z</time></trkpt><trkpt lat="46.12908591516965" lon="9.28518750994"><ele>204.0</ele><time>2026-05-02T12:17:53Z</time></trkpt><trkpt lat="46.128982380810484" lon="9.285102572564828"><ele>204.0</ele><time>2026-05-02T12:17:54Z</time></trkpt><trkpt lat="46.12887713678791" lon="9.285013996193252"><ele>204.0</ele><time>2026-05-02T12:17:55Z</time></trkpt><trkpt lat="46.12877796823728" lon="9.284930354423171"><ele>203.5</ele><time>2026-05-02T12:17:56Z</time></trkpt><trkpt lat="46.12868084070063" lon="9.2848487241479"><ele>203.0</ele><time>2026-05-02T12:17:57Z</time></trkpt><trkpt lat="46.1285747302702" lon="9.284766351415852"><ele>202.5</ele><time>2026-05-02T12:17:58Z</time></trkpt><trkpt lat="46.12847093229721" lon="9.284661046975652"><ele>202.0</ele><time>2026-05-02T12:17:59Z</time></trkpt><trkpt lat="46.12833420731868" lon="9.284569993523753"><ele>203.0</ele><time>2026-05-02T12:18:00Z</time></trkpt><trkpt lat="46.128214767697806" lon="9.28442459922038"><ele>204.0</ele><time>2026-05-02T12:18:01Z</time></trkpt><trkpt lat="46.12809909743832" lon="9.284272161089387"><ele>205.0</ele><time>2026-05-02T12:18:02Z</time></trkpt><trkpt lat="46.12797297743869" lon="9.28417881222242"><ele>205.0</ele><time>2026-05-02T12:18:03Z</time></trkpt><trkpt lat="46.12784897766957" lon="9.284071910123089"><ele>205.0</ele><time>2026-05-02T12:18:04Z</time></trkpt><trkpt lat="46.127697052623624" lon="9.283940781858115"><ele>205.0</ele><time>2026-05-02T12:18:05Z</time></trkpt><trkpt lat="46.12756975466318" lon="9.283835486686478"><ele>205.4</ele><time>2026-05-02T12:18:06Z</time></trkpt><trkpt lat="46.127457443108966" lon="9.28371401042314"><ele>205.8</ele><time>2026-05-02T12:18:07Z</time></trkpt><trkpt lat="46.12739009251722" lon="9.283582551521803"><ele>206.2</ele><time>2026-05-02T12:18:08Z</time></trkpt><trkpt lat="46.12736017465773" lon="9.283446527661885"><ele>206.6</ele><time>2026-05-02T12:18:09Z</time></trkpt><trkpt lat="46.12733775235862" lon="9.283324433145518"><ele>207.0</ele><time>2026-05-02T12:18:10Z</time></trkpt><trkpt lat="46.12730985658629" lon="9.283217113081296"><ele>207.0</ele><time>2026-05-02T12:18:11Z</time></trkpt><trkpt lat="46.12728320634184" lon="9.283126254417775"><ele>207.0</ele><time>2026-05-02T12:18:12Z</time></trkpt><trkpt lat="46.12724819063237" lon="9.283019800758526"><ele>207.0</ele><time>2026-05-02T12:18:14Z</time></trkpt><trkpt lat="46.12720626978487" lon="9.282892601370214"><ele>207.0</ele><time>2026-05-02T12:18:16.999Z</time></trkpt><trkpt lat="46.12718690401295" lon="9.282772769546071"><ele>207.0</ele><time>2026-05-02T12:18:19.999Z</time></trkpt><trkpt lat="46.12718110459744" lon="9.282646246012934"><ele>207.0</ele><time>2026-05-02T12:18:21.999Z</time></trkpt><trkpt lat="46.127144562489434" lon="9.2825020069586"><ele>207.6</ele><time>2026-05-02T12:18:23.999Z</time></trkpt><trkpt lat="46.12703495199909" lon="9.282358438398589"><ele>208.2</ele><time>2026-05-02T12:18:25.999Z</time></trkpt><trkpt lat="46.126969073331644" lon="9.282273225924198"><ele>208.8</ele><time>2026-05-02T12:18:27Z</time></trkpt><trkpt lat="46.12689647263337" lon="9.28218987611083"><ele>209.4</ele><time>2026-05-02T12:18:28Z</time></trkpt><trkpt lat="46.12681398738847" lon="9.28211230309323"><ele>210.0</ele><time>2026-05-02T12:18:29Z</time></trkpt><trkpt lat="46.1267252140087" lon="9.282058436613081"><ele>210.2</ele><time>2026-05-02T12:18:30Z</time></trkpt><trkpt lat="46.12663952959499" lon="9.281985139652434"><ele>210.4</ele><time>2026-05-02T12:18:31Z</time></trkpt><trkpt lat="46.12654621103109" lon="9.281915773943336"><ele>210.60000000000002</ele><time>2026-05-02T12:18:32Z</time></trkpt><trkpt lat="46.12645921347576" lon="9.28184092163969"><ele>210.8</ele><time>2026-05-02T12:18:33Z</time></trkpt><trkpt lat="46.12637950636091" lon="9.281757610554981"><ele>211.0</ele><time>2026-05-02T12:18:34Z</time></trkpt><trkpt lat="46.126281559102665" lon="9.281694150515436"><ele>210.60000000000002</ele><time>2026-05-02T12:18:35Z</time></trkpt><trkpt lat="46.12618301224306" lon="9.281629119275607"><ele>210.2</ele><time>2026-05-02T12:18:36Z</time></trkpt><trkpt lat="46.126099989433435" lon="9.28157120023875"><ele>209.8</ele><time>2026-05-02T12:18:37Z</time></trkpt><trkpt lat="46.12603188397412" lon="9.281518036959469"><ele>209.39999999999998</ele><time>2026-05-02T12:18:38Z</time></trkpt><trkpt lat="46.12596333458737" lon="9.281481805333359"><ele>209.0</ele><time>2026-05-02T12:18:39Z</time></trkpt><trkpt lat="46.12586439482535" lon="9.281418132995016"><ele>209.00000000000003</ele><time>2026-05-02T12:18:41Z</time></trkpt><trkpt lat="46.125788483175874" lon="9.281376299549926"><ele>209.0</ele><time>2026-05-02T12:18:43Z</time></trkpt><trkpt lat="46.12571274859904" lon="9.2813244308672"><ele>209.0</ele><time>2026-05-02T12:18:45Z</time></trkpt><trkpt lat="46.12559624985347" lon="9.281261873690505"><ele>209.0</ele><time>2026-05-02T12:18:47Z</time></trkpt><trkpt lat="46.12553113371009" lon="9.281245012726865"><ele>209.00000000000003</ele><time>2026-05-02T12:18:48Z</time></trkpt><trkpt lat="46.12545928108164" lon="9.281233896280854"><ele>209.0</ele><time>2026-05-02T12:18:49Z</time></trkpt><trkpt lat="46.12537740473394" lon="9.281251335082763"><ele>208.5</ele><time>2026-05-02T12:18:50Z</time></trkpt><trkpt lat="46.12527600163999" lon="9.2813013163485"><ele>208.0</ele><time>2026-05-02T12:18:51Z</time></trkpt><trkpt lat="46.12517241065823" lon="9.281363101556495"><ele>207.5</ele><time>2026-05-02T12:18:52Z</time></trkpt><trkpt lat="46.125074552140696" lon="9.281420331009128"><ele>207.0</ele><time>2026-05-02T12:18:53Z</time></trkpt><trkpt lat="46.12495324358456" lon="9.28148425178869"><ele>206.66666666666669</ele><time>2026-05-02T12:18:54Z</time></trkpt><trkpt lat="46.12481000397845" lon="9.281543463244047"><ele>206.33333333333334</ele><time>2026-05-02T12:18:55Z</time></trkpt><trkpt lat="46.124656347423574" lon="9.281616661516903"><ele>206.0</ele><time>2026-05-02T12:18:56Z</time></trkpt><trkpt lat="46.12451128032988" lon="9.281696336239206"><ele>206.0</ele><time>2026-05-02T12:18:57Z</time></trkpt><trkpt lat="46.12437986775273" lon="9.281780598876413"><ele>206.0</ele><time>2026-05-02T12:18:58Z</time></trkpt><trkpt lat="46.124233793661524" lon="9.281858813533539"><ele>206.0</ele><time>2026-05-02T12:18:59Z</time></trkpt><trkpt lat="46.124100696442845" lon="9.281932404763108"><ele>206.0</ele><time>2026-05-02T12:19:00Z</time></trkpt><trkpt lat="46.12397552655022" lon="9.281999112455852"><ele>206.25</ele><time>2026-05-02T12:19:01Z</time></trkpt><trkpt lat="46.123853665106004" lon="9.28206569538287"><ele>206.5</ele><time>2026-05-02T12:19:02Z</time></trkpt><trkpt lat="46.12373180984142" lon="9.282128040032354"><ele>206.75</ele><time>2026-05-02T12:19:03Z</time></trkpt><trkpt lat="46.1236255102039" lon="9.282174157040423"><ele>207.0</ele><time>2026-05-02T12:19:04Z</time></trkpt><trkpt lat="46.12352899197245" lon="9.282168747029804"><ele>207.0</ele><time>2026-05-02T12:19:05Z</time></trkpt><trkpt lat="46.12344814740679" lon="9.282072722403825"><ele>207.0</ele><time>2026-05-02T12:19:06Z</time></trkpt><trkpt lat="46.12338128901989" lon="9.281930203889516"><ele>207.0</ele><time>2026-05-02T12:19:07Z</time></trkpt><trkpt lat="46.123321233592414" lon="9.281758877550283"><ele>207.0</ele><time>2026-05-02T12:19:08Z</time></trkpt><trkpt lat="46.12325565112788" lon="9.281579022777528"><ele>206.2</ele><time>2026-05-02T12:19:09Z</time></trkpt><trkpt lat="46.123190880622786" lon="9.281416964177478"><ele>205.39999999999998</ele><time>2026-05-02T12:19:10Z</time></trkpt><trkpt lat="46.1231366272169" lon="9.281284222584283"><ele>204.60000000000002</ele><time>2026-05-02T12:19:11Z</time></trkpt><trkpt lat="46.123093902567554" lon="9.281176845023767"><ele>203.8</ele><time>2026-05-02T12:19:12Z</time></trkpt><trkpt lat="46.12305849001236" lon="9.281087016003584"><ele>203.0</ele><time>2026-05-02T12:19:13Z</time></trkpt><trkpt lat="46.12300721026231" lon="9.281001996523063"><ele>203.00000000000003</ele><time>2026-05-02T12:19:14Z</time></trkpt><trkpt lat="46.12299093547996" lon="9.280889489262215"><ele>203.0</ele><time>2026-05-02T12:19:15Z</time></trkpt><trkpt lat="46.12295827130763" lon="9.280796052497323"><ele>203.0</ele><time>2026-05-02T12:19:16Z</time></trkpt><trkpt lat="46.12290267991203" lon="9.280629466909097"><ele>203.0</ele><time>2026-05-02T12:19:18Z</time></trkpt><trkpt lat="46.12286890138793" lon="9.280550837299657"><ele>203.00000000000003</ele><time>2026-05-02T12:19:19Z</time></trkpt><trkpt lat="46.12284472897492" lon="9.28045774193972"><ele>203.0</ele><time>2026-05-02T12:19:20Z</time></trkpt><trkpt lat="46.12281109860626" lon="9.280367546134379"><ele>202.85714285714286</ele><time>2026-05-02T12:19:21Z</time></trkpt><trkpt lat="46.122780772997096" lon="9.280277975810266"><ele>202.71428571428572</ele><time>2026-05-02T12:19:22Z</time></trkpt><trkpt lat="46.12274385118849" lon="9.28017641139788"><ele>202.57142857142856</ele><time>2026-05-02T12:19:23Z</time></trkpt><trkpt lat="46.122717601532486" lon="9.280093801315434"><ele>202.42857142857144</ele><time>2026-05-02T12:19:24Z</time></trkpt><trkpt lat="46.12268401306492" lon="9.280013357756898"><ele>202.28571428571428</ele><time>2026-05-02T12:19:25Z</time></trkpt><trkpt lat="46.1226550542543" lon="9.279923988039085"><ele>202.14285714285714</ele><time>2026-05-02T12:19:26Z</time></trkpt><trkpt lat="46.12262283391804" lon="9.279826400541058"><ele>202.0</ele><time>2026-05-02T12:19:27Z</time></trkpt><trkpt lat="46.12258552446336" lon="9.279735775208703"><ele>202.8</ele><time>2026-05-02T12:19:28Z</time></trkpt><trkpt lat="46.12254200474978" lon="9.279647661737087"><ele>203.6</ele><time>2026-05-02T12:19:29Z</time></trkpt><trkpt lat="46.122486492901366" lon="9.27953174376487"><ele>204.4</ele><time>2026-05-02T12:19:30Z</time></trkpt><trkpt lat="46.12243389832585" lon="9.279416375004974"><ele>205.20000000000002</ele><time>2026-05-02T12:19:31Z</time></trkpt><trkpt lat="46.12237064741833" lon="9.279313698382893"><ele>206.0</ele><time>2026-05-02T12:19:32Z</time></trkpt><trkpt lat="46.12229798593336" lon="9.27921702842328"><ele>206.16666666666669</ele><time>2026-05-02T12:19:33Z</time></trkpt><trkpt lat="46.122209278149526" lon="9.279147914137718"><ele>206.33333333333334</ele><time>2026-05-02T12:19:34Z</time></trkpt><trkpt lat="46.122129915173986" lon="9.279097945673858"><ele>206.5</ele><time>2026-05-02T12:19:35Z</time></trkpt><trkpt lat="46.12204625413518" lon="9.279072649972075"><ele>206.66666666666669</ele><time>2026-05-02T12:19:36Z</time></trkpt><trkpt lat="46.12196607512074" lon="9.279066444800263"><ele>206.83333333333334</ele><time>2026-05-02T12:19:37Z</time></trkpt><trkpt lat="46.121897128747285" lon="9.27903983690461"><ele>207.0</ele><time>2026-05-02T12:19:38Z</time></trkpt><trkpt lat="46.121815477500725" lon="9.279044582920626"><ele>207.0</ele><time>2026-05-02T12:19:40Z</time></trkpt><trkpt lat="46.121657534922306" lon="9.279079679266959"><ele>207.0</ele><time>2026-05-02T12:34:21Z</time></trkpt><trkpt lat="46.12156857340095" lon="9.279128221615393"><ele>207.0</ele><time>2026-05-02T12:34:22Z</time></trkpt><trkpt lat="46.121489892534996" lon="9.27919474710066"><ele>207.0</ele><time>2026-05-02T12:34:23Z</time></trkpt><trkpt lat="46.12142712188054" lon="9.279266876123055"><ele>207.0</ele><time>2026-05-02T12:34:24Z</time></trkpt><trkpt lat="46.12132815128649" lon="9.27938835033242"><ele>215.0</ele><time>2026-05-02T12:34:25Z</time></trkpt><trkpt lat="46.121177997784436" lon="9.279541688232918"><ele>223.0</ele><time>2026-05-02T12:34:26Z</time></trkpt><trkpt lat="46.121084342259564" lon="9.279620772226718"><ele>231.0</ele><time>2026-05-02T12:34:29Z</time></trkpt><trkpt lat="46.120998380036355" lon="9.27964334921791"><ele>239.0</ele><time>2026-05-02T12:34:30Z</time></trkpt><trkpt lat="46.12092348326155" lon="9.279632125059972"><ele>239.00000000000003</ele><time>2026-05-02T12:34:31Z</time></trkpt><trkpt lat="46.12084180420552" lon="9.279613322620884"><ele>239.0</ele><time>2026-05-02T12:34:32Z</time></trkpt><trkpt lat="46.12075274431466" lon="9.279602906032151"><ele>239.0</ele><time>2026-05-02T12:34:33Z</time></trkpt><trkpt lat="46.12067203669674" lon="9.27960366621609"><ele>239.0</ele><time>2026-05-02T12:34:34Z</time></trkpt><trkpt lat="46.12058553593571" lon="9.27962180825809"><ele>239.00000000000003</ele><time>2026-05-02T12:34:35Z</time></trkpt><trkpt lat="46.12048657880089" lon="9.279656265948741"><ele>239.0</ele><time>2026-05-02T12:34:36Z</time></trkpt><trkpt lat="46.120391973918665" lon="9.279705010508831"><ele>235.79999999999998</ele><time>2026-05-02T12:34:37Z</time></trkpt><trkpt lat="46.120297523131" lon="9.279751201089397"><ele>232.59999999999997</ele><time>2026-05-02T12:34:38Z</time></trkpt><trkpt lat="46.1202074684911" lon="9.279792273990992"><ele>229.4</ele><time>2026-05-02T12:34:39Z</time></trkpt><trkpt lat="46.12012265918588" lon="9.279815627280856"><ele>226.2</ele><time>2026-05-02T12:34:40Z</time></trkpt><trkpt lat="46.12003141716634" lon="9.279821014258339"><ele>223.0</ele><time>2026-05-02T12:34:41Z</time></trkpt><trkpt lat="46.119943038102136" lon="9.27979412995733"><ele>227.16666666666666</ele><time>2026-05-02T12:34:42Z</time></trkpt><trkpt lat="46.119847478726506" lon="9.279769604405107"><ele>231.33333333333331</ele><time>2026-05-02T12:34:43Z</time></trkpt><trkpt lat="46.11977900742873" lon="9.279751800828455"><ele>235.5</ele><time>2026-05-02T12:34:44Z</time></trkpt><trkpt lat="46.11969376711913" lon="9.279743628681373"><ele>239.66666666666669</ele><time>2026-05-02T12:34:44.999Z</time></trkpt><trkpt lat="46.11960673156612" lon="9.279734969785663"><ele>243.83333333333334</ele><time>2026-05-02T12:34:46.018Z</time></trkpt><trkpt lat="46.119520486025905" lon="9.279723776171345"><ele>248.0</ele><time>2026-05-02T12:34:47.013Z</time></trkpt><trkpt lat="46.119434778551685" lon="9.279714500662836"><ele>260.33333333333337</ele><time>2026-05-02T12:34:48.012Z</time></trkpt><trkpt lat="46.11934942754685" lon="9.27970560783159"><ele>272.6666666666667</ele><time>2026-05-02T12:34:49.009Z</time></trkpt><trkpt lat="46.119262959697906" lon="9.279696277064216"><ele>285.0</ele><time>2026-05-02T12:34:50.017Z</time></trkpt><trkpt lat="46.11895064875807" lon="9.279708692338655"><ele>285.0</ele><time>2026-05-02T12:34:53.696Z</time></trkpt><trkpt lat="46.11887728257101" lon="9.27964019202013"><ele>285.0</ele><time>2026-05-02T12:34:54.697Z</time></trkpt><trkpt lat="46.1187930288963" lon="9.279609427976679"><ele>285.0</ele><time>2026-05-02T12:34:55.697Z</time></trkpt><trkpt lat="46.11871779915222" lon="9.279549558311091"><ele>285.0</ele><time>2026-05-02T12:34:56.698Z</time></trkpt><trkpt lat="46.1186457516381" lon="9.2794819659581"><ele>285.0</ele><time>2026-05-02T12:34:57.698Z</time></trkpt><trkpt lat="46.118584589617065" lon="9.279391741674916"><ele>285.0</ele><time>2026-05-02T12:34:58.697Z</time></trkpt><trkpt lat="46.11851392637123" lon="9.27932116842842"><ele>285.0</ele><time>2026-05-02T12:34:59.697Z</time></trkpt><trkpt lat="46.118436487265484" lon="9.279265220949817"><ele>285.0</ele><time>2026-05-02T12:35:00.696Z</time></trkpt><trkpt lat="46.1183707938216" lon="9.279185104982197"><ele>285.0</ele><time>2026-05-02T12:35:01.697Z</time></trkpt><trkpt lat="46.11830885977505" lon="9.27909944344918"><ele>285.0</ele><time>2026-05-02T12:35:02.696Z</time></trkpt><trkpt lat="46.118248733111756" lon="9.279010635376682"><ele>285.0</ele><time>2026-05-02T12:35:03.698Z</time></trkpt><trkpt lat="46.11818873918626" lon="9.278922090176023"><ele>285.0</ele><time>2026-05-02T12:35:04.697Z</time></trkpt><trkpt lat="46.11812853011355" lon="9.278833722180602"><ele>285.1666666666667</ele><time>2026-05-02T12:35:05.697Z</time></trkpt><trkpt lat="46.118068311351124" lon="9.278745339963711"><ele>285.3333333333333</ele><time>2026-05-02T12:35:06.698Z</time></trkpt><trkpt lat="46.118019993221736" lon="9.27864022565758"><ele>285.5</ele><time>2026-05-02T12:35:07.697Z</time></trkpt><trkpt lat="46.11794791307323" lon="9.278568633132153"><ele>285.66666666666663</ele><time>2026-05-02T12:35:08.697Z</time></trkpt><trkpt lat="46.117899578204735" lon="9.27846349593759"><ele>285.8333333333333</ele><time>2026-05-02T12:35:09.697Z</time></trkpt><trkpt lat="46.11782748035734" lon="9.278391875756434"><ele>286.0</ele><time>2026-05-02T12:35:10.697Z</time></trkpt><trkpt lat="46.11777806583546" lon="9.27828778533307"><ele>286.0</ele><time>2026-05-02T12:35:11.697Z</time></trkpt><trkpt lat="46.11770517726424" lon="9.278217838409669"><ele>286.0</ele><time>2026-05-02T12:35:12.697Z</time></trkpt><trkpt lat="46.117644044550346" lon="9.278130950412853"><ele>286.0</ele><time>2026-05-02T12:35:13.696Z</time></trkpt><trkpt lat="46.11758344265145" lon="9.278042778480307"><ele>286.0</ele><time>2026-05-02T12:35:14.699Z</time></trkpt><trkpt lat="46.11753524282505" lon="9.277937712775442"><ele>286.0</ele><time>2026-05-02T12:35:15.698Z</time></trkpt><trkpt lat="46.11747515131719" lon="9.277849144720093"><ele>286.0</ele><time>2026-05-02T12:35:16.698Z</time></trkpt><trkpt lat="46.117415119436444" lon="9.277760664293963"><ele>287.0</ele><time>2026-05-02T12:35:17.697Z</time></trkpt><trkpt lat="46.117355067344945" lon="9.277672154324591"><ele>288.0</ele><time>2026-05-02T12:35:18.697Z</time></trkpt><trkpt lat="46.11729485197284" lon="9.277583600229148"><ele>289.0</ele><time>2026-05-02T12:35:19.697Z</time></trkpt><trkpt lat="46.11722261743103" lon="9.277512015908888"><ele>290.0</ele><time>2026-05-02T12:35:20.698Z</time></trkpt><trkpt lat="46.11716230633715" lon="9.277423733764381"><ele>291.0</ele><time>2026-05-02T12:35:21.698Z</time></trkpt><trkpt lat="46.11710211215953" lon="9.277335622759502"><ele>292.0</ele><time>2026-05-02T12:35:22.697Z</time></trkpt><trkpt lat="46.117041793051776" lon="9.277247328884457"><ele>292.0</ele><time>2026-05-02T12:35:23.697Z</time></trkpt><trkpt lat="46.11699336520151" lon="9.27714228956469"><ele>292.0</ele><time>2026-05-02T12:35:24.697Z</time></trkpt><trkpt lat="46.116933080269945" lon="9.277054046086905"><ele>292.0</ele><time>2026-05-02T12:35:25.697Z</time></trkpt><trkpt lat="46.116861021312516" lon="9.276982718913361"><ele>292.0</ele><time>2026-05-02T12:35:26.696Z</time></trkpt><trkpt lat="46.11681244092981" lon="9.27687745663838"><ele>292.0</ele><time>2026-05-02T12:35:27.698Z</time></trkpt><trkpt lat="46.1167402856081" lon="9.276805988461"><ele>292.0</ele><time>2026-05-02T12:35:28.698Z</time></trkpt><trkpt lat="46.116679998390524" lon="9.276717741266136"><ele>292.0</ele><time>2026-05-02T12:35:29.698Z</time></trkpt><trkpt lat="46.11661986994575" lon="9.276629372909763"><ele>292.0</ele><time>2026-05-02T12:35:30.697Z</time></trkpt><trkpt lat="46.11655973627368" lon="9.276540903145117"><ele>292.0</ele><time>2026-05-02T12:35:31.697Z</time></trkpt><trkpt lat="46.11649960031478" lon="9.276452430016032"><ele>292.0</ele><time>2026-05-02T12:35:32.697Z</time></trkpt><trkpt lat="46.11643951017862" lon="9.276364024302215"><ele>292.0</ele><time>2026-05-02T12:35:33.697Z</time></trkpt><trkpt lat="46.116391274835514" lon="9.276258819760358"><ele>292.0</ele><time>2026-05-02T12:35:34.697Z</time></trkpt><trkpt lat="46.116331044500896" lon="9.276170208028361"><ele>290.8333333333333</ele><time>2026-05-02T12:35:35.698Z</time></trkpt><trkpt lat="46.11627099538098" lon="9.276081862647644"><ele>289.66666666666663</ele><time>2026-05-02T12:35:36.697Z</time></trkpt><trkpt lat="46.116210823669256" lon="9.275993336842163"><ele>288.5</ele><time>2026-05-02T12:35:37.697Z</time></trkpt><trkpt lat="46.116138787866156" lon="9.275921596103615"><ele>287.3333333333333</ele><time>2026-05-02T12:35:38.697Z</time></trkpt><trkpt lat="46.116090487037965" lon="9.275816295399942"><ele>286.1666666666667</ele><time>2026-05-02T12:35:39.698Z</time></trkpt><trkpt lat="46.116030353415" lon="9.275727825731265"><ele>285.0</ele><time>2026-05-02T12:35:40.698Z</time></trkpt><trkpt lat="46.11597018755052" lon="9.275639434936437"><ele>283.3333333333333</ele><time>2026-05-02T12:35:41.697Z</time></trkpt><trkpt lat="46.1159097550523" lon="9.275551376279424"><ele>281.6666666666667</ele><time>2026-05-02T12:35:42.697Z</time></trkpt><trkpt lat="46.115849265349645" lon="9.275463234178792"><ele>280.0</ele><time>2026-05-02T12:35:43.698Z</time></trkpt><trkpt lat="46.11577698924237" lon="9.275391990038884"><ele>278.33333333333337</ele><time>2026-05-02T12:35:44.698Z</time></trkpt><trkpt lat="46.115728462298996" lon="9.275287206903027"><ele>276.6666666666667</ele><time>2026-05-02T12:35:45.697Z</time></trkpt><trkpt lat="46.1156680696624" lon="9.275199206219932"><ele>275.0</ele><time>2026-05-02T12:35:46.697Z</time></trkpt><trkpt lat="46.11559572570933" lon="9.275127856062362"><ele>275.0</ele><time>2026-05-02T12:35:47.698Z</time></trkpt><trkpt lat="46.11553567744226" lon="9.275039613304257"><ele>275.0</ele><time>2026-05-02T12:35:48.696Z</time></trkpt><trkpt lat="46.11548728066179" lon="9.274934273263732"><ele>275.0</ele><time>2026-05-02T12:35:49.698Z</time></trkpt><trkpt lat="46.11542714042145" lon="9.27484589678651"><ele>275.0</ele><time>2026-05-02T12:35:50.697Z</time></trkpt><trkpt lat="46.11536704590479" lon="9.274757585831267"><ele>275.0</ele><time>2026-05-02T12:35:51.696Z</time></trkpt><trkpt lat="46.115306900718515" lon="9.2746692011304"><ele>275.0</ele><time>2026-05-02T12:35:52.695Z</time></trkpt><trkpt lat="46.11524639615253" lon="9.274580850623567"><ele>273.83333333333337</ele><time>2026-05-02T12:35:53.697Z</time></trkpt><trkpt lat="46.11518603544077" lon="9.274492702012926"><ele>272.6666666666667</ele><time>2026-05-02T12:35:54.697Z</time></trkpt><trkpt lat="46.11512573421899" lon="9.274404639818949"><ele>271.5</ele><time>2026-05-02T12:35:55.696Z</time></trkpt><trkpt lat="46.1150534115618" lon="9.27433313153621"><ele>270.3333333333333</ele><time>2026-05-02T12:35:56.698Z</time></trkpt><trkpt lat="46.115004944756414" lon="9.274228242559005"><ele>269.16666666666663</ele><time>2026-05-02T12:35:57.697Z</time></trkpt><trkpt lat="46.114944580778875" lon="9.27414008903096"><ele>268.0</ele><time>2026-05-02T12:35:58.697Z</time></trkpt><trkpt lat="46.11488421425765" lon="9.274051931798413"><ele>268.0</ele><time>2026-05-02T12:35:59.697Z</time></trkpt><trkpt lat="46.114811933750566" lon="9.27398048499683"><ele>268.0</ele><time>2026-05-02T12:36:00.698Z</time></trkpt><trkpt lat="46.11475158985205" lon="9.273892360680653"><ele>268.0</ele><time>2026-05-02T12:36:01.698Z</time></trkpt><trkpt lat="46.11469124383075" lon="9.273804233264439"><ele>268.0</ele><time>2026-05-02T12:36:02.698Z</time></trkpt><trkpt lat="46.11464274198927" lon="9.273699293389155"><ele>268.0</ele><time>2026-05-02T12:36:03.698Z</time></trkpt><trkpt lat="46.11457049101914" lon="9.273627889686876"><ele>268.0</ele><time>2026-05-02T12:36:04.698Z</time></trkpt><trkpt lat="46.11451074034824" lon="9.273539267202521"><ele>270.66666666666663</ele><time>2026-05-02T12:36:05.696Z</time></trkpt><trkpt lat="46.11445107379506" lon="9.273449852605081"><ele>273.3333333333333</ele><time>2026-05-02T12:36:06.697Z</time></trkpt><trkpt lat="46.114391861367494" lon="9.273360269227584"><ele>276.0</ele><time>2026-05-02T12:36:07.696Z</time></trkpt><trkpt lat="46.11433259032328" lon="9.273270597168068"><ele>278.6666666666667</ele><time>2026-05-02T12:36:08.696Z</time></trkpt><trkpt lat="46.11427320938697" lon="9.273180758851145"><ele>281.33333333333337</ele><time>2026-05-02T12:36:09.698Z</time></trkpt><trkpt lat="46.11422460321563" lon="9.273075951949393"><ele>284.0</ele><time>2026-05-02T12:36:10.697Z</time></trkpt><trkpt lat="46.11416349760126" lon="9.27298845229484"><ele>285.6666666666667</ele><time>2026-05-02T12:36:11.696Z</time></trkpt><trkpt lat="46.1140895570436" lon="9.27292026734197"><ele>287.33333333333337</ele><time>2026-05-02T12:36:12.697Z</time></trkpt><trkpt lat="46.11402511168927" lon="9.27283835514834"><ele>289.0</ele><time>2026-05-02T12:36:13.697Z</time></trkpt><trkpt lat="46.113959701985486" lon="9.272758088567116"><ele>290.6666666666667</ele><time>2026-05-02T12:36:14.696Z</time></trkpt><trkpt lat="46.11389290683717" lon="9.272679783322012"><ele>292.3333333333333</ele><time>2026-05-02T12:36:15.698Z</time></trkpt><trkpt lat="46.11382515013132" lon="9.272603659416637"><ele>294.0</ele><time>2026-05-02T12:36:16.698Z</time></trkpt><trkpt lat="46.11376651489923" lon="9.272509779392614"><ele>294.0</ele><time>2026-05-02T12:36:17.698Z</time></trkpt><trkpt lat="46.1136902" lon="9.2724609"><ele>294.0</ele><time>2026-05-02T12:36:18.697Z</time></trkpt><trkpt lat="46.09098466117502" lon="9.278944088154732"><ele>274.25</ele><time>2026-05-02T12:37:19.999Z</time></trkpt><trkpt lat="46.09078221507198" lon="9.278983606453686"><ele>254.5</ele><time>2026-05-02T12:37:20.999Z</time></trkpt><trkpt lat="46.09071888977882" lon="9.279054768768884"><ele>234.75</ele><time>2026-05-02T12:37:21.999Z</time></trkpt><trkpt lat="46.09057415465806" lon="9.27907644835689"><ele>215.0</ele><time>2026-05-02T12:37:22.999Z</time></trkpt><trkpt lat="46.09042144207472" lon="9.279034743600969"><ele>215.0</ele><time>2026-05-02T12:37:23.999Z</time></trkpt><trkpt lat="46.090235659405955" lon="9.278990702843728"><ele>215.0</ele><time>2026-05-02T12:37:24.999Z</time></trkpt><trkpt lat="46.09007367433305" lon="9.278895345114039"><ele>215.0</ele><time>2026-05-02T12:37:25.998Z</time></trkpt><trkpt lat="46.08992822230253" lon="9.278773903418998"><ele>215.33333333333334</ele><time>2026-05-02T12:37:26.998Z</time></trkpt><trkpt lat="46.08977548543898" lon="9.278657493413625"><ele>215.66666666666669</ele><time>2026-05-02T12:37:27.999Z</time></trkpt><trkpt lat="46.08960709423607" lon="9.278575328896176"><ele>216.0</ele><time>2026-05-02T12:37:28.999Z</time></trkpt><trkpt lat="46.08943132150109" lon="9.278529544631594"><ele>216.0</ele><time>2026-05-02T12:37:29.999Z</time></trkpt><trkpt lat="46.08927062225092" lon="9.278450814737738"><ele>216.0</ele><time>2026-05-02T12:37:30.999Z</time></trkpt><trkpt lat="46.089117880211596" lon="9.278362349478396"><ele>216.0</ele><time>2026-05-02T12:37:31.999Z</time></trkpt><trkpt lat="46.088979475804635" lon="9.278230549886773"><ele>215.66666666666669</ele><time>2026-05-02T12:37:32.999Z</time></trkpt><trkpt lat="46.08885072405307" lon="9.27806271593689"><ele>215.33333333333334</ele><time>2026-05-02T12:37:33.999Z</time></trkpt><trkpt lat="46.08876108742444" lon="9.277898104187933"><ele>215.0</ele><time>2026-05-02T12:37:34.999Z</time></trkpt><trkpt lat="46.088633600104814" lon="9.277772159706913"><ele>215.0</ele><time>2026-05-02T12:37:35.999Z</time></trkpt><trkpt lat="46.088556863033716" lon="9.277636579759967"><ele>215.0</ele><time>2026-05-02T12:37:36.999Z</time></trkpt><trkpt lat="46.08848377521406" lon="9.27755442724794"><ele>215.0</ele><time>2026-05-02T12:37:37.999Z</time></trkpt><trkpt lat="46.08840666730998" lon="9.27744659318247"><ele>215.0</ele><time>2026-05-02T12:37:38.999Z</time></trkpt><trkpt lat="46.088327054878086" lon="9.277360160918429"><ele>215.0</ele><time>2026-05-02T12:37:39.999Z</time></trkpt><trkpt lat="46.08823864138719" lon="9.277318050221771"><ele>220.5</ele><time>2026-05-02T12:37:40.999Z</time></trkpt><trkpt lat="46.08814444776382" lon="9.277257918793397"><ele>226.0</ele><time>2026-05-02T12:37:41.999Z</time></trkpt><trkpt lat="46.0880414012396" lon="9.277261157421801"><ele>231.5</ele><time>2026-05-02T12:37:42.999Z</time></trkpt><trkpt lat="46.087919880372326" lon="9.277244530556452"><ele>237.0</ele><time>2026-05-02T12:37:43.999Z</time></trkpt><trkpt lat="46.087785446849345" lon="9.277207553488076"><ele>237.0</ele><time>2026-05-02T12:37:44.999Z</time></trkpt><trkpt lat="46.08764639975616" lon="9.277163712081778"><ele>237.0</ele><time>2026-05-02T12:37:45.999Z</time></trkpt><trkpt lat="46.08749718267684" lon="9.27712615430807"><ele>237.0</ele><time>2026-05-02T12:37:46.999Z</time></trkpt><trkpt lat="46.08735084852814" lon="9.277089058540755"><ele>237.0</ele><time>2026-05-02T12:37:47.999Z</time></trkpt><trkpt lat="46.08719699061645" lon="9.277061364839426"><ele>236.5</ele><time>2026-05-02T12:37:48.999Z</time></trkpt><trkpt lat="46.087051692557104" lon="9.277032070441033"><ele>236.0</ele><time>2026-05-02T12:37:49.999Z</time></trkpt><trkpt lat="46.086913754296894" lon="9.276997102843856"><ele>235.5</ele><time>2026-05-02T12:37:50.999Z</time></trkpt><trkpt lat="46.08677929279015" lon="9.276969784256293"><ele>235.0</ele><time>2026-05-02T12:37:51.999Z</time></trkpt><trkpt lat="46.08662853713406" lon="9.276978853523318"><ele>240.66666666666666</ele><time>2026-05-02T12:37:53Z</time></trkpt><trkpt lat="46.086474390876425" lon="9.277030222659953"><ele>246.33333333333331</ele><time>2026-05-02T12:37:54Z</time></trkpt><trkpt lat="46.08634258932227" lon="9.277122298428097"><ele>252.0</ele><time>2026-05-02T12:37:55Z</time></trkpt><trkpt lat="46.08616334508898" lon="9.277232938435919"><ele>246.33333333333331</ele><time>2026-05-02T12:37:56Z</time></trkpt><trkpt lat="46.08600976592564" lon="9.277343892136404"><ele>240.66666666666666</ele><time>2026-05-02T12:37:57Z</time></trkpt><trkpt lat="46.085844826976114" lon="9.277451626177644"><ele>235.0</ele><time>2026-05-02T12:37:58Z</time></trkpt><trkpt lat="46.085672081383365" lon="9.277541430820884"><ele>235.0</ele><time>2026-05-02T12:37:59Z</time></trkpt><trkpt lat="46.08549644555333" lon="9.277628473799469"><ele>235.0</ele><time>2026-05-02T12:38:00Z</time></trkpt><trkpt lat="46.08531353209634" lon="9.277696265756182"><ele>235.0</ele><time>2026-05-02T12:38:01Z</time></trkpt><trkpt lat="46.085128169525454" lon="9.277757578005751"><ele>235.0</ele><time>2026-05-02T12:38:02Z</time></trkpt><trkpt lat="46.08495037781739" lon="9.27779953009168"><ele>235.0</ele><time>2026-05-02T12:38:03Z</time></trkpt><trkpt lat="46.08476420234188" lon="9.277844773452742"><ele>235.0</ele><time>2026-05-02T12:38:04Z</time></trkpt><trkpt lat="46.08458777885322" lon="9.277866778549043"><ele>231.66666666666666</ele><time>2026-05-02T12:38:05Z</time></trkpt><trkpt lat="46.084434058895546" lon="9.277840849030728"><ele>228.33333333333331</ele><time>2026-05-02T12:38:06Z</time></trkpt><trkpt lat="46.084294748804766" lon="9.27777796417434"><ele>225.0</ele><time>2026-05-02T12:38:07Z</time></trkpt><trkpt lat="46.08413633466439" lon="9.277682726974737"><ele>226.66666666666669</ele><time>2026-05-02T12:38:08Z</time></trkpt><trkpt lat="46.083995217547766" lon="9.277547336930555"><ele>228.33333333333334</ele><time>2026-05-02T12:38:09Z</time></trkpt><trkpt lat="46.083846437185905" lon="9.277388158250789"><ele>230.0</ele><time>2026-05-02T12:38:10Z</time></trkpt><trkpt lat="46.08369618195841" lon="9.277218065498076"><ele>230.0</ele><time>2026-05-02T12:38:11Z</time></trkpt><trkpt lat="46.083542962902094" lon="9.277061012888646"><ele>230.0</ele><time>2026-05-02T12:38:12Z</time></trkpt><trkpt lat="46.08338177697264" lon="9.27690132253024"><ele>230.0</ele><time>2026-05-02T12:38:13Z</time></trkpt><trkpt lat="46.08318412704316" lon="9.276732866855165"><ele>222.5</ele><time>2026-05-02T12:38:14Z</time></trkpt><trkpt lat="46.08292730509646" lon="9.276640613182215"><ele>215.0</ele><time>2026-05-02T12:38:15Z</time></trkpt><trkpt lat="46.08269536598499" lon="9.276569131787866"><ele>215.0</ele><time>2026-05-02T12:38:16Z</time></trkpt><trkpt lat="46.082486546937275" lon="9.276507010885181"><ele>215.0</ele><time>2026-05-02T12:38:17Z</time></trkpt><trkpt lat="46.08238571214768" lon="9.276467526575894"><ele>215.0</ele><time>2026-05-02T12:38:18Z</time></trkpt><trkpt lat="46.08220013147177" lon="9.276450792660935"><ele>221.66666666666669</ele><time>2026-05-02T12:38:19Z</time></trkpt><trkpt lat="46.08201139584602" lon="9.276407922895121"><ele>228.33333333333331</ele><time>2026-05-02T12:38:20Z</time></trkpt><trkpt lat="46.08180704759825" lon="9.276319779408306"><ele>235.0</ele><time>2026-05-02T12:38:21Z</time></trkpt><trkpt lat="46.08162272446772" lon="9.27622508124786"><ele>240.66666666666666</ele><time>2026-05-02T12:38:22Z</time></trkpt><trkpt lat="46.08142596108409" lon="9.27614148275123"><ele>246.33333333333331</ele><time>2026-05-02T12:38:23Z</time></trkpt><trkpt lat="46.08122172070823" lon="9.276063016975408"><ele>252.0</ele><time>2026-05-02T12:38:24Z</time></trkpt><trkpt lat="46.081032204621906" lon="9.275984985286378"><ele>252.0</ele><time>2026-05-02T12:38:25Z</time></trkpt><trkpt lat="46.080841929347656" lon="9.27590746912852"><ele>252.0</ele><time>2026-05-02T12:38:26Z</time></trkpt><trkpt lat="46.080646082696" lon="9.275830535056697"><ele>252.0</ele><time>2026-05-02T12:38:27.012Z</time></trkpt><trkpt lat="46.08045263960629" lon="9.275752984127536"><ele>254.0</ele><time>2026-05-02T12:38:28.014Z</time></trkpt><trkpt lat="46.08025975039226" lon="9.275667561553183"><ele>256.0</ele><time>2026-05-02T12:38:29.022Z</time></trkpt><trkpt lat="46.080068389878235" lon="9.275586257356522"><ele>258.0</ele><time>2026-05-02T12:38:30.016Z</time></trkpt><trkpt lat="46.07986875220685" lon="9.275579665567806"><ele>291.0</ele><time>2026-05-02T12:38:31.012Z</time></trkpt><trkpt lat="46.07788694652195" lon="9.276259143846147"><ele>263.0</ele><time>2026-05-02T12:38:34.698Z</time></trkpt><trkpt lat="46.07728892619102" lon="9.276540021720173"><ele>263.0</ele><time>2026-05-02T12:38:35.697Z</time></trkpt><trkpt lat="46.07668723358409" lon="9.27681324635212"><ele>280.0</ele><time>2026-05-02T12:38:36.699Z</time></trkpt><trkpt lat="46.076081993865095" lon="9.277058376127092"><ele>291.0</ele><time>2026-05-02T12:38:37.698Z</time></trkpt><trkpt lat="46.0754672329189" lon="9.277255970739956"><ele>265.0</ele><time>2026-05-02T12:38:38.698Z</time></trkpt><trkpt lat="46.07484157548098" lon="9.277349574107909"><ele>265.0</ele><time>2026-05-02T12:38:39.698Z</time></trkpt><trkpt lat="46.07421192567942" lon="9.27733694778511"><ele>294.0</ele><time>2026-05-02T12:38:40.699Z</time></trkpt><trkpt lat="46.07358739780153" lon="9.27722636801862"><ele>275.5</ele><time>2026-05-02T12:38:41.698Z</time></trkpt><trkpt lat="46.0732306" lon="9.2771044"><ele>257.0</ele><time>2026-05-02T12:38:42.699Z</time></trkpt><trkpt lat="46.0718726227489" lon="9.276167918005283"><ele>249.66666666666669</ele><time>2026-05-02T12:39:12Z</time></trkpt><trkpt lat="46.071732141435966" lon="9.276051936152754"><ele>242.33333333333331</ele><time>2026-05-02T12:39:13Z</time></trkpt><trkpt lat="46.0715887455948" lon="9.27592304975109"><ele>235.0</ele><time>2026-05-02T12:39:14Z</time></trkpt><trkpt lat="46.071434615161735" lon="9.275776622909026"><ele>233.33333333333331</ele><time>2026-05-02T12:39:15Z</time></trkpt><trkpt lat="46.0712702750481" lon="9.275626187589575"><ele>231.66666666666669</ele><time>2026-05-02T12:39:16Z</time></trkpt><trkpt lat="46.07110399359311" lon="9.27548575268096"><ele>230.0</ele><time>2026-05-02T12:39:17Z</time></trkpt><trkpt lat="46.07094586242783" lon="9.275325089667026"><ele>235.0</ele><time>2026-05-02T12:39:18Z</time></trkpt><trkpt lat="46.07078940851776" lon="9.275166136237806"><ele>240.0</ele><time>2026-05-02T12:39:19Z</time></trkpt><trkpt lat="46.07063451188619" lon="9.275006957813341"><ele>245.0</ele><time>2026-05-02T12:39:20.017Z</time></trkpt><trkpt lat="46.070475563392286" lon="9.274857754675532"><ele>256.0</ele><time>2026-05-02T12:39:21.012Z</time></trkpt><trkpt lat="46.070172022039074" lon="9.2745406269427"><ele>267.0</ele><time>2026-05-02T12:39:23.013Z</time></trkpt><trkpt lat="46.070028933739025" lon="9.274384402545019"><ele>222.0</ele><time>2026-05-02T12:39:24.01Z</time></trkpt><trkpt lat="46.06869178838214" lon="9.272902765990105"><ele>204.0</ele><time>2026-05-02T12:39:34.616Z</time></trkpt><trkpt lat="46.0678428132516" lon="9.272520197564058"><ele>204.0</ele><time>2026-05-02T12:39:37Z</time></trkpt><trkpt lat="46.067689968548414" lon="9.272435493948871"><ele>204.0</ele><time>2026-05-02T12:39:38Z</time></trkpt><trkpt lat="46.06757117793462" lon="9.272323216607457"><ele>204.0</ele><time>2026-05-02T12:39:40Z</time></trkpt><trkpt lat="46.067408994920314" lon="9.272310125670852"><ele>203.75</ele><time>2026-05-02T12:39:41Z</time></trkpt><trkpt lat="46.067285373653846" lon="9.272264509359049"><ele>203.5</ele><time>2026-05-02T12:39:42Z</time></trkpt><trkpt lat="46.067156141691015" lon="9.272217901404126"><ele>203.25</ele><time>2026-05-02T12:39:43.001Z</time></trkpt><trkpt lat="46.067040571650665" lon="9.272164345006885"><ele>203.0</ele><time>2026-05-02T12:39:44.001Z</time></trkpt><trkpt lat="46.06693997247265" lon="9.272105257067931"><ele>203.0</ele><time>2026-05-02T12:39:45.001Z</time></trkpt><trkpt lat="46.06684622166955" lon="9.27203680525104"><ele>203.0</ele><time>2026-05-02T12:39:46.001Z</time></trkpt><trkpt lat="46.06676335085652" lon="9.2719640866159"><ele>203.0</ele><time>2026-05-02T12:39:47.001Z</time></trkpt><trkpt lat="46.06667820025209" lon="9.271890967185003"><ele>203.0</ele><time>2026-05-02T12:39:48Z</time></trkpt><trkpt lat="46.066601534009074" lon="9.271808573579273"><ele>203.0</ele><time>2026-05-02T12:39:49.001Z</time></trkpt><trkpt lat="46.066532467572216" lon="9.271715516084585"><ele>202.60000000000002</ele><time>2026-05-02T12:39:50Z</time></trkpt><trkpt lat="46.06646187507828" lon="9.2716096295739"><ele>202.20000000000002</ele><time>2026-05-02T12:39:51Z</time></trkpt><trkpt lat="46.06639628385301" lon="9.271496610553669"><ele>201.8</ele><time>2026-05-02T12:39:52Z</time></trkpt><trkpt lat="46.06633425007571" lon="9.271372853237338"><ele>201.4</ele><time>2026-05-02T12:39:53Z</time></trkpt><trkpt lat="46.0662751069936" lon="9.271239954441176"><ele>201.0</ele><time>2026-05-02T12:39:54Z</time></trkpt><trkpt lat="46.066222759060956" lon="9.27109087270507"><ele>201.0</ele><time>2026-05-02T12:39:55Z</time></trkpt><trkpt lat="46.06616827771402" lon="9.270937483278923"><ele>201.0</ele><time>2026-05-02T12:39:56Z</time></trkpt><trkpt lat="46.06611090672035" lon="9.270783706760927"><ele>201.0</ele><time>2026-05-02T12:39:57Z</time></trkpt><trkpt lat="46.06605075045257" lon="9.270624938671688"><ele>201.0</ele><time>2026-05-02T12:39:58Z</time></trkpt><trkpt lat="46.06598218607168" lon="9.270464261863554"><ele>201.5</ele><time>2026-05-02T12:39:59Z</time></trkpt><trkpt lat="46.06592337137635" lon="9.270313976218674"><ele>202.0</ele><time>2026-05-02T12:40:00Z</time></trkpt><trkpt lat="46.06585785692819" lon="9.270162379268571"><ele>202.5</ele><time>2026-05-02T12:40:01Z</time></trkpt><trkpt lat="46.06578602562064" lon="9.270015412925217"><ele>203.0</ele><time>2026-05-02T12:40:02Z</time></trkpt><trkpt lat="46.06571334244848" lon="9.269870639173034"><ele>203.2</ele><time>2026-05-02T12:40:03Z</time></trkpt><trkpt lat="46.06563207605653" lon="9.269741576725501"><ele>203.4</ele><time>2026-05-02T12:40:04Z</time></trkpt><trkpt lat="46.06555352144737" lon="9.269643469511596"><ele>203.6</ele><time>2026-05-02T12:40:05Z</time></trkpt><trkpt lat="46.06548755948455" lon="9.269578372559929"><ele>203.79999999999998</ele><time>2026-05-02T12:40:06Z</time></trkpt><trkpt lat="46.065427997193446" lon="9.269526178999575"><ele>204.0</ele><time>2026-05-02T12:40:07Z</time></trkpt><trkpt lat="46.065326713674494" lon="9.269445725452396"><ele>204.0</ele><time>2026-05-02T12:40:09Z</time></trkpt><trkpt lat="46.06526051037557" lon="9.269377394738544"><ele>204.0</ele><time>2026-05-02T12:40:10Z</time></trkpt><trkpt lat="46.065138175188444" lon="9.269299261236444"><ele>204.0</ele><time>2026-05-02T12:40:12Z</time></trkpt><trkpt lat="46.06505053231035" lon="9.269284528852486"><ele>204.0</ele><time>2026-05-02T12:40:13Z</time></trkpt><trkpt lat="46.0649594144601" lon="9.269253593239908"><ele>204.0</ele><time>2026-05-02T12:40:14Z</time></trkpt><trkpt lat="46.064861290514735" lon="9.26923397267415"><ele>203.79999999999998</ele><time>2026-05-02T12:40:15Z</time></trkpt><trkpt lat="46.06474764487033" lon="9.269231345991814"><ele>203.6</ele><time>2026-05-02T12:40:16Z</time></trkpt><trkpt lat="46.06463641668082" lon="9.269212459740876"><ele>203.4</ele><time>2026-05-02T12:40:17Z</time></trkpt><trkpt lat="46.06453816485824" lon="9.26917798522662"><ele>203.2</ele><time>2026-05-02T12:40:18Z</time></trkpt><trkpt lat="46.06444703393129" lon="9.269163290097813"><ele>203.0</ele><time>2026-05-02T12:40:19Z</time></trkpt><trkpt lat="46.06432997988267" lon="9.269171630564841"><ele>203.0</ele><time>2026-05-02T12:40:20Z</time></trkpt><trkpt lat="46.064220187546134" lon="9.269174803148086"><ele>203.0</ele><time>2026-05-02T12:40:21Z</time></trkpt><trkpt lat="46.06410298608589" lon="9.269153975689774"><ele>203.0</ele><time>2026-05-02T12:40:22Z</time></trkpt><trkpt lat="46.06398958431766" lon="9.26914131067343"><ele>203.0</ele><time>2026-05-02T12:40:23Z</time></trkpt><trkpt lat="46.06391361229299" lon="9.269134738518664"><ele>203.0</ele><time>2026-05-02T12:40:24Z</time></trkpt><trkpt lat="46.06383185386087" lon="9.269112125643147"><ele>203.25</ele><time>2026-05-02T12:40:25Z</time></trkpt><trkpt lat="46.064055399044086" lon="9.269096908404666"><ele>203.5</ele><time>2026-05-02T12:40:26Z</time></trkpt><trkpt lat="46.06394642944741" lon="9.269081886518839"><ele>203.75</ele><time>2026-05-02T12:40:28Z</time></trkpt><trkpt lat="46.0638695282926" lon="9.269069089407855"><ele>204.0</ele><time>2026-05-02T12:40:29Z</time></trkpt><trkpt lat="46.063755215311886" lon="9.269048043185602"><ele>204.0</ele><time>2026-05-02T12:40:30Z</time></trkpt><trkpt lat="46.063625671293735" lon="9.269021438087059"><ele>204.0</ele><time>2026-05-02T12:40:31Z</time></trkpt><trkpt lat="46.063487529285666" lon="9.269003941291352"><ele>204.0</ele><time>2026-05-02T12:40:32Z</time></trkpt><trkpt lat="46.063360278060536" lon="9.268982015633464"><ele>204.0</ele><time>2026-05-02T12:40:33Z</time></trkpt><trkpt lat="46.06322333226035" lon="9.268957069291485"><ele>203.33333333333331</ele><time>2026-05-02T12:40:34Z</time></trkpt><trkpt lat="46.06306916335687" lon="9.268906714077271"><ele>202.66666666666666</ele><time>2026-05-02T12:40:35Z</time></trkpt><trkpt lat="46.06292940750936" lon="9.26884950620767"><ele>202.0</ele><time>2026-05-02T12:40:36Z</time></trkpt><trkpt lat="46.06276910490053" lon="9.268762033672862"><ele>202.0</ele><time>2026-05-02T12:40:37Z</time></trkpt><trkpt lat="46.06262104533359" lon="9.26864516514581"><ele>202.0</ele><time>2026-05-02T12:40:38Z</time></trkpt><trkpt lat="46.06248674408896" lon="9.268480982345876"><ele>202.0</ele><time>2026-05-02T12:40:39Z</time></trkpt><trkpt lat="46.06238142544131" lon="9.268263237539038"><ele>201.0</ele><time>2026-05-02T12:40:40Z</time></trkpt><trkpt lat="46.062302245003345" lon="9.268030147323987"><ele>200.0</ele><time>2026-05-02T12:40:41Z</time></trkpt><trkpt lat="46.06222397638457" lon="9.267788366588302"><ele>199.0</ele><time>2026-05-02T12:40:42Z</time></trkpt><trkpt lat="46.06213039612729" lon="9.26755325291196"><ele>199.0</ele><time>2026-05-02T12:40:43Z</time></trkpt><trkpt lat="46.062059693035685" lon="9.267320642824304"><ele>199.0</ele><time>2026-05-02T12:40:44Z</time></trkpt><trkpt lat="46.06197247899264" lon="9.267091287793061"><ele>199.0</ele><time>2026-05-02T12:40:45Z</time></trkpt><trkpt lat="46.06185357611517" lon="9.266890410624498"><ele>199.0</ele><time>2026-05-02T12:40:46Z</time></trkpt><trkpt lat="46.06173005630432" lon="9.266725921960687"><ele>199.0</ele><time>2026-05-02T12:40:47Z</time></trkpt><trkpt lat="46.06160086437875" lon="9.266594355289314"><ele>199.0</ele><time>2026-05-02T12:40:48Z</time></trkpt><trkpt lat="46.0615197926969" lon="9.26640618862141"><ele>199.0</ele><time>2026-05-02T12:40:49Z</time></trkpt><trkpt lat="46.061469412580614" lon="9.266177131683646"><ele>199.0</ele><time>2026-05-02T12:40:50Z</time></trkpt><trkpt lat="46.06141997475086" lon="9.265927848781143"><ele>199.0</ele><time>2026-05-02T12:40:51Z</time></trkpt><trkpt lat="46.061346966164834" lon="9.265686604976203"><ele>201.0</ele><time>2026-05-02T12:40:52Z</time></trkpt><trkpt lat="46.06125254941352" lon="9.265433697890158"><ele>203.0</ele><time>2026-05-02T12:40:53Z</time></trkpt><trkpt lat="46.06112146523998" lon="9.26520074602077"><ele>205.0</ele><time>2026-05-02T12:40:54Z</time></trkpt><trkpt lat="46.06096961713043" lon="9.264974098355017"><ele>205.0</ele><time>2026-05-02T12:40:55Z</time></trkpt><trkpt lat="46.060833917673314" lon="9.26475579466"><ele>205.0</ele><time>2026-05-02T12:40:56Z</time></trkpt><trkpt lat="46.060689725265846" lon="9.264551908424885"><ele>205.0</ele><time>2026-05-02T12:40:57Z</time></trkpt><trkpt lat="46.060527135852624" lon="9.26439998654876"><ele>205.0</ele><time>2026-05-02T12:40:58Z</time></trkpt><trkpt lat="46.060394361608225" lon="9.264199643692656"><ele>205.0</ele><time>2026-05-02T12:40:59Z</time></trkpt><trkpt lat="46.06029730288863" lon="9.263985646734731"><ele>205.0</ele><time>2026-05-02T12:41:00Z</time></trkpt><trkpt lat="46.06022705838128" lon="9.263722196346405"><ele>203.66666666666666</ele><time>2026-05-02T12:41:01Z</time></trkpt><trkpt lat="46.0601473184534" lon="9.26350862030441"><ele>202.33333333333331</ele><time>2026-05-02T12:41:02Z</time></trkpt><trkpt lat="46.060030916273355" lon="9.263289225329215"><ele>201.0</ele><time>2026-05-02T12:41:03Z</time></trkpt><trkpt lat="46.059905410628645" lon="9.263119910535085"><ele>203.33333333333331</ele><time>2026-05-02T12:41:04Z</time></trkpt><trkpt lat="46.05977440562738" lon="9.262937290658522"><ele>205.66666666666666</ele><time>2026-05-02T12:41:05Z</time></trkpt><trkpt lat="46.05966549585151" lon="9.262755700958671"><ele>208.0</ele><time>2026-05-02T12:41:06Z</time></trkpt><trkpt lat="46.05955318497858" lon="9.262592167116377"><ele>208.0</ele><time>2026-05-02T12:41:07Z</time></trkpt><trkpt lat="46.059442971456484" lon="9.262408059022906"><ele>208.0</ele><time>2026-05-02T12:41:08Z</time></trkpt><trkpt lat="46.05932937048018" lon="9.262233300843235"><ele>208.0</ele><time>2026-05-02T12:41:09Z</time></trkpt><trkpt lat="46.05921453471281" lon="9.26204273981106"><ele>207.0</ele><time>2026-05-02T12:41:10Z</time></trkpt><trkpt lat="46.0590942492637" lon="9.261840323448434"><ele>206.0</ele><time>2026-05-02T12:41:11Z</time></trkpt><trkpt lat="46.05896947573343" lon="9.261636406427934"><ele>205.0</ele><time>2026-05-02T12:41:12Z</time></trkpt><trkpt lat="46.05888727467666" lon="9.261462830952485"><ele>208.66666666666666</ele><time>2026-05-02T12:41:13Z</time></trkpt><trkpt lat="46.05882165093213" lon="9.261322518397902"><ele>212.33333333333331</ele><time>2026-05-02T12:41:14Z</time></trkpt><trkpt lat="46.05857316415548" lon="9.261095996242164"><ele>216.0</ele><time>2026-05-02T12:41:15Z</time></trkpt><trkpt lat="46.05840863414218" lon="9.26097740179399"><ele>213.66666666666669</ele><time>2026-05-02T12:41:16Z</time></trkpt><trkpt lat="46.05824181516784" lon="9.260885143130375"><ele>211.33333333333334</ele><time>2026-05-02T12:41:17Z</time></trkpt><trkpt lat="46.05808626098591" lon="9.260798596379706"><ele>209.0</ele><time>2026-05-02T12:41:18Z</time></trkpt><trkpt lat="46.05795813701448" lon="9.260692592246988"><ele>211.5</ele><time>2026-05-02T12:41:19Z</time></trkpt><trkpt lat="46.057840073735576" lon="9.260569552491786"><ele>214.0</ele><time>2026-05-02T12:41:20Z</time></trkpt><trkpt lat="46.0577381211134" lon="9.260433092422227"><ele>216.5</ele><time>2026-05-02T12:41:21Z</time></trkpt><trkpt lat="46.0576518400967" lon="9.260290182046793"><ele>219.0</ele><time>2026-05-02T12:41:22Z</time></trkpt><trkpt lat="46.05756180432859" lon="9.260176752122822"><ele>219.0</ele><time>2026-05-02T12:41:23Z</time></trkpt><trkpt lat="46.05745528076628" lon="9.26008962609577"><ele>219.0</ele><time>2026-05-02T12:41:24Z</time></trkpt><trkpt lat="46.0573561503324" lon="9.260020029108373"><ele>219.0</ele><time>2026-05-02T12:41:25Z</time></trkpt><trkpt lat="46.05726069386831" lon="9.259951866636042"><ele>219.0</ele><time>2026-05-02T12:41:26Z</time></trkpt><trkpt lat="46.05713531347724" lon="9.259884081358265"><ele>219.0</ele><time>2026-05-02T12:41:27Z</time></trkpt><trkpt lat="46.05701793601482" lon="9.259767939820101"><ele>219.0</ele><time>2026-05-02T12:41:28Z</time></trkpt><trkpt lat="46.0568827771113" lon="9.259645922975208"><ele>219.0</ele><time>2026-05-02T12:41:29Z</time></trkpt><trkpt lat="46.05675039445537" lon="9.259482090348598"><ele>216.66666666666669</ele><time>2026-05-02T12:41:30Z</time></trkpt><trkpt lat="46.056614440942525" lon="9.259293078549836"><ele>214.33333333333334</ele><time>2026-05-02T12:41:31Z</time></trkpt><trkpt lat="46.05646922248577" lon="9.259099015236204"><ele>212.0</ele><time>2026-05-02T12:41:32Z</time></trkpt><trkpt lat="46.05632081050983" lon="9.25894090409931"><ele>218.0</ele><time>2026-05-02T12:41:33Z</time></trkpt><trkpt lat="46.056170050943344" lon="9.258809102946113"><ele>224.0</ele><time>2026-05-02T12:41:34Z</time></trkpt><trkpt lat="46.056007138785546" lon="9.258684319603951"><ele>230.0</ele><time>2026-05-02T12:41:35Z</time></trkpt><trkpt lat="46.05585437645286" lon="9.258592561506871"><ele>229.0</ele><time>2026-05-02T12:41:36Z</time></trkpt><trkpt lat="46.05567829947085" lon="9.25860526475527"><ele>228.0</ele><time>2026-05-02T12:41:37Z</time></trkpt><trkpt lat="46.05551361061723" lon="9.258651835725031"><ele>227.0</ele><time>2026-05-02T12:41:38Z</time></trkpt><trkpt lat="46.055355649756955" lon="9.258679073823997"><ele>227.0</ele><time>2026-05-02T12:41:39Z</time></trkpt><trkpt lat="46.05521717527875" lon="9.258679445187575"><ele>227.0</ele><time>2026-05-02T12:41:40Z</time></trkpt><trkpt lat="46.05508587679963" lon="9.258714809025529"><ele>227.0</ele><time>2026-05-02T12:41:41Z</time></trkpt><trkpt lat="46.05493164854213" lon="9.258741744753534"><ele>227.0</ele><time>2026-05-02T12:41:42Z</time></trkpt><trkpt lat="46.05473117696836" lon="9.25878478569132"><ele>227.66666666666669</ele><time>2026-05-02T12:41:43Z</time></trkpt><trkpt lat="46.0545742040773" lon="9.258827867587174"><ele>228.33333333333331</ele><time>2026-05-02T12:41:44Z</time></trkpt><trkpt lat="46.05441510744161" lon="9.258853727704858"><ele>229.0</ele><time>2026-05-02T12:41:45Z</time></trkpt><trkpt lat="46.0542589836035" lon="9.258872946111305"><ele>230.0</ele><time>2026-05-02T12:41:46Z</time></trkpt><trkpt lat="46.05410395698177" lon="9.258863532843892"><ele>231.0</ele><time>2026-05-02T12:41:47Z</time></trkpt><trkpt lat="46.05394554787066" lon="9.258859217314862"><ele>232.0</ele><time>2026-05-02T12:41:48Z</time></trkpt><trkpt lat="46.05377913858778" lon="9.258846686862537"><ele>232.0</ele><time>2026-05-02T12:41:49.001Z</time></trkpt><trkpt lat="46.05361707613345" lon="9.25882414075086"><ele>232.0</ele><time>2026-05-02T12:41:50.001Z</time></trkpt><trkpt lat="46.05344722857073" lon="9.258815167636808"><ele>232.0</ele><time>2026-05-02T12:41:51.001Z</time></trkpt><trkpt lat="46.0532501097146" lon="9.258838202795413"><ele>230.33333333333331</ele><time>2026-05-02T12:41:52.001Z</time></trkpt><trkpt lat="46.05306714171969" lon="9.258864321893595"><ele>228.66666666666669</ele><time>2026-05-02T12:41:53.001Z</time></trkpt><trkpt lat="46.052892801725775" lon="9.258872448210697"><ele>227.0</ele><time>2026-05-02T12:41:54.001Z</time></trkpt><trkpt lat="46.05271707147108" lon="9.258843592766555"><ele>227.0</ele><time>2026-05-02T12:41:55.001Z</time></trkpt><trkpt lat="46.052550794411594" lon="9.258777661767967"><ele>227.0</ele><time>2026-05-02T12:41:56.001Z</time></trkpt><trkpt lat="46.05237969570257" lon="9.258705113254857"><ele>227.0</ele><time>2026-05-02T12:41:57.001Z</time></trkpt><trkpt lat="46.05222322121843" lon="9.258600209366913"><ele>222.66666666666669</ele><time>2026-05-02T12:41:58.001Z</time></trkpt><trkpt lat="46.052076157581915" lon="9.258481866074717"><ele>218.33333333333331</ele><time>2026-05-02T12:41:59.001Z</time></trkpt><trkpt lat="46.05194835669035" lon="9.258311192050884"><ele>214.0</ele><time>2026-05-02T12:42:00.001Z</time></trkpt><trkpt lat="46.051812366353374" lon="9.258128676213296"><ele>215.33333333333331</ele><time>2026-05-02T12:42:01.001Z</time></trkpt><trkpt lat="46.05168194133097" lon="9.25793427435642"><ele>216.66666666666669</ele><time>2026-05-02T12:42:02.001Z</time></trkpt><trkpt lat="46.05154646653746" lon="9.257761303400928"><ele>218.0</ele><time>2026-05-02T12:42:03.001Z</time></trkpt><trkpt lat="46.051372815997574" lon="9.257627446042127"><ele>218.0</ele><time>2026-05-02T12:42:04.001Z</time></trkpt><trkpt lat="46.05117473796566" lon="9.257501357092314"><ele>218.0</ele><time>2026-05-02T12:42:05.001Z</time></trkpt><trkpt lat="46.050974172453586" lon="9.257411640478766"><ele>218.0</ele><time>2026-05-02T12:42:06.001Z</time></trkpt><trkpt lat="46.050766258825384" lon="9.257292423407838"><ele>220.0</ele><time>2026-05-02T12:42:07.001Z</time></trkpt><trkpt lat="46.050551134723186" lon="9.257178585154152"><ele>222.0</ele><time>2026-05-02T12:42:08.001Z</time></trkpt><trkpt lat="46.05035345158924" lon="9.257056801944914"><ele>224.0</ele><time>2026-05-02T12:42:09.001Z</time></trkpt><trkpt lat="46.05017310826736" lon="9.256939395963455"><ele>224.0</ele><time>2026-05-02T12:42:10.001Z</time></trkpt><trkpt lat="46.05001843612125" lon="9.256754832544516"><ele>224.0</ele><time>2026-05-02T12:42:11.001Z</time></trkpt><trkpt lat="46.04987804932553" lon="9.256518653176402"><ele>224.0</ele><time>2026-05-02T12:42:12.001Z</time></trkpt><trkpt lat="46.049767228824315" lon="9.256281192813537"><ele>223.66666666666669</ele><time>2026-05-02T12:42:13.001Z</time></trkpt><trkpt lat="46.04966371929819" lon="9.2560306740441"><ele>223.33333333333331</ele><time>2026-05-02T12:42:14Z</time></trkpt><trkpt lat="46.0495451400518" lon="9.255780811690398"><ele>223.0</ele><time>2026-05-02T12:42:15Z</time></trkpt><trkpt lat="46.04938331793294" lon="9.255522616951664"><ele>248.0</ele><time>2026-05-02T12:42:16.015Z</time></trkpt><trkpt lat="46.04922327803249" lon="9.25527714584979"><ele>273.0</ele><time>2026-05-02T12:42:17.013Z</time></trkpt><trkpt lat="46.04890114689142" lon="9.254757026910411"><ele>277.5</ele><time>2026-05-02T12:42:19.013Z</time></trkpt><trkpt lat="46.048728145940494" lon="9.254500799718432"><ele>282.0</ele><time>2026-05-02T12:42:20.01Z</time></trkpt><trkpt lat="46.04651971258786" lon="9.253976074987328"><ele>262.0</ele><time>2026-05-02T12:42:30Z</time></trkpt><trkpt lat="46.04630771822926" lon="9.253903773995258"><ele>242.0</ele><time>2026-05-02T12:42:31Z</time></trkpt><trkpt lat="46.04601287197177" lon="9.253761381132067"><ele>242.0</ele><time>2026-05-02T12:42:32Z</time></trkpt><trkpt lat="46.0458166191383" lon="9.25358851089936"><ele>242.0</ele><time>2026-05-02T12:42:33Z</time></trkpt><trkpt lat="46.04562023166322" lon="9.253438632550141"><ele>237.5</ele><time>2026-05-02T12:42:34Z</time></trkpt><trkpt lat="46.04542156022567" lon="9.253287042735636"><ele>233.0</ele><time>2026-05-02T12:42:35Z</time></trkpt><trkpt lat="46.04522135536571" lon="9.25313424285502"><ele>224.5</ele><time>2026-05-02T12:42:36.013Z</time></trkpt><trkpt lat="46.045017899899364" lon="9.252980322164305"><ele>216.0</ele><time>2026-05-02T12:42:37.011Z</time></trkpt><trkpt lat="46.044680945614694" lon="9.253146037837515"><ele>240.0</ele><time>2026-05-02T12:42:38.015Z</time></trkpt><trkpt lat="46.044455761272296" lon="9.253058551270934"><ele>264.0</ele><time>2026-05-02T12:42:39.015Z</time></trkpt><trkpt lat="46.04423623838504" lon="9.252964846341701"><ele>211.0</ele><time>2026-05-02T12:42:40.02Z</time></trkpt><trkpt lat="46.04020470291938" lon="9.249666603290708"><ele>211.0</ele><time>2026-05-02T12:43:01Z</time></trkpt><trkpt lat="46.04010185637689" lon="9.249472502758458"><ele>211.0</ele><time>2026-05-02T12:43:02Z</time></trkpt><trkpt lat="46.04017535856046" lon="9.249015492582027"><ele>213.66666666666666</ele><time>2026-05-02T12:43:03Z</time></trkpt><trkpt lat="46.04020674998519" lon="9.248683890896126"><ele>216.33333333333331</ele><time>2026-05-02T12:43:04Z</time></trkpt><trkpt lat="46.04020686265408" lon="9.248393545551252"><ele>219.0</ele><time>2026-05-02T12:43:05Z</time></trkpt><trkpt lat="46.0402322698162" lon="9.248117307639207"><ele>220.33333333333331</ele><time>2026-05-02T12:43:06Z</time></trkpt><trkpt lat="46.04026337251945" lon="9.247838448976676"><ele>221.66666666666666</ele><time>2026-05-02T12:43:07Z</time></trkpt><trkpt lat="46.04029162261469" lon="9.247555022314549"><ele>223.0</ele><time>2026-05-02T12:43:08.019Z</time></trkpt><trkpt lat="46.040321822998735" lon="9.247272414582802"><ele>214.66666666666666</ele><time>2026-05-02T12:43:09.017Z</time></trkpt><trkpt lat="46.04035126557481" lon="9.246990939290402"><ele>206.33333333333331</ele><time>2026-05-02T12:43:10.019Z</time></trkpt><trkpt lat="46.040372767574226" lon="9.246704715275373"><ele>198.0</ele><time>2026-05-02T12:43:11.02Z</time></trkpt><trkpt lat="46.04038709031535" lon="9.246420132970762"><ele>198.0</ele><time>2026-05-02T12:43:12.013Z</time></trkpt><trkpt lat="46.03974205870753" lon="9.24369177031942"><ele>203.0</ele><time>2026-05-02T12:43:15.696Z</time></trkpt><trkpt lat="46.038195854095775" lon="9.240459250294826"><ele>203.0</ele><time>2026-05-02T12:43:37Z</time></trkpt><trkpt lat="46.03811139446576" lon="9.240295730917783"><ele>203.0</ele><time>2026-05-02T12:43:38Z</time></trkpt><trkpt lat="46.0380336397981" lon="9.2400685703186"><ele>203.0</ele><time>2026-05-02T12:43:39Z</time></trkpt><trkpt lat="46.03800615411055" lon="9.23988786234728"><ele>203.0</ele><time>2026-05-02T12:43:40Z</time></trkpt><trkpt lat="46.03798580147745" lon="9.23967977466734"><ele>206.25</ele><time>2026-05-02T12:43:41Z</time></trkpt><trkpt lat="46.03796194930304" lon="9.239474394386152"><ele>209.5</ele><time>2026-05-02T12:43:42Z</time></trkpt><trkpt lat="46.037939880877666" lon="9.239262878889281"><ele>212.75</ele><time>2026-05-02T12:43:43Z</time></trkpt><trkpt lat="46.0379383814879" lon="9.239062864889222"><ele>216.0</ele><time>2026-05-02T12:43:44Z</time></trkpt><trkpt lat="46.03792682635683" lon="9.23886381811396"><ele>224.0</ele><time>2026-05-02T12:43:45.013Z</time></trkpt><trkpt lat="46.03791846523711" lon="9.238662334068625"><ele>232.0</ele><time>2026-05-02T12:43:46.02Z</time></trkpt><trkpt lat="46.0379143238409" lon="9.238461347203495"><ele>240.0</ele><time>2026-05-02T12:43:47.02Z</time></trkpt><trkpt lat="46.03791227456303" lon="9.23826313634678"><ele>248.0</ele><time>2026-05-02T12:43:48.013Z</time></trkpt><trkpt lat="46.03792388907658" lon="9.238067371470747"><ele>254.0</ele><time>2026-05-02T12:43:49.014Z</time></trkpt><trkpt lat="46.03793185578894" lon="9.237867983156212"><ele>260.0</ele><time>2026-05-02T12:43:50.016Z</time></trkpt><trkpt lat="46.02319564208949" lon="9.233630262323873"><ele>260.0</ele><time>2026-05-02T12:45:06Z</time></trkpt><trkpt lat="46.023082127378544" lon="9.233627262446623"><ele>260.0</ele><time>2026-05-02T12:45:07Z</time></trkpt><trkpt lat="46.022917274680346" lon="9.233434686719733"><ele>260.0</ele><time>2026-05-02T12:45:08Z</time></trkpt><trkpt lat="46.022847987855165" lon="9.23335563124846"><ele>260.0</ele><time>2026-05-02T12:45:09Z</time></trkpt><trkpt lat="46.02279244124225" lon="9.23326510504192"><ele>260.0</ele><time>2026-05-02T12:45:10Z</time></trkpt><trkpt lat="46.0227556393566" lon="9.23316061919606"><ele>260.0</ele><time>2026-05-02T12:45:11Z</time></trkpt><trkpt lat="46.02272274720662" lon="9.233047784723182"><ele>260.0</ele><time>2026-05-02T12:45:12.002Z</time></trkpt><trkpt lat="46.02274535674901" lon="9.232878834339074"><ele>260.0</ele><time>2026-05-02T12:45:13.002Z</time></trkpt><trkpt lat="46.0227807061746" lon="9.232758060440583"><ele>260.0</ele><time>2026-05-02T12:45:14.002Z</time></trkpt><trkpt lat="46.02282596510619" lon="9.232617525156174"><ele>261.8</ele><time>2026-05-02T12:45:15.002Z</time></trkpt><trkpt lat="46.02289226119841" lon="9.232491522385763"><ele>263.6</ele><time>2026-05-02T12:45:16.002Z</time></trkpt><trkpt lat="46.02298275275806" lon="9.232402628313586"><ele>265.4</ele><time>2026-05-02T12:45:17.001Z</time></trkpt><trkpt lat="46.023052025270665" lon="9.232324446582355"><ele>267.2</ele><time>2026-05-02T12:45:18.001Z</time></trkpt><trkpt lat="46.02312545583713" lon="9.232289751286563"><ele>269.0</ele><time>2026-05-02T12:45:19.001Z</time></trkpt><trkpt lat="46.02320286172837" lon="9.232347391100639"><ele>269.0</ele><time>2026-05-02T12:45:20.001Z</time></trkpt><trkpt lat="46.02325268831257" lon="9.232440862494876"><ele>269.0</ele><time>2026-05-02T12:45:21.001Z</time></trkpt><trkpt lat="46.02329936426829" lon="9.232550499512312"><ele>269.0</ele><time>2026-05-02T12:45:22.001Z</time></trkpt><trkpt lat="46.02330667091334" lon="9.232664426764181"><ele>269.0</ele><time>2026-05-02T12:45:23.001Z</time></trkpt><trkpt lat="46.02329599742549" lon="9.232765631914916"><ele>269.0</ele><time>2026-05-02T12:45:24.001Z</time></trkpt><trkpt lat="46.02325838134581" lon="9.232856747542671"><ele>269.0</ele><time>2026-05-02T12:45:25.001Z</time></trkpt><trkpt lat="46.0231990725991" lon="9.232908172009465"><ele>269.0</ele><time>2026-05-02T12:45:26.001Z</time></trkpt><trkpt lat="46.02312945819258" lon="9.232961924716607"><ele>269.0</ele><time>2026-05-02T12:45:27.001Z</time></trkpt><trkpt lat="46.02304556223201" lon="9.233017359855214"><ele>269.0</ele><time>2026-05-02T12:45:28.001Z</time></trkpt><trkpt lat="46.022947761023744" lon="9.233088388254052"><ele>269.0</ele><time>2026-05-02T12:45:29.001Z</time></trkpt><trkpt lat="46.022847664647756" lon="9.23317379926301"><ele>269.0</ele><time>2026-05-02T12:45:30.001Z</time></trkpt><trkpt lat="46.02276830706923" lon="9.233300962262776"><ele>266.75</ele><time>2026-05-02T12:45:31.001Z</time></trkpt><trkpt lat="46.022630079651705" lon="9.233445939331261"><ele>264.5</ele><time>2026-05-02T12:45:32.001Z</time></trkpt><trkpt lat="46.022457750561706" lon="9.233630766884847"><ele>262.25</ele><time>2026-05-02T12:45:33.001Z</time></trkpt><trkpt lat="46.02251746096976" lon="9.23366027278885"><ele>260.0</ele><time>2026-05-02T12:45:34.001Z</time></trkpt><trkpt lat="46.0224397365734" lon="9.2338237533705"><ele>261.0</ele><time>2026-05-02T12:45:35.001Z</time></trkpt><trkpt lat="46.02235465569942" lon="9.233992925537825"><ele>262.0</ele><time>2026-05-02T12:45:36.001Z</time></trkpt><trkpt lat="46.02228242444105" lon="9.234158426712836"><ele>263.0</ele><time>2026-05-02T12:45:37.001Z</time></trkpt><trkpt lat="46.022193404097735" lon="9.234309649341423"><ele>264.0</ele><time>2026-05-02T12:45:38.001Z</time></trkpt><trkpt lat="46.02210702726615" lon="9.234450917828879"><ele>264.0</ele><time>2026-05-02T12:45:39.001Z</time></trkpt><trkpt lat="46.02201382961714" lon="9.234537172337609"><ele>264.0</ele><time>2026-05-02T12:45:40.001Z</time></trkpt><trkpt lat="46.021923360571925" lon="9.234571875538077"><ele>264.0</ele><time>2026-05-02T12:45:41.001Z</time></trkpt><trkpt lat="46.021839775424986" lon="9.234578509749513"><ele>264.0</ele><time>2026-05-02T12:45:42.001Z</time></trkpt><trkpt lat="46.0217665750943" lon="9.234561035453261"><ele>264.0</ele><time>2026-05-02T12:45:43.001Z</time></trkpt><trkpt lat="46.02170501042206" lon="9.234510171638052"><ele>264.0</ele><time>2026-05-02T12:45:44.001Z</time></trkpt><trkpt lat="46.0216445899539" lon="9.234470083902638"><ele>264.0</ele><time>2026-05-02T12:45:45Z</time></trkpt><trkpt lat="46.02156133118915" lon="9.23442052645031"><ele>264.0</ele><time>2026-05-02T12:45:47Z</time></trkpt><trkpt lat="46.02152783785394" lon="9.234298824200726"><ele>264.0</ele><time>2026-05-02T12:45:49Z</time></trkpt><trkpt lat="46.021560000187876" lon="9.23413108088865"><ele>264.0</ele><time>2026-05-02T12:45:51Z</time></trkpt><trkpt lat="46.021622112188695" lon="9.234092614075797"><ele>264.0</ele><time>2026-05-02T12:45:52Z</time></trkpt><trkpt lat="46.02166992506693" lon="9.234031938507346"><ele>264.0</ele><time>2026-05-02T12:45:53Z</time></trkpt><trkpt lat="46.021715288127446" lon="9.23394979131102"><ele>266.8</ele><time>2026-05-02T12:45:54Z</time></trkpt><trkpt lat="46.02176134654144" lon="9.233838716449181"><ele>269.59999999999997</ele><time>2026-05-02T12:45:55Z</time></trkpt><trkpt lat="46.021806992846116" lon="9.233728444925744"><ele>272.4</ele><time>2026-05-02T12:45:56Z</time></trkpt><trkpt lat="46.02188169934423" lon="9.233516881157566"><ele>275.2</ele><time>2026-05-02T12:45:57Z</time></trkpt><trkpt lat="46.02192583867923" lon="9.233389765094794"><ele>278.0</ele><time>2026-05-02T12:45:58Z</time></trkpt><trkpt lat="46.02195506489303" lon="9.233237556506143"><ele>279.0</ele><time>2026-05-02T12:45:59Z</time></trkpt><trkpt lat="46.021987478159176" lon="9.233064606446302"><ele>280.0</ele><time>2026-05-02T12:46:00Z</time></trkpt><trkpt lat="46.022049773593565" lon="9.232910954063497"><ele>281.0</ele><time>2026-05-02T12:46:01Z</time></trkpt><trkpt lat="46.022126176925504" lon="9.232760554640596"><ele>282.0</ele><time>2026-05-02T12:46:02Z</time></trkpt><trkpt lat="46.02222511914629" lon="9.232649146467963"><ele>282.0</ele><time>2026-05-02T12:46:03Z</time></trkpt><trkpt lat="46.022326909376716" lon="9.232569702549306"><ele>282.0</ele><time>2026-05-02T12:46:04Z</time></trkpt><trkpt lat="46.022400700120045" lon="9.232439069309669"><ele>282.0</ele><time>2026-05-02T12:46:05Z</time></trkpt><trkpt lat="46.02245934699705" lon="9.232345792332415"><ele>282.0</ele><time>2026-05-02T12:46:06Z</time></trkpt><trkpt lat="46.022506639272216" lon="9.232236363062565"><ele>282.0</ele><time>2026-05-02T12:46:07Z</time></trkpt><trkpt lat="46.022524003295175" lon="9.23211777992559"><ele>281.3333333333333</ele><time>2026-05-02T12:46:08Z</time></trkpt><trkpt lat="46.02250868263872" lon="9.231982441555116"><ele>280.6666666666667</ele><time>2026-05-02T12:46:09Z</time></trkpt><trkpt lat="46.02248625008063" lon="9.231847526046417"><ele>280.0</ele><time>2026-05-02T12:46:10Z</time></trkpt><trkpt lat="46.02245676731714" lon="9.231726620735827"><ele>279.33333333333337</ele><time>2026-05-02T12:46:11Z</time></trkpt><trkpt lat="46.02242577294805" lon="9.231614205339591"><ele>278.6666666666667</ele><time>2026-05-02T12:46:12Z</time></trkpt><trkpt lat="46.02238853171776" lon="9.23150675106039"><ele>278.0</ele><time>2026-05-02T12:46:13Z</time></trkpt><trkpt lat="46.02232771704824" lon="9.231400294012191"><ele>282.0</ele><time>2026-05-02T12:46:14Z</time></trkpt><trkpt lat="46.02226221443841" lon="9.231303263276839"><ele>286.0</ele><time>2026-05-02T12:46:15Z</time></trkpt><trkpt lat="46.022169678377296" lon="9.231216943549752"><ele>290.0</ele><time>2026-05-02T12:46:16Z</time></trkpt><trkpt lat="46.022076331594064" lon="9.231133625972413"><ele>294.0</ele><time>2026-05-02T12:46:17Z</time></trkpt><trkpt lat="46.021964503389164" lon="9.231073031359054"><ele>298.0</ele><time>2026-05-02T12:46:18Z</time></trkpt><trkpt lat="46.021844278324274" lon="9.23103590033751"><ele>298.0</ele><time>2026-05-02T12:46:19Z</time></trkpt><trkpt lat="46.021737315885254" lon="9.230997812066892"><ele>298.0</ele><time>2026-05-02T12:46:20Z</time></trkpt><trkpt lat="46.02159573018822" lon="9.231018859603935"><ele>298.0</ele><time>2026-05-02T12:46:21Z</time></trkpt><trkpt lat="46.02144243236025" lon="9.231044760305627"><ele>298.0</ele><time>2026-05-02T12:46:22Z</time></trkpt><trkpt lat="46.021312971616766" lon="9.231064033772311"><ele>298.66666666666663</ele><time>2026-05-02T12:46:23Z</time></trkpt><trkpt lat="46.021199067434246" lon="9.231081568912892"><ele>299.3333333333333</ele><time>2026-05-02T12:46:24Z</time></trkpt><trkpt lat="46.021128780975424" lon="9.231097254642416"><ele>300.0</ele><time>2026-05-02T12:46:25Z</time></trkpt><trkpt lat="46.021041875272985" lon="9.231109193254078"><ele>300.6666666666667</ele><time>2026-05-02T12:46:26Z</time></trkpt><trkpt lat="46.020953169495506" lon="9.231109410936448"><ele>301.33333333333337</ele><time>2026-05-02T12:46:27Z</time></trkpt><trkpt lat="46.02086879750455" lon="9.231118783656761"><ele>302.0</ele><time>2026-05-02T12:46:28Z</time></trkpt><trkpt lat="46.020779828368994" lon="9.231125046544669"><ele>302.0</ele><time>2026-05-02T12:46:29Z</time></trkpt><trkpt lat="46.020694653313996" lon="9.231135543529323"><ele>302.0</ele><time>2026-05-02T12:46:30Z</time></trkpt><trkpt lat="46.02060873204645" lon="9.231153072742092"><ele>302.0</ele><time>2026-05-02T12:46:31Z</time></trkpt><trkpt lat="46.020524284480814" lon="9.231166302359439"><ele>302.0</ele><time>2026-05-02T12:46:32Z</time></trkpt><trkpt lat="46.02042353934001" lon="9.23117611001165"><ele>302.0</ele><time>2026-05-02T12:46:33Z</time></trkpt><trkpt lat="46.020323596697644" lon="9.2311882611867"><ele>302.0</ele><time>2026-05-02T12:46:34Z</time></trkpt><trkpt lat="46.0202449850641" lon="9.231187032609038"><ele>302.0</ele><time>2026-05-02T12:46:35Z</time></trkpt><trkpt lat="46.02017717111889" lon="9.231175044495807"><ele>302.0</ele><time>2026-05-02T12:46:36Z</time></trkpt><trkpt lat="46.02014835273181" lon="9.231036153094546"><ele>302.0</ele><time>2026-05-02T12:46:38Z</time></trkpt><trkpt lat="46.02023299847734" lon="9.230936183744841"><ele>302.0</ele><time>2026-05-02T12:46:40Z</time></trkpt><trkpt lat="46.020296649911714" lon="9.230942277818986"><ele>302.0</ele><time>2026-05-02T12:46:41Z</time></trkpt><trkpt lat="46.020354128474295" lon="9.23107240316567"><ele>302.0</ele><time>2026-05-02T12:46:42Z</time></trkpt><trkpt lat="46.0204330027241" lon="9.231083931846129"><ele>302.0</ele><time>2026-05-02T12:46:43Z</time></trkpt><trkpt lat="46.02052077180372" lon="9.231074436637565"><ele>302.0</ele><time>2026-05-02T12:46:44Z</time></trkpt><trkpt lat="46.020591816466606" lon="9.23103813379168"><ele>302.0</ele><time>2026-05-02T12:46:45Z</time></trkpt><trkpt lat="46.0206680802107" lon="9.231000410224048"><ele>302.0</ele><time>2026-05-02T12:46:46Z</time></trkpt><trkpt lat="46.020734567458206" lon="9.230927060785303"><ele>302.0</ele><time>2026-05-02T12:46:47Z</time></trkpt><trkpt lat="46.02080867608141" lon="9.230901608075724"><ele>302.6</ele><time>2026-05-02T12:46:48Z</time></trkpt><trkpt lat="46.02086630276663" lon="9.230863087473061"><ele>303.2</ele><time>2026-05-02T12:46:49Z</time></trkpt><trkpt lat="46.02097631089307" lon="9.23079719273295"><ele>303.8</ele><time>2026-05-02T12:46:51Z</time></trkpt><trkpt lat="46.02107612877258" lon="9.230761040331991"><ele>304.4</ele><time>2026-05-02T12:46:53Z</time></trkpt><trkpt lat="46.02117659577034" lon="9.230736331899532"><ele>305.0</ele><time>2026-05-02T12:46:55Z</time></trkpt><trkpt lat="46.0212604946892" lon="9.230683942231773"><ele>309.6</ele><time>2026-05-02T12:46:57Z</time></trkpt><trkpt lat="46.02127203567586" lon="9.230546631084147"><ele>314.2</ele><time>2026-05-02T12:46:59Z</time></trkpt><trkpt lat="46.0212109074974" lon="9.23040830069725"><ele>318.79999999999995</ele><time>2026-05-02T12:47:01Z</time></trkpt><trkpt lat="46.02106018585122" lon="9.230436404395087"><ele>323.4</ele><time>2026-05-02T12:47:03Z</time></trkpt><trkpt lat="46.021000527361885" lon="9.230475620579687"><ele>328.0</ele><time>2026-05-02T12:47:04Z</time></trkpt><trkpt lat="46.0209354304479" lon="9.230514661282752"><ele>328.0</ele><time>2026-05-02T12:47:05Z</time></trkpt><trkpt lat="46.020863768032214" lon="9.2305426901727"><ele>328.0</ele><time>2026-05-02T12:47:06Z</time></trkpt><trkpt lat="46.020798132209116" lon="9.230559449273455"><ele>328.0</ele><time>2026-05-02T12:47:07Z</time></trkpt><trkpt lat="46.02072469258417" lon="9.230551707534023"><ele>328.0</ele><time>2026-05-02T12:47:08Z</time></trkpt><trkpt lat="46.02064565732416" lon="9.230549912372426"><ele>328.0</ele><time>2026-05-02T12:47:09Z</time></trkpt><trkpt lat="46.020545615909676" lon="9.230500776220534"><ele>328.0</ele><time>2026-05-02T12:47:10Z</time></trkpt><trkpt lat="46.02045388444073" lon="9.230454260411706"><ele>327.0</ele><time>2026-05-02T12:47:11Z</time></trkpt><trkpt lat="46.02035972745263" lon="9.230421199411877"><ele>326.0</ele><time>2026-05-02T12:47:12Z</time></trkpt><trkpt lat="46.02029270302086" lon="9.230354407470896"><ele>325.0</ele><time>2026-05-02T12:47:13Z</time></trkpt><trkpt lat="46.020203469044276" lon="9.230313884735924"><ele>324.0</ele><time>2026-05-02T12:47:14Z</time></trkpt><trkpt lat="46.02010101555888" lon="9.230268601932195"><ele>323.0</ele><time>2026-05-02T12:47:15Z</time></trkpt><trkpt lat="46.02000551791169" lon="9.230219484865323"><ele>322.2</ele><time>2026-05-02T12:47:16Z</time></trkpt><trkpt lat="46.0199134212502" lon="9.230159739562186"><ele>321.4</ele><time>2026-05-02T12:47:17Z</time></trkpt><trkpt lat="46.0198413352479" lon="9.230067100964648"><ele>320.59999999999997</ele><time>2026-05-02T12:47:18.001Z</time></trkpt><trkpt lat="46.01978041177489" lon="9.229962791918028"><ele>319.79999999999995</ele><time>2026-05-02T12:47:19.001Z</time></trkpt><trkpt lat="46.01973572287739" lon="9.229842905375047"><ele>319.0</ele><time>2026-05-02T12:47:20.001Z</time></trkpt><trkpt lat="46.019694119422915" lon="9.22972220466442"><ele>321.16666666666663</ele><time>2026-05-02T12:47:21.001Z</time></trkpt><trkpt lat="46.01965400987071" lon="9.229608477421143"><ele>323.3333333333333</ele><time>2026-05-02T12:47:22.001Z</time></trkpt><trkpt lat="46.01960912151372" lon="9.229496052748093"><ele>325.5</ele><time>2026-05-02T12:47:23.001Z</time></trkpt><trkpt lat="46.019562202912546" lon="9.229399423981897"><ele>327.6666666666667</ele><time>2026-05-02T12:47:24.001Z</time></trkpt><trkpt lat="46.01950838086146" lon="9.229326401379366"><ele>329.83333333333337</ele><time>2026-05-02T12:47:25Z</time></trkpt><trkpt lat="46.01942579790589" lon="9.229289418936224"><ele>332.0</ele><time>2026-05-02T12:47:26Z</time></trkpt><trkpt lat="46.019333698615455" lon="9.22929212739097"><ele>332.0</ele><time>2026-05-02T12:47:27Z</time></trkpt><trkpt lat="46.01925561790102" lon="9.229313402149614"><ele>332.0</ele><time>2026-05-02T12:47:28Z</time></trkpt><trkpt lat="46.019178053768826" lon="9.229364118002687"><ele>332.0</ele><time>2026-05-02T12:47:29Z</time></trkpt><trkpt lat="46.019104634981865" lon="9.22939964815286"><ele>332.0</ele><time>2026-05-02T12:47:30Z</time></trkpt><trkpt lat="46.01903623540623" lon="9.229436925934795"><ele>332.0</ele><time>2026-05-02T12:47:31Z</time></trkpt><trkpt lat="46.01896543294283" lon="9.229464195358267"><ele>332.0</ele><time>2026-05-02T12:47:32Z</time></trkpt><trkpt lat="46.018897589953816" lon="9.22950210825002"><ele>334.0</ele><time>2026-05-02T12:47:33Z</time></trkpt><trkpt lat="46.018803201435645" lon="9.229565831994408"><ele>336.0</ele><time>2026-05-02T12:47:35Z</time></trkpt><trkpt lat="46.01872609090598" lon="9.22957610249868"><ele>338.0</ele><time>2026-05-02T12:47:37Z</time></trkpt><trkpt lat="46.018686872692214" lon="9.229462093403315"><ele>340.0</ele><time>2026-05-02T12:47:39Z</time></trkpt><trkpt lat="46.01875362512965" lon="9.229341455488598"><ele>342.0</ele><time>2026-05-02T12:47:41Z</time></trkpt><trkpt lat="46.01881965607567" lon="9.229364539282972"><ele>344.0</ele><time>2026-05-02T12:47:42Z</time></trkpt><trkpt lat="46.01888058587995" lon="9.229333561242992"><ele>344.0</ele><time>2026-05-02T12:47:43Z</time></trkpt><trkpt lat="46.01894603873722" lon="9.229290299650557"><ele>344.0</ele><time>2026-05-02T12:47:44Z</time></trkpt><trkpt lat="46.01902701741537" lon="9.229223816306565"><ele>344.0</ele><time>2026-05-02T12:47:45Z</time></trkpt><trkpt lat="46.019100571751935" lon="9.22909958248557"><ele>344.0</ele><time>2026-05-02T12:47:46Z</time></trkpt><trkpt lat="46.0191611144594" lon="9.229000411013443"><ele>344.0</ele><time>2026-05-02T12:47:47Z</time></trkpt><trkpt lat="46.019206926615446" lon="9.228882221985714"><ele>345.2</ele><time>2026-05-02T12:47:48Z</time></trkpt><trkpt lat="46.01924647378298" lon="9.22876600083359"><ele>346.4</ele><time>2026-05-02T12:47:49Z</time></trkpt><trkpt lat="46.01930503783509" lon="9.228665491097003"><ele>347.6</ele><time>2026-05-02T12:47:50Z</time></trkpt><trkpt lat="46.01935532511976" lon="9.228537578831872"><ele>348.8</ele><time>2026-05-02T12:47:51Z</time></trkpt><trkpt lat="46.01940480513867" lon="9.228428548772346"><ele>350.0</ele><time>2026-05-02T12:47:52Z</time></trkpt><trkpt lat="46.019460475998635" lon="9.22834967436548"><ele>350.0</ele><time>2026-05-02T12:47:53Z</time></trkpt><trkpt lat="46.0195235902769" lon="9.228305331460591"><ele>350.0</ele><time>2026-05-02T12:47:54Z</time></trkpt><trkpt lat="46.01958882998132" lon="9.228308999871649"><ele>350.0</ele><time>2026-05-02T12:47:55Z</time></trkpt><trkpt lat="46.01965808963047" lon="9.228363949085649"><ele>350.0</ele><time>2026-05-02T12:47:56Z</time></trkpt><trkpt lat="46.01972687500799" lon="9.228424967330618"><ele>350.0</ele><time>2026-05-02T12:47:57Z</time></trkpt><trkpt lat="46.019796281139016" lon="9.22851015109683"><ele>350.0</ele><time>2026-05-02T12:47:58Z</time></trkpt><trkpt lat="46.019888661158376" lon="9.228587297090256"><ele>351.5</ele><time>2026-05-02T12:47:59Z</time></trkpt><trkpt lat="46.0199954785172" lon="9.228651873809016"><ele>353.0</ele><time>2026-05-02T12:48:00Z</time></trkpt><trkpt lat="46.02011283164514" lon="9.228705766880232"><ele>354.5</ele><time>2026-05-02T12:48:01Z</time></trkpt><trkpt lat="46.02022774520971" lon="9.228739311735753"><ele>356.0</ele><time>2026-05-02T12:48:02Z</time></trkpt><trkpt lat="46.02033450049824" lon="9.22879542574303"><ele>356.0</ele><time>2026-05-02T12:48:03Z</time></trkpt><trkpt lat="46.02044132215671" lon="9.228854018194927"><ele>356.0</ele><time>2026-05-02T12:48:04Z</time></trkpt><trkpt lat="46.02055111842244" lon="9.228892574672468"><ele>356.0</ele><time>2026-05-02T12:48:05Z</time></trkpt><trkpt lat="46.020647210300396" lon="9.228934677815934"><ele>356.0</ele><time>2026-05-02T12:48:06Z</time></trkpt><trkpt lat="46.02074721877305" lon="9.228956945438059"><ele>356.0</ele><time>2026-05-02T12:48:07Z</time></trkpt><trkpt lat="46.020868443285075" lon="9.228958232169308"><ele>358.4</ele><time>2026-05-02T12:48:08Z</time></trkpt><trkpt lat="46.020983425245916" lon="9.228935379957875"><ele>360.8</ele><time>2026-05-02T12:48:09Z</time></trkpt><trkpt lat="46.02109114075402" lon="9.228901470585841"><ele>363.2</ele><time>2026-05-02T12:48:10Z</time></trkpt><trkpt lat="46.02117280558156" lon="9.228862640792578"><ele>365.59999999999997</ele><time>2026-05-02T12:48:11Z</time></trkpt><trkpt lat="46.021251722234176" lon="9.228831138282477"><ele>368.0</ele><time>2026-05-02T12:48:12Z</time></trkpt><trkpt lat="46.021329268993874" lon="9.2287997199377"><ele>368.0</ele><time>2026-05-02T12:48:13Z</time></trkpt><trkpt lat="46.02139723742352" lon="9.228774881594045"><ele>368.0</ele><time>2026-05-02T12:48:14Z</time></trkpt><trkpt lat="46.02145500072353" lon="9.228729307320924"><ele>368.0</ele><time>2026-05-02T12:48:15Z</time></trkpt><trkpt lat="46.02150418719667" lon="9.228571737787226"><ele>368.0</ele><time>2026-05-02T12:48:17Z</time></trkpt><trkpt lat="46.021443673402345" lon="9.228458687470404"><ele>368.0</ele><time>2026-05-02T12:48:19Z</time></trkpt><trkpt lat="46.0213447571775" lon="9.228433872710257"><ele>368.0</ele><time>2026-05-02T12:48:21Z</time></trkpt><trkpt lat="46.0212408833787" lon="9.228434313379392"><ele>368.0</ele><time>2026-05-02T12:48:23Z</time></trkpt><trkpt lat="46.021170964422026" lon="9.228439403024366"><ele>368.0</ele><time>2026-05-02T12:48:24Z</time></trkpt><trkpt lat="46.02108587432993" lon="9.228460365372785"><ele>368.0</ele><time>2026-05-02T12:48:25Z</time></trkpt><trkpt lat="46.02096435082632" lon="9.228451928676623"><ele>368.0</ele><time>2026-05-02T12:48:26Z</time></trkpt><trkpt lat="46.02084985488751" lon="9.228426079689752"><ele>368.59999999999997</ele><time>2026-05-02T12:48:27Z</time></trkpt><trkpt lat="46.02075681360988" lon="9.228364021260626"><ele>369.2</ele><time>2026-05-02T12:48:28Z</time></trkpt><trkpt lat="46.02066089527313" lon="9.228271285396564"><ele>369.8</ele><time>2026-05-02T12:48:29Z</time></trkpt><trkpt lat="46.02057617710915" lon="9.228176088735786"><ele>370.4</ele><time>2026-05-02T12:48:30Z</time></trkpt><trkpt lat="46.02050479918439" lon="9.22806430488392"><ele>371.0</ele><time>2026-05-02T12:48:31Z</time></trkpt><trkpt lat="46.02041629320735" lon="9.227970726534116"><ele>371.0</ele><time>2026-05-02T12:48:32Z</time></trkpt><trkpt lat="46.02032424526854" lon="9.227882432798163"><ele>371.0</ele><time>2026-05-02T12:48:33Z</time></trkpt><trkpt lat="46.020265347472964" lon="9.227790982480343"><ele>371.0</ele><time>2026-05-02T12:48:34Z</time></trkpt><trkpt lat="46.020205347794835" lon="9.227710658114626"><ele>371.0</ele><time>2026-05-02T12:48:35Z</time></trkpt><trkpt lat="46.02016042195638" lon="9.227608003657307"><ele>371.0</ele><time>2026-05-02T12:48:36Z</time></trkpt><trkpt lat="46.020130097661884" lon="9.227486739497431"><ele>371.0</ele><time>2026-05-02T12:48:37Z</time></trkpt><trkpt lat="46.020112423744344" lon="9.227365168057261"><ele>371.0</ele><time>2026-05-02T12:48:38Z</time></trkpt><trkpt lat="46.02010733122212" lon="9.227246040171329"><ele>371.0</ele><time>2026-05-02T12:48:39Z</time></trkpt><trkpt lat="46.02009784630439" lon="9.227122371117437"><ele>371.0</ele><time>2026-05-02T12:48:40Z</time></trkpt><trkpt lat="46.02007742691294" lon="9.226999873782177"><ele>371.0</ele><time>2026-05-02T12:48:41Z</time></trkpt><trkpt lat="46.020016493941554" lon="9.22686194836631"><ele>371.5</ele><time>2026-05-02T12:48:42Z</time></trkpt><trkpt lat="46.01993721477644" lon="9.226754069022784"><ele>372.0</ele><time>2026-05-02T12:48:43Z</time></trkpt><trkpt lat="46.019843715960896" lon="9.22668440886472"><ele>372.5</ele><time>2026-05-02T12:48:43.999Z</time></trkpt><trkpt lat="46.019788622836145" lon="9.22662859867154"><ele>373.0</ele><time>2026-05-02T12:48:44.999Z</time></trkpt><trkpt lat="46.01945539390903" lon="9.226430476776079"><ele>375.79999999999995</ele><time>2026-05-02T12:48:46.999Z</time></trkpt><trkpt lat="46.01934959980045" lon="9.22637522798094"><ele>378.6</ele><time>2026-05-02T12:48:47.999Z</time></trkpt><trkpt lat="46.01926880468436" lon="9.226325276374256"><ele>381.4</ele><time>2026-05-02T12:48:48.999Z</time></trkpt><trkpt lat="46.01920005150817" lon="9.22624388460718"><ele>384.20000000000005</ele><time>2026-05-02T12:48:49.999Z</time></trkpt><trkpt lat="46.01914733125957" lon="9.226149948777639"><ele>387.0</ele><time>2026-05-02T12:48:51.999Z</time></trkpt><trkpt lat="46.01907888820978" lon="9.226037024282473"><ele>387.0</ele><time>2026-05-02T12:48:54.999Z</time></trkpt><trkpt lat="46.019025332715614" lon="9.225905191744415"><ele>387.0</ele><time>2026-05-02T12:48:56.999Z</time></trkpt><trkpt lat="46.0189863781531" lon="9.225816984241535"><ele>387.0</ele><time>2026-05-02T12:48:58.999Z</time></trkpt><trkpt lat="46.018943750624196" lon="9.225748552504628"><ele>387.0</ele><time>2026-05-02T12:49:09.999Z</time></trkpt><trkpt lat="46.018888021167264" lon="9.22559861277035"><ele>387.0</ele><time>2026-05-02T12:49:11.999Z</time></trkpt><trkpt lat="46.01885279540704" lon="9.225512299819428"><ele>387.0</ele><time>2026-05-02T12:49:12.999Z</time></trkpt><trkpt lat="46.01882080346465" lon="9.225426099934836"><ele>388.20000000000005</ele><time>2026-05-02T12:49:13.999Z</time></trkpt><trkpt lat="46.01878907864328" lon="9.225331024235246"><ele>389.4</ele><time>2026-05-02T12:49:14.999Z</time></trkpt><trkpt lat="46.01876423635337" lon="9.22523562377"><ele>390.6</ele><time>2026-05-02T12:49:15.999Z</time></trkpt><trkpt lat="46.01875010043131" lon="9.225047205804698"><ele>391.79999999999995</ele><time>2026-05-02T12:49:17.999Z</time></trkpt><trkpt lat="46.018752306516355" lon="9.224871072513482"><ele>393.0</ele><time>2026-05-02T12:49:19.999Z</time></trkpt><trkpt lat="46.01875921091663" lon="9.224779477537638"><ele>393.5</ele><time>2026-05-02T12:49:20.999Z</time></trkpt><trkpt lat="46.01879574112373" lon="9.224689726736033"><ele>394.0</ele><time>2026-05-02T12:49:21.999Z</time></trkpt><trkpt lat="46.01879775009883" lon="9.224568597142328"><ele>394.5</ele><time>2026-05-02T12:49:22.999Z</time></trkpt><trkpt lat="46.018766854480354" lon="9.224454324834001"><ele>395.0</ele><time>2026-05-02T12:49:24Z</time></trkpt><trkpt lat="46.018738374207125" lon="9.224345431832061"><ele>395.5</ele><time>2026-05-02T12:49:25Z</time></trkpt><trkpt lat="46.018743440808834" lon="9.224229585234706"><ele>396.0</ele><time>2026-05-02T12:49:26Z</time></trkpt><trkpt lat="46.018743663718524" lon="9.224101501911058"><ele>397.20000000000005</ele><time>2026-05-02T12:49:27Z</time></trkpt><trkpt lat="46.01875296471178" lon="9.223955986918815"><ele>398.40000000000003</ele><time>2026-05-02T12:49:28Z</time></trkpt><trkpt lat="46.01878739378887" lon="9.22381346202695"><ele>399.6</ele><time>2026-05-02T12:49:29Z</time></trkpt><trkpt lat="46.01883901903206" lon="9.223666688186364"><ele>400.8</ele><time>2026-05-02T12:49:30Z</time></trkpt><trkpt lat="46.01888906157686" lon="9.223497097110425"><ele>402.0</ele><time>2026-05-02T12:49:31Z</time></trkpt><trkpt lat="46.01894369746818" lon="9.223317965915149"><ele>399.0</ele><time>2026-05-02T12:49:32Z</time></trkpt><trkpt lat="46.01899812035558" lon="9.223133865072386"><ele>396.0</ele><time>2026-05-02T12:49:33Z</time></trkpt><trkpt lat="46.019050115129986" lon="9.22296283900659"><ele>393.0</ele><time>2026-05-02T12:49:34Z</time></trkpt><trkpt lat="46.01910225435163" lon="9.222787237937188"><ele>390.0</ele><time>2026-05-02T12:49:35Z</time></trkpt><trkpt lat="46.019159043106086" lon="9.222610712206254"><ele>390.0</ele><time>2026-05-02T12:49:36Z</time></trkpt><trkpt lat="46.01922256799427" lon="9.222440998469832"><ele>390.0</ele><time>2026-05-02T12:49:37Z</time></trkpt><trkpt lat="46.01929874070805" lon="9.222272105783297"><ele>390.0</ele><time>2026-05-02T12:49:38Z</time></trkpt><trkpt lat="46.019381766475824" lon="9.222114439908065"><ele>390.0</ele><time>2026-05-02T12:49:39Z</time></trkpt><trkpt lat="46.01947133808085" lon="9.221969775234529"><ele>392.25</ele><time>2026-05-02T12:49:40Z</time></trkpt><trkpt lat="46.01955825063368" lon="9.22181277780141"><ele>394.5</ele><time>2026-05-02T12:49:41Z</time></trkpt><trkpt lat="46.01964633060318" lon="9.221642171090416"><ele>396.75</ele><time>2026-05-02T12:49:42Z</time></trkpt><trkpt lat="46.0197186233465" lon="9.221451512222735"><ele>399.0</ele><time>2026-05-02T12:49:43Z</time></trkpt><trkpt lat="46.019773930105174" lon="9.221276151779952"><ele>400.75</ele><time>2026-05-02T12:49:44Z</time></trkpt><trkpt lat="46.0198241797077" lon="9.221085814519403"><ele>402.5</ele><time>2026-05-02T12:49:45Z</time></trkpt><trkpt lat="46.01987515383579" lon="9.220912671236325"><ele>404.25</ele><time>2026-05-02T12:49:46Z</time></trkpt><trkpt lat="46.01993808843956" lon="9.220735596643838"><ele>406.0</ele><time>2026-05-02T12:49:47Z</time></trkpt><trkpt lat="46.01999551242071" lon="9.22054986896156"><ele>402.5</ele><time>2026-05-02T12:49:48Z</time></trkpt><trkpt lat="46.02005509370115" lon="9.220352723874107"><ele>399.0</ele><time>2026-05-02T12:49:49Z</time></trkpt><trkpt lat="46.020119504483624" lon="9.220159511333542"><ele>395.5</ele><time>2026-05-02T12:49:50Z</time></trkpt><trkpt lat="46.02018304120944" lon="9.219976306187462"><ele>392.0</ele><time>2026-05-02T12:49:51Z</time></trkpt><trkpt lat="46.02023239076858" lon="9.219789068311107"><ele>392.0</ele><time>2026-05-02T12:49:52Z</time></trkpt><trkpt lat="46.020297075291495" lon="9.2196055791228"><ele>392.0</ele><time>2026-05-02T12:49:53Z</time></trkpt><trkpt lat="46.02035350858708" lon="9.219423680388855"><ele>392.0</ele><time>2026-05-02T12:49:54Z</time></trkpt><trkpt lat="46.02041044181802" lon="9.21924385939516"><ele>392.0</ele><time>2026-05-02T12:49:55Z</time></trkpt><trkpt lat="46.02046531702079" lon="9.219051399049983"><ele>395.25</ele><time>2026-05-02T12:49:56Z</time></trkpt><trkpt lat="46.02052240257961" lon="9.21886532032506"><ele>398.5</ele><time>2026-05-02T12:49:57Z</time></trkpt><trkpt lat="46.02058082394666" lon="9.218677846352682"><ele>401.75</ele><time>2026-05-02T12:49:58Z</time></trkpt><trkpt lat="46.0206364242606" lon="9.218498166644327"><ele>405.0</ele><time>2026-05-02T12:49:59Z</time></trkpt><trkpt lat="46.020694407718956" lon="9.218319730567478"><ele>401.75</ele><time>2026-05-02T12:50:00Z</time></trkpt><trkpt lat="46.02074960169248" lon="9.218141572648257"><ele>398.5</ele><time>2026-05-02T12:50:01Z</time></trkpt><trkpt lat="46.02081002244439" lon="9.2179563571057"><ele>395.25</ele><time>2026-05-02T12:50:02Z</time></trkpt><trkpt lat="46.020873205412336" lon="9.2177829726732"><ele>392.0</ele><time>2026-05-02T12:50:03Z</time></trkpt><trkpt lat="46.02094567115577" lon="9.217611552034159"><ele>392.0</ele><time>2026-05-02T12:50:04Z</time></trkpt><trkpt lat="46.02103995578994" lon="9.217441213896375"><ele>392.0</ele><time>2026-05-02T12:50:05Z</time></trkpt><trkpt lat="46.02113642302476" lon="9.217281090605326"><ele>392.0</ele><time>2026-05-02T12:50:06Z</time></trkpt><trkpt lat="46.02123503142675" lon="9.217147163916449"><ele>392.0</ele><time>2026-05-02T12:50:07Z</time></trkpt><trkpt lat="46.02133608552762" lon="9.2169997679093"><ele>392.75</ele><time>2026-05-02T12:50:08Z</time></trkpt><trkpt lat="46.02143148686155" lon="9.21685600035048"><ele>393.5</ele><time>2026-05-02T12:50:09Z</time></trkpt><trkpt lat="46.02152282957146" lon="9.216722985134233"><ele>394.25</ele><time>2026-05-02T12:50:10Z</time></trkpt><trkpt lat="46.021617734088466" lon="9.2165822763058"><ele>395.0</ele><time>2026-05-02T12:50:11Z</time></trkpt><trkpt lat="46.02171740126011" lon="9.216446661538713"><ele>395.0</ele><time>2026-05-02T12:50:12Z</time></trkpt><trkpt lat="46.0218023711363" lon="9.216309168303855"><ele>395.0</ele><time>2026-05-02T12:50:13Z</time></trkpt><trkpt lat="46.02189312944192" lon="9.21618165704144"><ele>395.0</ele><time>2026-05-02T12:50:13.999Z</time></trkpt><trkpt lat="46.02198728187242" lon="9.216057772803927"><ele>395.0</ele><time>2026-05-02T12:50:14.999Z</time></trkpt><trkpt lat="46.022085678043936" lon="9.215914669335978"><ele>395.0</ele><time>2026-05-02T12:50:15.999Z</time></trkpt><trkpt lat="46.0221702610312" lon="9.21575724221707"><ele>395.0</ele><time>2026-05-02T12:50:16.999Z</time></trkpt><trkpt lat="46.022235598724514" lon="9.215593663452566"><ele>395.0</ele><time>2026-05-02T12:50:17.999Z</time></trkpt><trkpt lat="46.02228054398575" lon="9.21541997262818"><ele>395.0</ele><time>2026-05-02T12:50:18.999Z</time></trkpt><trkpt lat="46.022323829466394" lon="9.215244846410064"><ele>394.0</ele><time>2026-05-02T12:50:19.999Z</time></trkpt><trkpt lat="46.02238100746628" lon="9.215075012215339"><ele>393.0</ele><time>2026-05-02T12:50:20.999Z</time></trkpt><trkpt lat="46.022444393891845" lon="9.214905895242662"><ele>392.0</ele><time>2026-05-02T12:50:21.999Z</time></trkpt><trkpt lat="46.022527066959064" lon="9.214761672944515"><ele>391.0</ele><time>2026-05-02T12:50:22.999Z</time></trkpt><trkpt lat="46.02260727322202" lon="9.2146377753863"><ele>391.0</ele><time>2026-05-02T12:50:23.999Z</time></trkpt><trkpt lat="46.022702329583446" lon="9.21454034661946"><ele>391.0</ele><time>2026-05-02T12:50:24.999Z</time></trkpt><trkpt lat="46.02276938636974" lon="9.21443803245627"><ele>391.0</ele><time>2026-05-02T12:50:25.999Z</time></trkpt><trkpt lat="46.022832211561266" lon="9.214348059800516"><ele>391.0</ele><time>2026-05-02T12:50:26.999Z</time></trkpt><trkpt lat="46.02288006384179" lon="9.214272762721228"><ele>391.0</ele><time>2026-05-02T12:50:27.999Z</time></trkpt><trkpt lat="46.022950091866555" lon="9.214153989311752"><ele>391.0</ele><time>2026-05-02T12:50:29.999Z</time></trkpt><trkpt lat="46.02301723242998" lon="9.21405688364542"><ele>391.0</ele><time>2026-05-02T12:50:31.999Z</time></trkpt><trkpt lat="46.02310039867235" lon="9.213936398784572"><ele>391.0</ele><time>2026-05-02T12:50:33.999Z</time></trkpt><trkpt lat="46.02315243548795" lon="9.21385540164926"><ele>391.0</ele><time>2026-05-02T12:50:34.999Z</time></trkpt><trkpt lat="46.023209335450375" lon="9.213776483169084"><ele>391.0</ele><time>2026-05-02T12:50:35.999Z</time></trkpt><trkpt lat="46.023265604463276" lon="9.21368584242988"><ele>388.75</ele><time>2026-05-02T12:50:36.999Z</time></trkpt><trkpt lat="46.02334624579531" lon="9.213582987330128"><ele>386.5</ele><time>2026-05-02T12:50:37.999Z</time></trkpt><trkpt lat="46.023430639661186" lon="9.213459089960201"><ele>384.25</ele><time>2026-05-02T12:50:38.999Z</time></trkpt><trkpt lat="46.02352340793809" lon="9.21332506847982"><ele>382.0</ele><time>2026-05-02T12:50:39.999Z</time></trkpt><trkpt lat="46.02360636220643" lon="9.21319678733995"><ele>386.0</ele><time>2026-05-02T12:50:40.999Z</time></trkpt><trkpt lat="46.023711518521644" lon="9.21307769104708"><ele>390.0</ele><time>2026-05-02T12:50:41.999Z</time></trkpt><trkpt lat="46.02381867472897" lon="9.212935567468827"><ele>394.0</ele><time>2026-05-02T12:50:42.999Z</time></trkpt><trkpt lat="46.02392432315624" lon="9.212803037720917"><ele>398.0</ele><time>2026-05-02T12:50:43.999Z</time></trkpt><trkpt lat="46.02403296695295" lon="9.212662291623788"><ele>398.0</ele><time>2026-05-02T12:50:44.999Z</time></trkpt><trkpt lat="46.02413659930431" lon="9.212496057892755"><ele>398.0</ele><time>2026-05-02T12:50:45.999Z</time></trkpt><trkpt lat="46.02422753458265" lon="9.21232168153371"><ele>398.0</ele><time>2026-05-02T12:50:46.999Z</time></trkpt><trkpt lat="46.02431377455316" lon="9.212140523286257"><ele>394.3333333333333</ele><time>2026-05-02T12:50:47.999Z</time></trkpt><trkpt lat="46.02438221880981" lon="9.211951995950939"><ele>390.66666666666663</ele><time>2026-05-02T12:50:48.999Z</time></trkpt><trkpt lat="46.02442122213138" lon="9.21174183013091"><ele>387.0</ele><time>2026-05-02T12:50:49.999Z</time></trkpt><trkpt lat="46.02443944798859" lon="9.211511966747599"><ele>390.0</ele><time>2026-05-02T12:50:50.999Z</time></trkpt><trkpt lat="46.02445278528893" lon="9.211293761112163"><ele>393.0</ele><time>2026-05-02T12:50:51.999Z</time></trkpt><trkpt lat="46.02447277580356" lon="9.211081386222654"><ele>396.0</ele><time>2026-05-02T12:50:52.999Z</time></trkpt><trkpt lat="46.02452089237714" lon="9.210886883402285"><ele>399.0</ele><time>2026-05-02T12:50:53.999Z</time></trkpt><trkpt lat="46.024569077756446" lon="9.210734080482029"><ele>401.0</ele><time>2026-05-02T12:50:54.999Z</time></trkpt><trkpt lat="46.024647618433086" lon="9.210511977078834"><ele>403.0</ele><time>2026-05-02T12:50:55.999Z</time></trkpt><trkpt lat="46.02474499600575" lon="9.210214503539547"><ele>405.0</ele><time>2026-05-02T12:50:56.999Z</time></trkpt><trkpt lat="46.02479695635829" lon="9.209930554665341"><ele>406.0</ele><time>2026-05-02T12:50:57.999Z</time></trkpt><trkpt lat="46.024809390781336" lon="9.209671153926173"><ele>407.0</ele><time>2026-05-02T12:50:58.999Z</time></trkpt><trkpt lat="46.024802376807166" lon="9.209418830612595"><ele>408.0</ele><time>2026-05-02T12:50:59.999Z</time></trkpt><trkpt lat="46.02481107697765" lon="9.209175249080992"><ele>408.33333333333337</ele><time>2026-05-02T12:51:00.999Z</time></trkpt><trkpt lat="46.02483998499884" lon="9.208927124901054"><ele>408.6666666666667</ele><time>2026-05-02T12:51:01.999Z</time></trkpt><trkpt lat="46.024920842477215" lon="9.208708620192768"><ele>409.0</ele><time>2026-05-02T12:51:02.999Z</time></trkpt><trkpt lat="46.02501751786752" lon="9.208503896458055"><ele>400.0</ele><time>2026-05-02T12:51:03.999Z</time></trkpt><trkpt lat="46.0251336102718" lon="9.208317585668047"><ele>391.0</ele><time>2026-05-02T12:51:04.999Z</time></trkpt><trkpt lat="46.02525444328798" lon="9.208137433894992"><ele>382.0</ele><time>2026-05-02T12:51:05.999Z</time></trkpt><trkpt lat="46.02538209153477" lon="9.207953190351"><ele>382.0</ele><time>2026-05-02T12:51:06.999Z</time></trkpt><trkpt lat="46.02551540505292" lon="9.207749453430695"><ele>382.0</ele><time>2026-05-02T12:51:07.999Z</time></trkpt><trkpt lat="46.025648059547635" lon="9.207522332205063"><ele>382.0</ele><time>2026-05-02T12:51:08.999Z</time></trkpt><trkpt lat="46.02579228700218" lon="9.20731434601206"><ele>378.3333333333333</ele><time>2026-05-02T12:51:09.999Z</time></trkpt><trkpt lat="46.02591793219645" lon="9.207120683907865"><ele>374.6666666666667</ele><time>2026-05-02T12:51:10.999Z</time></trkpt><trkpt lat="46.02604405742442" lon="9.20692510989827"><ele>371.0</ele><time>2026-05-02T12:51:11.999Z</time></trkpt><trkpt lat="46.026168588656404" lon="9.206722988407007"><ele>371.0</ele><time>2026-05-02T12:51:12.999Z</time></trkpt><trkpt lat="46.02628268906038" lon="9.20651704608288"><ele>371.0</ele><time>2026-05-02T12:51:13.999Z</time></trkpt><trkpt lat="46.02639513105134" lon="9.206312379638558"><ele>371.0</ele><time>2026-05-02T12:51:14.999Z</time></trkpt><trkpt lat="46.026501795385585" lon="9.2060900356612"><ele>370.33333333333337</ele><time>2026-05-02T12:51:15.999Z</time></trkpt><trkpt lat="46.02660277488989" lon="9.205846693078655"><ele>369.6666666666667</ele><time>2026-05-02T12:51:16.999Z</time></trkpt><trkpt lat="46.02670518617224" lon="9.205591938492054"><ele>369.0</ele><time>2026-05-02T12:51:17.999Z</time></trkpt><trkpt lat="46.02680789302959" lon="9.205334754186485"><ele>369.0</ele><time>2026-05-02T12:51:18.999Z</time></trkpt><trkpt lat="46.02691439240229" lon="9.205078505325716"><ele>369.0</ele><time>2026-05-02T12:51:19.999Z</time></trkpt><trkpt lat="46.027008726941865" lon="9.204824123990056"><ele>369.0</ele><time>2026-05-02T12:51:20.999Z</time></trkpt><trkpt lat="46.027112574972485" lon="9.204561888750698"><ele>369.0</ele><time>2026-05-02T12:51:21.999Z</time></trkpt><trkpt lat="46.02721954168848" lon="9.204303811743227"><ele>369.0</ele><time>2026-05-02T12:51:22.999Z</time></trkpt><trkpt lat="46.027330910870496" lon="9.204043476971584"><ele>369.0</ele><time>2026-05-02T12:51:23.999Z</time></trkpt><trkpt lat="46.02743091239939" lon="9.203792243160544"><ele>371.6666666666667</ele><time>2026-05-02T12:51:24.999Z</time></trkpt><trkpt lat="46.02753429020942" lon="9.203525140889354"><ele>374.33333333333337</ele><time>2026-05-02T12:51:25.999Z</time></trkpt><trkpt lat="46.02763497268198" lon="9.203258789255981"><ele>377.0</ele><time>2026-05-02T12:51:26.999Z</time></trkpt><trkpt lat="46.02772079383172" lon="9.20298121327842"><ele>377.6666666666667</ele><time>2026-05-02T12:51:27.999Z</time></trkpt><trkpt lat="46.02779897512308" lon="9.202707971439324"><ele>378.3333333333333</ele><time>2026-05-02T12:51:28.999Z</time></trkpt><trkpt lat="46.02786988369445" lon="9.202432028474863"><ele>379.0</ele><time>2026-05-02T12:51:29.999Z</time></trkpt><trkpt lat="46.027945139424695" lon="9.202147067814593"><ele>380.3333333333333</ele><time>2026-05-02T12:51:30.999Z</time></trkpt><trkpt lat="46.02801534425339" lon="9.201850901086061"><ele>381.6666666666667</ele><time>2026-05-02T12:51:31.999Z</time></trkpt><trkpt lat="46.02807708045687" lon="9.201555354472708"><ele>383.0</ele><time>2026-05-02T12:51:32.999Z</time></trkpt><trkpt lat="46.02813414955356" lon="9.201273163769784"><ele>381.33333333333337</ele><time>2026-05-02T12:51:33.999Z</time></trkpt><trkpt lat="46.02819009774292" lon="9.20098656718973"><ele>379.6666666666667</ele><time>2026-05-02T12:51:34.999Z</time></trkpt><trkpt lat="46.02825408308288" lon="9.20069608158003"><ele>378.0</ele><time>2026-05-02T12:51:35.999Z</time></trkpt><trkpt lat="46.02832485023987" lon="9.200409961413396"><ele>378.0</ele><time>2026-05-02T12:51:36.999Z</time></trkpt><trkpt lat="46.02841062724211" lon="9.200131775625277"><ele>378.0</ele><time>2026-05-02T12:51:37.999Z</time></trkpt><trkpt lat="46.028504608512534" lon="9.199861477204498"><ele>378.0</ele><time>2026-05-02T12:51:38.999Z</time></trkpt><trkpt lat="46.02860722078482" lon="9.199594682742624"><ele>376.3333333333333</ele><time>2026-05-02T12:51:39.999Z</time></trkpt><trkpt lat="46.028702222836046" lon="9.199307700802558"><ele>374.66666666666663</ele><time>2026-05-02T12:51:40.999Z</time></trkpt><trkpt lat="46.028783248286246" lon="9.199016847360808"><ele>373.0</ele><time>2026-05-02T12:51:41.999Z</time></trkpt><trkpt lat="46.0288623374724" lon="9.198735360204482"><ele>370.0</ele><time>2026-05-02T12:51:43Z</time></trkpt><trkpt lat="46.02894056040544" lon="9.198459938640713"><ele>367.0</ele><time>2026-05-02T12:51:44Z</time></trkpt><trkpt lat="46.029019853241714" lon="9.19818679038428"><ele>364.0</ele><time>2026-05-02T12:51:45Z</time></trkpt><trkpt lat="46.029111154234336" lon="9.197918216460236"><ele>367.0</ele><time>2026-05-02T12:51:46Z</time></trkpt><trkpt lat="46.02919981103974" lon="9.197638143421283"><ele>370.0</ele><time>2026-05-02T12:51:47Z</time></trkpt><trkpt lat="46.02929057782576" lon="9.197359000473506"><ele>373.0</ele><time>2026-05-02T12:51:48Z</time></trkpt><trkpt lat="46.02939280218893" lon="9.197092125156061"><ele>373.0</ele><time>2026-05-02T12:51:49Z</time></trkpt><trkpt lat="46.02950841452821" lon="9.196832658305993"><ele>373.0</ele><time>2026-05-02T12:51:50Z</time></trkpt><trkpt lat="46.02964348235672" lon="9.196586474043393"><ele>373.0</ele><time>2026-05-02T12:51:51Z</time></trkpt><trkpt lat="46.02975950530177" lon="9.196319018977022"><ele>366.0</ele><time>2026-05-02T12:51:52Z</time></trkpt><trkpt lat="46.02989887492691" lon="9.19606383932338"><ele>359.0</ele><time>2026-05-02T12:51:53Z</time></trkpt><trkpt lat="46.03004178375923" lon="9.19581257141816"><ele>366.0</ele><time>2026-05-02T12:51:54Z</time></trkpt><trkpt lat="46.03018606424419" lon="9.195554533120873"><ele>373.0</ele><time>2026-05-02T12:51:55Z</time></trkpt><trkpt lat="46.03033057889832" lon="9.195298259212459"><ele>373.0</ele><time>2026-05-02T12:51:56Z</time></trkpt><trkpt lat="46.030475576437034" lon="9.195036727810713"><ele>373.0</ele><time>2026-05-02T12:51:57Z</time></trkpt><trkpt lat="46.03062349439703" lon="9.19477891241012"><ele>376.0</ele><time>2026-05-02T12:51:58Z</time></trkpt><trkpt lat="46.03076390408558" lon="9.19451448551539"><ele>379.0</ele><time>2026-05-02T12:51:59Z</time></trkpt><trkpt lat="46.03091096663616" lon="9.194250483520126"><ele>374.5</ele><time>2026-05-02T12:52:00Z</time></trkpt><trkpt lat="46.03105012585003" lon="9.193988268569736"><ele>370.0</ele><time>2026-05-02T12:52:01Z</time></trkpt><trkpt lat="46.03118898836965" lon="9.193728317881448"><ele>370.0</ele><time>2026-05-02T12:52:02Z</time></trkpt><trkpt lat="46.03131896212177" lon="9.19347312950675"><ele>370.0</ele><time>2026-05-02T12:52:03Z</time></trkpt><trkpt lat="46.0314562897231" lon="9.193213233577776"><ele>370.0</ele><time>2026-05-02T12:52:04Z</time></trkpt><trkpt lat="46.031597122510476" lon="9.192959044388335"><ele>371.3333333333333</ele><time>2026-05-02T12:52:05Z</time></trkpt><trkpt lat="46.03173237951288" lon="9.192705384120009"><ele>372.6666666666667</ele><time>2026-05-02T12:52:06Z</time></trkpt><trkpt lat="46.03185504896165" lon="9.192456311089993"><ele>374.0</ele><time>2026-05-02T12:52:07Z</time></trkpt><trkpt lat="46.031981812304444" lon="9.192189601475267"><ele>371.0</ele><time>2026-05-02T12:52:08Z</time></trkpt><trkpt lat="46.03210719874848" lon="9.191938744900954"><ele>368.0</ele><time>2026-05-02T12:52:09Z</time></trkpt><trkpt lat="46.03223137747912" lon="9.191685022887288"><ele>365.0</ele><time>2026-05-02T12:52:10Z</time></trkpt><trkpt lat="46.03235841732941" lon="9.191433479924441"><ele>366.33333333333337</ele><time>2026-05-02T12:52:11Z</time></trkpt><trkpt lat="46.032479312140715" lon="9.19118149452502"><ele>367.6666666666667</ele><time>2026-05-02T12:52:12Z</time></trkpt><trkpt lat="46.03261119951575" lon="9.190929988194414"><ele>369.0</ele><time>2026-05-02T12:52:13Z</time></trkpt><trkpt lat="46.032733230019026" lon="9.190674095813893"><ele>369.0</ele><time>2026-05-02T12:52:13.999Z</time></trkpt><trkpt lat="46.03285546734979" lon="9.190433250760162"><ele>369.0</ele><time>2026-05-02T12:52:14.999Z</time></trkpt><trkpt lat="46.03297485118888" lon="9.190190085139925"><ele>369.0</ele><time>2026-05-02T12:52:15.999Z</time></trkpt><trkpt lat="46.03309945940922" lon="9.189957434694577"><ele>370.6666666666667</ele><time>2026-05-02T12:52:16.999Z</time></trkpt><trkpt lat="46.03321508231764" lon="9.189726830619193"><ele>372.33333333333337</ele><time>2026-05-02T12:52:17.999Z</time></trkpt><trkpt lat="46.0333222915491" lon="9.189509257970949"><ele>374.0</ele><time>2026-05-02T12:52:18.999Z</time></trkpt><trkpt lat="46.03342034680555" lon="9.189292652480555"><ele>374.0</ele><time>2026-05-02T12:52:19.999Z</time></trkpt><trkpt lat="46.03350749714409" lon="9.189074757114094"><ele>374.0</ele><time>2026-05-02T12:52:20.999Z</time></trkpt><trkpt lat="46.03360472878478" lon="9.188852925351084"><ele>374.0</ele><time>2026-05-02T12:52:21.999Z</time></trkpt><trkpt lat="46.03371173839809" lon="9.188645873443846"><ele>371.33333333333337</ele><time>2026-05-02T12:52:22.999Z</time></trkpt><trkpt lat="46.03383323793468" lon="9.188459297663696"><ele>368.6666666666667</ele><time>2026-05-02T12:52:23.999Z</time></trkpt><trkpt lat="46.03397373209108" lon="9.188287132853272"><ele>366.0</ele><time>2026-05-02T12:52:24.999Z</time></trkpt><trkpt lat="46.034126740716715" lon="9.188116149558493"><ele>367.6666666666667</ele><time>2026-05-02T12:52:25.999Z</time></trkpt><trkpt lat="46.03426864399467" lon="9.18794884580403"><ele>369.33333333333337</ele><time>2026-05-02T12:52:26.999Z</time></trkpt><trkpt lat="46.03442140636447" lon="9.187781299371714"><ele>371.0</ele><time>2026-05-02T12:52:27.999Z</time></trkpt><trkpt lat="46.03456879141464" lon="9.187608791752131"><ele>371.0</ele><time>2026-05-02T12:52:28.999Z</time></trkpt><trkpt lat="46.03472539226223" lon="9.18742016189523"><ele>371.0</ele><time>2026-05-02T12:52:29.999Z</time></trkpt><trkpt lat="46.03488134802055" lon="9.187234975807472"><ele>371.0</ele><time>2026-05-02T12:52:30.999Z</time></trkpt><trkpt lat="46.03503651672274" lon="9.187045061500205"><ele>370.0</ele><time>2026-05-02T12:52:31.999Z</time></trkpt><trkpt lat="46.03516828958505" lon="9.186852862623237"><ele>369.0</ele><time>2026-05-02T12:52:32.999Z</time></trkpt><trkpt lat="46.03529239873233" lon="9.186647988135208"><ele>368.0</ele><time>2026-05-02T12:52:33.999Z</time></trkpt><trkpt lat="46.03542220260283" lon="9.186432238414081"><ele>368.0</ele><time>2026-05-02T12:52:34.999Z</time></trkpt><trkpt lat="46.03556453282332" lon="9.186248048518854"><ele>368.0</ele><time>2026-05-02T12:52:35.999Z</time></trkpt><trkpt lat="46.0357318061527" lon="9.18608062805628"><ele>368.0</ele><time>2026-05-02T12:52:36.999Z</time></trkpt><trkpt lat="46.03587723088092" lon="9.185891428968898"><ele>363.0</ele><time>2026-05-02T12:52:37.999Z</time></trkpt><trkpt lat="46.03600166623559" lon="9.185671751435589"><ele>358.0</ele><time>2026-05-02T12:52:38.999Z</time></trkpt><trkpt lat="46.036111405201375" lon="9.185358922116434"><ele>353.0</ele><time>2026-05-02T12:52:39.999Z</time></trkpt><trkpt lat="46.036226995007866" lon="9.184985353969331"><ele>350.33333333333337</ele><time>2026-05-02T12:52:40.999Z</time></trkpt><trkpt lat="46.03634398035452" lon="9.184645400178887"><ele>347.6666666666667</ele><time>2026-05-02T12:52:41.999Z</time></trkpt><trkpt lat="46.036364802508615" lon="9.18438917276947"><ele>345.0</ele><time>2026-05-02T12:52:42.999Z</time></trkpt><trkpt lat="46.03640782801238" lon="9.184151691936234"><ele>346.0</ele><time>2026-05-02T12:52:43.999Z</time></trkpt><trkpt lat="46.036489448892645" lon="9.183881224707815"><ele>347.0</ele><time>2026-05-02T12:52:44.999Z</time></trkpt><trkpt lat="46.03660244995178" lon="9.183601123956409"><ele>348.0</ele><time>2026-05-02T12:52:45.999Z</time></trkpt><trkpt lat="46.03669087015551" lon="9.183366304283608"><ele>344.0</ele><time>2026-05-02T12:52:46.999Z</time></trkpt><trkpt lat="46.0368105448296" lon="9.183112604907913"><ele>340.0</ele><time>2026-05-02T12:52:47.999Z</time></trkpt><trkpt lat="46.03694357036648" lon="9.18288837332419"><ele>336.0</ele><time>2026-05-02T12:52:48.999Z</time></trkpt><trkpt lat="46.03706113257578" lon="9.182642876859662"><ele>336.0</ele><time>2026-05-02T12:52:49.999Z</time></trkpt><trkpt lat="46.03717140667027" lon="9.182400575291881"><ele>336.0</ele><time>2026-05-02T12:52:50.999Z</time></trkpt><trkpt lat="46.03727225559433" lon="9.182163095839588"><ele>336.0</ele><time>2026-05-02T12:52:51.999Z</time></trkpt><trkpt lat="46.03737914884894" lon="9.181942510668563"><ele>337.0</ele><time>2026-05-02T12:52:52.999Z</time></trkpt><trkpt lat="46.03747325998241" lon="9.181715305615091"><ele>338.0</ele><time>2026-05-02T12:52:53.999Z</time></trkpt><trkpt lat="46.03755966423617" lon="9.18146426655021"><ele>339.0</ele><time>2026-05-02T12:52:54.999Z</time></trkpt><trkpt lat="46.03759160961619" lon="9.181188022847625"><ele>336.0</ele><time>2026-05-02T12:52:55.999Z</time></trkpt><trkpt lat="46.037632527633534" lon="9.180920894587535"><ele>333.0</ele><time>2026-05-02T12:52:56.999Z</time></trkpt><trkpt lat="46.03769966366312" lon="9.180644864806014"><ele>330.0</ele><time>2026-05-02T12:52:57.999Z</time></trkpt><trkpt lat="46.03778462880824" lon="9.180377940288531"><ele>327.3333333333333</ele><time>2026-05-02T12:52:58.999Z</time></trkpt><trkpt lat="46.03785975072317" lon="9.180114145896402"><ele>324.66666666666663</ele><time>2026-05-02T12:52:59.999Z</time></trkpt><trkpt lat="46.03792929179623" lon="9.179878103433108"><ele>322.0</ele><time>2026-05-02T12:53:00.999Z</time></trkpt><trkpt lat="46.03799476585463" lon="9.179661156852085"><ele>320.75</ele><time>2026-05-02T12:53:01.999Z</time></trkpt><trkpt lat="46.038054399565354" lon="9.179462464922128"><ele>319.5</ele><time>2026-05-02T12:53:02.999Z</time></trkpt><trkpt lat="46.03811449619167" lon="9.179276703973448"><ele>318.25</ele><time>2026-05-02T12:53:03.999Z</time></trkpt><trkpt lat="46.038159721936296" lon="9.179118823469874"><ele>317.0</ele><time>2026-05-02T12:53:04.999Z</time></trkpt><trkpt lat="46.03820352138386" lon="9.1789731121554"><ele>316.4</ele><time>2026-05-02T12:53:05.999Z</time></trkpt><trkpt lat="46.03824867274148" lon="9.178848780085504"><ele>315.79999999999995</ele><time>2026-05-02T12:53:06.999Z</time></trkpt><trkpt lat="46.03828615300718" lon="9.178760077792944"><ele>315.2</ele><time>2026-05-02T12:53:07.999Z</time></trkpt><trkpt lat="46.03835855800278" lon="9.178691655055196"><ele>314.59999999999997</ele><time>2026-05-02T12:53:12.999Z</time></trkpt><trkpt lat="46.038409580601844" lon="9.178542309998843"><ele>314.0</ele><time>2026-05-02T12:53:14.999Z</time></trkpt><trkpt lat="46.03845327375354" lon="9.178364043849228"><ele>315.5</ele><time>2026-05-02T12:53:16.999Z</time></trkpt><trkpt lat="46.038500182570765" lon="9.178273041273236"><ele>317.0</ele><time>2026-05-02T12:53:17.999Z</time></trkpt><trkpt lat="46.03856702577863" lon="9.178190285163007"><ele>318.5</ele><time>2026-05-02T12:53:18.999Z</time></trkpt><trkpt lat="46.03863255738314" lon="9.178109316100798"><ele>320.0</ele><time>2026-05-02T12:53:19.999Z</time></trkpt><trkpt lat="46.03869552523501" lon="9.178020969863077"><ele>321.5</ele><time>2026-05-02T12:53:20.999Z</time></trkpt><trkpt lat="46.03874687688208" lon="9.177932725095642"><ele>323.0</ele><time>2026-05-02T12:53:21.999Z</time></trkpt><trkpt lat="46.03882490760363" lon="9.177873230543252"><ele>323.0</ele><time>2026-05-02T12:53:23.999Z</time></trkpt><trkpt lat="46.03892979073999" lon="9.177644228349273"><ele>323.0</ele><time>2026-05-02T12:53:24.999Z</time></trkpt><trkpt lat="46.039000748823106" lon="9.177518033892637"><ele>323.0</ele><time>2026-05-02T12:53:25.999Z</time></trkpt><trkpt lat="46.03908192556212" lon="9.177407964293968"><ele>323.0</ele><time>2026-05-02T12:53:26.999Z</time></trkpt><trkpt lat="46.03913259290541" lon="9.177276703968081"><ele>322.79999999999995</ele><time>2026-05-02T12:53:27.999Z</time></trkpt><trkpt lat="46.03918430879817" lon="9.17715659387439"><ele>322.6</ele><time>2026-05-02T12:53:28.999Z</time></trkpt><trkpt lat="46.039223580688805" lon="9.17702896461048"><ele>322.4</ele><time>2026-05-02T12:53:29.999Z</time></trkpt><trkpt lat="46.039270890853786" lon="9.176897405195389"><ele>322.20000000000005</ele><time>2026-05-02T12:53:30.999Z</time></trkpt><trkpt lat="46.03928716460859" lon="9.176762442502211"><ele>322.0</ele><time>2026-05-02T12:53:31.999Z</time></trkpt><trkpt lat="46.03930744503918" lon="9.176626715253928"><ele>320.5</ele><time>2026-05-02T12:53:32.999Z</time></trkpt><trkpt lat="46.03932992930229" lon="9.176500998557628"><ele>319.0</ele><time>2026-05-02T12:53:33.999Z</time></trkpt><trkpt lat="46.03935155217444" lon="9.176386971592787"><ele>317.5</ele><time>2026-05-02T12:53:34.999Z</time></trkpt><trkpt lat="46.03936057501392" lon="9.176294325517743"><ele>316.0</ele><time>2026-05-02T12:53:36Z</time></trkpt><trkpt lat="46.039366778568" lon="9.176191587555099"><ele>314.5</ele><time>2026-05-02T12:53:41Z</time></trkpt><trkpt lat="46.039248096684126" lon="9.176232648216194"><ele>313.0</ele><time>2026-05-02T12:53:49Z</time></trkpt><trkpt lat="46.039335570732405" lon="9.1762044649422"><ele>313.0</ele><time>2026-05-02T12:53:52Z</time></trkpt><trkpt lat="46.03940740468647" lon="9.176261149877382"><ele>313.0</ele><time>2026-05-02T12:53:54Z</time></trkpt><trkpt lat="46.039413965200275" lon="9.176400322676617"><ele>313.0</ele><time>2026-05-02T12:53:56Z</time></trkpt><trkpt lat="46.03939273903511" lon="9.17649500048249"><ele>313.0</ele><time>2026-05-02T12:53:57Z</time></trkpt><trkpt lat="46.03936210370525" lon="9.176615744773512"><ele>313.0</ele><time>2026-05-02T12:53:58Z</time></trkpt><trkpt lat="46.03932639909837" lon="9.17676408567686"><ele>313.0</ele><time>2026-05-02T12:53:59Z</time></trkpt><trkpt lat="46.03921915928579" lon="9.176880054314449"><ele>313.2</ele><time>2026-05-02T12:54:00Z</time></trkpt><trkpt lat="46.03918959589002" lon="9.177021045805358"><ele>313.4</ele><time>2026-05-02T12:54:01Z</time></trkpt><trkpt lat="46.039159090759554" lon="9.177139046730717"><ele>313.59999999999997</ele><time>2026-05-02T12:54:02Z</time></trkpt><trkpt lat="46.039123767909864" lon="9.177241460307457"><ele>313.8</ele><time>2026-05-02T12:54:03Z</time></trkpt><trkpt lat="46.039075320303574" lon="9.177344308383605"><ele>314.0</ele><time>2026-05-02T12:54:04Z</time></trkpt><trkpt lat="46.039009292680475" lon="9.177457451304697"><ele>317.0</ele><time>2026-05-02T12:54:05Z</time></trkpt><trkpt lat="46.038924300359355" lon="9.17759491411872"><ele>320.0</ele><time>2026-05-02T12:54:06Z</time></trkpt><trkpt lat="46.03882463569977" lon="9.177750454142519"><ele>323.0</ele><time>2026-05-02T12:54:07Z</time></trkpt><trkpt lat="46.03870478645812" lon="9.177936880271359"><ele>323.0</ele><time>2026-05-02T12:54:08Z</time></trkpt><trkpt lat="46.038626573481984" lon="9.178056557342128"><ele>323.0</ele><time>2026-05-02T12:54:09Z</time></trkpt><trkpt lat="46.03853444510587" lon="9.178187589949369"><ele>323.0</ele><time>2026-05-02T12:54:10Z</time></trkpt><trkpt lat="46.03845434416432" lon="9.178298534628597"><ele>323.0</ele><time>2026-05-02T12:54:11Z</time></trkpt><trkpt lat="46.03839190324352" lon="9.178402897791493"><ele>323.1666666666667</ele><time>2026-05-02T12:54:12Z</time></trkpt><trkpt lat="46.03832819531724" lon="9.178469250242278"><ele>323.33333333333337</ele><time>2026-05-02T12:54:13Z</time></trkpt><trkpt lat="46.03826160255379" lon="9.17850862728962"><ele>323.5</ele><time>2026-05-02T12:54:14Z</time></trkpt><trkpt lat="46.03819357958215" lon="9.178561035599092"><ele>323.6666666666667</ele><time>2026-05-02T12:54:15Z</time></trkpt><trkpt lat="46.03823196036239" lon="9.178731497531125"><ele>323.8333333333333</ele><time>2026-05-02T12:54:17Z</time></trkpt><trkpt lat="46.0383003883842" lon="9.1787661387048"><ele>324.0</ele><time>2026-05-02T12:54:18Z</time></trkpt><trkpt lat="46.038378194159854" lon="9.178743041830932"><ele>324.0</ele><time>2026-05-02T12:54:19Z</time></trkpt><trkpt lat="46.03844255104757" lon="9.178681255605847"><ele>324.0</ele><time>2026-05-02T12:54:20Z</time></trkpt><trkpt lat="46.03850472923059" lon="9.178629721741665"><ele>324.0</ele><time>2026-05-02T12:54:21Z</time></trkpt><trkpt lat="46.03856604881276" lon="9.178550876005279"><ele>324.0</ele><time>2026-05-02T12:54:22Z</time></trkpt><trkpt lat="46.038618743906845" lon="9.17844431110072"><ele>324.0</ele><time>2026-05-02T12:54:23Z</time></trkpt><trkpt lat="46.038677452279856" lon="9.17833869735493"><ele>324.0</ele><time>2026-05-02T12:54:24Z</time></trkpt><trkpt lat="46.03873984831437" lon="9.178229640965561"><ele>323.75</ele><time>2026-05-02T12:54:25Z</time></trkpt><trkpt lat="46.03880417279117" lon="9.178142510698791"><ele>323.5</ele><time>2026-05-02T12:54:26Z</time></trkpt><trkpt lat="46.038885606065485" lon="9.178057240125792"><ele>323.25</ele><time>2026-05-02T12:54:27Z</time></trkpt><trkpt lat="46.03899128652244" lon="9.177991070188376"><ele>323.0</ele><time>2026-05-02T12:54:28Z</time></trkpt><trkpt lat="46.03913253004476" lon="9.177905127104108"><ele>324.25</ele><time>2026-05-02T12:54:29Z</time></trkpt><trkpt lat="46.03926208113692" lon="9.177819358569185"><ele>325.5</ele><time>2026-05-02T12:54:30Z</time></trkpt><trkpt lat="46.03938415338027" lon="9.177750326281453"><ele>326.75</ele><time>2026-05-02T12:54:31Z</time></trkpt><trkpt lat="46.039469594826" lon="9.177667314407147"><ele>328.0</ele><time>2026-05-02T12:54:32Z</time></trkpt><trkpt lat="46.03953670837843" lon="9.177512167543194"><ele>326.5</ele><time>2026-05-02T12:54:33Z</time></trkpt><trkpt lat="46.039563125453185" lon="9.177313004219846"><ele>325.0</ele><time>2026-05-02T12:54:34Z</time></trkpt><trkpt lat="46.039564860110936" lon="9.1771199748414"><ele>323.5</ele><time>2026-05-02T12:54:35Z</time></trkpt><trkpt lat="46.03958758681012" lon="9.176908602845002"><ele>322.0</ele><time>2026-05-02T12:54:36Z</time></trkpt><trkpt lat="46.03959795968411" lon="9.176707298565399"><ele>322.0</ele><time>2026-05-02T12:54:37Z</time></trkpt><trkpt lat="46.039612451053486" lon="9.176535531246596"><ele>322.0</ele><time>2026-05-02T12:54:38Z</time></trkpt><trkpt lat="46.039627609509516" lon="9.176383213900325"><ele>322.0</ele><time>2026-05-02T12:54:39Z</time></trkpt><trkpt lat="46.03966589034123" lon="9.176244467948203"><ele>322.0</ele><time>2026-05-02T12:54:40Z</time></trkpt><trkpt lat="46.039746072444835" lon="9.176174649274563"><ele>322.0</ele><time>2026-05-02T12:54:41Z</time></trkpt><trkpt lat="46.039865237203074" lon="9.176112781829854"><ele>325.66666666666663</ele><time>2026-05-02T12:54:42Z</time></trkpt><trkpt lat="46.03997138664899" lon="9.176094761898415"><ele>329.3333333333333</ele><time>2026-05-02T12:54:43Z</time></trkpt><trkpt lat="46.040117919423906" lon="9.176082794688943"><ele>333.0</ele><time>2026-05-02T12:54:44Z</time></trkpt><trkpt lat="46.04031301868196" lon="9.175979032081946"><ele>333.0</ele><time>2026-05-02T12:54:45Z</time></trkpt><trkpt lat="46.04040558390404" lon="9.17586041038116"><ele>333.0</ele><time>2026-05-02T12:54:46.999Z</time></trkpt><trkpt lat="46.040508870414236" lon="9.175722039500053"><ele>333.0</ele><time>2026-05-02T12:54:47.999Z</time></trkpt><trkpt lat="46.04058869378213" lon="9.175574766011728"><ele>333.0</ele><time>2026-05-02T12:54:48.999Z</time></trkpt><trkpt lat="46.040670171069394" lon="9.175468922891852"><ele>334.0</ele><time>2026-05-02T12:54:49.999Z</time></trkpt><trkpt lat="46.04075841508223" lon="9.175394924275517"><ele>335.0</ele><time>2026-05-02T12:54:50.999Z</time></trkpt><trkpt lat="46.040872226619925" lon="9.17539108833025"><ele>336.0</ele><time>2026-05-02T12:54:51.999Z</time></trkpt><trkpt lat="46.04098987526513" lon="9.175345234069745"><ele>337.0</ele><time>2026-05-02T12:54:52.999Z</time></trkpt><trkpt lat="46.04112942010763" lon="9.175378008251977"><ele>337.0</ele><time>2026-05-02T12:54:53.999Z</time></trkpt><trkpt lat="46.041247933548576" lon="9.175377301872238"><ele>337.0</ele><time>2026-05-02T12:54:54.999Z</time></trkpt><trkpt lat="46.041358455005316" lon="9.175346378929728"><ele>337.0</ele><time>2026-05-02T12:54:55.999Z</time></trkpt><trkpt lat="46.04146542091043" lon="9.17527410222942"><ele>337.0</ele><time>2026-05-02T12:54:56.999Z</time></trkpt><trkpt lat="46.041559456943624" lon="9.175161573296206"><ele>338.5</ele><time>2026-05-02T12:54:57.999Z</time></trkpt><trkpt lat="46.041642122981706" lon="9.175031360771987"><ele>340.0</ele><time>2026-05-02T12:54:58.999Z</time></trkpt><trkpt lat="46.041708435942965" lon="9.174876774722998"><ele>341.5</ele><time>2026-05-02T12:54:59.999Z</time></trkpt><trkpt lat="46.041760445252976" lon="9.17468666029789"><ele>343.0</ele><time>2026-05-02T12:55:00.999Z</time></trkpt><trkpt lat="46.04179787603306" lon="9.174480511832146"><ele>343.0</ele><time>2026-05-02T12:55:01.999Z</time></trkpt><trkpt lat="46.04183424468953" lon="9.174281917200556"><ele>343.0</ele><time>2026-05-02T12:55:02.999Z</time></trkpt><trkpt lat="46.04186865606947" lon="9.174072042689213"><ele>343.0</ele><time>2026-05-02T12:55:03.999Z</time></trkpt><trkpt lat="46.04191982338206" lon="9.173859782746428"><ele>343.0</ele><time>2026-05-02T12:55:04.999Z</time></trkpt><trkpt lat="46.04198590312088" lon="9.173636082855491"><ele>337.66666666666663</ele><time>2026-05-02T12:55:05.999Z</time></trkpt><trkpt lat="46.04204661842963" lon="9.173402257633393"><ele>332.3333333333333</ele><time>2026-05-02T12:55:06.999Z</time></trkpt><trkpt lat="46.04210342332891" lon="9.17317494962362"><ele>327.0</ele><time>2026-05-02T12:55:07.999Z</time></trkpt><trkpt lat="46.04215963955081" lon="9.172956346388604"><ele>325.0</ele><time>2026-05-02T12:55:08.999Z</time></trkpt><trkpt lat="46.042226132298296" lon="9.17272406625789"><ele>323.0</ele><time>2026-05-02T12:55:09.999Z</time></trkpt><trkpt lat="46.04231523720057" lon="9.172515854074062"><ele>321.0</ele><time>2026-05-02T12:55:10.999Z</time></trkpt><trkpt lat="46.04241913407029" lon="9.17232101656583"><ele>329.6666666666667</ele><time>2026-05-02T12:55:11.999Z</time></trkpt><trkpt lat="46.0425070900529" lon="9.172120584168002"><ele>338.33333333333337</ele><time>2026-05-02T12:55:12.999Z</time></trkpt><trkpt lat="46.042566598449184" lon="9.17191502607305"><ele>347.0</ele><time>2026-05-02T12:55:13.999Z</time></trkpt><trkpt lat="46.042580426147296" lon="9.171684067073677"><ele>346.0</ele><time>2026-05-02T12:55:14.999Z</time></trkpt><trkpt lat="46.042609979004325" lon="9.17146637131851"><ele>345.0</ele><time>2026-05-02T12:55:15.999Z</time></trkpt><trkpt lat="46.04265099541482" lon="9.17126712717363"><ele>344.0</ele><time>2026-05-02T12:55:16.999Z</time></trkpt><trkpt lat="46.042677973310674" lon="9.171058263651982"><ele>343.0</ele><time>2026-05-02T12:55:17.999Z</time></trkpt><trkpt lat="46.04274658043629" lon="9.170902159718397"><ele>343.0</ele><time>2026-05-02T12:55:18.999Z</time></trkpt><trkpt lat="46.042835514819785" lon="9.170737522269683"><ele>343.0</ele><time>2026-05-02T12:55:19.999Z</time></trkpt><trkpt lat="46.04295503722595" lon="9.17050917449835"><ele>343.0</ele><time>2026-05-02T12:55:20.999Z</time></trkpt><trkpt lat="46.043056782811426" lon="9.17032284995868"><ele>339.3333333333333</ele><time>2026-05-02T12:55:21.999Z</time></trkpt><trkpt lat="46.04312376828184" lon="9.170068837228364"><ele>335.6666666666667</ele><time>2026-05-02T12:55:22.999Z</time></trkpt><trkpt lat="46.04314419704705" lon="9.16984389549837"><ele>332.0</ele><time>2026-05-02T12:55:23.999Z</time></trkpt><trkpt lat="46.04315517166297" lon="9.169603420378797"><ele>329.33333333333337</ele><time>2026-05-02T12:55:24.999Z</time></trkpt><trkpt lat="46.04315868761904" lon="9.169317007565683"><ele>326.6666666666667</ele><time>2026-05-02T12:55:25.999Z</time></trkpt><trkpt lat="46.043193778663166" lon="9.169057671447447"><ele>324.0</ele><time>2026-05-02T12:55:26.999Z</time></trkpt><trkpt lat="46.04322568154773" lon="9.168810197610938"><ele>323.0</ele><time>2026-05-02T12:55:27.999Z</time></trkpt><trkpt lat="46.042926054137176" lon="9.16859920819962"><ele>322.0</ele><time>2026-05-02T12:55:28.999Z</time></trkpt><trkpt lat="46.04291658116919" lon="9.168460229492855"><ele>321.0</ele><time>2026-05-02T12:55:29.999Z</time></trkpt><trkpt lat="46.043398664309" lon="9.168335768835693"><ele>331.0</ele><time>2026-05-02T12:55:30.999Z</time></trkpt><trkpt lat="46.04354907796179" lon="9.168231331197758"><ele>341.0</ele><time>2026-05-02T12:55:31.999Z</time></trkpt><trkpt lat="46.0437448437297" lon="9.168029454276434"><ele>351.0</ele><time>2026-05-02T12:55:32.999Z</time></trkpt><trkpt lat="46.04386264816662" lon="9.167775401737451"><ele>351.0</ele><time>2026-05-02T12:55:33.999Z</time></trkpt><trkpt lat="46.04399761084739" lon="9.167541745001959"><ele>351.0</ele><time>2026-05-02T12:55:34.999Z</time></trkpt><trkpt lat="46.04413611653101" lon="9.167358740001113"><ele>351.0</ele><time>2026-05-02T12:55:35.999Z</time></trkpt><trkpt lat="46.044153717583896" lon="9.167266365122886"><ele>359.0</ele><time>2026-05-02T12:55:36.999Z</time></trkpt><trkpt lat="46.04421118113692" lon="9.16709657623442"><ele>367.0</ele><time>2026-05-02T12:55:37.999Z</time></trkpt><trkpt lat="46.044255925653815" lon="9.166805445545503"><ele>375.0</ele><time>2026-05-02T12:55:38.999Z</time></trkpt><trkpt lat="46.04430813327219" lon="9.166543466321794"><ele>371.5</ele><time>2026-05-02T12:55:39.999Z</time></trkpt><trkpt lat="46.04439210519244" lon="9.166341546605544"><ele>368.0</ele><time>2026-05-02T12:55:40.999Z</time></trkpt><trkpt lat="46.04443251408916" lon="9.166133088128165"><ele>364.5</ele><time>2026-05-02T12:55:42Z</time></trkpt><trkpt lat="46.04445763744457" lon="9.166002846938223"><ele>361.0</ele><time>2026-05-02T12:55:43Z</time></trkpt><trkpt lat="46.044707975720804" lon="9.1658358916031"><ele>359.66666666666663</ele><time>2026-05-02T12:55:44Z</time></trkpt><trkpt lat="46.04484267904241" lon="9.165653711698429"><ele>358.3333333333333</ele><time>2026-05-02T12:55:45Z</time></trkpt><trkpt lat="46.04495311804145" lon="9.165470892178991"><ele>357.0</ele><time>2026-05-02T12:55:46Z</time></trkpt><trkpt lat="46.04503460280105" lon="9.165275297677004"><ele>365.0</ele><time>2026-05-02T12:55:47Z</time></trkpt><trkpt lat="46.04510248177173" lon="9.165054179594879"><ele>373.0</ele><time>2026-05-02T12:55:48Z</time></trkpt><trkpt lat="46.04514877870735" lon="9.164823246084646"><ele>381.0</ele><time>2026-05-02T12:55:49Z</time></trkpt><trkpt lat="46.04517984874242" lon="9.1646082998634"><ele>381.0</ele><time>2026-05-02T12:55:50Z</time></trkpt><trkpt lat="46.045268617730294" lon="9.164323512549611"><ele>381.0</ele><time>2026-05-02T12:55:51Z</time></trkpt><trkpt lat="46.04532276350563" lon="9.164090481174878"><ele>381.0</ele><time>2026-05-02T12:55:52Z</time></trkpt><trkpt lat="46.04540376736207" lon="9.163866394524574"><ele>380.0</ele><time>2026-05-02T12:55:53Z</time></trkpt><trkpt lat="46.045472483326584" lon="9.163649689951365"><ele>379.0</ele><time>2026-05-02T12:55:54Z</time></trkpt><trkpt lat="46.04555437305664" lon="9.163444218411005"><ele>378.0</ele><time>2026-05-02T12:55:55Z</time></trkpt><trkpt lat="46.04565233524445" lon="9.163248870482047"><ele>375.6666666666667</ele><time>2026-05-02T12:55:56Z</time></trkpt><trkpt lat="46.04574837813089" lon="9.163037375036332"><ele>373.33333333333337</ele><time>2026-05-02T12:55:57Z</time></trkpt><trkpt lat="46.04583057191229" lon="9.1628211190883"><ele>371.0</ele><time>2026-05-02T12:55:58Z</time></trkpt><trkpt lat="46.04587946245274" lon="9.16257698411953"><ele>383.0</ele><time>2026-05-02T12:55:59Z</time></trkpt><trkpt lat="46.04589497313013" lon="9.162322819239805"><ele>395.0</ele><time>2026-05-02T12:56:00Z</time></trkpt><trkpt lat="46.04588891290592" lon="9.162064625115583"><ele>407.0</ele><time>2026-05-02T12:56:01Z</time></trkpt><trkpt lat="46.04589786144508" lon="9.16181978930035"><ele>407.0</ele><time>2026-05-02T12:56:02Z</time></trkpt><trkpt lat="46.04591324192692" lon="9.161596400758537"><ele>407.0</ele><time>2026-05-02T12:56:03Z</time></trkpt><trkpt lat="46.045946100916204" lon="9.16142295658876"><ele>407.0</ele><time>2026-05-02T12:56:04Z</time></trkpt><trkpt lat="46.04601747042969" lon="9.161249584217215"><ele>407.0</ele><time>2026-05-02T12:56:05Z</time></trkpt><trkpt lat="46.04613058269862" lon="9.161095658369872"><ele>406.66666666666663</ele><time>2026-05-02T12:56:06Z</time></trkpt><trkpt lat="46.04622831397756" lon="9.160934024783986"><ele>406.33333333333337</ele><time>2026-05-02T12:56:07Z</time></trkpt><trkpt lat="46.04633850195682" lon="9.160743408449576"><ele>406.0</ele><time>2026-05-02T12:56:08Z</time></trkpt><trkpt lat="46.04644451295353" lon="9.1605522506353"><ele>403.33333333333337</ele><time>2026-05-02T12:56:09Z</time></trkpt><trkpt lat="46.046517839540144" lon="9.160336750286074"><ele>400.66666666666663</ele><time>2026-05-02T12:56:10Z</time></trkpt><trkpt lat="46.046573483375475" lon="9.160104398135703"><ele>398.0</ele><time>2026-05-02T12:56:11Z</time></trkpt><trkpt lat="46.046609103954566" lon="9.159850306393349"><ele>408.3333333333333</ele><time>2026-05-02T12:56:12Z</time></trkpt><trkpt lat="46.04663367988661" lon="9.159593915907207"><ele>418.66666666666663</ele><time>2026-05-02T12:56:13Z</time></trkpt><trkpt lat="46.04665562242272" lon="9.159344786748315"><ele>429.0</ele><time>2026-05-02T12:56:14Z</time></trkpt><trkpt lat="46.04668787576824" lon="9.159109391950814"><ele>429.0</ele><time>2026-05-02T12:56:15Z</time></trkpt><trkpt lat="46.04672372003035" lon="9.158892258620428"><ele>429.0</ele><time>2026-05-02T12:56:16Z</time></trkpt><trkpt lat="46.04677430310352" lon="9.158688365361558"><ele>429.0</ele><time>2026-05-02T12:56:17Z</time></trkpt><trkpt lat="46.04686113834852" lon="9.158485392415313"><ele>429.0</ele><time>2026-05-02T12:56:18Z</time></trkpt><trkpt lat="46.046946633567885" lon="9.158265441532329"><ele>429.0</ele><time>2026-05-02T12:56:19Z</time></trkpt><trkpt lat="46.0470343644922" lon="9.158037189100767"><ele>429.0</ele><time>2026-05-02T12:56:20Z</time></trkpt><trkpt lat="46.04709458858861" lon="9.157914058113114"><ele>429.0</ele><time>2026-05-02T12:56:21Z</time></trkpt><trkpt lat="46.04714430772912" lon="9.157714925762175"><ele>429.0</ele><time>2026-05-02T12:56:22Z</time></trkpt><trkpt lat="46.047174253894205" lon="9.157564912908953"><ele>429.0</ele><time>2026-05-02T12:56:23Z</time></trkpt><trkpt lat="46.04720369600745" lon="9.157433048614456"><ele>429.0</ele><time>2026-05-02T12:56:24Z</time></trkpt><trkpt lat="46.04721791138342" lon="9.157253289789537"><ele>430.0</ele><time>2026-05-02T12:56:25Z</time></trkpt><trkpt lat="46.04727817243315" lon="9.157002236771694"><ele>431.0</ele><time>2026-05-02T12:56:26Z</time></trkpt><trkpt lat="46.04736360279732" lon="9.156842309218572"><ele>432.0</ele><time>2026-05-02T12:56:27Z</time></trkpt><trkpt lat="46.04747460616065" lon="9.156724707148678"><ele>437.25</ele><time>2026-05-02T12:56:28Z</time></trkpt><trkpt lat="46.047593596711764" lon="9.156667371971825"><ele>442.5</ele><time>2026-05-02T12:56:29Z</time></trkpt><trkpt lat="46.04772566611902" lon="9.156608889302424"><ele>447.75</ele><time>2026-05-02T12:56:30Z</time></trkpt><trkpt lat="46.04783367872142" lon="9.156668038583684"><ele>453.0</ele><time>2026-05-02T12:56:31Z</time></trkpt><trkpt lat="46.04796039843823" lon="9.15668083237003"><ele>453.0</ele><time>2026-05-02T12:56:32Z</time></trkpt><trkpt lat="46.04808035402994" lon="9.156734685451553"><ele>452.99999999999994</ele><time>2026-05-02T12:56:33Z</time></trkpt><trkpt lat="46.04819094318899" lon="9.156768255896935"><ele>452.99999999999994</ele><time>2026-05-02T12:56:34Z</time></trkpt><trkpt lat="46.048297690519334" lon="9.156783341648048"><ele>453.0</ele><time>2026-05-02T12:56:35Z</time></trkpt><trkpt lat="46.048392034609144" lon="9.15678172093694"><ele>453.0</ele><time>2026-05-02T12:56:36Z</time></trkpt><trkpt lat="46.04848477227948" lon="9.156743416277019"><ele>454.59999999999997</ele><time>2026-05-02T12:56:37Z</time></trkpt><trkpt lat="46.04857247885304" lon="9.156676673459502"><ele>456.19999999999993</ele><time>2026-05-02T12:56:38Z</time></trkpt><trkpt lat="46.048642865674836" lon="9.156567468760576"><ele>457.8</ele><time>2026-05-02T12:56:39Z</time></trkpt><trkpt lat="46.048682333897034" lon="9.156431756510782"><ele>459.4</ele><time>2026-05-02T12:56:40Z</time></trkpt><trkpt lat="46.048707142634285" lon="9.156290578683668"><ele>461.0</ele><time>2026-05-02T12:56:41Z</time></trkpt><trkpt lat="46.048717315716154" lon="9.15614551646698"><ele>461.0</ele><time>2026-05-02T12:56:42Z</time></trkpt><trkpt lat="46.04873275362548" lon="9.155995113022334"><ele>461.0</ele><time>2026-05-02T12:56:43Z</time></trkpt><trkpt lat="46.04874964004321" lon="9.155841053290667"><ele>461.0</ele><time>2026-05-02T12:56:44Z</time></trkpt><trkpt lat="46.04878690780089" lon="9.155707014317867"><ele>461.0</ele><time>2026-05-02T12:56:45Z</time></trkpt><trkpt lat="46.04886286042667" lon="9.15560364832455"><ele>461.0</ele><time>2026-05-02T12:56:46Z</time></trkpt><trkpt lat="46.048951166687814" lon="9.155530925381774"><ele>460.6</ele><time>2026-05-02T12:56:47Z</time></trkpt><trkpt lat="46.049051928879784" lon="9.155497120496003"><ele>460.20000000000005</ele><time>2026-05-02T12:56:48Z</time></trkpt><trkpt lat="46.04915146689427" lon="9.155477458641734"><ele>459.79999999999995</ele><time>2026-05-02T12:56:49Z</time></trkpt><trkpt lat="46.04925073804501" lon="9.155452219972767"><ele>459.4</ele><time>2026-05-02T12:56:50Z</time></trkpt><trkpt lat="46.04933862756118" lon="9.155402884375844"><ele>459.0</ele><time>2026-05-02T12:56:51Z</time></trkpt><trkpt lat="46.04941668546803" lon="9.155345531107196"><ele>461.14285714285717</ele><time>2026-05-02T12:56:52Z</time></trkpt><trkpt lat="46.0494887286869" lon="9.155284263716357"><ele>463.2857142857142</ele><time>2026-05-02T12:56:53Z</time></trkpt><trkpt lat="46.04956342729569" lon="9.155228958201885"><ele>465.4285714285714</ele><time>2026-05-02T12:56:54Z</time></trkpt><trkpt lat="46.04962318982398" lon="9.155178102031364"><ele>467.57142857142856</ele><time>2026-05-02T12:56:55Z</time></trkpt><trkpt lat="46.04968184015592" lon="9.155129817737444"><ele>469.71428571428567</ele><time>2026-05-02T12:56:56Z</time></trkpt><trkpt lat="46.049743496474036" lon="9.155081241678747"><ele>471.8571428571428</ele><time>2026-05-02T12:56:57Z</time></trkpt><trkpt lat="46.04980362684189" lon="9.155033120996084"><ele>473.99999999999994</ele><time>2026-05-02T12:56:58Z</time></trkpt><trkpt lat="46.04987376073653" lon="9.154965252362349"><ele>474.0</ele><time>2026-05-02T12:57:00Z</time></trkpt><trkpt lat="46.0499290750818" lon="9.154909082236058"><ele>474.0</ele><time>2026-05-02T12:57:02Z</time></trkpt><trkpt lat="46.050009674718275" lon="9.15485795188406"><ele>474.0</ele><time>2026-05-02T12:57:04Z</time></trkpt><trkpt lat="46.050112698085776" lon="9.15481874501348"><ele>474.0</ele><time>2026-05-02T12:57:06Z</time></trkpt><trkpt lat="46.050117415193476" lon="9.154702536903933"><ele>474.0</ele><time>2026-05-02T12:57:07Z</time></trkpt><trkpt lat="46.050156041147645" lon="9.154623497880193"><ele>474.0</ele><time>2026-05-02T12:57:09Z</time></trkpt><trkpt lat="46.050202548324094" lon="9.154540773830433"><ele>476.2</ele><time>2026-05-02T12:57:12Z</time></trkpt><trkpt lat="46.05025656144331" lon="9.15444330393299"><ele>478.4</ele><time>2026-05-02T12:57:14.999Z</time></trkpt><trkpt lat="46.05030983256113" lon="9.154350981157588"><ele>480.6</ele><time>2026-05-02T12:57:17.999Z</time></trkpt><trkpt lat="46.0503680405021" lon="9.154247797297064"><ele>482.8</ele><time>2026-05-02T12:57:19.999Z</time></trkpt><trkpt lat="46.05043276970135" lon="9.154102336786547"><ele>485.0</ele><time>2026-05-02T12:57:21.999Z</time></trkpt><trkpt lat="46.05047720724857" lon="9.154002902877592"><ele>486.2</ele><time>2026-05-02T12:57:22.999Z</time></trkpt><trkpt lat="46.050520434141035" lon="9.153910819245969"><ele>487.4</ele><time>2026-05-02T12:57:23.999Z</time></trkpt><trkpt lat="46.050582667880434" lon="9.153792970530077"><ele>488.6</ele><time>2026-05-02T12:57:25.999Z</time></trkpt><trkpt lat="46.05068510504846" lon="9.153607648730095"><ele>489.8</ele><time>2026-05-02T12:57:26.999Z</time></trkpt><trkpt lat="46.05072571166479" lon="9.15350709262094"><ele>491.0</ele><time>2026-05-02T12:57:27.999Z</time></trkpt><trkpt lat="46.050768824081416" lon="9.153404976583332"><ele>490.6</ele><time>2026-05-02T12:57:28.999Z</time></trkpt><trkpt lat="46.05080328720222" lon="9.153310184230284"><ele>490.20000000000005</ele><time>2026-05-02T12:57:29.999Z</time></trkpt><trkpt lat="46.05085539316931" lon="9.153194431887018"><ele>489.79999999999995</ele><time>2026-05-02T12:57:30.999Z</time></trkpt><trkpt lat="46.05090628890065" lon="9.153072378776201"><ele>489.4</ele><time>2026-05-02T12:57:31.999Z</time></trkpt><trkpt lat="46.05095074849345" lon="9.15296883214874"><ele>489.0</ele><time>2026-05-02T12:57:32.999Z</time></trkpt><trkpt lat="46.051016858982145" lon="9.152826410380968"><ele>488.6</ele><time>2026-05-02T12:57:34.999Z</time></trkpt><trkpt lat="46.05105337056684" lon="9.15274329354001"><ele>488.2</ele><time>2026-05-02T12:57:35.999Z</time></trkpt><trkpt lat="46.0511231086307" lon="9.152580355698118"><ele>487.80000000000007</ele><time>2026-05-02T12:57:37.999Z</time></trkpt><trkpt lat="46.051167578578394" lon="9.152473805805702"><ele>487.40000000000003</ele><time>2026-05-02T12:57:38.999Z</time></trkpt><trkpt lat="46.051215245282926" lon="9.152361145126722"><ele>487.0</ele><time>2026-05-02T12:57:39.999Z</time></trkpt><trkpt lat="46.05126316726822" lon="9.152248367627996"><ele>487.00000000000006</ele><time>2026-05-02T12:57:40.999Z</time></trkpt><trkpt lat="46.051304718510146" lon="9.15215564563016"><ele>487.0</ele><time>2026-05-02T12:57:41.999Z</time></trkpt><trkpt lat="46.05134054778877" lon="9.152060028451402"><ele>487.0</ele><time>2026-05-02T12:57:42.999Z</time></trkpt><trkpt lat="46.05137441731439" lon="9.1519745847502"><ele>487.0</ele><time>2026-05-02T12:57:43.999Z</time></trkpt><trkpt lat="46.05140929559882" lon="9.151894889346554"><ele>487.00000000000006</ele><time>2026-05-02T12:57:44.999Z</time></trkpt><trkpt lat="46.051452010042034" lon="9.151765046272507"><ele>487.0</ele><time>2026-05-02T12:57:46.999Z</time></trkpt><trkpt lat="46.051439648063834" lon="9.151646972171433"><ele>487.6</ele><time>2026-05-02T12:57:50Z</time></trkpt><trkpt lat="46.051433762821006" lon="9.151528072883305"><ele>488.20000000000005</ele><time>2026-05-02T12:57:52Z</time></trkpt><trkpt lat="46.05138411169998" lon="9.151391261300528"><ele>488.8</ele><time>2026-05-02T12:57:54Z</time></trkpt><trkpt lat="46.051254430063324" lon="9.151349107649079"><ele>489.4</ele><time>2026-05-02T12:57:56Z</time></trkpt><trkpt lat="46.05117329675093" lon="9.15122134257857"><ele>490.0</ele><time>2026-05-02T12:57:58Z</time></trkpt><trkpt lat="46.05106158214641" lon="9.151056642911353"><ele>490.0</ele><time>2026-05-02T12:58:00Z</time></trkpt><trkpt lat="46.05100824796301" lon="9.150967261979437"><ele>490.0</ele><time>2026-05-02T12:58:01Z</time></trkpt><trkpt lat="46.050967740744156" lon="9.150880309351386"><ele>490.0</ele><time>2026-05-02T12:58:02Z</time></trkpt><trkpt lat="46.050932264688775" lon="9.150801560133422"><ele>490.0</ele><time>2026-05-02T12:58:03Z</time></trkpt><trkpt lat="46.05092808011408" lon="9.150703450624132"><ele>490.0</ele><time>2026-05-02T12:58:04Z</time></trkpt><trkpt lat="46.05096324771135" lon="9.15060159526907"><ele>490.0</ele><time>2026-05-02T12:58:05Z</time></trkpt><trkpt lat="46.05098036169456" lon="9.150501229573491"><ele>490.0</ele><time>2026-05-02T12:58:06Z</time></trkpt><trkpt lat="46.050996346959316" lon="9.150368972081626"><ele>490.8</ele><time>2026-05-02T12:58:07Z</time></trkpt><trkpt lat="46.05100829107661" lon="9.150193475609033"><ele>491.6</ele><time>2026-05-02T12:58:08Z</time></trkpt><trkpt lat="46.0510345560023" lon="9.150049743364871"><ele>492.4</ele><time>2026-05-02T12:58:09Z</time></trkpt><trkpt lat="46.05105325592145" lon="9.149902689721689"><ele>493.2</ele><time>2026-05-02T12:58:10Z</time></trkpt><trkpt lat="46.051063475022126" lon="9.149736363496492"><ele>494.0</ele><time>2026-05-02T12:58:11Z</time></trkpt><trkpt lat="46.051078362371385" lon="9.149573391257258"><ele>495.2</ele><time>2026-05-02T12:58:12Z</time></trkpt><trkpt lat="46.051094670755745" lon="9.149412005139942"><ele>496.4</ele><time>2026-05-02T12:58:13Z</time></trkpt><trkpt lat="46.05110633146603" lon="9.149253053189534"><ele>497.6</ele><time>2026-05-02T12:58:14Z</time></trkpt><trkpt lat="46.05111864796935" lon="9.149093289450882"><ele>498.8</ele><time>2026-05-02T12:58:15Z</time></trkpt><trkpt lat="46.05113689569631" lon="9.148939422375902"><ele>500.0</ele><time>2026-05-02T12:58:16Z</time></trkpt><trkpt lat="46.051143213131624" lon="9.148804477041374"><ele>499.99999999999994</ele><time>2026-05-02T12:58:17Z</time></trkpt><trkpt lat="46.05115292852114" lon="9.14866593363169"><ele>500.0</ele><time>2026-05-02T12:58:18Z</time></trkpt><trkpt lat="46.051156621078874" lon="9.148531463051558"><ele>500.0</ele><time>2026-05-02T12:58:19Z</time></trkpt><trkpt lat="46.051146107459445" lon="9.148409288126995"><ele>500.0</ele><time>2026-05-02T12:58:20Z</time></trkpt><trkpt lat="46.05109544801084" lon="9.14830159859139"><ele>499.99999999999994</ele><time>2026-05-02T12:58:21Z</time></trkpt><trkpt lat="46.05104819028403" lon="9.148202496608231"><ele>500.0</ele><time>2026-05-02T12:58:22Z</time></trkpt><trkpt lat="46.050986878297024" lon="9.148108257282244"><ele>498.6</ele><time>2026-05-02T12:58:23Z</time></trkpt><trkpt lat="46.050927827312634" lon="9.148019665696676"><ele>497.2</ele><time>2026-05-02T12:58:24Z</time></trkpt><trkpt lat="46.05086579686798" lon="9.147914429748472"><ele>495.79999999999995</ele><time>2026-05-02T12:58:25Z</time></trkpt><trkpt lat="46.05080102817709" lon="9.147808763897121"><ele>494.4</ele><time>2026-05-02T12:58:26Z</time></trkpt><trkpt lat="46.05072639598016" lon="9.147703654355523"><ele>493.0</ele><time>2026-05-02T12:58:27Z</time></trkpt><trkpt lat="46.05064814470928" lon="9.14760000376345"><ele>492.6666666666667</ele><time>2026-05-02T12:58:28Z</time></trkpt><trkpt lat="46.05058946321677" lon="9.147494506563405"><ele>492.33333333333337</ele><time>2026-05-02T12:58:29Z</time></trkpt><trkpt lat="46.05053637917759" lon="9.147397007255721"><ele>492.0</ele><time>2026-05-02T12:58:30Z</time></trkpt><trkpt lat="46.05046701114816" lon="9.147312085281639"><ele>491.66666666666663</ele><time>2026-05-02T12:58:31Z</time></trkpt><trkpt lat="46.05039508453907" lon="9.147247457729998"><ele>491.3333333333333</ele><time>2026-05-02T12:58:32Z</time></trkpt><trkpt lat="46.05031004009003" lon="9.147197564806309"><ele>491.0</ele><time>2026-05-02T12:58:33Z</time></trkpt><trkpt lat="46.050233123221545" lon="9.147161582296972"><ele>486.8333333333333</ele><time>2026-05-02T12:58:34Z</time></trkpt><trkpt lat="46.050159492867216" lon="9.147147066866438"><ele>482.66666666666663</ele><time>2026-05-02T12:58:35Z</time></trkpt><trkpt lat="46.05009747123822" lon="9.147127022352393"><ele>478.5</ele><time>2026-05-02T12:58:36Z</time></trkpt><trkpt lat="46.05003779514119" lon="9.14704502670249"><ele>474.33333333333337</ele><time>2026-05-02T12:58:38Z</time></trkpt><trkpt lat="46.05007455380841" lon="9.146917021430383"><ele>470.1666666666667</ele><time>2026-05-02T12:58:40Z</time></trkpt><trkpt lat="46.05013158274386" lon="9.14685923516311"><ele>466.0</ele><time>2026-05-02T12:58:41Z</time></trkpt><trkpt lat="46.05021238450723" lon="9.14684333503201"><ele>466.00000000000006</ele><time>2026-05-02T12:58:42Z</time></trkpt><trkpt lat="46.0502846401796" lon="9.146779281009325"><ele>466.0</ele><time>2026-05-02T12:58:43Z</time></trkpt><trkpt lat="46.05034983380951" lon="9.14667892275716"><ele>466.0</ele><time>2026-05-02T12:58:44Z</time></trkpt><trkpt lat="46.05041860805226" lon="9.14657609767029"><ele>466.0</ele><time>2026-05-02T12:58:45Z</time></trkpt><trkpt lat="46.05046992075205" lon="9.14648559862718"><ele>466.00000000000006</ele><time>2026-05-02T12:58:46Z</time></trkpt><trkpt lat="46.0505413146267" lon="9.146445024983212"><ele>466.0</ele><time>2026-05-02T12:58:47Z</time></trkpt><trkpt lat="46.05060938558954" lon="9.14639009499737"><ele>466.50000000000006</ele><time>2026-05-02T12:58:48Z</time></trkpt><trkpt lat="46.05067993880413" lon="9.146427543509498"><ele>467.0</ele><time>2026-05-02T12:58:49Z</time></trkpt><trkpt lat="46.05080224119378" lon="9.146424750698811"><ele>467.5</ele><time>2026-05-02T12:58:50Z</time></trkpt><trkpt lat="46.05087168910234" lon="9.146391731478463"><ele>468.0</ele><time>2026-05-02T12:58:51Z</time></trkpt><trkpt lat="46.050950873477795" lon="9.146399561468955"><ele>468.50000000000006</ele><time>2026-05-02T12:58:52Z</time></trkpt><trkpt lat="46.051028953738154" lon="9.146376571293327"><ele>469.0</ele><time>2026-05-02T12:58:53Z</time></trkpt><trkpt lat="46.051098391049" lon="9.146341368389045"><ele>469.0</ele><time>2026-05-02T12:58:54Z</time></trkpt><trkpt lat="46.051141922372395" lon="9.146232475196872"><ele>469.0</ele><time>2026-05-02T12:58:55Z</time></trkpt><trkpt lat="46.0511637633703" lon="9.146076968406588"><ele>469.0</ele><time>2026-05-02T12:58:56Z</time></trkpt><trkpt lat="46.051161185474804" lon="9.145958461158575"><ele>469.0</ele><time>2026-05-02T12:58:57Z</time></trkpt><trkpt lat="46.05116580409583" lon="9.145826766649188"><ele>469.0</ele><time>2026-05-02T12:58:58Z</time></trkpt><trkpt lat="46.051203211545875" lon="9.145712837381769"><ele>472.57142857142856</ele><time>2026-05-02T12:58:59Z</time></trkpt><trkpt lat="46.05121860485872" lon="9.145601289719846"><ele>476.1428571428571</ele><time>2026-05-02T12:59:00Z</time></trkpt><trkpt lat="46.051230909375036" lon="9.145491556179014"><ele>479.7142857142857</ele><time>2026-05-02T12:59:01Z</time></trkpt><trkpt lat="46.05122410338711" lon="9.145389562590328"><ele>483.2857142857143</ele><time>2026-05-02T12:59:02Z</time></trkpt><trkpt lat="46.05119059235964" lon="9.145306011188318"><ele>486.85714285714283</ele><time>2026-05-02T12:59:03Z</time></trkpt><trkpt lat="46.051129418965694" lon="9.145266083788794"><ele>490.42857142857144</ele><time>2026-05-02T12:59:04Z</time></trkpt><trkpt lat="46.051053698324075" lon="9.145253649924891"><ele>494.0</ele><time>2026-05-02T12:59:05Z</time></trkpt><trkpt lat="46.0509792396042" lon="9.14525618402384"><ele>493.99999999999994</ele><time>2026-05-02T12:59:06Z</time></trkpt><trkpt lat="46.05090985979149" lon="9.145259234253816"><ele>494.0</ele><time>2026-05-02T12:59:07Z</time></trkpt><trkpt lat="46.05081920241523" lon="9.145275341588594"><ele>494.0</ele><time>2026-05-02T12:59:08Z</time></trkpt><trkpt lat="46.050743330264204" lon="9.145290174244264"><ele>494.0</ele><time>2026-05-02T12:59:09Z</time></trkpt><trkpt lat="46.050666974514236" lon="9.145240013029573"><ele>493.99999999999994</ele><time>2026-05-02T12:59:10Z</time></trkpt><trkpt lat="46.05059924595911" lon="9.145135372919553"><ele>494.0</ele><time>2026-05-02T12:59:11Z</time></trkpt><trkpt lat="46.05053982722921" lon="9.145056522516285"><ele>490.6</ele><time>2026-05-02T12:59:12Z</time></trkpt><trkpt lat="46.050474106969176" lon="9.14498520256719"><ele>487.2</ele><time>2026-05-02T12:59:13Z</time></trkpt><trkpt lat="46.050386412439515" lon="9.144904859422004"><ele>483.80000000000007</ele><time>2026-05-02T12:59:14Z</time></trkpt><trkpt lat="46.05029638846668" lon="9.14484232778386"><ele>480.40000000000003</ele><time>2026-05-02T12:59:15Z</time></trkpt><trkpt lat="46.05018328216802" lon="9.144797537051147"><ele>477.0</ele><time>2026-05-02T12:59:16Z</time></trkpt><trkpt lat="46.05008164752982" lon="9.144787426636407"><ele>476.6</ele><time>2026-05-02T12:59:17Z</time></trkpt><trkpt lat="46.04999229671618" lon="9.144738230832155"><ele>476.20000000000005</ele><time>2026-05-02T12:59:18Z</time></trkpt><trkpt lat="46.04990607154554" lon="9.14469535672076"><ele>475.8</ele><time>2026-05-02T12:59:19Z</time></trkpt><trkpt lat="46.0498187970674" lon="9.144632843056783"><ele>475.4</ele><time>2026-05-02T12:59:20Z</time></trkpt><trkpt lat="46.049747186894656" lon="9.14453483692035"><ele>475.0</ele><time>2026-05-02T12:59:21Z</time></trkpt><trkpt lat="46.049677409675674" lon="9.144427724385805"><ele>475.0</ele><time>2026-05-02T12:59:22Z</time></trkpt><trkpt lat="46.04959871672328" lon="9.14433505079662"><ele>475.0</ele><time>2026-05-02T12:59:23Z</time></trkpt><trkpt lat="46.04951189474887" lon="9.144239945344436"><ele>475.0</ele><time>2026-05-02T12:59:24Z</time></trkpt><trkpt lat="46.04944284371051" lon="9.144162941878578"><ele>475.0</ele><time>2026-05-02T12:59:25Z</time></trkpt><trkpt lat="46.049374278434435" lon="9.144083525231762"><ele>475.0</ele><time>2026-05-02T12:59:26Z</time></trkpt><trkpt lat="46.04930901490341" lon="9.144012426654209"><ele>473.0</ele><time>2026-05-02T12:59:27Z</time></trkpt><trkpt lat="46.04923375023587" lon="9.143960483820964"><ele>471.0</ele><time>2026-05-02T12:59:28Z</time></trkpt><trkpt lat="46.04916090898413" lon="9.143896868065209"><ele>469.0</ele><time>2026-05-02T12:59:29Z</time></trkpt><trkpt lat="46.04908315385295" lon="9.14382224402991"><ele>467.0</ele><time>2026-05-02T12:59:30Z</time></trkpt><trkpt lat="46.049002625130505" lon="9.143735594427294"><ele>465.0</ele><time>2026-05-02T12:59:31Z</time></trkpt><trkpt lat="46.04894548162466" lon="9.143625025167747"><ele>465.0</ele><time>2026-05-02T12:59:31.999Z</time></trkpt><trkpt lat="46.04891247491958" lon="9.143478137631988"><ele>465.0</ele><time>2026-05-02T12:59:32.999Z</time></trkpt><trkpt lat="46.04885136147547" lon="9.143313071034605"><ele>465.0</ele><time>2026-05-02T12:59:33.999Z</time></trkpt><trkpt lat="46.04879040925281" lon="9.14311839346262"><ele>465.0</ele><time>2026-05-02T12:59:34.999Z</time></trkpt><trkpt lat="46.04869012030073" lon="9.142848442645796"><ele>468.33333333333337</ele><time>2026-05-02T12:59:35.999Z</time></trkpt><trkpt lat="46.04859745663484" lon="9.142613222729988"><ele>471.6666666666667</ele><time>2026-05-02T12:59:36.999Z</time></trkpt><trkpt lat="46.04851137234158" lon="9.142363033875531"><ele>475.0</ele><time>2026-05-02T12:59:37.999Z</time></trkpt><trkpt lat="46.04842005964909" lon="9.142103363340798"><ele>473.0</ele><time>2026-05-02T12:59:38.999Z</time></trkpt><trkpt lat="46.04829178592724" lon="9.14183611917907"><ele>471.0</ele><time>2026-05-02T12:59:39.999Z</time></trkpt><trkpt lat="46.048175912491025" lon="9.141591237168369"><ele>469.0</ele><time>2026-05-02T12:59:40.999Z</time></trkpt><trkpt lat="46.0480773723902" lon="9.14137123670213"><ele>469.0</ele><time>2026-05-02T12:59:41.999Z</time></trkpt><trkpt lat="46.04797095268239" lon="9.141158005446965"><ele>469.0</ele><time>2026-05-02T12:59:42.999Z</time></trkpt><trkpt lat="46.047877772864645" lon="9.140952105335383"><ele>469.0</ele><time>2026-05-02T12:59:43.999Z</time></trkpt><trkpt lat="46.04779738168972" lon="9.140770172878645"><ele>470.2</ele><time>2026-05-02T12:59:44.999Z</time></trkpt><trkpt lat="46.047737085549606" lon="9.140621050828821"><ele>471.4</ele><time>2026-05-02T12:59:45.999Z</time></trkpt><trkpt lat="46.047674666333556" lon="9.140485550574002"><ele>472.6</ele><time>2026-05-02T12:59:46.999Z</time></trkpt><trkpt lat="46.04762683628439" lon="9.140374666180387"><ele>473.8</ele><time>2026-05-02T12:59:47.999Z</time></trkpt><trkpt lat="46.04759805328566" lon="9.140271181297551"><ele>475.0</ele><time>2026-05-02T12:59:48.999Z</time></trkpt><trkpt lat="46.04756097941512" lon="9.14017052148507"><ele>475.0</ele><time>2026-05-02T12:59:49.999Z</time></trkpt><trkpt lat="46.04751085069604" lon="9.140060538406635"><ele>475.0</ele><time>2026-05-02T12:59:50.999Z</time></trkpt><trkpt lat="46.047459907530865" lon="9.13993791048972"><ele>475.0</ele><time>2026-05-02T12:59:51.999Z</time></trkpt><trkpt lat="46.047406735859575" lon="9.139810876158787"><ele>475.0</ele><time>2026-05-02T12:59:52.999Z</time></trkpt><trkpt lat="46.04734851280037" lon="9.139679397437881"><ele>475.0</ele><time>2026-05-02T12:59:54Z</time></trkpt><trkpt lat="46.04728666903683" lon="9.13954662429577"><ele>474.25</ele><time>2026-05-02T12:59:55Z</time></trkpt><trkpt lat="46.04723171677287" lon="9.139406069878946"><ele>473.5</ele><time>2026-05-02T12:59:56Z</time></trkpt><trkpt lat="46.04717731751003" lon="9.139250771678421"><ele>472.75</ele><time>2026-05-02T12:59:57Z</time></trkpt><trkpt lat="46.04711403197752" lon="9.139119894154584"><ele>472.0</ele><time>2026-05-02T12:59:58Z</time></trkpt><trkpt lat="46.04704858110963" lon="9.138996561108081"><ele>472.0</ele><time>2026-05-02T12:59:59Z</time></trkpt><trkpt lat="46.046988220895294" lon="9.138883091115602"><ele>472.00000000000006</ele><time>2026-05-02T13:00:00Z</time></trkpt><trkpt lat="46.046933535949435" lon="9.138773026827067"><ele>472.00000000000006</ele><time>2026-05-02T13:00:01Z</time></trkpt><trkpt lat="46.04688608354098" lon="9.138689155439105"><ele>472.0</ele><time>2026-05-02T13:00:02Z</time></trkpt><trkpt lat="46.0468312543937" lon="9.13856533073522"><ele>472.0</ele><time>2026-05-02T13:00:04Z</time></trkpt><trkpt lat="46.04680909655547" lon="9.1384538929383"><ele>472.0</ele><time>2026-05-02T13:00:07Z</time></trkpt><trkpt lat="46.04678240672726" lon="9.13836503965414"><ele>472.0</ele><time>2026-05-02T13:00:11Z</time></trkpt><trkpt lat="46.046713324252394" lon="9.138352259213852"><ele>472.0</ele><time>2026-05-02T13:00:13Z</time></trkpt><trkpt lat="46.046639924183694" lon="9.138347969465677"><ele>472.0</ele><time>2026-05-02T13:00:14Z</time></trkpt><trkpt lat="46.046557918725014" lon="9.138396161453324"><ele>472.0</ele><time>2026-05-02T13:00:15Z</time></trkpt><trkpt lat="46.046483608063646" lon="9.138441845144708"><ele>472.0</ele><time>2026-05-02T13:00:16Z</time></trkpt><trkpt lat="46.046423056259336" lon="9.13847799217313"><ele>472.0</ele><time>2026-05-02T13:00:17Z</time></trkpt><trkpt lat="46.046323050211996" lon="9.138431400903043"><ele>469.8</ele><time>2026-05-02T13:00:19Z</time></trkpt><trkpt lat="46.04630478831523" lon="9.138226034335608"><ele>467.6</ele><time>2026-05-02T13:00:21Z</time></trkpt><trkpt lat="46.04630201296456" lon="9.13809447681535"><ele>465.40000000000003</ele><time>2026-05-02T13:00:22Z</time></trkpt><trkpt lat="46.04628550407041" lon="9.137964925967893"><ele>463.20000000000005</ele><time>2026-05-02T13:00:23Z</time></trkpt><trkpt lat="46.04627176375461" lon="9.1378289962604"><ele>461.0</ele><time>2026-05-02T13:00:24Z</time></trkpt><trkpt lat="46.04625091457242" lon="9.13768379676956"><ele>459.4</ele><time>2026-05-02T13:00:25Z</time></trkpt><trkpt lat="46.04623860838178" lon="9.137521780322544"><ele>457.8</ele><time>2026-05-02T13:00:26Z</time></trkpt><trkpt lat="46.046212324560635" lon="9.137357477585766"><ele>456.19999999999993</ele><time>2026-05-02T13:00:27Z</time></trkpt><trkpt lat="46.046196097826396" lon="9.137212735326536"><ele>454.59999999999997</ele><time>2026-05-02T13:00:28Z</time></trkpt><trkpt lat="46.046173300914226" lon="9.137061258353034"><ele>453.0</ele><time>2026-05-02T13:00:29Z</time></trkpt><trkpt lat="46.04614540846356" lon="9.136918887180457"><ele>453.0</ele><time>2026-05-02T13:00:30Z</time></trkpt><trkpt lat="46.046099025903374" lon="9.13677834067866"><ele>453.0</ele><time>2026-05-02T13:00:31Z</time></trkpt><trkpt lat="46.04603298636234" lon="9.136639663681207"><ele>453.0</ele><time>2026-05-02T13:00:32Z</time></trkpt><trkpt lat="46.04592656398994" lon="9.13649955580408"><ele>453.0</ele><time>2026-05-02T13:00:33Z</time></trkpt><trkpt lat="46.04581483293984" lon="9.136379524996597"><ele>448.0</ele><time>2026-05-02T13:00:34Z</time></trkpt><trkpt lat="46.04568474165673" lon="9.136243917004636"><ele>443.0</ele><time>2026-05-02T13:00:35Z</time></trkpt><trkpt lat="46.04555202393594" lon="9.136093882865158"><ele>438.0</ele><time>2026-05-02T13:00:36Z</time></trkpt><trkpt lat="46.04543910484476" lon="9.13590863023177"><ele>438.0</ele><time>2026-05-02T13:00:37Z</time></trkpt><trkpt lat="46.04532140420844" lon="9.135746017381278"><ele>438.0</ele><time>2026-05-02T13:00:38Z</time></trkpt><trkpt lat="46.045207771605426" lon="9.135562062445139"><ele>438.0</ele><time>2026-05-02T13:00:39Z</time></trkpt><trkpt lat="46.04506946511441" lon="9.135360593507107"><ele>432.5</ele><time>2026-05-02T13:00:40Z</time></trkpt><trkpt lat="46.0449125113532" lon="9.135133841882892"><ele>427.0</ele><time>2026-05-02T13:00:41Z</time></trkpt><trkpt lat="46.04475005096482" lon="9.134890558827877"><ele>430.33333333333337</ele><time>2026-05-02T13:00:42Z</time></trkpt><trkpt lat="46.04459645748096" lon="9.13466659095745"><ele>433.66666666666663</ele><time>2026-05-02T13:00:43Z</time></trkpt><trkpt lat="46.0444943395261" lon="9.134414322464147"><ele>437.0</ele><time>2026-05-02T13:00:44Z</time></trkpt><trkpt lat="46.04437388799518" lon="9.134192080355032"><ele>437.75</ele><time>2026-05-02T13:00:45Z</time></trkpt><trkpt lat="46.044289587114896" lon="9.133983877961482"><ele>438.5</ele><time>2026-05-02T13:00:46Z</time></trkpt><trkpt lat="46.04421355374819" lon="9.133808809222073"><ele>439.25</ele><time>2026-05-02T13:00:47Z</time></trkpt><trkpt lat="46.04416536431469" lon="9.133693357042393"><ele>440.0</ele><time>2026-05-02T13:00:48Z</time></trkpt><trkpt lat="46.044119091564276" lon="9.133589247150077"><ele>434.6</ele><time>2026-05-02T13:00:49Z</time></trkpt><trkpt lat="46.04402285553154" lon="9.133517798322623"><ele>429.2</ele><time>2026-05-02T13:00:51Z</time></trkpt><trkpt lat="46.04395590977951" lon="9.133609648454584"><ele>423.79999999999995</ele><time>2026-05-02T13:00:52Z</time></trkpt><trkpt lat="46.04395827496456" lon="9.133751078982014"><ele>418.4</ele><time>2026-05-02T13:00:53Z</time></trkpt><trkpt lat="46.04395818846803" lon="9.133913522345832"><ele>413.0</ele><time>2026-05-02T13:00:54Z</time></trkpt><trkpt lat="46.04396410196205" lon="9.134082448417223"><ele>412.25</ele><time>2026-05-02T13:00:55Z</time></trkpt><trkpt lat="46.043981855575595" lon="9.134279639114215"><ele>411.5</ele><time>2026-05-02T13:00:56Z</time></trkpt><trkpt lat="46.04397949210337" lon="9.134451593992289"><ele>410.75</ele><time>2026-05-02T13:00:57Z</time></trkpt><trkpt lat="46.043987866755145" lon="9.134616477218284"><ele>410.0</ele><time>2026-05-02T13:00:58Z</time></trkpt><trkpt lat="46.04406249427424" lon="9.134772333339791"><ele>414.25</ele><time>2026-05-02T13:00:59Z</time></trkpt><trkpt lat="46.04417832484176" lon="9.134863985910304"><ele>418.5</ele><time>2026-05-02T13:01:00Z</time></trkpt><trkpt lat="46.04430574406112" lon="9.134910730373786"><ele>422.75</ele><time>2026-05-02T13:01:01Z</time></trkpt><trkpt lat="46.04443960967715" lon="9.134999869748725"><ele>427.0</ele><time>2026-05-02T13:01:03Z</time></trkpt><trkpt lat="46.04451955788918" lon="9.135105914142839"><ele>427.0</ele><time>2026-05-02T13:01:04Z</time></trkpt><trkpt lat="46.04457168531571" lon="9.13524950349908"><ele>427.00000000000006</ele><time>2026-05-02T13:01:05Z</time></trkpt><trkpt lat="46.04463628681432" lon="9.13536799223525"><ele>427.00000000000006</ele><time>2026-05-02T13:01:06Z</time></trkpt><trkpt lat="46.04468631321736" lon="9.135462277073524"><ele>427.0</ele><time>2026-05-02T13:01:07Z</time></trkpt><trkpt lat="46.04474767455205" lon="9.135534627391053"><ele>427.0</ele><time>2026-05-02T13:01:08Z</time></trkpt><trkpt lat="46.044806890883635" lon="9.135677174669876"><ele>427.0</ele><time>2026-05-02T13:01:10Z</time></trkpt><trkpt lat="46.04473014359552" lon="9.135742246687814"><ele>427.00000000000006</ele><time>2026-05-02T13:01:11Z</time></trkpt><trkpt lat="46.04462524843248" lon="9.135697171781976"><ele>427.00000000000006</ele><time>2026-05-02T13:01:13Z</time></trkpt><trkpt lat="46.044586690307646" lon="9.135595498857201"><ele>427.0</ele><time>2026-05-02T13:01:14Z</time></trkpt><trkpt lat="46.04458249989806" lon="9.13547595831985"><ele>427.0</ele><time>2026-05-02T13:01:15Z</time></trkpt><trkpt lat="46.044553600647426" lon="9.135334699947403"><ele>427.0</ele><time>2026-05-02T13:01:16Z</time></trkpt><trkpt lat="46.044501250602195" lon="9.135206393418823"><ele>427.0</ele><time>2026-05-02T13:01:17Z</time></trkpt><trkpt lat="46.04440854484918" lon="9.135117668290972"><ele>427.0</ele><time>2026-05-02T13:01:18Z</time></trkpt><trkpt lat="46.044269551463636" lon="9.135080345414986"><ele>427.0</ele><time>2026-05-02T13:01:19Z</time></trkpt><trkpt lat="46.04412640394819" lon="9.135036042637669"><ele>424.0</ele><time>2026-05-02T13:01:20Z</time></trkpt><trkpt lat="46.04399751771563" lon="9.134997029847739"><ele>421.0</ele><time>2026-05-02T13:01:21Z</time></trkpt><trkpt lat="46.043871337029074" lon="9.134923229810463"><ele>418.0</ele><time>2026-05-02T13:01:22Z</time></trkpt><trkpt lat="46.043759120406925" lon="9.134851820497586"><ele>415.0</ele><time>2026-05-02T13:01:23Z</time></trkpt><trkpt lat="46.0436745564901" lon="9.13475959790657"><ele>413.33333333333337</ele><time>2026-05-02T13:01:24Z</time></trkpt><trkpt lat="46.04360531567877" lon="9.134563437115196"><ele>411.66666666666663</ele><time>2026-05-02T13:01:25Z</time></trkpt><trkpt lat="46.04349070595959" lon="9.134299149944386"><ele>410.0</ele><time>2026-05-02T13:01:26Z</time></trkpt><trkpt lat="46.043421005503816" lon="9.134130559603909"><ele>410.75</ele><time>2026-05-02T13:01:27Z</time></trkpt><trkpt lat="46.04332379526286" lon="9.133941444125913"><ele>411.5</ele><time>2026-05-02T13:01:28Z</time></trkpt><trkpt lat="46.04325647389044" lon="9.13381620760573"><ele>412.25</ele><time>2026-05-02T13:01:29Z</time></trkpt><trkpt lat="46.043229683200984" lon="9.133681461995039"><ele>413.0</ele><time>2026-05-02T13:01:30Z</time></trkpt><trkpt lat="46.04321605322849" lon="9.133475187796334"><ele>403.3333333333333</ele><time>2026-05-02T13:01:31Z</time></trkpt><trkpt lat="46.04320622544605" lon="9.133275090633143"><ele>393.66666666666663</ele><time>2026-05-02T13:01:32Z</time></trkpt><trkpt lat="46.04324936378129" lon="9.133025488207473"><ele>384.0</ele><time>2026-05-02T13:01:33Z</time></trkpt><trkpt lat="46.04308371094949" lon="9.132981530927394"><ele>384.0</ele><time>2026-05-02T13:01:34Z</time></trkpt><trkpt lat="46.042992933402154" lon="9.132930926779544"><ele>384.0</ele><time>2026-05-02T13:01:35Z</time></trkpt><trkpt lat="46.042914176005084" lon="9.132866340207734"><ele>384.0</ele><time>2026-05-02T13:01:36Z</time></trkpt><trkpt lat="46.042867964992254" lon="9.132734620509444"><ele>384.0</ele><time>2026-05-02T13:01:37Z</time></trkpt><trkpt lat="46.04277999241311" lon="9.1325206003839"><ele>385.66666666666663</ele><time>2026-05-02T13:01:38Z</time></trkpt><trkpt lat="46.04265344418786" lon="9.132264855244935"><ele>387.3333333333333</ele><time>2026-05-02T13:01:39Z</time></trkpt><trkpt lat="46.042618276012504" lon="9.1319397207395"><ele>389.0</ele><time>2026-05-02T13:01:40Z</time></trkpt><trkpt lat="46.04254307833312" lon="9.131669450780285"><ele>389.0</ele><time>2026-05-02T13:01:41Z</time></trkpt><trkpt lat="46.042521285776196" lon="9.131510028289238"><ele>389.0</ele><time>2026-05-02T13:01:42Z</time></trkpt><trkpt lat="46.04249183679126" lon="9.131392676511664"><ele>389.0</ele><time>2026-05-02T13:01:43Z</time></trkpt><trkpt lat="46.042481002683886" lon="9.131262948996303"><ele>389.0</ele><time>2026-05-02T13:01:44Z</time></trkpt><trkpt lat="46.042518229809836" lon="9.131138256852699"><ele>389.0</ele><time>2026-05-02T13:01:45Z</time></trkpt><trkpt lat="46.0425218135398" lon="9.131036056723467"><ele>389.0</ele><time>2026-05-02T13:01:46Z</time></trkpt><trkpt lat="46.04248472963477" lon="9.130921929209476"><ele>389.0</ele><time>2026-05-02T13:01:47Z</time></trkpt><trkpt lat="46.04239835666551" lon="9.13090885048224"><ele>389.0</ele><time>2026-05-02T13:01:48Z</time></trkpt><trkpt lat="46.04231711725521" lon="9.13105786741779"><ele>389.0</ele><time>2026-05-02T13:01:49Z</time></trkpt><trkpt lat="46.04227251438785" lon="9.131196802479575"><ele>389.0</ele><time>2026-05-02T13:01:50Z</time></trkpt><trkpt lat="46.04226651634127" lon="9.131360131402163"><ele>379.5</ele><time>2026-05-02T13:01:50.999Z</time></trkpt><trkpt lat="46.0422787561178" lon="9.131553296521886"><ele>370.0</ele><time>2026-05-02T13:01:51.999Z</time></trkpt><trkpt lat="46.04230365158018" lon="9.131767473217959"><ele>360.5</ele><time>2026-05-02T13:01:52.999Z</time></trkpt><trkpt lat="46.04233034799593" lon="9.131977514441035"><ele>351.0</ele><time>2026-05-02T13:01:53.999Z</time></trkpt><trkpt lat="46.04236993813604" lon="9.132153639416218"><ele>350.0</ele><time>2026-05-02T13:01:54.999Z</time></trkpt><trkpt lat="46.04239674741079" lon="9.132337748570688"><ele>349.0</ele><time>2026-05-02T13:01:55.999Z</time></trkpt><trkpt lat="46.04239985810616" lon="9.132530012199362"><ele>348.0</ele><time>2026-05-02T13:01:56.999Z</time></trkpt><trkpt lat="46.04240368487147" lon="9.132711092093505"><ele>347.0</ele><time>2026-05-02T13:01:57.999Z</time></trkpt><trkpt lat="46.04240249050736" lon="9.1328732274804"><ele>346.83333333333337</ele><time>2026-05-02T13:01:58.999Z</time></trkpt><trkpt lat="46.042392992244565" lon="9.133007169848716"><ele>346.6666666666667</ele><time>2026-05-02T13:02:00Z</time></trkpt><trkpt lat="46.042393461131205" lon="9.133120987414584"><ele>346.5</ele><time>2026-05-02T13:02:01Z</time></trkpt><trkpt lat="46.04231402445575" lon="9.133184992054042"><ele>346.3333333333333</ele><time>2026-05-02T13:02:02Z</time></trkpt><trkpt lat="46.04223518796083" lon="9.133226210608305"><ele>346.16666666666663</ele><time>2026-05-02T13:02:03Z</time></trkpt><trkpt lat="46.04214202267396" lon="9.133265317354839"><ele>346.0</ele><time>2026-05-02T13:02:04Z</time></trkpt><trkpt lat="46.04205953090676" lon="9.133317109015492"><ele>346.0</ele><time>2026-05-02T13:02:05Z</time></trkpt><trkpt lat="46.041991397989506" lon="9.133377583711816"><ele>346.0</ele><time>2026-05-02T13:02:06Z</time></trkpt><trkpt lat="46.04196503640726" lon="9.1334851272437"><ele>346.0</ele><time>2026-05-02T13:02:07Z</time></trkpt><trkpt lat="46.04201669922362" lon="9.133623206101952"><ele>346.0</ele><time>2026-05-02T13:02:08Z</time></trkpt><trkpt lat="46.04209996128034" lon="9.133738118085098"><ele>346.0</ele><time>2026-05-02T13:02:09Z</time></trkpt><trkpt lat="46.04220318574641" lon="9.133816774701044"><ele>346.0</ele><time>2026-05-02T13:02:10Z</time></trkpt><trkpt lat="46.042264810660676" lon="9.13392022965931"><ele>346.0</ele><time>2026-05-02T13:02:11Z</time></trkpt><trkpt lat="46.04230998728469" lon="9.134002702568276"><ele>346.0</ele><time>2026-05-02T13:02:12Z</time></trkpt><trkpt lat="46.042327646068024" lon="9.134094801879668"><ele>346.0</ele><time>2026-05-02T13:02:13Z</time></trkpt><trkpt lat="46.04225296389635" lon="9.134199723887965"><ele>346.0</ele><time>2026-05-02T13:02:15Z</time></trkpt><trkpt lat="46.04214452795219" lon="9.134179214886474"><ele>346.0</ele><time>2026-05-02T13:02:16Z</time></trkpt><trkpt lat="46.04206659589476" lon="9.134089218484913"><ele>346.0</ele><time>2026-05-02T13:02:17Z</time></trkpt><trkpt lat="46.042009836325086" lon="9.13395005100529"><ele>346.0</ele><time>2026-05-02T13:02:18Z</time></trkpt><trkpt lat="46.04194442084316" lon="9.1338075689064"><ele>346.0</ele><time>2026-05-02T13:02:19Z</time></trkpt><trkpt lat="46.04187539526495" lon="9.133671404233608"><ele>346.0</ele><time>2026-05-02T13:02:20Z</time></trkpt><trkpt lat="46.04181186431411" lon="9.133534190382967"><ele>346.0</ele><time>2026-05-02T13:02:21Z</time></trkpt><trkpt lat="46.04177823778575" lon="9.133371905076435"><ele>346.0</ele><time>2026-05-02T13:02:22Z</time></trkpt><trkpt lat="46.041768999341244" lon="9.13319332796133"><ele>346.0</ele><time>2026-05-02T13:02:23Z</time></trkpt><trkpt lat="46.041777727034244" lon="9.133033907568993"><ele>346.0</ele><time>2026-05-02T13:02:24Z</time></trkpt><trkpt lat="46.041829220713964" lon="9.13288657002951"><ele>346.25</ele><time>2026-05-02T13:02:25Z</time></trkpt><trkpt lat="46.041874875631" lon="9.13272908707334"><ele>346.5</ele><time>2026-05-02T13:02:26Z</time></trkpt><trkpt lat="46.04193198861522" lon="9.132561338876954"><ele>346.75</ele><time>2026-05-02T13:02:27Z</time></trkpt><trkpt lat="46.04194060663537" lon="9.13238902401943"><ele>347.0</ele><time>2026-05-02T13:02:28Z</time></trkpt><trkpt lat="46.04191914624332" lon="9.132191781881454"><ele>347.0</ele><time>2026-05-02T13:02:29Z</time></trkpt><trkpt lat="46.041895445521554" lon="9.13198945681697"><ele>347.0</ele><time>2026-05-02T13:02:30Z</time></trkpt><trkpt lat="46.041861184983226" lon="9.131779377819967"><ele>347.0</ele><time>2026-05-02T13:02:31Z</time></trkpt><trkpt lat="46.04182272744186" lon="9.131565583200693"><ele>347.0</ele><time>2026-05-02T13:02:32Z</time></trkpt><trkpt lat="46.04179485385171" lon="9.131343682546833"><ele>348.0</ele><time>2026-05-02T13:02:33Z</time></trkpt><trkpt lat="46.04176716642398" lon="9.131135088863159"><ele>349.0</ele><time>2026-05-02T13:02:34Z</time></trkpt><trkpt lat="46.04173670892709" lon="9.13093446070874"><ele>350.0</ele><time>2026-05-02T13:02:35Z</time></trkpt><trkpt lat="46.04168616805406" lon="9.13072470532567"><ele>351.0</ele><time>2026-05-02T13:02:36Z</time></trkpt><trkpt lat="46.041608737266614" lon="9.130508779531286"><ele>342.3333333333333</ele><time>2026-05-02T13:02:37Z</time></trkpt><trkpt lat="46.04153464533824" lon="9.130312314521985"><ele>333.66666666666663</ele><time>2026-05-02T13:02:38Z</time></trkpt><trkpt lat="46.04145321739218" lon="9.130103188702215"><ele>325.0</ele><time>2026-05-02T13:02:39Z</time></trkpt><trkpt lat="46.0413941365498" lon="9.129877891328688"><ele>325.0</ele><time>2026-05-02T13:02:40Z</time></trkpt><trkpt lat="46.04135558189297" lon="9.129656248823585"><ele>325.0</ele><time>2026-05-02T13:02:41Z</time></trkpt><trkpt lat="46.041304667695634" lon="9.129440071029853"><ele>325.0</ele><time>2026-05-02T13:02:42Z</time></trkpt><trkpt lat="46.041260106990364" lon="9.12921760057544"><ele>326.0</ele><time>2026-05-02T13:02:43Z</time></trkpt><trkpt lat="46.04119882321793" lon="9.129005738815872"><ele>327.0</ele><time>2026-05-02T13:02:44Z</time></trkpt><trkpt lat="46.04112314702768" lon="9.12880896200364"><ele>328.0</ele><time>2026-05-02T13:02:45Z</time></trkpt><trkpt lat="46.04105150113929" lon="9.128607289126816"><ele>328.0</ele><time>2026-05-02T13:02:46Z</time></trkpt><trkpt lat="46.04098546866865" lon="9.12841050683108"><ele>328.0</ele><time>2026-05-02T13:02:47Z</time></trkpt><trkpt lat="46.04088175279815" lon="9.128235340319701"><ele>328.0</ele><time>2026-05-02T13:02:48Z</time></trkpt><trkpt lat="46.040784414381214" lon="9.128031802214952"><ele>323.0</ele><time>2026-05-02T13:02:49Z</time></trkpt><trkpt lat="46.04068699804374" lon="9.12779376888767"><ele>318.0</ele><time>2026-05-02T13:02:50Z</time></trkpt><trkpt lat="46.04061053837079" lon="9.127558435512958"><ele>313.0</ele><time>2026-05-02T13:02:51Z</time></trkpt><trkpt lat="46.040543269108646" lon="9.127336674469628"><ele>313.0</ele><time>2026-05-02T13:02:52Z</time></trkpt><trkpt lat="46.04045025164651" lon="9.127119361892332"><ele>313.0</ele><time>2026-05-02T13:02:53Z</time></trkpt><trkpt lat="46.04034608334403" lon="9.126904031533089"><ele>313.0</ele><time>2026-05-02T13:02:54Z</time></trkpt><trkpt lat="46.040246060949734" lon="9.126696006733829"><ele>315.66666666666663</ele><time>2026-05-02T13:02:55Z</time></trkpt><trkpt lat="46.040148160048595" lon="9.126491779779242"><ele>318.3333333333333</ele><time>2026-05-02T13:02:56Z</time></trkpt><trkpt lat="46.040050741750136" lon="9.126286077520376"><ele>321.0</ele><time>2026-05-02T13:02:57Z</time></trkpt><trkpt lat="46.0399574855638" lon="9.126101110280864"><ele>315.75</ele><time>2026-05-02T13:02:58Z</time></trkpt><trkpt lat="46.03987307954379" lon="9.12592648887355"><ele>310.5</ele><time>2026-05-02T13:02:59Z</time></trkpt><trkpt lat="46.03980122127395" lon="9.125762611845708"><ele>305.25</ele><time>2026-05-02T13:03:00Z</time></trkpt><trkpt lat="46.03975510141292" lon="9.125624305479926"><ele>300.0</ele><time>2026-05-02T13:03:01Z</time></trkpt><trkpt lat="46.0396748331364" lon="9.125501330528511"><ele>300.0</ele><time>2026-05-02T13:03:02Z</time></trkpt><trkpt lat="46.03957242256536" lon="9.125379047210714"><ele>300.0</ele><time>2026-05-02T13:03:03Z</time></trkpt><trkpt lat="46.039450988618185" lon="9.125316342946352"><ele>300.0</ele><time>2026-05-02T13:03:04Z</time></trkpt><trkpt lat="46.03931929864339" lon="9.125281111095335"><ele>300.0</ele><time>2026-05-02T13:03:05Z</time></trkpt><trkpt lat="46.03920030596699" lon="9.125248896005717"><ele>297.8</ele><time>2026-05-02T13:03:06Z</time></trkpt><trkpt lat="46.03909976334456" lon="9.125183520089097"><ele>295.6</ele><time>2026-05-02T13:03:07Z</time></trkpt><trkpt lat="46.039017348915145" lon="9.125109033731528"><ele>293.4</ele><time>2026-05-02T13:03:08Z</time></trkpt><trkpt lat="46.03897244437991" lon="9.125014801384685"><ele>291.2</ele><time>2026-05-02T13:03:09Z</time></trkpt><trkpt lat="46.038947125942684" lon="9.124909699698124"><ele>289.0</ele><time>2026-05-02T13:03:10Z</time></trkpt><trkpt lat="46.03905033762972" lon="9.124694158834501"><ele>289.0</ele><time>2026-05-02T13:03:11Z</time></trkpt><trkpt lat="46.039095725016026" lon="9.12455787242602"><ele>289.0</ele><time>2026-05-02T13:03:12Z</time></trkpt><trkpt lat="46.0391460136751" lon="9.124443317035732"><ele>289.0</ele><time>2026-05-02T13:03:13Z</time></trkpt><trkpt lat="46.03917412397314" lon="9.124278284336386"><ele>289.0</ele><time>2026-05-02T13:03:14Z</time></trkpt><trkpt lat="46.039163807225975" lon="9.124123874583898"><ele>289.0</ele><time>2026-05-02T13:03:15Z</time></trkpt><trkpt lat="46.039136908537195" lon="9.123987525453604"><ele>288.4</ele><time>2026-05-02T13:03:16Z</time></trkpt><trkpt lat="46.03908864698713" lon="9.123871110766906"><ele>287.79999999999995</ele><time>2026-05-02T13:03:17Z</time></trkpt><trkpt lat="46.039004383967274" lon="9.123809219320425"><ele>287.20000000000005</ele><time>2026-05-02T13:03:18Z</time></trkpt><trkpt lat="46.03889065681481" lon="9.1238251842346"><ele>286.6</ele><time>2026-05-02T13:03:19Z</time></trkpt><trkpt lat="46.03877998141438" lon="9.123905233399725"><ele>286.0</ele><time>2026-05-02T13:03:20Z</time></trkpt><trkpt lat="46.03866645123893" lon="9.124003156783983"><ele>286.0</ele><time>2026-05-02T13:03:21Z</time></trkpt><trkpt lat="46.038542525439375" lon="9.124030059587035"><ele>286.0</ele><time>2026-05-02T13:03:22Z</time></trkpt><trkpt lat="46.038412415679716" lon="9.12408165642394"><ele>286.0</ele><time>2026-05-02T13:03:23Z</time></trkpt><trkpt lat="46.03829806117838" lon="9.124118494868123"><ele>286.0</ele><time>2026-05-02T13:03:24Z</time></trkpt><trkpt lat="46.03820743503385" lon="9.124139904825935"><ele>286.0</ele><time>2026-05-02T13:03:25Z</time></trkpt><trkpt lat="46.038127007814715" lon="9.124145608416573"><ele>286.0</ele><time>2026-05-02T13:03:26Z</time></trkpt><trkpt lat="46.03801708904787" lon="9.124205259366509"><ele>286.0</ele><time>2026-05-02T13:03:28Z</time></trkpt><trkpt lat="46.037930837970585" lon="9.124214827583026"><ele>286.0</ele><time>2026-05-02T13:03:30Z</time></trkpt><trkpt lat="46.0378777481581" lon="9.124108548660521"><ele>286.0</ele><time>2026-05-02T13:03:32Z</time></trkpt><trkpt lat="46.037847395854136" lon="9.12402821142494"><ele>286.0</ele><time>2026-05-02T13:03:33Z</time></trkpt><trkpt lat="46.03780984548087" lon="9.123943562296581"><ele>285.5</ele><time>2026-05-02T13:03:34Z</time></trkpt><trkpt lat="46.03778735105206" lon="9.123808642609793"><ele>285.0</ele><time>2026-05-02T13:03:35Z</time></trkpt><trkpt lat="46.03776372215113" lon="9.123701995369212"><ele>284.5</ele><time>2026-05-02T13:03:36Z</time></trkpt><trkpt lat="46.03776778985284" lon="9.123568328071649"><ele>284.0</ele><time>2026-05-02T13:03:37Z</time></trkpt><trkpt lat="46.03776527174877" lon="9.12346322288422"><ele>283.5</ele><time>2026-05-02T13:03:38Z</time></trkpt><trkpt lat="46.037797873844866" lon="9.123337122864632"><ele>283.0</ele><time>2026-05-02T13:03:39Z</time></trkpt><trkpt lat="46.0378054754287" lon="9.123186307485216"><ele>283.0</ele><time>2026-05-02T13:03:40Z</time></trkpt><trkpt lat="46.03781350040553" lon="9.123059849371318"><ele>283.0</ele><time>2026-05-02T13:03:41Z</time></trkpt><trkpt lat="46.037800939874764" lon="9.122943616009342"><ele>283.0</ele><time>2026-05-02T13:03:42Z</time></trkpt><trkpt lat="46.03778156454436" lon="9.12284100329873"><ele>283.0</ele><time>2026-05-02T13:03:43Z</time></trkpt><trkpt lat="46.03775123221286" lon="9.122740319339753"><ele>283.0</ele><time>2026-05-02T13:03:44Z</time></trkpt><trkpt lat="46.037679153845076" lon="9.122620859883176"><ele>283.0</ele><time>2026-05-02T13:03:46Z</time></trkpt><trkpt lat="46.03758371107525" lon="9.122719405455769"><ele>283.0</ele><time>2026-05-02T13:03:48Z</time></trkpt><trkpt lat="46.03747393856816" lon="9.122697889705536"><ele>283.0</ele><time>2026-05-02T13:03:50Z</time></trkpt><trkpt lat="46.03736042139229" lon="9.122676551481272"><ele>283.0</ele><time>2026-05-02T13:03:52Z</time></trkpt><trkpt lat="46.03728771324906" lon="9.122659419517383"><ele>283.0</ele><time>2026-05-02T13:03:53Z</time></trkpt><trkpt lat="46.037212507383906" lon="9.12260378376071"><ele>283.0</ele><time>2026-05-02T13:03:54Z</time></trkpt><trkpt lat="46.0371297567979" lon="9.122556954273271"><ele>283.0</ele><time>2026-05-02T13:03:55Z</time></trkpt><trkpt lat="46.03706186178798" lon="9.122509457962641"><ele>283.0</ele><time>2026-05-02T13:03:56Z</time></trkpt><trkpt lat="46.03699073935251" lon="9.122478359063424"><ele>283.0</ele><time>2026-05-02T13:03:58Z</time></trkpt><trkpt lat="46.036897359330595" lon="9.122344528587798"><ele>283.0</ele><time>2026-05-02T13:04:05Z</time></trkpt><trkpt lat="46.03685513067232" lon="9.122249332484369"><ele>283.0</ele><time>2026-05-02T13:04:06Z</time></trkpt><trkpt lat="46.0368111365155" lon="9.122151163260938"><ele>283.0</ele><time>2026-05-02T13:04:07Z</time></trkpt><trkpt lat="46.03676289449205" lon="9.122068259369085"><ele>282.4</ele><time>2026-05-02T13:04:08Z</time></trkpt><trkpt lat="46.03668537049829" lon="9.121964807886902"><ele>281.8</ele><time>2026-05-02T13:04:10Z</time></trkpt><trkpt lat="46.03662912450628" lon="9.121856126660118"><ele>281.2</ele><time>2026-05-02T13:04:12Z</time></trkpt><trkpt lat="46.03654055280097" lon="9.121696076506547"><ele>280.6</ele><time>2026-05-02T13:04:14Z</time></trkpt><trkpt lat="46.03649218790344" lon="9.121603158368579"><ele>280.0</ele><time>2026-05-02T13:04:15Z</time></trkpt><trkpt lat="46.0364529756049" lon="9.121494257080444"><ele>279.8</ele><time>2026-05-02T13:04:16Z</time></trkpt><trkpt lat="46.036398077301314" lon="9.121379432376548"><ele>279.6</ele><time>2026-05-02T13:04:17Z</time></trkpt><trkpt lat="46.03636620969064" lon="9.121259021870685"><ele>279.4</ele><time>2026-05-02T13:04:18Z</time></trkpt><trkpt lat="46.03631696881749" lon="9.121137775616296"><ele>279.2</ele><time>2026-05-02T13:04:19Z</time></trkpt><trkpt lat="46.03624669482191" lon="9.121029204711398"><ele>279.0</ele><time>2026-05-02T13:04:20Z</time></trkpt><trkpt lat="46.03618374305627" lon="9.12091506677671"><ele>279.0</ele><time>2026-05-02T13:04:21Z</time></trkpt><trkpt lat="46.03613814189237" lon="9.120809634117434"><ele>279.0</ele><time>2026-05-02T13:04:22Z</time></trkpt><trkpt lat="46.03608562089114" lon="9.120690126990057"><ele>279.0</ele><time>2026-05-02T13:04:23Z</time></trkpt><trkpt lat="46.036033492376674" lon="9.120553866051207"><ele>279.0</ele><time>2026-05-02T13:04:24Z</time></trkpt><trkpt lat="46.035981303992536" lon="9.120425587200982"><ele>279.0</ele><time>2026-05-02T13:04:25Z</time></trkpt><trkpt lat="46.03593470336304" lon="9.120293127706612"><ele>278.5</ele><time>2026-05-02T13:04:26Z</time></trkpt><trkpt lat="46.035891407255505" lon="9.120154674120103"><ele>278.0</ele><time>2026-05-02T13:04:27Z</time></trkpt><trkpt lat="46.03584868666242" lon="9.120005541870436"><ele>277.5</ele><time>2026-05-02T13:04:28Z</time></trkpt><trkpt lat="46.03579309621923" lon="9.119843196849983"><ele>277.0</ele><time>2026-05-02T13:04:29Z</time></trkpt><trkpt lat="46.035733700043494" lon="9.119693044514912"><ele>276.75</ele><time>2026-05-02T13:04:30Z</time></trkpt><trkpt lat="46.0356691208686" lon="9.119530527581254"><ele>276.5</ele><time>2026-05-02T13:04:31Z</time></trkpt><trkpt lat="46.03560271298413" lon="9.1193758133966"><ele>276.25</ele><time>2026-05-02T13:04:32Z</time></trkpt><trkpt lat="46.035565999090736" lon="9.119213579682812"><ele>276.0</ele><time>2026-05-02T13:04:33Z</time></trkpt><trkpt lat="46.03552387724423" lon="9.119067084078017"><ele>275.8</ele><time>2026-05-02T13:04:34Z</time></trkpt><trkpt lat="46.035468205586064" lon="9.11892599469019"><ele>275.6</ele><time>2026-05-02T13:04:35Z</time></trkpt><trkpt lat="46.03541467757329" lon="9.118788980843394"><ele>275.4</ele><time>2026-05-02T13:04:36Z</time></trkpt><trkpt lat="46.03535754191306" lon="9.11865004659655"><ele>275.2</ele><time>2026-05-02T13:04:37Z</time></trkpt><trkpt lat="46.035312990906256" lon="9.118519249995343"><ele>275.0</ele><time>2026-05-02T13:04:38Z</time></trkpt><trkpt lat="46.03528211902572" lon="9.118402614844625"><ele>275.0</ele><time>2026-05-02T13:04:39Z</time></trkpt><trkpt lat="46.03527993777492" lon="9.118271182165877"><ele>275.0</ele><time>2026-05-02T13:04:51Z</time></trkpt><trkpt lat="46.03529230592439" lon="9.118121875599014"><ele>275.0</ele><time>2026-05-02T13:04:53Z</time></trkpt><trkpt lat="46.035341272371035" lon="9.11802703468182"><ele>275.0</ele><time>2026-05-02T13:04:54Z</time></trkpt><trkpt lat="46.03540016558273" lon="9.117942504607019"><ele>275.0</ele><time>2026-05-02T13:04:55Z</time></trkpt><trkpt lat="46.03546587836581" lon="9.117853729771554"><ele>274.75</ele><time>2026-05-02T13:04:56Z</time></trkpt><trkpt lat="46.03554419100469" lon="9.117755964555682"><ele>274.5</ele><time>2026-05-02T13:04:57Z</time></trkpt><trkpt lat="46.03562489901195" lon="9.11764228450866"><ele>274.25</ele><time>2026-05-02T13:04:58Z</time></trkpt><trkpt lat="46.03571604824441" lon="9.117523345710854"><ele>274.0</ele><time>2026-05-02T13:04:59Z</time></trkpt><trkpt lat="46.03580064589327" lon="9.11741093273633"><ele>274.75</ele><time>2026-05-02T13:05:00Z</time></trkpt><trkpt lat="46.03590978132627" lon="9.11729232162184"><ele>275.5</ele><time>2026-05-02T13:05:01Z</time></trkpt><trkpt lat="46.03601447134795" lon="9.117166242192452"><ele>276.25</ele><time>2026-05-02T13:05:02Z</time></trkpt><trkpt lat="46.03605290157958" lon="9.117061797629557"><ele>277.0</ele><time>2026-05-02T13:05:03Z</time></trkpt><trkpt lat="46.03614260393817" lon="9.116943980718496"><ele>277.0</ele><time>2026-05-02T13:05:04Z</time></trkpt><trkpt lat="46.03624346075125" lon="9.116830216739473"><ele>277.0</ele><time>2026-05-02T13:05:05Z</time></trkpt><trkpt lat="46.03634939439863" lon="9.116698846484814"><ele>277.0</ele><time>2026-05-02T13:05:06Z</time></trkpt><trkpt lat="46.03643531582215" lon="9.116546330308298"><ele>277.0</ele><time>2026-05-02T13:05:07Z</time></trkpt><trkpt lat="46.03650994208167" lon="9.116393166287079"><ele>275.75</ele><time>2026-05-02T13:05:08Z</time></trkpt><trkpt lat="46.03657314322784" lon="9.116237206942602"><ele>274.5</ele><time>2026-05-02T13:05:09Z</time></trkpt><trkpt lat="46.03664192194627" lon="9.116087067009598"><ele>273.25</ele><time>2026-05-02T13:05:10.02Z</time></trkpt><trkpt lat="46.036720652046405" lon="9.115941637409547"><ele>272.0</ele><time>2026-05-02T13:05:11.014Z</time></trkpt><trkpt lat="46.03679191474745" lon="9.115823341428085"><ele>272.0</ele><time>2026-05-02T13:05:12.012Z</time></trkpt><trkpt lat="46.03683809932511" lon="9.115705839703352"><ele>272.0</ele><time>2026-05-02T13:05:13.013Z</time></trkpt><trkpt lat="46.03686580669242" lon="9.115601931318944"><ele>272.0</ele><time>2026-05-02T13:05:14.018Z</time></trkpt><trkpt lat="46.036869816175106" lon="9.115199131666474"><ele>272.0</ele><time>2026-05-02T13:05:17.689Z</time></trkpt><trkpt lat="46.03687070943598" lon="9.115087153525534"><ele>272.0</ele><time>2026-05-02T13:05:18.688Z</time></trkpt><trkpt lat="46.03690183218496" lon="9.114983962714346"><ele>272.0</ele><time>2026-05-02T13:05:19.689Z</time></trkpt><trkpt lat="46.036915102697684" lon="9.11487637412201"><ele>272.0</ele><time>2026-05-02T13:05:20.689Z</time></trkpt><trkpt lat="46.036925075046" lon="9.114766595351906"><ele>272.0</ele><time>2026-05-02T13:05:21.688Z</time></trkpt><trkpt lat="46.036915669879605" lon="9.114654981991045"><ele>272.0</ele><time>2026-05-02T13:05:22.69Z</time></trkpt><trkpt lat="46.03691921291292" lon="9.114545903517532"><ele>297.0</ele><time>2026-05-02T13:05:23.689Z</time></trkpt><trkpt lat="46.0369203" lon="9.1144366611062"><ele>322.0</ele><time>2026-05-02T13:05:24.689Z</time></trkpt><trkpt lat="46.03691895603976" lon="9.114327493485504"><ele>347.0</ele><time>2026-05-02T13:05:25.689Z</time></trkpt><trkpt lat="46.03693162999298" lon="9.114216943207749"><ele>372.0</ele><time>2026-05-02T13:05:26.688Z</time></trkpt><trkpt lat="46.036909334094474" lon="9.11410956190646"><ele>396.99999999999994</ele><time>2026-05-02T13:05:27.687Z</time></trkpt><trkpt lat="46.036918213116486" lon="9.1139972928173"><ele>422.0</ele><time>2026-05-02T13:05:28.689Z</time></trkpt><trkpt lat="46.03690703447815" lon="9.113888778501366"><ele>421.99999999999994</ele><time>2026-05-02T13:05:29.688Z</time></trkpt><trkpt lat="46.03687652580858" lon="9.113785221009088"><ele>422.0</ele><time>2026-05-02T13:05:30.689Z</time></trkpt><trkpt lat="46.036859152950726" lon="9.11367879407007"><ele>422.0</ele><time>2026-05-02T13:05:31.689Z</time></trkpt><trkpt lat="46.03683924533499" lon="9.113573320209172"><ele>422.0</ele><time>2026-05-02T13:05:32.689Z</time></trkpt><trkpt lat="46.03681746083045" lon="9.113468564486809"><ele>421.99999999999994</ele><time>2026-05-02T13:05:33.69Z</time></trkpt><trkpt lat="46.03680936293194" lon="9.113357297906058"><ele>422.0</ele><time>2026-05-02T13:05:34.688Z</time></trkpt><trkpt lat="46.0367835238626" lon="9.113253690424015"><ele>422.66666666666663</ele><time>2026-05-02T13:05:35.689Z</time></trkpt><trkpt lat="46.03674020564289" lon="9.113160366278464"><ele>423.3333333333333</ele><time>2026-05-02T13:05:36.688Z</time></trkpt><trkpt lat="46.03670814475621" lon="9.113061252752894"><ele>424.0</ele><time>2026-05-02T13:05:37.689Z</time></trkpt><trkpt lat="46.03667334277474" lon="9.112964183765568"><ele>424.66666666666663</ele><time>2026-05-02T13:05:38.688Z</time></trkpt><trkpt lat="46.03665126613383" lon="9.112856738751974"><ele>425.3333333333333</ele><time>2026-05-02T13:05:39.688Z</time></trkpt><trkpt lat="46.036613409907474" lon="9.112761299113345"><ele>426.0</ele><time>2026-05-02T13:05:40.689Z</time></trkpt><trkpt lat="46.0365740135419" lon="9.11266667224651"><ele>421.1666666666667</ele><time>2026-05-02T13:05:41.689Z</time></trkpt><trkpt lat="46.03653307654117" lon="9.112574621800713"><ele>416.33333333333337</ele><time>2026-05-02T13:05:42.689Z</time></trkpt><trkpt lat="46.03647584675767" lon="9.112497399715927"><ele>411.5</ele><time>2026-05-02T13:05:43.689Z</time></trkpt><trkpt lat="46.036431631041076" lon="9.112408562082141"><ele>406.6666666666667</ele><time>2026-05-02T13:05:44.689Z</time></trkpt><trkpt lat="46.03639990007389" lon="9.11230629977826"><ele>401.83333333333337</ele><time>2026-05-02T13:05:45.689Z</time></trkpt><trkpt lat="46.036354555010554" lon="9.11221852509813"><ele>397.0</ele><time>2026-05-02T13:05:46.689Z</time></trkpt><trkpt lat="46.0362958081348" lon="9.112144920534535"><ele>397.00000000000006</ele><time>2026-05-02T13:05:47.69Z</time></trkpt><trkpt lat="46.036264391152926" lon="9.112042798801822"><ele>397.0</ele><time>2026-05-02T13:05:48.689Z</time></trkpt><trkpt lat="46.036206330157526" lon="9.111968215385856"><ele>397.0</ele><time>2026-05-02T13:05:49.689Z</time></trkpt><trkpt lat="46.03616176052669" lon="9.111879638471512"><ele>397.0</ele><time>2026-05-02T13:05:50.689Z</time></trkpt><trkpt lat="46.03613068217872" lon="9.111777067902466"><ele>397.00000000000006</ele><time>2026-05-02T13:05:51.689Z</time></trkpt><trkpt lat="46.03608610577862" lon="9.111688477519625"><ele>397.0</ele><time>2026-05-02T13:05:52.689Z</time></trkpt><trkpt lat="46.03602802610418" lon="9.111613856990607"><ele>403.00000000000006</ele><time>2026-05-02T13:05:53.689Z</time></trkpt><trkpt lat="46.035997049376405" lon="9.11151148836477"><ele>409.0</ele><time>2026-05-02T13:05:54.687Z</time></trkpt><trkpt lat="46.03593869038975" lon="9.111436927765585"><ele>415.0</ele><time>2026-05-02T13:05:55.689Z</time></trkpt><trkpt lat="46.0358937557426" lon="9.11134867584552"><ele>421.0</ele><time>2026-05-02T13:05:56.69Z</time></trkpt><trkpt lat="46.035848854555795" lon="9.111260489641786"><ele>427.00000000000006</ele><time>2026-05-02T13:05:57.689Z</time></trkpt><trkpt lat="46.03581747351403" lon="9.111158365764874"><ele>433.0</ele><time>2026-05-02T13:05:58.687Z</time></trkpt><trkpt lat="46.03575904274755" lon="9.111084098704605"><ele>424.33333333333337</ele><time>2026-05-02T13:05:59.689Z</time></trkpt><trkpt lat="46.03571413015028" lon="9.110995890090647"><ele>415.6666666666667</ele><time>2026-05-02T13:06:00.689Z</time></trkpt><trkpt lat="46.035682652845374" lon="9.110893577167612"><ele>407.0</ele><time>2026-05-02T13:06:01.689Z</time></trkpt><trkpt lat="46.035624291216074" lon="9.110819445877913"><ele>398.33333333333337</ele><time>2026-05-02T13:06:02.689Z</time></trkpt><trkpt lat="46.035592767507474" lon="9.110717041838353"><ele>389.6666666666667</ele><time>2026-05-02T13:06:03.69Z</time></trkpt><trkpt lat="46.035547856166495" lon="9.11062883569785"><ele>381.0</ele><time>2026-05-02T13:06:04.69Z</time></trkpt><trkpt lat="46.03167961003077" lon="9.104168553390423"><ele>329.5</ele><time>2026-05-02T13:06:06Z</time></trkpt><trkpt lat="46.03145127535132" lon="9.103942377705735"><ele>278.0</ele><time>2026-05-02T13:06:07Z</time></trkpt><trkpt lat="46.031331825464065" lon="9.103742109664976"><ele>278.0</ele><time>2026-05-02T13:06:08Z</time></trkpt><trkpt lat="46.031241504018716" lon="9.103503080268577"><ele>278.0</ele><time>2026-05-02T13:06:09Z</time></trkpt><trkpt lat="46.0311195640051" lon="9.103285929567075"><ele>278.0</ele><time>2026-05-02T13:06:10Z</time></trkpt><trkpt lat="46.03101760447175" lon="9.103051300769883"><ele>277.0</ele><time>2026-05-02T13:06:11Z</time></trkpt><trkpt lat="46.0308901352737" lon="9.102833462874067"><ele>276.0</ele><time>2026-05-02T13:06:12Z</time></trkpt><trkpt lat="46.03075335157036" lon="9.102637024533133"><ele>275.0</ele><time>2026-05-02T13:06:13Z</time></trkpt><trkpt lat="46.0306054853008" lon="9.102445971409514"><ele>277.6666666666667</ele><time>2026-05-02T13:06:14Z</time></trkpt><trkpt lat="46.03047119972696" lon="9.102228500874675"><ele>280.3333333333333</ele><time>2026-05-02T13:06:15Z</time></trkpt><trkpt lat="46.03034102218305" lon="9.102038269462884"><ele>283.0</ele><time>2026-05-02T13:06:16Z</time></trkpt><trkpt lat="46.0302478478379" lon="9.101819544615537"><ele>283.0</ele><time>2026-05-02T13:06:17Z</time></trkpt><trkpt lat="46.03013041543987" lon="9.101626297114048"><ele>283.0</ele><time>2026-05-02T13:06:18Z</time></trkpt><trkpt lat="46.03004067336906" lon="9.101471279814714"><ele>283.0</ele><time>2026-05-02T13:06:19Z</time></trkpt><trkpt lat="46.02994414217158" lon="9.10128265155618"><ele>282.0</ele><time>2026-05-02T13:06:20Z</time></trkpt><trkpt lat="46.02983929871898" lon="9.101106920124339"><ele>281.0</ele><time>2026-05-02T13:06:21Z</time></trkpt><trkpt lat="46.02971342887488" lon="9.100942803271831"><ele>280.0</ele><time>2026-05-02T13:06:22Z</time></trkpt><trkpt lat="46.0295935710864" lon="9.100782402429113"><ele>285.0</ele><time>2026-05-02T13:06:23Z</time></trkpt><trkpt lat="46.02943148814704" lon="9.100606830278542"><ele>290.0</ele><time>2026-05-02T13:06:24Z</time></trkpt><trkpt lat="46.0293036930668" lon="9.100447256070973"><ele>295.0</ele><time>2026-05-02T13:06:25Z</time></trkpt><trkpt lat="46.02916268380812" lon="9.1002955517849"><ele>291.3333333333333</ele><time>2026-05-02T13:06:26Z</time></trkpt><trkpt lat="46.02901471271495" lon="9.100149998110275"><ele>287.6666666666667</ele><time>2026-05-02T13:06:27Z</time></trkpt><trkpt lat="46.02888201638398" lon="9.100003012867134"><ele>284.0</ele><time>2026-05-02T13:06:28Z</time></trkpt><trkpt lat="46.02873448157055" lon="9.09987111499997"><ele>284.0</ele><time>2026-05-02T13:06:29Z</time></trkpt><trkpt lat="46.02859531753947" lon="9.099741565967323"><ele>284.0</ele><time>2026-05-02T13:06:30Z</time></trkpt><trkpt lat="46.02845726797134" lon="9.099579546528389"><ele>284.0</ele><time>2026-05-02T13:06:31Z</time></trkpt><trkpt lat="46.02832384309453" lon="9.099423443774905"><ele>284.6666666666667</ele><time>2026-05-02T13:06:32Z</time></trkpt><trkpt lat="46.0281962175338" lon="9.099251317282459"><ele>285.3333333333333</ele><time>2026-05-02T13:06:33Z</time></trkpt><trkpt lat="46.02807884341085" lon="9.099069694022917"><ele>286.0</ele><time>2026-05-02T13:06:34Z</time></trkpt><trkpt lat="46.027940890544535" lon="9.098900967261551"><ele>286.0</ele><time>2026-05-02T13:06:35Z</time></trkpt><trkpt lat="46.02781125026231" lon="9.098721855286314"><ele>286.0</ele><time>2026-05-02T13:06:36Z</time></trkpt><trkpt lat="46.02767256619517" lon="9.098551442671118"><ele>286.0</ele><time>2026-05-02T13:06:37Z</time></trkpt><trkpt lat="46.02753598407142" lon="9.09839601526436"><ele>283.66666666666663</ele><time>2026-05-02T13:06:38Z</time></trkpt><trkpt lat="46.02738204295429" lon="9.098265036671744"><ele>281.3333333333333</ele><time>2026-05-02T13:06:39Z</time></trkpt><trkpt lat="46.02723019718978" lon="9.098119832257932"><ele>279.0</ele><time>2026-05-02T13:06:40Z</time></trkpt><trkpt lat="46.02709296774456" lon="9.097985349265821"><ele>278.6666666666667</ele><time>2026-05-02T13:06:41Z</time></trkpt><trkpt lat="46.0269696797928" lon="9.09784619171626"><ele>278.33333333333337</ele><time>2026-05-02T13:06:42Z</time></trkpt><trkpt lat="46.02688085191929" lon="9.09765324106545"><ele>278.0</ele><time>2026-05-02T13:06:43Z</time></trkpt><trkpt lat="46.02679129361111" lon="9.09745485042606"><ele>279.33333333333337</ele><time>2026-05-02T13:06:44Z</time></trkpt><trkpt lat="46.026707033367" lon="9.097252717562972"><ele>280.6666666666667</ele><time>2026-05-02T13:06:45Z</time></trkpt><trkpt lat="46.026659613295244" lon="9.097017999370614"><ele>282.0</ele><time>2026-05-02T13:06:46Z</time></trkpt><trkpt lat="46.02662163375629" lon="9.096776604733769"><ele>280.0</ele><time>2026-05-02T13:06:47Z</time></trkpt><trkpt lat="46.02657462135453" lon="9.096529195889568"><ele>278.0</ele><time>2026-05-02T13:06:48Z</time></trkpt><trkpt lat="46.02652765449497" lon="9.09628039535878"><ele>276.0</ele><time>2026-05-02T13:06:49Z</time></trkpt><trkpt lat="46.02639250092501" lon="9.096097439419488"><ele>276.0</ele><time>2026-05-02T13:06:50Z</time></trkpt><trkpt lat="46.02628450031958" lon="9.095913752687817"><ele>276.0</ele><time>2026-05-02T13:06:51Z</time></trkpt><trkpt lat="46.02617922839571" lon="9.09574352276608"><ele>276.0</ele><time>2026-05-02T13:06:52Z</time></trkpt><trkpt lat="46.02607634673406" lon="9.0955667456605"><ele>275.25</ele><time>2026-05-02T13:06:53Z</time></trkpt><trkpt lat="46.02598385852302" lon="9.095394525402972"><ele>274.5</ele><time>2026-05-02T13:06:54Z</time></trkpt><trkpt lat="46.025891551462195" lon="9.095226650144713"><ele>273.75</ele><time>2026-05-02T13:06:55Z</time></trkpt><trkpt lat="46.0258119921552" lon="9.095054355956783"><ele>273.0</ele><time>2026-05-02T13:06:56Z</time></trkpt><trkpt lat="46.02576774809586" lon="9.094843611447411"><ele>273.0</ele><time>2026-05-02T13:06:57Z</time></trkpt><trkpt lat="46.02572593614657" lon="9.094617373182757"><ele>273.0</ele><time>2026-05-02T13:06:58Z</time></trkpt><trkpt lat="46.025670192517104" lon="9.09438549723063"><ele>273.0</ele><time>2026-05-02T13:06:59Z</time></trkpt><trkpt lat="46.02562334455277" lon="9.094153153316057"><ele>274.0</ele><time>2026-05-02T13:07:00Z</time></trkpt><trkpt lat="46.025547108359376" lon="9.093920472920834"><ele>275.0</ele><time>2026-05-02T13:07:01Z</time></trkpt><trkpt lat="46.02545874512355" lon="9.093709740991184"><ele>276.0</ele><time>2026-05-02T13:07:02Z</time></trkpt><trkpt lat="46.02534354868918" lon="9.09351108061066"><ele>276.0</ele><time>2026-05-02T13:07:03Z</time></trkpt><trkpt lat="46.02524365639729" lon="9.093319092205952"><ele>276.0</ele><time>2026-05-02T13:07:04Z</time></trkpt><trkpt lat="46.02513412379293" lon="9.093120306373992"><ele>276.0</ele><time>2026-05-02T13:07:05Z</time></trkpt><trkpt lat="46.02502316269806" lon="9.092922684973011"><ele>275.3333333333333</ele><time>2026-05-02T13:07:06Z</time></trkpt><trkpt lat="46.02492161342676" lon="9.092750616460924"><ele>274.66666666666663</ele><time>2026-05-02T13:07:07Z</time></trkpt><trkpt lat="46.024826762507935" lon="9.092569051686306"><ele>274.0</ele><time>2026-05-02T13:07:08Z</time></trkpt><trkpt lat="46.02476509617202" lon="9.092374260854363"><ele>274.0</ele><time>2026-05-02T13:07:09Z</time></trkpt><trkpt lat="46.024753844618516" lon="9.09217663991975"><ele>274.0</ele><time>2026-05-02T13:07:10Z</time></trkpt><trkpt lat="46.024751781971474" lon="9.091979100007604"><ele>274.0</ele><time>2026-05-02T13:07:11Z</time></trkpt><trkpt lat="46.02474395044941" lon="9.091791063582413"><ele>274.0</ele><time>2026-05-02T13:07:12Z</time></trkpt><trkpt lat="46.024729059749674" lon="9.091577116947843"><ele>274.5</ele><time>2026-05-02T13:07:13Z</time></trkpt><trkpt lat="46.02469530152684" lon="9.09139336794085"><ele>275.0</ele><time>2026-05-02T13:07:14Z</time></trkpt><trkpt lat="46.02462766671498" lon="9.091229786703934"><ele>275.5</ele><time>2026-05-02T13:07:15Z</time></trkpt><trkpt lat="46.024659043180534" lon="9.091032999313109"><ele>276.0</ele><time>2026-05-02T13:07:16Z</time></trkpt><trkpt lat="46.0246688910166" lon="9.090831286319473"><ele>276.5</ele><time>2026-05-02T13:07:17Z</time></trkpt><trkpt lat="46.024663226633194" lon="9.090637554409946"><ele>277.0</ele><time>2026-05-02T13:07:18Z</time></trkpt><trkpt lat="46.02458972436685" lon="9.09044361578322"><ele>277.5</ele><time>2026-05-02T13:07:19Z</time></trkpt><trkpt lat="46.02449357559141" lon="9.09025732525396"><ele>278.0</ele><time>2026-05-02T13:07:20Z</time></trkpt><trkpt lat="46.0243995515369" lon="9.090087791202468"><ele>279.0</ele><time>2026-05-02T13:07:21Z</time></trkpt><trkpt lat="46.02431613389699" lon="9.089914323282946"><ele>280.0</ele><time>2026-05-02T13:07:22Z</time></trkpt><trkpt lat="46.02425797254896" lon="9.089732097122402"><ele>281.0</ele><time>2026-05-02T13:07:23Z</time></trkpt><trkpt lat="46.02421596874071" lon="9.089524472448959"><ele>282.0</ele><time>2026-05-02T13:07:24Z</time></trkpt><trkpt lat="46.02417689644353" lon="9.089315495465307"><ele>282.0</ele><time>2026-05-02T13:07:25Z</time></trkpt><trkpt lat="46.02414688360493" lon="9.089095646890534"><ele>282.0</ele><time>2026-05-02T13:07:26Z</time></trkpt><trkpt lat="46.02410317600737" lon="9.088889922335865"><ele>282.0</ele><time>2026-05-02T13:07:27Z</time></trkpt><trkpt lat="46.0240681139319" lon="9.088695893596281"><ele>282.0</ele><time>2026-05-02T13:07:28Z</time></trkpt><trkpt lat="46.02405603583643" lon="9.088512037639772"><ele>281.5</ele><time>2026-05-02T13:07:29Z</time></trkpt><trkpt lat="46.024072326958525" lon="9.08833298508962"><ele>281.0</ele><time>2026-05-02T13:07:30Z</time></trkpt><trkpt lat="46.024116261598415" lon="9.088164893282212"><ele>280.5</ele><time>2026-05-02T13:07:31Z</time></trkpt><trkpt lat="46.02417150759442" lon="9.08799241194002"><ele>280.0</ele><time>2026-05-02T13:07:32Z</time></trkpt><trkpt lat="46.024196730372545" lon="9.087804441942424"><ele>280.0</ele><time>2026-05-02T13:07:33Z</time></trkpt><trkpt lat="46.02419534219106" lon="9.087593390282272"><ele>280.0</ele><time>2026-05-02T13:07:34Z</time></trkpt><trkpt lat="46.02416816749959" lon="9.087381741758145"><ele>280.0</ele><time>2026-05-02T13:07:35Z</time></trkpt><trkpt lat="46.024148388642054" lon="9.087178703641994"><ele>280.0</ele><time>2026-05-02T13:07:36Z</time></trkpt><trkpt lat="46.024143150251646" lon="9.086990535545041"><ele>279.75</ele><time>2026-05-02T13:07:37Z</time></trkpt><trkpt lat="46.024135313795234" lon="9.086798268370814"><ele>279.5</ele><time>2026-05-02T13:07:38Z</time></trkpt><trkpt lat="46.024150892162005" lon="9.086596798282196"><ele>279.25</ele><time>2026-05-02T13:07:39Z</time></trkpt><trkpt lat="46.02417833981846" lon="9.086406098314507"><ele>279.0</ele><time>2026-05-02T13:07:40Z</time></trkpt><trkpt lat="46.024216671399124" lon="9.086227464372561"><ele>279.0</ele><time>2026-05-02T13:07:41Z</time></trkpt><trkpt lat="46.02426474768549" lon="9.086048595759038"><ele>279.0</ele><time>2026-05-02T13:07:42Z</time></trkpt><trkpt lat="46.024299271589314" lon="9.08586713249202"><ele>279.0</ele><time>2026-05-02T13:07:43Z</time></trkpt><trkpt lat="46.02431784762722" lon="9.085661125173806"><ele>279.0</ele><time>2026-05-02T13:07:44Z</time></trkpt><trkpt lat="46.0243135549241" lon="9.085427069815081"><ele>279.0</ele><time>2026-05-02T13:07:45Z</time></trkpt><trkpt lat="46.02430341910434" lon="9.085181720796491"><ele>279.0</ele><time>2026-05-02T13:07:46Z</time></trkpt><trkpt lat="46.02430782387214" lon="9.084898966659122"><ele>279.0</ele><time>2026-05-02T13:07:47Z</time></trkpt><trkpt lat="46.024325364857624" lon="9.084593861549322"><ele>279.0</ele><time>2026-05-02T13:07:48Z</time></trkpt><trkpt lat="46.02433119405368" lon="9.084280009943983"><ele>279.0</ele><time>2026-05-02T13:07:49Z</time></trkpt><trkpt lat="46.024374481033945" lon="9.083973600240553"><ele>279.0</ele><time>2026-05-02T13:07:50Z</time></trkpt><trkpt lat="46.02437843154973" lon="9.083699547745214"><ele>279.0</ele><time>2026-05-02T13:07:51Z</time></trkpt><trkpt lat="46.024373147071245" lon="9.0834392679926"><ele>279.0</ele><time>2026-05-02T13:07:52Z</time></trkpt><trkpt lat="46.02436234728513" lon="9.0831737613695"><ele>279.0</ele><time>2026-05-02T13:07:53Z</time></trkpt><trkpt lat="46.02433547077219" lon="9.082929648223871"><ele>280.6666666666667</ele><time>2026-05-02T13:07:54Z</time></trkpt><trkpt lat="46.0242734135759" lon="9.082680935115468"><ele>282.33333333333337</ele><time>2026-05-02T13:07:55Z</time></trkpt><trkpt lat="46.0242136475217" lon="9.082444471486996"><ele>284.0</ele><time>2026-05-02T13:07:56Z</time></trkpt><trkpt lat="46.02415869040482" lon="9.082203820615245"><ele>280.33333333333337</ele><time>2026-05-02T13:07:57Z</time></trkpt><trkpt lat="46.024103339412086" lon="9.081964996924466"><ele>276.6666666666667</ele><time>2026-05-02T13:07:58Z</time></trkpt><trkpt lat="46.02405399429052" lon="9.081729660668163"><ele>273.0</ele><time>2026-05-02T13:07:59Z</time></trkpt><trkpt lat="46.024010297112255" lon="9.081507040676389"><ele>273.0</ele><time>2026-05-02T13:08:00Z</time></trkpt><trkpt lat="46.023970653779045" lon="9.081301360341397"><ele>273.0</ele><time>2026-05-02T13:08:01Z</time></trkpt><trkpt lat="46.023935884941004" lon="9.081098617446752"><ele>273.0</ele><time>2026-05-02T13:08:02Z</time></trkpt><trkpt lat="46.0239199190691" lon="9.08087997711531"><ele>273.0</ele><time>2026-05-02T13:08:03Z</time></trkpt><trkpt lat="46.02394777251198" lon="9.080683120528114"><ele>273.25</ele><time>2026-05-02T13:08:04Z</time></trkpt><trkpt lat="46.02398492806767" lon="9.080507910432578"><ele>273.5</ele><time>2026-05-02T13:08:05Z</time></trkpt><trkpt lat="46.024012172689126" lon="9.080333154100662"><ele>273.75</ele><time>2026-05-02T13:08:06Z</time></trkpt><trkpt lat="46.0240729611787" lon="9.080169823321596"><ele>274.0</ele><time>2026-05-02T13:08:07Z</time></trkpt><trkpt lat="46.02414164231828" lon="9.080019112751543"><ele>276.5</ele><time>2026-05-02T13:08:08Z</time></trkpt><trkpt lat="46.02417562430998" lon="9.079860295408327"><ele>279.0</ele><time>2026-05-02T13:08:09Z</time></trkpt><trkpt lat="46.02420819114996" lon="9.079675825040809"><ele>281.5</ele><time>2026-05-02T13:08:10Z</time></trkpt><trkpt lat="46.02422155104242" lon="9.079483010201708"><ele>284.0</ele><time>2026-05-02T13:08:11Z</time></trkpt><trkpt lat="46.02423604692526" lon="9.07930107907357"><ele>284.0</ele><time>2026-05-02T13:08:12Z</time></trkpt><trkpt lat="46.02426505275713" lon="9.079123324169174"><ele>284.0</ele><time>2026-05-02T13:08:13Z</time></trkpt><trkpt lat="46.024329626558554" lon="9.078954553902275"><ele>284.0</ele><time>2026-05-02T13:08:14Z</time></trkpt><trkpt lat="46.02438556885556" lon="9.07878475969191"><ele>284.0</ele><time>2026-05-02T13:08:15Z</time></trkpt><trkpt lat="46.02442983409683" lon="9.078625107920029"><ele>283.25</ele><time>2026-05-02T13:08:16Z</time></trkpt><trkpt lat="46.02445845675001" lon="9.078441110161233"><ele>282.5</ele><time>2026-05-02T13:08:17.001Z</time></trkpt><trkpt lat="46.02450221513737" lon="9.078264643140995"><ele>281.75</ele><time>2026-05-02T13:08:18.001Z</time></trkpt><trkpt lat="46.024509603297325" lon="9.078080533535937"><ele>281.0</ele><time>2026-05-02T13:08:19.001Z</time></trkpt><trkpt lat="46.024445266752956" lon="9.077891839025975"><ele>280.75</ele><time>2026-05-02T13:08:20.001Z</time></trkpt><trkpt lat="46.02443050633158" lon="9.077713092561496"><ele>280.5</ele><time>2026-05-02T13:08:21.001Z</time></trkpt><trkpt lat="46.02442118673491" lon="9.077543024028083"><ele>280.25</ele><time>2026-05-02T13:08:22Z</time></trkpt><trkpt lat="46.02439269357722" lon="9.077368261481915"><ele>280.0</ele><time>2026-05-02T13:08:23Z</time></trkpt><trkpt lat="46.02436149732801" lon="9.077189734126623"><ele>280.0</ele><time>2026-05-02T13:08:24Z</time></trkpt><trkpt lat="46.02433494976996" lon="9.077012996736839"><ele>280.0</ele><time>2026-05-02T13:08:25Z</time></trkpt><trkpt lat="46.0243281876137" lon="9.076824658637182"><ele>280.0</ele><time>2026-05-02T13:08:26Z</time></trkpt><trkpt lat="46.02432811050226" lon="9.076612676844146"><ele>280.0</ele><time>2026-05-02T13:08:27Z</time></trkpt><trkpt lat="46.02432881040162" lon="9.076369372173014"><ele>280.0</ele><time>2026-05-02T13:08:28Z</time></trkpt><trkpt lat="46.02430398914868" lon="9.076109689607389"><ele>280.0</ele><time>2026-05-02T13:08:29Z</time></trkpt><trkpt lat="46.02431683415082" lon="9.07585035306656"><ele>280.0</ele><time>2026-05-02T13:08:30Z</time></trkpt><trkpt lat="46.024307022761135" lon="9.075564905078041"><ele>279.66666666666663</ele><time>2026-05-02T13:08:31Z</time></trkpt><trkpt lat="46.02431773846508" lon="9.075309606176639"><ele>279.3333333333333</ele><time>2026-05-02T13:08:32Z</time></trkpt><trkpt lat="46.02432081150355" lon="9.075076008883705"><ele>279.0</ele><time>2026-05-02T13:08:33Z</time></trkpt><trkpt lat="46.02433739467527" lon="9.074848743767836"><ele>278.3333333333333</ele><time>2026-05-02T13:08:34Z</time></trkpt><trkpt lat="46.024371102808296" lon="9.074640498706666"><ele>277.66666666666663</ele><time>2026-05-02T13:08:35Z</time></trkpt><trkpt lat="46.024414706109454" lon="9.074419105457345"><ele>277.0</ele><time>2026-05-02T13:08:36Z</time></trkpt><trkpt lat="46.024482826860094" lon="9.074191557848403"><ele>277.75</ele><time>2026-05-02T13:08:37Z</time></trkpt><trkpt lat="46.02451866374443" lon="9.073992315891903"><ele>278.5</ele><time>2026-05-02T13:08:38Z</time></trkpt><trkpt lat="46.024525362833124" lon="9.073796862404352"><ele>279.25</ele><time>2026-05-02T13:08:39Z</time></trkpt><trkpt lat="46.02452941154205" lon="9.073605815159523"><ele>280.0</ele><time>2026-05-02T13:08:40Z</time></trkpt><trkpt lat="46.024534848961004" lon="9.0734191495799"><ele>280.66666666666663</ele><time>2026-05-02T13:08:41Z</time></trkpt><trkpt lat="46.02454080836064" lon="9.073247464837213"><ele>281.3333333333333</ele><time>2026-05-02T13:08:42Z</time></trkpt><trkpt lat="46.02454520778258" lon="9.073095395912066"><ele>282.0</ele><time>2026-05-02T13:08:43Z</time></trkpt><trkpt lat="46.02453377988673" lon="9.07297367975064"><ele>282.6666666666667</ele><time>2026-05-02T13:08:44Z</time></trkpt><trkpt lat="46.02453247181997" lon="9.072877908844934"><ele>283.33333333333337</ele><time>2026-05-02T13:08:45Z</time></trkpt><trkpt lat="46.02453182573617" lon="9.072782302734398"><ele>284.0</ele><time>2026-05-02T13:08:46Z</time></trkpt><trkpt lat="46.02453721291225" lon="9.07262481625344"><ele>284.0</ele><time>2026-05-02T13:08:48Z</time></trkpt><trkpt lat="46.02453995663555" lon="9.072500501966454"><ele>284.0</ele><time>2026-05-02T13:08:50Z</time></trkpt><trkpt lat="46.024510104141406" lon="9.072357569533679"><ele>284.0</ele><time>2026-05-02T13:08:52Z</time></trkpt><trkpt lat="46.02448692841665" lon="9.072263744811256"><ele>284.0</ele><time>2026-05-02T13:08:53Z</time></trkpt><trkpt lat="46.024461468839824" lon="9.072169302302633"><ele>284.0</ele><time>2026-05-02T13:08:54Z</time></trkpt><trkpt lat="46.02442459504567" lon="9.07207874217727"><ele>284.0</ele><time>2026-05-02T13:08:55Z</time></trkpt><trkpt lat="46.02437520177545" lon="9.07197759849669"><ele>284.33333333333337</ele><time>2026-05-02T13:08:56Z</time></trkpt><trkpt lat="46.02433662700071" lon="9.07188362974125"><ele>284.6666666666667</ele><time>2026-05-02T13:08:57Z</time></trkpt><trkpt lat="46.02430419295894" lon="9.071790730022139"><ele>285.0</ele><time>2026-05-02T13:08:58Z</time></trkpt><trkpt lat="46.024285762719266" lon="9.071665905763414"><ele>285.3333333333333</ele><time>2026-05-02T13:08:59Z</time></trkpt><trkpt lat="46.02430107659761" lon="9.071530297511517"><ele>285.66666666666663</ele><time>2026-05-02T13:09:01Z</time></trkpt><trkpt lat="46.024324759986676" lon="9.071410073400154"><ele>286.0</ele><time>2026-05-02T13:09:03Z</time></trkpt><trkpt lat="46.0244510487747" lon="9.071262267169327"><ele>287.0</ele><time>2026-05-02T13:09:05Z</time></trkpt><trkpt lat="46.02441593341869" lon="9.071129523426258"><ele>288.0</ele><time>2026-05-02T13:09:06Z</time></trkpt><trkpt lat="46.024357335301964" lon="9.070961930558779"><ele>289.0</ele><time>2026-05-02T13:09:07Z</time></trkpt><trkpt lat="46.02431890897415" lon="9.070654228257133"><ele>290.0</ele><time>2026-05-02T13:09:08Z</time></trkpt><trkpt lat="46.024218949980366" lon="9.070309837682663"><ele>290.75</ele><time>2026-05-02T13:09:09Z</time></trkpt><trkpt lat="46.024203219445205" lon="9.070080993957808"><ele>291.5</ele><time>2026-05-02T13:09:10Z</time></trkpt><trkpt lat="46.0241982238329" lon="9.069869562752373"><ele>292.25</ele><time>2026-05-02T13:09:11Z</time></trkpt><trkpt lat="46.0241941442529" lon="9.069688626526057"><ele>293.0</ele><time>2026-05-02T13:09:12Z</time></trkpt><trkpt lat="46.02416417403495" lon="9.069512623202613"><ele>288.75</ele><time>2026-05-02T13:09:13Z</time></trkpt><trkpt lat="46.024130720447545" lon="9.069330507378954"><ele>284.5</ele><time>2026-05-02T13:09:14Z</time></trkpt><trkpt lat="46.02406686972459" lon="9.069201663203751"><ele>280.25</ele><time>2026-05-02T13:09:15Z</time></trkpt><trkpt lat="46.023974542240225" lon="9.068992669452694"><ele>276.0</ele><time>2026-05-02T13:09:17Z</time></trkpt><trkpt lat="46.02394832832549" lon="9.068837545959653"><ele>276.0</ele><time>2026-05-02T13:09:18Z</time></trkpt><trkpt lat="46.023899409128134" lon="9.068683946479755"><ele>276.0</ele><time>2026-05-02T13:09:19Z</time></trkpt><trkpt lat="46.02386980077507" lon="9.068509799670343"><ele>276.0</ele><time>2026-05-02T13:09:20Z</time></trkpt><trkpt lat="46.023868307828714" lon="9.068322244792931"><ele>276.0</ele><time>2026-05-02T13:09:21Z</time></trkpt><trkpt lat="46.02387450988032" lon="9.068120507661265"><ele>276.25</ele><time>2026-05-02T13:09:22Z</time></trkpt><trkpt lat="46.02388942418045" lon="9.067920634608658"><ele>276.5</ele><time>2026-05-02T13:09:23Z</time></trkpt><trkpt lat="46.02394055696574" lon="9.067746425267936"><ele>276.75</ele><time>2026-05-02T13:09:24Z</time></trkpt><trkpt lat="46.023947123958436" lon="9.067568520607974"><ele>277.0</ele><time>2026-05-02T13:09:25Z</time></trkpt><trkpt lat="46.02393372057818" lon="9.067382402016607"><ele>277.0</ele><time>2026-05-02T13:09:26Z</time></trkpt><trkpt lat="46.02391828377086" lon="9.067201603768074"><ele>277.0</ele><time>2026-05-02T13:09:27Z</time></trkpt><trkpt lat="46.02388534735662" lon="9.067000978875564"><ele>277.0</ele><time>2026-05-02T13:09:28Z</time></trkpt><trkpt lat="46.023864903895976" lon="9.066805669884058"><ele>277.0</ele><time>2026-05-02T13:09:29Z</time></trkpt><trkpt lat="46.02384813983515" lon="9.06661923924914"><ele>277.0</ele><time>2026-05-02T13:09:30Z</time></trkpt><trkpt lat="46.023835030395276" lon="9.066415105072034"><ele>277.0</ele><time>2026-05-02T13:09:31Z</time></trkpt><trkpt lat="46.023820763636735" lon="9.066205369366799"><ele>277.0</ele><time>2026-05-02T13:09:32Z</time></trkpt><trkpt lat="46.02381258668337" lon="9.065997425079196"><ele>277.0</ele><time>2026-05-02T13:09:33Z</time></trkpt><trkpt lat="46.02381180322474" lon="9.06579291817103"><ele>277.0</ele><time>2026-05-02T13:09:34Z</time></trkpt><trkpt lat="46.02380005512411" lon="9.065602740814033"><ele>277.0</ele><time>2026-05-02T13:09:35Z</time></trkpt><trkpt lat="46.023791911768114" lon="9.065390440806933"><ele>277.0</ele><time>2026-05-02T13:09:36Z</time></trkpt><trkpt lat="46.02377451350231" lon="9.0652012391972"><ele>277.0</ele><time>2026-05-02T13:09:37Z</time></trkpt><trkpt lat="46.02375880841052" lon="9.065032804993175"><ele>276.4</ele><time>2026-05-02T13:09:38Z</time></trkpt><trkpt lat="46.02379285823388" lon="9.06477390278363"><ele>275.79999999999995</ele><time>2026-05-02T13:09:40Z</time></trkpt><trkpt lat="46.02383309188172" lon="9.064655582722114"><ele>275.2</ele><time>2026-05-02T13:09:41Z</time></trkpt><trkpt lat="46.02387912454377" lon="9.064566863047967"><ele>274.59999999999997</ele><time>2026-05-02T13:09:42Z</time></trkpt><trkpt lat="46.023920619707944" lon="9.064438924160056"><ele>274.0</ele><time>2026-05-02T13:09:43Z</time></trkpt><trkpt lat="46.023961348976606" lon="9.064309324683432"><ele>274.0</ele><time>2026-05-02T13:09:44Z</time></trkpt><trkpt lat="46.02399761189027" lon="9.06417844897251"><ele>274.0</ele><time>2026-05-02T13:09:45Z</time></trkpt><trkpt lat="46.02400047867596" lon="9.064014370470499"><ele>274.0</ele><time>2026-05-02T13:09:46Z</time></trkpt><trkpt lat="46.02399297682688" lon="9.063831632451587"><ele>274.0</ele><time>2026-05-02T13:09:47Z</time></trkpt><trkpt lat="46.02400547113758" lon="9.063677649713009"><ele>274.0</ele><time>2026-05-02T13:09:48Z</time></trkpt><trkpt lat="46.02406384063592" lon="9.06354930608053"><ele>273.59999999999997</ele><time>2026-05-02T13:09:49Z</time></trkpt><trkpt lat="46.02413190009768" lon="9.0634311472118"><ele>273.2</ele><time>2026-05-02T13:09:50Z</time></trkpt><trkpt lat="46.02423565983247" lon="9.063390174737139"><ele>272.79999999999995</ele><time>2026-05-02T13:09:51Z</time></trkpt><trkpt lat="46.024329732662125" lon="9.063287363854187"><ele>272.4</ele><time>2026-05-02T13:09:52Z</time></trkpt><trkpt lat="46.02442194684916" lon="9.063192559779818"><ele>272.0</ele><time>2026-05-02T13:09:53Z</time></trkpt><trkpt lat="46.02447298606459" lon="9.063039208660411"><ele>272.0</ele><time>2026-05-02T13:09:54Z</time></trkpt><trkpt lat="46.02450698213796" lon="9.062887077498305"><ele>272.0</ele><time>2026-05-02T13:09:55Z</time></trkpt><trkpt lat="46.02453066524793" lon="9.062744466349491"><ele>272.0</ele><time>2026-05-02T13:09:56Z</time></trkpt><trkpt lat="46.02455387339353" lon="9.062605919540022"><ele>272.0</ele><time>2026-05-02T13:09:57Z</time></trkpt><trkpt lat="46.02457374162045" lon="9.062486147373134"><ele>272.0</ele><time>2026-05-02T13:09:58Z</time></trkpt><trkpt lat="46.024588413636806" lon="9.062358274001857"><ele>272.0</ele><time>2026-05-02T13:09:59Z</time></trkpt><trkpt lat="46.02457367994919" lon="9.062253145650905"><ele>272.0</ele><time>2026-05-02T13:10:00Z</time></trkpt><trkpt lat="46.02456589871826" lon="9.062140201504016"><ele>272.0</ele><time>2026-05-02T13:10:01Z</time></trkpt><trkpt lat="46.02455758924506" lon="9.062027435083241"><ele>272.0</ele><time>2026-05-02T13:10:02.015Z</time></trkpt><trkpt lat="46.024540896418046" lon="9.061924903439893"><ele>272.0</ele><time>2026-05-02T13:10:03.018Z</time></trkpt><trkpt lat="46.02452303930023" lon="9.061821863233996"><ele>272.0</ele><time>2026-05-02T13:10:04.013Z</time></trkpt><trkpt lat="46.02447139334135" lon="9.06163743103054"><ele>277.25</ele><time>2026-05-02T13:10:06.014Z</time></trkpt><trkpt lat="46.02428830698693" lon="9.061606703334546"><ele>282.5</ele><time>2026-05-02T13:10:07Z</time></trkpt><trkpt lat="46.02423653390036" lon="9.061513841658877"><ele>287.75</ele><time>2026-05-02T13:10:08Z</time></trkpt><trkpt lat="46.02422470356502" lon="9.061331581126723"><ele>293.0</ele><time>2026-05-02T13:10:09Z</time></trkpt><trkpt lat="46.02421773180169" lon="9.061237089488438"><ele>293.0</ele><time>2026-05-02T13:10:10Z</time></trkpt><trkpt lat="46.02420710439868" lon="9.06112903397725"><ele>293.0</ele><time>2026-05-02T13:10:11Z</time></trkpt><trkpt lat="46.02419534229121" lon="9.061006993933479"><ele>293.0</ele><time>2026-05-02T13:10:12Z</time></trkpt><trkpt lat="46.024197295698954" lon="9.060890268386737"><ele>293.0</ele><time>2026-05-02T13:10:13Z</time></trkpt><trkpt lat="46.024180405371325" lon="9.060773309251658"><ele>293.0</ele><time>2026-05-02T13:10:14Z</time></trkpt><trkpt lat="46.02417917534078" lon="9.060660681045183"><ele>293.0</ele><time>2026-05-02T13:10:15Z</time></trkpt><trkpt lat="46.02417368212233" lon="9.060555183311564"><ele>293.6666666666667</ele><time>2026-05-02T13:10:16Z</time></trkpt><trkpt lat="46.02416647378024" lon="9.06045305181166"><ele>294.33333333333337</ele><time>2026-05-02T13:10:17Z</time></trkpt><trkpt lat="46.02415569485193" lon="9.06035599922688"><ele>295.0</ele><time>2026-05-02T13:10:18Z</time></trkpt><trkpt lat="46.02410999900298" lon="9.060207910431707"><ele>295.6666666666667</ele><time>2026-05-02T13:10:20Z</time></trkpt><trkpt lat="46.02407435141789" lon="9.060126064688044"><ele>296.3333333333333</ele><time>2026-05-02T13:10:21Z</time></trkpt><trkpt lat="46.0240176399608" lon="9.06005209614402"><ele>297.0</ele><time>2026-05-02T13:10:22Z</time></trkpt><trkpt lat="46.02396030660033" lon="9.059986058244869"><ele>292.8333333333333</ele><time>2026-05-02T13:10:23Z</time></trkpt><trkpt lat="46.02391048850965" lon="9.05990747327926"><ele>288.6666666666667</ele><time>2026-05-02T13:10:24Z</time></trkpt><trkpt lat="46.02387611951992" lon="9.059806279275257"><ele>284.5</ele><time>2026-05-02T13:10:25Z</time></trkpt><trkpt lat="46.0238684926507" lon="9.05967847071976"><ele>280.33333333333337</ele><time>2026-05-02T13:10:26Z</time></trkpt><trkpt lat="46.02386607825361" lon="9.059550677770003"><ele>276.1666666666667</ele><time>2026-05-02T13:10:27Z</time></trkpt><trkpt lat="46.02385262747692" lon="9.059419510308071"><ele>272.0</ele><time>2026-05-02T13:10:28Z</time></trkpt><trkpt lat="46.02385887011192" lon="9.059281667106527"><ele>272.0</ele><time>2026-05-02T13:10:29Z</time></trkpt><trkpt lat="46.02389988173534" lon="9.059132434640853"><ele>272.0</ele><time>2026-05-02T13:10:30Z</time></trkpt><trkpt lat="46.02396039459022" lon="9.058995211720665"><ele>272.0</ele><time>2026-05-02T13:10:31Z</time></trkpt><trkpt lat="46.024003980785" lon="9.058869116513995"><ele>272.0</ele><time>2026-05-02T13:10:32Z</time></trkpt><trkpt lat="46.02405557694351" lon="9.058749147223207"><ele>272.0</ele><time>2026-05-02T13:10:33Z</time></trkpt><trkpt lat="46.02410477522726" lon="9.058642359255686"><ele>272.0</ele><time>2026-05-02T13:10:34Z</time></trkpt><trkpt lat="46.02415797133197" lon="9.05853474033581"><ele>272.0</ele><time>2026-05-02T13:10:35Z</time></trkpt><trkpt lat="46.024179738663825" lon="9.05841459886838"><ele>272.0</ele><time>2026-05-02T13:10:36Z</time></trkpt><trkpt lat="46.02418985331657" lon="9.05826899173799"><ele>272.0</ele><time>2026-05-02T13:10:37Z</time></trkpt><trkpt lat="46.0241604745659" lon="9.058121242470152"><ele>272.0</ele><time>2026-05-02T13:10:38Z</time></trkpt><trkpt lat="46.02414448486237" lon="9.057984347429775"><ele>272.0</ele><time>2026-05-02T13:10:39Z</time></trkpt><trkpt lat="46.0241283536242" lon="9.057839077169657"><ele>272.0</ele><time>2026-05-02T13:10:40Z</time></trkpt><trkpt lat="46.024110749415804" lon="9.057720320139847"><ele>272.0</ele><time>2026-05-02T13:10:41Z</time></trkpt><trkpt lat="46.02411368959853" lon="9.05757296643111"><ele>272.0</ele><time>2026-05-02T13:10:42Z</time></trkpt><trkpt lat="46.02412385048969" lon="9.057416778347669"><ele>272.0</ele><time>2026-05-02T13:10:43Z</time></trkpt><trkpt lat="46.02415065434197" lon="9.057250025642054"><ele>275.0</ele><time>2026-05-02T13:10:44Z</time></trkpt><trkpt lat="46.02418386930647" lon="9.057096539263199"><ele>278.0</ele><time>2026-05-02T13:10:45Z</time></trkpt><trkpt lat="46.02418669844764" lon="9.056964633863753"><ele>281.0</ele><time>2026-05-02T13:10:46Z</time></trkpt><trkpt lat="46.02417530095847" lon="9.056786074413187"><ele>284.0</ele><time>2026-05-02T13:10:47Z</time></trkpt><trkpt lat="46.024154794003806" lon="9.056638618924293"><ele>287.0</ele><time>2026-05-02T13:10:48Z</time></trkpt><trkpt lat="46.02414761054905" lon="9.056475190296615"><ele>287.0</ele><time>2026-05-02T13:10:49Z</time></trkpt><trkpt lat="46.02413358206603" lon="9.056327286124192"><ele>287.0</ele><time>2026-05-02T13:10:50Z</time></trkpt><trkpt lat="46.02412263514819" lon="9.05619299041297"><ele>287.0</ele><time>2026-05-02T13:10:51Z</time></trkpt><trkpt lat="46.02415266778416" lon="9.056071241507459"><ele>287.0</ele><time>2026-05-02T13:10:52Z</time></trkpt><trkpt lat="46.024145917999554" lon="9.05594138382912"><ele>287.0</ele><time>2026-05-02T13:10:53Z</time></trkpt><trkpt lat="46.02415013366793" lon="9.055817435609995"><ele>285.6</ele><time>2026-05-02T13:10:54Z</time></trkpt><trkpt lat="46.02416109866892" lon="9.055683859218501"><ele>284.2</ele><time>2026-05-02T13:10:55Z</time></trkpt><trkpt lat="46.02419430389616" lon="9.055561090352363"><ele>282.8</ele><time>2026-05-02T13:10:56Z</time></trkpt><trkpt lat="46.02425157880444" lon="9.05544512524978"><ele>281.4</ele><time>2026-05-02T13:10:57Z</time></trkpt><trkpt lat="46.02430057857259" lon="9.0553179479603"><ele>280.0</ele><time>2026-05-02T13:10:58Z</time></trkpt><trkpt lat="46.02434729812776" lon="9.055196258512783"><ele>280.0</ele><time>2026-05-02T13:10:59Z</time></trkpt><trkpt lat="46.0243936928189" lon="9.055074844933252"><ele>280.0</ele><time>2026-05-02T13:11:00Z</time></trkpt><trkpt lat="46.0244273834237" lon="9.054939785470758"><ele>280.0</ele><time>2026-05-02T13:11:01Z</time></trkpt><trkpt lat="46.024506762013495" lon="9.054835717488592"><ele>280.0</ele><time>2026-05-02T13:11:03Z</time></trkpt><trkpt lat="46.02454693469794" lon="9.054751173831812"><ele>280.0</ele><time>2026-05-02T13:11:04Z</time></trkpt><trkpt lat="46.02463003401592" lon="9.054636597832394"><ele>279.2</ele><time>2026-05-02T13:11:06Z</time></trkpt><trkpt lat="46.024676599939816" lon="9.054489122016987"><ele>278.4</ele><time>2026-05-02T13:11:08Z</time></trkpt><trkpt lat="46.02472117028052" lon="9.054319334944063"><ele>277.6</ele><time>2026-05-02T13:11:10Z</time></trkpt><trkpt lat="46.024734648320965" lon="9.054228271401518"><ele>276.8</ele><time>2026-05-02T13:11:11Z</time></trkpt><trkpt lat="46.024704195198964" lon="9.054022206634373"><ele>276.0</ele><time>2026-05-02T13:11:12Z</time></trkpt><trkpt lat="46.02471449709468" lon="9.0539303588341"><ele>276.0</ele><time>2026-05-02T13:11:13Z</time></trkpt><trkpt lat="46.02471469021137" lon="9.05378604125277"><ele>276.0</ele><time>2026-05-02T13:11:15Z</time></trkpt><trkpt lat="46.024685805120974" lon="9.053689645534126"><ele>276.0</ele><time>2026-05-02T13:11:17Z</time></trkpt><trkpt lat="46.024641770989916" lon="9.053762852997062"><ele>276.0</ele><time>2026-05-02T13:11:18Z</time></trkpt><trkpt lat="46.024617672334415" lon="9.053670620778131"><ele>276.0</ele><time>2026-05-02T13:11:27Z</time></trkpt><trkpt lat="46.02458969986954" lon="9.053560404255675"><ele>276.0</ele><time>2026-05-02T13:11:29Z</time></trkpt><trkpt lat="46.02456057240823" lon="9.053475986347882"><ele>276.0</ele><time>2026-05-02T13:11:30Z</time></trkpt><trkpt lat="46.02454210800249" lon="9.053297261649405"><ele>276.0</ele><time>2026-05-02T13:11:31Z</time></trkpt><trkpt lat="46.02451006285198" lon="9.053145040293836"><ele>276.0</ele><time>2026-05-02T13:11:32Z</time></trkpt><trkpt lat="46.024490211421096" lon="9.052995670757484"><ele>276.0</ele><time>2026-05-02T13:11:33Z</time></trkpt><trkpt lat="46.024490720830485" lon="9.052860003362127"><ele>276.0</ele><time>2026-05-02T13:11:34Z</time></trkpt><trkpt lat="46.02453219263877" lon="9.05264678171743"><ele>275.8</ele><time>2026-05-02T13:11:36Z</time></trkpt><trkpt lat="46.0245441485491" lon="9.052532917666598"><ele>275.6</ele><time>2026-05-02T13:11:37Z</time></trkpt><trkpt lat="46.02459333483843" lon="9.05244196468768"><ele>275.4</ele><time>2026-05-02T13:11:38Z</time></trkpt><trkpt lat="46.02463538919187" lon="9.052334302679862"><ele>275.2</ele><time>2026-05-02T13:11:39Z</time></trkpt><trkpt lat="46.02469272384142" lon="9.052183119981253"><ele>275.0</ele><time>2026-05-02T13:11:40Z</time></trkpt><trkpt lat="46.02474040715781" lon="9.052059606967717"><ele>274.6</ele><time>2026-05-02T13:11:41Z</time></trkpt><trkpt lat="46.02479057366103" lon="9.051927259694574"><ele>274.2</ele><time>2026-05-02T13:11:42Z</time></trkpt><trkpt lat="46.024843763934165" lon="9.051799963547046"><ele>273.8</ele><time>2026-05-02T13:11:43Z</time></trkpt><trkpt lat="46.02491279078767" lon="9.051689968763872"><ele>273.4</ele><time>2026-05-02T13:11:44Z</time></trkpt><trkpt lat="46.02495403748344" lon="9.051587818970171"><ele>273.0</ele><time>2026-05-02T13:11:45Z</time></trkpt><trkpt lat="46.02499340915982" lon="9.051472882488273"><ele>274.3333333333333</ele><time>2026-05-02T13:11:46Z</time></trkpt><trkpt lat="46.02504354337242" lon="9.051360529027322"><ele>275.6666666666667</ele><time>2026-05-02T13:11:47Z</time></trkpt><trkpt lat="46.025094155523014" lon="9.051276378129954"><ele>277.0</ele><time>2026-05-02T13:11:48Z</time></trkpt><trkpt lat="46.02515840096719" lon="9.051239299572165"><ele>278.33333333333337</ele><time>2026-05-02T13:11:49Z</time></trkpt><trkpt lat="46.02525934116451" lon="9.05112027020444"><ele>279.6666666666667</ele><time>2026-05-02T13:11:51Z</time></trkpt><trkpt lat="46.02530594569902" lon="9.05103704800858"><ele>281.0</ele><time>2026-05-02T13:11:52Z</time></trkpt><trkpt lat="46.02532704769283" lon="9.050903357105048"><ele>278.75</ele><time>2026-05-02T13:11:53Z</time></trkpt><trkpt lat="46.025346606290825" lon="9.050706782479168"><ele>276.5</ele><time>2026-05-02T13:11:54Z</time></trkpt><trkpt lat="46.02538630878946" lon="9.050537617111738"><ele>274.25</ele><time>2026-05-02T13:11:55Z</time></trkpt><trkpt lat="46.025393397850266" lon="9.050367679251544"><ele>272.0</ele><time>2026-05-02T13:11:56Z</time></trkpt><trkpt lat="46.02542069728066" lon="9.050133636699375"><ele>272.0</ele><time>2026-05-02T13:11:57Z</time></trkpt><trkpt lat="46.02543418348997" lon="9.049880774587189"><ele>272.0</ele><time>2026-05-02T13:11:58Z</time></trkpt><trkpt lat="46.02548837898568" lon="9.049666841288419"><ele>272.0</ele><time>2026-05-02T13:11:59Z</time></trkpt><trkpt lat="46.025516534009434" lon="9.049438529612855"><ele>272.0</ele><time>2026-05-02T13:12:00Z</time></trkpt><trkpt lat="46.02551655094358" lon="9.04921108510526"><ele>272.0</ele><time>2026-05-02T13:12:01Z</time></trkpt><trkpt lat="46.02553667861614" lon="9.04899794075145"><ele>272.0</ele><time>2026-05-02T13:12:02Z</time></trkpt><trkpt lat="46.02555304661162" lon="9.048843757170149"><ele>272.0</ele><time>2026-05-02T13:12:03Z</time></trkpt><trkpt lat="46.02557668473381" lon="9.048642468362631"><ele>272.25</ele><time>2026-05-02T13:12:04Z</time></trkpt><trkpt lat="46.02559121078158" lon="9.048441879553884"><ele>272.5</ele><time>2026-05-02T13:12:05Z</time></trkpt><trkpt lat="46.02560169675605" lon="9.048270916290583"><ele>272.75</ele><time>2026-05-02T13:12:06Z</time></trkpt><trkpt lat="46.025620324351806" lon="9.048095031005824"><ele>273.0</ele><time>2026-05-02T13:12:07Z</time></trkpt><trkpt lat="46.02564376378397" lon="9.047955487699593"><ele>273.75</ele><time>2026-05-02T13:12:08Z</time></trkpt><trkpt lat="46.025637264303015" lon="9.047805438389142"><ele>274.5</ele><time>2026-05-02T13:12:09Z</time></trkpt><trkpt lat="46.025602073889374" lon="9.047645478843892"><ele>275.25</ele><time>2026-05-02T13:12:10Z</time></trkpt><trkpt lat="46.0255075178338" lon="9.047456892240765"><ele>276.0</ele><time>2026-05-02T13:12:11Z</time></trkpt><trkpt lat="46.02540937102225" lon="9.047286429096546"><ele>277.75</ele><time>2026-05-02T13:12:12Z</time></trkpt><trkpt lat="46.02535378510498" lon="9.04710369525873"><ele>279.5</ele><time>2026-05-02T13:12:13Z</time></trkpt><trkpt lat="46.025312431204085" lon="9.046931587602726"><ele>281.25</ele><time>2026-05-02T13:12:14Z</time></trkpt><trkpt lat="46.025235408159084" lon="9.046698759726624"><ele>283.0</ele><time>2026-05-02T13:12:15Z</time></trkpt><trkpt lat="46.0251571526723" lon="9.046508098710204"><ele>279.66666666666663</ele><time>2026-05-02T13:12:16Z</time></trkpt><trkpt lat="46.02509350783553" lon="9.046284010982122"><ele>276.3333333333333</ele><time>2026-05-02T13:12:17Z</time></trkpt><trkpt lat="46.025021073746004" lon="9.04607369568152"><ele>273.0</ele><time>2026-05-02T13:12:18Z</time></trkpt><trkpt lat="46.02493600352571" lon="9.045890798425914"><ele>273.0</ele><time>2026-05-02T13:12:19Z</time></trkpt><trkpt lat="46.024870306139114" lon="9.045829623434667"><ele>273.0</ele><time>2026-05-02T13:12:20Z</time></trkpt><trkpt lat="46.02481377289485" lon="9.045673668853928"><ele>273.0</ele><time>2026-05-02T13:12:21Z</time></trkpt><trkpt lat="46.02477587978207" lon="9.045484827076834"><ele>273.0</ele><time>2026-05-02T13:12:22Z</time></trkpt><trkpt lat="46.024721022234736" lon="9.045297804402237"><ele>273.75</ele><time>2026-05-02T13:12:23Z</time></trkpt><trkpt lat="46.02466239074092" lon="9.045110562543368"><ele>274.5</ele><time>2026-05-02T13:12:24Z</time></trkpt><trkpt lat="46.02461348888744" lon="9.044910733693836"><ele>275.25</ele><time>2026-05-02T13:12:25Z</time></trkpt><trkpt lat="46.02458246538184" lon="9.04470670147438"><ele>276.0</ele><time>2026-05-02T13:12:26Z</time></trkpt><trkpt lat="46.02454874261888" lon="9.044512870399094"><ele>275.75</ele><time>2026-05-02T13:12:26.999Z</time></trkpt><trkpt lat="46.02456309948191" lon="9.044355237889139"><ele>275.5</ele><time>2026-05-02T13:12:27.999Z</time></trkpt><trkpt lat="46.02458101992894" lon="9.044231842307532"><ele>275.25</ele><time>2026-05-02T13:12:29Z</time></trkpt><trkpt lat="46.02461457997184" lon="9.044055606125589"><ele>275.0</ele><time>2026-05-02T13:12:30Z</time></trkpt><trkpt lat="46.02461134626021" lon="9.043864459169566"><ele>275.0</ele><time>2026-05-02T13:12:31Z</time></trkpt><trkpt lat="46.024608582811965" lon="9.043684251432182"><ele>275.0</ele><time>2026-05-02T13:12:32Z</time></trkpt><trkpt lat="46.024617804116076" lon="9.043522509050185"><ele>275.0</ele><time>2026-05-02T13:12:33Z</time></trkpt><trkpt lat="46.02460784027039" lon="9.043345838166855"><ele>275.0</ele><time>2026-05-02T13:12:34Z</time></trkpt><trkpt lat="46.02466256068871" lon="9.04320115023993"><ele>276.5</ele><time>2026-05-02T13:12:35Z</time></trkpt><trkpt lat="46.02471049572777" lon="9.043042272702097"><ele>278.0</ele><time>2026-05-02T13:12:36Z</time></trkpt><trkpt lat="46.02473710207044" lon="9.042876426592256"><ele>279.5</ele><time>2026-05-02T13:12:37Z</time></trkpt><trkpt lat="46.0247997578968" lon="9.042707852123923"><ele>281.0</ele><time>2026-05-02T13:12:38Z</time></trkpt><trkpt lat="46.024781331812854" lon="9.042539481367328"><ele>287.25</ele><time>2026-05-02T13:12:39Z</time></trkpt><trkpt lat="46.024721970239746" lon="9.042387941179983"><ele>293.5</ele><time>2026-05-02T13:12:40Z</time></trkpt><trkpt lat="46.024627099071736" lon="9.042259389599355"><ele>299.75</ele><time>2026-05-02T13:12:41Z</time></trkpt><trkpt lat="46.02451417508295" lon="9.042133062481392"><ele>306.0</ele><time>2026-05-02T13:12:42Z</time></trkpt><trkpt lat="46.024389301080426" lon="9.04199600492065"><ele>306.0</ele><time>2026-05-02T13:12:43Z</time></trkpt><trkpt lat="46.02427216512877" lon="9.041885757486195"><ele>306.0</ele><time>2026-05-02T13:12:44Z</time></trkpt><trkpt lat="46.02415006629279" lon="9.041781286684936"><ele>306.0</ele><time>2026-05-02T13:12:45Z</time></trkpt><trkpt lat="46.02402784328611" lon="9.041683809477252"><ele>306.0</ele><time>2026-05-02T13:12:46Z</time></trkpt><trkpt lat="46.023906278744896" lon="9.041627555814555"><ele>301.25</ele><time>2026-05-02T13:12:47Z</time></trkpt><trkpt lat="46.02380502465109" lon="9.041542725586744"><ele>296.5</ele><time>2026-05-02T13:12:48Z</time></trkpt><trkpt lat="46.02371252071543" lon="9.041449722477472"><ele>291.75</ele><time>2026-05-02T13:12:49Z</time></trkpt><trkpt lat="46.02363459430761" lon="9.041340631373318"><ele>287.0</ele><time>2026-05-02T13:12:50Z</time></trkpt><trkpt lat="46.023538936564385" lon="9.041214320831587"><ele>287.0</ele><time>2026-05-02T13:12:51Z</time></trkpt><trkpt lat="46.02345624656098" lon="9.041151813243301"><ele>287.0</ele><time>2026-05-02T13:12:52Z</time></trkpt><trkpt lat="46.023371737944956" lon="9.041048096627549"><ele>287.0</ele><time>2026-05-02T13:12:53Z</time></trkpt><trkpt lat="46.02330081457065" lon="9.04090770827167"><ele>287.0</ele><time>2026-05-02T13:12:54Z</time></trkpt><trkpt lat="46.023237014704016" lon="9.04076357864006"><ele>287.0</ele><time>2026-05-02T13:12:55Z</time></trkpt><trkpt lat="46.02317355864624" lon="9.040633964884929"><ele>283.75</ele><time>2026-05-02T13:12:56Z</time></trkpt><trkpt lat="46.02311481796891" lon="9.040502648049161"><ele>280.5</ele><time>2026-05-02T13:12:57Z</time></trkpt><trkpt lat="46.02307480229712" lon="9.040352946167943"><ele>277.25</ele><time>2026-05-02T13:12:58Z</time></trkpt><trkpt lat="46.02303980729598" lon="9.040181324693283"><ele>274.0</ele><time>2026-05-02T13:12:59Z</time></trkpt><trkpt lat="46.023027954897536" lon="9.039987388059268"><ele>274.75</ele><time>2026-05-02T13:13:00Z</time></trkpt><trkpt lat="46.02298235456014" lon="9.039814773490832"><ele>275.5</ele><time>2026-05-02T13:13:01Z</time></trkpt><trkpt lat="46.02291414251763" lon="9.03965514676209"><ele>276.25</ele><time>2026-05-02T13:13:02Z</time></trkpt><trkpt lat="46.02283762620215" lon="9.039516447197746"><ele>277.0</ele><time>2026-05-02T13:13:03Z</time></trkpt><trkpt lat="46.022820425319686" lon="9.03936351044738"><ele>277.0</ele><time>2026-05-02T13:13:04Z</time></trkpt><trkpt lat="46.022809428277455" lon="9.039205348882282"><ele>277.0</ele><time>2026-05-02T13:13:05Z</time></trkpt><trkpt lat="46.02282567632199" lon="9.039026585650152"><ele>277.0</ele><time>2026-05-02T13:13:06Z</time></trkpt><trkpt lat="46.0228430044614" lon="9.03883913686856"><ele>277.0</ele><time>2026-05-02T13:13:07Z</time></trkpt><trkpt lat="46.02285173828732" lon="9.038638041725193"><ele>278.66666666666663</ele><time>2026-05-02T13:13:08Z</time></trkpt><trkpt lat="46.02282793027291" lon="9.038415491236545"><ele>280.3333333333333</ele><time>2026-05-02T13:13:09Z</time></trkpt><trkpt lat="46.02280781187642" lon="9.038200844756348"><ele>282.0</ele><time>2026-05-02T13:13:10Z</time></trkpt><trkpt lat="46.022783448541716" lon="9.037983875305642"><ele>282.0</ele><time>2026-05-02T13:13:11Z</time></trkpt><trkpt lat="46.022749055183816" lon="9.037728877578875"><ele>282.0</ele><time>2026-05-02T13:13:12Z</time></trkpt><trkpt lat="46.022716266394504" lon="9.03749360894374"><ele>282.0</ele><time>2026-05-02T13:13:13Z</time></trkpt><trkpt lat="46.02268422526435" lon="9.037208664009286"><ele>287.3333333333333</ele><time>2026-05-02T13:13:14Z</time></trkpt><trkpt lat="46.02266035883832" lon="9.036981532171342"><ele>292.66666666666663</ele><time>2026-05-02T13:13:15Z</time></trkpt><trkpt lat="46.022620407247025" lon="9.036788087668096"><ele>298.0</ele><time>2026-05-02T13:13:16Z</time></trkpt><trkpt lat="46.02252045859414" lon="9.036550492406658"><ele>291.0</ele><time>2026-05-02T13:13:17Z</time></trkpt><trkpt lat="46.022404655151355" lon="9.036303238543187"><ele>284.0</ele><time>2026-05-02T13:13:18Z</time></trkpt><trkpt lat="46.02233715861118" lon="9.036201854800856"><ele>277.0</ele><time>2026-05-02T13:13:19Z</time></trkpt><trkpt lat="46.02225351444004" lon="9.036015583010501"><ele>277.0</ele><time>2026-05-02T13:13:20Z</time></trkpt><trkpt lat="46.02218285752214" lon="9.035840781383081"><ele>277.0</ele><time>2026-05-02T13:13:21Z</time></trkpt><trkpt lat="46.02212986031599" lon="9.035657996310537"><ele>277.0</ele><time>2026-05-02T13:13:22Z</time></trkpt><trkpt lat="46.02210078879263" lon="9.035453873340721"><ele>277.0</ele><time>2026-05-02T13:13:23Z</time></trkpt><trkpt lat="46.02209581615436" lon="9.035235640761858"><ele>278.0</ele><time>2026-05-02T13:13:24Z</time></trkpt><trkpt lat="46.022096431289505" lon="9.035007462903275"><ele>279.0</ele><time>2026-05-02T13:13:25Z</time></trkpt><trkpt lat="46.02207830275588" lon="9.034783387128474"><ele>280.0</ele><time>2026-05-02T13:13:26Z</time></trkpt><trkpt lat="46.02206555495574" lon="9.03459388227123"><ele>281.0</ele><time>2026-05-02T13:13:27Z</time></trkpt><trkpt lat="46.02204342684488" lon="9.034429324488904"><ele>282.0</ele><time>2026-05-02T13:13:28Z</time></trkpt><trkpt lat="46.0220228335704" lon="9.034306891562009"><ele>283.0</ele><time>2026-05-02T13:13:29Z</time></trkpt><trkpt lat="46.02198422905364" lon="9.034206011869175"><ele>284.0</ele><time>2026-05-02T13:13:30Z</time></trkpt><trkpt lat="46.02195644695758" lon="9.034094844904024"><ele>285.0</ele><time>2026-05-02T13:13:31Z</time></trkpt><trkpt lat="46.02193283648148" lon="9.033982741605614"><ele>286.0</ele><time>2026-05-02T13:13:32Z</time></trkpt><trkpt lat="46.02190515258448" lon="9.033841841815772"><ele>287.0</ele><time>2026-05-02T13:13:33Z</time></trkpt><trkpt lat="46.021872363956504" lon="9.033697582552586"><ele>289.6</ele><time>2026-05-02T13:13:34Z</time></trkpt><trkpt lat="46.02183788769264" lon="9.033552675506227"><ele>292.2</ele><time>2026-05-02T13:13:35Z</time></trkpt><trkpt lat="46.02181067183764" lon="9.033412379130278"><ele>294.8</ele><time>2026-05-02T13:13:36Z</time></trkpt><trkpt lat="46.02179640669185" lon="9.03325307444773"><ele>297.4</ele><time>2026-05-02T13:13:37Z</time></trkpt><trkpt lat="46.02179383850423" lon="9.033096383877984"><ele>300.0</ele><time>2026-05-02T13:13:38Z</time></trkpt><trkpt lat="46.021780752787144" lon="9.032926563746697"><ele>302.5</ele><time>2026-05-02T13:13:39Z</time></trkpt><trkpt lat="46.02177085975634" lon="9.032751308183391"><ele>305.0</ele><time>2026-05-02T13:13:40Z</time></trkpt><trkpt lat="46.0217740734446" lon="9.032567909558646"><ele>307.5</ele><time>2026-05-02T13:13:41Z</time></trkpt><trkpt lat="46.02175406216039" lon="9.0323753367782"><ele>310.0</ele><time>2026-05-02T13:13:42Z</time></trkpt><trkpt lat="46.02172398667698" lon="9.032198051522432"><ele>303.0</ele><time>2026-05-02T13:13:43Z</time></trkpt><trkpt lat="46.02163810667508" lon="9.032001176841362"><ele>296.0</ele><time>2026-05-02T13:13:44Z</time></trkpt><trkpt lat="46.02156701702186" lon="9.031792977403697"><ele>289.0</ele><time>2026-05-02T13:13:45Z</time></trkpt><trkpt lat="46.021498883079374" lon="9.031596534676105"><ele>289.0</ele><time>2026-05-02T13:13:46Z</time></trkpt><trkpt lat="46.02142209885136" lon="9.03140293869456"><ele>289.0</ele><time>2026-05-02T13:13:47Z</time></trkpt><trkpt lat="46.021359329719424" lon="9.03121000540057"><ele>289.0</ele><time>2026-05-02T13:13:48Z</time></trkpt><trkpt lat="46.021294415391274" lon="9.031011663611801"><ele>289.0</ele><time>2026-05-02T13:13:49Z</time></trkpt><trkpt lat="46.02123527799064" lon="9.030830449590885"><ele>289.0</ele><time>2026-05-02T13:13:50Z</time></trkpt><trkpt lat="46.02118229339664" lon="9.030658522686656"><ele>289.0</ele><time>2026-05-02T13:13:51Z</time></trkpt><trkpt lat="46.021135067057614" lon="9.030492505824865"><ele>289.0</ele><time>2026-05-02T13:13:52Z</time></trkpt><trkpt lat="46.02108380631141" lon="9.03032478932805"><ele>290.0</ele><time>2026-05-02T13:13:53Z</time></trkpt><trkpt lat="46.02103401682204" lon="9.030156998884138"><ele>291.0</ele><time>2026-05-02T13:13:54.012Z</time></trkpt><trkpt lat="46.020985651439084" lon="9.029989296022487"><ele>292.0</ele><time>2026-05-02T13:13:55.019Z</time></trkpt><trkpt lat="46.020941283221134" lon="9.029830124371491"><ele>293.0</ele><time>2026-05-02T13:13:56.021Z</time></trkpt><trkpt lat="46.02089593499357" lon="9.029671468974493"><ele>293.0</ele><time>2026-05-02T13:13:57.021Z</time></trkpt><trkpt lat="46.02094560400212" lon="9.029987398543422"><ele>293.0</ele><time>2026-05-02T13:13:58Z</time></trkpt><trkpt lat="46.02092644125546" lon="9.029882134536434"><ele>293.0</ele><time>2026-05-02T13:14:49Z</time></trkpt><trkpt lat="46.02089984085883" lon="9.029778102715563"><ele>293.0</ele><time>2026-05-02T13:14:50Z</time></trkpt><trkpt lat="46.02087181581908" lon="9.029672109985784"><ele>291.4</ele><time>2026-05-02T13:14:51Z</time></trkpt><trkpt lat="46.020806808418264" lon="9.029480183999011"><ele>289.8</ele><time>2026-05-02T13:14:53Z</time></trkpt><trkpt lat="46.020783534342726" lon="9.029353390663877"><ele>288.2</ele><time>2026-05-02T13:14:54Z</time></trkpt><trkpt lat="46.02077264822096" lon="9.029230865544639"><ele>286.6</ele><time>2026-05-02T13:14:55Z</time></trkpt><trkpt lat="46.02075394702271" lon="9.029116796761116"><ele>285.0</ele><time>2026-05-02T13:14:56Z</time></trkpt><trkpt lat="46.02076034187106" lon="9.028991604991187"><ele>285.0</ele><time>2026-05-02T13:14:57Z</time></trkpt><trkpt lat="46.02072189389586" lon="9.028877647653667"><ele>285.0</ele><time>2026-05-02T13:14:58.019Z</time></trkpt><trkpt lat="46.020684371012074" lon="9.028768253996855"><ele>285.0</ele><time>2026-05-02T13:14:59.017Z</time></trkpt><trkpt lat="46.02064734750882" lon="9.028665447803256"><ele>285.0</ele><time>2026-05-02T13:15:00.019Z</time></trkpt><trkpt lat="46.02061089937634" lon="9.028573928211992"><ele>285.0</ele><time>2026-05-02T13:15:01.019Z</time></trkpt><trkpt lat="46.02054480377742" lon="9.028418033516818"><ele>293.6666666666667</ele><time>2026-05-02T13:15:03.019Z</time></trkpt><trkpt lat="46.020499483812245" lon="9.028300665621103"><ele>302.33333333333337</ele><time>2026-05-02T13:15:04.017Z</time></trkpt><trkpt lat="46.02027627513417" lon="9.027976660980393"><ele>311.0</ele><time>2026-05-02T13:15:07.685Z</time></trkpt><trkpt lat="46.02024804816526" lon="9.027861258627462"><ele>311.0</ele><time>2026-05-02T13:15:08.686Z</time></trkpt><trkpt lat="46.020191275087285" lon="9.027770434350263"><ele>311.0</ele><time>2026-05-02T13:15:09.685Z</time></trkpt><trkpt lat="46.02014788392468" lon="9.027668015966471"><ele>311.0</ele><time>2026-05-02T13:15:10.685Z</time></trkpt><trkpt lat="46.020118440581044" lon="9.027553208098805"><ele>311.0</ele><time>2026-05-02T13:15:11.686Z</time></trkpt><trkpt lat="46.020074902307734" lon="9.027451107977893"><ele>311.0</ele><time>2026-05-02T13:15:12.685Z</time></trkpt><trkpt lat="46.02001713650246" lon="9.027361404585125"><ele>311.0</ele><time>2026-05-02T13:15:13.685Z</time></trkpt><trkpt lat="46.0199723649004" lon="9.027260090703328"><ele>306.1666666666667</ele><time>2026-05-02T13:15:14.686Z</time></trkpt><trkpt lat="46.01994149294267" lon="9.02714635285342"><ele>301.33333333333337</ele><time>2026-05-02T13:15:15.685Z</time></trkpt><trkpt lat="46.0198825324397" lon="9.027058254854923"><ele>296.5</ele><time>2026-05-02T13:15:16.685Z</time></trkpt><trkpt lat="46.0198510108933" lon="9.026944475284031"><ele>291.6666666666667</ele><time>2026-05-02T13:15:17.685Z</time></trkpt><trkpt lat="46.01980479664151" lon="9.026844652501023"><ele>286.8333333333333</ele><time>2026-05-02T13:15:18.685Z</time></trkpt><trkpt lat="46.0197446455301" lon="9.026758413867315"><ele>282.0</ele><time>2026-05-02T13:15:19.683Z</time></trkpt><trkpt lat="46.019710782979026" lon="9.026646094070367"><ele>284.3333333333333</ele><time>2026-05-02T13:15:20.685Z</time></trkpt><trkpt lat="46.01966330682332" lon="9.026547519526956"><ele>286.6666666666667</ele><time>2026-05-02T13:15:21.685Z</time></trkpt><trkpt lat="46.01960185208947" lon="9.026462930145163"><ele>289.0</ele><time>2026-05-02T13:15:22.684Z</time></trkpt><trkpt lat="46.01956676278564" lon="9.026351522346427"><ele>291.33333333333337</ele><time>2026-05-02T13:15:23.685Z</time></trkpt><trkpt lat="46.01950463895509" lon="9.026267991554214"><ele>293.6666666666667</ele><time>2026-05-02T13:15:24.685Z</time></trkpt><trkpt lat="46.01945587917354" lon="9.026170591924352"><ele>296.0</ele><time>2026-05-02T13:15:25.686Z</time></trkpt><trkpt lat="46.019406658984124" lon="9.0260741487579"><ele>296.0</ele><time>2026-05-02T13:15:26.684Z</time></trkpt><trkpt lat="46.01937067404427" lon="9.02596321276935"><ele>296.0</ele><time>2026-05-02T13:15:27.685Z</time></trkpt><trkpt lat="46.019307002902174" lon="9.025881666862226"><ele>296.0</ele><time>2026-05-02T13:15:28.685Z</time></trkpt><trkpt lat="46.01926993272703" lon="9.025771647018367"><ele>296.0</ele><time>2026-05-02T13:15:29.685Z</time></trkpt><trkpt lat="46.01920575561941" lon="9.025691358044622"><ele>296.0</ele><time>2026-05-02T13:15:30.683Z</time></trkpt><trkpt lat="46.018790269453355" lon="9.025048691925111"><ele>301.75</ele><time>2026-05-02T13:15:32Z</time></trkpt><trkpt lat="46.01868914431204" lon="9.02490092291174"><ele>307.5</ele><time>2026-05-02T13:15:33Z</time></trkpt><trkpt lat="46.01860415591286" lon="9.024799332672256"><ele>313.25</ele><time>2026-05-02T13:15:35Z</time></trkpt><trkpt lat="46.0185023501688" lon="9.024614520426192"><ele>319.0</ele><time>2026-05-02T13:15:37Z</time></trkpt><trkpt lat="46.018449690112455" lon="9.024520189026468"><ele>319.0</ele><time>2026-05-02T13:15:38Z</time></trkpt><trkpt lat="46.01839606566024" lon="9.024431799611747"><ele>319.0</ele><time>2026-05-02T13:15:39Z</time></trkpt><trkpt lat="46.01834479905586" lon="9.024371176263152"><ele>319.0</ele><time>2026-05-02T13:15:40Z</time></trkpt><trkpt lat="46.01829765962737" lon="9.024292033490987"><ele>319.0</ele><time>2026-05-02T13:15:41Z</time></trkpt><trkpt lat="46.01824153223016" lon="9.024204175148215"><ele>319.0</ele><time>2026-05-02T13:15:42.012Z</time></trkpt><trkpt lat="46.01801605717587" lon="9.023942317023863"><ele>319.3333333333333</ele><time>2026-05-02T13:15:45.685Z</time></trkpt><trkpt lat="46.01795484018377" lon="9.023871281829088"><ele>319.66666666666663</ele><time>2026-05-02T13:15:46.686Z</time></trkpt><trkpt lat="46.01789407759258" lon="9.023800281507846"><ele>320.0</ele><time>2026-05-02T13:15:47.685Z</time></trkpt><trkpt lat="46.01783347017764" lon="9.023728353366497"><ele>320.3333333333333</ele><time>2026-05-02T13:15:48.685Z</time></trkpt><trkpt lat="46.01776222751253" lon="9.023674801113964"><ele>320.6666666666667</ele><time>2026-05-02T13:15:49.685Z</time></trkpt><trkpt lat="46.01770162226781" lon="9.02360287558169"><ele>321.0</ele><time>2026-05-02T13:15:50.686Z</time></trkpt><trkpt lat="46.0176411669286" lon="9.023530778126322"><ele>321.0</ele><time>2026-05-02T13:15:51.685Z</time></trkpt><trkpt lat="46.01759256196404" lon="9.023438966885713"><ele>321.0</ele><time>2026-05-02T13:15:52.685Z</time></trkpt><trkpt lat="46.017534034504834" lon="9.023364494143781"><ele>321.0</ele><time>2026-05-02T13:15:53.684Z</time></trkpt><trkpt lat="46.01746460202595" lon="9.023306444739626"><ele>321.0</ele><time>2026-05-02T13:15:54.684Z</time></trkpt><trkpt lat="46.017418092524906" lon="9.023212176631201"><ele>321.0</ele><time>2026-05-02T13:15:55.686Z</time></trkpt><trkpt lat="46.01703687109613" lon="9.022065578036962"><ele>330.6666666666667</ele><time>2026-05-02T13:15:58Z</time></trkpt><trkpt lat="46.01696413140229" lon="9.021933473938466"><ele>340.33333333333337</ele><time>2026-05-02T13:15:59Z</time></trkpt><trkpt lat="46.01669839715325" lon="9.02206359399538"><ele>350.0</ele><time>2026-05-02T13:16:00Z</time></trkpt><trkpt lat="46.016577476252394" lon="9.022053418312696"><ele>342.8</ele><time>2026-05-02T13:16:01Z</time></trkpt><trkpt lat="46.0165124553239" lon="9.021989980811552"><ele>335.6</ele><time>2026-05-02T13:16:02Z</time></trkpt><trkpt lat="46.016440917697935" lon="9.02189046299816"><ele>328.4</ele><time>2026-05-02T13:16:03Z</time></trkpt><trkpt lat="46.01636953804583" lon="9.02178526123675"><ele>321.2</ele><time>2026-05-02T13:16:04Z</time></trkpt><trkpt lat="46.01630910846974" lon="9.021692752341238"><ele>314.0</ele><time>2026-05-02T13:16:05Z</time></trkpt><trkpt lat="46.01624687085435" lon="9.021592961846588"><ele>314.0</ele><time>2026-05-02T13:16:06Z</time></trkpt><trkpt lat="46.01619002976501" lon="9.021498472799824"><ele>314.0</ele><time>2026-05-02T13:16:07Z</time></trkpt><trkpt lat="46.016132347730434" lon="9.021399802838783"><ele>314.0</ele><time>2026-05-02T13:16:08.015Z</time></trkpt><trkpt lat="46.0160747536453" lon="9.02129937228587"><ele>314.0</ele><time>2026-05-02T13:16:09.017Z</time></trkpt><trkpt lat="46.01602010431335" lon="9.021203268049423"><ele>314.0</ele><time>2026-05-02T13:16:10.014Z</time></trkpt><trkpt lat="46.015964801944406" lon="9.021103713004697"><ele>314.0</ele><time>2026-05-02T13:16:11.015Z</time></trkpt><trkpt lat="46.01593490331797" lon="9.020988670727485"><ele>314.0</ele><time>2026-05-02T13:16:12.016Z</time></trkpt><trkpt lat="46.015888425640604" lon="9.020866419715109"><ele>314.0</ele><time>2026-05-02T13:16:13.013Z</time></trkpt><trkpt lat="46.01546513852292" lon="9.020132292070445"><ele>311.33333333333337</ele><time>2026-05-02T13:16:32.999Z</time></trkpt><trkpt lat="46.01543911164525" lon="9.020018061935614"><ele>308.6666666666667</ele><time>2026-05-02T13:16:34.999Z</time></trkpt><trkpt lat="46.01549789331485" lon="9.019952352269616"><ele>306.0</ele><time>2026-05-02T13:16:35.999Z</time></trkpt><trkpt lat="46.015444557056774" lon="9.019847466118678"><ele>303.3333333333333</ele><time>2026-05-02T13:16:37.999Z</time></trkpt><trkpt lat="46.01538479585877" lon="9.019818022313427"><ele>300.66666666666663</ele><time>2026-05-02T13:16:38.999Z</time></trkpt><trkpt lat="46.015339336250506" lon="9.019732267830483"><ele>298.0</ele><time>2026-05-02T13:16:41Z</time></trkpt><trkpt lat="46.015305512310604" lon="9.019647358492517"><ele>298.0</ele><time>2026-05-02T13:16:43Z</time></trkpt><trkpt lat="46.015280524061666" lon="9.019562739530034"><ele>298.0</ele><time>2026-05-02T13:16:45Z</time></trkpt><trkpt lat="46.01524644965412" lon="9.019467952242055"><ele>298.0</ele><time>2026-05-02T13:16:48Z</time></trkpt><trkpt lat="46.01519606568178" lon="9.019315620356911"><ele>298.0</ele><time>2026-05-02T13:16:50Z</time></trkpt><trkpt lat="46.01513233206398" lon="9.019219815413342"><ele>298.0</ele><time>2026-05-02T13:16:52Z</time></trkpt><trkpt lat="46.015070226162905" lon="9.019117194059561"><ele>298.0</ele><time>2026-05-02T13:16:53Z</time></trkpt><trkpt lat="46.015017366667934" lon="9.019048308026266"><ele>294.6</ele><time>2026-05-02T13:16:54Z</time></trkpt><trkpt lat="46.01496739438244" lon="9.01897244069547"><ele>291.20000000000005</ele><time>2026-05-02T13:16:55Z</time></trkpt><trkpt lat="46.01491525075792" lon="9.018877784901273"><ele>287.8</ele><time>2026-05-02T13:16:56Z</time></trkpt><trkpt lat="46.01486305296486" lon="9.018793919536034"><ele>284.40000000000003</ele><time>2026-05-02T13:16:57Z</time></trkpt><trkpt lat="46.01480574742842" lon="9.018674084547545"><ele>281.0</ele><time>2026-05-02T13:16:59Z</time></trkpt><trkpt lat="46.01473123417223" lon="9.018460166823019"><ele>283.1666666666667</ele><time>2026-05-02T13:17:01Z</time></trkpt><trkpt lat="46.01470725797723" lon="9.018316716862113"><ele>285.33333333333337</ele><time>2026-05-02T13:17:02Z</time></trkpt><trkpt lat="46.01467820598483" lon="9.018218202437943"><ele>287.5</ele><time>2026-05-02T13:17:03Z</time></trkpt><trkpt lat="46.01463615573847" lon="9.018123344402134"><ele>289.6666666666667</ele><time>2026-05-02T13:17:04Z</time></trkpt><trkpt lat="46.01457573213625" lon="9.018030598909549"><ele>291.8333333333333</ele><time>2026-05-02T13:17:05Z</time></trkpt><trkpt lat="46.014525088046014" lon="9.017915506918067"><ele>294.0</ele><time>2026-05-02T13:17:06Z</time></trkpt><trkpt lat="46.01447645669572" lon="9.017821687345108"><ele>294.0</ele><time>2026-05-02T13:17:07Z</time></trkpt><trkpt lat="46.0144201716063" lon="9.017701194890533"><ele>294.0</ele><time>2026-05-02T13:17:08Z</time></trkpt><trkpt lat="46.01427453728534" lon="9.017513663839917"><ele>294.0</ele><time>2026-05-02T13:17:09Z</time></trkpt><trkpt lat="46.01416562767332" lon="9.017395969374995"><ele>294.0</ele><time>2026-05-02T13:17:10Z</time></trkpt><trkpt lat="46.01404457007613" lon="9.017239233058948"><ele>289.6666666666667</ele><time>2026-05-02T13:17:11Z</time></trkpt><trkpt lat="46.01392276995216" lon="9.017055574378201"><ele>285.33333333333337</ele><time>2026-05-02T13:17:12Z</time></trkpt><trkpt lat="46.013813905173286" lon="9.016860200155444"><ele>281.0</ele><time>2026-05-02T13:17:13Z</time></trkpt><trkpt lat="46.01373979818369" lon="9.01672379146189"><ele>288.0</ele><time>2026-05-02T13:17:14Z</time></trkpt><trkpt lat="46.01369098045827" lon="9.016568031926901"><ele>295.0</ele><time>2026-05-02T13:17:16Z</time></trkpt><trkpt lat="46.01367963768707" lon="9.016448770066892"><ele>302.0</ele><time>2026-05-02T13:17:17Z</time></trkpt><trkpt lat="46.01361973056719" lon="9.016286650171383"><ele>309.0</ele><time>2026-05-02T13:17:18Z</time></trkpt><trkpt lat="46.01343973309501" lon="9.016090698058688"><ele>309.0</ele><time>2026-05-02T13:17:19Z</time></trkpt><trkpt lat="46.01337655290603" lon="9.015915032592014"><ele>309.0</ele><time>2026-05-02T13:17:20Z</time></trkpt><trkpt lat="46.01331822660567" lon="9.015733907240127"><ele>309.0</ele><time>2026-05-02T13:17:21Z</time></trkpt><trkpt lat="46.01325864188243" lon="9.015567668693734"><ele>309.0</ele><time>2026-05-02T13:17:22Z</time></trkpt><trkpt lat="46.01319976412881" lon="9.015397349886038"><ele>308.5</ele><time>2026-05-02T13:17:23Z</time></trkpt><trkpt lat="46.013142297235966" lon="9.015238557991424"><ele>308.0</ele><time>2026-05-02T13:17:24Z</time></trkpt><trkpt lat="46.01308645315142" lon="9.015090250997453"><ele>307.5</ele><time>2026-05-02T13:17:25Z</time></trkpt><trkpt lat="46.013035820035604" lon="9.014938374453989"><ele>307.0</ele><time>2026-05-02T13:17:26Z</time></trkpt><trkpt lat="46.01297960073128" lon="9.01479436867115"><ele>307.0</ele><time>2026-05-02T13:17:27Z</time></trkpt><trkpt lat="46.012917525267866" lon="9.014657380865422"><ele>307.0</ele><time>2026-05-02T13:17:28Z</time></trkpt><trkpt lat="46.01285749925754" lon="9.014516394261046"><ele>307.0</ele><time>2026-05-02T13:17:29Z</time></trkpt><trkpt lat="46.01279215217055" lon="9.014372856007965"><ele>307.0</ele><time>2026-05-02T13:17:30Z</time></trkpt><trkpt lat="46.012711817007315" lon="9.014229677076523"><ele>302.25</ele><time>2026-05-02T13:17:31Z</time></trkpt><trkpt lat="46.01261213048532" lon="9.014132025481484"><ele>297.5</ele><time>2026-05-02T13:17:32Z</time></trkpt><trkpt lat="46.0125081513683" lon="9.014029292326642"><ele>292.75</ele><time>2026-05-02T13:17:33Z</time></trkpt><trkpt lat="46.01241292540363" lon="9.01392522070245"><ele>288.0</ele><time>2026-05-02T13:17:34Z</time></trkpt><trkpt lat="46.012315838169506" lon="9.013795668648218"><ele>288.0</ele><time>2026-05-02T13:17:35Z</time></trkpt><trkpt lat="46.01225001692686" lon="9.01365700758183"><ele>288.0</ele><time>2026-05-02T13:17:36Z</time></trkpt><trkpt lat="46.01217925750574" lon="9.013509309281378"><ele>288.0</ele><time>2026-05-02T13:17:37Z</time></trkpt><trkpt lat="46.01210536815828" lon="9.013362026134425"><ele>288.0</ele><time>2026-05-02T13:17:38Z</time></trkpt><trkpt lat="46.0120236973385" lon="9.013202873835944"><ele>285.75</ele><time>2026-05-02T13:17:39Z</time></trkpt><trkpt lat="46.01191980888436" lon="9.0130558706821"><ele>283.5</ele><time>2026-05-02T13:17:40Z</time></trkpt><trkpt lat="46.01185135570077" lon="9.012889960412512"><ele>281.25</ele><time>2026-05-02T13:17:41Z</time></trkpt><trkpt lat="46.01174297556049" lon="9.012764527558634"><ele>279.0</ele><time>2026-05-02T13:17:42Z</time></trkpt><trkpt lat="46.01164132502858" lon="9.012639105080394"><ele>279.0</ele><time>2026-05-02T13:17:43Z</time></trkpt><trkpt lat="46.01154627043345" lon="9.01250156294184"><ele>279.0</ele><time>2026-05-02T13:17:44Z</time></trkpt><trkpt lat="46.011443546540214" lon="9.012377539886959"><ele>279.0</ele><time>2026-05-02T13:17:45Z</time></trkpt><trkpt lat="46.0113463831599" lon="9.01226245627581"><ele>279.0</ele><time>2026-05-02T13:17:46Z</time></trkpt><trkpt lat="46.011260393177885" lon="9.012150572057909"><ele>285.0</ele><time>2026-05-02T13:17:47Z</time></trkpt><trkpt lat="46.01117587683744" lon="9.012034136157938"><ele>291.0</ele><time>2026-05-02T13:17:48Z</time></trkpt><trkpt lat="46.011082299997405" lon="9.01191617957857"><ele>297.0</ele><time>2026-05-02T13:17:49Z</time></trkpt><trkpt lat="46.01098909675492" lon="9.01180711438441"><ele>303.0</ele><time>2026-05-02T13:17:50Z</time></trkpt><trkpt lat="46.010905998922865" lon="9.011688171891919"><ele>300.0</ele><time>2026-05-02T13:17:51Z</time></trkpt><trkpt lat="46.01082345097446" lon="9.011553111716982"><ele>297.0</ele><time>2026-05-02T13:17:52Z</time></trkpt><trkpt lat="46.01073447064592" lon="9.011424152731795"><ele>294.0</ele><time>2026-05-02T13:17:53Z</time></trkpt><trkpt lat="46.010651679965854" lon="9.011295283589686"><ele>291.0</ele><time>2026-05-02T13:17:54Z</time></trkpt><trkpt lat="46.010585484846175" lon="9.01115429672635"><ele>291.0</ele><time>2026-05-02T13:17:55Z</time></trkpt><trkpt lat="46.01051026356306" lon="9.01103033658156"><ele>291.0</ele><time>2026-05-02T13:17:56Z</time></trkpt><trkpt lat="46.010428473748206" lon="9.01091568748266"><ele>291.0</ele><time>2026-05-02T13:17:57Z</time></trkpt><trkpt lat="46.01034546368294" lon="9.010803927706677"><ele>291.0</ele><time>2026-05-02T13:17:58Z</time></trkpt><trkpt lat="46.01024960022455" lon="9.010710373652637"><ele>290.75</ele><time>2026-05-02T13:17:59Z</time></trkpt><trkpt lat="46.01015667719396" lon="9.010608618714782"><ele>290.5</ele><time>2026-05-02T13:18:00Z</time></trkpt><trkpt lat="46.01006368167311" lon="9.01050669973205"><ele>290.25</ele><time>2026-05-02T13:18:01Z</time></trkpt><trkpt lat="46.00998083543361" lon="9.010393289484808"><ele>290.0</ele><time>2026-05-02T13:18:02Z</time></trkpt><trkpt lat="46.0099043730324" lon="9.01026544986576"><ele>290.0</ele><time>2026-05-02T13:18:03Z</time></trkpt><trkpt lat="46.0098256128003" lon="9.01012460165014"><ele>290.0</ele><time>2026-05-02T13:18:04Z</time></trkpt><trkpt lat="46.00976000316411" lon="9.009968568899044"><ele>290.0</ele><time>2026-05-02T13:18:05Z</time></trkpt><trkpt lat="46.00967903917376" lon="9.00983437804867"><ele>290.0</ele><time>2026-05-02T13:18:06Z</time></trkpt><trkpt lat="46.00959485688067" lon="9.009700087939873"><ele>295.2</ele><time>2026-05-02T13:18:07Z</time></trkpt><trkpt lat="46.00952455985201" lon="9.009568816071956"><ele>300.4</ele><time>2026-05-02T13:18:08Z</time></trkpt><trkpt lat="46.00944689880287" lon="9.009448132304565"><ele>305.6</ele><time>2026-05-02T13:18:09Z</time></trkpt><trkpt lat="46.009365927671396" lon="9.009344647195384"><ele>310.8</ele><time>2026-05-02T13:18:10Z</time></trkpt><trkpt lat="46.00928935337649" lon="9.009236697079416"><ele>316.0</ele><time>2026-05-02T13:18:11Z</time></trkpt><trkpt lat="46.009220176475715" lon="9.009117794527484"><ele>315.0</ele><time>2026-05-02T13:18:12Z</time></trkpt><trkpt lat="46.009144023218745" lon="9.009003335501239"><ele>314.0</ele><time>2026-05-02T13:18:13Z</time></trkpt><trkpt lat="46.0090688900847" lon="9.008896237486598"><ele>313.0</ele><time>2026-05-02T13:18:14Z</time></trkpt><trkpt lat="46.00899213520093" lon="9.008787584494506"><ele>312.0</ele><time>2026-05-02T13:18:15Z</time></trkpt><trkpt lat="46.008919776194574" lon="9.008679605421209"><ele>311.0</ele><time>2026-05-02T13:18:16Z</time></trkpt><trkpt lat="46.00884410991034" lon="9.00856091703859"><ele>311.0</ele><time>2026-05-02T13:18:17Z</time></trkpt><trkpt lat="46.008770821947856" lon="9.008444229538762"><ele>311.0</ele><time>2026-05-02T13:18:17.999Z</time></trkpt><trkpt lat="46.00869562209451" lon="9.008332861356243"><ele>311.0</ele><time>2026-05-02T13:18:18.999Z</time></trkpt><trkpt lat="46.00861115249208" lon="9.00822970853819"><ele>311.0</ele><time>2026-05-02T13:18:19.999Z</time></trkpt><trkpt lat="46.00852106806597" lon="9.008120460674785"><ele>311.0</ele><time>2026-05-02T13:18:20.999Z</time></trkpt><trkpt lat="46.00843390970751" lon="9.008015360572612"><ele>306.2</ele><time>2026-05-02T13:18:21.999Z</time></trkpt><trkpt lat="46.0083512756922" lon="9.007907676713124"><ele>301.40000000000003</ele><time>2026-05-02T13:18:22.999Z</time></trkpt><trkpt lat="46.008260562899586" lon="9.007804714124774"><ele>296.6</ele><time>2026-05-02T13:18:23.999Z</time></trkpt><trkpt lat="46.00818385625363" lon="9.007715368257044"><ele>291.8</ele><time>2026-05-02T13:18:24.999Z</time></trkpt><trkpt lat="46.00811680005679" lon="9.007610748677003"><ele>287.0</ele><time>2026-05-02T13:18:25.999Z</time></trkpt><trkpt lat="46.008057919835004" lon="9.007501963980046"><ele>293.2</ele><time>2026-05-02T13:18:26.999Z</time></trkpt><trkpt lat="46.00800024283246" lon="9.007384704766684"><ele>299.4</ele><time>2026-05-02T13:18:27.999Z</time></trkpt><trkpt lat="46.00793697517014" lon="9.007269286069372"><ele>305.6</ele><time>2026-05-02T13:18:28.999Z</time></trkpt><trkpt lat="46.007890548075196" lon="9.007143074580181"><ele>311.8</ele><time>2026-05-02T13:18:29.999Z</time></trkpt><trkpt lat="46.00783546900832" lon="9.007000500450376"><ele>318.0</ele><time>2026-05-02T13:18:30.999Z</time></trkpt><trkpt lat="46.007780173415874" lon="9.006858257048245"><ele>318.0</ele><time>2026-05-02T13:18:31.999Z</time></trkpt><trkpt lat="46.007734058834174" lon="9.006729550002058"><ele>318.0</ele><time>2026-05-02T13:18:32.999Z</time></trkpt><trkpt lat="46.007676947310834" lon="9.006590844154067"><ele>318.0</ele><time>2026-05-02T13:18:33.999Z</time></trkpt><trkpt lat="46.007626598568436" lon="9.00644923353866"><ele>318.0</ele><time>2026-05-02T13:18:34.999Z</time></trkpt><trkpt lat="46.00757962470237" lon="9.006307396191811"><ele>318.0</ele><time>2026-05-02T13:18:35.999Z</time></trkpt><trkpt lat="46.00753729800182" lon="9.00615548088099"><ele>316.8</ele><time>2026-05-02T13:18:36.999Z</time></trkpt><trkpt lat="46.00748546944375" lon="9.006011559067115"><ele>315.6</ele><time>2026-05-02T13:18:37.999Z</time></trkpt><trkpt lat="46.007445833146335" lon="9.005861584763247"><ele>314.4</ele><time>2026-05-02T13:18:38.999Z</time></trkpt><trkpt lat="46.00741022838074" lon="9.005714230178224"><ele>313.2</ele><time>2026-05-02T13:18:39.999Z</time></trkpt><trkpt lat="46.00738076783462" lon="9.005563792071554"><ele>312.0</ele><time>2026-05-02T13:18:40.999Z</time></trkpt><trkpt lat="46.00734028285937" lon="9.00542885931671"><ele>312.0</ele><time>2026-05-02T13:18:41.999Z</time></trkpt><trkpt lat="46.007289689446786" lon="9.005294414518843"><ele>312.0</ele><time>2026-05-02T13:18:42.999Z</time></trkpt><trkpt lat="46.00723857299575" lon="9.005151785272023"><ele>312.0</ele><time>2026-05-02T13:18:43.999Z</time></trkpt><trkpt lat="46.007177071079184" lon="9.005022529377676"><ele>312.0</ele><time>2026-05-02T13:18:44.999Z</time></trkpt><trkpt lat="46.007111351631096" lon="9.004896984478982"><ele>312.0</ele><time>2026-05-02T13:18:45.999Z</time></trkpt><trkpt lat="46.00703616651937" lon="9.004779975759611"><ele>319.0</ele><time>2026-05-02T13:18:47Z</time></trkpt><trkpt lat="46.00696938931972" lon="9.00465806945011"><ele>326.0</ele><time>2026-05-02T13:18:48Z</time></trkpt><trkpt lat="46.0068861603454" lon="9.00455515578815"><ele>333.0</ele><time>2026-05-02T13:18:49Z</time></trkpt><trkpt lat="46.00681180144454" lon="9.004445734307673"><ele>340.0</ele><time>2026-05-02T13:18:50Z</time></trkpt><trkpt lat="46.00673963233604" lon="9.004338114986508"><ele>347.0</ele><time>2026-05-02T13:18:51Z</time></trkpt><trkpt lat="46.00667317461214" lon="9.004224416251944"><ele>338.6</ele><time>2026-05-02T13:18:52Z</time></trkpt><trkpt lat="46.00660459982351" lon="9.004118015276948"><ele>330.20000000000005</ele><time>2026-05-02T13:18:53Z</time></trkpt><trkpt lat="46.0065348121502" lon="9.004004723352779"><ele>321.8</ele><time>2026-05-02T13:18:54Z</time></trkpt><trkpt lat="46.006474912139744" lon="9.003893825648046"><ele>313.4</ele><time>2026-05-02T13:18:55Z</time></trkpt><trkpt lat="46.00643160258469" lon="9.003758798500701"><ele>305.0</ele><time>2026-05-02T13:18:56Z</time></trkpt><trkpt lat="46.00638227875912" lon="9.003632563305173"><ele>305.0</ele><time>2026-05-02T13:18:57Z</time></trkpt><trkpt lat="46.006331742150905" lon="9.003513610147241"><ele>305.0</ele><time>2026-05-02T13:18:58Z</time></trkpt><trkpt lat="46.006292018269264" lon="9.003385024110177"><ele>305.0</ele><time>2026-05-02T13:18:59Z</time></trkpt><trkpt lat="46.00624633769831" lon="9.003254966175813"><ele>305.0</ele><time>2026-05-02T13:19:00Z</time></trkpt><trkpt lat="46.00621397359666" lon="9.003114878573024"><ele>305.0</ele><time>2026-05-02T13:19:01Z</time></trkpt><trkpt lat="46.00618257024514" lon="9.002976980771091"><ele>309.4</ele><time>2026-05-02T13:19:02Z</time></trkpt><trkpt lat="46.006150314143504" lon="9.002836941661036"><ele>313.8</ele><time>2026-05-02T13:19:03Z</time></trkpt><trkpt lat="46.006131398612844" lon="9.00269367535768"><ele>318.20000000000005</ele><time>2026-05-02T13:19:04Z</time></trkpt><trkpt lat="46.00611179965" lon="9.002546472905959"><ele>322.6</ele><time>2026-05-02T13:19:05Z</time></trkpt><trkpt lat="46.006094840089155" lon="9.002415217482483"><ele>327.0</ele><time>2026-05-02T13:19:06Z</time></trkpt><trkpt lat="46.006072069618064" lon="9.002275853799636"><ele>330.40000000000003</ele><time>2026-05-02T13:19:07Z</time></trkpt><trkpt lat="46.00605638927391" lon="9.002136835180274"><ele>333.8</ele><time>2026-05-02T13:19:08Z</time></trkpt><trkpt lat="46.006026071482516" lon="9.00199448961151"><ele>337.2</ele><time>2026-05-02T13:19:09Z</time></trkpt><trkpt lat="46.006003556429896" lon="9.001854420326993"><ele>340.6</ele><time>2026-05-02T13:19:10Z</time></trkpt><trkpt lat="46.00598385175228" lon="9.001715042434885"><ele>344.0</ele><time>2026-05-02T13:19:11Z</time></trkpt><trkpt lat="46.00594926347717" lon="9.001579981296914"><ele>347.6</ele><time>2026-05-02T13:19:12Z</time></trkpt><trkpt lat="46.00590931376794" lon="9.00143249375035"><ele>351.2</ele><time>2026-05-02T13:19:13Z</time></trkpt><trkpt lat="46.005863350072936" lon="9.001308692631865"><ele>354.8</ele><time>2026-05-02T13:19:14Z</time></trkpt><trkpt lat="46.005816128329094" lon="9.00118470791162"><ele>358.40000000000003</ele><time>2026-05-02T13:19:15Z</time></trkpt><trkpt lat="46.00577578319491" lon="9.001065108645431"><ele>362.0</ele><time>2026-05-02T13:19:16Z</time></trkpt><trkpt lat="46.005729554050525" lon="9.000942528650725"><ele>362.0</ele><time>2026-05-02T13:19:17Z</time></trkpt><trkpt lat="46.00567046137848" lon="9.00082690417534"><ele>362.0</ele><time>2026-05-02T13:19:18Z</time></trkpt><trkpt lat="46.00561984427398" lon="9.000703875848139"><ele>362.0</ele><time>2026-05-02T13:19:19Z</time></trkpt><trkpt lat="46.005577119162275" lon="9.000581879906443"><ele>362.0</ele><time>2026-05-02T13:19:20Z</time></trkpt><trkpt lat="46.005538265417" lon="9.000472185441396"><ele>362.0</ele><time>2026-05-02T13:19:21Z</time></trkpt><trkpt lat="46.00551414420487" lon="9.000363944584924"><ele>362.0</ele><time>2026-05-02T13:19:22Z</time></trkpt><trkpt lat="46.005484378900405" lon="9.000216402455115"><ele>362.0</ele><time>2026-05-02T13:19:23Z</time></trkpt><trkpt lat="46.00545856185322" lon="9.000067414914689"><ele>362.0</ele><time>2026-05-02T13:19:24Z</time></trkpt><trkpt lat="46.00546195790712" lon="8.99990554235635"><ele>362.0</ele><time>2026-05-02T13:19:25Z</time></trkpt><trkpt lat="46.005445057084486" lon="8.999748691925761"><ele>362.0</ele><time>2026-05-02T13:19:26Z</time></trkpt><trkpt lat="46.00544672903751" lon="8.999573023746834"><ele>362.0</ele><time>2026-05-02T13:19:27Z</time></trkpt><trkpt lat="46.00545107129533" lon="8.999410327216497"><ele>362.0</ele><time>2026-05-02T13:19:28Z</time></trkpt><trkpt lat="46.005450788562165" lon="8.999238788878186"><ele>362.0</ele><time>2026-05-02T13:19:29.012Z</time></trkpt><trkpt lat="46.00544376745733" lon="8.999068571254318"><ele>362.0</ele><time>2026-05-02T13:19:30.018Z</time></trkpt><trkpt lat="46.00545677010078" lon="8.99889972699445"><ele>362.0</ele><time>2026-05-02T13:19:31.021Z</time></trkpt><trkpt lat="46.00548016351945" lon="8.998739697355157"><ele>362.0</ele><time>2026-05-02T13:19:32.011Z</time></trkpt><trkpt lat="46.00549043837127" lon="8.998572424070144"><ele>362.0</ele><time>2026-05-02T13:19:33.012Z</time></trkpt><trkpt lat="46.00525152999273" lon="8.998041025376649"><ele>362.0</ele><time>2026-05-02T13:19:36Z</time></trkpt><trkpt lat="46.00519033736385" lon="8.997881445480383"><ele>362.0</ele><time>2026-05-02T13:19:37Z</time></trkpt><trkpt lat="46.00512666605058" lon="8.99772313576646"><ele>362.0</ele><time>2026-05-02T13:19:38Z</time></trkpt><trkpt lat="46.0050900690067" lon="8.997576732080157"><ele>362.0</ele><time>2026-05-02T13:19:39Z</time></trkpt><trkpt lat="46.00504271311238" lon="8.99741368037202"><ele>362.0</ele><time>2026-05-02T13:19:40Z</time></trkpt><trkpt lat="46.005015595926025" lon="8.99722452679271"><ele>362.0</ele><time>2026-05-02T13:19:41Z</time></trkpt><trkpt lat="46.00504142816873" lon="8.997031370183844"><ele>362.0</ele><time>2026-05-02T13:19:42Z</time></trkpt><trkpt lat="46.005028832813345" lon="8.996841544245257"><ele>362.0</ele><time>2026-05-02T13:19:43Z</time></trkpt><trkpt lat="46.00504919817589" lon="8.996620772727935"><ele>362.0</ele><time>2026-05-02T13:19:44Z</time></trkpt><trkpt lat="46.005045005078955" lon="8.996429300146394"><ele>362.0</ele><time>2026-05-02T13:19:45Z</time></trkpt><trkpt lat="46.0050315003098" lon="8.996244090361838"><ele>362.0</ele><time>2026-05-02T13:19:46Z</time></trkpt><trkpt lat="46.005006124942675" lon="8.996061909447548"><ele>362.0</ele><time>2026-05-02T13:19:47Z</time></trkpt><trkpt lat="46.00498165608206" lon="8.995894519062714"><ele>362.0</ele><time>2026-05-02T13:19:48Z</time></trkpt><trkpt lat="46.004970220452506" lon="8.995730523508959"><ele>362.0</ele><time>2026-05-02T13:19:49Z</time></trkpt><trkpt lat="46.004956754021556" lon="8.99556961796286"><ele>362.0</ele><time>2026-05-02T13:19:50Z</time></trkpt><trkpt lat="46.0049454958974" lon="8.995398154834977"><ele>362.0</ele><time>2026-05-02T13:19:51Z</time></trkpt><trkpt lat="46.00493194367773" lon="8.995258547706943"><ele>362.0</ele><time>2026-05-02T13:19:52Z</time></trkpt><trkpt lat="46.00492557065559" lon="8.99512136389818"><ele>362.0</ele><time>2026-05-02T13:19:53Z</time></trkpt><trkpt lat="46.00492163691233" lon="8.99497869405054"><ele>362.0</ele><time>2026-05-02T13:19:54Z</time></trkpt><trkpt lat="46.004924098725176" lon="8.994840047318755"><ele>362.0</ele><time>2026-05-02T13:19:55Z</time></trkpt><trkpt lat="46.004951850600975" lon="8.994705675570698"><ele>362.0</ele><time>2026-05-02T13:19:56Z</time></trkpt><trkpt lat="46.00498215049989" lon="8.99455760481125"><ele>362.0</ele><time>2026-05-02T13:19:57Z</time></trkpt><trkpt lat="46.005017215362685" lon="8.994410835434747"><ele>362.0</ele><time>2026-05-02T13:19:58Z</time></trkpt><trkpt lat="46.00503586390785" lon="8.994272067690899"><ele>362.0</ele><time>2026-05-02T13:19:59Z</time></trkpt><trkpt lat="46.005063204904125" lon="8.994151356033678"><ele>362.0</ele><time>2026-05-02T13:20:00Z</time></trkpt><trkpt lat="46.00507942783113" lon="8.99402569731203"><ele>362.0</ele><time>2026-05-02T13:20:01Z</time></trkpt><trkpt lat="46.00509144325114" lon="8.993899614958343"><ele>362.0</ele><time>2026-05-02T13:20:02.013Z</time></trkpt><trkpt lat="46.005090226596074" lon="8.993774702793687"><ele>362.0</ele><time>2026-05-02T13:20:03.018Z</time></trkpt><trkpt lat="46.005083156433756" lon="8.99364653604806"><ele>362.0</ele><time>2026-05-02T13:20:04.017Z</time></trkpt><trkpt lat="46.00507317138209" lon="8.99352387440955"><ele>362.0</ele><time>2026-05-02T13:20:05.018Z</time></trkpt><trkpt lat="46.00469493777119" lon="8.990749614321619"><ele>362.0</ele><time>2026-05-02T13:20:19.999Z</time></trkpt><trkpt lat="46.0046464345962" lon="8.990575568297356"><ele>362.0</ele><time>2026-05-02T13:20:20.999Z</time></trkpt><trkpt lat="46.00448842073242" lon="8.990554296209316"><ele>362.0</ele><time>2026-05-02T13:20:21.999Z</time></trkpt><trkpt lat="46.004419820967655" lon="8.990473024700126"><ele>362.0</ele><time>2026-05-02T13:20:22.999Z</time></trkpt><trkpt lat="46.00434157680829" lon="8.990359497589454"><ele>356.75</ele><time>2026-05-02T13:20:23.999Z</time></trkpt><trkpt lat="46.00427076699283" lon="8.990294548183988"><ele>351.5</ele><time>2026-05-02T13:20:24.999Z</time></trkpt><trkpt lat="46.004187618566206" lon="8.99020754421495"><ele>346.25</ele><time>2026-05-02T13:20:25.999Z</time></trkpt><trkpt lat="46.00410284919637" lon="8.990117015932332"><ele>341.0</ele><time>2026-05-02T13:20:27.012Z</time></trkpt><trkpt lat="46.003861466492275" lon="8.989594128624683"><ele>341.0</ele><time>2026-05-02T13:20:30.999Z</time></trkpt><trkpt lat="46.00381411804608" lon="8.98945443330736"><ele>341.0</ele><time>2026-05-02T13:20:31.999Z</time></trkpt><trkpt lat="46.00376501922341" lon="8.989298774987656"><ele>341.0</ele><time>2026-05-02T13:20:32.999Z</time></trkpt><trkpt lat="46.003730579072005" lon="8.989187179883103"><ele>341.0</ele><time>2026-05-02T13:20:33.999Z</time></trkpt><trkpt lat="46.00366114368203" lon="8.988961330378439"><ele>346.20000000000005</ele><time>2026-05-02T13:20:35.999Z</time></trkpt><trkpt lat="46.00359367618395" lon="8.98883379558425"><ele>351.40000000000003</ele><time>2026-05-02T13:20:36.999Z</time></trkpt><trkpt lat="46.003567565211284" lon="8.988698687622183"><ele>356.6</ele><time>2026-05-02T13:20:37.999Z</time></trkpt><trkpt lat="46.00353304708755" lon="8.988565198727564"><ele>361.8</ele><time>2026-05-02T13:20:38.999Z</time></trkpt><trkpt lat="46.003497917225694" lon="8.988432580694258"><ele>367.0</ele><time>2026-05-02T13:20:39.999Z</time></trkpt><trkpt lat="46.00347512083713" lon="8.988304605568622"><ele>369.5</ele><time>2026-05-02T13:20:40.999Z</time></trkpt><trkpt lat="46.00344516933158" lon="8.988189382783691"><ele>372.0</ele><time>2026-05-02T13:20:41.999Z</time></trkpt><trkpt lat="46.0034148820699" lon="8.98808117314114"><ele>374.5</ele><time>2026-05-02T13:20:42.999Z</time></trkpt><trkpt lat="46.003393074868114" lon="8.987982161688908"><ele>377.0</ele><time>2026-05-02T13:20:43.999Z</time></trkpt><trkpt lat="46.00337211488428" lon="8.987861592786636"><ele>379.5</ele><time>2026-05-02T13:20:44.999Z</time></trkpt><trkpt lat="46.00334607506645" lon="8.987731833444798"><ele>382.0</ele><time>2026-05-02T13:20:45.999Z</time></trkpt><trkpt lat="46.003328914357645" lon="8.98758180506813"><ele>369.0</ele><time>2026-05-02T13:20:46.999Z</time></trkpt><trkpt lat="46.0033218643723" lon="8.987417332399195"><ele>356.0</ele><time>2026-05-02T13:20:47.999Z</time></trkpt><trkpt lat="46.00331853456522" lon="8.987243317991354"><ele>343.0</ele><time>2026-05-02T13:20:48.999Z</time></trkpt><trkpt lat="46.00328511940274" lon="8.987090480635205"><ele>330.0</ele><time>2026-05-02T13:20:49.999Z</time></trkpt><trkpt lat="46.00324274402306" lon="8.986942438797719"><ele>330.0</ele><time>2026-05-02T13:20:50.999Z</time></trkpt><trkpt lat="46.003178762034004" lon="8.986772171955199"><ele>330.0</ele><time>2026-05-02T13:20:51.999Z</time></trkpt><trkpt lat="46.00308771795764" lon="8.986607271336625"><ele>330.0</ele><time>2026-05-02T13:20:53Z</time></trkpt><trkpt lat="46.00302298781818" lon="8.986438304242702"><ele>330.0</ele><time>2026-05-02T13:20:54Z</time></trkpt><trkpt lat="46.00295256031949" lon="8.986288049696299"><ele>334.75</ele><time>2026-05-02T13:20:55Z</time></trkpt><trkpt lat="46.00288812094351" lon="8.986150570724487"><ele>339.5</ele><time>2026-05-02T13:20:56Z</time></trkpt><trkpt lat="46.00283334215008" lon="8.985951251077399"><ele>344.25</ele><time>2026-05-02T13:20:57Z</time></trkpt><trkpt lat="46.002771488934265" lon="8.985786276382541"><ele>349.0</ele><time>2026-05-02T13:20:58Z</time></trkpt><trkpt lat="46.002732403551384" lon="8.985622507172268"><ele>352.0</ele><time>2026-05-02T13:20:59Z</time></trkpt><trkpt lat="46.00269684029728" lon="8.985453646596563"><ele>355.0</ele><time>2026-05-02T13:21:00Z</time></trkpt><trkpt lat="46.002661401533196" lon="8.985296298080709"><ele>358.0</ele><time>2026-05-02T13:21:01Z</time></trkpt><trkpt lat="46.00262682120193" lon="8.985123597841095"><ele>361.0</ele><time>2026-05-02T13:21:02Z</time></trkpt><trkpt lat="46.002592133587775" lon="8.984956197453169"><ele>363.0</ele><time>2026-05-02T13:21:03Z</time></trkpt><trkpt lat="46.002549049920866" lon="8.984797460142806"><ele>365.0</ele><time>2026-05-02T13:21:04Z</time></trkpt><trkpt lat="46.00248223701348" lon="8.984640477093853"><ele>367.0</ele><time>2026-05-02T13:21:05Z</time></trkpt><trkpt lat="46.00241659856979" lon="8.984510832329512"><ele>369.0</ele><time>2026-05-02T13:21:06Z</time></trkpt><trkpt lat="46.00234591695884" lon="8.984388688302099"><ele>362.6</ele><time>2026-05-02T13:21:07Z</time></trkpt><trkpt lat="46.002255270077995" lon="8.984278164098662"><ele>356.2</ele><time>2026-05-02T13:21:08Z</time></trkpt><trkpt lat="46.00217282513145" lon="8.984181014177526"><ele>349.8</ele><time>2026-05-02T13:21:09Z</time></trkpt><trkpt lat="46.00208932935019" lon="8.984075388561473"><ele>343.40000000000003</ele><time>2026-05-02T13:21:10Z</time></trkpt><trkpt lat="46.0020158052701" lon="8.983960537149231"><ele>337.0</ele><time>2026-05-02T13:21:11Z</time></trkpt><trkpt lat="46.00194670324011" lon="8.983828928523616"><ele>337.0</ele><time>2026-05-02T13:21:12Z</time></trkpt><trkpt lat="46.00189933190569" lon="8.983697555018718"><ele>337.0</ele><time>2026-05-02T13:21:13Z</time></trkpt><trkpt lat="46.00184986838546" lon="8.98357401219916"><ele>337.0</ele><time>2026-05-02T13:21:14Z</time></trkpt><trkpt lat="46.00181609642697" lon="8.983451155355903"><ele>337.0</ele><time>2026-05-02T13:21:15Z</time></trkpt><trkpt lat="46.00181376716135" lon="8.98330294925604"><ele>337.0</ele><time>2026-05-02T13:21:16Z</time></trkpt><trkpt lat="46.00183503733485" lon="8.983163292277904"><ele>338.40000000000003</ele><time>2026-05-02T13:21:17Z</time></trkpt><trkpt lat="46.001840604095385" lon="8.983032238313399"><ele>339.8</ele><time>2026-05-02T13:21:18Z</time></trkpt><trkpt lat="46.00187263619037" lon="8.982879706366884"><ele>341.2</ele><time>2026-05-02T13:21:19Z</time></trkpt><trkpt lat="46.00190801512481" lon="8.982735409718764"><ele>342.6</ele><time>2026-05-02T13:21:20Z</time></trkpt><trkpt lat="46.00191992263081" lon="8.982573770536014"><ele>344.0</ele><time>2026-05-02T13:21:21Z</time></trkpt><trkpt lat="46.00191755435601" lon="8.982417663022028"><ele>344.25</ele><time>2026-05-02T13:21:22Z</time></trkpt><trkpt lat="46.001921812985515" lon="8.982246106374875"><ele>344.5</ele><time>2026-05-02T13:21:23Z</time></trkpt><trkpt lat="46.001895653152" lon="8.982085435804187"><ele>344.75</ele><time>2026-05-02T13:21:24Z</time></trkpt><trkpt lat="46.001854365032415" lon="8.981917182989742"><ele>345.0</ele><time>2026-05-02T13:21:25Z</time></trkpt><trkpt lat="46.00182743329551" lon="8.981746067698154"><ele>345.25</ele><time>2026-05-02T13:21:26Z</time></trkpt><trkpt lat="46.00179672485699" lon="8.981581839601747"><ele>345.5</ele><time>2026-05-02T13:21:27Z</time></trkpt><trkpt lat="46.00177006332201" lon="8.981416256461175"><ele>345.75</ele><time>2026-05-02T13:21:28Z</time></trkpt><trkpt lat="46.001745183445834" lon="8.981255114934111"><ele>346.0</ele><time>2026-05-02T13:21:29Z</time></trkpt><trkpt lat="46.001730473661404" lon="8.981100601433482"><ele>346.0</ele><time>2026-05-02T13:21:30Z</time></trkpt><trkpt lat="46.00170495626834" lon="8.980937557611945"><ele>346.0</ele><time>2026-05-02T13:21:31Z</time></trkpt><trkpt lat="46.00167693325466" lon="8.980776959203347"><ele>346.0</ele><time>2026-05-02T13:21:32Z</time></trkpt><trkpt lat="46.00165277911443" lon="8.980618493912997"><ele>346.0</ele><time>2026-05-02T13:21:33Z</time></trkpt><trkpt lat="46.00163259279923" lon="8.980463872984304"><ele>339.8</ele><time>2026-05-02T13:21:34Z</time></trkpt><trkpt lat="46.00161500423876" lon="8.980320231658844"><ele>333.6</ele><time>2026-05-02T13:21:35Z</time></trkpt><trkpt lat="46.00159254832136" lon="8.980178539046154"><ele>327.4</ele><time>2026-05-02T13:21:36Z</time></trkpt><trkpt lat="46.00157389845976" lon="8.980043346210604"><ele>321.2</ele><time>2026-05-02T13:21:37Z</time></trkpt><trkpt lat="46.00156024269884" lon="8.979908137018652"><ele>315.0</ele><time>2026-05-02T13:21:38Z</time></trkpt><trkpt lat="46.00155748884928" lon="8.97975757055248"><ele>314.6</ele><time>2026-05-02T13:21:39Z</time></trkpt><trkpt lat="46.00156989394106" lon="8.979615158762053"><ele>314.2</ele><time>2026-05-02T13:21:40Z</time></trkpt><trkpt lat="46.00159111430478" lon="8.97948007634903"><ele>313.8</ele><time>2026-05-02T13:21:41Z</time></trkpt><trkpt lat="46.001639248764526" lon="8.979359741030175"><ele>313.4</ele><time>2026-05-02T13:21:42Z</time></trkpt><trkpt lat="46.0016978413396" lon="8.979245119616092"><ele>313.0</ele><time>2026-05-02T13:21:43Z</time></trkpt><trkpt lat="46.00174486742969" lon="8.979142803984983"><ele>318.8</ele><time>2026-05-02T13:21:44Z</time></trkpt><trkpt lat="46.00179079337231" lon="8.979023956513776"><ele>324.6</ele><time>2026-05-02T13:21:45Z</time></trkpt><trkpt lat="46.001815602858045" lon="8.978898595839215"><ele>330.40000000000003</ele><time>2026-05-02T13:21:46Z</time></trkpt><trkpt lat="46.00180722666755" lon="8.978761070521788"><ele>336.20000000000005</ele><time>2026-05-02T13:21:47Z</time></trkpt><trkpt lat="46.001777755434276" lon="8.978620896099489"><ele>342.0</ele><time>2026-05-02T13:21:48Z</time></trkpt><trkpt lat="46.00174636499186" lon="8.978503102306165"><ele>342.0</ele><time>2026-05-02T13:21:49Z</time></trkpt><trkpt lat="46.001720140209095" lon="8.978367728102807"><ele>342.0</ele><time>2026-05-02T13:21:50Z</time></trkpt><trkpt lat="46.00170257688647" lon="8.978228370299064"><ele>342.0</ele><time>2026-05-02T13:21:51Z</time></trkpt><trkpt lat="46.001693023694145" lon="8.978088382835375"><ele>342.0</ele><time>2026-05-02T13:21:52Z</time></trkpt><trkpt lat="46.001703173980175" lon="8.977948089377886"><ele>342.0</ele><time>2026-05-02T13:21:53Z</time></trkpt><trkpt lat="46.001727764623205" lon="8.977815666329406"><ele>342.0</ele><time>2026-05-02T13:21:54Z</time></trkpt><trkpt lat="46.00174123929133" lon="8.97768822959963"><ele>342.0</ele><time>2026-05-02T13:21:55Z</time></trkpt><trkpt lat="46.00174440402647" lon="8.977554693212005"><ele>342.0</ele><time>2026-05-02T13:21:56Z</time></trkpt><trkpt lat="46.00174795679367" lon="8.977432774508413"><ele>342.0</ele><time>2026-05-02T13:21:57Z</time></trkpt><trkpt lat="46.001753238541085" lon="8.97732091382985"><ele>342.0</ele><time>2026-05-02T13:21:57.999Z</time></trkpt><trkpt lat="46.0017604984133" lon="8.977192266095384"><ele>342.0</ele><time>2026-05-02T13:21:58.999Z</time></trkpt><trkpt lat="46.00176414322384" lon="8.977060151999957"><ele>342.0</ele><time>2026-05-02T13:21:59.999Z</time></trkpt><trkpt lat="46.001754469707606" lon="8.976936768311347"><ele>342.0</ele><time>2026-05-02T13:22:00.999Z</time></trkpt><trkpt lat="46.001738660984245" lon="8.976810773172744"><ele>342.0</ele><time>2026-05-02T13:22:01.999Z</time></trkpt><trkpt lat="46.001730251533985" lon="8.976688746268614"><ele>342.0</ele><time>2026-05-02T13:22:02.999Z</time></trkpt><trkpt lat="46.0017251630657" lon="8.97656952369449"><ele>342.0</ele><time>2026-05-02T13:22:03.999Z</time></trkpt><trkpt lat="46.00171714070279" lon="8.976450744698386"><ele>342.0</ele><time>2026-05-02T13:22:04.999Z</time></trkpt><trkpt lat="46.00170432331139" lon="8.97634305570208"><ele>342.0</ele><time>2026-05-02T13:22:05.999Z</time></trkpt><trkpt lat="46.00169052822987" lon="8.976225061387208"><ele>342.0</ele><time>2026-05-02T13:22:06.999Z</time></trkpt><trkpt lat="46.001672776000994" lon="8.976103607211261"><ele>342.0</ele><time>2026-05-02T13:22:07.999Z</time></trkpt><trkpt lat="46.001665164370685" lon="8.975997498318607"><ele>342.0</ele><time>2026-05-02T13:22:08.999Z</time></trkpt><trkpt lat="46.00166161734175" lon="8.975891109579015"><ele>342.0</ele><time>2026-05-02T13:22:09.999Z</time></trkpt><trkpt lat="46.001670434658664" lon="8.975784257954139"><ele>342.0</ele><time>2026-05-02T13:22:10.999Z</time></trkpt><trkpt lat="46.00168859331093" lon="8.97567468958128"><ele>341.20000000000005</ele><time>2026-05-02T13:22:11.999Z</time></trkpt><trkpt lat="46.00172017518617" lon="8.97557835258141"><ele>340.4</ele><time>2026-05-02T13:22:12.999Z</time></trkpt><trkpt lat="46.001782007737845" lon="8.975458730980153"><ele>339.6</ele><time>2026-05-02T13:22:14.999Z</time></trkpt><trkpt lat="46.001863962079014" lon="8.975419937940275"><ele>338.79999999999995</ele><time>2026-05-02T13:22:15.999Z</time></trkpt><trkpt lat="46.00182985962912" lon="8.975251304384388"><ele>338.0</ele><time>2026-05-02T13:22:17.999Z</time></trkpt><trkpt lat="46.00178106567058" lon="8.975191582471446"><ele>338.0</ele><time>2026-05-02T13:22:18.999Z</time></trkpt><trkpt lat="46.0017114185731" lon="8.975220615619582"><ele>338.0</ele><time>2026-05-02T13:22:19.999Z</time></trkpt><trkpt lat="46.001654553640584" lon="8.975289223672776"><ele>338.0</ele><time>2026-05-02T13:22:20.999Z</time></trkpt><trkpt lat="46.00160425990245" lon="8.975362996692455"><ele>338.0</ele><time>2026-05-02T13:22:21.999Z</time></trkpt><trkpt lat="46.00157067019186" lon="8.975461768849758"><ele>338.0</ele><time>2026-05-02T13:22:22.999Z</time></trkpt><trkpt lat="46.00153993139453" lon="8.975543819459874"><ele>338.0</ele><time>2026-05-02T13:22:23.999Z</time></trkpt><trkpt lat="46.001511656655964" lon="8.975626429662565"><ele>338.0</ele><time>2026-05-02T13:22:24.999Z</time></trkpt><trkpt lat="46.00148530854846" lon="8.975718972433333"><ele>332.6666666666667</ele><time>2026-05-02T13:22:25.999Z</time></trkpt><trkpt lat="46.001484296902824" lon="8.97582273500639"><ele>327.33333333333337</ele><time>2026-05-02T13:22:26.999Z</time></trkpt><trkpt lat="46.001472096145484" lon="8.975917774116025"><ele>322.0</ele><time>2026-05-02T13:22:27.999Z</time></trkpt><trkpt lat="46.001461874827015" lon="8.976012401467262"><ele>316.6666666666667</ele><time>2026-05-02T13:22:28.999Z</time></trkpt><trkpt lat="46.00142829028523" lon="8.976162307434482"><ele>311.3333333333333</ele><time>2026-05-02T13:22:30.999Z</time></trkpt><trkpt lat="46.001404082857434" lon="8.976331828821742"><ele>306.0</ele><time>2026-05-02T13:22:32.999Z</time></trkpt><trkpt lat="46.001377490946346" lon="8.976494066018734"><ele>306.0</ele><time>2026-05-02T13:22:34.999Z</time></trkpt><trkpt lat="46.001361368379676" lon="8.976646743216104"><ele>306.0</ele><time>2026-05-02T13:22:36.999Z</time></trkpt><trkpt lat="46.001341215509306" lon="8.976764546512662"><ele>306.0</ele><time>2026-05-02T13:22:38.999Z</time></trkpt><trkpt lat="46.001292210768305" lon="8.976862813345027"><ele>306.0</ele><time>2026-05-02T13:22:40.999Z</time></trkpt><trkpt lat="46.00127309058243" lon="8.97699197566742"><ele>306.0</ele><time>2026-05-02T13:22:42.999Z</time></trkpt><trkpt lat="46.00124197211558" lon="8.977098550280528"><ele>306.0</ele><time>2026-05-02T13:22:44.999Z</time></trkpt><trkpt lat="46.001169451929925" lon="8.977132383222315"><ele>306.0</ele><time>2026-05-02T13:22:46.999Z</time></trkpt><trkpt lat="46.00111321591765" lon="8.977068649853026"><ele>306.0</ele><time>2026-05-02T13:22:48.999Z</time></trkpt><trkpt lat="46.00112353474225" lon="8.976915337786872"><ele>306.0</ele><time>2026-05-02T13:22:50.999Z</time></trkpt><trkpt lat="46.00114567078811" lon="8.976791442599929"><ele>306.0</ele><time>2026-05-02T13:22:52.999Z</time></trkpt><trkpt lat="46.00116544061805" lon="8.976645748722039"><ele>306.0</ele><time>2026-05-02T13:22:54.999Z</time></trkpt><trkpt lat="46.001190523522034" lon="8.976519380989917"><ele>306.0</ele><time>2026-05-02T13:22:56.999Z</time></trkpt><trkpt lat="46.001208477909664" lon="8.976421942764285"><ele>306.0</ele><time>2026-05-02T13:22:59Z</time></trkpt><trkpt lat="46.00125503533908" lon="8.97633918009731"><ele>306.0</ele><time>2026-05-02T13:23:13Z</time></trkpt><trkpt lat="46.00126828781412" lon="8.97624038005993"><ele>306.0</ele><time>2026-05-02T13:23:14Z</time></trkpt><trkpt lat="46.00126775806236" lon="8.976119059221082"><ele>306.0</ele><time>2026-05-02T13:23:15Z</time></trkpt><trkpt lat="46.001284555838645" lon="8.976014705805609"><ele>306.0</ele><time>2026-05-02T13:23:16Z</time></trkpt><trkpt lat="46.00128963946598" lon="8.975915467171374"><ele>306.0</ele><time>2026-05-02T13:23:17Z</time></trkpt><trkpt lat="46.00128854715908" lon="8.975739001262765"><ele>305.0</ele><time>2026-05-02T13:23:19Z</time></trkpt><trkpt lat="46.001268989182236" lon="8.975638038067737"><ele>304.0</ele><time>2026-05-02T13:23:22Z</time></trkpt><trkpt lat="46.001267432554506" lon="8.975495460307538"><ele>303.0</ele><time>2026-05-02T13:23:25Z</time></trkpt><trkpt lat="46.00126380713708" lon="8.975404424889996"><ele>302.0</ele><time>2026-05-02T13:23:26Z</time></trkpt><trkpt lat="46.00126710791085" lon="8.975294210511425"><ele>301.0</ele><time>2026-05-02T13:23:27Z</time></trkpt><trkpt lat="46.00126970670669" lon="8.975174128804188"><ele>300.0</ele><time>2026-05-02T13:23:28Z</time></trkpt><trkpt lat="46.00128248810318" lon="8.975051989917828"><ele>298.6666666666667</ele><time>2026-05-02T13:23:29Z</time></trkpt><trkpt lat="46.001294882871164" lon="8.97490128220709"><ele>297.3333333333333</ele><time>2026-05-02T13:23:30Z</time></trkpt><trkpt lat="46.00132951946155" lon="8.97479828372079"><ele>296.0</ele><time>2026-05-02T13:23:31Z</time></trkpt><trkpt lat="46.00135394097579" lon="8.974687369852393"><ele>294.66666666666663</ele><time>2026-05-02T13:23:32Z</time></trkpt><trkpt lat="46.00139081622224" lon="8.97459471219852"><ele>293.3333333333333</ele><time>2026-05-02T13:23:33Z</time></trkpt><trkpt lat="46.001430433426826" lon="8.974481236996475"><ele>292.0</ele><time>2026-05-02T13:23:34Z</time></trkpt><trkpt lat="46.001477005380266" lon="8.974393924894294"><ele>292.0</ele><time>2026-05-02T13:23:35Z</time></trkpt><trkpt lat="46.00153625417575" lon="8.974307074348978"><ele>292.0</ele><time>2026-05-02T13:23:36Z</time></trkpt><trkpt lat="46.00161428300746" lon="8.974239209189504"><ele>292.0</ele><time>2026-05-02T13:23:37Z</time></trkpt><trkpt lat="46.00166732853035" lon="8.974150433749045"><ele>292.0</ele><time>2026-05-02T13:23:38Z</time></trkpt><trkpt lat="46.001721162507266" lon="8.974070321844756"><ele>292.0</ele><time>2026-05-02T13:23:39Z</time></trkpt><trkpt lat="46.00177134677242" lon="8.973989787751265"><ele>292.0</ele><time>2026-05-02T13:23:40Z</time></trkpt><trkpt lat="46.00181922626051" lon="8.973895923398254"><ele>295.0</ele><time>2026-05-02T13:23:41Z</time></trkpt><trkpt lat="46.00190373548894" lon="8.973733571833408"><ele>298.0</ele><time>2026-05-02T13:23:43Z</time></trkpt><trkpt lat="46.00195449032116" lon="8.97364807232505"><ele>301.0</ele><time>2026-05-02T13:23:44Z</time></trkpt><trkpt lat="46.00201143128516" lon="8.973570217194379"><ele>304.0</ele><time>2026-05-02T13:23:45Z</time></trkpt><trkpt lat="46.00211778054585" lon="8.973480565296178"><ele>307.0</ele><time>2026-05-02T13:23:47Z</time></trkpt><trkpt lat="46.002179600226526" lon="8.97346096208882"><ele>306.99999999999994</ele><time>2026-05-02T13:23:48Z</time></trkpt><trkpt lat="46.002240787030146" lon="8.973433472971555"><ele>307.0</ele><time>2026-05-02T13:23:49Z</time></trkpt><trkpt lat="46.002305918437195" lon="8.973412854872102"><ele>307.0</ele><time>2026-05-02T13:23:50Z</time></trkpt><trkpt lat="46.0023796318459" lon="8.973401133780817"><ele>307.0</ele><time>2026-05-02T13:23:51Z</time></trkpt><trkpt lat="46.00245023567231" lon="8.973400199459313"><ele>307.0</ele><time>2026-05-02T13:23:52Z</time></trkpt><trkpt lat="46.00252135437634" lon="8.973407883399169"><ele>306.99999999999994</ele><time>2026-05-02T13:23:56Z</time></trkpt><trkpt lat="46.00259547867422" lon="8.97337297247696"><ele>307.0</ele><time>2026-05-02T13:23:58Z</time></trkpt><trkpt lat="46.00265137174362" lon="8.973323803125318"><ele>306.3333333333333</ele><time>2026-05-02T13:23:59Z</time></trkpt><trkpt lat="46.0027116710655" lon="8.973296413099332"><ele>305.66666666666663</ele><time>2026-05-02T13:24:00Z</time></trkpt><trkpt lat="46.00277464000297" lon="8.973256506121581"><ele>305.0</ele><time>2026-05-02T13:24:01Z</time></trkpt><trkpt lat="46.002828798705494" lon="8.973193516326424"><ele>304.3333333333333</ele><time>2026-05-02T13:24:02Z</time></trkpt><trkpt lat="46.00287414639878" lon="8.9731159445601"><ele>303.6666666666667</ele><time>2026-05-02T13:24:03Z</time></trkpt><trkpt lat="46.002948172403876" lon="8.973036386170469"><ele>303.0</ele><time>2026-05-02T13:24:04Z</time></trkpt><trkpt lat="46.00299725287483" lon="8.972914326963776"><ele>303.0</ele><time>2026-05-02T13:24:05Z</time></trkpt><trkpt lat="46.00303020267877" lon="8.972780913764824"><ele>303.0</ele><time>2026-05-02T13:24:06Z</time></trkpt><trkpt lat="46.00305098841388" lon="8.97260871239225"><ele>303.0</ele><time>2026-05-02T13:24:06.999Z</time></trkpt><trkpt lat="46.00304289094604" lon="8.972447332848374"><ele>303.0</ele><time>2026-05-02T13:24:07.999Z</time></trkpt><trkpt lat="46.00301006061129" lon="8.972302200907084"><ele>303.0</ele><time>2026-05-02T13:24:08.999Z</time></trkpt><trkpt lat="46.00298521274879" lon="8.972152967085611"><ele>299.8</ele><time>2026-05-02T13:24:09.999Z</time></trkpt><trkpt lat="46.0029614257832" lon="8.9720063740149"><ele>296.6</ele><time>2026-05-02T13:24:10.999Z</time></trkpt><trkpt lat="46.002936655150215" lon="8.971864613674958"><ele>293.4</ele><time>2026-05-02T13:24:11.999Z</time></trkpt><trkpt lat="46.00291659355739" lon="8.971728163564212"><ele>290.2</ele><time>2026-05-02T13:24:12.999Z</time></trkpt><trkpt lat="46.002934135756696" lon="8.97158404242179"><ele>287.0</ele><time>2026-05-02T13:24:13.999Z</time></trkpt><trkpt lat="46.002962951550685" lon="8.97147581476286"><ele>285.0</ele><time>2026-05-02T13:24:14.999Z</time></trkpt><trkpt lat="46.00302268869605" lon="8.971369591707756"><ele>283.0</ele><time>2026-05-02T13:24:15.999Z</time></trkpt><trkpt lat="46.00310028777385" lon="8.971315103614774"><ele>281.0</ele><time>2026-05-02T13:24:16.999Z</time></trkpt><trkpt lat="46.00318541716539" lon="8.97127989422518"><ele>279.0</ele><time>2026-05-02T13:24:17.999Z</time></trkpt><trkpt lat="46.00328083576058" lon="8.971301544698477"><ele>277.0</ele><time>2026-05-02T13:24:18.999Z</time></trkpt><trkpt lat="46.00337706196086" lon="8.971308117846046"><ele>282.0</ele><time>2026-05-02T13:24:19.999Z</time></trkpt><trkpt lat="46.003488806691955" lon="8.971348846857335"><ele>287.0</ele><time>2026-05-02T13:24:20.999Z</time></trkpt><trkpt lat="46.00359183860431" lon="8.971377618303302"><ele>292.0</ele><time>2026-05-02T13:24:21.999Z</time></trkpt><trkpt lat="46.0036964280354" lon="8.971371069598577"><ele>297.0</ele><time>2026-05-02T13:24:22.999Z</time></trkpt><trkpt lat="46.0038246448164" lon="8.97133657158133"><ele>297.0</ele><time>2026-05-02T13:24:23.999Z</time></trkpt><trkpt lat="46.00392739290931" lon="8.971280476002583"><ele>297.0</ele><time>2026-05-02T13:24:24.999Z</time></trkpt><trkpt lat="46.004033898246874" lon="8.971207729661003"><ele>297.0</ele><time>2026-05-02T13:24:25.999Z</time></trkpt><trkpt lat="46.00413334424033" lon="8.971124360764444"><ele>297.0</ele><time>2026-05-02T13:24:26.999Z</time></trkpt><trkpt lat="46.00423776459089" lon="8.971023988212997"><ele>293.0</ele><time>2026-05-02T13:24:27.999Z</time></trkpt><trkpt lat="46.00433760767428" lon="8.970940456325922"><ele>289.0</ele><time>2026-05-02T13:24:28.999Z</time></trkpt><trkpt lat="46.004440427258004" lon="8.970866784268587"><ele>285.0</ele><time>2026-05-02T13:24:29.999Z</time></trkpt><trkpt lat="46.00454725708779" lon="8.970813442168728"><ele>281.0</ele><time>2026-05-02T13:24:30.999Z</time></trkpt><trkpt lat="46.00466023224577" lon="8.97079311940848"><ele>281.0</ele><time>2026-05-02T13:24:31.999Z</time></trkpt><trkpt lat="46.00477567945801" lon="8.970758469471466"><ele>281.0</ele><time>2026-05-02T13:24:32.999Z</time></trkpt><trkpt lat="46.004860997750214" lon="8.970748776442449"><ele>281.0</ele><time>2026-05-02T13:24:33.999Z</time></trkpt><trkpt lat="46.00495809822238" lon="8.970708597261613"><ele>281.0</ele><time>2026-05-02T13:24:34.999Z</time></trkpt><trkpt lat="46.00505744573364" lon="8.970629548460503"><ele>281.0</ele><time>2026-05-02T13:24:35.999Z</time></trkpt><trkpt lat="46.00515219361991" lon="8.970566654314728"><ele>279.8</ele><time>2026-05-02T13:24:36.999Z</time></trkpt><trkpt lat="46.00523916286747" lon="8.970501994124104"><ele>278.6</ele><time>2026-05-02T13:24:37.999Z</time></trkpt><trkpt lat="46.00532581009093" lon="8.970373196389307"><ele>277.4</ele><time>2026-05-02T13:24:38.999Z</time></trkpt><trkpt lat="46.005352879988585" lon="8.970236485792688"><ele>276.2</ele><time>2026-05-02T13:24:39.999Z</time></trkpt><trkpt lat="46.0053709405002" lon="8.970088631873905"><ele>275.0</ele><time>2026-05-02T13:24:40.999Z</time></trkpt><trkpt lat="46.00538909146575" lon="8.969934553691001"><ele>275.0</ele><time>2026-05-02T13:24:41.999Z</time></trkpt><trkpt lat="46.00540013312766" lon="8.969789724201329"><ele>275.0</ele><time>2026-05-02T13:24:42.999Z</time></trkpt><trkpt lat="46.00541791684514" lon="8.96962652582638"><ele>275.0</ele><time>2026-05-02T13:24:43.999Z</time></trkpt><trkpt lat="46.00543755485232" lon="8.969473899718235"><ele>275.0</ele><time>2026-05-02T13:24:44.999Z</time></trkpt><trkpt lat="46.00546602057676" lon="8.96931312211726"><ele>275.0</ele><time>2026-05-02T13:24:45.999Z</time></trkpt><trkpt lat="46.00549298845921" lon="8.96915950188832"><ele>274.8</ele><time>2026-05-02T13:24:46.999Z</time></trkpt><trkpt lat="46.005522487695686" lon="8.96900925475443"><ele>274.6</ele><time>2026-05-02T13:24:47.999Z</time></trkpt><trkpt lat="46.00556537728627" lon="8.968892988032259"><ele>274.4</ele><time>2026-05-02T13:24:48.999Z</time></trkpt><trkpt lat="46.00559783517654" lon="8.968740129585619"><ele>274.2</ele><time>2026-05-02T13:24:49.999Z</time></trkpt><trkpt lat="46.005624340819374" lon="8.968583946294409"><ele>274.0</ele><time>2026-05-02T13:24:50.999Z</time></trkpt><trkpt lat="46.00564785540507" lon="8.968429761269395"><ele>274.0</ele><time>2026-05-02T13:24:51.999Z</time></trkpt><trkpt lat="46.00567299049953" lon="8.96827635410611"><ele>274.0</ele><time>2026-05-02T13:24:52.999Z</time></trkpt><trkpt lat="46.00569465021804" lon="8.968112708527789"><ele>274.0</ele><time>2026-05-02T13:24:53.999Z</time></trkpt><trkpt lat="46.00570260507901" lon="8.96794868777188"><ele>274.0</ele><time>2026-05-02T13:24:54.999Z</time></trkpt><trkpt lat="46.00570256000622" lon="8.967793457261468"><ele>274.0</ele><time>2026-05-02T13:24:55.999Z</time></trkpt><trkpt lat="46.00570315434502" lon="8.967635279849407"><ele>274.4</ele><time>2026-05-02T13:24:56.999Z</time></trkpt><trkpt lat="46.0057160601265" lon="8.967479847368072"><ele>274.79999999999995</ele><time>2026-05-02T13:24:57.999Z</time></trkpt><trkpt lat="46.00572808128286" lon="8.967324757874907"><ele>275.20000000000005</ele><time>2026-05-02T13:24:58.999Z</time></trkpt><trkpt lat="46.00573527741598" lon="8.967168149790728"><ele>275.6</ele><time>2026-05-02T13:24:59.999Z</time></trkpt><trkpt lat="46.00574303317595" lon="8.967017445496797"><ele>276.0</ele><time>2026-05-02T13:25:00.999Z</time></trkpt><trkpt lat="46.00576629784174" lon="8.966866546105177"><ele>276.0</ele><time>2026-05-02T13:25:01.999Z</time></trkpt><trkpt lat="46.00578050448284" lon="8.966723404777303"><ele>276.0</ele><time>2026-05-02T13:25:02.999Z</time></trkpt><trkpt lat="46.00580430138921" lon="8.96658421591056"><ele>276.0</ele><time>2026-05-02T13:25:03.999Z</time></trkpt><trkpt lat="46.005853443092974" lon="8.966433852408663"><ele>276.0</ele><time>2026-05-02T13:25:05Z</time></trkpt><trkpt lat="46.00589615942101" lon="8.966298417343117"><ele>276.0</ele><time>2026-05-02T13:25:06Z</time></trkpt><trkpt lat="46.00592889029668" lon="8.96615506961379"><ele>276.2</ele><time>2026-05-02T13:25:07Z</time></trkpt><trkpt lat="46.00596742589057" lon="8.966010325440013"><ele>276.40000000000003</ele><time>2026-05-02T13:25:08Z</time></trkpt><trkpt lat="46.00600180855387" lon="8.965867176078183"><ele>276.6</ele><time>2026-05-02T13:25:09Z</time></trkpt><trkpt lat="46.00604259762536" lon="8.96572218214431"><ele>276.8</ele><time>2026-05-02T13:25:10Z</time></trkpt><trkpt lat="46.00608112276986" lon="8.965586091540919"><ele>277.0</ele><time>2026-05-02T13:25:11Z</time></trkpt><trkpt lat="46.006113334388395" lon="8.965450619452037"><ele>277.0</ele><time>2026-05-02T13:25:12Z</time></trkpt><trkpt lat="46.00614943534673" lon="8.965323025483306"><ele>277.0</ele><time>2026-05-02T13:25:13Z</time></trkpt><trkpt lat="46.0061809532457" lon="8.96520619194795"><ele>277.0</ele><time>2026-05-02T13:25:14Z</time></trkpt><trkpt lat="46.006209593639596" lon="8.965091607987386"><ele>277.0</ele><time>2026-05-02T13:25:15Z</time></trkpt><trkpt lat="46.00624096755663" lon="8.964982677259227"><ele>277.0</ele><time>2026-05-02T13:25:16Z</time></trkpt><trkpt lat="46.00626741384909" lon="8.964882920457718"><ele>277.0</ele><time>2026-05-02T13:25:17Z</time></trkpt><trkpt lat="46.00628767790275" lon="8.964790779884312"><ele>276.8333333333333</ele><time>2026-05-02T13:25:18Z</time></trkpt><trkpt lat="46.006318059583485" lon="8.96469886738737"><ele>276.66666666666663</ele><time>2026-05-02T13:25:19Z</time></trkpt><trkpt lat="46.00634709634554" lon="8.964538668466021"><ele>276.5</ele><time>2026-05-02T13:25:21Z</time></trkpt><trkpt lat="46.00633671384466" lon="8.964434048981598"><ele>276.3333333333333</ele><time>2026-05-02T13:25:22Z</time></trkpt><trkpt lat="46.00632284658668" lon="8.96431875846381"><ele>276.1666666666667</ele><time>2026-05-02T13:25:23Z</time></trkpt><trkpt lat="46.00630666454775" lon="8.964194868390642"><ele>276.0</ele><time>2026-05-02T13:25:24Z</time></trkpt><trkpt lat="46.00629194575996" lon="8.964067843780013"><ele>276.40000000000003</ele><time>2026-05-02T13:25:25Z</time></trkpt><trkpt lat="46.00628564001658" lon="8.96392282187706"><ele>276.8</ele><time>2026-05-02T13:25:26Z</time></trkpt><trkpt lat="46.00627377023442" lon="8.963784303331318"><ele>277.20000000000005</ele><time>2026-05-02T13:25:27Z</time></trkpt><trkpt lat="46.00626099452185" lon="8.963654286603864"><ele>277.6</ele><time>2026-05-02T13:25:28Z</time></trkpt><trkpt lat="46.006242961498415" lon="8.963518470663889"><ele>278.0</ele><time>2026-05-02T13:25:29Z</time></trkpt><trkpt lat="46.006225920707394" lon="8.96337879303258"><ele>278.2</ele><time>2026-05-02T13:25:30Z</time></trkpt><trkpt lat="46.00620926198558" lon="8.9632302441474"><ele>278.4</ele><time>2026-05-02T13:25:31Z</time></trkpt><trkpt lat="46.00619404595296" lon="8.963093248421519"><ele>278.59999999999997</ele><time>2026-05-02T13:25:32Z</time></trkpt><trkpt lat="46.00617198937941" lon="8.962954199853659"><ele>278.8</ele><time>2026-05-02T13:25:33Z</time></trkpt><trkpt lat="46.0061544349084" lon="8.962816902830118"><ele>279.0</ele><time>2026-05-02T13:25:34Z</time></trkpt><trkpt lat="46.0061420058326" lon="8.962680463440067"><ele>279.0</ele><time>2026-05-02T13:25:35Z</time></trkpt><trkpt lat="46.00612500181651" lon="8.962547840930565"><ele>279.0</ele><time>2026-05-02T13:25:36Z</time></trkpt><trkpt lat="46.00610531690364" lon="8.962419555749173"><ele>279.0</ele><time>2026-05-02T13:25:37Z</time></trkpt><trkpt lat="46.006082374127764" lon="8.962302267313156"><ele>279.0</ele><time>2026-05-02T13:25:38Z</time></trkpt><trkpt lat="46.00606347572823" lon="8.962204653724893"><ele>279.0</ele><time>2026-05-02T13:25:39Z</time></trkpt><trkpt lat="46.00604505142101" lon="8.962116552591667"><ele>279.0</ele><time>2026-05-02T13:25:40Z</time></trkpt><trkpt lat="46.006028194987884" lon="8.96202796724821"><ele>279.0</ele><time>2026-05-02T13:25:41Z</time></trkpt><trkpt lat="46.00600526240591" lon="8.961883974642573"><ele>279.0</ele><time>2026-05-02T13:25:43Z</time></trkpt><trkpt lat="46.006015538360046" lon="8.961788335857799"><ele>279.0</ele><time>2026-05-02T13:25:44Z</time></trkpt><trkpt lat="46.006007756642504" lon="8.96167381877468"><ele>279.0</ele><time>2026-05-02T13:25:47Z</time></trkpt><trkpt lat="46.00599011474458" lon="8.961538575520839"><ele>279.0</ele><time>2026-05-02T13:26:16Z</time></trkpt><trkpt lat="46.00598472639006" lon="8.961387298459234"><ele>279.0</ele><time>2026-05-02T13:26:17.999Z</time></trkpt><trkpt lat="46.005978840615384" lon="8.961275175426577"><ele>279.0</ele><time>2026-05-02T13:26:19.999Z</time></trkpt><trkpt lat="46.00604458297429" lon="8.961164238224747"><ele>279.0</ele><time>2026-05-02T13:26:21.999Z</time></trkpt><trkpt lat="46.00610021345512" lon="8.961121333382595"><ele>279.0</ele><time>2026-05-02T13:26:22.999Z</time></trkpt><trkpt lat="46.006167006785184" lon="8.961087664816022"><ele>279.0</ele><time>2026-05-02T13:26:23.999Z</time></trkpt><trkpt lat="46.00624510027402" lon="8.961057632537461"><ele>279.0</ele><time>2026-05-02T13:26:24.999Z</time></trkpt><trkpt lat="46.00630920529829" lon="8.96103476994302"><ele>279.0</ele><time>2026-05-02T13:26:25.999Z</time></trkpt><trkpt lat="46.00625467043971" lon="8.960945768719121"><ele>279.0</ele><time>2026-05-02T13:26:28.999Z</time></trkpt><trkpt lat="46.00616616906716" lon="8.960937953690157"><ele>279.0</ele><time>2026-05-02T13:26:29.999Z</time></trkpt><trkpt lat="46.00605086838335" lon="8.960908459825582"><ele>279.0</ele><time>2026-05-02T13:26:30.999Z</time></trkpt><trkpt lat="46.0067895442283" lon="8.960932652661013"><ele>279.4</ele><time>2026-05-02T13:26:31.999Z</time></trkpt><trkpt lat="46.00685775180014" lon="8.960914435231166"><ele>279.79999999999995</ele><time>2026-05-02T13:26:32.999Z</time></trkpt><trkpt lat="46.0069320944488" lon="8.960903250267714"><ele>280.20000000000005</ele><time>2026-05-02T13:26:33.999Z</time></trkpt><trkpt lat="46.007062030720064" lon="8.960908688858582"><ele>280.6</ele><time>2026-05-02T13:26:35.999Z</time></trkpt><trkpt lat="46.00717545365883" lon="8.960874979822844"><ele>281.0</ele><time>2026-05-02T13:26:37.999Z</time></trkpt><trkpt lat="46.00728090681621" lon="8.960857092321595"><ele>281.0</ele><time>2026-05-02T13:26:39.999Z</time></trkpt><trkpt lat="46.0073490299291" lon="8.960870621238152"><ele>281.0</ele><time>2026-05-02T13:26:40.999Z</time></trkpt><trkpt lat="46.007448654222706" lon="8.96083300482097"><ele>281.0</ele><time>2026-05-02T13:26:43.999Z</time></trkpt><trkpt lat="46.007514117503405" lon="8.960838450594203"><ele>281.0</ele><time>2026-05-02T13:26:45.999Z</time></trkpt><trkpt lat="46.00765099665473" lon="8.96082507910408"><ele>281.0</ele><time>2026-05-02T13:26:48.999Z</time></trkpt><trkpt lat="46.00773852825384" lon="8.960783766758565"><ele>281.2</ele><time>2026-05-02T13:27:58Z</time></trkpt><trkpt lat="46.00781687770619" lon="8.960757998319067"><ele>281.40000000000003</ele><time>2026-05-02T13:27:59Z</time></trkpt><trkpt lat="46.007935638322614" lon="8.96071102834371"><ele>281.6</ele><time>2026-05-02T13:28:01Z</time></trkpt><trkpt lat="46.00786957247706" lon="8.960588298747787"><ele>281.8</ele><time>2026-05-02T13:28:02Z</time></trkpt><trkpt lat="46.00784909945674" lon="8.960490797564127"><ele>282.0</ele><time>2026-05-02T13:28:03Z</time></trkpt><trkpt lat="46.00783396251889" lon="8.96039618483367"><ele>282.0</ele><time>2026-05-02T13:28:04Z</time></trkpt><trkpt lat="46.00781107629773" lon="8.960300353817468"><ele>282.0</ele><time>2026-05-02T13:28:05Z</time></trkpt><trkpt lat="46.00780589817297" lon="8.960150678059353"><ele>282.0</ele><time>2026-05-02T13:28:06Z</time></trkpt><trkpt lat="46.007813867205066" lon="8.960011106029311"><ele>282.0</ele><time>2026-05-02T13:28:07Z</time></trkpt><trkpt lat="46.007822412142595" lon="8.959885777252575"><ele>282.0</ele><time>2026-05-02T13:28:08Z</time></trkpt><trkpt lat="46.00784283369552" lon="8.959760156762215"><ele>282.0</ele><time>2026-05-02T13:28:09Z</time></trkpt><trkpt lat="46.00783332540528" lon="8.959609076292756"><ele>281.6</ele><time>2026-05-02T13:28:10Z</time></trkpt><trkpt lat="46.00783486457941" lon="8.959454638083802"><ele>281.2</ele><time>2026-05-02T13:28:11Z</time></trkpt><trkpt lat="46.00783516782137" lon="8.959288422056702"><ele>280.8</ele><time>2026-05-02T13:28:12Z</time></trkpt><trkpt lat="46.00785169090564" lon="8.959151841192185"><ele>280.4</ele><time>2026-05-02T13:28:13Z</time></trkpt><trkpt lat="46.00785680925907" lon="8.958999080529246"><ele>280.0</ele><time>2026-05-02T13:28:14Z</time></trkpt><trkpt lat="46.00786186462081" lon="8.958864601940414"><ele>280.0</ele><time>2026-05-02T13:28:15Z</time></trkpt><trkpt lat="46.00786834725429" lon="8.95873806708726"><ele>280.0</ele><time>2026-05-02T13:28:16Z</time></trkpt><trkpt lat="46.007877502440095" lon="8.958595443360803"><ele>280.0</ele><time>2026-05-02T13:28:17Z</time></trkpt><trkpt lat="46.007887907461225" lon="8.958449689087903"><ele>280.0</ele><time>2026-05-02T13:28:18Z</time></trkpt><trkpt lat="46.00789334378109" lon="8.958310070542844"><ele>280.0</ele><time>2026-05-02T13:28:19Z</time></trkpt><trkpt lat="46.00787905126886" lon="8.958157892210746"><ele>280.2</ele><time>2026-05-02T13:28:20Z</time></trkpt><trkpt lat="46.00788502291549" lon="8.958016493622956"><ele>280.4</ele><time>2026-05-02T13:28:21Z</time></trkpt><trkpt lat="46.007882455875915" lon="8.957878841363357"><ele>280.6</ele><time>2026-05-02T13:28:22Z</time></trkpt><trkpt lat="46.007885632486655" lon="8.957743313940723"><ele>280.8</ele><time>2026-05-02T13:28:23Z</time></trkpt><trkpt lat="46.00788891570686" lon="8.95760815060045"><ele>281.0</ele><time>2026-05-02T13:28:23.999Z</time></trkpt><trkpt lat="46.00788808578165" lon="8.957466721684744"><ele>281.8</ele><time>2026-05-02T13:28:24.999Z</time></trkpt><trkpt lat="46.0078896757232" lon="8.957329755597618"><ele>282.6</ele><time>2026-05-02T13:28:25.999Z</time></trkpt><trkpt lat="46.00788638694383" lon="8.957183241923302"><ele>283.4</ele><time>2026-05-02T13:28:26.999Z</time></trkpt><trkpt lat="46.00791127859778" lon="8.957044144961968"><ele>284.2</ele><time>2026-05-02T13:28:27.999Z</time></trkpt><trkpt lat="46.007926709673065" lon="8.956918831941676"><ele>285.0</ele><time>2026-05-02T13:28:28.999Z</time></trkpt><trkpt lat="46.007964715372" lon="8.956785286855867"><ele>284.4</ele><time>2026-05-02T13:28:29.999Z</time></trkpt><trkpt lat="46.008003859557114" lon="8.956650709172585"><ele>283.8</ele><time>2026-05-02T13:28:30.999Z</time></trkpt><trkpt lat="46.00803521554982" lon="8.956507725074605"><ele>283.2</ele><time>2026-05-02T13:28:31.999Z</time></trkpt><trkpt lat="46.00804973252983" lon="8.956362561842491"><ele>282.6</ele><time>2026-05-02T13:28:32.999Z</time></trkpt><trkpt lat="46.00806126549839" lon="8.956245898015283"><ele>282.0</ele><time>2026-05-02T13:28:33.999Z</time></trkpt><trkpt lat="46.00808209824829" lon="8.95613893210087"><ele>282.0</ele><time>2026-05-02T13:28:34.999Z</time></trkpt><trkpt lat="46.0080757379582" lon="8.955992314164654"><ele>282.0</ele><time>2026-05-02T13:28:35.999Z</time></trkpt><trkpt lat="46.00809165834789" lon="8.95587039438944"><ele>282.0</ele><time>2026-05-02T13:28:36.999Z</time></trkpt><trkpt lat="46.00809711520652" lon="8.955745927424775"><ele>282.0</ele><time>2026-05-02T13:28:37.999Z</time></trkpt><trkpt lat="46.00810533060514" lon="8.955613826811014"><ele>282.0</ele><time>2026-05-02T13:28:38.999Z</time></trkpt><trkpt lat="46.00808892007726" lon="8.955469140613781"><ele>281.8</ele><time>2026-05-02T13:28:39.999Z</time></trkpt><trkpt lat="46.00807800806104" lon="8.955323312037828"><ele>281.6</ele><time>2026-05-02T13:28:40.999Z</time></trkpt><trkpt lat="46.008068964839644" lon="8.955186000719078"><ele>281.40000000000003</ele><time>2026-05-02T13:28:41.999Z</time></trkpt><trkpt lat="46.00805974324801" lon="8.955044143751978"><ele>281.2</ele><time>2026-05-02T13:28:42.999Z</time></trkpt><trkpt lat="46.00804035360156" lon="8.954892754437129"><ele>281.0</ele><time>2026-05-02T13:28:43.999Z</time></trkpt><trkpt lat="46.00804095032426" lon="8.95474924964391"><ele>281.0</ele><time>2026-05-02T13:28:44.999Z</time></trkpt><trkpt lat="46.008055528243766" lon="8.954600360873458"><ele>281.0</ele><time>2026-05-02T13:28:45.999Z</time></trkpt><trkpt lat="46.0080466455154" lon="8.954490329643619"><ele>281.0</ele><time>2026-05-02T13:28:46.999Z</time></trkpt><trkpt lat="46.00805115303325" lon="8.95438597648858"><ele>281.0</ele><time>2026-05-02T13:28:47.999Z</time></trkpt><trkpt lat="46.00805973121214" lon="8.954250143369379"><ele>281.0</ele><time>2026-05-02T13:28:48.999Z</time></trkpt><trkpt lat="46.00803807090603" lon="8.95411515283881"><ele>281.0</ele><time>2026-05-02T13:28:49.999Z</time></trkpt><trkpt lat="46.007999746265526" lon="8.953951019592301"><ele>281.33333333333337</ele><time>2026-05-02T13:28:50.999Z</time></trkpt><trkpt lat="46.00799667435226" lon="8.953807334383477"><ele>281.6666666666667</ele><time>2026-05-02T13:28:51.999Z</time></trkpt><trkpt lat="46.00800241668396" lon="8.953688406199955"><ele>282.0</ele><time>2026-05-02T13:28:52.999Z</time></trkpt><trkpt lat="46.00800441762483" lon="8.95357395481174"><ele>282.3333333333333</ele><time>2026-05-02T13:28:53.999Z</time></trkpt><trkpt lat="46.007992605958336" lon="8.953447327059987"><ele>282.66666666666663</ele><time>2026-05-02T13:28:54.999Z</time></trkpt><trkpt lat="46.0080025464632" lon="8.953337137198014"><ele>283.0</ele><time>2026-05-02T13:28:55.999Z</time></trkpt><trkpt lat="46.008007383433345" lon="8.953239120531245"><ele>283.0</ele><time>2026-05-02T13:28:56.999Z</time></trkpt><trkpt lat="46.008014839686375" lon="8.953066797357623"><ele>283.0</ele><time>2026-05-02T13:28:58.999Z</time></trkpt><trkpt lat="46.008025345881435" lon="8.952940791162474"><ele>283.0</ele><time>2026-05-02T13:29:00.999Z</time></trkpt><trkpt lat="46.00795414946642" lon="8.952887736450537"><ele>283.0</ele><time>2026-05-02T13:29:02.999Z</time></trkpt><trkpt lat="46.00795677649534" lon="8.95277300106854"><ele>283.0</ele><time>2026-05-02T13:29:39Z</time></trkpt><trkpt lat="46.00797218174162" lon="8.952577628877098"><ele>281.5</ele><time>2026-05-02T13:29:41Z</time></trkpt><trkpt lat="46.00796409422049" lon="8.952414955605944"><ele>280.0</ele><time>2026-05-02T13:29:43Z</time></trkpt><trkpt lat="46.00816877564486" lon="8.951811663725747"><ele>280.0</ele><time>2026-05-02T13:29:45Z</time></trkpt><trkpt lat="46.00820293796045" lon="8.951718594693727"><ele>280.0</ele><time>2026-05-02T13:29:46Z</time></trkpt><trkpt lat="46.00823524089009" lon="8.951630591071828"><ele>280.0</ele><time>2026-05-02T13:29:47Z</time></trkpt><trkpt lat="46.0082673522855" lon="8.951538585330324"><ele>280.0</ele><time>2026-05-02T13:29:48Z</time></trkpt><trkpt lat="46.008303170637234" lon="8.951430683608422"><ele>280.0</ele><time>2026-05-02T13:29:49Z</time></trkpt><trkpt lat="46.008333805889016" lon="8.951338399255775"><ele>280.0</ele><time>2026-05-02T13:29:50Z</time></trkpt><trkpt lat="46.00836965429023" lon="8.951232179059797"><ele>281.16666666666663</ele><time>2026-05-02T13:29:51Z</time></trkpt><trkpt lat="46.008405693153584" lon="8.951145688975807"><ele>282.3333333333333</ele><time>2026-05-02T13:29:52Z</time></trkpt><trkpt lat="46.008464915395734" lon="8.95107099145001"><ele>283.5</ele><time>2026-05-02T13:29:53Z</time></trkpt><trkpt lat="46.00853204633254" lon="8.951042736249432"><ele>284.6666666666667</ele><time>2026-05-02T13:29:54Z</time></trkpt><trkpt lat="46.00862623988238" lon="8.951076338841627"><ele>285.83333333333337</ele><time>2026-05-02T13:29:55Z</time></trkpt><trkpt lat="46.00870608256603" lon="8.951050993833366"><ele>287.0</ele><time>2026-05-02T13:29:56Z</time></trkpt><trkpt lat="46.00878922821105" lon="8.951067666495241"><ele>287.0</ele><time>2026-05-02T13:29:57Z</time></trkpt><trkpt lat="46.00886485358431" lon="8.951066952873568"><ele>287.0</ele><time>2026-05-02T13:29:58Z</time></trkpt><trkpt lat="46.008962034699216" lon="8.951042455663146"><ele>287.0</ele><time>2026-05-02T13:29:59Z</time></trkpt><trkpt lat="46.009050704947654" lon="8.95103438312083"><ele>287.0</ele><time>2026-05-02T13:30:00Z</time></trkpt><trkpt lat="46.00915277288063" lon="8.951009354777163"><ele>287.0</ele><time>2026-05-02T13:30:01Z</time></trkpt><trkpt lat="46.00926737945601" lon="8.950972882140707"><ele>287.6</ele><time>2026-05-02T13:30:02Z</time></trkpt><trkpt lat="46.0093772951226" lon="8.95094962707167"><ele>288.2</ele><time>2026-05-02T13:30:03Z</time></trkpt><trkpt lat="46.009457764762665" lon="8.950939890589137"><ele>288.8</ele><time>2026-05-02T13:30:04Z</time></trkpt><trkpt lat="46.00956011352166" lon="8.950928647181328"><ele>289.4</ele><time>2026-05-02T13:30:05Z</time></trkpt><trkpt lat="46.009647592441496" lon="8.950925246000997"><ele>290.0</ele><time>2026-05-02T13:30:06Z</time></trkpt><trkpt lat="46.009721592516975" lon="8.950927051433473"><ele>290.0</ele><time>2026-05-02T13:30:07Z</time></trkpt><trkpt lat="46.00979867128342" lon="8.950900940706656"><ele>290.0</ele><time>2026-05-02T13:30:08Z</time></trkpt><trkpt lat="46.00986712592764" lon="8.950899206201617"><ele>290.0</ele><time>2026-05-02T13:30:09Z</time></trkpt><trkpt lat="46.009971041810736" lon="8.950919954174333"><ele>290.0</ele><time>2026-05-02T13:30:11Z</time></trkpt><trkpt lat="46.01009591760624" lon="8.950929157669059"><ele>290.0</ele><time>2026-05-02T13:30:13Z</time></trkpt><trkpt lat="46.01018345052252" lon="8.95099033018406"><ele>290.14285714285717</ele><time>2026-05-02T13:30:14Z</time></trkpt><trkpt lat="46.010253577728186" lon="8.951023237326586"><ele>290.28571428571433</ele><time>2026-05-02T13:30:15Z</time></trkpt><trkpt lat="46.01031906384076" lon="8.95105427773079"><ele>290.42857142857144</ele><time>2026-05-02T13:30:16Z</time></trkpt><trkpt lat="46.01037345526369" lon="8.951102029093482"><ele>290.57142857142856</ele><time>2026-05-02T13:30:17Z</time></trkpt><trkpt lat="46.01043764349807" lon="8.951115947721222"><ele>290.71428571428567</ele><time>2026-05-02T13:30:19Z</time></trkpt><trkpt lat="46.010531626112154" lon="8.95115128460134"><ele>290.85714285714283</ele><time>2026-05-02T13:30:22Z</time></trkpt><trkpt lat="46.01059044858126" lon="8.951095716095182"><ele>291.0</ele><time>2026-05-02T13:30:24Z</time></trkpt><trkpt lat="46.01057711734573" lon="8.950932453191816"><ele>293.2</ele><time>2026-05-02T13:30:26Z</time></trkpt><trkpt lat="46.01052415952021" lon="8.950862851744933"><ele>295.40000000000003</ele><time>2026-05-02T13:30:27Z</time></trkpt><trkpt lat="46.0104445590606" lon="8.95077260811956"><ele>297.6</ele><time>2026-05-02T13:30:28Z</time></trkpt><trkpt lat="46.01034785901561" lon="8.950674578743032"><ele>299.8</ele><time>2026-05-02T13:30:29Z</time></trkpt><trkpt lat="46.01025736997779" lon="8.950566154901175"><ele>302.0</ele><time>2026-05-02T13:30:30Z</time></trkpt><trkpt lat="46.01017604976838" lon="8.950503696138467"><ele>302.0</ele><time>2026-05-02T13:30:31Z</time></trkpt><trkpt lat="46.010087738423834" lon="8.95043988054411"><ele>302.0</ele><time>2026-05-02T13:30:32Z</time></trkpt><trkpt lat="46.00999086001865" lon="8.950408932808212"><ele>302.0</ele><time>2026-05-02T13:30:33Z</time></trkpt><trkpt lat="46.00993000118825" lon="8.950321643907198"><ele>302.0</ele><time>2026-05-02T13:30:34Z</time></trkpt><trkpt lat="46.00986747538206" lon="8.950235550096842"><ele>302.0</ele><time>2026-05-02T13:30:35Z</time></trkpt><trkpt lat="46.00978393146963" lon="8.950146709497966"><ele>302.75</ele><time>2026-05-02T13:30:36Z</time></trkpt><trkpt lat="46.009683113103115" lon="8.950067687724397"><ele>303.5</ele><time>2026-05-02T13:30:37Z</time></trkpt><trkpt lat="46.00956105021053" lon="8.950012347236177"><ele>304.25</ele><time>2026-05-02T13:30:38Z</time></trkpt><trkpt lat="46.0094294035481" lon="8.950020383232742"><ele>305.0</ele><time>2026-05-02T13:30:39Z</time></trkpt><trkpt lat="46.00930463709145" lon="8.949984439917626"><ele>305.0</ele><time>2026-05-02T13:30:40Z</time></trkpt><trkpt lat="46.009196935601786" lon="8.949933996063066"><ele>305.0</ele><time>2026-05-02T13:30:41Z</time></trkpt><trkpt lat="46.00910350204026" lon="8.949883545510257"><ele>305.0</ele><time>2026-05-02T13:30:42Z</time></trkpt><trkpt lat="46.00901427835533" lon="8.949823247900454"><ele>305.0</ele><time>2026-05-02T13:30:43Z</time></trkpt><trkpt lat="46.00891798809838" lon="8.949733297105068"><ele>305.0</ele><time>2026-05-02T13:30:44Z</time></trkpt><trkpt lat="46.008832734895876" lon="8.949618493566788"><ele>305.0</ele><time>2026-05-02T13:30:45Z</time></trkpt><trkpt lat="46.008772848104485" lon="8.949499569296433"><ele>305.0</ele><time>2026-05-02T13:30:46Z</time></trkpt><trkpt lat="46.008697340951166" lon="8.949380767935924"><ele>305.0</ele><time>2026-05-02T13:30:47Z</time></trkpt><trkpt lat="46.008578170110844" lon="8.949194101617431"><ele>305.0</ele><time>2026-05-02T13:30:48Z</time></trkpt><trkpt lat="46.00847108361945" lon="8.949039406387943"><ele>305.75</ele><time>2026-05-02T13:30:49Z</time></trkpt><trkpt lat="46.00837456333765" lon="8.948904673150802"><ele>306.5</ele><time>2026-05-02T13:30:50Z</time></trkpt><trkpt lat="46.00828219641407" lon="8.948757210074929"><ele>307.25</ele><time>2026-05-02T13:30:51Z</time></trkpt><trkpt lat="46.008195128511275" lon="8.948603380846517"><ele>308.0</ele><time>2026-05-02T13:30:52Z</time></trkpt><trkpt lat="46.00813082447209" lon="8.948451887788902"><ele>309.25</ele><time>2026-05-02T13:30:53Z</time></trkpt><trkpt lat="46.00808461849117" lon="8.94830131926148"><ele>310.5</ele><time>2026-05-02T13:30:54Z</time></trkpt><trkpt lat="46.00809889196042" lon="8.94811590031382"><ele>311.75</ele><time>2026-05-02T13:30:55Z</time></trkpt><trkpt lat="46.00807867748434" lon="8.947938870591548"><ele>313.0</ele><time>2026-05-02T13:30:56Z</time></trkpt><trkpt lat="46.008039902595826" lon="8.947809992843263"><ele>313.0</ele><time>2026-05-02T13:30:57Z</time></trkpt><trkpt lat="46.0079855816745" lon="8.94767654870784"><ele>313.0</ele><time>2026-05-02T13:30:58Z</time></trkpt><trkpt lat="46.00790257479226" lon="8.947581637468996"><ele>313.0</ele><time>2026-05-02T13:30:59Z</time></trkpt><trkpt lat="46.007803580989474" lon="8.947490280927164"><ele>313.0</ele><time>2026-05-02T13:31:00Z</time></trkpt><trkpt lat="46.00770098765609" lon="8.947405242979332"><ele>313.0</ele><time>2026-05-02T13:31:01Z</time></trkpt><trkpt lat="46.007605970790124" lon="8.9473424680581"><ele>314.0</ele><time>2026-05-02T13:31:02Z</time></trkpt><trkpt lat="46.00752084423025" lon="8.947273867349077"><ele>315.0</ele><time>2026-05-02T13:31:03Z</time></trkpt><trkpt lat="46.007436298746434" lon="8.947206678122281"><ele>316.0</ele><time>2026-05-02T13:31:04Z</time></trkpt><trkpt lat="46.00736168676681" lon="8.947152703223603"><ele>317.0</ele><time>2026-05-02T13:31:05Z</time></trkpt><trkpt lat="46.00730131364532" lon="8.947095106818765"><ele>318.0</ele><time>2026-05-02T13:31:06Z</time></trkpt><trkpt lat="46.00724444202355" lon="8.94705022166303"><ele>319.0</ele><time>2026-05-02T13:31:07Z</time></trkpt><trkpt lat="46.00722815017732" lon="8.946929142102999"><ele>319.0</ele><time>2026-05-02T13:31:08Z</time></trkpt><trkpt lat="46.007188741057305" lon="8.946810521567935"><ele>319.0</ele><time>2026-05-02T13:31:09Z</time></trkpt><trkpt lat="46.00715441377042" lon="8.946694072597278"><ele>319.0</ele><time>2026-05-02T13:31:10Z</time></trkpt><trkpt lat="46.00712525995695" lon="8.94657195097386"><ele>319.0</ele><time>2026-05-02T13:31:11Z</time></trkpt><trkpt lat="46.00710588578401" lon="8.946449080868785"><ele>319.0</ele><time>2026-05-02T13:31:12Z</time></trkpt><trkpt lat="46.007080903018" lon="8.946322505760653"><ele>319.0</ele><time>2026-05-02T13:31:13Z</time></trkpt><trkpt lat="46.00705472125174" lon="8.946190172008464"><ele>324.0</ele><time>2026-05-02T13:31:14.019Z</time></trkpt><trkpt lat="46.00702987974116" lon="8.946062110462279"><ele>329.0</ele><time>2026-05-02T13:31:15.015Z</time></trkpt><trkpt lat="46.006637117629836" lon="8.946309922424687"><ele>332.0</ele><time>2026-05-02T13:31:16.172Z</time></trkpt><trkpt lat="46.006932359269015" lon="8.9458593701556"><ele>335.0</ele><time>2026-05-02T13:31:17.018Z</time></trkpt><trkpt lat="46.00689808313998" lon="8.945733541897193"><ele>335.0</ele><time>2026-05-02T13:31:18.02Z</time></trkpt><trkpt lat="46.00689589981549" lon="8.945433022462712"><ele>335.0</ele><time>2026-05-02T13:31:19.999Z</time></trkpt><trkpt lat="46.00686727756291" lon="8.945347360737308"><ele>335.0</ele><time>2026-05-02T13:31:20.999Z</time></trkpt><trkpt lat="46.00681505486885" lon="8.945295302842622"><ele>335.0</ele><time>2026-05-02T13:31:21.999Z</time></trkpt><trkpt lat="46.0067540511983" lon="8.945214647658553"><ele>335.0</ele><time>2026-05-02T13:31:22.999Z</time></trkpt><trkpt lat="46.0066932406963" lon="8.945144379936126"><ele>336.1666666666667</ele><time>2026-05-02T13:31:23.999Z</time></trkpt><trkpt lat="46.00662796325517" lon="8.945103569666447"><ele>337.33333333333337</ele><time>2026-05-02T13:31:24.999Z</time></trkpt><trkpt lat="46.006553138361916" lon="8.945078736433148"><ele>338.5</ele><time>2026-05-02T13:31:25.999Z</time></trkpt><trkpt lat="46.006470927278684" lon="8.945090338400155"><ele>339.6666666666667</ele><time>2026-05-02T13:31:26.999Z</time></trkpt><trkpt lat="46.00638811237284" lon="8.945116990723747"><ele>340.8333333333333</ele><time>2026-05-02T13:31:27.999Z</time></trkpt><trkpt lat="46.006296866515" lon="8.94514780614494"><ele>342.0</ele><time>2026-05-02T13:31:28.999Z</time></trkpt><trkpt lat="46.006215398458345" lon="8.945160542345066"><ele>342.0</ele><time>2026-05-02T13:31:29.999Z</time></trkpt><trkpt lat="46.00614465212429" lon="8.945161517848613"><ele>342.0</ele><time>2026-05-02T13:31:30.999Z</time></trkpt><trkpt lat="46.00607401171141" lon="8.945167701368693"><ele>342.0</ele><time>2026-05-02T13:31:31.999Z</time></trkpt><trkpt lat="46.00600800240876" lon="8.945194774136485"><ele>342.0</ele><time>2026-05-02T13:31:32.999Z</time></trkpt><trkpt lat="46.00593873129466" lon="8.94522102786277"><ele>342.0</ele><time>2026-05-02T13:31:34.999Z</time></trkpt><trkpt lat="46.00599266916503" lon="8.945403382398103"><ele>342.0</ele><time>2026-05-02T13:31:35.999Z</time></trkpt><trkpt lat="46.005981413102496" lon="8.945533134983332"><ele>342.0</ele><time>2026-05-02T13:31:36.999Z</time></trkpt><trkpt lat="46.005915808283845" lon="8.945615153107756"><ele>342.0</ele><time>2026-05-02T13:31:37.999Z</time></trkpt><trkpt lat="46.00580945095094" lon="8.945607056631456"><ele>342.0</ele><time>2026-05-02T13:31:38.999Z</time></trkpt><trkpt lat="46.00574455548104" lon="8.945600292374662"><ele>342.0</ele><time>2026-05-02T13:31:39.999Z</time></trkpt><trkpt lat="46.0056864486729" lon="8.94554918801858"><ele>342.0</ele><time>2026-05-02T13:31:40.999Z</time></trkpt><trkpt lat="46.00565434464908" lon="8.9454644208676"><ele>342.0</ele><time>2026-05-02T13:31:41.999Z</time></trkpt><trkpt lat="46.00568130203003" lon="8.94533668406874"><ele>342.6666666666667</ele><time>2026-05-02T13:31:43Z</time></trkpt><trkpt lat="46.00567337507884" lon="8.945198884237778"><ele>343.3333333333333</ele><time>2026-05-02T13:31:45Z</time></trkpt><trkpt lat="46.00564753415404" lon="8.945097178332762"><ele>344.0</ele><time>2026-05-02T13:31:47Z</time></trkpt><trkpt lat="46.005631247264596" lon="8.944987307759078"><ele>344.66666666666663</ele><time>2026-05-02T13:31:51Z</time></trkpt><trkpt lat="46.005629255102704" lon="8.944891893823051"><ele>345.3333333333333</ele><time>2026-05-02T13:31:53Z</time></trkpt><trkpt lat="46.00560667486038" lon="8.944750351697559"><ele>346.0</ele><time>2026-05-02T13:31:55Z</time></trkpt><trkpt lat="46.00556176153343" lon="8.944610500793273"><ele>346.16666666666663</ele><time>2026-05-02T13:31:57Z</time></trkpt><trkpt lat="46.005529008298595" lon="8.94449641733072"><ele>346.3333333333333</ele><time>2026-05-02T13:31:58Z</time></trkpt><trkpt lat="46.00548309938934" lon="8.94441128669379"><ele>346.5</ele><time>2026-05-02T13:31:59Z</time></trkpt><trkpt lat="46.00543782277554" lon="8.944329630719102"><ele>346.6666666666667</ele><time>2026-05-02T13:32:00Z</time></trkpt><trkpt lat="46.0053920050809" lon="8.944236291672897"><ele>346.83333333333337</ele><time>2026-05-02T13:32:01Z</time></trkpt><trkpt lat="46.00534325753303" lon="8.944137343405222"><ele>347.0</ele><time>2026-05-02T13:32:02Z</time></trkpt><trkpt lat="46.0052769415656" lon="8.944049548918942"><ele>347.0</ele><time>2026-05-02T13:32:03Z</time></trkpt><trkpt lat="46.00522895461161" lon="8.943960353879378"><ele>347.0</ele><time>2026-05-02T13:32:04Z</time></trkpt><trkpt lat="46.00517493317236" lon="8.943890302557683"><ele>347.0</ele><time>2026-05-02T13:32:05Z</time></trkpt><trkpt lat="46.00513721763748" lon="8.943800798795095"><ele>347.0</ele><time>2026-05-02T13:32:06Z</time></trkpt><trkpt lat="46.00508539294616" lon="8.943678045369534"><ele>347.0</ele><time>2026-05-02T13:32:07Z</time></trkpt><trkpt lat="46.00505283162474" lon="8.943562182483163"><ele>347.0</ele><time>2026-05-02T13:32:08Z</time></trkpt><trkpt lat="46.00503260473995" lon="8.943429144571962"><ele>346.8</ele><time>2026-05-02T13:32:09Z</time></trkpt><trkpt lat="46.00502268911257" lon="8.943294764813858"><ele>346.6</ele><time>2026-05-02T13:32:10Z</time></trkpt><trkpt lat="46.005027624100464" lon="8.943145381848934"><ele>346.40000000000003</ele><time>2026-05-02T13:32:11Z</time></trkpt><trkpt lat="46.00502095335628" lon="8.942993256041662"><ele>346.20000000000005</ele><time>2026-05-02T13:32:12Z</time></trkpt><trkpt lat="46.005003236101395" lon="8.942857006974695"><ele>346.0</ele><time>2026-05-02T13:32:13Z</time></trkpt><trkpt lat="46.00497570643507" lon="8.942729685661709"><ele>345.6</ele><time>2026-05-02T13:32:14Z</time></trkpt><trkpt lat="46.00494743996375" lon="8.942595940605544"><ele>345.20000000000005</ele><time>2026-05-02T13:32:15Z</time></trkpt><trkpt lat="46.00491092414158" lon="8.942474691060703"><ele>344.79999999999995</ele><time>2026-05-02T13:32:16Z</time></trkpt><trkpt lat="46.00485466076745" lon="8.942367291086809"><ele>344.4</ele><time>2026-05-02T13:32:17Z</time></trkpt><trkpt lat="46.004772046826815" lon="8.942271635675613"><ele>344.0</ele><time>2026-05-02T13:32:18Z</time></trkpt><trkpt lat="46.004703416556595" lon="8.942178841277157"><ele>344.0</ele><time>2026-05-02T13:32:19Z</time></trkpt><trkpt lat="46.00463066679097" lon="8.942087065527183"><ele>344.0</ele><time>2026-05-02T13:32:20Z</time></trkpt><trkpt lat="46.00455737647363" lon="8.941998864605168"><ele>344.0</ele><time>2026-05-02T13:32:21Z</time></trkpt><trkpt lat="46.00448127264018" lon="8.941916897129122"><ele>344.0</ele><time>2026-05-02T13:32:22Z</time></trkpt><trkpt lat="46.00440179552338" lon="8.941817343731163"><ele>344.0</ele><time>2026-05-02T13:32:23Z</time></trkpt><trkpt lat="46.00431553162554" lon="8.941723402039013"><ele>345.2</ele><time>2026-05-02T13:32:24Z</time></trkpt><trkpt lat="46.00420540728786" lon="8.941653557257355"><ele>346.4</ele><time>2026-05-02T13:32:25Z</time></trkpt><trkpt lat="46.004104364194895" lon="8.941589166479943"><ele>347.6</ele><time>2026-05-02T13:32:26Z</time></trkpt><trkpt lat="46.00400937145895" lon="8.941553156368236"><ele>348.8</ele><time>2026-05-02T13:32:27Z</time></trkpt><trkpt lat="46.00389988289983" lon="8.941522255126491"><ele>350.0</ele><time>2026-05-02T13:32:28Z</time></trkpt><trkpt lat="46.003786683122726" lon="8.941489721229056"><ele>350.33333333333337</ele><time>2026-05-02T13:32:29Z</time></trkpt><trkpt lat="46.00362963304637" lon="8.941444185299819"><ele>350.6666666666667</ele><time>2026-05-02T13:32:30Z</time></trkpt><trkpt lat="46.003412235601736" lon="8.941382122265418"><ele>351.0</ele><time>2026-05-02T13:32:31Z</time></trkpt><trkpt lat="46.00331784209833" lon="8.941356023762365"><ele>352.8</ele><time>2026-05-02T13:32:33Z</time></trkpt><trkpt lat="46.00321492547846" lon="8.941340256696469"><ele>354.6</ele><time>2026-05-02T13:32:34Z</time></trkpt><trkpt lat="46.00312835744197" lon="8.941358354625194"><ele>356.4</ele><time>2026-05-02T13:32:35Z</time></trkpt><trkpt lat="46.00304148909562" lon="8.941405477254488"><ele>358.2</ele><time>2026-05-02T13:32:36Z</time></trkpt><trkpt lat="46.00296616832994" lon="8.94147990433093"><ele>360.0</ele><time>2026-05-02T13:32:37Z</time></trkpt><trkpt lat="46.00288885245238" lon="8.941582810066722"><ele>360.0</ele><time>2026-05-02T13:32:38Z</time></trkpt><trkpt lat="46.002820517237275" lon="8.94169774410792"><ele>360.0</ele><time>2026-05-02T13:32:39Z</time></trkpt><trkpt lat="46.002745287649134" lon="8.94181802398333"><ele>360.0</ele><time>2026-05-02T13:32:40Z</time></trkpt><trkpt lat="46.002676354245324" lon="8.941927427191139"><ele>360.0</ele><time>2026-05-02T13:32:41Z</time></trkpt><trkpt lat="46.00260749834625" lon="8.94202479957958"><ele>360.0</ele><time>2026-05-02T13:32:42Z</time></trkpt><trkpt lat="46.00253860504642" lon="8.942097590344256"><ele>357.6666666666667</ele><time>2026-05-02T13:32:43Z</time></trkpt><trkpt lat="46.002458994487625" lon="8.942143066361533"><ele>355.3333333333333</ele><time>2026-05-02T13:32:44Z</time></trkpt><trkpt lat="46.002379124716434" lon="8.942159646591612"><ele>353.0</ele><time>2026-05-02T13:32:45Z</time></trkpt><trkpt lat="46.00229300890661" lon="8.942131550168174"><ele>350.66666666666663</ele><time>2026-05-02T13:32:46Z</time></trkpt><trkpt lat="46.00220616589124" lon="8.94210174954418"><ele>348.3333333333333</ele><time>2026-05-02T13:32:47Z</time></trkpt><trkpt lat="46.00213044852424" lon="8.94202670125595"><ele>346.0</ele><time>2026-05-02T13:32:48Z</time></trkpt><trkpt lat="46.00206146049559" lon="8.941932321456592"><ele>346.0</ele><time>2026-05-02T13:32:49Z</time></trkpt><trkpt lat="46.00199279573578" lon="8.941841282856933"><ele>346.0</ele><time>2026-05-02T13:32:50Z</time></trkpt><trkpt lat="46.001917740207084" lon="8.941740515067288"><ele>346.0</ele><time>2026-05-02T13:32:51Z</time></trkpt><trkpt lat="46.00184326825366" lon="8.941626256770606"><ele>346.0</ele><time>2026-05-02T13:32:52Z</time></trkpt><trkpt lat="46.001786957984905" lon="8.94151868314364"><ele>346.0</ele><time>2026-05-02T13:32:53Z</time></trkpt><trkpt lat="46.001737261011336" lon="8.941386606371525"><ele>347.6</ele><time>2026-05-02T13:32:54Z</time></trkpt><trkpt lat="46.00168854194542" lon="8.941269588900605"><ele>349.20000000000005</ele><time>2026-05-02T13:32:55Z</time></trkpt><trkpt lat="46.001648105781776" lon="8.941097569706796"><ele>350.79999999999995</ele><time>2026-05-02T13:32:56Z</time></trkpt><trkpt lat="46.00160837847155" lon="8.940961016165037"><ele>352.4</ele><time>2026-05-02T13:32:57Z</time></trkpt><trkpt lat="46.001564215833575" lon="8.940826237068086"><ele>354.0</ele><time>2026-05-02T13:32:58Z</time></trkpt><trkpt lat="46.001519569607325" lon="8.940690826157814"><ele>355.0</ele><time>2026-05-02T13:32:59Z</time></trkpt><trkpt lat="46.00148844892758" lon="8.940535656432788"><ele>356.0</ele><time>2026-05-02T13:33:00Z</time></trkpt><trkpt lat="46.00146821092629" lon="8.940388400930333"><ele>357.0</ele><time>2026-05-02T13:33:01Z</time></trkpt><trkpt lat="46.00144997679396" lon="8.940221815947508"><ele>358.0</ele><time>2026-05-02T13:33:02Z</time></trkpt><trkpt lat="46.001422924097874" lon="8.940068017247585"><ele>359.0</ele><time>2026-05-02T13:33:03Z</time></trkpt><trkpt lat="46.00139352480568" lon="8.939915926919745"><ele>359.79999999999995</ele><time>2026-05-02T13:33:04Z</time></trkpt><trkpt lat="46.001364099263974" lon="8.939762189363128"><ele>360.59999999999997</ele><time>2026-05-02T13:33:05Z</time></trkpt><trkpt lat="46.0013299295372" lon="8.939616412683339"><ele>361.4</ele><time>2026-05-02T13:33:06Z</time></trkpt><trkpt lat="46.0012799456121" lon="8.939510419578113"><ele>362.2</ele><time>2026-05-02T13:33:07Z</time></trkpt><trkpt lat="46.001193738111255" lon="8.939450256110236"><ele>363.0</ele><time>2026-05-02T13:33:08Z</time></trkpt><trkpt lat="46.00113639426269" lon="8.939326525525505"><ele>363.0</ele><time>2026-05-02T13:33:09Z</time></trkpt><trkpt lat="46.00103642498486" lon="8.939271510793473"><ele>363.0</ele><time>2026-05-02T13:33:10Z</time></trkpt><trkpt lat="46.00089912011704" lon="8.939447920711201"><ele>363.0</ele><time>2026-05-02T13:33:11Z</time></trkpt><trkpt lat="46.00080915643594" lon="8.939526646148526"><ele>363.0</ele><time>2026-05-02T13:33:12Z</time></trkpt><trkpt lat="46.00073724169871" lon="8.939623319261488"><ele>363.1666666666667</ele><time>2026-05-02T13:33:13Z</time></trkpt><trkpt lat="46.000674915035425" lon="8.939726933503382"><ele>363.3333333333333</ele><time>2026-05-02T13:33:14Z</time></trkpt><trkpt lat="46.00061711482822" lon="8.939798455500219"><ele>363.5</ele><time>2026-05-02T13:33:15Z</time></trkpt><trkpt lat="46.000555037826366" lon="8.939906400699439"><ele>363.66666666666663</ele><time>2026-05-02T13:33:16Z</time></trkpt><trkpt lat="46.0004978489457" lon="8.940002954052993"><ele>363.8333333333333</ele><time>2026-05-02T13:33:17Z</time></trkpt><trkpt lat="46.00044311787526" lon="8.94008367243018"><ele>364.0</ele><time>2026-05-02T13:33:18Z</time></trkpt><trkpt lat="46.000386836767724" lon="8.940153174460301"><ele>364.0</ele><time>2026-05-02T13:33:19Z</time></trkpt><trkpt lat="46.00032718482021" lon="8.94021238315817"><ele>364.0</ele><time>2026-05-02T13:33:20Z</time></trkpt><trkpt lat="46.0002588195495" lon="8.94026499842616"><ele>364.0</ele><time>2026-05-02T13:33:21Z</time></trkpt><trkpt lat="46.000184157223416" lon="8.940304375878714"><ele>364.0</ele><time>2026-05-02T13:33:22Z</time></trkpt><trkpt lat="46.00011743477699" lon="8.940342708615903"><ele>364.0</ele><time>2026-05-02T13:33:23Z</time></trkpt><trkpt lat="46.000032576213435" lon="8.940338773948543"><ele>364.0</ele><time>2026-05-02T13:33:24Z</time></trkpt><trkpt lat="45.99995235742993" lon="8.940308739463699"><ele>364.0</ele><time>2026-05-02T13:33:25Z</time></trkpt><trkpt lat="45.99987201003443" lon="8.940246921488813"><ele>364.0</ele><time>2026-05-02T13:33:26Z</time></trkpt><trkpt lat="45.99979732606333" lon="8.940168298981918"><ele>364.0</ele><time>2026-05-02T13:33:27Z</time></trkpt><trkpt lat="45.99972464113069" lon="8.940109044477039"><ele>364.0</ele><time>2026-05-02T13:33:28Z</time></trkpt><trkpt lat="45.99964354794025" lon="8.940040045329335"><ele>364.0</ele><time>2026-05-02T13:33:29Z</time></trkpt><trkpt lat="45.999552753937216" lon="8.939970741142714"><ele>363.5</ele><time>2026-05-02T13:33:30Z</time></trkpt><trkpt lat="45.999460792145925" lon="8.939888426869299"><ele>363.0</ele><time>2026-05-02T13:33:31Z</time></trkpt><trkpt lat="45.99935427410415" lon="8.939813661788879"><ele>362.5</ele><time>2026-05-02T13:33:32Z</time></trkpt><trkpt lat="45.999252473011204" lon="8.939725780958245"><ele>362.0</ele><time>2026-05-02T13:33:33Z</time></trkpt><trkpt lat="45.999139812175954" lon="8.939617636972246"><ele>362.0</ele><time>2026-05-02T13:33:34Z</time></trkpt><trkpt lat="45.999026645169764" lon="8.939519490825798"><ele>362.0</ele><time>2026-05-02T13:33:35Z</time></trkpt><trkpt lat="45.99892223444496" lon="8.93943501279935"><ele>362.0</ele><time>2026-05-02T13:33:36Z</time></trkpt><trkpt lat="45.99884014015082" lon="8.939349579140838"><ele>362.0</ele><time>2026-05-02T13:33:37Z</time></trkpt><trkpt lat="45.99873094764517" lon="8.93926237667513"><ele>363.0</ele><time>2026-05-02T13:33:38Z</time></trkpt><trkpt lat="45.99861946414957" lon="8.939166019433692"><ele>364.0</ele><time>2026-05-02T13:33:39Z</time></trkpt><trkpt lat="45.998510280262956" lon="8.939063643017061"><ele>365.0</ele><time>2026-05-02T13:33:40Z</time></trkpt><trkpt lat="45.99839053822045" lon="8.938967041594134"><ele>366.0</ele><time>2026-05-02T13:33:41Z</time></trkpt><trkpt lat="45.99826282961165" lon="8.93887752789526"><ele>366.0</ele><time>2026-05-02T13:33:42Z</time></trkpt><trkpt lat="45.99813057756876" lon="8.93878299372527"><ele>366.0</ele><time>2026-05-02T13:33:43Z</time></trkpt><trkpt lat="45.998016048577874" lon="8.938687089610237"><ele>366.0</ele><time>2026-05-02T13:33:44Z</time></trkpt><trkpt lat="45.99790598871854" lon="8.938616454772808"><ele>366.0</ele><time>2026-05-02T13:33:45Z</time></trkpt><trkpt lat="45.99780798925865" lon="8.9385525746371"><ele>366.0</ele><time>2026-05-02T13:33:46Z</time></trkpt><trkpt lat="45.997698747050066" lon="8.938502389682725"><ele>366.0</ele><time>2026-05-02T13:33:47Z</time></trkpt><trkpt lat="45.99758493444596" lon="8.93844723708185"><ele>366.0</ele><time>2026-05-02T13:33:48Z</time></trkpt><trkpt lat="45.997480648248406" lon="8.938370510485028"><ele>366.0</ele><time>2026-05-02T13:33:49Z</time></trkpt><trkpt lat="45.99738654896046" lon="8.938273243753022"><ele>366.8</ele><time>2026-05-02T13:33:50Z</time></trkpt><trkpt lat="45.99729888911243" lon="8.93815499201421"><ele>367.6</ele><time>2026-05-02T13:33:51Z</time></trkpt><trkpt lat="45.99722589178918" lon="8.938019583331668"><ele>368.4</ele><time>2026-05-02T13:33:52Z</time></trkpt><trkpt lat="45.99718481925049" lon="8.937880564272781"><ele>369.2</ele><time>2026-05-02T13:33:53Z</time></trkpt><trkpt lat="45.99714741111801" lon="8.93775514439645"><ele>370.0</ele><time>2026-05-02T13:33:54Z</time></trkpt><trkpt lat="45.99711571740538" lon="8.937623687382114"><ele>371.0</ele><time>2026-05-02T13:33:55Z</time></trkpt><trkpt lat="45.99708651980861" lon="8.93749937215748"><ele>372.0</ele><time>2026-05-02T13:33:56Z</time></trkpt><trkpt lat="45.99708484732133" lon="8.937372568958448"><ele>373.0</ele><time>2026-05-02T13:33:57Z</time></trkpt><trkpt lat="45.997048470342804" lon="8.937209775572418"><ele>374.0</ele><time>2026-05-02T13:33:59Z</time></trkpt><trkpt lat="45.997020496518296" lon="8.93707760716102"><ele>375.0</ele><time>2026-05-02T13:34:01Z</time></trkpt><trkpt lat="45.99700040444816" lon="8.93697296557099"><ele>375.0</ele><time>2026-05-02T13:34:03Z</time></trkpt><trkpt lat="45.996969568164204" lon="8.93688695412054"><ele>375.0</ele><time>2026-05-02T13:34:47Z</time></trkpt><trkpt lat="45.99694449156118" lon="8.936772926955204"><ele>375.0</ele><time>2026-05-02T13:34:49Z</time></trkpt><trkpt lat="45.996914711999324" lon="8.93666231860603"><ele>375.0</ele><time>2026-05-02T13:34:50Z</time></trkpt><trkpt lat="45.99689383411175" lon="8.936562928316512"><ele>375.0</ele><time>2026-05-02T13:34:51Z</time></trkpt><trkpt lat="45.99686159989754" lon="8.936396005803806"><ele>375.0</ele><time>2026-05-02T13:34:53Z</time></trkpt><trkpt lat="45.996834225942585" lon="8.936269724799988"><ele>376.0</ele><time>2026-05-02T13:34:54Z</time></trkpt><trkpt lat="45.99680786601427" lon="8.936145995530067"><ele>377.0</ele><time>2026-05-02T13:34:55Z</time></trkpt><trkpt lat="45.99679320304922" lon="8.936021002219112"><ele>378.0</ele><time>2026-05-02T13:34:56Z</time></trkpt><trkpt lat="45.99677810338292" lon="8.935923212279452"><ele>379.0</ele><time>2026-05-02T13:34:57Z</time></trkpt><trkpt lat="45.99675914885068" lon="8.935815024672488"><ele>380.0</ele><time>2026-05-02T13:34:58Z</time></trkpt><trkpt lat="45.996721549770456" lon="8.93563708006332"><ele>381.33333333333337</ele><time>2026-05-02T13:35:00Z</time></trkpt><trkpt lat="45.99673005287326" lon="8.935536169066337"><ele>382.6666666666667</ele><time>2026-05-02T13:35:01Z</time></trkpt><trkpt lat="45.99669969291589" lon="8.935441776754187"><ele>384.0</ele><time>2026-05-02T13:35:02Z</time></trkpt><trkpt lat="45.99669701594165" lon="8.935329972274594"><ele>385.33333333333337</ele><time>2026-05-02T13:35:03Z</time></trkpt><trkpt lat="45.99670021778587" lon="8.93522225130956"><ele>386.6666666666667</ele><time>2026-05-02T13:35:04Z</time></trkpt><trkpt lat="45.99670289147139" lon="8.935099646334885"><ele>388.0</ele><time>2026-05-02T13:35:05Z</time></trkpt><trkpt lat="45.99670037171123" lon="8.934986846767739"><ele>388.25</ele><time>2026-05-02T13:35:06Z</time></trkpt><trkpt lat="45.99662142481111" lon="8.934847465953958"><ele>388.5</ele><time>2026-05-02T13:35:08Z</time></trkpt><trkpt lat="45.99668959434066" lon="8.934598563940279"><ele>388.75</ele><time>2026-05-02T13:35:09Z</time></trkpt><trkpt lat="45.9966861237294" lon="8.93444501440771"><ele>389.0</ele><time>2026-05-02T13:35:10Z</time></trkpt><trkpt lat="45.99668097865217" lon="8.934286137668206"><ele>384.5</ele><time>2026-05-02T13:35:11Z</time></trkpt><trkpt lat="45.996657513526635" lon="8.934122242891258"><ele>380.0</ele><time>2026-05-02T13:35:12Z</time></trkpt><trkpt lat="45.996634900612726" lon="8.93394340829539"><ele>375.5</ele><time>2026-05-02T13:35:13Z</time></trkpt><trkpt lat="45.996605111426945" lon="8.933747249469667"><ele>371.0</ele><time>2026-05-02T13:35:14Z</time></trkpt><trkpt lat="45.996558127830234" lon="8.933557320230458"><ele>367.5</ele><time>2026-05-02T13:35:15Z</time></trkpt><trkpt lat="45.99649102182787" lon="8.933366838609938"><ele>364.0</ele><time>2026-05-02T13:35:16Z</time></trkpt><trkpt lat="45.996420990001475" lon="8.933184074161359"><ele>360.5</ele><time>2026-05-02T13:35:17Z</time></trkpt><trkpt lat="45.996343145709" lon="8.932991187983845"><ele>357.0</ele><time>2026-05-02T13:35:18Z</time></trkpt><trkpt lat="45.99627947519395" lon="8.932796186387714"><ele>357.0</ele><time>2026-05-02T13:35:19Z</time></trkpt><trkpt lat="45.99620859578628" lon="8.932600159957913"><ele>357.0</ele><time>2026-05-02T13:35:20Z</time></trkpt><trkpt lat="45.99613894148763" lon="8.932420273937156"><ele>357.0</ele><time>2026-05-02T13:35:21Z</time></trkpt><trkpt lat="45.996069964720704" lon="8.932231951245923"><ele>357.0</ele><time>2026-05-02T13:35:22Z</time></trkpt><trkpt lat="45.99600333984167" lon="8.932043917846062"><ele>357.6666666666667</ele><time>2026-05-02T13:35:23Z</time></trkpt><trkpt lat="45.995929133324125" lon="8.931848209938062"><ele>358.33333333333337</ele><time>2026-05-02T13:35:24Z</time></trkpt><trkpt lat="45.995860412899795" lon="8.931657708172425"><ele>359.0</ele><time>2026-05-02T13:35:25Z</time></trkpt><trkpt lat="45.99578632596537" lon="8.93147513552577"><ele>359.0</ele><time>2026-05-02T13:35:26Z</time></trkpt><trkpt lat="45.99570530421831" lon="8.931277803728042"><ele>359.0</ele><time>2026-05-02T13:35:27Z</time></trkpt><trkpt lat="45.99561609780288" lon="8.931092785982244"><ele>359.0</ele><time>2026-05-02T13:35:28Z</time></trkpt><trkpt lat="45.995519399940136" lon="8.930907534121337"><ele>355.0</ele><time>2026-05-02T13:35:29Z</time></trkpt><trkpt lat="45.99540965473209" lon="8.930729717664205"><ele>351.0</ele><time>2026-05-02T13:35:30Z</time></trkpt><trkpt lat="45.99524945599798" lon="8.930572550098734"><ele>347.0</ele><time>2026-05-02T13:35:31Z</time></trkpt><trkpt lat="45.995108084661275" lon="8.930428947909668"><ele>353.6666666666667</ele><time>2026-05-02T13:35:32Z</time></trkpt><trkpt lat="45.99498210028597" lon="8.930300039323065"><ele>360.3333333333333</ele><time>2026-05-02T13:35:33Z</time></trkpt><trkpt lat="45.99484798678129" lon="8.93018082739594"><ele>367.0</ele><time>2026-05-02T13:35:34Z</time></trkpt><trkpt lat="45.994705821143704" lon="8.930069794320213"><ele>361.0</ele><time>2026-05-02T13:35:35Z</time></trkpt><trkpt lat="45.99457708314627" lon="8.929954992432423"><ele>355.0</ele><time>2026-05-02T13:35:36Z</time></trkpt><trkpt lat="45.99446818434486" lon="8.929790367370847"><ele>349.0</ele><time>2026-05-02T13:35:37Z</time></trkpt><trkpt lat="45.99435090028166" lon="8.92963296443753"><ele>349.0</ele><time>2026-05-02T13:35:38Z</time></trkpt><trkpt lat="45.99423405540714" lon="8.92944882635447"><ele>349.0</ele><time>2026-05-02T13:35:39Z</time></trkpt><trkpt lat="45.9941297080085" lon="8.929255485321232"><ele>349.0</ele><time>2026-05-02T13:35:40Z</time></trkpt><trkpt lat="45.99406009059185" lon="8.929049154253805"><ele>351.66666666666663</ele><time>2026-05-02T13:35:41Z</time></trkpt><trkpt lat="45.993989925957955" lon="8.92883643901375"><ele>354.3333333333333</ele><time>2026-05-02T13:35:42Z</time></trkpt><trkpt lat="45.993927969853175" lon="8.928627803201362"><ele>357.0</ele><time>2026-05-02T13:35:43Z</time></trkpt><trkpt lat="45.993878956537195" lon="8.928396160497627"><ele>354.6666666666667</ele><time>2026-05-02T13:35:44Z</time></trkpt><trkpt lat="45.99384281485025" lon="8.928178138488366"><ele>352.33333333333337</ele><time>2026-05-02T13:35:45Z</time></trkpt><trkpt lat="45.993815758012914" lon="8.927970893640536"><ele>350.0</ele><time>2026-05-02T13:35:46Z</time></trkpt><trkpt lat="45.993788136458285" lon="8.927759007992243"><ele>350.0</ele><time>2026-05-02T13:35:47Z</time></trkpt><trkpt lat="45.99374982388359" lon="8.92756834503582"><ele>350.0</ele><time>2026-05-02T13:35:48Z</time></trkpt><trkpt lat="45.993705993008426" lon="8.92739009621095"><ele>350.0</ele><time>2026-05-02T13:35:49Z</time></trkpt><trkpt lat="45.993662334429594" lon="8.927226795084275"><ele>350.0</ele><time>2026-05-02T13:35:50Z</time></trkpt><trkpt lat="45.99362774628625" lon="8.927054504803325"><ele>348.75</ele><time>2026-05-02T13:35:51Z</time></trkpt><trkpt lat="45.99359697417204" lon="8.926876850495372"><ele>347.5</ele><time>2026-05-02T13:35:52Z</time></trkpt><trkpt lat="45.993567825910866" lon="8.92671876606343"><ele>346.25</ele><time>2026-05-02T13:35:53Z</time></trkpt><trkpt lat="45.99354313675618" lon="8.92655782402403"><ele>345.0</ele><time>2026-05-02T13:35:54Z</time></trkpt><trkpt lat="45.99351823517671" lon="8.926379481216562"><ele>344.75</ele><time>2026-05-02T13:35:55Z</time></trkpt><trkpt lat="45.99348445980628" lon="8.926202759565413"><ele>344.5</ele><time>2026-05-02T13:35:56Z</time></trkpt><trkpt lat="45.993454351733995" lon="8.926044031022544"><ele>344.25</ele><time>2026-05-02T13:35:57Z</time></trkpt><trkpt lat="45.993432966800356" lon="8.925876202923611"><ele>344.0</ele><time>2026-05-02T13:35:58Z</time></trkpt><trkpt lat="45.99340765179448" lon="8.92571230216998"><ele>343.79999999999995</ele><time>2026-05-02T13:35:59Z</time></trkpt><trkpt lat="45.99337082277467" lon="8.92555207893046"><ele>343.59999999999997</ele><time>2026-05-02T13:36:00Z</time></trkpt><trkpt lat="45.99334119886704" lon="8.925410645142296"><ele>343.4</ele><time>2026-05-02T13:36:01Z</time></trkpt><trkpt lat="45.99331328326209" lon="8.925268164834808"><ele>343.2</ele><time>2026-05-02T13:36:02Z</time></trkpt><trkpt lat="45.9932840915305" lon="8.925128798933656"><ele>343.0</ele><time>2026-05-02T13:36:03Z</time></trkpt><trkpt lat="45.9932533967005" lon="8.924997822524233"><ele>343.3333333333333</ele><time>2026-05-02T13:36:04Z</time></trkpt><trkpt lat="45.99322719439474" lon="8.924863736992462"><ele>343.66666666666663</ele><time>2026-05-02T13:36:05Z</time></trkpt><trkpt lat="45.99320295805342" lon="8.924760869096552"><ele>344.0</ele><time>2026-05-02T13:36:06Z</time></trkpt><trkpt lat="45.99316526043198" lon="8.924594549584903"><ele>344.3333333333333</ele><time>2026-05-02T13:36:08Z</time></trkpt><trkpt lat="45.99314492889868" lon="8.924505042595278"><ele>344.6666666666667</ele><time>2026-05-02T13:36:09Z</time></trkpt><trkpt lat="45.99312009931195" lon="8.924400796081386"><ele>345.0</ele><time>2026-05-02T13:36:11Z</time></trkpt><trkpt lat="45.993070732174104" lon="8.924265636471358"><ele>345.1666666666667</ele><time>2026-05-02T13:36:14Z</time></trkpt><trkpt lat="45.993079123013565" lon="8.924156940556214"><ele>345.3333333333333</ele><time>2026-05-02T13:36:15Z</time></trkpt><trkpt lat="45.99310573662788" lon="8.92404979322422"><ele>345.5</ele><time>2026-05-02T13:36:16Z</time></trkpt><trkpt lat="45.99311986823403" lon="8.923951874920489"><ele>345.66666666666663</ele><time>2026-05-02T13:36:17Z</time></trkpt><trkpt lat="45.99307170980758" lon="8.923786457766742"><ele>345.8333333333333</ele><time>2026-05-02T13:36:19Z</time></trkpt><trkpt lat="45.993048894070384" lon="8.923688743437696"><ele>346.0</ele><time>2026-05-02T13:36:20Z</time></trkpt><trkpt lat="45.99305830165581" lon="8.923504583152123"><ele>346.25</ele><time>2026-05-02T13:36:21Z</time></trkpt><trkpt lat="45.993042637256025" lon="8.9233417354952"><ele>346.5</ele><time>2026-05-02T13:36:22Z</time></trkpt><trkpt lat="45.993084053667815" lon="8.923180445867963"><ele>346.75</ele><time>2026-05-02T13:36:23Z</time></trkpt><trkpt lat="45.99310939460643" lon="8.922988123126084"><ele>347.0</ele><time>2026-05-02T13:36:24Z</time></trkpt><trkpt lat="45.99312619799875" lon="8.922785071844531"><ele>347.0</ele><time>2026-05-02T13:36:25Z</time></trkpt><trkpt lat="45.99315395510724" lon="8.92257802981915"><ele>347.0</ele><time>2026-05-02T13:36:26Z</time></trkpt><trkpt lat="45.99317289544027" lon="8.922372827195499"><ele>347.0</ele><time>2026-05-02T13:36:27Z</time></trkpt><trkpt lat="45.993218912895905" lon="8.922140500659632"><ele>347.0</ele><time>2026-05-02T13:36:28Z</time></trkpt><trkpt lat="45.99326855579687" lon="8.92193401042315"><ele>347.0</ele><time>2026-05-02T13:36:29Z</time></trkpt><trkpt lat="45.99331549119134" lon="8.921732755602712"><ele>347.0</ele><time>2026-05-02T13:36:30Z</time></trkpt><trkpt lat="45.99335455448029" lon="8.921535208492664"><ele>347.0</ele><time>2026-05-02T13:36:31Z</time></trkpt><trkpt lat="45.99338705759525" lon="8.921345290923382"><ele>346.75</ele><time>2026-05-02T13:36:32Z</time></trkpt><trkpt lat="45.99341263827447" lon="8.921160411669904"><ele>346.5</ele><time>2026-05-02T13:36:33Z</time></trkpt><trkpt lat="45.99343944427576" lon="8.920968921277144"><ele>346.25</ele><time>2026-05-02T13:36:34Z</time></trkpt><trkpt lat="45.993451444499165" lon="8.92078241258378"><ele>346.0</ele><time>2026-05-02T13:36:35Z</time></trkpt><trkpt lat="45.99345402488079" lon="8.920596554317347"><ele>345.0</ele><time>2026-05-02T13:36:36Z</time></trkpt><trkpt lat="45.993444724479104" lon="8.920419483701673"><ele>344.0</ele><time>2026-05-02T13:36:37Z</time></trkpt><trkpt lat="45.99344706253504" lon="8.920239882077848"><ele>343.0</ele><time>2026-05-02T13:36:38Z</time></trkpt><trkpt lat="45.993428625192664" lon="8.920074736676884"><ele>342.0</ele><time>2026-05-02T13:36:39Z</time></trkpt><trkpt lat="45.99339837602712" lon="8.91988890805711"><ele>341.0</ele><time>2026-05-02T13:36:40Z</time></trkpt><trkpt lat="45.993374375276815" lon="8.9197158249506"><ele>340.0</ele><time>2026-05-02T13:36:41Z</time></trkpt><trkpt lat="45.993345006120656" lon="8.919544524782435"><ele>339.0</ele><time>2026-05-02T13:36:42Z</time></trkpt><trkpt lat="45.993325577747974" lon="8.919367354943917"><ele>338.0</ele><time>2026-05-02T13:36:43Z</time></trkpt><trkpt lat="45.99330255654401" lon="8.91919447656914"><ele>337.25</ele><time>2026-05-02T13:36:44Z</time></trkpt><trkpt lat="45.993282043939566" lon="8.919026827527128"><ele>336.5</ele><time>2026-05-02T13:36:45Z</time></trkpt><trkpt lat="45.99326080569255" lon="8.918854674214046"><ele>335.75</ele><time>2026-05-02T13:36:46Z</time></trkpt><trkpt lat="45.993262243147626" lon="8.9186600561643"><ele>335.0</ele><time>2026-05-02T13:36:47Z</time></trkpt><trkpt lat="45.99328623192013" lon="8.918501809487111"><ele>333.25</ele><time>2026-05-02T13:36:48Z</time></trkpt><trkpt lat="45.99330029889735" lon="8.91831115460242"><ele>331.5</ele><time>2026-05-02T13:36:49Z</time></trkpt><trkpt lat="45.9933148100536" lon="8.918134410532794"><ele>329.75</ele><time>2026-05-02T13:36:50Z</time></trkpt><trkpt lat="45.99334229007768" lon="8.917949259805344"><ele>328.0</ele><time>2026-05-02T13:36:51Z</time></trkpt><trkpt lat="45.99337637144675" lon="8.917773561315812"><ele>327.75</ele><time>2026-05-02T13:36:52Z</time></trkpt><trkpt lat="45.99341365286831" lon="8.917604402486607"><ele>327.5</ele><time>2026-05-02T13:36:53Z</time></trkpt><trkpt lat="45.99345123847571" lon="8.917431347041969"><ele>327.25</ele><time>2026-05-02T13:36:54Z</time></trkpt><trkpt lat="45.99350806050903" lon="8.91725197941078"><ele>327.0</ele><time>2026-05-02T13:36:55Z</time></trkpt><trkpt lat="45.99357007656082" lon="8.917087206475829"><ele>323.75</ele><time>2026-05-02T13:36:56Z</time></trkpt><trkpt lat="45.99363257021926" lon="8.916932147329817"><ele>320.5</ele><time>2026-05-02T13:36:57Z</time></trkpt><trkpt lat="45.9936992877556" lon="8.916793666654085"><ele>317.25</ele><time>2026-05-02T13:36:58Z</time></trkpt><trkpt lat="45.99378546102178" lon="8.91665801315711"><ele>314.0</ele><time>2026-05-02T13:36:59Z</time></trkpt><trkpt lat="45.99387408505359" lon="8.916518437483006"><ele>312.5</ele><time>2026-05-02T13:37:00Z</time></trkpt><trkpt lat="45.99396597397234" lon="8.91638996115395"><ele>311.0</ele><time>2026-05-02T13:37:01Z</time></trkpt><trkpt lat="45.99406027478555" lon="8.916263526673376"><ele>309.5</ele><time>2026-05-02T13:37:02Z</time></trkpt><trkpt lat="45.99416724002402" lon="8.916142235535153"><ele>308.0</ele><time>2026-05-02T13:37:03Z</time></trkpt><trkpt lat="45.99428284155425" lon="8.916033026924564"><ele>308.0</ele><time>2026-05-02T13:37:04Z</time></trkpt><trkpt lat="45.99441434775657" lon="8.91592910141186"><ele>308.0</ele><time>2026-05-02T13:37:05Z</time></trkpt><trkpt lat="45.99454375731786" lon="8.915839560719467"><ele>308.0</ele><time>2026-05-02T13:37:06Z</time></trkpt><trkpt lat="45.99467785178828" lon="8.915770186981636"><ele>308.0</ele><time>2026-05-02T13:37:07Z</time></trkpt><trkpt lat="45.99480432978426" lon="8.915711932074865"><ele>307.25</ele><time>2026-05-02T13:37:08Z</time></trkpt><trkpt lat="45.994932869746414" lon="8.915665009963634"><ele>306.5</ele><time>2026-05-02T13:37:09Z</time></trkpt><trkpt lat="45.99506609269381" lon="8.91562034464304"><ele>305.75</ele><time>2026-05-02T13:37:10Z</time></trkpt><trkpt lat="45.99520192718247" lon="8.91558685713714"><ele>305.0</ele><time>2026-05-02T13:37:11Z</time></trkpt><trkpt lat="45.995329461679" lon="8.915576060723229"><ele>305.25</ele><time>2026-05-02T13:37:12Z</time></trkpt><trkpt lat="45.995466260118704" lon="8.915565393116923"><ele>305.5</ele><time>2026-05-02T13:37:13Z</time></trkpt><trkpt lat="45.99561252947337" lon="8.915547770100572"><ele>305.75</ele><time>2026-05-02T13:37:14Z</time></trkpt><trkpt lat="45.99575432888541" lon="8.91554515925971"><ele>306.0</ele><time>2026-05-02T13:37:15Z</time></trkpt><trkpt lat="45.99588013597428" lon="8.915534973295584"><ele>306.0</ele><time>2026-05-02T13:37:16Z</time></trkpt><trkpt lat="45.99600338337813" lon="8.915525224204643"><ele>306.0</ele><time>2026-05-02T13:37:17Z</time></trkpt><trkpt lat="45.99610990855369" lon="8.9155661235254"><ele>306.0</ele><time>2026-05-02T13:37:18Z</time></trkpt><trkpt lat="45.996179356846945" lon="8.91555799412886"><ele>306.0</ele><time>2026-05-02T13:37:19Z</time></trkpt><trkpt lat="45.99627253541541" lon="8.915558628671569"><ele>306.0</ele><time>2026-05-02T13:37:20Z</time></trkpt><trkpt lat="45.99637174101483" lon="8.915552739942111"><ele>306.0</ele><time>2026-05-02T13:37:21Z</time></trkpt><trkpt lat="45.99645070452674" lon="8.915554325405921"><ele>306.0</ele><time>2026-05-02T13:37:22Z</time></trkpt><trkpt lat="45.99653097283768" lon="8.915548683708522"><ele>306.0</ele><time>2026-05-02T13:37:23Z</time></trkpt><trkpt lat="45.996628085223314" lon="8.915542816351552"><ele>306.0</ele><time>2026-05-02T13:37:25Z</time></trkpt><trkpt lat="45.996716152008815" lon="8.915530856380302"><ele>306.0</ele><time>2026-05-02T13:37:27Z</time></trkpt><trkpt lat="45.99679550507362" lon="8.915507668076527"><ele>306.0</ele><time>2026-05-02T13:37:29Z</time></trkpt><trkpt lat="45.99688439307753" lon="8.915465807882244"><ele>306.0</ele><time>2026-05-02T13:37:31Z</time></trkpt><trkpt lat="45.9969522050571" lon="8.91542705701616"><ele>306.0</ele><time>2026-05-02T13:37:32Z</time></trkpt><trkpt lat="45.99701581275499" lon="8.915387604467856"><ele>306.0</ele><time>2026-05-02T13:37:33Z</time></trkpt><trkpt lat="45.997086802756925" lon="8.91534708216723"><ele>306.0</ele><time>2026-05-02T13:37:34Z</time></trkpt><trkpt lat="45.99714752954631" lon="8.9153009280599"><ele>306.0</ele><time>2026-05-02T13:37:35Z</time></trkpt><trkpt lat="45.997202533087766" lon="8.915255546193492"><ele>306.0</ele><time>2026-05-02T13:37:36Z</time></trkpt><trkpt lat="45.99727137143124" lon="8.915190593513888"><ele>306.0</ele><time>2026-05-02T13:37:38Z</time></trkpt><trkpt lat="45.997331268936406" lon="8.915132494459739"><ele>303.40000000000003</ele><time>2026-05-02T13:38:08Z</time></trkpt><trkpt lat="45.997428544779936" lon="8.915015688613797"><ele>300.8</ele><time>2026-05-02T13:38:10Z</time></trkpt><trkpt lat="45.99749253891166" lon="8.914913384451964"><ele>298.20000000000005</ele><time>2026-05-02T13:38:11Z</time></trkpt><trkpt lat="45.99755169899914" lon="8.914777394309661"><ele>295.6</ele><time>2026-05-02T13:38:12Z</time></trkpt><trkpt lat="45.99760371485848" lon="8.914638768194251"><ele>293.0</ele><time>2026-05-02T13:38:13Z</time></trkpt><trkpt lat="45.99765238803498" lon="8.914493727280682"><ele>293.0</ele><time>2026-05-02T13:38:14Z</time></trkpt><trkpt lat="45.997696699810604" lon="8.914346114104383"><ele>293.0</ele><time>2026-05-02T13:38:15Z</time></trkpt><trkpt lat="45.99771868192566" lon="8.914219939320082"><ele>293.0</ele><time>2026-05-02T13:38:16Z</time></trkpt><trkpt lat="45.99774636904635" lon="8.914065838786048"><ele>293.0</ele><time>2026-05-02T13:38:18Z</time></trkpt><trkpt lat="45.99759973471753" lon="8.913962495309562"><ele>289.5</ele><time>2026-05-02T13:38:19Z</time></trkpt><trkpt lat="45.99748031674661" lon="8.913914083167928"><ele>286.0</ele><time>2026-05-02T13:38:20Z</time></trkpt><trkpt lat="45.99734373226107" lon="8.91391558914486"><ele>282.5</ele><time>2026-05-02T13:38:21Z</time></trkpt><trkpt lat="45.997194424554245" lon="8.913985034962753"><ele>279.0</ele><time>2026-05-02T13:38:22Z</time></trkpt><trkpt lat="45.99707578487297" lon="8.914121273021701"><ele>277.0</ele><time>2026-05-02T13:38:23Z</time></trkpt><trkpt lat="45.99765633535022" lon="8.912634749421064"><ele>277.0</ele><time>2026-05-02T13:38:24Z</time></trkpt><trkpt lat="45.9976011879987" lon="8.912448453594578"><ele>277.0</ele><time>2026-05-02T13:38:25Z</time></trkpt><trkpt lat="45.99755693097145" lon="8.91226761067588"><ele>277.0</ele><time>2026-05-02T13:38:26Z</time></trkpt><trkpt lat="45.99751327341524" lon="8.912073166373315"><ele>277.0</ele><time>2026-05-02T13:38:27Z</time></trkpt><trkpt lat="45.99747137580491" lon="8.911880831162403"><ele>276.5</ele><time>2026-05-02T13:38:28Z</time></trkpt><trkpt lat="45.997432952725326" lon="8.911677732344543"><ele>276.0</ele><time>2026-05-02T13:38:29Z</time></trkpt><trkpt lat="45.99740338574845" lon="8.91147027996432"><ele>275.5</ele><time>2026-05-02T13:38:30Z</time></trkpt><trkpt lat="45.99739036769949" lon="8.911272687227504"><ele>275.0</ele><time>2026-05-02T13:38:31Z</time></trkpt><trkpt lat="45.99738619703844" lon="8.911061640035962"><ele>274.75</ele><time>2026-05-02T13:38:32Z</time></trkpt><trkpt lat="45.99738336870982" lon="8.910846808866527"><ele>274.5</ele><time>2026-05-02T13:38:33Z</time></trkpt><trkpt lat="45.997381221408915" lon="8.910632268698137"><ele>274.25</ele><time>2026-05-02T13:38:34Z</time></trkpt><trkpt lat="45.99739248164569" lon="8.910418251510924"><ele>274.0</ele><time>2026-05-02T13:38:35Z</time></trkpt><trkpt lat="45.99740920051546" lon="8.910218358240723"><ele>274.5</ele><time>2026-05-02T13:38:36Z</time></trkpt><trkpt lat="45.99743084729875" lon="8.910024060055386"><ele>275.0</ele><time>2026-05-02T13:38:37Z</time></trkpt><trkpt lat="45.99744677200734" lon="8.909832626219046"><ele>275.5</ele><time>2026-05-02T13:38:38Z</time></trkpt><trkpt lat="45.99746518609694" lon="8.909635182784575"><ele>276.0</ele><time>2026-05-02T13:38:39Z</time></trkpt><trkpt lat="45.99748585733585" lon="8.909440233472107"><ele>275.75</ele><time>2026-05-02T13:38:40Z</time></trkpt><trkpt lat="45.997502364899034" lon="8.90924533913599"><ele>275.5</ele><time>2026-05-02T13:38:41Z</time></trkpt><trkpt lat="45.997523034815806" lon="8.909065200442832"><ele>275.25</ele><time>2026-05-02T13:38:42Z</time></trkpt><trkpt lat="45.997541220574504" lon="8.908885297182534"><ele>275.0</ele><time>2026-05-02T13:38:43Z</time></trkpt><trkpt lat="45.99756380020318" lon="8.90869582192156"><ele>275.0</ele><time>2026-05-02T13:38:44Z</time></trkpt><trkpt lat="45.997579827063184" lon="8.908510424592771"><ele>275.0</ele><time>2026-05-02T13:38:45Z</time></trkpt><trkpt lat="45.997603403305455" lon="8.908325120276054"><ele>275.0</ele><time>2026-05-02T13:38:46Z</time></trkpt><trkpt lat="45.997636928695854" lon="8.908133226863395"><ele>275.0</ele><time>2026-05-02T13:38:47Z</time></trkpt><trkpt lat="45.99764984952169" lon="8.907928266441411"><ele>275.0</ele><time>2026-05-02T13:38:48Z</time></trkpt><trkpt lat="45.997658813724534" lon="8.907732287909294"><ele>275.0</ele><time>2026-05-02T13:38:49Z</time></trkpt><trkpt lat="45.9976776756729" lon="8.907557852133515"><ele>275.0</ele><time>2026-05-02T13:38:50Z</time></trkpt><trkpt lat="45.99769862119237" lon="8.90739964218188"><ele>275.0</ele><time>2026-05-02T13:38:51Z</time></trkpt><trkpt lat="45.997720182127175" lon="8.907231645541707"><ele>275.0</ele><time>2026-05-02T13:38:52Z</time></trkpt><trkpt lat="45.99773218236369" lon="8.90707730785019"><ele>275.0</ele><time>2026-05-02T13:38:53Z</time></trkpt><trkpt lat="45.99774422050703" lon="8.906928482452921"><ele>275.0</ele><time>2026-05-02T13:38:54Z</time></trkpt><trkpt lat="45.997755156214986" lon="8.906791888935643"><ele>275.0</ele><time>2026-05-02T13:38:55Z</time></trkpt><trkpt lat="45.99776752630656" lon="8.90665855110458"><ele>275.0</ele><time>2026-05-02T13:38:56Z</time></trkpt><trkpt lat="45.997779687296344" lon="8.906532672387314"><ele>274.8571428571429</ele><time>2026-05-02T13:38:57Z</time></trkpt><trkpt lat="45.99779119206788" lon="8.906425787906048"><ele>274.7142857142857</ele><time>2026-05-02T13:38:58Z</time></trkpt><trkpt lat="45.997799407631895" lon="8.906321070265685"><ele>274.57142857142856</ele><time>2026-05-02T13:39:00Z</time></trkpt><trkpt lat="45.99780465115951" lon="8.906221001679397"><ele>274.42857142857144</ele><time>2026-05-02T13:39:04Z</time></trkpt><trkpt lat="45.99782117269103" lon="8.906125722391815"><ele>274.2857142857143</ele><time>2026-05-02T13:39:06Z</time></trkpt><trkpt lat="45.99784983753206" lon="8.906030131617248"><ele>274.14285714285717</ele><time>2026-05-02T13:39:08Z</time></trkpt><trkpt lat="45.99789323595313" lon="8.905939288916866"><ele>274.0</ele><time>2026-05-02T13:39:10Z</time></trkpt><trkpt lat="45.99790685099393" lon="8.905800658774101"><ele>274.5</ele><time>2026-05-02T13:39:12Z</time></trkpt><trkpt lat="45.99781982375154" lon="8.905703590095131"><ele>275.0</ele><time>2026-05-02T13:39:15Z</time></trkpt><trkpt lat="45.997856900584445" lon="8.90562468276412"><ele>275.5</ele><time>2026-05-02T13:39:16Z</time></trkpt><trkpt lat="45.99788148443699" lon="8.905502763125105"><ele>276.0</ele><time>2026-05-02T13:39:17Z</time></trkpt><trkpt lat="45.99789606502322" lon="8.905396454593044"><ele>276.5</ele><time>2026-05-02T13:39:18Z</time></trkpt><trkpt lat="45.99789176330149" lon="8.905299063219374"><ele>277.0</ele><time>2026-05-02T13:39:19Z</time></trkpt><trkpt lat="45.9979081169803" lon="8.9051223299801"><ele>277.0</ele><time>2026-05-02T13:39:21Z</time></trkpt><trkpt lat="45.997925001512584" lon="8.905020425121188"><ele>277.0</ele><time>2026-05-02T13:39:22Z</time></trkpt><trkpt lat="45.997942273319744" lon="8.904914017188434"><ele>277.0</ele><time>2026-05-02T13:39:23Z</time></trkpt><trkpt lat="45.9979492500408" lon="8.904802480568673"><ele>277.0</ele><time>2026-05-02T13:39:24Z</time></trkpt><trkpt lat="45.99795674557968" lon="8.904683797614508"><ele>277.0</ele><time>2026-05-02T13:39:25Z</time></trkpt><trkpt lat="45.997971168513175" lon="8.904565891099953"><ele>277.0</ele><time>2026-05-02T13:39:26Z</time></trkpt><trkpt lat="45.997985461324426" lon="8.904467214958729"><ele>277.0</ele><time>2026-05-02T13:39:27Z</time></trkpt><trkpt lat="45.99800723999655" lon="8.904319901761843"><ele>277.0</ele><time>2026-05-02T13:39:29Z</time></trkpt><trkpt lat="45.99802173486289" lon="8.904161238576902"><ele>277.0</ele><time>2026-05-02T13:39:31Z</time></trkpt><trkpt lat="45.9980399736369" lon="8.904050869007692"><ele>277.0</ele><time>2026-05-02T13:39:34Z</time></trkpt><trkpt lat="45.99804786709302" lon="8.90391543454495"><ele>277.0</ele><time>2026-05-02T13:39:36Z</time></trkpt><trkpt lat="45.99806143711751" lon="8.903816712737754"><ele>277.0</ele><time>2026-05-02T13:39:37Z</time></trkpt><trkpt lat="45.998101837132424" lon="8.903667751850573"><ele>277.0</ele><time>2026-05-02T13:39:39Z</time></trkpt><trkpt lat="45.9980975689565" lon="8.903576367726755"><ele>277.0</ele><time>2026-05-02T13:39:42Z</time></trkpt><trkpt lat="45.99811065972114" lon="8.903428841026379"><ele>277.0</ele><time>2026-05-02T13:39:44Z</time></trkpt><trkpt lat="45.99812924484658" lon="8.903322859910704"><ele>277.0</ele><time>2026-05-02T13:39:45Z</time></trkpt><trkpt lat="45.99815602472614" lon="8.903158249797386"><ele>277.0</ele><time>2026-05-02T13:39:47Z</time></trkpt><trkpt lat="45.998173136469696" lon="8.903010438993611"><ele>277.0</ele><time>2026-05-02T13:39:49Z</time></trkpt><trkpt lat="45.99818075390469" lon="8.902918815014111"><ele>277.0</ele><time>2026-05-02T13:39:50Z</time></trkpt><trkpt lat="45.99819524074835" lon="8.90276026219392"><ele>277.0</ele><time>2026-05-02T13:39:52Z</time></trkpt><trkpt lat="45.998211842655" lon="8.902593772140518"><ele>277.0</ele><time>2026-05-02T13:39:54Z</time></trkpt><trkpt lat="45.99821647731731" lon="8.902501512884212"><ele>277.16666666666663</ele><time>2026-05-02T13:39:55Z</time></trkpt><trkpt lat="45.998220425795445" lon="8.902401306937469"><ele>277.3333333333333</ele><time>2026-05-02T13:39:56Z</time></trkpt><trkpt lat="45.99822631165478" lon="8.902298669270111"><ele>277.5</ele><time>2026-05-02T13:39:57Z</time></trkpt><trkpt lat="45.998233539035034" lon="8.902184135067586"><ele>277.6666666666667</ele><time>2026-05-02T13:39:58Z</time></trkpt><trkpt lat="45.99823597594498" lon="8.9020710320031"><ele>277.83333333333337</ele><time>2026-05-02T13:39:59Z</time></trkpt><trkpt lat="45.998217623335705" lon="8.901914341654818"><ele>278.0</ele><time>2026-05-02T13:40:01Z</time></trkpt><trkpt lat="45.99818012020134" lon="8.901753011699617"><ele>278.0</ele><time>2026-05-02T13:40:03Z</time></trkpt><trkpt lat="45.998144808667675" lon="8.901646662068062"><ele>278.0</ele><time>2026-05-02T13:40:05Z</time></trkpt><trkpt lat="45.99808478622777" lon="8.901497923849826"><ele>278.0</ele><time>2026-05-02T13:40:07Z</time></trkpt><trkpt lat="45.99804777087123" lon="8.901410272879865"><ele>278.0</ele><time>2026-05-02T13:40:08Z</time></trkpt><trkpt lat="45.99802880411366" lon="8.90130735483759"><ele>278.0</ele><time>2026-05-02T13:40:09Z</time></trkpt><trkpt lat="45.99798152447711" lon="8.901227283538189"><ele>278.0</ele><time>2026-05-02T13:40:10Z</time></trkpt><trkpt lat="45.9979412905983" lon="8.901141755268506"><ele>278.0</ele><time>2026-05-02T13:40:11Z</time></trkpt><trkpt lat="45.99789505164318" lon="8.90104735088234"><ele>278.0</ele><time>2026-05-02T13:40:12Z</time></trkpt><trkpt lat="45.99785000225963" lon="8.900950476291634"><ele>278.0</ele><time>2026-05-02T13:40:13Z</time></trkpt><trkpt lat="45.99779656228269" lon="8.900846811002399"><ele>278.0</ele><time>2026-05-02T13:40:14Z</time></trkpt><trkpt lat="45.99775825186393" lon="8.900739075885797"><ele>278.0</ele><time>2026-05-02T13:40:15Z</time></trkpt><trkpt lat="45.99770383396812" lon="8.90064811022986"><ele>278.0</ele><time>2026-05-02T13:40:16Z</time></trkpt><trkpt lat="45.997670618556334" lon="8.900540365929482"><ele>278.0</ele><time>2026-05-02T13:40:17Z</time></trkpt><trkpt lat="45.99762266430875" lon="8.900445352693412"><ele>278.0</ele><time>2026-05-02T13:40:18Z</time></trkpt><trkpt lat="45.99757762589291" lon="8.900359435311312"><ele>278.0</ele><time>2026-05-02T13:40:19Z</time></trkpt><trkpt lat="45.99753569637066" lon="8.900271846033354"><ele>278.0</ele><time>2026-05-02T13:40:20Z</time></trkpt><trkpt lat="45.99750091036674" lon="8.900181028939551"><ele>278.0</ele><time>2026-05-02T13:40:21Z</time></trkpt><trkpt lat="45.99745207842509" lon="8.900096731742998"><ele>278.0</ele><time>2026-05-02T13:40:22Z</time></trkpt><trkpt lat="45.99737823898635" lon="8.899949290547026"><ele>278.83333333333337</ele><time>2026-05-02T13:40:24Z</time></trkpt><trkpt lat="45.99730997880101" lon="8.899782777365052"><ele>279.6666666666667</ele><time>2026-05-02T13:40:26Z</time></trkpt><trkpt lat="45.99726183884844" lon="8.899708081423954"><ele>280.5</ele><time>2026-05-02T13:40:27Z</time></trkpt><trkpt lat="45.99721810659138" lon="8.899634569605535"><ele>281.3333333333333</ele><time>2026-05-02T13:40:28Z</time></trkpt><trkpt lat="45.9971620261093" lon="8.899553437287707"><ele>282.16666666666663</ele><time>2026-05-02T13:40:30Z</time></trkpt><trkpt lat="45.99711482557697" lon="8.899483410518977"><ele>283.0</ele><time>2026-05-02T13:40:31Z</time></trkpt><trkpt lat="45.99706725305557" lon="8.899420272813044"><ele>283.0</ele><time>2026-05-02T13:40:32Z</time></trkpt><trkpt lat="45.9970158604566" lon="8.899341831283762"><ele>283.0</ele><time>2026-05-02T13:40:33Z</time></trkpt><trkpt lat="45.99693563717513" lon="8.899322348801867"><ele>283.0</ele><time>2026-05-02T13:40:34Z</time></trkpt><trkpt lat="45.996864182517356" lon="8.899317972731541"><ele>283.0</ele><time>2026-05-02T13:40:35Z</time></trkpt><trkpt lat="45.996789384209954" lon="8.8993093544161"><ele>283.0</ele><time>2026-05-02T13:40:36Z</time></trkpt><trkpt lat="45.996721353800474" lon="8.89930258985157"><ele>283.0</ele><time>2026-05-02T13:40:37Z</time></trkpt><trkpt lat="45.99664654474616" lon="8.899301949193092"><ele>283.0</ele><time>2026-05-02T13:40:38Z</time></trkpt><trkpt lat="45.99656793625542" lon="8.899297673736433"><ele>283.2</ele><time>2026-05-02T13:40:39Z</time></trkpt><trkpt lat="45.99648113537863" lon="8.899254246878769"><ele>283.4</ele><time>2026-05-02T13:40:40Z</time></trkpt><trkpt lat="45.99639684795046" lon="8.899227951692382"><ele>283.59999999999997</ele><time>2026-05-02T13:40:41Z</time></trkpt><trkpt lat="45.99630635409084" lon="8.89921400358355"><ele>283.8</ele><time>2026-05-02T13:40:42Z</time></trkpt><trkpt lat="45.996212515707796" lon="8.899205410606987"><ele>284.0</ele><time>2026-05-02T13:40:43Z</time></trkpt><trkpt lat="45.996119622603416" lon="8.899191620786716"><ele>284.0</ele><time>2026-05-02T13:40:44Z</time></trkpt><trkpt lat="45.996051403985085" lon="8.899167740132789"><ele>284.0</ele><time>2026-05-02T13:40:45Z</time></trkpt><trkpt lat="45.99598826095808" lon="8.899150487239394"><ele>284.0</ele><time>2026-05-02T13:40:47Z</time></trkpt><trkpt lat="45.995885595150085" lon="8.899105156128153"><ele>284.0</ele><time>2026-05-02T13:40:51Z</time></trkpt><trkpt lat="45.995827375721014" lon="8.899069909152361"><ele>284.0</ele><time>2026-05-02T13:40:52Z</time></trkpt><trkpt lat="45.995758858944235" lon="8.899031702180897"><ele>284.0</ele><time>2026-05-02T13:40:53Z</time></trkpt><trkpt lat="45.99567876217802" lon="8.898977746447969"><ele>283.2</ele><time>2026-05-02T13:40:54Z</time></trkpt><trkpt lat="45.99560034741336" lon="8.898913244001767"><ele>282.4</ele><time>2026-05-02T13:40:55Z</time></trkpt><trkpt lat="45.99549380191843" lon="8.89882757737439"><ele>281.6</ele><time>2026-05-02T13:40:56Z</time></trkpt><trkpt lat="45.99541377486902" lon="8.898752280553131"><ele>280.8</ele><time>2026-05-02T13:40:57Z</time></trkpt><trkpt lat="45.99528334507962" lon="8.898680294579227"><ele>280.0</ele><time>2026-05-02T13:40:58Z</time></trkpt><trkpt lat="45.995178207140256" lon="8.898588972774082"><ele>280.0</ele><time>2026-05-02T13:40:59Z</time></trkpt><trkpt lat="45.99506745293078" lon="8.898505614937413"><ele>280.0</ele><time>2026-05-02T13:41:00Z</time></trkpt><trkpt lat="45.99496232472882" lon="8.898414065321631"><ele>280.0</ele><time>2026-05-02T13:41:01Z</time></trkpt><trkpt lat="45.99486221808042" lon="8.898332160011776"><ele>280.0</ele><time>2026-05-02T13:41:02Z</time></trkpt><trkpt lat="45.99475001830909" lon="8.898233881618758"><ele>281.75</ele><time>2026-05-02T13:41:03Z</time></trkpt><trkpt lat="45.99463020315248" lon="8.898160387495238"><ele>283.5</ele><time>2026-05-02T13:41:04Z</time></trkpt><trkpt lat="45.99451213979524" lon="8.89809673849231"><ele>285.25</ele><time>2026-05-02T13:41:05Z</time></trkpt><trkpt lat="45.99438915829856" lon="8.898051296623253"><ele>287.0</ele><time>2026-05-02T13:41:06Z</time></trkpt><trkpt lat="45.99426617351615" lon="8.897993461557153"><ele>285.4</ele><time>2026-05-02T13:41:07Z</time></trkpt><trkpt lat="45.99414395564743" lon="8.897938290514551"><ele>283.79999999999995</ele><time>2026-05-02T13:41:08Z</time></trkpt><trkpt lat="45.99403403060837" lon="8.8978938311975"><ele>282.2</ele><time>2026-05-02T13:41:09Z</time></trkpt><trkpt lat="45.993934923340106" lon="8.897851732107176"><ele>280.59999999999997</ele><time>2026-05-02T13:41:10Z</time></trkpt><trkpt lat="45.99385326507711" lon="8.897815558826002"><ele>279.0</ele><time>2026-05-02T13:41:11Z</time></trkpt><trkpt lat="45.993788304191746" lon="8.897785001075286"><ele>279.0</ele><time>2026-05-02T13:41:12Z</time></trkpt><trkpt lat="45.99370075943076" lon="8.897735961026559"><ele>279.0</ele><time>2026-05-02T13:41:14Z</time></trkpt><trkpt lat="45.993628855153226" lon="8.897721556919757"><ele>279.0</ele><time>2026-05-02T13:41:16Z</time></trkpt><trkpt lat="45.993528010422395" lon="8.897686042185658"><ele>279.0</ele><time>2026-05-02T13:41:18Z</time></trkpt><trkpt lat="45.99346492377053" lon="8.897660559310372"><ele>279.0</ele><time>2026-05-02T13:41:19Z</time></trkpt><trkpt lat="45.99340213751483" lon="8.89764693682344"><ele>279.0</ele><time>2026-05-02T13:41:20Z</time></trkpt><trkpt lat="45.99331785277616" lon="8.897599416438766"><ele>280.2</ele><time>2026-05-02T13:41:21Z</time></trkpt><trkpt lat="45.993223762477605" lon="8.897549568363036"><ele>281.4</ele><time>2026-05-02T13:41:22Z</time></trkpt><trkpt lat="45.99314054634533" lon="8.897467846056573"><ele>282.6</ele><time>2026-05-02T13:41:23Z</time></trkpt><trkpt lat="45.993076333014834" lon="8.897358784514203"><ele>283.8</ele><time>2026-05-02T13:41:24Z</time></trkpt><trkpt lat="45.99301197381361" lon="8.897263160826748"><ele>285.0</ele><time>2026-05-02T13:41:25Z</time></trkpt><trkpt lat="45.99294463896137" lon="8.897158316299114"><ele>285.0</ele><time>2026-05-02T13:41:26Z</time></trkpt><trkpt lat="45.99287751349364" lon="8.89704399666544"><ele>285.0</ele><time>2026-05-02T13:41:27Z</time></trkpt><trkpt lat="45.99279978237693" lon="8.89693078267491"><ele>285.0</ele><time>2026-05-02T13:41:28Z</time></trkpt><trkpt lat="45.992716007348136" lon="8.896836910434233"><ele>285.0</ele><time>2026-05-02T13:41:29Z</time></trkpt><trkpt lat="45.99262697466425" lon="8.896750257523335"><ele>285.0</ele><time>2026-05-02T13:41:30Z</time></trkpt><trkpt lat="45.992526895734336" lon="8.89666589866456"><ele>287.0</ele><time>2026-05-02T13:41:31Z</time></trkpt><trkpt lat="45.992429282745526" lon="8.896594385016051"><ele>289.0</ele><time>2026-05-02T13:41:32Z</time></trkpt><trkpt lat="45.9923215486551" lon="8.896537440593082"><ele>291.0</ele><time>2026-05-02T13:41:33Z</time></trkpt><trkpt lat="45.992207500768764" lon="8.896508738368038"><ele>293.0</ele><time>2026-05-02T13:41:34Z</time></trkpt><trkpt lat="45.99209131639358" lon="8.896467311430602"><ele>293.0</ele><time>2026-05-02T13:41:35Z</time></trkpt><trkpt lat="45.991980701328245" lon="8.896422732156932"><ele>293.0</ele><time>2026-05-02T13:41:36Z</time></trkpt><trkpt lat="45.991875623602176" lon="8.896365739549484"><ele>293.0</ele><time>2026-05-02T13:41:37Z</time></trkpt><trkpt lat="45.99176502920595" lon="8.896271333750422"><ele>293.0</ele><time>2026-05-02T13:41:38Z</time></trkpt><trkpt lat="45.991662022622734" lon="8.896166297937961"><ele>290.5</ele><time>2026-05-02T13:41:39Z</time></trkpt><trkpt lat="45.99155305280605" lon="8.896055325979443"><ele>288.0</ele><time>2026-05-02T13:41:40Z</time></trkpt><trkpt lat="45.99143525220352" lon="8.89593710907772"><ele>285.5</ele><time>2026-05-02T13:41:41Z</time></trkpt><trkpt lat="45.99131509784504" lon="8.895814587116334"><ele>283.0</ele><time>2026-05-02T13:41:42Z</time></trkpt><trkpt lat="45.99120135319439" lon="8.89570622736727"><ele>282.5</ele><time>2026-05-02T13:41:43Z</time></trkpt><trkpt lat="45.991074697700924" lon="8.895604767331816"><ele>282.0</ele><time>2026-05-02T13:41:44Z</time></trkpt><trkpt lat="45.99093695868159" lon="8.89551729168189"><ele>281.5</ele><time>2026-05-02T13:41:45Z</time></trkpt><trkpt lat="45.990801751307316" lon="8.895412231983132"><ele>281.0</ele><time>2026-05-02T13:41:46Z</time></trkpt><trkpt lat="45.99067394926827" lon="8.895310426055648"><ele>281.0</ele><time>2026-05-02T13:41:47Z</time></trkpt><trkpt lat="45.99055320265116" lon="8.89521726948512"><ele>281.0</ele><time>2026-05-02T13:41:48Z</time></trkpt><trkpt lat="45.99043721538111" lon="8.895131899506687"><ele>281.0</ele><time>2026-05-02T13:41:49Z</time></trkpt><trkpt lat="45.99032526167482" lon="8.895042101797571"><ele>281.0</ele><time>2026-05-02T13:41:50Z</time></trkpt><trkpt lat="45.99020245902617" lon="8.89495055070077"><ele>282.75</ele><time>2026-05-02T13:41:51Z</time></trkpt><trkpt lat="45.99008828581888" lon="8.894872649487128"><ele>284.5</ele><time>2026-05-02T13:41:52Z</time></trkpt><trkpt lat="45.989974467006135" lon="8.894782591507594"><ele>286.25</ele><time>2026-05-02T13:41:53Z</time></trkpt><trkpt lat="45.98985603576574" lon="8.894686154089092"><ele>288.0</ele><time>2026-05-02T13:41:54Z</time></trkpt><trkpt lat="45.9897416280039" lon="8.89456158725118"><ele>288.0</ele><time>2026-05-02T13:41:55Z</time></trkpt><trkpt lat="45.98962703651495" lon="8.894440927853319"><ele>288.0</ele><time>2026-05-02T13:41:56Z</time></trkpt><trkpt lat="45.98950538388648" lon="8.894312572665658"><ele>288.0</ele><time>2026-05-02T13:41:57Z</time></trkpt><trkpt lat="45.989391745328625" lon="8.894172670389134"><ele>288.0</ele><time>2026-05-02T13:41:58Z</time></trkpt><trkpt lat="45.98928295885246" lon="8.894014782971638"><ele>287.0</ele><time>2026-05-02T13:41:59Z</time></trkpt><trkpt lat="45.989177725754644" lon="8.893859469249607"><ele>286.0</ele><time>2026-05-02T13:42:00Z</time></trkpt><trkpt lat="45.98907241189354" lon="8.893690808321269"><ele>285.0</ele><time>2026-05-02T13:42:01Z</time></trkpt><trkpt lat="45.98897810005626" lon="8.89354419567668"><ele>284.0</ele><time>2026-05-02T13:42:02Z</time></trkpt><trkpt lat="45.98885587516579" lon="8.89340268328847"><ele>295.6666666666667</ele><time>2026-05-02T13:42:03Z</time></trkpt><trkpt lat="45.98873795373076" lon="8.893253912561743"><ele>307.3333333333333</ele><time>2026-05-02T13:42:04Z</time></trkpt><trkpt lat="45.988593666096556" lon="8.89313218717527"><ele>319.0</ele><time>2026-05-02T13:42:05Z</time></trkpt><trkpt lat="45.98844083376672" lon="8.893014918687717"><ele>308.0</ele><time>2026-05-02T13:42:06Z</time></trkpt><trkpt lat="45.98828670395171" lon="8.892906556930605"><ele>297.0</ele><time>2026-05-02T13:42:07Z</time></trkpt><trkpt lat="45.98814773821044" lon="8.892809865874199"><ele>286.0</ele><time>2026-05-02T13:42:08Z</time></trkpt><trkpt lat="45.9880074295174" lon="8.892718740593766"><ele>286.0</ele><time>2026-05-02T13:42:09Z</time></trkpt><trkpt lat="45.987882020253565" lon="8.892622590601071"><ele>286.0</ele><time>2026-05-02T13:42:10Z</time></trkpt><trkpt lat="45.98775909808758" lon="8.892546878385627"><ele>286.0</ele><time>2026-05-02T13:42:11Z</time></trkpt><trkpt lat="45.987642204102706" lon="8.892480129024293"><ele>286.0</ele><time>2026-05-02T13:42:12Z</time></trkpt><trkpt lat="45.987517675226414" lon="8.892424411257126"><ele>287.0</ele><time>2026-05-02T13:42:13Z</time></trkpt><trkpt lat="45.987399793394374" lon="8.892365510043492"><ele>288.0</ele><time>2026-05-02T13:42:14Z</time></trkpt><trkpt lat="45.98728549106101" lon="8.892304581540811"><ele>289.0</ele><time>2026-05-02T13:42:15Z</time></trkpt><trkpt lat="45.987171626663525" lon="8.892259520265066"><ele>290.0</ele><time>2026-05-02T13:42:16Z</time></trkpt><trkpt lat="45.98705997591203" lon="8.892210846146755"><ele>290.0</ele><time>2026-05-02T13:42:17Z</time></trkpt><trkpt lat="45.98694868753916" lon="8.892140187351501"><ele>290.0</ele><time>2026-05-02T13:42:18Z</time></trkpt><trkpt lat="45.986828922455835" lon="8.892073669368612"><ele>290.0</ele><time>2026-05-02T13:42:19Z</time></trkpt><trkpt lat="45.986711141914" lon="8.892000025654733"><ele>290.0</ele><time>2026-05-02T13:42:20Z</time></trkpt><trkpt lat="45.98659436198694" lon="8.891915566601512"><ele>292.25</ele><time>2026-05-02T13:42:21Z</time></trkpt><trkpt lat="45.986484249363535" lon="8.891824640378903"><ele>294.5</ele><time>2026-05-02T13:42:22Z</time></trkpt><trkpt lat="45.98638276051057" lon="8.891717253991882"><ele>296.75</ele><time>2026-05-02T13:42:23Z</time></trkpt><trkpt lat="45.98629140306076" lon="8.891612341289699"><ele>299.0</ele><time>2026-05-02T13:42:24Z</time></trkpt><trkpt lat="45.98619495599018" lon="8.891527656013869"><ele>299.0</ele><time>2026-05-02T13:42:25Z</time></trkpt><trkpt lat="45.9861111939501" lon="8.89142842865552"><ele>299.0</ele><time>2026-05-02T13:42:26Z</time></trkpt><trkpt lat="45.98603855939895" lon="8.891348202383565"><ele>299.0</ele><time>2026-05-02T13:42:27Z</time></trkpt><trkpt lat="45.985978101241805" lon="8.891293499627919"><ele>299.0</ele><time>2026-05-02T13:42:28Z</time></trkpt><trkpt lat="45.98591647189012" lon="8.89122915405027"><ele>299.0</ele><time>2026-05-02T13:42:30Z</time></trkpt><trkpt lat="45.985863642855875" lon="8.891150330492005"><ele>299.0</ele><time>2026-05-02T13:42:42Z</time></trkpt><trkpt lat="45.9857926968552" lon="8.891054561855965"><ele>297.83333333333337</ele><time>2026-05-02T13:42:44Z</time></trkpt><trkpt lat="45.98573893919552" lon="8.890996259557511"><ele>296.6666666666667</ele><time>2026-05-02T13:42:45Z</time></trkpt><trkpt lat="45.98568868923362" lon="8.890933367678047"><ele>295.5</ele><time>2026-05-02T13:42:46Z</time></trkpt><trkpt lat="45.98562278859218" lon="8.890869525127917"><ele>294.3333333333333</ele><time>2026-05-02T13:42:47Z</time></trkpt><trkpt lat="45.98555363846038" lon="8.890793968807573"><ele>293.16666666666663</ele><time>2026-05-02T13:42:48Z</time></trkpt><trkpt lat="45.98546925611088" lon="8.890717792562365"><ele>292.0</ele><time>2026-05-02T13:42:49Z</time></trkpt><trkpt lat="45.985405657474814" lon="8.890647685155264"><ele>292.0</ele><time>2026-05-02T13:42:50Z</time></trkpt><trkpt lat="45.985342239486585" lon="8.890578942204595"><ele>292.0</ele><time>2026-05-02T13:42:51Z</time></trkpt><trkpt lat="45.98526849664182" lon="8.890503054530496"><ele>292.0</ele><time>2026-05-02T13:42:52Z</time></trkpt><trkpt lat="45.9851946558069" lon="8.890424243923748"><ele>292.0</ele><time>2026-05-02T13:42:53Z</time></trkpt><trkpt lat="45.98511280861658" lon="8.890318094971597"><ele>292.0</ele><time>2026-05-02T13:42:54Z</time></trkpt><trkpt lat="45.98503685824595" lon="8.890228038029132"><ele>291.0</ele><time>2026-05-02T13:42:55Z</time></trkpt><trkpt lat="45.98496286800127" lon="8.890151247350007"><ele>290.0</ele><time>2026-05-02T13:42:56Z</time></trkpt><trkpt lat="45.98490058643877" lon="8.890084199055533"><ele>289.0</ele><time>2026-05-02T13:42:57Z</time></trkpt><trkpt lat="45.984834605770104" lon="8.890022668700134"><ele>288.0</ele><time>2026-05-02T13:42:58Z</time></trkpt><trkpt lat="45.9847766761661" lon="8.889953239687529"><ele>287.0</ele><time>2026-05-02T13:42:59Z</time></trkpt><trkpt lat="45.984710348907555" lon="8.889876145681823"><ele>286.0</ele><time>2026-05-02T13:43:00Z</time></trkpt><trkpt lat="45.984634429360824" lon="8.889799287338771"><ele>286.0</ele><time>2026-05-02T13:43:01Z</time></trkpt><trkpt lat="45.984566156701085" lon="8.889715577723564"><ele>286.0</ele><time>2026-05-02T13:43:02Z</time></trkpt><trkpt lat="45.98447245873953" lon="8.889633199650635"><ele>286.0</ele><time>2026-05-02T13:43:03Z</time></trkpt><trkpt lat="45.98438499379515" lon="8.889548538847958"><ele>286.0</ele><time>2026-05-02T13:43:04Z</time></trkpt><trkpt lat="45.98429876673953" lon="8.889452746618012"><ele>286.0</ele><time>2026-05-02T13:43:05Z</time></trkpt><trkpt lat="45.98421630586336" lon="8.88936164618805"><ele>285.6</ele><time>2026-05-02T13:43:06Z</time></trkpt><trkpt lat="45.98413205263774" lon="8.88926932970345"><ele>285.20000000000005</ele><time>2026-05-02T13:43:07Z</time></trkpt><trkpt lat="45.98404317802971" lon="8.889177804046334"><ele>284.79999999999995</ele><time>2026-05-02T13:43:08Z</time></trkpt><trkpt lat="45.98397028240981" lon="8.889099318077843"><ele>284.4</ele><time>2026-05-02T13:43:09Z</time></trkpt><trkpt lat="45.98393101521551" lon="8.889008930098099"><ele>284.0</ele><time>2026-05-02T13:43:10Z</time></trkpt><trkpt lat="45.98385930116048" lon="8.888926618264355"><ele>284.0</ele><time>2026-05-02T13:43:11Z</time></trkpt><trkpt lat="45.983780596514634" lon="8.888861202216532"><ele>284.0</ele><time>2026-05-02T13:43:12Z</time></trkpt><trkpt lat="45.98371113774253" lon="8.888787020110646"><ele>284.0</ele><time>2026-05-02T13:43:13Z</time></trkpt><trkpt lat="45.98363064658166" lon="8.88870116104362"><ele>284.0</ele><time>2026-05-02T13:43:14Z</time></trkpt><trkpt lat="45.98358004931998" lon="8.888607580968884"><ele>284.0</ele><time>2026-05-02T13:43:15Z</time></trkpt><trkpt lat="45.98352279257481" lon="8.888474442355001"><ele>286.0</ele><time>2026-05-02T13:43:16Z</time></trkpt><trkpt lat="45.983476240276154" lon="8.888352085143543"><ele>288.0</ele><time>2026-05-02T13:43:17Z</time></trkpt><trkpt lat="45.98345931400484" lon="8.888214334614606"><ele>290.0</ele><time>2026-05-02T13:43:18Z</time></trkpt><trkpt lat="45.983443076111335" lon="8.888042356635882"><ele>292.0</ele><time>2026-05-02T13:43:19Z</time></trkpt><trkpt lat="45.983423372463726" lon="8.887898039331695"><ele>294.0</ele><time>2026-05-02T13:43:20Z</time></trkpt><trkpt lat="45.983409248091284" lon="8.887747516922424"><ele>294.0</ele><time>2026-05-02T13:43:21Z</time></trkpt><trkpt lat="45.98339840131599" lon="8.887616287790404"><ele>294.0</ele><time>2026-05-02T13:43:22Z</time></trkpt><trkpt lat="45.98338632254476" lon="8.887463310940975"><ele>294.0</ele><time>2026-05-02T13:43:23Z</time></trkpt><trkpt lat="45.98336820555734" lon="8.887298638422703"><ele>294.0</ele><time>2026-05-02T13:43:24Z</time></trkpt><trkpt lat="45.98334678611642" lon="8.88714573811561"><ele>294.0</ele><time>2026-05-02T13:43:25Z</time></trkpt><trkpt lat="45.983329393805334" lon="8.886980650476177"><ele>293.0</ele><time>2026-05-02T13:43:26Z</time></trkpt><trkpt lat="45.98329895335757" lon="8.886818503862223"><ele>292.0</ele><time>2026-05-02T13:43:27Z</time></trkpt><trkpt lat="45.98329041435848" lon="8.886680583849415"><ele>291.0</ele><time>2026-05-02T13:43:28Z</time></trkpt><trkpt lat="45.98327244050008" lon="8.886555063337966"><ele>290.0</ele><time>2026-05-02T13:43:29Z</time></trkpt><trkpt lat="45.983226683637525" lon="8.88637007146147"><ele>289.0</ele><time>2026-05-02T13:43:30Z</time></trkpt><trkpt lat="45.98322151544715" lon="8.886195774405966"><ele>288.5</ele><time>2026-05-02T13:43:31Z</time></trkpt><trkpt lat="45.98319656660898" lon="8.886035412373053"><ele>288.0</ele><time>2026-05-02T13:43:32Z</time></trkpt><trkpt lat="45.98317760027222" lon="8.8858683391832"><ele>287.5</ele><time>2026-05-02T13:43:33Z</time></trkpt><trkpt lat="45.9831626776729" lon="8.88570014500748"><ele>287.0</ele><time>2026-05-02T13:43:34Z</time></trkpt><trkpt lat="45.98314179331399" lon="8.885540886584652"><ele>286.6</ele><time>2026-05-02T13:43:35Z</time></trkpt><trkpt lat="45.98312249877799" lon="8.885399444466143"><ele>286.2</ele><time>2026-05-02T13:43:36Z</time></trkpt><trkpt lat="45.98310391736778" lon="8.885236384088884"><ele>285.8</ele><time>2026-05-02T13:43:37Z</time></trkpt><trkpt lat="45.98308589094183" lon="8.88507785355285"><ele>285.4</ele><time>2026-05-02T13:43:38Z</time></trkpt><trkpt lat="45.983068794213814" lon="8.884918844969373"><ele>285.0</ele><time>2026-05-02T13:43:39Z</time></trkpt><trkpt lat="45.98304758182243" lon="8.884761173501786"><ele>286.0</ele><time>2026-05-02T13:43:40Z</time></trkpt><trkpt lat="45.98302614797144" lon="8.884621900957505"><ele>287.0</ele><time>2026-05-02T13:43:41Z</time></trkpt><trkpt lat="45.98300939797449" lon="8.884465842848183"><ele>288.0</ele><time>2026-05-02T13:43:42Z</time></trkpt><trkpt lat="45.98299124695101" lon="8.884303496242582"><ele>289.0</ele><time>2026-05-02T13:43:43Z</time></trkpt><trkpt lat="45.98297252451957" lon="8.884153648785466"><ele>290.0</ele><time>2026-05-02T13:43:44Z</time></trkpt><trkpt lat="45.982958066428424" lon="8.88401495857218"><ele>290.1666666666667</ele><time>2026-05-02T13:43:45Z</time></trkpt><trkpt lat="45.982946642735556" lon="8.883890189250113"><ele>290.33333333333337</ele><time>2026-05-02T13:43:46Z</time></trkpt><trkpt lat="45.982933991004664" lon="8.88377856100525"><ele>290.5</ele><time>2026-05-02T13:43:47Z</time></trkpt><trkpt lat="45.98292155541036" lon="8.883674753244785"><ele>290.6666666666667</ele><time>2026-05-02T13:43:48Z</time></trkpt><trkpt lat="45.982912272188365" lon="8.883583032459633"><ele>290.8333333333333</ele><time>2026-05-02T13:43:49Z</time></trkpt><trkpt lat="45.982897874960535" lon="8.883481161505038"><ele>291.0</ele><time>2026-05-02T13:43:51Z</time></trkpt><trkpt lat="45.98289697745875" lon="8.88337197193261"><ele>292.0</ele><time>2026-05-02T13:43:54Z</time></trkpt><trkpt lat="45.98291633921947" lon="8.883209614288587"><ele>293.0</ele><time>2026-05-02T13:43:56Z</time></trkpt><trkpt lat="45.98290311484263" lon="8.883120843237036"><ele>294.0</ele><time>2026-05-02T13:43:57Z</time></trkpt><trkpt lat="45.98283873628749" lon="8.882935831168943"><ele>295.0</ele><time>2026-05-02T13:43:59Z</time></trkpt><trkpt lat="45.98281054139898" lon="8.882818038815962"><ele>296.0</ele><time>2026-05-02T13:44:00Z</time></trkpt><trkpt lat="45.98279398085293" lon="8.882704778260655"><ele>296.40000000000003</ele><time>2026-05-02T13:44:01Z</time></trkpt><trkpt lat="45.98278999787967" lon="8.88257095540293"><ele>296.8</ele><time>2026-05-02T13:44:02Z</time></trkpt><trkpt lat="45.98277366165788" lon="8.882451253579704"><ele>297.20000000000005</ele><time>2026-05-02T13:44:03Z</time></trkpt><trkpt lat="45.98276019266725" lon="8.882322870796179"><ele>297.6</ele><time>2026-05-02T13:44:04Z</time></trkpt><trkpt lat="45.98275327157444" lon="8.882167680950657"><ele>298.0</ele><time>2026-05-02T13:44:05Z</time></trkpt><trkpt lat="45.98273765551629" lon="8.882001302509147"><ele>298.0</ele><time>2026-05-02T13:44:06Z</time></trkpt><trkpt lat="45.98271463009592" lon="8.881838834216342"><ele>298.0</ele><time>2026-05-02T13:44:07Z</time></trkpt><trkpt lat="45.98269660417752" lon="8.881658318296601"><ele>298.0</ele><time>2026-05-02T13:44:08Z</time></trkpt><trkpt lat="45.982674435827626" lon="8.881473088746299"><ele>298.0</ele><time>2026-05-02T13:44:09Z</time></trkpt><trkpt lat="45.98265404221757" lon="8.881314801513804"><ele>299.25</ele><time>2026-05-02T13:44:10Z</time></trkpt><trkpt lat="45.98263622769153" lon="8.881145554156085"><ele>300.5</ele><time>2026-05-02T13:44:11Z</time></trkpt><trkpt lat="45.982617435216" lon="8.880974548982746"><ele>301.75</ele><time>2026-05-02T13:44:12Z</time></trkpt><trkpt lat="45.98260588034514" lon="8.880803584932462"><ele>303.0</ele><time>2026-05-02T13:44:13Z</time></trkpt><trkpt lat="45.982588278408485" lon="8.880639715929947"><ele>302.8</ele><time>2026-05-02T13:44:14Z</time></trkpt><trkpt lat="45.982556963946415" lon="8.880481938422681"><ele>302.6</ele><time>2026-05-02T13:44:15Z</time></trkpt><trkpt lat="45.982525274524455" lon="8.880337779735063"><ele>302.4</ele><time>2026-05-02T13:44:16Z</time></trkpt><trkpt lat="45.98248958676226" lon="8.880204020262633"><ele>302.2</ele><time>2026-05-02T13:44:17Z</time></trkpt><trkpt lat="45.98244783854224" lon="8.88007921019783"><ele>302.0</ele><time>2026-05-02T13:44:18Z</time></trkpt><trkpt lat="45.98240941678772" lon="8.879963918493992"><ele>302.00000000000006</ele><time>2026-05-02T13:44:19Z</time></trkpt><trkpt lat="45.982382803193325" lon="8.879873853301266"><ele>302.0</ele><time>2026-05-02T13:44:20Z</time></trkpt><trkpt lat="45.982341572230105" lon="8.879785267431075"><ele>302.0</ele><time>2026-05-02T13:44:21Z</time></trkpt><trkpt lat="45.98230830471263" lon="8.879702718768499"><ele>302.0</ele><time>2026-05-02T13:44:22Z</time></trkpt><trkpt lat="45.98226272828182" lon="8.879622450222747"><ele>302.0</ele><time>2026-05-02T13:44:23Z</time></trkpt><trkpt lat="45.98222695840407" lon="8.879534444931904"><ele>302.00000000000006</ele><time>2026-05-02T13:44:24Z</time></trkpt><trkpt lat="45.98218408399541" lon="8.879447724390792"><ele>302.0</ele><time>2026-05-02T13:44:25Z</time></trkpt><trkpt lat="45.98213897843426" lon="8.879355965251934"><ele>302.6</ele><time>2026-05-02T13:44:26Z</time></trkpt><trkpt lat="45.98208537029167" lon="8.879246202132686"><ele>303.2</ele><time>2026-05-02T13:44:27Z</time></trkpt><trkpt lat="45.982020836415586" lon="8.879140371481487"><ele>303.8</ele><time>2026-05-02T13:44:28Z</time></trkpt><trkpt lat="45.981940320808896" lon="8.87904048725032"><ele>304.4</ele><time>2026-05-02T13:44:29Z</time></trkpt><trkpt lat="45.98184676860757" lon="8.878957856636996"><ele>305.0</ele><time>2026-05-02T13:44:30Z</time></trkpt><trkpt lat="45.981766093814755" lon="8.87889758265005"><ele>305.0</ele><time>2026-05-02T13:44:31Z</time></trkpt><trkpt lat="45.98169319351654" lon="8.878818165801398"><ele>305.0</ele><time>2026-05-02T13:44:33Z</time></trkpt><trkpt lat="45.981660705452626" lon="8.878738595306796"><ele>305.0</ele><time>2026-05-02T13:44:36Z</time></trkpt><trkpt lat="45.98159736989405" lon="8.878605717772702"><ele>305.0</ele><time>2026-05-02T13:44:38Z</time></trkpt><trkpt lat="45.98154680882622" lon="8.87853800328666"><ele>305.0</ele><time>2026-05-02T13:44:39Z</time></trkpt><trkpt lat="45.98146903494779" lon="8.87848669533085"><ele>305.0</ele><time>2026-05-02T13:44:40Z</time></trkpt><trkpt lat="45.98135378110464" lon="8.878462847906022"><ele>304.6</ele><time>2026-05-02T13:44:41Z</time></trkpt><trkpt lat="45.98125209217079" lon="8.878432982863771"><ele>304.2</ele><time>2026-05-02T13:44:42Z</time></trkpt><trkpt lat="45.98116040850479" lon="8.87840391544032"><ele>303.8</ele><time>2026-05-02T13:44:43Z</time></trkpt><trkpt lat="45.981050777775124" lon="8.87839341224587"><ele>303.4</ele><time>2026-05-02T13:44:44Z</time></trkpt><trkpt lat="45.98094197382604" lon="8.87831443770879"><ele>303.0</ele><time>2026-05-02T13:44:45Z</time></trkpt><trkpt lat="45.98083493300308" lon="8.878251488136543"><ele>303.0</ele><time>2026-05-02T13:44:46Z</time></trkpt><trkpt lat="45.980742508314414" lon="8.878192914043044"><ele>303.0</ele><time>2026-05-02T13:44:47Z</time></trkpt><trkpt lat="45.980654475826896" lon="8.878138700959594"><ele>303.0</ele><time>2026-05-02T13:44:48Z</time></trkpt><trkpt lat="45.98057086976095" lon="8.878081549483253"><ele>303.0</ele><time>2026-05-02T13:44:49Z</time></trkpt><trkpt lat="45.980496846900046" lon="8.878020398720812"><ele>303.0</ele><time>2026-05-02T13:44:50Z</time></trkpt><trkpt lat="45.98042541525151" lon="8.877958027999354"><ele>303.0</ele><time>2026-05-02T13:44:51Z</time></trkpt><trkpt lat="45.980345303199904" lon="8.877898653926762"><ele>303.0</ele><time>2026-05-02T13:44:52Z</time></trkpt><trkpt lat="45.98026993033621" lon="8.877841297045142"><ele>303.0</ele><time>2026-05-02T13:44:53Z</time></trkpt><trkpt lat="45.98020542915883" lon="8.87779189463223"><ele>303.0</ele><time>2026-05-02T13:44:54Z</time></trkpt><trkpt lat="45.98014027564379" lon="8.877743905287746"><ele>303.0</ele><time>2026-05-02T13:44:55Z</time></trkpt><trkpt lat="45.98007686132541" lon="8.877696203458619"><ele>303.0</ele><time>2026-05-02T13:44:56Z</time></trkpt><trkpt lat="45.98000419013503" lon="8.877654227346747"><ele>302.3333333333333</ele><time>2026-05-02T13:44:57Z</time></trkpt><trkpt lat="45.97993042277651" lon="8.877601203908037"><ele>301.6666666666667</ele><time>2026-05-02T13:44:58Z</time></trkpt><trkpt lat="45.97985545338442" lon="8.87754321512277"><ele>301.0</ele><time>2026-05-02T13:44:59Z</time></trkpt><trkpt lat="45.97978212820844" lon="8.877485319682608"><ele>300.33333333333337</ele><time>2026-05-02T13:45:00Z</time></trkpt><trkpt lat="45.97970463913624" lon="8.877428143794111"><ele>299.6666666666667</ele><time>2026-05-02T13:45:01Z</time></trkpt><trkpt lat="45.97961999908841" lon="8.877370569139536"><ele>299.0</ele><time>2026-05-02T13:45:02Z</time></trkpt><trkpt lat="45.97954074024059" lon="8.877308300691809"><ele>299.0</ele><time>2026-05-02T13:45:03Z</time></trkpt><trkpt lat="45.97945834158598" lon="8.877235515725332"><ele>299.0</ele><time>2026-05-02T13:45:04Z</time></trkpt><trkpt lat="45.97937986278039" lon="8.877178495061528"><ele>299.0</ele><time>2026-05-02T13:45:05Z</time></trkpt><trkpt lat="45.97930284731743" lon="8.877131858576838"><ele>299.0</ele><time>2026-05-02T13:45:06Z</time></trkpt><trkpt lat="45.97924147426423" lon="8.877075991859254"><ele>299.0</ele><time>2026-05-02T13:45:07Z</time></trkpt><trkpt lat="45.97917080187325" lon="8.877019144241928"><ele>299.0</ele><time>2026-05-02T13:45:08Z</time></trkpt><trkpt lat="45.97909327030652" lon="8.876970431228386"><ele>298.4</ele><time>2026-05-02T13:45:09Z</time></trkpt><trkpt lat="45.979019465912636" lon="8.876910922934565"><ele>297.79999999999995</ele><time>2026-05-02T13:45:10Z</time></trkpt><trkpt lat="45.97893812420315" lon="8.876849949240865"><ele>297.20000000000005</ele><time>2026-05-02T13:45:11Z</time></trkpt><trkpt lat="45.978858838022056" lon="8.876782024449527"><ele>296.6</ele><time>2026-05-02T13:45:12Z</time></trkpt><trkpt lat="45.97877222387204" lon="8.876720750737231"><ele>296.0</ele><time>2026-05-02T13:45:13Z</time></trkpt><trkpt lat="45.97869051334183" lon="8.876654628892327"><ele>296.0</ele><time>2026-05-02T13:45:14Z</time></trkpt><trkpt lat="45.97859906005122" lon="8.87660124856862"><ele>296.0</ele><time>2026-05-02T13:45:15Z</time></trkpt><trkpt lat="45.978506465295354" lon="8.87654285547693"><ele>296.0</ele><time>2026-05-02T13:45:16Z</time></trkpt><trkpt lat="45.978421725595794" lon="8.876487386351364"><ele>296.0</ele><time>2026-05-02T13:45:17Z</time></trkpt><trkpt lat="45.9783422191444" lon="8.876425024984284"><ele>296.0</ele><time>2026-05-02T13:45:18Z</time></trkpt><trkpt lat="45.97826697849432" lon="8.876360431218766"><ele>295.0</ele><time>2026-05-02T13:45:19Z</time></trkpt><trkpt lat="45.97815298965726" lon="8.87620762568299"><ele>294.0</ele><time>2026-05-02T13:45:21Z</time></trkpt><trkpt lat="45.97807493732703" lon="8.876114034657743"><ele>293.0</ele><time>2026-05-02T13:45:22Z</time></trkpt><trkpt lat="45.9779832784049" lon="8.87603611952149"><ele>292.0</ele><time>2026-05-02T13:45:23Z</time></trkpt><trkpt lat="45.97789170561505" lon="8.875955484028253"><ele>292.6</ele><time>2026-05-02T13:45:24Z</time></trkpt><trkpt lat="45.977830554817466" lon="8.875855366785553"><ele>293.2</ele><time>2026-05-02T13:45:25Z</time></trkpt><trkpt lat="45.97774864187661" lon="8.87576489322813"><ele>293.8</ele><time>2026-05-02T13:45:26Z</time></trkpt><trkpt lat="45.97767262513259" lon="8.875686259621627"><ele>294.4</ele><time>2026-05-02T13:45:27Z</time></trkpt><trkpt lat="45.97759155437417" lon="8.875591795434602"><ele>295.0</ele><time>2026-05-02T13:45:28Z</time></trkpt><trkpt lat="45.977521800295634" lon="8.875466264299142"><ele>294.8</ele><time>2026-05-02T13:45:29Z</time></trkpt><trkpt lat="45.977440641104415" lon="8.87535660441242"><ele>294.6</ele><time>2026-05-02T13:45:30Z</time></trkpt><trkpt lat="45.97737228721207" lon="8.875252041352708"><ele>294.4</ele><time>2026-05-02T13:45:31Z</time></trkpt><trkpt lat="45.9772929097303" lon="8.875152611164362"><ele>294.2</ele><time>2026-05-02T13:45:32Z</time></trkpt><trkpt lat="45.97722922574519" lon="8.875042208251035"><ele>294.0</ele><time>2026-05-02T13:45:33Z</time></trkpt><trkpt lat="45.97716099680782" lon="8.87493128576288"><ele>294.0</ele><time>2026-05-02T13:45:34Z</time></trkpt><trkpt lat="45.97709271716855" lon="8.874827020005496"><ele>294.0</ele><time>2026-05-02T13:45:35Z</time></trkpt><trkpt lat="45.97703016507986" lon="8.874729003881217"><ele>294.0</ele><time>2026-05-02T13:45:36Z</time></trkpt><trkpt lat="45.976971856317085" lon="8.874626723156096"><ele>294.0</ele><time>2026-05-02T13:45:37Z</time></trkpt><trkpt lat="45.97690922118706" lon="8.874531701426395"><ele>294.0</ele><time>2026-05-02T13:45:38Z</time></trkpt><trkpt lat="45.9768549608105" lon="8.874441782118033"><ele>294.0</ele><time>2026-05-02T13:45:39Z</time></trkpt><trkpt lat="45.976790024690104" lon="8.874353297788717"><ele>294.0</ele><time>2026-05-02T13:45:40Z</time></trkpt><trkpt lat="45.97672952909551" lon="8.874264120789872"><ele>294.0</ele><time>2026-05-02T13:45:41Z</time></trkpt><trkpt lat="45.976666745105945" lon="8.874174405947025"><ele>294.0</ele><time>2026-05-02T13:45:42Z</time></trkpt><trkpt lat="45.976606237981656" lon="8.874080042126465"><ele>294.0</ele><time>2026-05-02T13:45:43Z</time></trkpt><trkpt lat="45.97653615172411" lon="8.873974045193211"><ele>293.2</ele><time>2026-05-02T13:45:44Z</time></trkpt><trkpt lat="45.97646873211845" lon="8.873873764594792"><ele>292.4</ele><time>2026-05-02T13:45:45Z</time></trkpt><trkpt lat="45.97640266460938" lon="8.873775857840771"><ele>291.6</ele><time>2026-05-02T13:45:46Z</time></trkpt><trkpt lat="45.976333512804814" lon="8.873669647344604"><ele>290.8</ele><time>2026-05-02T13:45:47Z</time></trkpt><trkpt lat="45.97625906293423" lon="8.873550195332946"><ele>290.0</ele><time>2026-05-02T13:45:48Z</time></trkpt><trkpt lat="45.9761851144444" lon="8.873430058646305"><ele>289.6</ele><time>2026-05-02T13:45:49Z</time></trkpt><trkpt lat="45.976108330656" lon="8.87331189555532"><ele>289.2</ele><time>2026-05-02T13:45:50Z</time></trkpt><trkpt lat="45.97603513504456" lon="8.873199065204169"><ele>288.8</ele><time>2026-05-02T13:45:51Z</time></trkpt><trkpt lat="45.97596551831178" lon="8.873095742628704"><ele>288.4</ele><time>2026-05-02T13:45:52Z</time></trkpt><trkpt lat="45.97590444946323" lon="8.872995285591637"><ele>288.0</ele><time>2026-05-02T13:45:53Z</time></trkpt><trkpt lat="45.975838189978205" lon="8.872901233358714"><ele>288.0</ele><time>2026-05-02T13:45:54Z</time></trkpt><trkpt lat="45.97577619734216" lon="8.872807738011659"><ele>288.0</ele><time>2026-05-02T13:45:55Z</time></trkpt><trkpt lat="45.97571740148784" lon="8.872707963188667"><ele>288.0</ele><time>2026-05-02T13:45:56Z</time></trkpt><trkpt lat="45.97565918735118" lon="8.872606305037475"><ele>288.0</ele><time>2026-05-02T13:45:57Z</time></trkpt><trkpt lat="45.97559260802482" lon="8.872503243169252"><ele>288.0</ele><time>2026-05-02T13:45:58Z</time></trkpt><trkpt lat="45.97553181262692" lon="8.872404123570247"><ele>289.0</ele><time>2026-05-02T13:45:59Z</time></trkpt><trkpt lat="45.97546527720978" lon="8.872310985668253"><ele>290.0</ele><time>2026-05-02T13:46:00Z</time></trkpt><trkpt lat="45.975393097813296" lon="8.872204073070852"><ele>291.0</ele><time>2026-05-02T13:46:01Z</time></trkpt><trkpt lat="45.975313524405294" lon="8.872078051667765"><ele>292.0</ele><time>2026-05-02T13:46:02Z</time></trkpt><trkpt lat="45.97520365265353" lon="8.871943145381286"><ele>292.0</ele><time>2026-05-02T13:46:03Z</time></trkpt><trkpt lat="45.975108516224644" lon="8.871801168324827"><ele>292.0</ele><time>2026-05-02T13:46:04Z</time></trkpt><trkpt lat="45.97502555325096" lon="8.871662541345172"><ele>292.0</ele><time>2026-05-02T13:46:05Z</time></trkpt><trkpt lat="45.97494074372283" lon="8.871511296918865"><ele>292.0</ele><time>2026-05-02T13:46:06Z</time></trkpt><trkpt lat="45.974869412831694" lon="8.871372053323297"><ele>292.75</ele><time>2026-05-02T13:46:07Z</time></trkpt><trkpt lat="45.97478921789527" lon="8.871254081021196"><ele>293.5</ele><time>2026-05-02T13:46:08Z</time></trkpt><trkpt lat="45.9747044895726" lon="8.871133731891433"><ele>294.25</ele><time>2026-05-02T13:46:09Z</time></trkpt><trkpt lat="45.974601091663104" lon="8.871004798477957"><ele>295.0</ele><time>2026-05-02T13:46:10Z</time></trkpt><trkpt lat="45.97450484735247" lon="8.8708772406274"><ele>295.0</ele><time>2026-05-02T13:46:11Z</time></trkpt><trkpt lat="45.97441531809249" lon="8.870734030901541"><ele>295.0</ele><time>2026-05-02T13:46:12Z</time></trkpt><trkpt lat="45.974335143368734" lon="8.870590511704446"><ele>295.0</ele><time>2026-05-02T13:46:13Z</time></trkpt><trkpt lat="45.9742471676494" lon="8.870431146497921"><ele>295.0</ele><time>2026-05-02T13:46:14Z</time></trkpt><trkpt lat="45.97416711085604" lon="8.870294680119262"><ele>293.5</ele><time>2026-05-02T13:46:15Z</time></trkpt><trkpt lat="45.97408582143073" lon="8.870154593415478"><ele>292.0</ele><time>2026-05-02T13:46:16Z</time></trkpt><trkpt lat="45.97400716965584" lon="8.87002122859031"><ele>290.5</ele><time>2026-05-02T13:46:17Z</time></trkpt><trkpt lat="45.97392003911326" lon="8.86989390092292"><ele>289.0</ele><time>2026-05-02T13:46:18Z</time></trkpt><trkpt lat="45.97384691324117" lon="8.869769208782259"><ele>289.0</ele><time>2026-05-02T13:46:19Z</time></trkpt><trkpt lat="45.973737662220344" lon="8.86961882511714"><ele>289.0</ele><time>2026-05-02T13:46:20Z</time></trkpt><trkpt lat="45.97365518654611" lon="8.869492490330446"><ele>289.0</ele><time>2026-05-02T13:46:21Z</time></trkpt><trkpt lat="45.97357336762004" lon="8.869370607951737"><ele>289.0</ele><time>2026-05-02T13:46:22Z</time></trkpt><trkpt lat="45.9734989450886" lon="8.869236730940727"><ele>287.5</ele><time>2026-05-02T13:46:23Z</time></trkpt><trkpt lat="45.97342847018609" lon="8.869096365900448"><ele>286.0</ele><time>2026-05-02T13:46:24Z</time></trkpt><trkpt lat="45.97334824038193" lon="8.868966988295554"><ele>284.5</ele><time>2026-05-02T13:46:25Z</time></trkpt><trkpt lat="45.97326179425036" lon="8.868843789771415"><ele>283.0</ele><time>2026-05-02T13:46:26Z</time></trkpt><trkpt lat="45.973191550577944" lon="8.8687176061648"><ele>283.0</ele><time>2026-05-02T13:46:27Z</time></trkpt><trkpt lat="45.97310792044887" lon="8.868590582860584"><ele>283.0</ele><time>2026-05-02T13:46:28Z</time></trkpt><trkpt lat="45.97302696289352" lon="8.868464277992008"><ele>283.0</ele><time>2026-05-02T13:46:29Z</time></trkpt><trkpt lat="45.97294083974893" lon="8.868339448104281"><ele>283.0</ele><time>2026-05-02T13:46:30Z</time></trkpt><trkpt lat="45.97286133422533" lon="8.868219212949327"><ele>282.0</ele><time>2026-05-02T13:46:31Z</time></trkpt><trkpt lat="45.97277659435159" lon="8.868098420306236"><ele>281.0</ele><time>2026-05-02T13:46:32Z</time></trkpt><trkpt lat="45.97268835360958" lon="8.867979571397424"><ele>280.0</ele><time>2026-05-02T13:46:33Z</time></trkpt><trkpt lat="45.97259876733254" lon="8.867851465920278"><ele>279.0</ele><time>2026-05-02T13:46:34Z</time></trkpt><trkpt lat="45.97251868283783" lon="8.867721753884732"><ele>282.0</ele><time>2026-05-02T13:46:35Z</time></trkpt><trkpt lat="45.97244131680317" lon="8.86759169619142"><ele>285.0</ele><time>2026-05-02T13:46:36Z</time></trkpt><trkpt lat="45.972352007718335" lon="8.867461191076666"><ele>288.0</ele><time>2026-05-02T13:46:37Z</time></trkpt><trkpt lat="45.972269691645835" lon="8.867338831149423"><ele>291.0</ele><time>2026-05-02T13:46:38Z</time></trkpt><trkpt lat="45.972185089793555" lon="8.867199385096601"><ele>291.0</ele><time>2026-05-02T13:46:39Z</time></trkpt><trkpt lat="45.972102625572" lon="8.867074818153204"><ele>291.0</ele><time>2026-05-02T13:46:40Z</time></trkpt><trkpt lat="45.972016891887364" lon="8.866952622695859"><ele>291.0</ele><time>2026-05-02T13:46:41Z</time></trkpt><trkpt lat="45.9719300456238" lon="8.866816312946055"><ele>291.0</ele><time>2026-05-02T13:46:42Z</time></trkpt><trkpt lat="45.97184170102536" lon="8.866682040606065"><ele>288.75</ele><time>2026-05-02T13:46:43Z</time></trkpt><trkpt lat="45.97176000972416" lon="8.866537998697423"><ele>286.5</ele><time>2026-05-02T13:46:44Z</time></trkpt><trkpt lat="45.97167416222" lon="8.866400332307506"><ele>284.25</ele><time>2026-05-02T13:46:45Z</time></trkpt><trkpt lat="45.97159096122224" lon="8.86626589816731"><ele>282.0</ele><time>2026-05-02T13:46:46Z</time></trkpt><trkpt lat="45.9715102244928" lon="8.866114563961595"><ele>282.0</ele><time>2026-05-02T13:46:47Z</time></trkpt><trkpt lat="45.971438238955244" lon="8.865955248742164"><ele>282.0</ele><time>2026-05-02T13:46:48Z</time></trkpt><trkpt lat="45.97137466170451" lon="8.865786477488617"><ele>282.0</ele><time>2026-05-02T13:46:49Z</time></trkpt><trkpt lat="45.97131893303574" lon="8.865608985762215"><ele>282.0</ele><time>2026-05-02T13:46:50Z</time></trkpt><trkpt lat="45.971266991626514" lon="8.86543373086286"><ele>284.5</ele><time>2026-05-02T13:46:51Z</time></trkpt><trkpt lat="45.97121650974546" lon="8.865256141344826"><ele>287.0</ele><time>2026-05-02T13:46:52Z</time></trkpt><trkpt lat="45.97117270599006" lon="8.865075661182646"><ele>289.5</ele><time>2026-05-02T13:46:53Z</time></trkpt><trkpt lat="45.97112725375422" lon="8.864897897643502"><ele>292.0</ele><time>2026-05-02T13:46:54Z</time></trkpt><trkpt lat="45.97107930281415" lon="8.864709801929235"><ele>295.5</ele><time>2026-05-02T13:46:55Z</time></trkpt><trkpt lat="45.971035206578264" lon="8.864527916535277"><ele>299.0</ele><time>2026-05-02T13:46:56Z</time></trkpt><trkpt lat="45.97098049753886" lon="8.864346681875345"><ele>302.5</ele><time>2026-05-02T13:46:57Z</time></trkpt><trkpt lat="45.97093351569616" lon="8.864167145872374"><ele>306.0</ele><time>2026-05-02T13:46:58Z</time></trkpt><trkpt lat="45.970881144040945" lon="8.863988198145018"><ele>302.0</ele><time>2026-05-02T13:46:59Z</time></trkpt><trkpt lat="45.970833748853885" lon="8.863812476060627"><ele>298.0</ele><time>2026-05-02T13:47:00Z</time></trkpt><trkpt lat="45.97078102325077" lon="8.86363573630935"><ele>294.0</ele><time>2026-05-02T13:47:01Z</time></trkpt><trkpt lat="45.97073265906171" lon="8.863458858206847"><ele>290.0</ele><time>2026-05-02T13:47:02Z</time></trkpt><trkpt lat="45.97068801088136" lon="8.863294883839492"><ele>290.0</ele><time>2026-05-02T13:47:03Z</time></trkpt><trkpt lat="45.970644279037046" lon="8.86315421323861"><ele>290.0</ele><time>2026-05-02T13:47:04Z</time></trkpt><trkpt lat="45.97060768143651" lon="8.86303850614452"><ele>290.0</ele><time>2026-05-02T13:47:05Z</time></trkpt><trkpt lat="45.97057523939699" lon="8.862935666258009"><ele>290.0</ele><time>2026-05-02T13:47:06Z</time></trkpt><trkpt lat="45.97060869539073" lon="8.862851926769942"><ele>290.0</ele><time>2026-05-02T13:47:22Z</time></trkpt><trkpt lat="45.97058795988566" lon="8.86276157197928"><ele>290.0</ele><time>2026-05-02T13:47:24Z</time></trkpt><trkpt lat="45.970569024281126" lon="8.862657544740244"><ele>291.5</ele><time>2026-05-02T13:47:25Z</time></trkpt><trkpt lat="45.97053970571022" lon="8.862548841044736"><ele>293.0</ele><time>2026-05-02T13:47:26Z</time></trkpt><trkpt lat="45.9704866166133" lon="8.862397435086036"><ele>294.5</ele><time>2026-05-02T13:47:27Z</time></trkpt><trkpt lat="45.970446096043865" lon="8.862248352943"><ele>296.0</ele><time>2026-05-02T13:47:28Z</time></trkpt><trkpt lat="45.970409791400016" lon="8.86205436668578"><ele>296.0</ele><time>2026-05-02T13:47:29Z</time></trkpt><trkpt lat="45.9703642076351" lon="8.861895685104887"><ele>296.0</ele><time>2026-05-02T13:47:30Z</time></trkpt><trkpt lat="45.97031929519977" lon="8.861721424342543"><ele>296.0</ele><time>2026-05-02T13:47:31Z</time></trkpt><trkpt lat="45.9702666319707" lon="8.861565605785026"><ele>296.0</ele><time>2026-05-02T13:47:32Z</time></trkpt><trkpt lat="45.97024494724773" lon="8.861425778451162"><ele>296.0</ele><time>2026-05-02T13:47:33Z</time></trkpt><trkpt lat="45.97025418764059" lon="8.861290091469778"><ele>296.0</ele><time>2026-05-02T13:47:34Z</time></trkpt><trkpt lat="45.97019833566541" lon="8.86114033585427"><ele>296.0</ele><time>2026-05-02T13:47:35Z</time></trkpt><trkpt lat="45.97014195321412" lon="8.861010526484252"><ele>296.0</ele><time>2026-05-02T13:47:36Z</time></trkpt><trkpt lat="45.97003491443003" lon="8.860962790609642"><ele>296.0</ele><time>2026-05-02T13:47:37Z</time></trkpt><trkpt lat="45.969996465797365" lon="8.860890910448072"><ele>293.1666666666667</ele><time>2026-05-02T13:47:38Z</time></trkpt><trkpt lat="45.9699520397966" lon="8.860826444289795"><ele>290.33333333333337</ele><time>2026-05-02T13:47:39Z</time></trkpt><trkpt lat="45.969873240979844" lon="8.860708423203095"><ele>287.5</ele><time>2026-05-02T13:47:41Z</time></trkpt><trkpt lat="45.96982023919016" lon="8.860645243272993"><ele>284.6666666666667</ele><time>2026-05-02T13:47:42Z</time></trkpt><trkpt lat="45.96974464524306" lon="8.860548004559636"><ele>281.8333333333333</ele><time>2026-05-02T13:47:43Z</time></trkpt><trkpt lat="45.96965074059655" lon="8.860490800471835"><ele>279.0</ele><time>2026-05-02T13:47:44Z</time></trkpt><trkpt lat="45.96955996288151" lon="8.860413697609168"><ele>279.0</ele><time>2026-05-02T13:47:45Z</time></trkpt><trkpt lat="45.96946129375993" lon="8.860358538152761"><ele>279.0</ele><time>2026-05-02T13:47:46Z</time></trkpt><trkpt lat="45.96936691256783" lon="8.86032668954812"><ele>279.0</ele><time>2026-05-02T13:47:47Z</time></trkpt><trkpt lat="45.96925429215283" lon="8.860298893100316"><ele>279.0</ele><time>2026-05-02T13:47:48Z</time></trkpt><trkpt lat="45.96913430398855" lon="8.860295737324718"><ele>279.0</ele><time>2026-05-02T13:47:49Z</time></trkpt><trkpt lat="45.96901782039449" lon="8.86027608398528"><ele>277.8</ele><time>2026-05-02T13:47:50Z</time></trkpt><trkpt lat="45.96890768979278" lon="8.860264585083684"><ele>276.59999999999997</ele><time>2026-05-02T13:47:51Z</time></trkpt><trkpt lat="45.968803351068246" lon="8.860254688979627"><ele>275.4</ele><time>2026-05-02T13:47:52Z</time></trkpt><trkpt lat="45.968714459885604" lon="8.860247258255722"><ele>274.2</ele><time>2026-05-02T13:47:53Z</time></trkpt><trkpt lat="45.968634608418384" lon="8.860231204913408"><ele>273.0</ele><time>2026-05-02T13:47:54Z</time></trkpt><trkpt lat="45.96855156876767" lon="8.86022573110188"><ele>273.0</ele><time>2026-05-02T13:47:55Z</time></trkpt><trkpt lat="45.96846355703129" lon="8.860222865826376"><ele>273.0</ele><time>2026-05-02T13:47:56Z</time></trkpt><trkpt lat="45.96837254048394" lon="8.860214615891461"><ele>273.0</ele><time>2026-05-02T13:47:57Z</time></trkpt><trkpt lat="45.96827859256647" lon="8.860202029425805"><ele>273.0</ele><time>2026-05-02T13:47:58Z</time></trkpt><trkpt lat="45.96819329498977" lon="8.860189244881566"><ele>273.0</ele><time>2026-05-02T13:47:59Z</time></trkpt><trkpt lat="45.968118632758184" lon="8.860168577326036"><ele>273.0</ele><time>2026-05-02T13:48:00Z</time></trkpt><trkpt lat="45.9680166663101" lon="8.860156870947165"><ele>272.85714285714283</ele><time>2026-05-02T13:48:02Z</time></trkpt><trkpt lat="45.967954391806636" lon="8.860129134192086"><ele>272.7142857142857</ele><time>2026-05-02T13:48:06Z</time></trkpt><trkpt lat="45.96788951575715" lon="8.860106708732177"><ele>272.57142857142856</ele><time>2026-05-02T13:48:17Z</time></trkpt><trkpt lat="45.967830402235776" lon="8.860073370723656"><ele>272.42857142857144</ele><time>2026-05-02T13:48:27Z</time></trkpt><trkpt lat="45.967754975742494" lon="8.860036157693566"><ele>272.2857142857143</ele><time>2026-05-02T13:48:37Z</time></trkpt><trkpt lat="45.967707191771666" lon="8.859972899392488"><ele>272.1428571428571</ele><time>2026-05-02T13:48:58Z</time></trkpt><trkpt lat="45.967661751244606" lon="8.859902158824163"><ele>272.0</ele><time>2026-05-02T13:49:04Z</time></trkpt><trkpt lat="45.967593726680164" lon="8.859829388570692"><ele>272.57142857142856</ele><time>2026-05-02T13:49:19Z</time></trkpt><trkpt lat="45.96754557866239" lon="8.8597542995123"><ele>273.1428571428571</ele><time>2026-05-02T13:49:28Z</time></trkpt><trkpt lat="45.96749555632603" lon="8.8596865839893"><ele>273.7142857142857</ele><time>2026-05-02T13:49:33Z</time></trkpt><trkpt lat="45.96744427822932" lon="8.859601697575584"><ele>274.2857142857143</ele><time>2026-05-02T13:49:38Z</time></trkpt><trkpt lat="45.96741250948612" lon="8.859520265757894"><ele>274.8571428571429</ele><time>2026-05-02T13:49:47Z</time></trkpt><trkpt lat="45.967444044999894" lon="8.859601630976204"><ele>275.42857142857144</ele><time>2026-05-02T13:50:18Z</time></trkpt><trkpt lat="45.96741164556374" lon="8.859523204421288"><ele>276.0</ele><time>2026-05-02T13:50:25Z</time></trkpt><trkpt lat="45.96736431309452" lon="8.859414811599219"><ele>276.0</ele><time>2026-05-02T13:50:31Z</time></trkpt><trkpt lat="45.96732602462966" lon="8.859333342686721"><ele>276.0</ele><time>2026-05-02T13:50:34Z</time></trkpt><trkpt lat="45.96727010731547" lon="8.85927403188483"><ele>276.0</ele><time>2026-05-02T13:50:49Z</time></trkpt><trkpt lat="45.96721097174701" lon="8.859207205724523"><ele>276.0</ele><time>2026-05-02T13:50:53Z</time></trkpt><trkpt lat="45.96717019304335" lon="8.859132753175379"><ele>276.0</ele><time>2026-05-02T13:51:06Z</time></trkpt><trkpt lat="45.96715171830806" lon="8.859042816393945"><ele>276.0</ele><time>2026-05-02T13:51:25Z</time></trkpt><trkpt lat="45.96710148182091" lon="8.858986236505766"><ele>276.0</ele><time>2026-05-02T13:51:28Z</time></trkpt><trkpt lat="45.96703990477129" lon="8.858943460455814"><ele>275.8</ele><time>2026-05-02T13:51:32Z</time></trkpt><trkpt lat="45.96699487582789" lon="8.858878589702154"><ele>275.6</ele><time>2026-05-02T13:51:36Z</time></trkpt><trkpt lat="45.96693306870386" lon="8.8587887793166"><ele>275.4</ele><time>2026-05-02T13:51:40Z</time></trkpt><trkpt lat="45.96684215127625" lon="8.858680668888299"><ele>275.2</ele><time>2026-05-02T13:51:58Z</time></trkpt><trkpt lat="45.966772049372665" lon="8.858544390761333"><ele>275.0</ele><time>2026-05-02T13:52:00Z</time></trkpt><trkpt lat="45.966724229375245" lon="8.858462876645525"><ele>275.0</ele><time>2026-05-02T13:52:01Z</time></trkpt><trkpt lat="45.966674186889044" lon="8.85837715764252"><ele>275.0</ele><time>2026-05-02T13:52:02Z</time></trkpt><trkpt lat="45.966634221670496" lon="8.858306279023003"><ele>275.0</ele><time>2026-05-02T13:52:03Z</time></trkpt><trkpt lat="45.96655330430922" lon="8.85816415878756"><ele>275.0</ele><time>2026-05-02T13:52:05Z</time></trkpt><trkpt lat="45.9665034318759" lon="8.858076563322985"><ele>275.0</ele><time>2026-05-02T13:52:06Z</time></trkpt><trkpt lat="45.96682318791201" lon="8.858632312728535"><ele>275.0</ele><time>2026-05-02T13:52:14Z</time></trkpt><trkpt lat="45.966782117137605" lon="8.858523844514348"><ele>275.0</ele><time>2026-05-02T13:52:18Z</time></trkpt><trkpt lat="45.96673539458474" lon="8.858440490164382"><ele>275.0</ele><time>2026-05-02T13:52:20Z</time></trkpt><trkpt lat="45.96669240703726" lon="8.858353765490405"><ele>275.0</ele><time>2026-05-02T13:52:23Z</time></trkpt><trkpt lat="45.96663716970377" lon="8.858246789069476"><ele>275.0</ele><time>2026-05-02T13:52:25Z</time></trkpt><trkpt lat="45.96659282714719" lon="8.858153767157738"><ele>275.0</ele><time>2026-05-02T13:52:27Z</time></trkpt><trkpt lat="45.966548021726055" lon="8.857982847378477"><ele>275.4</ele><time>2026-05-02T13:52:29Z</time></trkpt><trkpt lat="45.966468869377664" lon="8.857856857274587"><ele>275.8</ele><time>2026-05-02T13:52:31Z</time></trkpt><trkpt lat="45.966412397662026" lon="8.857775656070286"><ele>276.2</ele><time>2026-05-02T13:52:54Z</time></trkpt><trkpt lat="45.96637602718486" lon="8.857680035317516"><ele>276.6</ele><time>2026-05-02T13:52:58Z</time></trkpt><trkpt lat="45.96640284870199" lon="8.857584633064048"><ele>277.0</ele><time>2026-05-02T13:53:01Z</time></trkpt><trkpt lat="45.96647973037734" lon="8.857468110035645"><ele>277.0</ele><time>2026-05-02T13:53:06Z</time></trkpt><trkpt lat="45.96654209835721" lon="8.857371871752775"><ele>277.0</ele><time>2026-05-02T13:53:08Z</time></trkpt><trkpt lat="45.96662533678474" lon="8.857215792167203"><ele>277.0</ele><time>2026-05-02T13:53:10Z</time></trkpt><trkpt lat="45.966669578104245" lon="8.857122102563771"><ele>277.0</ele><time>2026-05-02T13:53:11Z</time></trkpt><trkpt lat="45.966704794499066" lon="8.857045336233556"><ele>277.0</ele><time>2026-05-02T13:53:12Z</time></trkpt><trkpt lat="45.96675485762664" lon="8.856936205718853"><ele>277.0</ele><time>2026-05-02T13:53:14Z</time></trkpt><trkpt lat="45.96679727129719" lon="8.856855536107025"><ele>277.0</ele><time>2026-05-02T13:53:17Z</time></trkpt><trkpt lat="45.9668445897572" lon="8.856776366599346"><ele>277.0</ele><time>2026-05-02T13:53:20Z</time></trkpt><trkpt lat="45.966901145385165" lon="8.856680110754363"><ele>277.0</ele><time>2026-05-02T13:53:42Z</time></trkpt><trkpt lat="45.96695444307989" lon="8.856584775620084"><ele>277.0</ele><time>2026-05-02T13:53:44Z</time></trkpt><trkpt lat="45.967028688712645" lon="8.856448621283414"><ele>277.0</ele><time>2026-05-02T13:53:46Z</time></trkpt><trkpt lat="45.96706888613988" lon="8.85637306800394"><ele>276.8</ele><time>2026-05-02T13:53:47Z</time></trkpt><trkpt lat="45.9671065617767" lon="8.856289680736356"><ele>276.6</ele><time>2026-05-02T13:53:48Z</time></trkpt><trkpt lat="45.967138321811504" lon="8.856183508905055"><ele>276.40000000000003</ele><time>2026-05-02T13:53:49Z</time></trkpt><trkpt lat="45.967173181461355" lon="8.856017680462866"><ele>276.2</ele><time>2026-05-02T13:53:51Z</time></trkpt><trkpt lat="45.96720371079758" lon="8.855906855744655"><ele>276.0</ele><time>2026-05-02T13:53:52Z</time></trkpt><trkpt lat="45.967191567474664" lon="8.855761054493254"><ele>276.8</ele><time>2026-05-02T13:53:54Z</time></trkpt><trkpt lat="45.96724031755554" lon="8.85559691220258"><ele>277.6</ele><time>2026-05-02T13:53:56Z</time></trkpt><trkpt lat="45.96726547450099" lon="8.855506823206913"><ele>278.4</ele><time>2026-05-02T13:53:57Z</time></trkpt><trkpt lat="45.96728664667437" lon="8.85541078898162"><ele>279.2</ele><time>2026-05-02T13:53:58Z</time></trkpt><trkpt lat="45.967323049635766" lon="8.855243593995482"><ele>280.0</ele><time>2026-05-02T13:54:00Z</time></trkpt><trkpt lat="45.96735227394294" lon="8.855153466293865"><ele>280.3333333333333</ele><time>2026-05-02T13:54:01Z</time></trkpt><trkpt lat="45.96736481624063" lon="8.855060979648071"><ele>280.66666666666663</ele><time>2026-05-02T13:54:02Z</time></trkpt><trkpt lat="45.96739327497071" lon="8.854962362431676"><ele>281.0</ele><time>2026-05-02T13:54:03Z</time></trkpt><trkpt lat="45.96741493970923" lon="8.854849348580194"><ele>281.3333333333333</ele><time>2026-05-02T13:54:04Z</time></trkpt><trkpt lat="45.96743730457428" lon="8.854735893299654"><ele>281.6666666666667</ele><time>2026-05-02T13:54:05Z</time></trkpt><trkpt lat="45.96746051682879" lon="8.854608320978532"><ele>282.0</ele><time>2026-05-02T13:54:06Z</time></trkpt><trkpt lat="45.96748579924685" lon="8.854463206436664"><ele>282.0</ele><time>2026-05-02T13:54:07Z</time></trkpt><trkpt lat="45.967505802947734" lon="8.854343625717544"><ele>282.0</ele><time>2026-05-02T13:54:08Z</time></trkpt><trkpt lat="45.96753309889043" lon="8.854207167509964"><ele>282.0</ele><time>2026-05-02T13:54:10Z</time></trkpt><trkpt lat="45.967622683169324" lon="8.854247444545987"><ele>282.0</ele><time>2026-05-02T13:54:12Z</time></trkpt><trkpt lat="45.96768167845492" lon="8.854331320683517"><ele>282.0</ele><time>2026-05-02T13:54:14Z</time></trkpt><trkpt lat="45.96771041190405" lon="8.854445832041579"><ele>282.0</ele><time>2026-05-02T13:54:16Z</time></trkpt><trkpt lat="45.96770325606269" lon="8.854613928221218"><ele>281.4</ele><time>2026-05-02T13:54:18Z</time></trkpt><trkpt lat="45.967719316945505" lon="8.854770565722845"><ele>280.79999999999995</ele><time>2026-05-02T13:54:20Z</time></trkpt><trkpt lat="45.96772108969202" lon="8.854890488148147"><ele>280.2</ele><time>2026-05-02T13:54:22Z</time></trkpt><trkpt lat="45.96773926910947" lon="8.855009990159765"><ele>279.59999999999997</ele><time>2026-05-02T13:54:24Z</time></trkpt><trkpt lat="45.9677776839085" lon="8.855085179768214"><ele>279.0</ele><time>2026-05-02T13:54:27Z</time></trkpt><trkpt lat="45.96785469489307" lon="8.854962781932528"><ele>279.0</ele><time>2026-05-02T13:54:29Z</time></trkpt><trkpt lat="45.96794094212584" lon="8.854876148566573"><ele>279.0</ele><time>2026-05-02T13:54:31.999Z</time></trkpt><trkpt lat="45.968020608455895" lon="8.85475597205782"><ele>279.0</ele><time>2026-05-02T13:54:33.999Z</time></trkpt><trkpt lat="45.968065848841746" lon="8.854687214810824"><ele>279.0</ele><time>2026-05-02T13:54:34.999Z</time></trkpt><trkpt lat="45.96813137410335" lon="8.854584010818645"><ele>279.0</ele><time>2026-05-02T13:54:36.999Z</time></trkpt><trkpt lat="45.96818331446256" lon="8.854506699503876"><ele>279.0</ele><time>2026-05-02T13:54:38.999Z</time></trkpt><trkpt lat="45.96826010571685" lon="8.854403332126003"><ele>279.0</ele><time>2026-05-02T13:54:41Z</time></trkpt><trkpt lat="45.968309346876694" lon="8.85431644826463"><ele>279.0</ele><time>2026-05-02T13:54:43Z</time></trkpt><trkpt lat="45.9683461495808" lon="8.854242573210353"><ele>279.0</ele><time>2026-05-02T13:54:47Z</time></trkpt><trkpt lat="45.96837058227795" lon="8.854119752877395"><ele>279.0</ele><time>2026-05-02T13:55:44Z</time></trkpt><trkpt lat="45.96841823254944" lon="8.854021528505218"><ele>279.0</ele><time>2026-05-02T13:55:46Z</time></trkpt><trkpt lat="45.968472206734845" lon="8.853912178145485"><ele>278.4</ele><time>2026-05-02T13:55:49Z</time></trkpt><trkpt lat="45.96853429506193" lon="8.853828564366298"><ele>277.79999999999995</ele><time>2026-05-02T13:55:51Z</time></trkpt><trkpt lat="45.96859627227249" lon="8.853722026529434"><ele>277.20000000000005</ele><time>2026-05-02T13:55:53Z</time></trkpt><trkpt lat="45.96865266292224" lon="8.85360619761443"><ele>276.6</ele><time>2026-05-02T13:55:55Z</time></trkpt><trkpt lat="45.96871278416502" lon="8.853476589071146"><ele>276.0</ele><time>2026-05-02T13:55:57Z</time></trkpt><trkpt lat="45.96878611001237" lon="8.853372243066767"><ele>276.0</ele><time>2026-05-02T13:55:59Z</time></trkpt><trkpt lat="45.96884811329595" lon="8.853249777724692"><ele>276.0</ele><time>2026-05-02T13:56:01Z</time></trkpt><trkpt lat="45.96891517193291" lon="8.853142399744787"><ele>276.0</ele><time>2026-05-02T13:56:03Z</time></trkpt><trkpt lat="45.96897528068815" lon="8.853079197265703"><ele>276.0</ele><time>2026-05-02T13:56:05Z</time></trkpt><trkpt lat="45.9691216367448" lon="8.852896870995853"><ele>276.0</ele><time>2026-05-02T14:11:13.001Z</time></trkpt><trkpt lat="45.96917860725786" lon="8.852831370943802"><ele>276.0</ele><time>2026-05-02T14:11:14.001Z</time></trkpt><trkpt lat="45.969235108376104" lon="8.852767297984414"><ele>276.0</ele><time>2026-05-02T14:11:15.001Z</time></trkpt><trkpt lat="45.96929223856099" lon="8.852705408977952"><ele>276.0</ele><time>2026-05-02T14:11:16.001Z</time></trkpt><trkpt lat="45.969367176328326" lon="8.852608386317497"><ele>276.0</ele><time>2026-05-02T14:11:18.001Z</time></trkpt><trkpt lat="45.96938031418407" lon="8.852444565343472"><ele>276.0</ele><time>2026-05-02T14:11:19.998Z</time></trkpt><trkpt lat="45.969339446174345" lon="8.852320123937195"><ele>276.0</ele><time>2026-05-02T14:11:21.998Z</time></trkpt><trkpt lat="45.96932661117838" lon="8.852154036542906"><ele>276.0</ele><time>2026-05-02T14:11:23.999Z</time></trkpt><trkpt lat="45.969312826768146" lon="8.85205567439168"><ele>276.0</ele><time>2026-05-02T14:11:24.999Z</time></trkpt><trkpt lat="45.96929182053493" lon="8.8519439323988"><ele>276.0</ele><time>2026-05-02T14:11:25.999Z</time></trkpt><trkpt lat="45.969256966680476" lon="8.851827768299177"><ele>276.0</ele><time>2026-05-02T14:11:26.999Z</time></trkpt><trkpt lat="45.969231085742884" lon="8.851739287759855"><ele>276.0</ele><time>2026-05-02T14:11:27.999Z</time></trkpt><trkpt lat="45.96916871213322" lon="8.851636065890432"><ele>276.2</ele><time>2026-05-02T14:11:29.999Z</time></trkpt><trkpt lat="45.96911675555032" lon="8.851580921579862"><ele>276.40000000000003</ele><time>2026-05-02T14:11:31.999Z</time></trkpt><trkpt lat="45.96916750939957" lon="8.851448703918315"><ele>276.6</ele><time>2026-05-02T14:11:35.999Z</time></trkpt><trkpt lat="45.969275452728446" lon="8.851307678497179"><ele>276.8</ele><time>2026-05-02T14:11:37.999Z</time></trkpt><trkpt lat="45.9693482035485" lon="8.851236049042713"><ele>277.0</ele><time>2026-05-02T14:11:38.999Z</time></trkpt><trkpt lat="45.96941501363135" lon="8.851146365875513"><ele>277.0</ele><time>2026-05-02T14:11:39.999Z</time></trkpt><trkpt lat="45.969495425047846" lon="8.851056011639452"><ele>277.0</ele><time>2026-05-02T14:11:40.999Z</time></trkpt><trkpt lat="45.969585245853615" lon="8.850965683224482"><ele>277.0</ele><time>2026-05-02T14:11:41.999Z</time></trkpt><trkpt lat="45.96967278268852" lon="8.85087070335536"><ele>277.0</ele><time>2026-05-02T14:11:42.999Z</time></trkpt><trkpt lat="45.96974794888806" lon="8.85077283860345"><ele>277.0</ele><time>2026-05-02T14:11:43.999Z</time></trkpt><trkpt lat="45.96982655229534" lon="8.85067062898114"><ele>276.75</ele><time>2026-05-02T14:11:44.999Z</time></trkpt><trkpt lat="45.96991910756014" lon="8.850575712233853"><ele>276.5</ele><time>2026-05-02T14:11:45.999Z</time></trkpt><trkpt lat="45.96999970284053" lon="8.850473740471504"><ele>276.25</ele><time>2026-05-02T14:11:46.999Z</time></trkpt><trkpt lat="45.97009716837195" lon="8.850378752102667"><ele>276.0</ele><time>2026-05-02T14:11:47.999Z</time></trkpt><trkpt lat="45.970195823097164" lon="8.850282676568968"><ele>276.0</ele><time>2026-05-02T14:11:48.999Z</time></trkpt><trkpt lat="45.970272387940994" lon="8.85017302638222"><ele>276.0</ele><time>2026-05-02T14:11:50Z</time></trkpt><trkpt lat="45.97033362801303" lon="8.850060821798188"><ele>276.0</ele><time>2026-05-02T14:11:51Z</time></trkpt><trkpt lat="45.97042648909373" lon="8.849947800867948"><ele>276.0</ele><time>2026-05-02T14:11:52Z</time></trkpt><trkpt lat="45.97050739441152" lon="8.849824483630318"><ele>276.0</ele><time>2026-05-02T14:11:53Z</time></trkpt><trkpt lat="45.97057386030188" lon="8.849690695528441"><ele>276.40000000000003</ele><time>2026-05-02T14:11:54Z</time></trkpt><trkpt lat="45.970633191100305" lon="8.84955680214369"><ele>276.8</ele><time>2026-05-02T14:11:55Z</time></trkpt><trkpt lat="45.970694855858426" lon="8.849423882487537"><ele>277.20000000000005</ele><time>2026-05-02T14:11:56Z</time></trkpt><trkpt lat="45.97074619519549" lon="8.849299915704083"><ele>277.6</ele><time>2026-05-02T14:11:57Z</time></trkpt><trkpt lat="45.970756135969566" lon="8.849192810003506"><ele>278.0</ele><time>2026-05-02T14:11:58Z</time></trkpt><trkpt lat="45.97072489075006" lon="8.84903611176954"><ele>278.6666666666667</ele><time>2026-05-02T14:11:59Z</time></trkpt><trkpt lat="45.97063930131106" lon="8.848751893525412"><ele>279.3333333333333</ele><time>2026-05-02T14:12:00Z</time></trkpt><trkpt lat="45.97056677636233" lon="8.848499718007455"><ele>280.0</ele><time>2026-05-02T14:12:01Z</time></trkpt><trkpt lat="45.970491301185945" lon="8.848278429598357"><ele>280.0</ele><time>2026-05-02T14:12:02Z</time></trkpt><trkpt lat="45.97032524477519" lon="8.848069825577838"><ele>280.0</ele><time>2026-05-02T14:12:03Z</time></trkpt><trkpt lat="45.971358514083754" lon="8.848089721401868"><ele>279.3333333333333</ele><time>2026-05-02T14:12:04Z</time></trkpt><trkpt lat="45.97145725242065" lon="8.847886643156372"><ele>278.6666666666667</ele><time>2026-05-02T14:12:05Z</time></trkpt><trkpt lat="45.971555608047304" lon="8.847683379171341"><ele>278.0</ele><time>2026-05-02T14:12:06Z</time></trkpt><trkpt lat="45.971651728936905" lon="8.847486378782579"><ele>276.33333333333337</ele><time>2026-05-02T14:12:07Z</time></trkpt><trkpt lat="45.97175077345763" lon="8.847282169865531"><ele>274.6666666666667</ele><time>2026-05-02T14:12:08Z</time></trkpt><trkpt lat="45.97185633143279" lon="8.847088620608176"><ele>273.0</ele><time>2026-05-02T14:12:09Z</time></trkpt><trkpt lat="45.97195909677872" lon="8.846912654685214"><ele>273.6666666666667</ele><time>2026-05-02T14:12:10Z</time></trkpt><trkpt lat="45.9720765010825" lon="8.846755180921644"><ele>274.33333333333337</ele><time>2026-05-02T14:12:11Z</time></trkpt><trkpt lat="45.972216259773035" lon="8.846627556768661"><ele>275.0</ele><time>2026-05-02T14:12:12Z</time></trkpt><trkpt lat="45.97236369434502" lon="8.846519155621904"><ele>275.0</ele><time>2026-05-02T14:12:13Z</time></trkpt><trkpt lat="45.97252187696537" lon="8.846418452505294"><ele>275.0</ele><time>2026-05-02T14:12:14Z</time></trkpt><trkpt lat="45.972684306931214" lon="8.846316532528272"><ele>275.0</ele><time>2026-05-02T14:12:15Z</time></trkpt><trkpt lat="45.972848185443354" lon="8.846214079731375"><ele>275.0</ele><time>2026-05-02T14:12:16Z</time></trkpt><trkpt lat="45.97301196348449" lon="8.84609141650036"><ele>275.0</ele><time>2026-05-02T14:12:17Z</time></trkpt><trkpt lat="45.97317068036775" lon="8.845948984014552"><ele>275.0</ele><time>2026-05-02T14:12:18Z</time></trkpt><trkpt lat="45.97331378256419" lon="8.84580194451473"><ele>275.0</ele><time>2026-05-02T14:12:19Z</time></trkpt><trkpt lat="45.97346373107167" lon="8.845630622993907"><ele>275.0</ele><time>2026-05-02T14:12:20Z</time></trkpt><trkpt lat="45.973617288021856" lon="8.845470432327012"><ele>275.0</ele><time>2026-05-02T14:12:21Z</time></trkpt><trkpt lat="45.97380808399766" lon="8.845352897990407"><ele>275.0</ele><time>2026-05-02T14:12:22Z</time></trkpt><trkpt lat="45.973994747404404" lon="8.845256324128467"><ele>275.0</ele><time>2026-05-02T14:12:23Z</time></trkpt><trkpt lat="45.974177520349656" lon="8.845176251691651"><ele>275.0</ele><time>2026-05-02T14:12:24Z</time></trkpt><trkpt lat="45.97435611465941" lon="8.845102749321713"><ele>276.0</ele><time>2026-05-02T14:12:25Z</time></trkpt><trkpt lat="45.97453388773447" lon="8.84501431264653"><ele>277.0</ele><time>2026-05-02T14:12:26Z</time></trkpt><trkpt lat="45.97471907041284" lon="8.8449239600386"><ele>278.0</ele><time>2026-05-02T14:12:27Z</time></trkpt><trkpt lat="45.97491256174552" lon="8.844835991591305"><ele>276.33333333333337</ele><time>2026-05-02T14:12:28Z</time></trkpt><trkpt lat="45.97509822872007" lon="8.844741623619946"><ele>274.6666666666667</ele><time>2026-05-02T14:12:29Z</time></trkpt><trkpt lat="45.975278657795265" lon="8.844645385049773"><ele>273.0</ele><time>2026-05-02T14:12:30Z</time></trkpt><trkpt lat="45.97545302376402" lon="8.84454214074034"><ele>273.0</ele><time>2026-05-02T14:12:31Z</time></trkpt><trkpt lat="45.97562382657813" lon="8.84441355184014"><ele>273.0</ele><time>2026-05-02T14:12:32Z</time></trkpt><trkpt lat="45.975797116903145" lon="8.844268443254816"><ele>273.0</ele><time>2026-05-02T14:12:33Z</time></trkpt><trkpt lat="45.97595138281196" lon="8.844100360090165"><ele>273.0</ele><time>2026-05-02T14:12:34Z</time></trkpt><trkpt lat="45.976099376227936" lon="8.843925213021176"><ele>273.0</ele><time>2026-05-02T14:12:35Z</time></trkpt><trkpt lat="45.97623453762127" lon="8.843714271203625"><ele>273.0</ele><time>2026-05-02T14:12:36Z</time></trkpt><trkpt lat="45.97638058962971" lon="8.84352782737247"><ele>273.3333333333333</ele><time>2026-05-02T14:12:37Z</time></trkpt><trkpt lat="45.97652945976438" lon="8.843369233401907"><ele>273.66666666666663</ele><time>2026-05-02T14:12:38.001Z</time></trkpt><trkpt lat="45.976716703054905" lon="8.84324016938952"><ele>274.0</ele><time>2026-05-02T14:12:39.001Z</time></trkpt><trkpt lat="45.976909317284694" lon="8.843155398106473"><ele>274.0</ele><time>2026-05-02T14:12:40.001Z</time></trkpt><trkpt lat="45.9770989892991" lon="8.843079793452604"><ele>274.0</ele><time>2026-05-02T14:12:41.001Z</time></trkpt><trkpt lat="45.977287971032" lon="8.843005761222065"><ele>274.0</ele><time>2026-05-02T14:12:42.001Z</time></trkpt><trkpt lat="45.97748399530456" lon="8.8429230554003"><ele>274.0</ele><time>2026-05-02T14:12:43.001Z</time></trkpt><trkpt lat="45.97767651204924" lon="8.842828932527532"><ele>274.0</ele><time>2026-05-02T14:12:44.001Z</time></trkpt><trkpt lat="45.97788537439008" lon="8.842737647674431"><ele>274.0</ele><time>2026-05-02T14:12:45.001Z</time></trkpt><trkpt lat="45.97808069530593" lon="8.842634531230743"><ele>274.3333333333333</ele><time>2026-05-02T14:12:46.001Z</time></trkpt><trkpt lat="45.97828257013741" lon="8.842518705930791"><ele>274.6666666666667</ele><time>2026-05-02T14:12:47.001Z</time></trkpt><trkpt lat="45.9784758467215" lon="8.842404591526975"><ele>275.0</ele><time>2026-05-02T14:12:48.001Z</time></trkpt><trkpt lat="45.97868515002735" lon="8.842271044582809"><ele>275.0</ele><time>2026-05-02T14:12:49.001Z</time></trkpt><trkpt lat="45.97895246441623" lon="8.842089883524112"><ele>275.0</ele><time>2026-05-02T14:12:50.001Z</time></trkpt><trkpt lat="45.97918717784011" lon="8.84196072031882"><ele>276.0</ele><time>2026-05-02T14:12:51.001Z</time></trkpt><trkpt lat="45.97940637984005" lon="8.841837342516708"><ele>277.0</ele><time>2026-05-02T14:12:52.001Z</time></trkpt><trkpt lat="45.979609893310084" lon="8.841707729800836"><ele>277.0</ele><time>2026-05-02T14:12:53.001Z</time></trkpt><trkpt lat="45.97979634190362" lon="8.841583888381443"><ele>277.0</ele><time>2026-05-02T14:12:54.001Z</time></trkpt><trkpt lat="45.979979816317694" lon="8.841437758588668"><ele>277.0</ele><time>2026-05-02T14:12:55.001Z</time></trkpt><trkpt lat="45.98017179150855" lon="8.841263654822015"><ele>276.5</ele><time>2026-05-02T14:12:56.001Z</time></trkpt><trkpt lat="45.980374653527406" lon="8.841057249832334"><ele>276.0</ele><time>2026-05-02T14:12:57.001Z</time></trkpt><trkpt lat="45.98056778611051" lon="8.840845588188769"><ele>276.0</ele><time>2026-05-02T14:12:58.001Z</time></trkpt><trkpt lat="45.98076226060394" lon="8.840626885242953"><ele>276.0</ele><time>2026-05-02T14:12:59.001Z</time></trkpt><trkpt lat="45.9809533187874" lon="8.840397930794461"><ele>277.0</ele><time>2026-05-02T14:13:00.001Z</time></trkpt><trkpt lat="45.98112328372857" lon="8.840149710505596"><ele>278.0</ele><time>2026-05-02T14:13:01.001Z</time></trkpt><trkpt lat="45.98128577350864" lon="8.839926087158991"><ele>278.0</ele><time>2026-05-02T14:13:02.001Z</time></trkpt><trkpt lat="45.98143046766961" lon="8.839737135469363"><ele>278.0</ele><time>2026-05-02T14:13:03.001Z</time></trkpt><trkpt lat="45.98160790427578" lon="8.839558964415652"><ele>278.0</ele><time>2026-05-02T14:13:04.001Z</time></trkpt><trkpt lat="45.981807059588206" lon="8.83944070042055"><ele>276.0</ele><time>2026-05-02T14:13:05.001Z</time></trkpt><trkpt lat="45.98202841358631" lon="8.839341046944941"><ele>274.0</ele><time>2026-05-02T14:13:06.001Z</time></trkpt><trkpt lat="45.982249544327864" lon="8.839250400840747"><ele>274.0</ele><time>2026-05-02T14:13:07.001Z</time></trkpt><trkpt lat="45.98246055892965" lon="8.83916378387055"><ele>274.0</ele><time>2026-05-02T14:13:08.001Z</time></trkpt><trkpt lat="45.982688152933285" lon="8.839043367934845"><ele>274.0</ele><time>2026-05-02T14:13:09.001Z</time></trkpt><trkpt lat="45.98291214430389" lon="8.838893131344852"><ele>274.0</ele><time>2026-05-02T14:13:10.001Z</time></trkpt><trkpt lat="45.98311991468125" lon="8.8387206477077"><ele>274.0</ele><time>2026-05-02T14:13:11.001Z</time></trkpt><trkpt lat="45.983307612400736" lon="8.838539848876113"><ele>274.0</ele><time>2026-05-02T14:13:12.001Z</time></trkpt><trkpt lat="45.98349559244414" lon="8.838378250818753"><ele>274.0</ele><time>2026-05-02T14:13:13.001Z</time></trkpt><trkpt lat="45.983661110232056" lon="8.8382176674872"><ele>273.66666666666663</ele><time>2026-05-02T14:13:14.001Z</time></trkpt><trkpt lat="45.98383894911843" lon="8.83801921682278"><ele>273.3333333333333</ele><time>2026-05-02T14:13:15.001Z</time></trkpt><trkpt lat="45.983962102642536" lon="8.837846301810227"><ele>273.0</ele><time>2026-05-02T14:13:16.001Z</time></trkpt><trkpt lat="45.984015651014595" lon="8.837609575264047"><ele>272.3333333333333</ele><time>2026-05-02T14:13:17.001Z</time></trkpt><trkpt lat="45.9841180163865" lon="8.837369458453486"><ele>271.66666666666663</ele><time>2026-05-02T14:13:18.001Z</time></trkpt><trkpt lat="45.98421436852787" lon="8.837119802601402"><ele>271.0</ele><time>2026-05-02T14:13:19.001Z</time></trkpt><trkpt lat="45.984290168342866" lon="8.836848863929742"><ele>270.66666666666663</ele><time>2026-05-02T14:13:20.001Z</time></trkpt><trkpt lat="45.98435902892801" lon="8.83657959919223"><ele>270.3333333333333</ele><time>2026-05-02T14:13:21.001Z</time></trkpt><trkpt lat="45.98438992171617" lon="8.836234625802666"><ele>270.0</ele><time>2026-05-02T14:13:22.001Z</time></trkpt><trkpt lat="45.98439473882769" lon="8.835951249879388"><ele>270.0</ele><time>2026-05-02T14:13:23.001Z</time></trkpt><trkpt lat="45.98443294136238" lon="8.83557833398647"><ele>270.0</ele><time>2026-05-02T14:13:24.001Z</time></trkpt><trkpt lat="45.98448153795786" lon="8.835281966489198"><ele>269.6666666666667</ele><time>2026-05-02T14:13:24.999Z</time></trkpt><trkpt lat="45.9845587165465" lon="8.834990876246229"><ele>269.33333333333337</ele><time>2026-05-02T14:13:25.999Z</time></trkpt><trkpt lat="45.98465859558638" lon="8.834721681965513"><ele>269.0</ele><time>2026-05-02T14:13:26.999Z</time></trkpt><trkpt lat="45.98477243161048" lon="8.834449033652325"><ele>270.0</ele><time>2026-05-02T14:13:27.999Z</time></trkpt><trkpt lat="45.98490287464081" lon="8.834199626434934"><ele>271.0</ele><time>2026-05-02T14:13:28.999Z</time></trkpt><trkpt lat="45.9850386191403" lon="8.833954198870941"><ele>272.0</ele><time>2026-05-02T14:13:29.999Z</time></trkpt><trkpt lat="45.985188023247105" lon="8.833726150010886"><ele>272.0</ele><time>2026-05-02T14:13:30.999Z</time></trkpt><trkpt lat="45.98534737339988" lon="8.8335255073984"><ele>272.0</ele><time>2026-05-02T14:13:31.999Z</time></trkpt><trkpt lat="45.985553384330935" lon="8.833388194659"><ele>272.0</ele><time>2026-05-02T14:13:32.999Z</time></trkpt><trkpt lat="45.98572989494558" lon="8.833287268543666"><ele>273.0</ele><time>2026-05-02T14:13:33.999Z</time></trkpt><trkpt lat="45.98585311342352" lon="8.833248097890529"><ele>274.0</ele><time>2026-05-02T14:13:34.999Z</time></trkpt><trkpt lat="45.98592380328129" lon="8.833260385058738"><ele>275.0</ele><time>2026-05-02T14:13:35.999Z</time></trkpt><trkpt lat="45.98603286033559" lon="8.833093883335662"><ele>276.0</ele><time>2026-05-02T14:13:36.999Z</time></trkpt><trkpt lat="45.9861593055791" lon="8.832938255048026"><ele>276.0</ele><time>2026-05-02T14:13:37.999Z</time></trkpt><trkpt lat="45.986306990420694" lon="8.832822491216637"><ele>276.0</ele><time>2026-05-02T14:13:38.999Z</time></trkpt><trkpt lat="45.9865138152844" lon="8.832731356848749"><ele>276.0</ele><time>2026-05-02T14:13:39.999Z</time></trkpt><trkpt lat="45.98668920843813" lon="8.832652395938853"><ele>274.0</ele><time>2026-05-02T14:13:40.999Z</time></trkpt><trkpt lat="45.98684191663577" lon="8.832575312309574"><ele>272.0</ele><time>2026-05-02T14:13:41.999Z</time></trkpt><trkpt lat="45.98699271562143" lon="8.832497417190682"><ele>270.0</ele><time>2026-05-02T14:13:42.999Z</time></trkpt><trkpt lat="45.98714407153341" lon="8.83234782366026"><ele>270.0</ele><time>2026-05-02T14:13:43.999Z</time></trkpt><trkpt lat="45.987240868991286" lon="8.83212315925393"><ele>270.0</ele><time>2026-05-02T14:13:45Z</time></trkpt><trkpt lat="45.98735076035967" lon="8.831958449896304"><ele>270.0</ele><time>2026-05-02T14:13:46Z</time></trkpt><trkpt lat="45.98743052939392" lon="8.831679763889587"><ele>270.3333333333333</ele><time>2026-05-02T14:13:47Z</time></trkpt><trkpt lat="45.98745924803223" lon="8.8313651986914"><ele>270.66666666666663</ele><time>2026-05-02T14:13:48Z</time></trkpt><trkpt lat="45.98745263726816" lon="8.831049160022962"><ele>271.0</ele><time>2026-05-02T14:13:49Z</time></trkpt><trkpt lat="45.987433261040195" lon="8.83073883931611"><ele>272.0</ele><time>2026-05-02T14:13:50Z</time></trkpt><trkpt lat="45.98743118943514" lon="8.83041225287577"><ele>273.0</ele><time>2026-05-02T14:13:51Z</time></trkpt><trkpt lat="45.98743347920486" lon="8.830071327306346"><ele>273.0</ele><time>2026-05-02T14:13:52Z</time></trkpt><trkpt lat="45.987435469858625" lon="8.829747807972504"><ele>273.0</ele><time>2026-05-02T14:13:53Z</time></trkpt><trkpt lat="45.987427876811964" lon="8.829464739166585"><ele>273.0</ele><time>2026-05-02T14:13:54Z</time></trkpt><trkpt lat="45.987418501533966" lon="8.829176028882129"><ele>272.0</ele><time>2026-05-02T14:13:55Z</time></trkpt><trkpt lat="45.98739487623873" lon="8.828896300475279"><ele>271.0</ele><time>2026-05-02T14:13:56Z</time></trkpt><trkpt lat="45.98730592739384" lon="8.828625506928104"><ele>270.0</ele><time>2026-05-02T14:13:57Z</time></trkpt><trkpt lat="45.98721042223438" lon="8.82834641224856"><ele>268.3333333333333</ele><time>2026-05-02T14:13:58Z</time></trkpt><trkpt lat="45.98713443062272" lon="8.828081003698511"><ele>266.66666666666663</ele><time>2026-05-02T14:13:59Z</time></trkpt><trkpt lat="45.987077594082265" lon="8.827803772365709"><ele>265.0</ele><time>2026-05-02T14:14:00Z</time></trkpt><trkpt lat="45.98705831151568" lon="8.827488710472513"><ele>264.66666666666663</ele><time>2026-05-02T14:14:01Z</time></trkpt><trkpt lat="45.987055324250086" lon="8.827189959529065"><ele>264.3333333333333</ele><time>2026-05-02T14:14:02Z</time></trkpt><trkpt lat="45.987060814927645" lon="8.82691982366247"><ele>264.0</ele><time>2026-05-02T14:14:03Z</time></trkpt><trkpt lat="45.98707781750933" lon="8.826657894482423"><ele>265.0</ele><time>2026-05-02T14:14:04Z</time></trkpt><trkpt lat="45.98715082612149" lon="8.826335769815136"><ele>266.0</ele><time>2026-05-02T14:14:05Z</time></trkpt><trkpt lat="45.98718735568814" lon="8.82598756669629"><ele>265.6666666666667</ele><time>2026-05-02T14:14:06Z</time></trkpt><trkpt lat="45.987245105995356" lon="8.825773959685318"><ele>265.3333333333333</ele><time>2026-05-02T14:14:07Z</time></trkpt><trkpt lat="45.98745636110987" lon="8.825680236808818"><ele>265.0</ele><time>2026-05-02T14:14:08Z</time></trkpt><trkpt lat="45.98752906792709" lon="8.82549530484649"><ele>265.0</ele><time>2026-05-02T14:14:09Z</time></trkpt><trkpt lat="45.98760671209972" lon="8.825340821973773"><ele>265.0</ele><time>2026-05-02T14:14:10Z</time></trkpt><trkpt lat="45.987586497138075" lon="8.825095142523756"><ele>265.0</ele><time>2026-05-02T14:14:11Z</time></trkpt><trkpt lat="45.987518132863364" lon="8.824867638342676"><ele>264.66666666666663</ele><time>2026-05-02T14:14:12Z</time></trkpt><trkpt lat="45.98742739228439" lon="8.824615935472309"><ele>264.3333333333333</ele><time>2026-05-02T14:14:13Z</time></trkpt><trkpt lat="45.987350738122586" lon="8.82437555003665"><ele>264.0</ele><time>2026-05-02T14:14:14Z</time></trkpt><trkpt lat="45.98727302027811" lon="8.824126043781575"><ele>264.0</ele><time>2026-05-02T14:14:15Z</time></trkpt><trkpt lat="45.987150619492546" lon="8.823881750529258"><ele>264.0</ele><time>2026-05-02T14:14:16Z</time></trkpt><trkpt lat="45.98707973425243" lon="8.823598209424398"><ele>264.0</ele><time>2026-05-02T14:14:17Z</time></trkpt><trkpt lat="45.98706213297857" lon="8.823286670356635"><ele>263.5</ele><time>2026-05-02T14:14:18Z</time></trkpt><trkpt lat="45.987029154535016" lon="8.822975432687617"><ele>263.0</ele><time>2026-05-02T14:14:19Z</time></trkpt><trkpt lat="45.98700407989113" lon="8.82263436530564"><ele>263.0</ele><time>2026-05-02T14:14:20Z</time></trkpt><trkpt lat="45.98698945748858" lon="8.822288792288601"><ele>263.0</ele><time>2026-05-02T14:14:21Z</time></trkpt><trkpt lat="45.986980390057866" lon="8.821977665329044"><ele>261.6666666666667</ele><time>2026-05-02T14:14:22Z</time></trkpt><trkpt lat="45.986979890786486" lon="8.821660362327904"><ele>260.3333333333333</ele><time>2026-05-02T14:14:23.001Z</time></trkpt><trkpt lat="45.98700014634253" lon="8.821355439014477"><ele>259.0</ele><time>2026-05-02T14:14:24.001Z</time></trkpt><trkpt lat="45.987015320713276" lon="8.821042355077816"><ele>259.0</ele><time>2026-05-02T14:14:25.001Z</time></trkpt><trkpt lat="45.9870298804803" lon="8.820714510927994"><ele>259.0</ele><time>2026-05-02T14:14:26.001Z</time></trkpt><trkpt lat="45.987063245120446" lon="8.820367068711887"><ele>260.5</ele><time>2026-05-02T14:14:27.001Z</time></trkpt><trkpt lat="45.98708996037678" lon="8.82002376369886"><ele>262.0</ele><time>2026-05-02T14:14:28.001Z</time></trkpt><trkpt lat="45.98711762623254" lon="8.819678820763519"><ele>262.0</ele><time>2026-05-02T14:14:29.001Z</time></trkpt><trkpt lat="45.987134521538266" lon="8.819326619222148"><ele>262.0</ele><time>2026-05-02T14:14:30.001Z</time></trkpt><trkpt lat="45.98714805054418" lon="8.818969060748426"><ele>262.5</ele><time>2026-05-02T14:14:31.001Z</time></trkpt><trkpt lat="45.98717577835064" lon="8.818616902007054"><ele>263.0</ele><time>2026-05-02T14:14:32.001Z</time></trkpt><trkpt lat="45.987200867004724" lon="8.81827165949733"><ele>263.33333333333337</ele><time>2026-05-02T14:14:33.001Z</time></trkpt><trkpt lat="45.98721446046794" lon="8.817968174535444"><ele>263.6666666666667</ele><time>2026-05-02T14:14:34.001Z</time></trkpt><trkpt lat="45.987245236210256" lon="8.817657110580663"><ele>264.0</ele><time>2026-05-02T14:14:35.001Z</time></trkpt><trkpt lat="45.98726283176381" lon="8.817372140151067"><ele>265.0</ele><time>2026-05-02T14:14:36.001Z</time></trkpt><trkpt lat="45.987279172853874" lon="8.817103265839473"><ele>266.0</ele><time>2026-05-02T14:14:37.001Z</time></trkpt><trkpt lat="45.98731201215319" lon="8.816835094435"><ele>267.0</ele><time>2026-05-02T14:14:38.001Z</time></trkpt><trkpt lat="45.987372870265304" lon="8.816584343368834"><ele>267.3333333333333</ele><time>2026-05-02T14:14:39.001Z</time></trkpt><trkpt lat="45.987448458062026" lon="8.816353849552621"><ele>267.66666666666663</ele><time>2026-05-02T14:14:40.001Z</time></trkpt><trkpt lat="45.98754829996512" lon="8.816090112855585"><ele>268.0</ele><time>2026-05-02T14:14:41.001Z</time></trkpt><trkpt lat="45.987682750003486" lon="8.81580287046305"><ele>266.0</ele><time>2026-05-02T14:14:42.001Z</time></trkpt><trkpt lat="45.98782990486864" lon="8.815566273735177"><ele>264.0</ele><time>2026-05-02T14:14:43.001Z</time></trkpt><trkpt lat="45.98793062716388" lon="8.815442656635284"><ele>262.0</ele><time>2026-05-02T14:14:44.001Z</time></trkpt><trkpt lat="45.98804567719054" lon="8.81526358775162"><ele>263.0</ele><time>2026-05-02T14:14:45.001Z</time></trkpt><trkpt lat="45.988143230866754" lon="8.81507523438049"><ele>264.0</ele><time>2026-05-02T14:14:46.001Z</time></trkpt><trkpt lat="45.98821271168518" lon="8.814847106429081"><ele>265.0</ele><time>2026-05-02T14:14:47.001Z</time></trkpt><trkpt lat="45.98825045242888" lon="8.814588037026018"><ele>264.66666666666663</ele><time>2026-05-02T14:14:48.001Z</time></trkpt><trkpt lat="45.98828179550391" lon="8.814307508107772"><ele>264.3333333333333</ele><time>2026-05-02T14:14:49.001Z</time></trkpt><trkpt lat="45.98830785279892" lon="8.814055661831732"><ele>264.0</ele><time>2026-05-02T14:14:50.001Z</time></trkpt><trkpt lat="45.988337628851106" lon="8.813866304412853"><ele>261.0</ele><time>2026-05-02T14:14:51.001Z</time></trkpt><trkpt lat="45.988368121081564" lon="8.813631795310975"><ele>258.0</ele><time>2026-05-02T14:14:52.001Z</time></trkpt><trkpt lat="45.988393350151846" lon="8.813292282673915"><ele>255.0</ele><time>2026-05-02T14:14:53.001Z</time></trkpt><trkpt lat="45.98841508874469" lon="8.812944990741059"><ele>255.33333333333331</ele><time>2026-05-02T14:14:54.001Z</time></trkpt><trkpt lat="45.988414411283664" lon="8.812638400300807"><ele>255.66666666666666</ele><time>2026-05-02T14:14:55.001Z</time></trkpt><trkpt lat="45.988421977022284" lon="8.812330937088896"><ele>256.0</ele><time>2026-05-02T14:14:56.001Z</time></trkpt><trkpt lat="45.98843683520955" lon="8.812083063979374"><ele>256.0</ele><time>2026-05-02T14:14:57.001Z</time></trkpt><trkpt lat="45.98846077849797" lon="8.81180487472198"><ele>256.0</ele><time>2026-05-02T14:14:58.001Z</time></trkpt><trkpt lat="45.988513522498174" lon="8.811516304973967"><ele>256.0</ele><time>2026-05-02T14:14:59.001Z</time></trkpt><trkpt lat="45.98857436340495" lon="8.811225709606173"><ele>256.0</ele><time>2026-05-02T14:15:00.001Z</time></trkpt><trkpt lat="45.988631097295276" lon="8.810939074142789"><ele>256.0</ele><time>2026-05-02T14:15:01.001Z</time></trkpt><trkpt lat="45.98868816830654" lon="8.810667692969712"><ele>256.0</ele><time>2026-05-02T14:15:02.001Z</time></trkpt><trkpt lat="45.98874436509254" lon="8.810437248932196"><ele>256.0</ele><time>2026-05-02T14:15:03.001Z</time></trkpt><trkpt lat="45.98882350486271" lon="8.810219032267607"><ele>256.0</ele><time>2026-05-02T14:15:04.001Z</time></trkpt><trkpt lat="45.988935181367225" lon="8.810005800981175"><ele>256.0</ele><time>2026-05-02T14:15:05.001Z</time></trkpt><trkpt lat="45.98906620861816" lon="8.809824350042838"><ele>255.33333333333331</ele><time>2026-05-02T14:15:06.001Z</time></trkpt><trkpt lat="45.98921495740556" lon="8.809660692312697"><ele>254.66666666666669</ele><time>2026-05-02T14:15:07.001Z</time></trkpt><trkpt lat="45.9893961962379" lon="8.809448624166587"><ele>254.0</ele><time>2026-05-02T14:15:08.001Z</time></trkpt><trkpt lat="45.98956135037264" lon="8.809238299008776"><ele>254.0</ele><time>2026-05-02T14:15:09.001Z</time></trkpt><trkpt lat="45.98970767383735" lon="8.809027796974968"><ele>254.0</ele><time>2026-05-02T14:15:10.001Z</time></trkpt><trkpt lat="45.9898380042981" lon="8.8088195577945"><ele>254.0</ele><time>2026-05-02T14:15:11.001Z</time></trkpt><trkpt lat="45.98995118088385" lon="8.808608913472007"><ele>255.0</ele><time>2026-05-02T14:15:12.001Z</time></trkpt><trkpt lat="45.990042564479914" lon="8.808378862666528"><ele>256.0</ele><time>2026-05-02T14:15:13.002Z</time></trkpt><trkpt lat="45.99010672917309" lon="8.808123380509628"><ele>257.0</ele><time>2026-05-02T14:15:14.002Z</time></trkpt><trkpt lat="45.9901244106976" lon="8.807849507376856"><ele>257.0</ele><time>2026-05-02T14:15:15.002Z</time></trkpt><trkpt lat="45.99011647376368" lon="8.807584265529986"><ele>257.0</ele><time>2026-05-02T14:15:16.002Z</time></trkpt><trkpt lat="45.99011068284843" lon="8.807325206847256"><ele>257.0</ele><time>2026-05-02T14:15:17.002Z</time></trkpt><trkpt lat="45.99010404620753" lon="8.807092097907265"><ele>257.0</ele><time>2026-05-02T14:15:18.002Z</time></trkpt><trkpt lat="45.99010574190363" lon="8.806852098963631"><ele>257.0</ele><time>2026-05-02T14:15:19.002Z</time></trkpt><trkpt lat="45.99011153449775" lon="8.806601735731153"><ele>257.0</ele><time>2026-05-02T14:15:20.002Z</time></trkpt><trkpt lat="45.99011117471491" lon="8.806357528882545"><ele>257.0</ele><time>2026-05-02T14:15:21.002Z</time></trkpt><trkpt lat="45.99011205389404" lon="8.806106878089313"><ele>257.0</ele><time>2026-05-02T14:15:22.002Z</time></trkpt><trkpt lat="45.99011429751439" lon="8.805853706626936"><ele>257.0</ele><time>2026-05-02T14:15:23.002Z</time></trkpt><trkpt lat="45.99012020968923" lon="8.805585530618403"><ele>257.33333333333337</ele><time>2026-05-02T14:15:24.002Z</time></trkpt><trkpt lat="45.99012019522351" lon="8.805315104900071"><ele>257.6666666666667</ele><time>2026-05-02T14:15:25.002Z</time></trkpt><trkpt lat="45.99013389437665" lon="8.805039654681764"><ele>258.0</ele><time>2026-05-02T14:15:26.002Z</time></trkpt><trkpt lat="45.99013808224325" lon="8.80476366924609"><ele>256.6666666666667</ele><time>2026-05-02T14:15:27.002Z</time></trkpt><trkpt lat="45.990148921646615" lon="8.804483929619037"><ele>255.33333333333334</ele><time>2026-05-02T14:15:28.002Z</time></trkpt><trkpt lat="45.990153950157016" lon="8.804208686666597"><ele>254.0</ele><time>2026-05-02T14:15:29.002Z</time></trkpt><trkpt lat="45.99016450891817" lon="8.803924493087974"><ele>254.0</ele><time>2026-05-02T14:15:30.002Z</time></trkpt><trkpt lat="45.99018439722347" lon="8.803635829843353"><ele>254.0</ele><time>2026-05-02T14:15:31.001Z</time></trkpt><trkpt lat="45.990220041473506" lon="8.803335310626585"><ele>254.0</ele><time>2026-05-02T14:15:32.001Z</time></trkpt><trkpt lat="45.99025653848849" lon="8.803032953000189"><ele>254.0</ele><time>2026-05-02T14:15:33.001Z</time></trkpt><trkpt lat="45.99028944306733" lon="8.802733423069995"><ele>254.0</ele><time>2026-05-02T14:15:34.001Z</time></trkpt><trkpt lat="45.99033211177034" lon="8.802430585664231"><ele>254.0</ele><time>2026-05-02T14:15:35.001Z</time></trkpt><trkpt lat="45.990383720855846" lon="8.802117326917125"><ele>253.0</ele><time>2026-05-02T14:15:36.001Z</time></trkpt><trkpt lat="45.99042867652598" lon="8.801798683174166"><ele>252.0</ele><time>2026-05-02T14:15:37.001Z</time></trkpt><trkpt lat="45.99047616886918" lon="8.801479478343074"><ele>252.0</ele><time>2026-05-02T14:15:38.001Z</time></trkpt><trkpt lat="45.99052377268827" lon="8.801159897428143"><ele>252.0</ele><time>2026-05-02T14:15:39.001Z</time></trkpt><trkpt lat="45.99056780588834" lon="8.800839741701916"><ele>252.5</ele><time>2026-05-02T14:15:40.001Z</time></trkpt><trkpt lat="45.990614193213766" lon="8.800517425684987"><ele>253.0</ele><time>2026-05-02T14:15:41.001Z</time></trkpt><trkpt lat="45.990662155521456" lon="8.800191927887925"><ele>253.0</ele><time>2026-05-02T14:15:42.001Z</time></trkpt><trkpt lat="45.990701970310305" lon="8.799886853362558"><ele>253.0</ele><time>2026-05-02T14:15:43.001Z</time></trkpt><trkpt lat="45.99076023944522" lon="8.799569627787125"><ele>253.0</ele><time>2026-05-02T14:15:44.001Z</time></trkpt><trkpt lat="45.99080580451011" lon="8.799262267988311"><ele>252.5</ele><time>2026-05-02T14:15:45.001Z</time></trkpt><trkpt lat="45.99085361519394" lon="8.798950018894153"><ele>252.0</ele><time>2026-05-02T14:15:46.001Z</time></trkpt><trkpt lat="45.99095022835627" lon="8.798320593953456"><ele>252.0</ele><time>2026-05-02T14:15:48.001Z</time></trkpt><trkpt lat="45.991001891730335" lon="8.798000334601042"><ele>252.0</ele><time>2026-05-02T14:15:49.001Z</time></trkpt><trkpt lat="45.991045797070754" lon="8.797691190523862"><ele>252.0</ele><time>2026-05-02T14:15:50.001Z</time></trkpt><trkpt lat="45.99109137411391" lon="8.79738717651328"><ele>251.33333333333331</ele><time>2026-05-02T14:15:51.001Z</time></trkpt><trkpt lat="45.99113008083025" lon="8.79709660405811"><ele>250.66666666666666</ele><time>2026-05-02T14:15:52.001Z</time></trkpt><trkpt lat="45.99113896732041" lon="8.796841670465067"><ele>250.0</ele><time>2026-05-02T14:15:53.001Z</time></trkpt><trkpt lat="45.991126634000764" lon="8.796548486933382"><ele>250.0</ele><time>2026-05-02T14:15:54.001Z</time></trkpt><trkpt lat="45.99109393660167" lon="8.796298039123538"><ele>250.0</ele><time>2026-05-02T14:15:55.001Z</time></trkpt><trkpt lat="45.991165876995794" lon="8.795924500003714"><ele>250.0</ele><time>2026-05-02T14:15:56.001Z</time></trkpt><trkpt lat="45.99112865275186" lon="8.7956459205342"><ele>250.0</ele><time>2026-05-02T14:15:57.001Z</time></trkpt><trkpt lat="45.99106234935074" lon="8.79538633894946"><ele>250.0</ele><time>2026-05-02T14:15:58.001Z</time></trkpt><trkpt lat="45.99096560218566" lon="8.795128844055814"><ele>250.0</ele><time>2026-05-02T14:15:59.001Z</time></trkpt><trkpt lat="45.99084299380259" lon="8.794874967015831"><ele>250.33333333333331</ele><time>2026-05-02T14:16:00.001Z</time></trkpt><trkpt lat="45.99070253760047" lon="8.794642265266283"><ele>250.66666666666669</ele><time>2026-05-02T14:16:01.001Z</time></trkpt><trkpt lat="45.99055957284627" lon="8.79439705364173"><ele>251.0</ele><time>2026-05-02T14:16:02.001Z</time></trkpt><trkpt lat="45.99039884011534" lon="8.794156357337476"><ele>249.5</ele><time>2026-05-02T14:16:03.001Z</time></trkpt><trkpt lat="45.9902348911219" lon="8.793915795132445"><ele>248.0</ele><time>2026-05-02T14:16:04.001Z</time></trkpt><trkpt lat="45.99007135015007" lon="8.793677265377829"><ele>248.0</ele><time>2026-05-02T14:16:05.001Z</time></trkpt><trkpt lat="45.9898984982303" lon="8.79345132979856"><ele>248.0</ele><time>2026-05-02T14:16:06.001Z</time></trkpt><trkpt lat="45.98974287981883" lon="8.793232348042155"><ele>248.0</ele><time>2026-05-02T14:16:07.001Z</time></trkpt><trkpt lat="45.98959467265739" lon="8.793011843711035"><ele>248.0</ele><time>2026-05-02T14:16:08.001Z</time></trkpt><trkpt lat="45.98945726999789" lon="8.792799075614658"><ele>248.0</ele><time>2026-05-02T14:16:09.001Z</time></trkpt><trkpt lat="45.98932397670468" lon="8.792583883097292"><ele>248.33333333333334</ele><time>2026-05-02T14:16:10.001Z</time></trkpt><trkpt lat="45.989198520724024" lon="8.792372218874226"><ele>248.66666666666669</ele><time>2026-05-02T14:16:11.001Z</time></trkpt><trkpt lat="45.989153062483595" lon="8.79213955753403"><ele>249.0</ele><time>2026-05-02T14:16:12.001Z</time></trkpt><trkpt lat="45.989099065487565" lon="8.791921124265077"><ele>250.25</ele><time>2026-05-02T14:16:13.001Z</time></trkpt><trkpt lat="45.98903645272155" lon="8.791718096673378"><ele>251.5</ele><time>2026-05-02T14:16:14.001Z</time></trkpt><trkpt lat="45.98897326169331" lon="8.791550699944194"><ele>252.75</ele><time>2026-05-02T14:16:15.001Z</time></trkpt><trkpt lat="45.98889758965849" lon="8.791389094801005"><ele>254.0</ele><time>2026-05-02T14:16:16.001Z</time></trkpt><trkpt lat="45.98880988728734" lon="8.791259866014894"><ele>254.0</ele><time>2026-05-02T14:16:17.001Z</time></trkpt><trkpt lat="45.98873925791227" lon="8.791152777409826"><ele>253.99999999999997</ele><time>2026-05-02T14:16:18.001Z</time></trkpt><trkpt lat="45.98863622109629" lon="8.7910525908783"><ele>253.99999999999997</ele><time>2026-05-02T14:16:19.001Z</time></trkpt><trkpt lat="45.988563072025144" lon="8.790968864999813"><ele>254.0</ele><time>2026-05-02T14:16:20.001Z</time></trkpt><trkpt lat="45.98849717029594" lon="8.790873315138267"><ele>254.0</ele><time>2026-05-02T14:16:21.001Z</time></trkpt><trkpt lat="45.98845597982271" lon="8.79078617087419"><ele>256.0</ele><time>2026-05-02T14:16:22.001Z</time></trkpt><trkpt lat="45.98840468335989" lon="8.79065580125785"><ele>258.0</ele><time>2026-05-02T14:16:24.001Z</time></trkpt><trkpt lat="45.988317850706316" lon="8.790601531253358"><ele>260.0</ele><time>2026-05-02T14:17:09.002Z</time></trkpt><trkpt lat="45.98828889991081" lon="8.790516323620986"><ele>262.0</ele><time>2026-05-02T14:17:11.002Z</time></trkpt><trkpt lat="45.98828220015264" lon="8.790411851914495"><ele>264.0</ele><time>2026-05-02T14:17:12.002Z</time></trkpt><trkpt lat="45.98833505158956" lon="8.790282742761148"><ele>266.0</ele><time>2026-05-02T14:17:13.002Z</time></trkpt><trkpt lat="45.98834099067415" lon="8.79015355970608"><ele>266.0</ele><time>2026-05-02T14:17:15.002Z</time></trkpt><trkpt lat="45.98841926543308" lon="8.790105245749418"><ele>266.0</ele><time>2026-05-02T14:17:17.016Z</time></trkpt><trkpt lat="45.988492538353995" lon="8.790028908254403"><ele>266.0</ele><time>2026-05-02T14:17:19.017Z</time></trkpt><trkpt lat="45.98833593544177" lon="8.789179846652587"><ele>274.0</ele><time>2026-05-02T14:17:20.002Z</time></trkpt><trkpt lat="45.988597903926795" lon="8.788518459242933"><ele>271.0</ele><time>2026-05-02T14:17:21.002Z</time></trkpt><trkpt lat="45.988621000767274" lon="8.788304257096817"><ele>268.0</ele><time>2026-05-02T14:17:22.002Z</time></trkpt><trkpt lat="45.988689776652514" lon="8.788127685838633"><ele>265.0</ele><time>2026-05-02T14:17:23.002Z</time></trkpt><trkpt lat="45.98873623442041" lon="8.787919260784127"><ele>262.0</ele><time>2026-05-02T14:17:24.002Z</time></trkpt><trkpt lat="45.98874034032951" lon="8.787662426589321"><ele>261.0</ele><time>2026-05-02T14:17:25.002Z</time></trkpt><trkpt lat="45.98872638154876" lon="8.787371345837713"><ele>260.0</ele><time>2026-05-02T14:17:26.002Z</time></trkpt><trkpt lat="45.98872603736436" lon="8.787064907690636"><ele>259.0</ele><time>2026-05-02T14:17:27.002Z</time></trkpt><trkpt lat="45.98875794028655" lon="8.786748863996092"><ele>259.0</ele><time>2026-05-02T14:17:28.002Z</time></trkpt><trkpt lat="45.98881067329693" lon="8.78641746143025"><ele>259.0</ele><time>2026-05-02T14:17:29.002Z</time></trkpt><trkpt lat="45.98886880014486" lon="8.786083776705015"><ele>256.5</ele><time>2026-05-02T14:17:30.002Z</time></trkpt><trkpt lat="45.98893252666842" lon="8.785770905788112"><ele>254.0</ele><time>2026-05-02T14:17:31.002Z</time></trkpt><trkpt lat="45.98901886844919" lon="8.785452333882722"><ele>253.33333333333334</ele><time>2026-05-02T14:17:32.002Z</time></trkpt><trkpt lat="45.98908458835687" lon="8.785151047551016"><ele>252.66666666666669</ele><time>2026-05-02T14:17:33.002Z</time></trkpt><trkpt lat="45.98919842042897" lon="8.784870280792683"><ele>252.0</ele><time>2026-05-02T14:17:34.002Z</time></trkpt><trkpt lat="45.9892840431085" lon="8.78463061779149"><ele>252.66666666666669</ele><time>2026-05-02T14:17:35.002Z</time></trkpt><trkpt lat="45.98941643401617" lon="8.784404950972364"><ele>253.33333333333334</ele><time>2026-05-02T14:17:36.002Z</time></trkpt><trkpt lat="45.98953917110449" lon="8.784210029817011"><ele>254.0</ele><time>2026-05-02T14:17:37.002Z</time></trkpt><trkpt lat="45.98972121229709" lon="8.784084720083394"><ele>254.0</ele><time>2026-05-02T14:17:38.002Z</time></trkpt><trkpt lat="45.98988318480713" lon="8.784079429500107"><ele>254.0</ele><time>2026-05-02T14:17:39.002Z</time></trkpt><trkpt lat="45.990004499093665" lon="8.784166805223668"><ele>254.0</ele><time>2026-05-02T14:17:40.002Z</time></trkpt><trkpt lat="45.990162060075164" lon="8.78413150865769"><ele>252.0</ele><time>2026-05-02T14:17:41.002Z</time></trkpt><trkpt lat="45.99035123672777" lon="8.784072258158542"><ele>250.0</ele><time>2026-05-02T14:17:42.002Z</time></trkpt><trkpt lat="45.990502396344354" lon="8.784040635998124"><ele>248.0</ele><time>2026-05-02T14:17:43.002Z</time></trkpt><trkpt lat="45.99064355014861" lon="8.784057135613658"><ele>247.33333333333334</ele><time>2026-05-02T14:17:44.002Z</time></trkpt><trkpt lat="45.990844002813475" lon="8.7841451971832"><ele>246.66666666666669</ele><time>2026-05-02T14:17:45.002Z</time></trkpt><trkpt lat="45.99098504254216" lon="8.784263276873844"><ele>246.0</ele><time>2026-05-02T14:17:46.002Z</time></trkpt><trkpt lat="45.991129942865626" lon="8.784489167487479"><ele>247.66666666666669</ele><time>2026-05-02T14:17:47.002Z</time></trkpt><trkpt lat="45.991230339115276" lon="8.784686787595808"><ele>249.33333333333334</ele><time>2026-05-02T14:17:48.002Z</time></trkpt><trkpt lat="45.99128945369369" lon="8.784888834122095"><ele>251.0</ele><time>2026-05-02T14:17:49.002Z</time></trkpt><trkpt lat="45.99143688150519" lon="8.7850215518777"><ele>251.0</ele><time>2026-05-02T14:17:50.002Z</time></trkpt><trkpt lat="45.991650505260395" lon="8.785051294264909"><ele>251.0</ele><time>2026-05-02T14:17:51.002Z</time></trkpt><trkpt lat="45.99182766383955" lon="8.785131465866446"><ele>251.0</ele><time>2026-05-02T14:17:52.002Z</time></trkpt><trkpt lat="45.99201196100127" lon="8.78519637037106"><ele>255.66666666666669</ele><time>2026-05-02T14:17:53.002Z</time></trkpt><trkpt lat="45.99219342475526" lon="8.785247755303544"><ele>260.3333333333333</ele><time>2026-05-02T14:17:54.002Z</time></trkpt><trkpt lat="45.99238746626219" lon="8.785195518548747"><ele>265.0</ele><time>2026-05-02T14:17:55.002Z</time></trkpt><trkpt lat="45.99263357393309" lon="8.785124437871042"><ele>265.0</ele><time>2026-05-02T14:17:56.002Z</time></trkpt><trkpt lat="45.9928524503815" lon="8.785026278739817"><ele>265.0</ele><time>2026-05-02T14:17:57.002Z</time></trkpt><trkpt lat="45.99306216825797" lon="8.784937226175686"><ele>265.0</ele><time>2026-05-02T14:17:58.002Z</time></trkpt><trkpt lat="45.99323122094155" lon="8.784857766770338"><ele>273.5</ele><time>2026-05-02T14:17:59.002Z</time></trkpt><trkpt lat="45.99337995867899" lon="8.784795595408264"><ele>282.0</ele><time>2026-05-02T14:18:00.002Z</time></trkpt><trkpt lat="45.99340490614655" lon="8.784642568858773"><ele>290.5</ele><time>2026-05-02T14:18:01.002Z</time></trkpt><trkpt lat="45.99349445614574" lon="8.784512890182048"><ele>299.0</ele><time>2026-05-02T14:18:02.002Z</time></trkpt><trkpt lat="45.993425654851876" lon="8.784230662183141"><ele>299.0</ele><time>2026-05-02T14:18:03.002Z</time></trkpt><trkpt lat="45.99344877677708" lon="8.78397526690725"><ele>299.0</ele><time>2026-05-02T14:18:04.001Z</time></trkpt><trkpt lat="45.993489079462066" lon="8.783696874960192"><ele>299.0</ele><time>2026-05-02T14:18:05.001Z</time></trkpt><trkpt lat="45.99349128999667" lon="8.783434827811815"><ele>299.33333333333337</ele><time>2026-05-02T14:18:06.001Z</time></trkpt><trkpt lat="45.99339796432452" lon="8.783142941652738"><ele>299.6666666666667</ele><time>2026-05-02T14:18:07.001Z</time></trkpt><trkpt lat="45.993378167542545" lon="8.782848403247678"><ele>300.0</ele><time>2026-05-02T14:18:08.001Z</time></trkpt><trkpt lat="45.99340053615604" lon="8.782674422478662"><ele>297.3333333333333</ele><time>2026-05-02T14:18:09.001Z</time></trkpt><trkpt lat="45.993431394777" lon="8.782442670029582"><ele>294.66666666666663</ele><time>2026-05-02T14:18:10.001Z</time></trkpt><trkpt lat="45.99346424628019" lon="8.782211810745881"><ele>292.0</ele><time>2026-05-02T14:18:11.001Z</time></trkpt><trkpt lat="45.99352194482476" lon="8.781893999981964"><ele>284.0</ele><time>2026-05-02T14:18:12.001Z</time></trkpt><trkpt lat="45.9936053570488" lon="8.781521040178177"><ele>276.0</ele><time>2026-05-02T14:18:13.001Z</time></trkpt><trkpt lat="45.99367832747475" lon="8.78120058350063"><ele>266.0</ele><time>2026-05-02T14:18:14.001Z</time></trkpt><trkpt lat="45.993750927426255" lon="8.780880022716625"><ele>256.0</ele><time>2026-05-02T14:18:15.001Z</time></trkpt><trkpt lat="45.99382672775487" lon="8.780543037009737"><ele>256.0</ele><time>2026-05-02T14:18:16.001Z</time></trkpt><trkpt lat="45.99390451126446" lon="8.780201816026867"><ele>256.0</ele><time>2026-05-02T14:18:17.001Z</time></trkpt><trkpt lat="45.99398991248354" lon="8.77985351704715"><ele>251.0</ele><time>2026-05-02T14:18:18.001Z</time></trkpt><trkpt lat="45.994072652843585" lon="8.779525822200403"><ele>246.0</ele><time>2026-05-02T14:18:19.001Z</time></trkpt><trkpt lat="45.99415609998939" lon="8.779170510287207"><ele>258.0</ele><time>2026-05-02T14:18:20.001Z</time></trkpt><trkpt lat="45.99422046382218" lon="8.778855910457354"><ele>270.0</ele><time>2026-05-02T14:18:21.001Z</time></trkpt><trkpt lat="45.99423405500196" lon="8.778584657595928"><ele>282.0</ele><time>2026-05-02T14:18:22.001Z</time></trkpt><trkpt lat="45.99421121382245" lon="8.77829689731892"><ele>271.0</ele><time>2026-05-02T14:18:23.001Z</time></trkpt><trkpt lat="45.994164736413765" lon="8.777990353995678"><ele>260.0</ele><time>2026-05-02T14:18:24.001Z</time></trkpt><trkpt lat="45.994134864854374" lon="8.77770006251534"><ele>249.0</ele><time>2026-05-02T14:18:25.001Z</time></trkpt><trkpt lat="45.994106696321715" lon="8.77743684438618"><ele>249.0</ele><time>2026-05-02T14:18:26.001Z</time></trkpt><trkpt lat="45.994073726536406" lon="8.77718248574912"><ele>249.0</ele><time>2026-05-02T14:18:27.001Z</time></trkpt><trkpt lat="45.993994420586866" lon="8.776925244986135"><ele>249.0</ele><time>2026-05-02T14:18:28.001Z</time></trkpt><trkpt lat="45.99387498156864" lon="8.776704610333862"><ele>251.33333333333331</ele><time>2026-05-02T14:18:29.001Z</time></trkpt><trkpt lat="45.99372474063616" lon="8.776528210554991"><ele>253.66666666666666</ele><time>2026-05-02T14:18:30.001Z</time></trkpt><trkpt lat="45.99354435272612" lon="8.776395730477486"><ele>256.0</ele><time>2026-05-02T14:18:31.001Z</time></trkpt><trkpt lat="45.9933537517952" lon="8.776260468481224"><ele>250.0</ele><time>2026-05-02T14:18:32.001Z</time></trkpt><trkpt lat="45.99314551089737" lon="8.776130423423407"><ele>244.0</ele><time>2026-05-02T14:18:33.002Z</time></trkpt><trkpt lat="45.99293602648109" lon="8.776018885860669"><ele>245.66666666666666</ele><time>2026-05-02T14:18:34.002Z</time></trkpt><trkpt lat="45.99274713201432" lon="8.775854042208667"><ele>247.33333333333331</ele><time>2026-05-02T14:18:35.002Z</time></trkpt><trkpt lat="45.99254339145895" lon="8.775722579698659"><ele>249.0</ele><time>2026-05-02T14:18:36.002Z</time></trkpt><trkpt lat="45.99235881295525" lon="8.77556019265312"><ele>249.0</ele><time>2026-05-02T14:18:37.002Z</time></trkpt><trkpt lat="45.99222262135144" lon="8.775364210945337"><ele>249.0</ele><time>2026-05-02T14:18:38.002Z</time></trkpt><trkpt lat="45.99211004210098" lon="8.77517325491886"><ele>249.0</ele><time>2026-05-02T14:18:39.002Z</time></trkpt><trkpt lat="45.992017584123836" lon="8.77497793317613"><ele>257.0</ele><time>2026-05-02T14:18:40.002Z</time></trkpt><trkpt lat="45.99190225545481" lon="8.774753518762587"><ele>265.0</ele><time>2026-05-02T14:18:41.002Z</time></trkpt><trkpt lat="45.99183611710245" lon="8.774509511753509"><ele>273.0</ele><time>2026-05-02T14:18:42.002Z</time></trkpt><trkpt lat="45.991756942877004" lon="8.77425269901953"><ele>276.3333333333333</ele><time>2026-05-02T14:18:43.002Z</time></trkpt><trkpt lat="45.9917148398313" lon="8.773980269927335"><ele>279.66666666666663</ele><time>2026-05-02T14:18:44.002Z</time></trkpt><trkpt lat="45.99171039811672" lon="8.773708769216256"><ele>283.0</ele><time>2026-05-02T14:18:45.002Z</time></trkpt><trkpt lat="45.991728132852856" lon="8.773438165785866"><ele>282.0</ele><time>2026-05-02T14:18:46.002Z</time></trkpt><trkpt lat="45.99175851630049" lon="8.773173461767412"><ele>281.0</ele><time>2026-05-02T14:18:47.002Z</time></trkpt><trkpt lat="45.991832649806895" lon="8.772929268161482"><ele>280.0</ele><time>2026-05-02T14:18:48.002Z</time></trkpt><trkpt lat="45.99193444030726" lon="8.772680960609806"><ele>280.0</ele><time>2026-05-02T14:18:49.002Z</time></trkpt><trkpt lat="45.99202295445378" lon="8.772413670995308"><ele>280.0</ele><time>2026-05-02T14:18:50.002Z</time></trkpt><trkpt lat="45.992133304736825" lon="8.77212983479351"><ele>280.0</ele><time>2026-05-02T14:18:51.002Z</time></trkpt><trkpt lat="45.99225992867996" lon="8.771853077141515"><ele>285.66666666666663</ele><time>2026-05-02T14:18:52.002Z</time></trkpt><trkpt lat="45.992398158106" lon="8.771612905632507"><ele>291.3333333333333</ele><time>2026-05-02T14:18:53.002Z</time></trkpt><trkpt lat="45.99254033563567" lon="8.77136927623658"><ele>297.0</ele><time>2026-05-02T14:18:54.002Z</time></trkpt><trkpt lat="45.99265889125814" lon="8.771161973894525"><ele>291.3333333333333</ele><time>2026-05-02T14:18:55.002Z</time></trkpt><trkpt lat="45.99276340887483" lon="8.770935440160756"><ele>285.66666666666663</ele><time>2026-05-02T14:18:56.002Z</time></trkpt><trkpt lat="45.9928100173428" lon="8.770718447034463"><ele>280.0</ele><time>2026-05-02T14:18:57.002Z</time></trkpt><trkpt lat="45.992793399184315" lon="8.770502804459953"><ele>280.0</ele><time>2026-05-02T14:18:58.002Z</time></trkpt><trkpt lat="45.9928058123324" lon="8.770251686024315"><ele>280.0</ele><time>2026-05-02T14:18:59.002Z</time></trkpt><trkpt lat="45.99272038528957" lon="8.770065998811083"><ele>280.0</ele><time>2026-05-02T14:19:00.002Z</time></trkpt><trkpt lat="45.992609787401165" lon="8.769907544152534"><ele>270.3333333333333</ele><time>2026-05-02T14:19:01.002Z</time></trkpt><trkpt lat="45.99248415271194" lon="8.769781240788864"><ele>260.6666666666667</ele><time>2026-05-02T14:19:02.002Z</time></trkpt><trkpt lat="45.992342478879905" lon="8.769643870001602"><ele>251.0</ele><time>2026-05-02T14:19:03.002Z</time></trkpt><trkpt lat="45.99220347524247" lon="8.769491055804535"><ele>256.6666666666667</ele><time>2026-05-02T14:19:04.002Z</time></trkpt><trkpt lat="45.99211374159361" lon="8.769317989851418"><ele>262.3333333333333</ele><time>2026-05-02T14:19:05.002Z</time></trkpt><trkpt lat="45.99209245591825" lon="8.769081785729668"><ele>268.0</ele><time>2026-05-02T14:19:06.002Z</time></trkpt><trkpt lat="45.99202244299487" lon="8.768871974787674"><ele>268.0</ele><time>2026-05-02T14:19:07.002Z</time></trkpt><trkpt lat="45.992009559217" lon="8.76855998483054"><ele>268.0</ele><time>2026-05-02T14:19:08.002Z</time></trkpt><trkpt lat="45.99200418916629" lon="8.76827275038568"><ele>268.0</ele><time>2026-05-02T14:19:09.002Z</time></trkpt><trkpt lat="45.99197669574747" lon="8.767964216019298"><ele>269.66666666666663</ele><time>2026-05-02T14:19:10.002Z</time></trkpt><trkpt lat="45.99191492718578" lon="8.767649581134396"><ele>271.3333333333333</ele><time>2026-05-02T14:19:11.002Z</time></trkpt><trkpt lat="45.99186956036839" lon="8.767378496293553"><ele>273.0</ele><time>2026-05-02T14:19:12.002Z</time></trkpt><trkpt lat="45.991844237049975" lon="8.767127993157942"><ele>273.0</ele><time>2026-05-02T14:19:13.002Z</time></trkpt><trkpt lat="45.99188299357884" lon="8.766867146014226"><ele>273.0</ele><time>2026-05-02T14:19:14.002Z</time></trkpt><trkpt lat="45.99188134568964" lon="8.766621315554076"><ele>273.0</ele><time>2026-05-02T14:19:15.002Z</time></trkpt><trkpt lat="45.99181748799844" lon="8.766364995969905"><ele>274.0</ele><time>2026-05-02T14:19:16.002Z</time></trkpt><trkpt lat="45.991698981397676" lon="8.766152729379133"><ele>275.0</ele><time>2026-05-02T14:19:17.002Z</time></trkpt><trkpt lat="45.99157695349231" lon="8.765930918849255"><ele>276.0</ele><time>2026-05-02T14:19:18.002Z</time></trkpt><trkpt lat="45.99143573861247" lon="8.765677838662068"><ele>272.3333333333333</ele><time>2026-05-02T14:19:19.002Z</time></trkpt><trkpt lat="45.99129630613034" lon="8.765444753432371"><ele>268.66666666666663</ele><time>2026-05-02T14:19:20.002Z</time></trkpt><trkpt lat="45.99111415686857" lon="8.765313380405582"><ele>265.0</ele><time>2026-05-02T14:19:21.002Z</time></trkpt><trkpt lat="45.99091035603669" lon="8.765212493414563"><ele>262.0</ele><time>2026-05-02T14:19:22.002Z</time></trkpt><trkpt lat="45.99075846403149" lon="8.76506809071058"><ele>259.0</ele><time>2026-05-02T14:19:23.002Z</time></trkpt><trkpt lat="45.990638883454565" lon="8.764921381552865"><ele>256.0</ele><time>2026-05-02T14:19:24.002Z</time></trkpt><trkpt lat="45.990575406797454" lon="8.76473614634347"><ele>256.0</ele><time>2026-05-02T14:19:25.002Z</time></trkpt><trkpt lat="45.990558378802945" lon="8.764557407536053"><ele>256.0</ele><time>2026-05-02T14:19:26.002Z</time></trkpt><trkpt lat="45.99056071602677" lon="8.764175871071725"><ele>256.0</ele><time>2026-05-02T14:19:27.002Z</time></trkpt><trkpt lat="45.990575481967966" lon="8.76386909552907"><ele>257.3333333333333</ele><time>2026-05-02T14:19:28.002Z</time></trkpt><trkpt lat="45.99062056140179" lon="8.76356392752247"><ele>258.6666666666667</ele><time>2026-05-02T14:19:29.002Z</time></trkpt><trkpt lat="45.99063664395807" lon="8.763262552649886"><ele>260.0</ele><time>2026-05-02T14:19:30.002Z</time></trkpt><trkpt lat="45.990669948036725" lon="8.762989631247358"><ele>256.6666666666667</ele><time>2026-05-02T14:19:31.002Z</time></trkpt><trkpt lat="45.990711913080695" lon="8.762731470516696"><ele>253.33333333333331</ele><time>2026-05-02T14:19:32.002Z</time></trkpt><trkpt lat="45.990753865719" lon="8.762468295642332"><ele>250.0</ele><time>2026-05-02T14:19:33.002Z</time></trkpt><trkpt lat="45.990805557478524" lon="8.762212221123587"><ele>251.66666666666666</ele><time>2026-05-02T14:19:34.002Z</time></trkpt><trkpt lat="45.99084739646711" lon="8.76198102864911"><ele>253.33333333333331</ele><time>2026-05-02T14:19:35.002Z</time></trkpt><trkpt lat="45.99088414851033" lon="8.761752043816317"><ele>255.0</ele><time>2026-05-02T14:19:36.002Z</time></trkpt><trkpt lat="45.99091693013183" lon="8.761555175926649"><ele>255.0</ele><time>2026-05-02T14:19:37.002Z</time></trkpt><trkpt lat="45.99093872431916" lon="8.76137323796447"><ele>255.0</ele><time>2026-05-02T14:19:38.002Z</time></trkpt><trkpt lat="45.990960027879346" lon="8.761216124684399"><ele>255.0</ele><time>2026-05-02T14:19:39.002Z</time></trkpt><trkpt lat="45.99098423083112" lon="8.76105611919582"><ele>255.0</ele><time>2026-05-02T14:19:40.002Z</time></trkpt><trkpt lat="45.990993941075" lon="8.76091525618128"><ele>253.0</ele><time>2026-05-02T14:19:41.002Z</time></trkpt><trkpt lat="45.99099376510823" lon="8.76078899220805"><ele>251.0</ele><time>2026-05-02T14:19:42.002Z</time></trkpt><trkpt lat="45.9910061473709" lon="8.760649856526738"><ele>249.0</ele><time>2026-05-02T14:19:43.003Z</time></trkpt><trkpt lat="45.99102863197949" lon="8.76050798300409"><ele>247.0</ele><time>2026-05-02T14:19:44.003Z</time></trkpt><trkpt lat="45.99107159618369" lon="8.760370482300242"><ele>245.0</ele><time>2026-05-02T14:19:45.003Z</time></trkpt><trkpt lat="45.99111932579772" lon="8.76021561684293"><ele>242.75</ele><time>2026-05-02T14:19:46.003Z</time></trkpt><trkpt lat="45.99116536514959" lon="8.760045924403936"><ele>240.5</ele><time>2026-05-02T14:19:47.002Z</time></trkpt><trkpt lat="45.991221066272004" lon="8.759866317518188"><ele>238.25</ele><time>2026-05-02T14:19:48.002Z</time></trkpt><trkpt lat="45.99127533692131" lon="8.759701109246546"><ele>236.0</ele><time>2026-05-02T14:19:49.002Z</time></trkpt><trkpt lat="45.99133720718732" lon="8.759531719800757"><ele>235.25</ele><time>2026-05-02T14:19:50.002Z</time></trkpt><trkpt lat="45.99140432512974" lon="8.759364098540471"><ele>234.5</ele><time>2026-05-02T14:19:51.002Z</time></trkpt><trkpt lat="45.991477904772374" lon="8.759208744453924"><ele>233.75</ele><time>2026-05-02T14:19:52.002Z</time></trkpt><trkpt lat="45.9915711787642" lon="8.759060032772558"><ele>233.0</ele><time>2026-05-02T14:19:53.002Z</time></trkpt><trkpt lat="45.991657779600985" lon="8.75890107939567"><ele>233.66666666666669</ele><time>2026-05-02T14:19:54.002Z</time></trkpt><trkpt lat="45.991760337325715" lon="8.75872219488177"><ele>234.33333333333331</ele><time>2026-05-02T14:19:55.002Z</time></trkpt><trkpt lat="45.991860584650865" lon="8.758551080577835"><ele>235.0</ele><time>2026-05-02T14:19:56.002Z</time></trkpt><trkpt lat="45.991979226293445" lon="8.758391175439197"><ele>235.0</ele><time>2026-05-02T14:19:57.002Z</time></trkpt><trkpt lat="45.9920929678265" lon="8.758205143393226"><ele>235.0</ele><time>2026-05-02T14:19:58.002Z</time></trkpt><trkpt lat="45.99219311623131" lon="8.758058499234634"><ele>235.0</ele><time>2026-05-02T14:19:59.002Z</time></trkpt><trkpt lat="45.99229470778022" lon="8.757907056239066"><ele>235.0</ele><time>2026-05-02T14:20:00.002Z</time></trkpt><trkpt lat="45.99237115609231" lon="8.757791160635291"><ele>235.0</ele><time>2026-05-02T14:20:01.002Z</time></trkpt><trkpt lat="45.99244151555663" lon="8.757673890446119"><ele>235.0</ele><time>2026-05-02T14:20:02.002Z</time></trkpt><trkpt lat="45.99251789597602" lon="8.757554065272352"><ele>235.0</ele><time>2026-05-02T14:20:03.002Z</time></trkpt><trkpt lat="45.99258715043023" lon="8.757424282915524"><ele>235.0</ele><time>2026-05-02T14:20:04.002Z</time></trkpt><trkpt lat="45.992657717851976" lon="8.757301004923388"><ele>235.33333333333331</ele><time>2026-05-02T14:20:05.002Z</time></trkpt><trkpt lat="45.99273756094211" lon="8.757184429015322"><ele>235.66666666666666</ele><time>2026-05-02T14:20:06.002Z</time></trkpt><trkpt lat="45.992803932848354" lon="8.757080079807341"><ele>236.0</ele><time>2026-05-02T14:20:07.002Z</time></trkpt><trkpt lat="45.99285982442868" lon="8.75699263216804"><ele>236.33333333333331</ele><time>2026-05-02T14:20:08.002Z</time></trkpt><trkpt lat="45.99291444557252" lon="8.756911403002098"><ele>236.66666666666666</ele><time>2026-05-02T14:20:09.002Z</time></trkpt><trkpt lat="45.99296530408899" lon="8.756834485808218"><ele>237.0</ele><time>2026-05-02T14:20:10.002Z</time></trkpt><trkpt lat="45.993009615295506" lon="8.756757411863312"><ele>236.33333333333334</ele><time>2026-05-02T14:20:11.001Z</time></trkpt><trkpt lat="45.993055670307896" lon="8.75667180545041"><ele>235.66666666666669</ele><time>2026-05-02T14:20:12.001Z</time></trkpt><trkpt lat="45.99310917112846" lon="8.756580561632116"><ele>235.0</ele><time>2026-05-02T14:20:13.001Z</time></trkpt><trkpt lat="45.99317319705037" lon="8.756482483089425"><ele>234.33333333333334</ele><time>2026-05-02T14:20:14.001Z</time></trkpt><trkpt lat="45.9932395387923" lon="8.756376306757542"><ele>233.66666666666669</ele><time>2026-05-02T14:20:15.001Z</time></trkpt><trkpt lat="45.993303719636145" lon="8.75627829916851"><ele>233.0</ele><time>2026-05-02T14:20:16.001Z</time></trkpt><trkpt lat="45.99336665635666" lon="8.756179807293869"><ele>233.4</ele><time>2026-05-02T14:20:17.001Z</time></trkpt><trkpt lat="45.9934263271797" lon="8.756085297442002"><ele>233.8</ele><time>2026-05-02T14:20:18.001Z</time></trkpt><trkpt lat="45.99347879738296" lon="8.755998680833903"><ele>234.2</ele><time>2026-05-02T14:20:19.001Z</time></trkpt><trkpt lat="45.99353488817677" lon="8.755912960608443"><ele>234.6</ele><time>2026-05-02T14:20:20.001Z</time></trkpt><trkpt lat="45.99361554033829" lon="8.75579211538908"><ele>235.0</ele><time>2026-05-02T14:20:22.001Z</time></trkpt><trkpt lat="45.99368590546861" lon="8.755680486276635"><ele>235.0</ele><time>2026-05-02T14:20:24.001Z</time></trkpt><trkpt lat="45.99375129185722" lon="8.755558045341704"><ele>235.0</ele><time>2026-05-02T14:20:26.001Z</time></trkpt><trkpt lat="45.99383130571022" lon="8.755405351906903"><ele>235.0</ele><time>2026-05-02T14:20:28.001Z</time></trkpt><trkpt lat="45.99387477835236" lon="8.755336853526572"><ele>235.0</ele><time>2026-05-02T14:20:29.001Z</time></trkpt><trkpt lat="45.9939595798052" lon="8.75522356430264"><ele>235.0</ele><time>2026-05-02T14:20:31.001Z</time></trkpt><trkpt lat="45.99405219847194" lon="8.755112366319212"><ele>234.66666666666666</ele><time>2026-05-02T14:20:33.001Z</time></trkpt><trkpt lat="45.9941028686762" lon="8.755050694028556"><ele>234.33333333333331</ele><time>2026-05-02T14:20:34.001Z</time></trkpt><trkpt lat="45.99415800008781" lon="8.755001144939168"><ele>234.0</ele><time>2026-05-02T14:20:35.001Z</time></trkpt><trkpt lat="45.99421602813529" lon="8.754963249024792"><ele>233.66666666666669</ele><time>2026-05-02T14:20:36.001Z</time></trkpt><trkpt lat="45.99433137271184" lon="8.75490078265444"><ele>233.33333333333334</ele><time>2026-05-02T14:20:38.001Z</time></trkpt><trkpt lat="45.994350766558554" lon="8.754793045756903"><ele>233.0</ele><time>2026-05-02T14:20:39.001Z</time></trkpt><trkpt lat="45.99432315182464" lon="8.75466259049508"><ele>233.0</ele><time>2026-05-02T14:20:40.001Z</time></trkpt><trkpt lat="45.99431155707496" lon="8.75452430824107"><ele>233.0</ele><time>2026-05-02T14:20:41.001Z</time></trkpt><trkpt lat="45.994283625453306" lon="8.754354935709479"><ele>233.0</ele><time>2026-05-02T14:20:42.001Z</time></trkpt><trkpt lat="45.994287564250904" lon="8.754198002700376"><ele>233.0</ele><time>2026-05-02T14:20:43.001Z</time></trkpt><trkpt lat="45.99431125368891" lon="8.75402692590947"><ele>233.0</ele><time>2026-05-02T14:20:44.001Z</time></trkpt><trkpt lat="45.9943155944939" lon="8.753830498276562"><ele>233.0</ele><time>2026-05-02T14:20:45.001Z</time></trkpt><trkpt lat="45.99431566984256" lon="8.753627446533493"><ele>233.0</ele><time>2026-05-02T14:20:46.001Z</time></trkpt><trkpt lat="45.99431425663392" lon="8.753430561620592"><ele>233.0</ele><time>2026-05-02T14:20:47.001Z</time></trkpt><trkpt lat="45.994301690355044" lon="8.753247608230229"><ele>233.0</ele><time>2026-05-02T14:20:48.001Z</time></trkpt><trkpt lat="45.99428501361151" lon="8.753072007772543"><ele>232.5</ele><time>2026-05-02T14:20:49.001Z</time></trkpt><trkpt lat="45.99427537992964" lon="8.752898982296287"><ele>232.0</ele><time>2026-05-02T14:20:50.001Z</time></trkpt><trkpt lat="45.99426916693148" lon="8.75273734154493"><ele>231.5</ele><time>2026-05-02T14:20:51.001Z</time></trkpt><trkpt lat="45.99425480408068" lon="8.752563386675984"><ele>231.0</ele><time>2026-05-02T14:20:52.001Z</time></trkpt><trkpt lat="45.99425345637267" lon="8.752383135444836"><ele>230.75</ele><time>2026-05-02T14:20:53.001Z</time></trkpt><trkpt lat="45.994243948872445" lon="8.752202550606405"><ele>230.5</ele><time>2026-05-02T14:20:54.001Z</time></trkpt><trkpt lat="45.99423441992666" lon="8.752031497002806"><ele>230.25</ele><time>2026-05-02T14:20:55.001Z</time></trkpt><trkpt lat="45.994226709044376" lon="8.751861605310795"><ele>230.0</ele><time>2026-05-02T14:20:56.001Z</time></trkpt><trkpt lat="45.99421423631401" lon="8.751699012153107"><ele>229.6</ele><time>2026-05-02T14:20:57.001Z</time></trkpt><trkpt lat="45.99420092896545" lon="8.751529239814799"><ele>229.2</ele><time>2026-05-02T14:20:58.001Z</time></trkpt><trkpt lat="45.99421250331864" lon="8.751378402726813"><ele>228.8</ele><time>2026-05-02T14:20:59.001Z</time></trkpt><trkpt lat="45.99422340036717" lon="8.751224835102972"><ele>228.4</ele><time>2026-05-02T14:21:00.001Z</time></trkpt><trkpt lat="45.994240615892586" lon="8.751065453639235"><ele>228.0</ele><time>2026-05-02T14:21:01.001Z</time></trkpt><trkpt lat="45.99425360101622" lon="8.750910385546698"><ele>227.5</ele><time>2026-05-02T14:21:02.001Z</time></trkpt><trkpt lat="45.99426230338622" lon="8.750750307625495"><ele>227.0</ele><time>2026-05-02T14:21:03.001Z</time></trkpt><trkpt lat="45.99427300877326" lon="8.750582852182621"><ele>226.5</ele><time>2026-05-02T14:21:04.001Z</time></trkpt><trkpt lat="45.994299404887435" lon="8.750394322871673"><ele>226.0</ele><time>2026-05-02T14:21:05.001Z</time></trkpt><trkpt lat="45.99433903087562" lon="8.750209101292812"><ele>225.75</ele><time>2026-05-02T14:21:06.001Z</time></trkpt><trkpt lat="45.994374499006945" lon="8.75006096723719"><ele>225.5</ele><time>2026-05-02T14:21:07.001Z</time></trkpt><trkpt lat="45.99441847313065" lon="8.749908968481563"><ele>225.25</ele><time>2026-05-02T14:21:08.001Z</time></trkpt><trkpt lat="45.994466062000946" lon="8.749759406206461"><ele>225.0</ele><time>2026-05-02T14:21:09.001Z</time></trkpt><trkpt lat="45.99451194086964" lon="8.749604406839438"><ele>225.0</ele><time>2026-05-02T14:21:10.001Z</time></trkpt><trkpt lat="45.994564604033656" lon="8.749457984045748"><ele>225.0</ele><time>2026-05-02T14:21:11.001Z</time></trkpt><trkpt lat="45.99462687511754" lon="8.74932454431945"><ele>225.0</ele><time>2026-05-02T14:21:12.001Z</time></trkpt><trkpt lat="45.99465975622599" lon="8.749188271271763"><ele>225.0</ele><time>2026-05-02T14:21:13.001Z</time></trkpt><trkpt lat="45.99472119550725" lon="8.749075128290627"><ele>225.0</ele><time>2026-05-02T14:21:14.001Z</time></trkpt><trkpt lat="45.99475970330133" lon="8.748965945205606"><ele>225.0</ele><time>2026-05-02T14:21:15.001Z</time></trkpt><trkpt lat="45.99481065003331" lon="8.748839280120595"><ele>225.0</ele><time>2026-05-02T14:21:16.001Z</time></trkpt><trkpt lat="45.994874103857164" lon="8.748713273188429"><ele>225.0</ele><time>2026-05-02T14:21:17.001Z</time></trkpt><trkpt lat="45.99492550470626" lon="8.74855989171388"><ele>225.0</ele><time>2026-05-02T14:21:18.001Z</time></trkpt><trkpt lat="45.994979982398796" lon="8.748410431117778"><ele>225.0</ele><time>2026-05-02T14:21:19.001Z</time></trkpt><trkpt lat="45.99504319537401" lon="8.748255775242345"><ele>224.5</ele><time>2026-05-02T14:21:20.001Z</time></trkpt><trkpt lat="45.99510092236479" lon="8.74810849715339"><ele>224.0</ele><time>2026-05-02T14:21:21.001Z</time></trkpt><trkpt lat="45.99520470964395" lon="8.747935998088066"><ele>223.5</ele><time>2026-05-02T14:21:22.001Z</time></trkpt><trkpt lat="45.99530478584386" lon="8.747780148683896"><ele>223.0</ele><time>2026-05-02T14:21:23.001Z</time></trkpt><trkpt lat="45.99535827752003" lon="8.74771416705817"><ele>222.4</ele><time>2026-05-02T14:21:24.001Z</time></trkpt><trkpt lat="45.99544429351072" lon="8.747632356609138"><ele>221.8</ele><time>2026-05-02T14:21:25.001Z</time></trkpt><trkpt lat="45.99551719471458" lon="8.747526135499996"><ele>221.2</ele><time>2026-05-02T14:21:26.001Z</time></trkpt><trkpt lat="45.99559742819651" lon="8.74742323046194"><ele>220.6</ele><time>2026-05-02T14:21:27.001Z</time></trkpt><trkpt lat="45.995681331695245" lon="8.747322614839149"><ele>220.0</ele><time>2026-05-02T14:21:28.001Z</time></trkpt><trkpt lat="45.99576567411627" lon="8.747229501323126"><ele>219.0</ele><time>2026-05-02T14:21:29.001Z</time></trkpt><trkpt lat="45.995863206061195" lon="8.747145706521158"><ele>218.0</ele><time>2026-05-02T14:21:30.001Z</time></trkpt><trkpt lat="45.99595463074924" lon="8.747070727299645"><ele>217.0</ele><time>2026-05-02T14:21:31.001Z</time></trkpt><trkpt lat="45.996047710109224" lon="8.74699935422745"><ele>216.0</ele><time>2026-05-02T14:21:32.001Z</time></trkpt><trkpt lat="45.996135436273434" lon="8.74693481873147"><ele>215.0</ele><time>2026-05-02T14:21:33.001Z</time></trkpt><trkpt lat="45.99623493021947" lon="8.74688097444673"><ele>215.0</ele><time>2026-05-02T14:21:34.001Z</time></trkpt><trkpt lat="45.996333640604696" lon="8.746828521293217"><ele>215.0</ele><time>2026-05-02T14:21:35.001Z</time></trkpt><trkpt lat="45.99642770779777" lon="8.746778323833581"><ele>215.0</ele><time>2026-05-02T14:21:36.001Z</time></trkpt><trkpt lat="45.99651446489561" lon="8.746750263635922"><ele>215.0</ele><time>2026-05-02T14:21:37.002Z</time></trkpt><trkpt lat="45.99660210937285" lon="8.746708959952105"><ele>215.0</ele><time>2026-05-02T14:21:38.002Z</time></trkpt><trkpt lat="45.99668427265294" lon="8.746671428652988"><ele>214.16666666666669</ele><time>2026-05-02T14:21:39.002Z</time></trkpt><trkpt lat="45.99676480074958" lon="8.746642193831475"><ele>213.33333333333334</ele><time>2026-05-02T14:21:40.002Z</time></trkpt><trkpt lat="45.9968476586603" lon="8.746610651208314"><ele>212.5</ele><time>2026-05-02T14:21:41.002Z</time></trkpt><trkpt lat="45.996936330903026" lon="8.7466090339122"><ele>211.66666666666669</ele><time>2026-05-02T14:21:42.002Z</time></trkpt><trkpt lat="45.99701049842659" lon="8.74656822068257"><ele>210.83333333333334</ele><time>2026-05-02T14:21:43.002Z</time></trkpt><trkpt lat="45.99709742904071" lon="8.746546558089264"><ele>210.0</ele><time>2026-05-02T14:21:45.002Z</time></trkpt><trkpt lat="45.99716695281016" lon="8.746534800672565"><ele>210.0</ele><time>2026-05-02T14:21:47.002Z</time></trkpt><trkpt lat="45.997238947624766" lon="8.746515828337557"><ele>210.0</ele><time>2026-05-02T14:21:54.002Z</time></trkpt><trkpt lat="45.99729534369629" lon="8.746568826195295"><ele>210.0</ele><time>2026-05-02T14:21:58.002Z</time></trkpt><trkpt lat="45.99735986525008" lon="8.746670486811425"><ele>210.0</ele><time>2026-05-02T14:22:02.001Z</time></trkpt><trkpt lat="45.99744291941508" lon="8.746694629432813"><ele>210.0</ele><time>2026-05-02T14:22:04.001Z</time></trkpt><trkpt lat="45.99750857702388" lon="8.74660361843867"><ele>210.0</ele><time>2026-05-02T14:22:06.001Z</time></trkpt><trkpt lat="45.99750489809545" lon="8.746509175387345"><ele>210.0</ele><time>2026-05-02T14:22:07.001Z</time></trkpt><trkpt lat="45.99752210145013" lon="8.74640045927136"><ele>210.0</ele><time>2026-05-02T14:22:08.001Z</time></trkpt><trkpt lat="45.99747912505014" lon="8.746305597514587"><ele>210.0</ele><time>2026-05-02T14:22:09.001Z</time></trkpt><trkpt lat="45.997414242830956" lon="8.746241759076552"><ele>210.0</ele><time>2026-05-02T14:22:10.001Z</time></trkpt><trkpt lat="45.997393753353556" lon="8.746071964686255"><ele>210.0</ele><time>2026-05-02T14:22:12.001Z</time></trkpt><trkpt lat="45.99731532584969" lon="8.745974024905417"><ele>210.0</ele><time>2026-05-02T14:22:13.001Z</time></trkpt><trkpt lat="45.99725998449939" lon="8.745877941097739"><ele>210.0</ele><time>2026-05-02T14:22:14.001Z</time></trkpt><trkpt lat="45.997205827947425" lon="8.745783905209151"><ele>210.0</ele><time>2026-05-02T14:22:15.001Z</time></trkpt><trkpt lat="45.997202657788186" lon="8.745651153320885"><ele>210.0</ele><time>2026-05-02T14:22:17.001Z</time></trkpt><trkpt lat="45.9973233168616" lon="8.745651270580725"><ele>210.0</ele><time>2026-05-02T14:22:18.001Z</time></trkpt><trkpt lat="45.99743496964308" lon="8.745688248359174"><ele>210.0</ele><time>2026-05-02T14:22:19.001Z</time></trkpt><trkpt lat="45.997557797800916" lon="8.745714647193086"><ele>210.0</ele><time>2026-05-02T14:22:20.001Z</time></trkpt><trkpt lat="45.99744405871068" lon="8.74555212964566"><ele>210.0</ele><time>2026-05-02T14:22:21.001Z</time></trkpt><trkpt lat="45.99690705718373" lon="8.745265363259922"><ele>209.8</ele><time>2026-05-02T14:22:22.001Z</time></trkpt><trkpt lat="45.996867367063906" lon="8.745193371990451"><ele>209.6</ele><time>2026-05-02T14:22:23.001Z</time></trkpt><trkpt lat="45.99679821402291" lon="8.745068496369969"><ele>209.39999999999998</ele><time>2026-05-02T14:22:25.001Z</time></trkpt><trkpt lat="45.9967352438148" lon="8.744939070243797"><ele>209.2</ele><time>2026-05-02T14:22:27.001Z</time></trkpt><trkpt lat="45.9966853633888" lon="8.74480031589975"><ele>209.0</ele><time>2026-05-02T14:22:29.001Z</time></trkpt><trkpt lat="45.99666865352535" lon="8.744658613482775"><ele>209.00000000000003</ele><time>2026-05-02T14:22:31.001Z</time></trkpt><trkpt lat="45.99665410576875" lon="8.744527572972055"><ele>209.0</ele><time>2026-05-02T14:22:33.001Z</time></trkpt><trkpt lat="45.99662686167962" lon="8.74440439855023"><ele>209.0</ele><time>2026-05-02T14:22:35.001Z</time></trkpt><trkpt lat="45.996626864517275" lon="8.744296316492747"><ele>209.0</ele><time>2026-05-02T14:22:38.001Z</time></trkpt><trkpt lat="45.996637631201956" lon="8.744199526913892"><ele>209.00000000000003</ele><time>2026-05-02T14:22:40.001Z</time></trkpt><trkpt lat="45.99667459413657" lon="8.744064864523663"><ele>209.0</ele><time>2026-05-02T14:22:42.001Z</time></trkpt><trkpt lat="45.99665435343732" lon="8.743901094340591"><ele>209.00000000000003</ele><time>2026-05-02T14:22:44.001Z</time></trkpt><trkpt lat="45.99657442678255" lon="8.74387334568496"><ele>209.0</ele><time>2026-05-02T14:22:45.001Z</time></trkpt><trkpt lat="45.99649561944372" lon="8.743886720333318"><ele>209.0</ele><time>2026-05-02T14:22:46.001Z</time></trkpt><trkpt lat="45.99643507508867" lon="8.743961973870565"><ele>209.0</ele><time>2026-05-02T14:22:47.001Z</time></trkpt><trkpt lat="45.99636820006324" lon="8.744034344615978"><ele>209.00000000000003</ele><time>2026-05-02T14:22:48.001Z</time></trkpt><trkpt lat="45.99628750229749" lon="8.74409023535738"><ele>209.0</ele><time>2026-05-02T14:22:49.001Z</time></trkpt><trkpt lat="45.996186008136526" lon="8.744101333551303"><ele>209.0</ele><time>2026-05-02T14:22:50.001Z</time></trkpt><trkpt lat="45.99607937347904" lon="8.744104016102499"><ele>209.0</ele><time>2026-05-02T14:22:51.001Z</time></trkpt><trkpt lat="45.99596782593959" lon="8.744102171162895"><ele>209.0</ele><time>2026-05-02T14:22:52.001Z</time></trkpt><trkpt lat="45.99585836643413" lon="8.744114708211352"><ele>209.0</ele><time>2026-05-02T14:22:53.001Z</time></trkpt><trkpt lat="45.99574293634368" lon="8.744129582359648"><ele>209.0</ele><time>2026-05-02T14:22:54.001Z</time></trkpt><trkpt lat="45.995609752351456" lon="8.744142280647583"><ele>209.5</ele><time>2026-05-02T14:22:55.001Z</time></trkpt><trkpt lat="45.99547270704837" lon="8.744157033176384"><ele>210.0</ele><time>2026-05-02T14:22:56.001Z</time></trkpt><trkpt lat="45.99533727624476" lon="8.744170057010166"><ele>210.5</ele><time>2026-05-02T14:22:57.001Z</time></trkpt><trkpt lat="45.99520097673954" lon="8.744180242790625"><ele>211.0</ele><time>2026-05-02T14:22:58.001Z</time></trkpt><trkpt lat="45.99505216977603" lon="8.74418984466393"><ele>209.66666666666666</ele><time>2026-05-02T14:22:59.001Z</time></trkpt><trkpt lat="45.99490547111162" lon="8.744164079035802"><ele>208.33333333333331</ele><time>2026-05-02T14:23:00.001Z</time></trkpt><trkpt lat="45.99475769192985" lon="8.744117115385752"><ele>207.0</ele><time>2026-05-02T14:23:01.001Z</time></trkpt><trkpt lat="45.99458944774497" lon="8.744083584932532"><ele>207.0</ele><time>2026-05-02T14:23:02.001Z</time></trkpt><trkpt lat="45.994447071371745" lon="8.744047170054593"><ele>207.0</ele><time>2026-05-02T14:23:03.001Z</time></trkpt><trkpt lat="45.99432131844833" lon="8.744015887384244"><ele>207.0</ele><time>2026-05-02T14:23:04.001Z</time></trkpt><trkpt lat="45.99419990932326" lon="8.743988280129152"><ele>207.0</ele><time>2026-05-02T14:23:05.001Z</time></trkpt><trkpt lat="45.99409181500175" lon="8.743956605693056"><ele>206.2</ele><time>2026-05-02T14:23:06.001Z</time></trkpt><trkpt lat="45.99398340114348" lon="8.743921205070567"><ele>205.39999999999998</ele><time>2026-05-02T14:23:07.001Z</time></trkpt><trkpt lat="45.993871430546506" lon="8.743880527278298"><ele>204.60000000000002</ele><time>2026-05-02T14:23:08.001Z</time></trkpt><trkpt lat="45.99376969416121" lon="8.743839408112452"><ele>203.8</ele><time>2026-05-02T14:23:09.001Z</time></trkpt><trkpt lat="45.993676283315885" lon="8.74379605905732"><ele>203.0</ele><time>2026-05-02T14:23:10.001Z</time></trkpt><trkpt lat="45.99357236828549" lon="8.743758258112072"><ele>203.0</ele><time>2026-05-02T14:23:11.001Z</time></trkpt><trkpt lat="45.99346477743708" lon="8.743749311792815"><ele>203.0</ele><time>2026-05-02T14:23:12.001Z</time></trkpt><trkpt lat="45.99335074614986" lon="8.743777362370064"><ele>203.0</ele><time>2026-05-02T14:23:13.001Z</time></trkpt><trkpt lat="45.99323692724642" lon="8.743825997379291"><ele>203.0</ele><time>2026-05-02T14:23:14.001Z</time></trkpt><trkpt lat="45.99312953243934" lon="8.743883462529029"><ele>203.0</ele><time>2026-05-02T14:23:15.001Z</time></trkpt><trkpt lat="45.99303047247566" lon="8.743986912406495"><ele>203.0</ele><time>2026-05-02T14:23:16.001Z</time></trkpt><trkpt lat="45.99291795555002" lon="8.744091705894322"><ele>203.0</ele><time>2026-05-02T14:23:17.001Z</time></trkpt><trkpt lat="45.9928116611724" lon="8.744175986554035"><ele>203.0</ele><time>2026-05-02T14:23:18.001Z</time></trkpt><trkpt lat="45.992711437567635" lon="8.744253297003183"><ele>203.0</ele><time>2026-05-02T14:23:19.001Z</time></trkpt><trkpt lat="45.99261827291633" lon="8.744317458561166"><ele>203.0</ele><time>2026-05-02T14:23:20.001Z</time></trkpt><trkpt lat="45.992530615936275" lon="8.744384293768734"><ele>203.0</ele><time>2026-05-02T14:23:21.001Z</time></trkpt><trkpt lat="45.992459354357685" lon="8.744441667692987"><ele>203.0</ele><time>2026-05-02T14:23:22.001Z</time></trkpt><trkpt lat="45.99238307978321" lon="8.744493985411808"><ele>203.0</ele><time>2026-05-02T14:23:23.001Z</time></trkpt><trkpt lat="45.99231066048065" lon="8.744549899552476"><ele>203.2</ele><time>2026-05-02T14:23:24.001Z</time></trkpt><trkpt lat="45.992243913934274" lon="8.744598164478619"><ele>203.4</ele><time>2026-05-02T14:23:25.001Z</time></trkpt><trkpt lat="45.992187092771594" lon="8.744649353401217"><ele>203.6</ele><time>2026-05-02T14:23:26.001Z</time></trkpt><trkpt lat="45.99208629000234" lon="8.744709910065135"><ele>203.79999999999998</ele><time>2026-05-02T14:23:28.001Z</time></trkpt><trkpt lat="45.9919981877726" lon="8.744781247368744"><ele>204.0</ele><time>2026-05-02T14:23:30.001Z</time></trkpt><trkpt lat="45.99195797841601" lon="8.744978199379743"><ele>204.0</ele><time>2026-05-02T14:23:32.001Z</time></trkpt><trkpt lat="45.99193620834153" lon="8.745098446843036"><ele>204.0</ele><time>2026-05-02T14:23:33.001Z</time></trkpt><trkpt lat="45.991898113420106" lon="8.745241131644026"><ele>204.0</ele><time>2026-05-02T14:23:34.001Z</time></trkpt><trkpt lat="45.99186332576908" lon="8.745395160114157"><ele>204.0</ele><time>2026-05-02T14:23:35.001Z</time></trkpt><trkpt lat="45.991822846111944" lon="8.745547379750414"><ele>204.0</ele><time>2026-05-02T14:23:36.001Z</time></trkpt><trkpt lat="45.99178269024795" lon="8.745682005281877"><ele>204.25</ele><time>2026-05-02T14:23:37.001Z</time></trkpt><trkpt lat="45.99174006462473" lon="8.745838690668627"><ele>204.5</ele><time>2026-05-02T14:23:38.001Z</time></trkpt><trkpt lat="45.99168791683583" lon="8.746033132340164"><ele>204.75</ele><time>2026-05-02T14:23:39.001Z</time></trkpt><trkpt lat="45.99163216150732" lon="8.746242141725842"><ele>205.0</ele><time>2026-05-02T14:23:40.001Z</time></trkpt><trkpt lat="45.99160766923048" lon="8.746331114466154"><ele>204.6</ele><time>2026-05-02T14:23:41.001Z</time></trkpt><trkpt lat="45.99157507389279" lon="8.746471173482686"><ele>204.2</ele><time>2026-05-02T14:23:42.001Z</time></trkpt><trkpt lat="45.99153257248102" lon="8.746613361490313"><ele>203.8</ele><time>2026-05-02T14:23:43.001Z</time></trkpt><trkpt lat="45.991504185531255" lon="8.74674538412463"><ele>203.4</ele><time>2026-05-02T14:23:44.001Z</time></trkpt><trkpt lat="45.991474194101336" lon="8.7468817579542"><ele>203.0</ele><time>2026-05-02T14:23:45.001Z</time></trkpt><trkpt lat="45.99143247878146" lon="8.746999060817608"><ele>203.66666666666669</ele><time>2026-05-02T14:23:46.001Z</time></trkpt><trkpt lat="45.99140556161457" lon="8.747095615667542"><ele>204.33333333333334</ele><time>2026-05-02T14:23:47.001Z</time></trkpt><trkpt lat="45.9913664205426" lon="8.747197795848427"><ele>205.0</ele><time>2026-05-02T14:23:48.001Z</time></trkpt><trkpt lat="45.99130003373677" lon="8.747254857425839"><ele>205.66666666666669</ele><time>2026-05-02T14:23:49.001Z</time></trkpt><trkpt lat="45.991228254635196" lon="8.747309883722995"><ele>206.33333333333334</ele><time>2026-05-02T14:23:50.001Z</time></trkpt><trkpt lat="45.99116385305738" lon="8.747409731872416"><ele>207.0</ele><time>2026-05-02T14:23:51.001Z</time></trkpt><trkpt lat="45.99111852225248" lon="8.747526364272145"><ele>207.0</ele><time>2026-05-02T14:23:52.001Z</time></trkpt><trkpt lat="45.991074147065824" lon="8.747631099900572"><ele>207.0</ele><time>2026-05-02T14:23:53.001Z</time></trkpt><trkpt lat="45.991006483648334" lon="8.74771338719023"><ele>207.0</ele><time>2026-05-02T14:23:54.001Z</time></trkpt><trkpt lat="45.99093444547609" lon="8.747781306413808"><ele>207.0</ele><time>2026-05-02T14:23:55.001Z</time></trkpt><trkpt lat="45.990853367191114" lon="8.747826720099543"><ele>207.0</ele><time>2026-05-02T14:23:56.001Z</time></trkpt><trkpt lat="45.990769606345296" lon="8.747869807731812"><ele>207.0</ele><time>2026-05-02T14:23:57.001Z</time></trkpt><trkpt lat="45.99067661757661" lon="8.747916336290858"><ele>206.75</ele><time>2026-05-02T14:23:58.001Z</time></trkpt><trkpt lat="45.990569615327146" lon="8.747961632612995"><ele>206.5</ele><time>2026-05-02T14:23:59.001Z</time></trkpt><trkpt lat="45.99043938482246" lon="8.748018296813994"><ele>206.25</ele><time>2026-05-02T14:24:00.001Z</time></trkpt><trkpt lat="45.99029462757823" lon="8.748072139331665"><ele>206.0</ele><time>2026-05-02T14:24:01.001Z</time></trkpt><trkpt lat="45.990145189027366" lon="8.748136660882734"><ele>204.66666666666669</ele><time>2026-05-02T14:24:02.001Z</time></trkpt><trkpt lat="45.989982306957" lon="8.748218332994998"><ele>203.33333333333331</ele><time>2026-05-02T14:24:03.001Z</time></trkpt><trkpt lat="45.98984308294976" lon="8.748282597106071"><ele>202.0</ele><time>2026-05-02T14:24:04.001Z</time></trkpt><trkpt lat="45.98969443193843" lon="8.748345237387126"><ele>202.0</ele><time>2026-05-02T14:24:05.001Z</time></trkpt><trkpt lat="45.98955283782934" lon="8.748398853646004"><ele>202.0</ele><time>2026-05-02T14:24:06.001Z</time></trkpt><trkpt lat="45.989409965121126" lon="8.748456653231232"><ele>202.0</ele><time>2026-05-02T14:24:07.001Z</time></trkpt><trkpt lat="45.989237745492915" lon="8.748532382302901"><ele>202.66666666666666</ele><time>2026-05-02T14:24:08.001Z</time></trkpt><trkpt lat="45.98905777823162" lon="8.748610894357085"><ele>203.33333333333331</ele><time>2026-05-02T14:24:09.001Z</time></trkpt><trkpt lat="45.98886192090215" lon="8.74868918310735"><ele>204.0</ele><time>2026-05-02T14:24:10.001Z</time></trkpt><trkpt lat="45.9886530074976" lon="8.748757442854703"><ele>204.0</ele><time>2026-05-02T14:24:11.001Z</time></trkpt><trkpt lat="45.988449266048754" lon="8.74884038791893"><ele>204.0</ele><time>2026-05-02T14:24:12.001Z</time></trkpt><trkpt lat="45.98824922298003" lon="8.74892697740842"><ele>204.0</ele><time>2026-05-02T14:24:13.001Z</time></trkpt><trkpt lat="45.98805661634811" lon="8.749010676410158"><ele>204.0</ele><time>2026-05-02T14:24:14.001Z</time></trkpt><trkpt lat="45.987859346770286" lon="8.749090799545723"><ele>204.0</ele><time>2026-05-02T14:24:15.001Z</time></trkpt><trkpt lat="45.98765192708215" lon="8.749177175162215"><ele>204.0</ele><time>2026-05-02T14:24:16.001Z</time></trkpt><trkpt lat="45.9874400898018" lon="8.749262172975426"><ele>204.0</ele><time>2026-05-02T14:24:17Z</time></trkpt><trkpt lat="45.98723179802795" lon="8.74934547431435"><ele>204.0</ele><time>2026-05-02T14:24:18Z</time></trkpt><trkpt lat="45.98702310656569" lon="8.749437675438806"><ele>204.0</ele><time>2026-05-02T14:24:19Z</time></trkpt><trkpt lat="45.98681340392309" lon="8.749518919162044"><ele>205.33333333333331</ele><time>2026-05-02T14:24:20Z</time></trkpt><trkpt lat="45.986612325973596" lon="8.74961008664984"><ele>206.66666666666666</ele><time>2026-05-02T14:24:21Z</time></trkpt><trkpt lat="45.98641974794113" lon="8.749681065490533"><ele>208.0</ele><time>2026-05-02T14:24:22Z</time></trkpt><trkpt lat="45.98625091069608" lon="8.749746899852285"><ele>208.0</ele><time>2026-05-02T14:24:23Z</time></trkpt><trkpt lat="45.98610068009265" lon="8.749814773312744"><ele>208.0</ele><time>2026-05-02T14:24:24Z</time></trkpt><trkpt lat="45.98595949931582" lon="8.749879160684914"><ele>208.0</ele><time>2026-05-02T14:24:25Z</time></trkpt><trkpt lat="45.985818481640514" lon="8.749941467384923"><ele>208.4</ele><time>2026-05-02T14:24:26Z</time></trkpt><trkpt lat="45.985685718109" lon="8.749994739377216"><ele>208.8</ele><time>2026-05-02T14:24:27Z</time></trkpt><trkpt lat="45.9855695472004" lon="8.750032837670595"><ele>209.2</ele><time>2026-05-02T14:24:28Z</time></trkpt><trkpt lat="45.985467889956105" lon="8.750078001269179"><ele>209.6</ele><time>2026-05-02T14:24:29Z</time></trkpt><trkpt lat="45.9853994135609" lon="8.750094795570725"><ele>210.0</ele><time>2026-05-02T14:24:30Z</time></trkpt><trkpt lat="45.98530354010193" lon="8.750124743480528"><ele>210.0</ele><time>2026-05-02T14:24:32Z</time></trkpt><trkpt lat="45.985221591193664" lon="8.7501455783415"><ele>210.0</ele><time>2026-05-02T14:24:34Z</time></trkpt><trkpt lat="45.985117197347975" lon="8.75012778723951"><ele>210.0</ele><time>2026-05-02T14:24:36Z</time></trkpt><trkpt lat="45.984998985480544" lon="8.75008682415063"><ele>210.0</ele><time>2026-05-02T14:24:38Z</time></trkpt><trkpt lat="45.984936603720996" lon="8.7500424815816"><ele>210.0</ele><time>2026-05-02T14:24:39Z</time></trkpt><trkpt lat="45.98486588609511" lon="8.749991832369876"><ele>209.83333333333334</ele><time>2026-05-02T14:24:40Z</time></trkpt><trkpt lat="45.98479091059334" lon="8.749938228455047"><ele>209.66666666666669</ele><time>2026-05-02T14:24:41Z</time></trkpt><trkpt lat="45.98470883384808" lon="8.749873127295016"><ele>209.5</ele><time>2026-05-02T14:24:42Z</time></trkpt><trkpt lat="45.984621237802294" lon="8.749806164073563"><ele>209.33333333333334</ele><time>2026-05-02T14:24:43Z</time></trkpt><trkpt lat="45.9845623399843" lon="8.749759507364942"><ele>209.16666666666669</ele><time>2026-05-02T14:24:44Z</time></trkpt><trkpt lat="45.98448901328673" lon="8.749706269488327"><ele>209.0</ele><time>2026-05-02T14:24:45Z</time></trkpt><trkpt lat="45.98441852944691" lon="8.749650307564776"><ele>209.00000000000003</ele><time>2026-05-02T14:24:46Z</time></trkpt><trkpt lat="45.9843352254292" lon="8.749586880623223"><ele>209.0</ele><time>2026-05-02T14:24:47Z</time></trkpt><trkpt lat="45.98425298345924" lon="8.749533711859044"><ele>209.0</ele><time>2026-05-02T14:24:48Z</time></trkpt><trkpt lat="45.98417563784277" lon="8.749488753595008"><ele>209.0</ele><time>2026-05-02T14:24:49Z</time></trkpt><trkpt lat="45.98409541358072" lon="8.74945427599072"><ele>209.00000000000003</ele><time>2026-05-02T14:24:50Z</time></trkpt><trkpt lat="45.983999278954784" lon="8.749438752407364"><ele>209.0</ele><time>2026-05-02T14:24:51Z</time></trkpt><trkpt lat="45.983890217287055" lon="8.749441399625358"><ele>209.25</ele><time>2026-05-02T14:24:52Z</time></trkpt><trkpt lat="45.98376715378846" lon="8.749429625533633"><ele>209.5</ele><time>2026-05-02T14:24:53Z</time></trkpt><trkpt lat="45.983637160889316" lon="8.749433690342649"><ele>209.75</ele><time>2026-05-02T14:24:54Z</time></trkpt><trkpt lat="45.98347232333336" lon="8.749437549883373"><ele>210.0</ele><time>2026-05-02T14:24:55Z</time></trkpt><trkpt lat="45.983385682127675" lon="8.749433465433812"><ele>211.0</ele><time>2026-05-02T14:24:56Z</time></trkpt><trkpt lat="45.983263202593164" lon="8.74943605887009"><ele>212.0</ele><time>2026-05-02T14:24:57Z</time></trkpt><trkpt lat="45.98316861667516" lon="8.749448123277487"><ele>213.0</ele><time>2026-05-02T14:24:58Z</time></trkpt><trkpt lat="45.98308581800999" lon="8.74944740445649"><ele>214.0</ele><time>2026-05-02T14:24:59Z</time></trkpt><trkpt lat="45.98301158261392" lon="8.749446354952626"><ele>215.0</ele><time>2026-05-02T14:25:00Z</time></trkpt><trkpt lat="45.98289712742098" lon="8.749359182352425"><ele>215.0</ele><time>2026-05-02T14:25:02Z</time></trkpt><trkpt lat="45.98283236956193" lon="8.749338872132412"><ele>215.0</ele><time>2026-05-02T14:25:03Z</time></trkpt><trkpt lat="45.98269084466097" lon="8.74942992170671"><ele>215.0</ele><time>2026-05-02T14:25:05Z</time></trkpt><trkpt lat="45.982609259259846" lon="8.749477304963294"><ele>215.0</ele><time>2026-05-02T14:25:06Z</time></trkpt><trkpt lat="45.98252232972765" lon="8.749501042118432"><ele>215.0</ele><time>2026-05-02T14:25:07Z</time></trkpt><trkpt lat="45.98243570129834" lon="8.749457191929793"><ele>216.25</ele><time>2026-05-02T14:25:08Z</time></trkpt><trkpt lat="45.98233337386686" lon="8.74945924410607"><ele>217.5</ele><time>2026-05-02T14:25:09Z</time></trkpt><trkpt lat="45.98221233411762" lon="8.749461602252573"><ele>218.75</ele><time>2026-05-02T14:25:10Z</time></trkpt><trkpt lat="45.98206860239316" lon="8.749464402492809"><ele>220.0</ele><time>2026-05-02T14:25:11Z</time></trkpt><trkpt lat="45.98190050975014" lon="8.749490195981485"><ele>220.0</ele><time>2026-05-02T14:25:12Z</time></trkpt><trkpt lat="45.98173461498547" lon="8.74947858793407"><ele>220.0</ele><time>2026-05-02T14:25:13Z</time></trkpt><trkpt lat="45.981569000709236" lon="8.749484926262712"><ele>220.0</ele><time>2026-05-02T14:25:14Z</time></trkpt><trkpt lat="45.98139851944723" lon="8.749499182930231"><ele>220.33333333333331</ele><time>2026-05-02T14:25:15Z</time></trkpt><trkpt lat="45.98121027146505" lon="8.7495111745079"><ele>220.66666666666669</ele><time>2026-05-02T14:25:16Z</time></trkpt><trkpt lat="45.98101234816813" lon="8.749522322182557"><ele>221.0</ele><time>2026-05-02T14:25:17Z</time></trkpt><trkpt lat="45.980824092148424" lon="8.749568454582183"><ele>220.0</ele><time>2026-05-02T14:25:18Z</time></trkpt><trkpt lat="45.980623262418106" lon="8.749579272728106"><ele>219.0</ele><time>2026-05-02T14:25:19Z</time></trkpt><trkpt lat="45.98041926924627" lon="8.7496139142004"><ele>218.0</ele><time>2026-05-02T14:25:20Z</time></trkpt><trkpt lat="45.980213996137394" lon="8.749714200863401"><ele>214.0</ele><time>2026-05-02T14:25:21Z</time></trkpt><trkpt lat="45.97999755456025" lon="8.749862412985252"><ele>210.0</ele><time>2026-05-02T14:25:22Z</time></trkpt><trkpt lat="45.979816426859266" lon="8.750021098864067"><ele>210.0</ele><time>2026-05-02T14:25:23Z</time></trkpt><trkpt lat="45.9796272095513" lon="8.750185943564384"><ele>210.0</ele><time>2026-05-02T14:25:24Z</time></trkpt><trkpt lat="45.9794345520957" lon="8.750366583350718"><ele>212.5</ele><time>2026-05-02T14:25:25Z</time></trkpt><trkpt lat="45.97920082211957" lon="8.750552244743666"><ele>215.0</ele><time>2026-05-02T14:25:26Z</time></trkpt><trkpt lat="45.97897391780942" lon="8.750744726353718"><ele>215.0</ele><time>2026-05-02T14:25:27Z</time></trkpt><trkpt lat="45.978759097797926" lon="8.750935754996457"><ele>215.0</ele><time>2026-05-02T14:25:28Z</time></trkpt><trkpt lat="45.978556554336514" lon="8.751111795833804"><ele>218.0</ele><time>2026-05-02T14:25:29Z</time></trkpt><trkpt lat="45.97835529119171" lon="8.751224943574632"><ele>221.0</ele><time>2026-05-02T14:25:30Z</time></trkpt><trkpt lat="45.978170077710935" lon="8.751288826657138"><ele>224.0</ele><time>2026-05-02T14:25:31Z</time></trkpt><trkpt lat="45.977960910582674" lon="8.751317385067752"><ele>224.0</ele><time>2026-05-02T14:25:32Z</time></trkpt><trkpt lat="45.977729302149605" lon="8.751352455701776"><ele>224.0</ele><time>2026-05-02T14:25:33Z</time></trkpt><trkpt lat="45.977484413778825" lon="8.751355313231722"><ele>218.0</ele><time>2026-05-02T14:25:34Z</time></trkpt><trkpt lat="45.977241729858704" lon="8.751349005331015"><ele>212.0</ele><time>2026-05-02T14:25:35Z</time></trkpt><trkpt lat="45.97701186795153" lon="8.751353757751986"><ele>212.0</ele><time>2026-05-02T14:25:36Z</time></trkpt><trkpt lat="45.97679948807009" lon="8.751367333520486"><ele>212.0</ele><time>2026-05-02T14:25:37Z</time></trkpt><trkpt lat="45.97659670569089" lon="8.751391161273395"><ele>212.0</ele><time>2026-05-02T14:25:38Z</time></trkpt><trkpt lat="45.97639777033088" lon="8.751422859665348"><ele>210.0</ele><time>2026-05-02T14:25:39Z</time></trkpt><trkpt lat="45.976216815817615" lon="8.751487807694039"><ele>208.0</ele><time>2026-05-02T14:25:40Z</time></trkpt><trkpt lat="45.976042707929786" lon="8.751570345054125"><ele>206.0</ele><time>2026-05-02T14:25:41Z</time></trkpt><trkpt lat="45.97589580276531" lon="8.75167708194785"><ele>207.0</ele><time>2026-05-02T14:25:42Z</time></trkpt><trkpt lat="45.97577998243139" lon="8.751797152325162"><ele>208.0</ele><time>2026-05-02T14:25:43Z</time></trkpt><trkpt lat="45.97563807200419" lon="8.751935909679798"><ele>209.0</ele><time>2026-05-02T14:25:44Z</time></trkpt><trkpt lat="45.97548036297474" lon="8.752073882868682"><ele>209.0</ele><time>2026-05-02T14:25:45Z</time></trkpt><trkpt lat="45.975311201913534" lon="8.752229657658688"><ele>209.0</ele><time>2026-05-02T14:25:46Z</time></trkpt><trkpt lat="45.975142434114694" lon="8.752382696046487"><ele>209.0</ele><time>2026-05-02T14:25:47Z</time></trkpt><trkpt lat="45.97495600678265" lon="8.752538991049368"><ele>209.33333333333334</ele><time>2026-05-02T14:25:48Z</time></trkpt><trkpt lat="45.97479421122114" lon="8.752709234308188"><ele>209.66666666666669</ele><time>2026-05-02T14:25:49Z</time></trkpt><trkpt lat="45.974643412255936" lon="8.752915515351098"><ele>210.0</ele><time>2026-05-02T14:25:50Z</time></trkpt><trkpt lat="45.974499934232036" lon="8.753147444504632"><ele>210.0</ele><time>2026-05-02T14:25:51Z</time></trkpt><trkpt lat="45.97431840374642" lon="8.75340640515312"><ele>210.0</ele><time>2026-05-02T14:25:52Z</time></trkpt><trkpt lat="45.974146859414034" lon="8.75365633729451"><ele>215.5</ele><time>2026-05-02T14:25:53Z</time></trkpt><trkpt lat="45.97399179874402" lon="8.75390178269428"><ele>221.0</ele><time>2026-05-02T14:25:54Z</time></trkpt><trkpt lat="45.97381193785696" lon="8.754113808510622"><ele>221.0</ele><time>2026-05-02T14:25:55Z</time></trkpt><trkpt lat="45.97363415559407" lon="8.754303120254972"><ele>221.0</ele><time>2026-05-02T14:25:56Z</time></trkpt><trkpt lat="45.97345076801597" lon="8.754474479072028"><ele>221.0</ele><time>2026-05-02T14:25:57Z</time></trkpt><trkpt lat="45.97325768680951" lon="8.75462680534053"><ele>224.33333333333334</ele><time>2026-05-02T14:25:58Z</time></trkpt><trkpt lat="45.9730591938648" lon="8.754755934472826"><ele>227.66666666666669</ele><time>2026-05-02T14:25:59Z</time></trkpt><trkpt lat="45.9728637302841" lon="8.75487037502959"><ele>231.0</ele><time>2026-05-02T14:26:00Z</time></trkpt><trkpt lat="45.97266294048091" lon="8.754938771395983"><ele>224.0</ele><time>2026-05-02T14:26:01Z</time></trkpt><trkpt lat="45.97244639623454" lon="8.754994306071723"><ele>217.0</ele><time>2026-05-02T14:26:02Z</time></trkpt><trkpt lat="45.972210138973615" lon="8.755017103044265"><ele>217.0</ele><time>2026-05-02T14:26:03Z</time></trkpt><trkpt lat="45.971978217259235" lon="8.755026410560264"><ele>217.0</ele><time>2026-05-02T14:26:04Z</time></trkpt><trkpt lat="45.97173970469713" lon="8.755035609056792"><ele>219.5</ele><time>2026-05-02T14:26:05Z</time></trkpt><trkpt lat="45.971509066833114" lon="8.755026463521402"><ele>222.0</ele><time>2026-05-02T14:26:06Z</time></trkpt><trkpt lat="45.971271542991914" lon="8.755030440208158"><ele>222.0</ele><time>2026-05-02T14:26:07Z</time></trkpt><trkpt lat="45.97103403814969" lon="8.755034545195382"><ele>222.0</ele><time>2026-05-02T14:26:08Z</time></trkpt><trkpt lat="45.9708117461009" lon="8.75503192138334"><ele>222.66666666666669</ele><time>2026-05-02T14:26:09Z</time></trkpt><trkpt lat="45.970598490925966" lon="8.755039633775803"><ele>223.33333333333334</ele><time>2026-05-02T14:26:10Z</time></trkpt><trkpt lat="45.97040391084003" lon="8.755088131252222"><ele>224.0</ele><time>2026-05-02T14:26:11Z</time></trkpt><trkpt lat="45.97022152301603" lon="8.755216910465071"><ele>227.0</ele><time>2026-05-02T14:26:12Z</time></trkpt><trkpt lat="45.96995244270572" lon="8.755329482373964"><ele>230.0</ele><time>2026-05-02T14:26:13Z</time></trkpt><trkpt lat="45.9698531537771" lon="8.755502074125664"><ele>233.0</ele><time>2026-05-02T14:26:14Z</time></trkpt><trkpt lat="45.96965835025427" lon="8.755662219570272"><ele>233.0</ele><time>2026-05-02T14:26:15Z</time></trkpt><trkpt lat="45.969463092092326" lon="8.755825182079233"><ele>233.0</ele><time>2026-05-02T14:26:16Z</time></trkpt><trkpt lat="45.96926452474995" lon="8.756003507222188"><ele>237.5</ele><time>2026-05-02T14:26:17Z</time></trkpt><trkpt lat="45.96907943730637" lon="8.756186771101174"><ele>242.0</ele><time>2026-05-02T14:26:18Z</time></trkpt><trkpt lat="45.96888656405082" lon="8.756361667933225"><ele>242.0</ele><time>2026-05-02T14:26:19Z</time></trkpt><trkpt lat="45.96869902711955" lon="8.756538904575388"><ele>242.0</ele><time>2026-05-02T14:26:20Z</time></trkpt><trkpt lat="45.96851335246778" lon="8.756694424899754"><ele>242.0</ele><time>2026-05-02T14:26:21Z</time></trkpt><trkpt lat="45.96832743285044" lon="8.756767260234815"><ele>235.33333333333334</ele><time>2026-05-02T14:26:22Z</time></trkpt><trkpt lat="45.96814958501614" lon="8.756790745908306"><ele>228.66666666666669</ele><time>2026-05-02T14:26:23Z</time></trkpt><trkpt lat="45.96796748406108" lon="8.756794888875909"><ele>222.0</ele><time>2026-05-02T14:26:24Z</time></trkpt><trkpt lat="45.96777272674888" lon="8.75682294399826"><ele>226.66666666666669</ele><time>2026-05-02T14:26:25Z</time></trkpt><trkpt lat="45.96759698896312" lon="8.756922521617943"><ele>231.33333333333334</ele><time>2026-05-02T14:26:26Z</time></trkpt><trkpt lat="45.96740769108136" lon="8.75704493439706"><ele>236.0</ele><time>2026-05-02T14:26:27Z</time></trkpt><trkpt lat="45.96720902846977" lon="8.75718394665173"><ele>236.0</ele><time>2026-05-02T14:26:28Z</time></trkpt><trkpt lat="45.96701655900753" lon="8.757337199297682"><ele>236.0</ele><time>2026-05-02T14:26:29Z</time></trkpt><trkpt lat="45.966820151686434" lon="8.757493884348563"><ele>236.0</ele><time>2026-05-02T14:26:30Z</time></trkpt><trkpt lat="45.96661538688402" lon="8.757638331629845"><ele>244.0</ele><time>2026-05-02T14:26:31Z</time></trkpt><trkpt lat="45.966406836493476" lon="8.757791676108521"><ele>252.0</ele><time>2026-05-02T14:26:32Z</time></trkpt><trkpt lat="45.96621852109512" lon="8.757946632722177"><ele>252.0</ele><time>2026-05-02T14:26:33Z</time></trkpt><trkpt lat="45.9660365564129" lon="8.758084645307905"><ele>252.0</ele><time>2026-05-02T14:26:34Z</time></trkpt><trkpt lat="45.96585983081214" lon="8.758205231281066"><ele>252.0</ele><time>2026-05-02T14:26:35Z</time></trkpt><trkpt lat="45.96567130106277" lon="8.758325952608145"><ele>245.33333333333331</ele><time>2026-05-02T14:26:36Z</time></trkpt><trkpt lat="45.965497424469476" lon="8.758438701469206"><ele>238.66666666666666</ele><time>2026-05-02T14:26:37Z</time></trkpt><trkpt lat="45.96533419899833" lon="8.758524809302774"><ele>232.0</ele><time>2026-05-02T14:26:38Z</time></trkpt><trkpt lat="45.96518040185208" lon="8.75861302937163"><ele>237.66666666666666</ele><time>2026-05-02T14:26:39Z</time></trkpt><trkpt lat="45.96503053167448" lon="8.758696418233967"><ele>243.33333333333331</ele><time>2026-05-02T14:26:40Z</time></trkpt><trkpt lat="45.964884758315975" lon="8.758789595158076"><ele>249.0</ele><time>2026-05-02T14:26:41Z</time></trkpt><trkpt lat="45.96474125291005" lon="8.758877381432018"><ele>249.0</ele><time>2026-05-02T14:26:42Z</time></trkpt><trkpt lat="45.9645785216548" lon="8.758953900978401"><ele>249.0</ele><time>2026-05-02T14:26:43Z</time></trkpt><trkpt lat="45.964411129498785" lon="8.759018310573088"><ele>249.0</ele><time>2026-05-02T14:26:44Z</time></trkpt><trkpt lat="45.96424479665126" lon="8.759074083341646"><ele>243.0</ele><time>2026-05-02T14:26:45Z</time></trkpt><trkpt lat="45.96408583449708" lon="8.759094717761188"><ele>237.0</ele><time>2026-05-02T14:26:46Z</time></trkpt><trkpt lat="45.963912737231624" lon="8.759107114486897"><ele>231.0</ele><time>2026-05-02T14:26:47Z</time></trkpt><trkpt lat="45.963752682957214" lon="8.75916068113301"><ele>231.0</ele><time>2026-05-02T14:26:48Z</time></trkpt><trkpt lat="45.96361840637378" lon="8.759226062446656"><ele>231.0</ele><time>2026-05-02T14:26:49Z</time></trkpt><trkpt lat="45.96348554705857" lon="8.759291977033634"><ele>231.0</ele><time>2026-05-02T14:26:50Z</time></trkpt><trkpt lat="45.963346960979386" lon="8.759370859703042"><ele>231.0</ele><time>2026-05-02T14:26:51Z</time></trkpt><trkpt lat="45.963217683520206" lon="8.759461353067124"><ele>235.0</ele><time>2026-05-02T14:26:52Z</time></trkpt><trkpt lat="45.96308333378114" lon="8.75953845437322"><ele>239.0</ele><time>2026-05-02T14:26:53Z</time></trkpt><trkpt lat="45.96296798796963" lon="8.759617374577441"><ele>243.0</ele><time>2026-05-02T14:26:54Z</time></trkpt><trkpt lat="45.96283774536991" lon="8.759690663382505"><ele>247.0</ele><time>2026-05-02T14:26:55Z</time></trkpt><trkpt lat="45.9627034650607" lon="8.759783081000212"><ele>247.0</ele><time>2026-05-02T14:26:56Z</time></trkpt><trkpt lat="45.9625517774098" lon="8.759861948068934"><ele>247.0</ele><time>2026-05-02T14:26:57Z</time></trkpt><trkpt lat="45.96238199397969" lon="8.759957877481105"><ele>247.0</ele><time>2026-05-02T14:26:58Z</time></trkpt><trkpt lat="45.9622080473108" lon="8.760049381638142"><ele>250.66666666666666</ele><time>2026-05-02T14:26:59Z</time></trkpt><trkpt lat="45.96203388338038" lon="8.760136233461571"><ele>254.33333333333331</ele><time>2026-05-02T14:27:00Z</time></trkpt><trkpt lat="45.96188094599017" lon="8.760222643510456"><ele>258.0</ele><time>2026-05-02T14:27:01Z</time></trkpt><trkpt lat="45.961745732673016" lon="8.760312750955631"><ele>249.75</ele><time>2026-05-02T14:27:02Z</time></trkpt><trkpt lat="45.96160476106125" lon="8.76037728771217"><ele>241.5</ele><time>2026-05-02T14:27:03Z</time></trkpt><trkpt lat="45.961473588753975" lon="8.760461301619225"><ele>233.25</ele><time>2026-05-02T14:27:04Z</time></trkpt><trkpt lat="45.961355205779995" lon="8.760542710194242"><ele>225.0</ele><time>2026-05-02T14:27:05Z</time></trkpt><trkpt lat="45.961236786487525" lon="8.760630188043558"><ele>225.0</ele><time>2026-05-02T14:27:06Z</time></trkpt><trkpt lat="45.96111802032049" lon="8.760710033308952"><ele>225.0</ele><time>2026-05-02T14:27:07Z</time></trkpt><trkpt lat="45.9610011567836" lon="8.76079297233148"><ele>225.0</ele><time>2026-05-02T14:27:08Z</time></trkpt><trkpt lat="45.96088859164162" lon="8.760906542385284"><ele>225.0</ele><time>2026-05-02T14:27:09Z</time></trkpt><trkpt lat="45.96078642914163" lon="8.761048109013322"><ele>225.66666666666669</ele><time>2026-05-02T14:27:10Z</time></trkpt><trkpt lat="45.96069660719554" lon="8.761230159910742"><ele>226.33333333333334</ele><time>2026-05-02T14:27:11Z</time></trkpt><trkpt lat="45.96062188548628" lon="8.761431609594519"><ele>227.0</ele><time>2026-05-02T14:27:12Z</time></trkpt><trkpt lat="45.96054660647429" lon="8.76165887628293"><ele>230.0</ele><time>2026-05-02T14:27:13Z</time></trkpt><trkpt lat="45.96048305715404" lon="8.761899445348286"><ele>233.0</ele><time>2026-05-02T14:27:14Z</time></trkpt><trkpt lat="45.96040812331741" lon="8.762125265317954"><ele>236.0</ele><time>2026-05-02T14:27:15Z</time></trkpt><trkpt lat="45.96033492818616" lon="8.762316266340383"><ele>236.0</ele><time>2026-05-02T14:27:16Z</time></trkpt><trkpt lat="45.960265503047935" lon="8.762490000499954"><ele>236.0</ele><time>2026-05-02T14:27:17Z</time></trkpt><trkpt lat="45.96019763388891" lon="8.76264937265516"><ele>236.0</ele><time>2026-05-02T14:27:18Z</time></trkpt><trkpt lat="45.960145018068836" lon="8.762817131762796"><ele>236.0</ele><time>2026-05-02T14:27:19Z</time></trkpt><trkpt lat="45.96008359773875" lon="8.762986475444444"><ele>236.0</ele><time>2026-05-02T14:27:20Z</time></trkpt><trkpt lat="45.95999881814983" lon="8.763142856939615"><ele>236.0</ele><time>2026-05-02T14:27:21Z</time></trkpt><trkpt lat="45.959891214538274" lon="8.763294928067522"><ele>236.0</ele><time>2026-05-02T14:27:22Z</time></trkpt><trkpt lat="45.95976432976192" lon="8.763412006663463"><ele>236.0</ele><time>2026-05-02T14:27:23Z</time></trkpt><trkpt lat="45.95964787488995" lon="8.763528658730136"><ele>241.75</ele><time>2026-05-02T14:27:24Z</time></trkpt><trkpt lat="45.95953270417994" lon="8.763623136966253"><ele>247.5</ele><time>2026-05-02T14:27:25Z</time></trkpt><trkpt lat="45.95939322651683" lon="8.763718504274342"><ele>253.25</ele><time>2026-05-02T14:27:26Z</time></trkpt><trkpt lat="45.959244656086575" lon="8.763794566887173"><ele>259.0</ele><time>2026-05-02T14:27:27Z</time></trkpt><trkpt lat="45.95908060897824" lon="8.763850791922875"><ele>259.0</ele><time>2026-05-02T14:27:28Z</time></trkpt><trkpt lat="45.95891586118137" lon="8.763887920055156"><ele>259.0</ele><time>2026-05-02T14:27:29Z</time></trkpt><trkpt lat="45.95876459595481" lon="8.763905503974568"><ele>259.0</ele><time>2026-05-02T14:27:30Z</time></trkpt><trkpt lat="45.958618571051005" lon="8.763920285381486"><ele>259.0</ele><time>2026-05-02T14:27:31Z</time></trkpt><trkpt lat="45.958485933961015" lon="8.763933711602869"><ele>259.0</ele><time>2026-05-02T14:27:32Z</time></trkpt><trkpt lat="45.95834819266967" lon="8.763947654499194"><ele>259.0</ele><time>2026-05-02T14:27:33Z</time></trkpt><trkpt lat="45.9582041839791" lon="8.763962757094973"><ele>259.0</ele><time>2026-05-02T14:27:34Z</time></trkpt><trkpt lat="45.95806546044614" lon="8.763981400930426"><ele>254.66666666666666</ele><time>2026-05-02T14:27:35Z</time></trkpt><trkpt lat="45.95792545510573" lon="8.764023698749648"><ele>250.33333333333331</ele><time>2026-05-02T14:27:36Z</time></trkpt><trkpt lat="45.957778812880925" lon="8.764100591825985"><ele>246.0</ele><time>2026-05-02T14:27:37Z</time></trkpt><trkpt lat="45.95763847660488" lon="8.764180210148455"><ele>243.0</ele><time>2026-05-02T14:27:38Z</time></trkpt><trkpt lat="45.95746133970922" lon="8.764279374590876"><ele>240.0</ele><time>2026-05-02T14:27:39Z</time></trkpt><trkpt lat="45.95728723617852" lon="8.764376840663754"><ele>237.0</ele><time>2026-05-02T14:27:40Z</time></trkpt><trkpt lat="45.95708958871704" lon="8.764487527593106"><ele>240.33333333333331</ele><time>2026-05-02T14:27:41Z</time></trkpt><trkpt lat="45.95690075647682" lon="8.764593547337512"><ele>243.66666666666666</ele><time>2026-05-02T14:27:42Z</time></trkpt><trkpt lat="45.956709614542724" lon="8.764700749726977"><ele>247.0</ele><time>2026-05-02T14:27:43Z</time></trkpt><trkpt lat="45.95652559636078" lon="8.76480391344739"><ele>247.0</ele><time>2026-05-02T14:27:44Z</time></trkpt><trkpt lat="45.95636842011522" lon="8.764892029102102"><ele>247.0</ele><time>2026-05-02T14:27:45Z</time></trkpt><trkpt lat="45.95623723047151" lon="8.764965576251521"><ele>247.0</ele><time>2026-05-02T14:27:46Z</time></trkpt><trkpt lat="45.95608277113611" lon="8.765051391873412"><ele>247.0</ele><time>2026-05-02T14:27:47Z</time></trkpt><trkpt lat="45.95593381595742" lon="8.765133253053127"><ele>247.0</ele><time>2026-05-02T14:27:48Z</time></trkpt><trkpt lat="45.95580830812908" lon="8.76519931697892"><ele>247.0</ele><time>2026-05-02T14:27:49Z</time></trkpt><trkpt lat="45.955681831612544" lon="8.765258680737738"><ele>247.0</ele><time>2026-05-02T14:27:50Z</time></trkpt><trkpt lat="45.95556518185585" lon="8.765333481650181"><ele>245.39999999999998</ele><time>2026-05-02T14:27:51Z</time></trkpt><trkpt lat="45.95545809167115" lon="8.765375604935757"><ele>243.79999999999998</ele><time>2026-05-02T14:27:52Z</time></trkpt><trkpt lat="45.955356301031145" lon="8.765381661670096"><ele>242.2</ele><time>2026-05-02T14:27:53Z</time></trkpt><trkpt lat="45.95525823025935" lon="8.765381304427244"><ele>240.6</ele><time>2026-05-02T14:27:54Z</time></trkpt><trkpt lat="45.955168570779655" lon="8.765333333452308"><ele>239.0</ele><time>2026-05-02T14:27:55Z</time></trkpt><trkpt lat="45.95508774098222" lon="8.765327914025061"><ele>237.2</ele><time>2026-05-02T14:27:56Z</time></trkpt><trkpt lat="45.954998688463355" lon="8.765322080050455"><ele>235.39999999999998</ele><time>2026-05-02T14:27:57Z</time></trkpt><trkpt lat="45.954910534656946" lon="8.76531642653124"><ele>233.6</ele><time>2026-05-02T14:27:58Z</time></trkpt><trkpt lat="45.95481490815387" lon="8.765330152912089"><ele>231.8</ele><time>2026-05-02T14:27:59Z</time></trkpt><trkpt lat="45.954715760864275" lon="8.765299518837272"><ele>230.0</ele><time>2026-05-02T14:28:00Z</time></trkpt><trkpt lat="45.9546138282852" lon="8.765302535704386"><ele>230.0</ele><time>2026-05-02T14:28:01Z</time></trkpt><trkpt lat="45.95451166596918" lon="8.765296422666033"><ele>230.0</ele><time>2026-05-02T14:28:02Z</time></trkpt><trkpt lat="45.95440992187347" lon="8.76529421502696"><ele>230.0</ele><time>2026-05-02T14:28:03Z</time></trkpt><trkpt lat="45.95430648993594" lon="8.76528473054763"><ele>230.0</ele><time>2026-05-02T14:28:04Z</time></trkpt><trkpt lat="45.954204534441025" lon="8.765270990539248"><ele>230.0</ele><time>2026-05-02T14:28:05Z</time></trkpt><trkpt lat="45.954114361339634" lon="8.76526398966812"><ele>230.16666666666669</ele><time>2026-05-02T14:28:06Z</time></trkpt><trkpt lat="45.95404080634275" lon="8.765266047707987"><ele>230.33333333333334</ele><time>2026-05-02T14:28:07Z</time></trkpt><trkpt lat="45.95394660529571" lon="8.765255918855543"><ele>230.5</ele><time>2026-05-02T14:28:09Z</time></trkpt><trkpt lat="45.9539176374655" lon="8.765170540830994"><ele>230.66666666666669</ele><time>2026-05-02T14:28:13Z</time></trkpt><trkpt lat="45.95386332039614" lon="8.765053363845286"><ele>230.83333333333334</ele><time>2026-05-02T14:28:15Z</time></trkpt><trkpt lat="45.953832586363106" lon="8.764954557583103"><ele>231.0</ele><time>2026-05-02T14:28:16Z</time></trkpt><trkpt lat="45.95382348607232" lon="8.764823322717907"><ele>231.0</ele><time>2026-05-02T14:28:17Z</time></trkpt><trkpt lat="45.95378132419114" lon="8.76473760312937"><ele>231.00000000000003</ele><time>2026-05-02T14:28:18Z</time></trkpt><trkpt lat="45.953677224960224" lon="8.764713273426905"><ele>231.00000000000003</ele><time>2026-05-02T14:28:19Z</time></trkpt><trkpt lat="45.95358107158936" lon="8.764751697728206"><ele>231.0</ele><time>2026-05-02T14:28:20Z</time></trkpt><trkpt lat="45.95350710769259" lon="8.764842756716677"><ele>231.0</ele><time>2026-05-02T14:28:21Z</time></trkpt><trkpt lat="45.95343192446868" lon="8.764935040186025"><ele>231.4</ele><time>2026-05-02T14:28:22Z</time></trkpt><trkpt lat="45.95335945765435" lon="8.765023556251213"><ele>231.8</ele><time>2026-05-02T14:28:23Z</time></trkpt><trkpt lat="45.95327796132863" lon="8.76509761521625"><ele>232.20000000000002</ele><time>2026-05-02T14:28:24Z</time></trkpt><trkpt lat="45.95317707961806" lon="8.76515788846479"><ele>232.60000000000002</ele><time>2026-05-02T14:28:25Z</time></trkpt><trkpt lat="45.95307458179786" lon="8.765197582288542"><ele>233.0</ele><time>2026-05-02T14:28:26Z</time></trkpt><trkpt lat="45.95295323846427" lon="8.76522035461015"><ele>233.0</ele><time>2026-05-02T14:28:27Z</time></trkpt><trkpt lat="45.95284031602728" lon="8.76521442471951"><ele>233.0</ele><time>2026-05-02T14:28:28Z</time></trkpt><trkpt lat="45.952716405967394" lon="8.765216821340228"><ele>233.0</ele><time>2026-05-02T14:28:29Z</time></trkpt><trkpt lat="45.95259860375149" lon="8.765211181537554"><ele>233.0</ele><time>2026-05-02T14:28:30Z</time></trkpt><trkpt lat="45.952470836443176" lon="8.765210393505718"><ele>234.5</ele><time>2026-05-02T14:28:31Z</time></trkpt><trkpt lat="45.95231893748547" lon="8.765161440614408"><ele>236.0</ele><time>2026-05-02T14:28:32Z</time></trkpt><trkpt lat="45.95217602796419" lon="8.765152251514975"><ele>237.5</ele><time>2026-05-02T14:28:33Z</time></trkpt><trkpt lat="45.9520496952602" lon="8.765167931308765"><ele>239.0</ele><time>2026-05-02T14:28:34Z</time></trkpt><trkpt lat="45.951932368622245" lon="8.76516022853254"><ele>239.0</ele><time>2026-05-02T14:28:35Z</time></trkpt><trkpt lat="45.95181615125123" lon="8.76515189434111"><ele>239.0</ele><time>2026-05-02T14:28:36Z</time></trkpt><trkpt lat="45.95170157907471" lon="8.76512645350569"><ele>239.0</ele><time>2026-05-02T14:28:37Z</time></trkpt><trkpt lat="45.95159143858981" lon="8.76515073371604"><ele>239.0</ele><time>2026-05-02T14:28:38Z</time></trkpt><trkpt lat="45.95146081918473" lon="8.765172468645371"><ele>239.33333333333334</ele><time>2026-05-02T14:28:39Z</time></trkpt><trkpt lat="45.951342913247274" lon="8.765231292516711"><ele>239.66666666666669</ele><time>2026-05-02T14:28:40Z</time></trkpt><trkpt lat="45.95121515392934" lon="8.76529259416501"><ele>240.0</ele><time>2026-05-02T14:28:41Z</time></trkpt><trkpt lat="45.95104010006652" lon="8.765420062648944"><ele>240.0</ele><time>2026-05-02T14:28:42Z</time></trkpt><trkpt lat="45.9508490996062" lon="8.76549716136696"><ele>240.0</ele><time>2026-05-02T14:28:43Z</time></trkpt><trkpt lat="45.95067100076353" lon="8.765582650219253"><ele>240.0</ele><time>2026-05-02T14:28:44Z</time></trkpt><trkpt lat="45.95048186380845" lon="8.76566376449829"><ele>240.0</ele><time>2026-05-02T14:28:45Z</time></trkpt><trkpt lat="45.95028284315947" lon="8.765728171299648"><ele>240.0</ele><time>2026-05-02T14:28:46Z</time></trkpt><trkpt lat="45.95008573308688" lon="8.76578814936269"><ele>240.0</ele><time>2026-05-02T14:28:47Z</time></trkpt><trkpt lat="45.94989415628175" lon="8.765843034458257"><ele>240.33333333333331</ele><time>2026-05-02T14:28:48Z</time></trkpt><trkpt lat="45.9497090044228" lon="8.765901168886757"><ele>240.66666666666666</ele><time>2026-05-02T14:28:49Z</time></trkpt><trkpt lat="45.9495366296025" lon="8.765989843596047"><ele>241.0</ele><time>2026-05-02T14:28:50Z</time></trkpt><trkpt lat="45.94936182857454" lon="8.766144406060192"><ele>241.66666666666666</ele><time>2026-05-02T14:28:51Z</time></trkpt><trkpt lat="45.94918184506871" lon="8.76630975056377"><ele>242.33333333333331</ele><time>2026-05-02T14:28:52Z</time></trkpt><trkpt lat="45.94903419731699" lon="8.766488368820076"><ele>243.0</ele><time>2026-05-02T14:28:53Z</time></trkpt><trkpt lat="45.94890386016229" lon="8.766636190903494"><ele>243.0</ele><time>2026-05-02T14:28:54Z</time></trkpt><trkpt lat="45.94878261743194" lon="8.766766936262586"><ele>243.0</ele><time>2026-05-02T14:28:55Z</time></trkpt><trkpt lat="45.94868932046771" lon="8.766861409224262"><ele>243.0</ele><time>2026-05-02T14:28:56Z</time></trkpt><trkpt lat="45.94856400864556" lon="8.76694772215007"><ele>243.0</ele><time>2026-05-02T14:28:57Z</time></trkpt><trkpt lat="45.94848142734959" lon="8.767012966396571"><ele>242.66666666666666</ele><time>2026-05-02T14:28:58Z</time></trkpt><trkpt lat="45.94840741055513" lon="8.767061540157995"><ele>242.33333333333331</ele><time>2026-05-02T14:28:59Z</time></trkpt><trkpt lat="45.94833499075751" lon="8.767108710526312"><ele>242.0</ele><time>2026-05-02T14:29:00Z</time></trkpt><trkpt lat="45.948268969034054" lon="8.767149502621953"><ele>241.66666666666666</ele><time>2026-05-02T14:29:01Z</time></trkpt><trkpt lat="45.94820628935802" lon="8.76720109884293"><ele>241.33333333333331</ele><time>2026-05-02T14:29:02Z</time></trkpt><trkpt lat="45.94809433303035" lon="8.767272884122015"><ele>241.0</ele><time>2026-05-02T14:29:04Z</time></trkpt><trkpt lat="45.94796751666217" lon="8.767336764592255"><ele>240.99999999999997</ele><time>2026-05-02T14:29:06Z</time></trkpt><trkpt lat="45.94790217389561" lon="8.767361794555255"><ele>241.0</ele><time>2026-05-02T14:29:07Z</time></trkpt><trkpt lat="45.94783505149271" lon="8.767382146830627"><ele>241.0</ele><time>2026-05-02T14:29:08Z</time></trkpt><trkpt lat="45.94776783032395" lon="8.767418644493182"><ele>241.0</ele><time>2026-05-02T14:29:09Z</time></trkpt><trkpt lat="45.9476965131888" lon="8.76749335083362"><ele>240.99999999999997</ele><time>2026-05-02T14:29:10Z</time></trkpt><trkpt lat="45.94761777714525" lon="8.767558622260648"><ele>241.0</ele><time>2026-05-02T14:29:11Z</time></trkpt><trkpt lat="45.947523358342096" lon="8.767586558428695"><ele>241.0</ele><time>2026-05-02T14:29:12Z</time></trkpt><trkpt lat="45.947407092042276" lon="8.767544811938352"><ele>241.0</ele><time>2026-05-02T14:29:13Z</time></trkpt><trkpt lat="45.94730075193521" lon="8.767553246252696"><ele>241.0</ele><time>2026-05-02T14:29:14Z</time></trkpt><trkpt lat="45.94717440008535" lon="8.767563267790003"><ele>241.0</ele><time>2026-05-02T14:29:15Z</time></trkpt><trkpt lat="45.94704208851768" lon="8.767573762019834"><ele>241.0</ele><time>2026-05-02T14:29:16Z</time></trkpt><trkpt lat="45.94689421541727" lon="8.767585490509761"><ele>241.0</ele><time>2026-05-02T14:29:17Z</time></trkpt><trkpt lat="45.94673374082145" lon="8.767606078701291"><ele>241.0</ele><time>2026-05-02T14:29:18Z</time></trkpt><trkpt lat="45.94654857010947" lon="8.76762025414827"><ele>240.0</ele><time>2026-05-02T14:29:19Z</time></trkpt><trkpt lat="45.94632389532644" lon="8.767631743451304"><ele>239.0</ele><time>2026-05-02T14:29:20Z</time></trkpt><trkpt lat="45.94614749757876" lon="8.767652527324659"><ele>238.0</ele><time>2026-05-02T14:29:21Z</time></trkpt><trkpt lat="45.94596385501035" lon="8.767679617812991"><ele>237.66666666666666</ele><time>2026-05-02T14:29:22Z</time></trkpt><trkpt lat="45.94576163344308" lon="8.76767303316767"><ele>237.33333333333331</ele><time>2026-05-02T14:29:23Z</time></trkpt><trkpt lat="45.94551551581154" lon="8.767688990565057"><ele>237.0</ele><time>2026-05-02T14:29:24Z</time></trkpt><trkpt lat="45.945269102992675" lon="8.76768594907533"><ele>238.0</ele><time>2026-05-02T14:29:25Z</time></trkpt><trkpt lat="45.9450270702134" lon="8.767643852737198"><ele>239.0</ele><time>2026-05-02T14:29:26Z</time></trkpt><trkpt lat="45.94481012731052" lon="8.76757521212684"><ele>239.0</ele><time>2026-05-02T14:29:27Z</time></trkpt><trkpt lat="45.94460158182862" lon="8.767551772925549"><ele>239.0</ele><time>2026-05-02T14:29:28Z</time></trkpt><trkpt lat="45.944411806165036" lon="8.767525298403019"><ele>239.0</ele><time>2026-05-02T14:29:29Z</time></trkpt><trkpt lat="45.94422612321814" lon="8.76754492453483"><ele>239.0</ele><time>2026-05-02T14:29:30Z</time></trkpt><trkpt lat="45.94401949773327" lon="8.767668646198164"><ele>239.0</ele><time>2026-05-02T14:29:31Z</time></trkpt><trkpt lat="45.943836499214484" lon="8.767835032478665"><ele>239.0</ele><time>2026-05-02T14:29:32Z</time></trkpt><trkpt lat="45.9436389772895" lon="8.768019887163778"><ele>240.5</ele><time>2026-05-02T14:29:33Z</time></trkpt><trkpt lat="45.943433234080295" lon="8.768194204316124"><ele>242.0</ele><time>2026-05-02T14:29:34Z</time></trkpt><trkpt lat="45.94325175536601" lon="8.76834904515828"><ele>242.0</ele><time>2026-05-02T14:29:35Z</time></trkpt><trkpt lat="45.94307486560661" lon="8.768541485040146"><ele>242.0</ele><time>2026-05-02T14:29:36Z</time></trkpt><trkpt lat="45.9428977593089" lon="8.768771149515096"><ele>242.0</ele><time>2026-05-02T14:29:37Z</time></trkpt><trkpt lat="45.942676908730185" lon="8.76900831893511"><ele>242.0</ele><time>2026-05-02T14:29:38Z</time></trkpt><trkpt lat="45.942459979111284" lon="8.76926931574127"><ele>241.0</ele><time>2026-05-02T14:29:39Z</time></trkpt><trkpt lat="45.94222713739447" lon="8.769549544147841"><ele>240.0</ele><time>2026-05-02T14:29:40Z</time></trkpt><trkpt lat="45.942032048956534" lon="8.769811831410053"><ele>240.0</ele><time>2026-05-02T14:29:41Z</time></trkpt><trkpt lat="45.94182531275413" lon="8.770033761107605"><ele>240.0</ele><time>2026-05-02T14:29:42Z</time></trkpt><trkpt lat="45.941610307641994" lon="8.770244417387051"><ele>239.5</ele><time>2026-05-02T14:29:43Z</time></trkpt><trkpt lat="45.94136205548076" lon="8.770408280748773"><ele>239.0</ele><time>2026-05-02T14:29:44Z</time></trkpt><trkpt lat="45.94111237736467" lon="8.770548474826942"><ele>241.5</ele><time>2026-05-02T14:29:45Z</time></trkpt><trkpt lat="45.94086054217655" lon="8.770710030490747"><ele>244.0</ele><time>2026-05-02T14:29:46Z</time></trkpt><trkpt lat="45.940603356792906" lon="8.770876290129705"><ele>243.5</ele><time>2026-05-02T14:29:47Z</time></trkpt><trkpt lat="45.940323469252185" lon="8.771035667239756"><ele>243.0</ele><time>2026-05-02T14:29:48Z</time></trkpt><trkpt lat="45.940033292009204" lon="8.771224546185534"><ele>243.0</ele><time>2026-05-02T14:29:49Z</time></trkpt><trkpt lat="45.93976609241322" lon="8.77140271694317"><ele>243.0</ele><time>2026-05-02T14:29:50Z</time></trkpt><trkpt lat="45.93952353160074" lon="8.771550961966652"><ele>243.0</ele><time>2026-05-02T14:29:51Z</time></trkpt><trkpt lat="45.93929469096791" lon="8.77169007442538"><ele>243.0</ele><time>2026-05-02T14:29:52Z</time></trkpt><trkpt lat="45.93910261352087" lon="8.771817264687423"><ele>243.33333333333331</ele><time>2026-05-02T14:29:53Z</time></trkpt><trkpt lat="45.938904241774175" lon="8.771934160173206"><ele>243.66666666666666</ele><time>2026-05-02T14:29:54Z</time></trkpt><trkpt lat="45.93870861445323" lon="8.772048190021561"><ele>244.0</ele><time>2026-05-02T14:29:55Z</time></trkpt><trkpt lat="45.938500751432436" lon="8.772172112559177"><ele>244.0</ele><time>2026-05-02T14:29:56Z</time></trkpt><trkpt lat="45.93827546647265" lon="8.772283938061717"><ele>244.0</ele><time>2026-05-02T14:29:57Z</time></trkpt><trkpt lat="45.93802226827025" lon="8.77240824612342"><ele>244.0</ele><time>2026-05-02T14:29:58Z</time></trkpt><trkpt lat="45.93774448025512" lon="8.772562932831628"><ele>244.0</ele><time>2026-05-02T14:29:59Z</time></trkpt><trkpt lat="45.93742674523201" lon="8.772738473626687"><ele>242.5</ele><time>2026-05-02T14:30:00Z</time></trkpt><trkpt lat="45.93712809639772" lon="8.772905301989326"><ele>241.0</ele><time>2026-05-02T14:30:01Z</time></trkpt><trkpt lat="45.93680678730598" lon="8.773082777693576"><ele>242.0</ele><time>2026-05-02T14:30:02Z</time></trkpt><trkpt lat="45.93651311366005" lon="8.773215864633146"><ele>243.0</ele><time>2026-05-02T14:30:03Z</time></trkpt><trkpt lat="45.936240574949295" lon="8.773360408992882"><ele>243.0</ele><time>2026-05-02T14:30:04Z</time></trkpt><trkpt lat="45.93599886013185" lon="8.773487405441305"><ele>243.0</ele><time>2026-05-02T14:30:05Z</time></trkpt><trkpt lat="45.93576758854183" lon="8.77360891577617"><ele>242.33333333333331</ele><time>2026-05-02T14:30:06Z</time></trkpt><trkpt lat="45.93558778480924" lon="8.773703385430242"><ele>241.66666666666666</ele><time>2026-05-02T14:30:07Z</time></trkpt><trkpt lat="45.93538405549958" lon="8.77381042567933"><ele>241.0</ele><time>2026-05-02T14:30:08Z</time></trkpt><trkpt lat="45.935254247292484" lon="8.774117988475771"><ele>241.0</ele><time>2026-05-02T14:30:09Z</time></trkpt><trkpt lat="45.935111159531935" lon="8.774370364913356"><ele>241.0</ele><time>2026-05-02T14:30:10Z</time></trkpt><trkpt lat="45.93496720607901" lon="8.774577358328587"><ele>241.0</ele><time>2026-05-02T14:30:11Z</time></trkpt><trkpt lat="45.934775535462116" lon="8.774740340381049"><ele>241.5</ele><time>2026-05-02T14:30:12Z</time></trkpt><trkpt lat="45.93456213464551" lon="8.77485184361265"><ele>242.0</ele><time>2026-05-02T14:30:13Z</time></trkpt><trkpt lat="45.934317925951255" lon="8.774941563148152"><ele>241.5</ele><time>2026-05-02T14:30:14Z</time></trkpt><trkpt lat="45.93406836951607" lon="8.775051026744716"><ele>241.0</ele><time>2026-05-02T14:30:15Z</time></trkpt><trkpt lat="45.93381055432525" lon="8.775150931354586"><ele>241.5</ele><time>2026-05-02T14:30:16Z</time></trkpt><trkpt lat="45.933584085221746" lon="8.775250413737483"><ele>242.0</ele><time>2026-05-02T14:30:17Z</time></trkpt><trkpt lat="45.933361371303704" lon="8.775341360140905"><ele>242.5</ele><time>2026-05-02T14:30:18Z</time></trkpt><trkpt lat="45.93313099326639" lon="8.775416728692598"><ele>243.0</ele><time>2026-05-02T14:30:19Z</time></trkpt><trkpt lat="45.93288853707057" lon="8.775431495568244"><ele>243.0</ele><time>2026-05-02T14:30:20Z</time></trkpt><trkpt lat="45.932642967616516" lon="8.775399522631924"><ele>243.0</ele><time>2026-05-02T14:30:21Z</time></trkpt><trkpt lat="45.932366279231154" lon="8.775352092387326"><ele>244.5</ele><time>2026-05-02T14:30:22Z</time></trkpt><trkpt lat="45.93208803401051" lon="8.775330596110098"><ele>246.0</ele><time>2026-05-02T14:30:23Z</time></trkpt><trkpt lat="45.93179370638325" lon="8.77530965070045"><ele>245.5</ele><time>2026-05-02T14:30:24Z</time></trkpt><trkpt lat="45.93149300883149" lon="8.77527960495725"><ele>245.0</ele><time>2026-05-02T14:30:25Z</time></trkpt><trkpt lat="45.93117042164185" lon="8.775243198301862"><ele>244.5</ele><time>2026-05-02T14:30:26Z</time></trkpt><trkpt lat="45.930890803434636" lon="8.775243792593583"><ele>244.0</ele><time>2026-05-02T14:30:27Z</time></trkpt><trkpt lat="45.93062508758353" lon="8.775222656516304"><ele>244.0</ele><time>2026-05-02T14:30:28Z</time></trkpt><trkpt lat="45.93038686375246" lon="8.775192485458323"><ele>244.0</ele><time>2026-05-02T14:30:29Z</time></trkpt><trkpt lat="45.930162213362955" lon="8.775175037339576"><ele>247.66666666666666</ele><time>2026-05-02T14:30:30Z</time></trkpt><trkpt lat="45.92995449929774" lon="8.77515506268309"><ele>251.33333333333331</ele><time>2026-05-02T14:30:31Z</time></trkpt><trkpt lat="45.92977679950863" lon="8.775149436640026"><ele>255.0</ele><time>2026-05-02T14:30:32Z</time></trkpt><trkpt lat="45.92960184215339" lon="8.775128732791124"><ele>255.0</ele><time>2026-05-02T14:30:33Z</time></trkpt><trkpt lat="45.92945433030716" lon="8.77511530711065"><ele>255.0</ele><time>2026-05-02T14:30:34Z</time></trkpt><trkpt lat="45.92933538069443" lon="8.775109664294051"><ele>255.0</ele><time>2026-05-02T14:30:35Z</time></trkpt><trkpt lat="45.929225824412576" lon="8.775106800538591"><ele>255.0</ele><time>2026-05-02T14:30:36Z</time></trkpt><trkpt lat="45.92914439402325" lon="8.775088853055928"><ele>253.66666666666666</ele><time>2026-05-02T14:30:37Z</time></trkpt><trkpt lat="45.92904346329328" lon="8.77503895168742"><ele>252.33333333333331</ele><time>2026-05-02T14:30:39Z</time></trkpt><trkpt lat="45.92894906339184" lon="8.774954622519562"><ele>251.0</ele><time>2026-05-02T14:30:41Z</time></trkpt><trkpt lat="45.92890315098088" lon="8.774869537242514"><ele>249.66666666666666</ele><time>2026-05-02T14:30:42Z</time></trkpt><trkpt lat="45.92884898344785" lon="8.774806741681246"><ele>248.33333333333331</ele><time>2026-05-02T14:30:43Z</time></trkpt><trkpt lat="45.928771928134616" lon="8.774784823453992"><ele>247.0</ele><time>2026-05-02T14:30:44Z</time></trkpt><trkpt lat="45.92865449705294" lon="8.77484503928703"><ele>247.0</ele><time>2026-05-02T14:30:45Z</time></trkpt><trkpt lat="45.928557843598966" lon="8.774936907923507"><ele>247.0</ele><time>2026-05-02T14:30:46Z</time></trkpt><trkpt lat="45.92849600649847" lon="8.774999221445084"><ele>247.0</ele><time>2026-05-02T14:30:47Z</time></trkpt><trkpt lat="45.9284178505097" lon="8.77503277178825"><ele>247.0</ele><time>2026-05-02T14:30:48Z</time></trkpt><trkpt lat="45.928325060941475" lon="8.77501920299202"><ele>247.0</ele><time>2026-05-02T14:30:49Z</time></trkpt><trkpt lat="45.92821581351782" lon="8.775004251769943"><ele>247.0</ele><time>2026-05-02T14:30:50Z</time></trkpt><trkpt lat="45.92810732430412" lon="8.774975974713257"><ele>247.0</ele><time>2026-05-02T14:30:51Z</time></trkpt><trkpt lat="45.92798069905382" lon="8.774971069214622"><ele>247.0</ele><time>2026-05-02T14:30:52Z</time></trkpt><trkpt lat="45.92784742231121" lon="8.774965855712166"><ele>247.0</ele><time>2026-05-02T14:30:53Z</time></trkpt><trkpt lat="45.92769994174043" lon="8.774956317156088"><ele>247.66666666666666</ele><time>2026-05-02T14:30:54Z</time></trkpt><trkpt lat="45.927536008703065" lon="8.774940980909806"><ele>248.33333333333331</ele><time>2026-05-02T14:30:55Z</time></trkpt><trkpt lat="45.927353974727154" lon="8.774924302979663"><ele>249.0</ele><time>2026-05-02T14:30:56Z</time></trkpt><trkpt lat="45.92716402276165" lon="8.774904357439826"><ele>249.0</ele><time>2026-05-02T14:30:57Z</time></trkpt><trkpt lat="45.92697368104983" lon="8.774884219604731"><ele>249.0</ele><time>2026-05-02T14:30:58Z</time></trkpt><trkpt lat="45.92678173950775" lon="8.774865258600924"><ele>249.0</ele><time>2026-05-02T14:30:59Z</time></trkpt><trkpt lat="45.92657442588181" lon="8.774847073899553"><ele>249.0</ele><time>2026-05-02T14:31:00Z</time></trkpt><trkpt lat="45.9263516139001" lon="8.774849610082276"><ele>249.0</ele><time>2026-05-02T14:31:01Z</time></trkpt><trkpt lat="45.92614263221427" lon="8.774830287630564"><ele>249.0</ele><time>2026-05-02T14:31:02Z</time></trkpt><trkpt lat="45.92595084338472" lon="8.774793555694169"><ele>250.33333333333331</ele><time>2026-05-02T14:31:03Z</time></trkpt><trkpt lat="45.92577429329692" lon="8.774772295519286"><ele>251.66666666666666</ele><time>2026-05-02T14:31:04Z</time></trkpt><trkpt lat="45.92560359905279" lon="8.774752778291763"><ele>253.0</ele><time>2026-05-02T14:31:05Z</time></trkpt><trkpt lat="45.92543643793173" lon="8.77473685185644"><ele>253.0</ele><time>2026-05-02T14:31:06Z</time></trkpt><trkpt lat="45.92528051385603" lon="8.774722879273178"><ele>253.0</ele><time>2026-05-02T14:31:07Z</time></trkpt><trkpt lat="45.925109951175116" lon="8.774712573226173"><ele>253.0</ele><time>2026-05-02T14:31:08Z</time></trkpt><trkpt lat="45.924910992296965" lon="8.774702249653286"><ele>252.66666666666666</ele><time>2026-05-02T14:31:09Z</time></trkpt><trkpt lat="45.92469621460347" lon="8.774663663289807"><ele>252.33333333333331</ele><time>2026-05-02T14:31:10Z</time></trkpt><trkpt lat="45.92447269641688" lon="8.774624055919476"><ele>252.0</ele><time>2026-05-02T14:31:11Z</time></trkpt><trkpt lat="45.92426824916605" lon="8.774595739926074"><ele>252.66666666666669</ele><time>2026-05-02T14:31:12Z</time></trkpt><trkpt lat="45.92407119551789" lon="8.774550654736883"><ele>253.33333333333334</ele><time>2026-05-02T14:31:13Z</time></trkpt><trkpt lat="45.92388003553984" lon="8.774466893814335"><ele>254.0</ele><time>2026-05-02T14:31:14Z</time></trkpt><trkpt lat="45.923703137945076" lon="8.774313034125308"><ele>254.0</ele><time>2026-05-02T14:31:15Z</time></trkpt><trkpt lat="45.923506539603714" lon="8.774177473274051"><ele>254.0</ele><time>2026-05-02T14:31:16Z</time></trkpt><trkpt lat="45.923316794903435" lon="8.774024563308323"><ele>254.0</ele><time>2026-05-02T14:31:17Z</time></trkpt><trkpt lat="45.92311653766852" lon="8.773878136959203"><ele>254.0</ele><time>2026-05-02T14:31:18Z</time></trkpt><trkpt lat="45.92293641317996" lon="8.773740604317835"><ele>254.0</ele><time>2026-05-02T14:31:19Z</time></trkpt><trkpt lat="45.92276642874374" lon="8.77359037699176"><ele>254.0</ele><time>2026-05-02T14:31:20Z</time></trkpt><trkpt lat="45.92259600470654" lon="8.773459771432167"><ele>255.0</ele><time>2026-05-02T14:31:21Z</time></trkpt><trkpt lat="45.922421133207976" lon="8.773324614905599"><ele>256.0</ele><time>2026-05-02T14:31:22Z</time></trkpt><trkpt lat="45.922257930587165" lon="8.773198477154798"><ele>257.0</ele><time>2026-05-02T14:31:23Z</time></trkpt><trkpt lat="45.922105807829425" lon="8.773080902923391"><ele>257.0</ele><time>2026-05-02T14:31:24Z</time></trkpt><trkpt lat="45.92196531175482" lon="8.772972517073098"><ele>257.0</ele><time>2026-05-02T14:31:25Z</time></trkpt><trkpt lat="45.921827412273004" lon="8.77286614845776"><ele>257.0</ele><time>2026-05-02T14:31:26Z</time></trkpt><trkpt lat="45.92169329632826" lon="8.772783717317195"><ele>257.0</ele><time>2026-05-02T14:31:27Z</time></trkpt><trkpt lat="45.92157813806492" lon="8.772698033069211"><ele>257.0</ele><time>2026-05-02T14:31:28Z</time></trkpt><trkpt lat="45.92146547245591" lon="8.772607719461174"><ele>257.0</ele><time>2026-05-02T14:31:29Z</time></trkpt><trkpt lat="45.9213405009294" lon="8.772475498634535"><ele>257.0</ele><time>2026-05-02T14:31:30Z</time></trkpt><trkpt lat="45.92123433102323" lon="8.772397779409884"><ele>257.0</ele><time>2026-05-02T14:31:31Z</time></trkpt><trkpt lat="45.92113529850134" lon="8.772319722982438"><ele>257.0</ele><time>2026-05-02T14:31:32Z</time></trkpt><trkpt lat="45.92104000473761" lon="8.77224408044478"><ele>257.0</ele><time>2026-05-02T14:31:33Z</time></trkpt><trkpt lat="45.920933626903356" lon="8.772163897542784"><ele>257.0</ele><time>2026-05-02T14:31:34Z</time></trkpt><trkpt lat="45.92084712395166" lon="8.772035425682631"><ele>257.6666666666667</ele><time>2026-05-02T14:31:35Z</time></trkpt><trkpt lat="45.920756176952644" lon="8.771871561734121"><ele>258.3333333333333</ele><time>2026-05-02T14:31:36Z</time></trkpt><trkpt lat="45.92067822377794" lon="8.771671829680043"><ele>259.0</ele><time>2026-05-02T14:31:37Z</time></trkpt><trkpt lat="45.92062763767759" lon="8.771442828007757"><ele>259.0</ele><time>2026-05-02T14:31:38Z</time></trkpt><trkpt lat="45.92059204099511" lon="8.771187336539354"><ele>259.0</ele><time>2026-05-02T14:31:39Z</time></trkpt><trkpt lat="45.92055925413877" lon="8.770921532853583"><ele>259.0</ele><time>2026-05-02T14:31:40Z</time></trkpt><trkpt lat="45.92052542114361" lon="8.770640757885241"><ele>259.0</ele><time>2026-05-02T14:31:41Z</time></trkpt><trkpt lat="45.92048965285176" lon="8.770342462981825"><ele>259.0</ele><time>2026-05-02T14:31:42Z</time></trkpt><trkpt lat="45.92045634463889" lon="8.770070540209518"><ele>259.0</ele><time>2026-05-02T14:31:43Z</time></trkpt><trkpt lat="45.9204228332522" lon="8.769814096740413"><ele>259.0</ele><time>2026-05-02T14:31:44Z</time></trkpt><trkpt lat="45.92036992468504" lon="8.769574234610081"><ele>259.0</ele><time>2026-05-02T14:31:45Z</time></trkpt><trkpt lat="45.92026583023719" lon="8.769365988730113"><ele>259.0</ele><time>2026-05-02T14:31:46Z</time></trkpt><trkpt lat="45.920172274524795" lon="8.769180141427112"><ele>260.66666666666663</ele><time>2026-05-02T14:31:47Z</time></trkpt><trkpt lat="45.92003329196759" lon="8.769017059192285"><ele>262.3333333333333</ele><time>2026-05-02T14:31:48Z</time></trkpt><trkpt lat="45.91987489480827" lon="8.768875876450522"><ele>264.0</ele><time>2026-05-02T14:31:49Z</time></trkpt><trkpt lat="45.919726605255" lon="8.768711763828144"><ele>264.0</ele><time>2026-05-02T14:31:50Z</time></trkpt><trkpt lat="45.91955203200335" lon="8.768595069109487"><ele>264.0</ele><time>2026-05-02T14:31:51Z</time></trkpt><trkpt lat="45.91942095463517" lon="8.768462467456903"><ele>264.0</ele><time>2026-05-02T14:31:52Z</time></trkpt><trkpt lat="45.91931172711866" lon="8.768405746159168"><ele>264.75</ele><time>2026-05-02T14:31:53Z</time></trkpt><trkpt lat="45.919186844991735" lon="8.768306696201996"><ele>265.5</ele><time>2026-05-02T14:31:54Z</time></trkpt><trkpt lat="45.91908407197193" lon="8.768199927583925"><ele>266.25</ele><time>2026-05-02T14:31:55Z</time></trkpt><trkpt lat="45.91897410268806" lon="8.768073965886575"><ele>267.0</ele><time>2026-05-02T14:31:56Z</time></trkpt><trkpt lat="45.91888554468976" lon="8.767896079095314"><ele>267.0</ele><time>2026-05-02T14:31:57Z</time></trkpt><trkpt lat="45.9188241626906" lon="8.767749488387459"><ele>267.0</ele><time>2026-05-02T14:31:58Z</time></trkpt><trkpt lat="45.918790364645226" lon="8.767610408513756"><ele>267.0</ele><time>2026-05-02T14:31:59Z</time></trkpt><trkpt lat="45.91878576927061" lon="8.76747583753452"><ele>267.0</ele><time>2026-05-02T14:32:00Z</time></trkpt><trkpt lat="45.91878437028488" lon="8.767372220618016"><ele>267.0</ele><time>2026-05-02T14:32:01Z</time></trkpt><trkpt lat="45.918755911913735" lon="8.76724677852572"><ele>266.75</ele><time>2026-05-02T14:32:02Z</time></trkpt><trkpt lat="45.91867164780599" lon="8.767140990908622"><ele>266.5</ele><time>2026-05-02T14:32:03Z</time></trkpt><trkpt lat="45.91859636429081" lon="8.767024489407575"><ele>266.25</ele><time>2026-05-02T14:32:04Z</time></trkpt><trkpt lat="45.91852275440923" lon="8.766890363303334"><ele>266.0</ele><time>2026-05-02T14:32:05Z</time></trkpt><trkpt lat="45.91846032583999" lon="8.766734248837892"><ele>267.0</ele><time>2026-05-02T14:32:06Z</time></trkpt><trkpt lat="45.918384715028665" lon="8.766526122961075"><ele>268.0</ele><time>2026-05-02T14:32:07Z</time></trkpt><trkpt lat="45.918313416492154" lon="8.766271144181363"><ele>269.0</ele><time>2026-05-02T14:32:08Z</time></trkpt><trkpt lat="45.918225509680866" lon="8.766052166259005"><ele>269.0</ele><time>2026-05-02T14:32:09Z</time></trkpt><trkpt lat="45.91813126759233" lon="8.765798024055664"><ele>269.0</ele><time>2026-05-02T14:32:10Z</time></trkpt><trkpt lat="45.91806008098662" lon="8.765594193350081"><ele>269.0</ele><time>2026-05-02T14:32:11Z</time></trkpt><trkpt lat="45.91799904094239" lon="8.765397952777594"><ele>269.0</ele><time>2026-05-02T14:32:12Z</time></trkpt><trkpt lat="45.917931951463174" lon="8.765211198936912"><ele>269.0</ele><time>2026-05-02T14:32:13Z</time></trkpt><trkpt lat="45.917879628295665" lon="8.765019922225063"><ele>269.0</ele><time>2026-05-02T14:32:14Z</time></trkpt><trkpt lat="45.91780372928117" lon="8.764790036592201"><ele>269.0</ele><time>2026-05-02T14:32:15Z</time></trkpt><trkpt lat="45.91772061953933" lon="8.764538310858947"><ele>269.0</ele><time>2026-05-02T14:32:16Z</time></trkpt><trkpt lat="45.91763638218998" lon="8.764284865229827"><ele>269.0</ele><time>2026-05-02T14:32:17Z</time></trkpt><trkpt lat="45.9175470431157" lon="8.764016309073638"><ele>268.0</ele><time>2026-05-02T14:32:18Z</time></trkpt><trkpt lat="45.91744832868228" lon="8.763724926782201"><ele>267.0</ele><time>2026-05-02T14:32:19Z</time></trkpt><trkpt lat="45.91736503981934" lon="8.763410401467093"><ele>267.0</ele><time>2026-05-02T14:32:20Z</time></trkpt><trkpt lat="45.91726517145631" lon="8.763116299324786"><ele>267.0</ele><time>2026-05-02T14:32:21Z</time></trkpt><trkpt lat="45.91716213076163" lon="8.762865172969114"><ele>267.0</ele><time>2026-05-02T14:32:22Z</time></trkpt><trkpt lat="45.91707235529607" lon="8.762618487390487"><ele>267.0</ele><time>2026-05-02T14:32:23Z</time></trkpt><trkpt lat="45.91699687127886" lon="8.762367247278377"><ele>267.0</ele><time>2026-05-02T14:32:24Z</time></trkpt><trkpt lat="45.916923933311" lon="8.762158513151833"><ele>267.0</ele><time>2026-05-02T14:32:25Z</time></trkpt><trkpt lat="45.916869668719094" lon="8.761963122766877"><ele>267.25</ele><time>2026-05-02T14:32:26Z</time></trkpt><trkpt lat="45.916802283529584" lon="8.761770019634"><ele>267.5</ele><time>2026-05-02T14:32:27Z</time></trkpt><trkpt lat="45.91677166011832" lon="8.761572480233914"><ele>267.75</ele><time>2026-05-02T14:32:28Z</time></trkpt><trkpt lat="45.916703022946926" lon="8.761392601669343"><ele>268.0</ele><time>2026-05-02T14:32:29Z</time></trkpt><trkpt lat="45.91663171750023" lon="8.761231032280344"><ele>268.0</ele><time>2026-05-02T14:32:30Z</time></trkpt><trkpt lat="45.916547572765964" lon="8.761087102276736"><ele>268.0</ele><time>2026-05-02T14:32:31Z</time></trkpt><trkpt lat="45.916452799101165" lon="8.760931956547564"><ele>268.0</ele><time>2026-05-02T14:32:32Z</time></trkpt><trkpt lat="45.91635688218941" lon="8.760741087353479"><ele>268.0</ele><time>2026-05-02T14:32:33Z</time></trkpt><trkpt lat="45.916262010360676" lon="8.76052076524233"><ele>268.0</ele><time>2026-05-02T14:32:34Z</time></trkpt><trkpt lat="45.91612737402729" lon="8.760330375321557"><ele>268.0</ele><time>2026-05-02T14:32:35Z</time></trkpt><trkpt lat="45.915995351971695" lon="8.7601513065828"><ele>268.0</ele><time>2026-05-02T14:32:36Z</time></trkpt><trkpt lat="45.915872412569705" lon="8.759944620128621"><ele>267.3333333333333</ele><time>2026-05-02T14:32:37Z</time></trkpt><trkpt lat="45.915730540552524" lon="8.759765368448393"><ele>266.6666666666667</ele><time>2026-05-02T14:32:38Z</time></trkpt><trkpt lat="45.91560408882992" lon="8.75960094625713"><ele>266.0</ele><time>2026-05-02T14:32:39Z</time></trkpt><trkpt lat="45.91549139891161" lon="8.75944040366035"><ele>266.0</ele><time>2026-05-02T14:32:40Z</time></trkpt><trkpt lat="45.91537505608515" lon="8.75928236558882"><ele>266.0</ele><time>2026-05-02T14:32:41Z</time></trkpt><trkpt lat="45.91526462266565" lon="8.759143343134562"><ele>266.0</ele><time>2026-05-02T14:32:42Z</time></trkpt><trkpt lat="45.91515022995703" lon="8.759004673991523"><ele>266.0</ele><time>2026-05-02T14:32:43Z</time></trkpt><trkpt lat="45.91502405432907" lon="8.758850544119639"><ele>266.0</ele><time>2026-05-02T14:32:44Z</time></trkpt><trkpt lat="45.91490480512214" lon="8.758700099976295"><ele>266.0</ele><time>2026-05-02T14:32:45Z</time></trkpt><trkpt lat="45.914785541933746" lon="8.75853120256165"><ele>266.33333333333337</ele><time>2026-05-02T14:32:46Z</time></trkpt><trkpt lat="45.91465579154211" lon="8.758320802708932"><ele>266.6666666666667</ele><time>2026-05-02T14:32:47Z</time></trkpt><trkpt lat="45.91450531811251" lon="8.758131793388714"><ele>267.0</ele><time>2026-05-02T14:32:48Z</time></trkpt><trkpt lat="45.914386618285214" lon="8.757944033931429"><ele>267.0</ele><time>2026-05-02T14:32:49Z</time></trkpt><trkpt lat="45.914253504255605" lon="8.757744890342842"><ele>267.0</ele><time>2026-05-02T14:32:50Z</time></trkpt><trkpt lat="45.914130866107165" lon="8.757565410710614"><ele>267.0</ele><time>2026-05-02T14:32:51Z</time></trkpt><trkpt lat="45.91399573480177" lon="8.757382363965815"><ele>267.6666666666667</ele><time>2026-05-02T14:32:52Z</time></trkpt><trkpt lat="45.913854574618" lon="8.757211154538806"><ele>268.33333333333337</ele><time>2026-05-02T14:32:53Z</time></trkpt><trkpt lat="45.913727080130926" lon="8.757020758307437"><ele>269.0</ele><time>2026-05-02T14:32:54Z</time></trkpt><trkpt lat="45.913595420160334" lon="8.756825421161219"><ele>269.33333333333337</ele><time>2026-05-02T14:32:55Z</time></trkpt><trkpt lat="45.91345144401126" lon="8.75662916872388"><ele>269.6666666666667</ele><time>2026-05-02T14:32:56Z</time></trkpt><trkpt lat="45.91329991318309" lon="8.75641027803047"><ele>270.0</ele><time>2026-05-02T14:32:57Z</time></trkpt><trkpt lat="45.913156307534216" lon="8.756187362344841"><ele>272.3333333333333</ele><time>2026-05-02T14:32:58Z</time></trkpt><trkpt lat="45.913019955433015" lon="8.755983236515782"><ele>274.66666666666663</ele><time>2026-05-02T14:32:59Z</time></trkpt><trkpt lat="45.91287488683768" lon="8.75578387159878"><ele>277.0</ele><time>2026-05-02T14:33:00Z</time></trkpt><trkpt lat="45.912755681827264" lon="8.755630125757868"><ele>277.0</ele><time>2026-05-02T14:33:01Z</time></trkpt><trkpt lat="45.912667331820636" lon="8.7554756476647"><ele>277.0</ele><time>2026-05-02T14:33:02Z</time></trkpt><trkpt lat="45.91253667207204" lon="8.755288759130597"><ele>277.0</ele><time>2026-05-02T14:33:03Z</time></trkpt><trkpt lat="45.91238549006315" lon="8.75507255483495"><ele>277.5</ele><time>2026-05-02T14:33:04Z</time></trkpt><trkpt lat="45.91221170803661" lon="8.754819879103671"><ele>278.0</ele><time>2026-05-02T14:33:05Z</time></trkpt><trkpt lat="45.912060626322244" lon="8.75460017726598"><ele>278.0</ele><time>2026-05-02T14:33:06Z</time></trkpt><trkpt lat="45.91190481306148" lon="8.754373594845156"><ele>278.0</ele><time>2026-05-02T14:33:07Z</time></trkpt><trkpt lat="45.91174568894673" lon="8.754142197849884"><ele>278.0</ele><time>2026-05-02T14:33:08Z</time></trkpt><trkpt lat="45.91158186792588" lon="8.753911570002664"><ele>277.5</ele><time>2026-05-02T14:33:09Z</time></trkpt><trkpt lat="45.91143403993094" lon="8.753666778898763"><ele>277.0</ele><time>2026-05-02T14:33:10Z</time></trkpt><trkpt lat="45.91127055545362" lon="8.75342964885558"><ele>279.0</ele><time>2026-05-02T14:33:11Z</time></trkpt><trkpt lat="45.91108343175759" lon="8.753183315385986"><ele>281.0</ele><time>2026-05-02T14:33:12Z</time></trkpt><trkpt lat="45.91092417066831" lon="8.752940096498508"><ele>282.0</ele><time>2026-05-02T14:33:13Z</time></trkpt><trkpt lat="45.910773879526445" lon="8.752688934916309"><ele>283.0</ele><time>2026-05-02T14:33:14Z</time></trkpt><trkpt lat="45.91062071067967" lon="8.752431513139703"><ele>283.0</ele><time>2026-05-02T14:33:15Z</time></trkpt><trkpt lat="45.910477404923526" lon="8.752181142117292"><ele>283.0</ele><time>2026-05-02T14:33:16Z</time></trkpt><trkpt lat="45.9103338498702" lon="8.751924190167578"><ele>283.0</ele><time>2026-05-02T14:33:17Z</time></trkpt><trkpt lat="45.9101891160162" lon="8.75167924136718"><ele>283.0</ele><time>2026-05-02T14:33:18Z</time></trkpt><trkpt lat="45.91005251354708" lon="8.75141932581368"><ele>283.0</ele><time>2026-05-02T14:33:19Z</time></trkpt><trkpt lat="45.90989203802906" lon="8.751137517516563"><ele>283.0</ele><time>2026-05-02T14:33:20Z</time></trkpt><trkpt lat="45.909733803676666" lon="8.750859645061798"><ele>287.5</ele><time>2026-05-02T14:33:21Z</time></trkpt><trkpt lat="45.90956553487274" lon="8.750562329064756"><ele>292.0</ele><time>2026-05-02T14:33:22Z</time></trkpt><trkpt lat="45.909391697085205" lon="8.75025784461912"><ele>293.0</ele><time>2026-05-02T14:33:23Z</time></trkpt><trkpt lat="45.90921203072879" lon="8.749947182578655"><ele>294.0</ele><time>2026-05-02T14:33:24Z</time></trkpt><trkpt lat="45.909022473767614" lon="8.749680256258861"><ele>294.0</ele><time>2026-05-02T14:33:25Z</time></trkpt><trkpt lat="45.908824705952085" lon="8.749409982242915"><ele>294.0</ele><time>2026-05-02T14:33:26Z</time></trkpt><trkpt lat="45.908592360282874" lon="8.749154236259594"><ele>297.5</ele><time>2026-05-02T14:33:27Z</time></trkpt><trkpt lat="45.90836885822405" lon="8.74891638916153"><ele>301.0</ele><time>2026-05-02T14:33:28Z</time></trkpt><trkpt lat="45.908162763530534" lon="8.748674993613754"><ele>299.5</ele><time>2026-05-02T14:33:29Z</time></trkpt><trkpt lat="45.90796206591526" lon="8.748438313331773"><ele>298.0</ele><time>2026-05-02T14:33:30Z</time></trkpt><trkpt lat="45.90777005571292" lon="8.748225887984832"><ele>294.0</ele><time>2026-05-02T14:33:31Z</time></trkpt><trkpt lat="45.907564449568966" lon="8.748035210182916"><ele>290.0</ele><time>2026-05-02T14:33:32Z</time></trkpt><trkpt lat="45.907330336717784" lon="8.747862708577557"><ele>296.0</ele><time>2026-05-02T14:33:33Z</time></trkpt><trkpt lat="45.907109776160084" lon="8.747661203589685"><ele>302.0</ele><time>2026-05-02T14:33:34Z</time></trkpt><trkpt lat="45.90690364725706" lon="8.747477730711337"><ele>298.33333333333337</ele><time>2026-05-02T14:33:35Z</time></trkpt><trkpt lat="45.9067205705333" lon="8.747332103474367"><ele>294.6666666666667</ele><time>2026-05-02T14:33:36Z</time></trkpt><trkpt lat="45.90655399603607" lon="8.747163069320557"><ele>291.0</ele><time>2026-05-02T14:33:37Z</time></trkpt><trkpt lat="45.90640674472636" lon="8.747028353539758"><ele>294.0</ele><time>2026-05-02T14:33:38Z</time></trkpt><trkpt lat="45.906280898617254" lon="8.746865453159055"><ele>297.0</ele><time>2026-05-02T14:33:39Z</time></trkpt><trkpt lat="45.90623126638179" lon="8.746613275093916"><ele>300.0</ele><time>2026-05-02T14:33:40Z</time></trkpt><trkpt lat="45.906162082619296" lon="8.7463941209848"><ele>300.0</ele><time>2026-05-02T14:33:41Z</time></trkpt><trkpt lat="45.906092016964095" lon="8.746137304562431"><ele>300.0</ele><time>2026-05-02T14:33:42Z</time></trkpt><trkpt lat="45.90601788590597" lon="8.745901211827007"><ele>300.0</ele><time>2026-05-02T14:33:43Z</time></trkpt><trkpt lat="45.90593001301433" lon="8.745660767369735"><ele>297.0</ele><time>2026-05-02T14:33:44Z</time></trkpt><trkpt lat="45.905848311176506" lon="8.745325501996025"><ele>294.0</ele><time>2026-05-02T14:33:45Z</time></trkpt><trkpt lat="45.90583319328518" lon="8.74503304542783"><ele>294.0</ele><time>2026-05-02T14:33:46Z</time></trkpt><trkpt lat="45.90578399670494" lon="8.744745294373582"><ele>294.0</ele><time>2026-05-02T14:33:47Z</time></trkpt><trkpt lat="45.90573746835835" lon="8.744498659419852"><ele>294.0</ele><time>2026-05-02T14:33:48Z</time></trkpt><trkpt lat="45.90569680086733" lon="8.744283948212699"><ele>293.6666666666667</ele><time>2026-05-02T14:33:49Z</time></trkpt><trkpt lat="45.90564093981696" lon="8.744026893204383"><ele>293.33333333333337</ele><time>2026-05-02T14:33:50Z</time></trkpt><trkpt lat="45.90561176143914" lon="8.743821078266098"><ele>293.0</ele><time>2026-05-02T14:33:51Z</time></trkpt><trkpt lat="45.905572653313186" lon="8.743573475385794"><ele>292.33333333333337</ele><time>2026-05-02T14:33:52Z</time></trkpt><trkpt lat="45.905550504237674" lon="8.743334777108608"><ele>291.6666666666667</ele><time>2026-05-02T14:33:53Z</time></trkpt><trkpt lat="45.905518983846726" lon="8.743115898565394"><ele>291.0</ele><time>2026-05-02T14:33:54Z</time></trkpt><trkpt lat="45.90545615810313" lon="8.742900591873282"><ele>291.0</ele><time>2026-05-02T14:33:55Z</time></trkpt><trkpt lat="45.905454137845624" lon="8.742705593710268"><ele>291.0</ele><time>2026-05-02T14:33:56Z</time></trkpt><trkpt lat="45.905404908537456" lon="8.74249822361833"><ele>291.0</ele><time>2026-05-02T14:33:57Z</time></trkpt><trkpt lat="45.90536146727643" lon="8.742297801956651"><ele>291.0</ele><time>2026-05-02T14:33:58Z</time></trkpt><trkpt lat="45.90532320079938" lon="8.742117130157785"><ele>291.0</ele><time>2026-05-02T14:33:59Z</time></trkpt><trkpt lat="45.905292161453175" lon="8.741924141933163"><ele>291.0</ele><time>2026-05-02T14:34:00Z</time></trkpt><trkpt lat="45.90526532522596" lon="8.741743042169167"><ele>291.0</ele><time>2026-05-02T14:34:01Z</time></trkpt><trkpt lat="45.90523498648271" lon="8.741566502368862"><ele>291.0</ele><time>2026-05-02T14:34:02Z</time></trkpt><trkpt lat="45.90519978394714" lon="8.741376058442093"><ele>291.25</ele><time>2026-05-02T14:34:03Z</time></trkpt><trkpt lat="45.905163201894375" lon="8.741194326536405"><ele>291.5</ele><time>2026-05-02T14:34:04Z</time></trkpt><trkpt lat="45.90512212857506" lon="8.741000586590262"><ele>291.75</ele><time>2026-05-02T14:34:05Z</time></trkpt><trkpt lat="45.90507616277505" lon="8.740777093014472"><ele>292.0</ele><time>2026-05-02T14:34:06Z</time></trkpt><trkpt lat="45.90504160502821" lon="8.740551518719235"><ele>290.25</ele><time>2026-05-02T14:34:07Z</time></trkpt><trkpt lat="45.90501434736086" lon="8.74035176882173"><ele>288.5</ele><time>2026-05-02T14:34:08Z</time></trkpt><trkpt lat="45.90499387659171" lon="8.7401663841686"><ele>286.75</ele><time>2026-05-02T14:34:09Z</time></trkpt><trkpt lat="45.904976427360765" lon="8.73998827772358"><ele>285.0</ele><time>2026-05-02T14:34:10Z</time></trkpt><trkpt lat="45.904961683445514" lon="8.739821356756824"><ele>285.0</ele><time>2026-05-02T14:34:11Z</time></trkpt><trkpt lat="45.90494827710141" lon="8.739656419304067"><ele>285.0</ele><time>2026-05-02T14:34:12Z</time></trkpt><trkpt lat="45.904921684288155" lon="8.73949328413079"><ele>285.0</ele><time>2026-05-02T14:34:13Z</time></trkpt><trkpt lat="45.90490337838676" lon="8.739318804813394"><ele>285.0</ele><time>2026-05-02T14:34:14Z</time></trkpt><trkpt lat="45.904895298867686" lon="8.73913286598378"><ele>285.5</ele><time>2026-05-02T14:34:15Z</time></trkpt><trkpt lat="45.904882369930895" lon="8.738985595642982"><ele>286.0</ele><time>2026-05-02T14:34:16Z</time></trkpt><trkpt lat="45.904863501743534" lon="8.738793836127682"><ele>286.5</ele><time>2026-05-02T14:34:18Z</time></trkpt><trkpt lat="45.90485981608299" lon="8.738702103587286"><ele>287.0</ele><time>2026-05-02T14:34:19Z</time></trkpt><trkpt lat="45.9048514968989" lon="8.738606176823433"><ele>287.5</ele><time>2026-05-02T14:34:20Z</time></trkpt><trkpt lat="45.90484411338994" lon="8.738493227861818"><ele>288.0</ele><time>2026-05-02T14:34:21Z</time></trkpt><trkpt lat="45.90482929535013" lon="8.738376272283602"><ele>288.25</ele><time>2026-05-02T14:34:22Z</time></trkpt><trkpt lat="45.90481829369326" lon="8.73824928520507"><ele>288.5</ele><time>2026-05-02T14:34:23Z</time></trkpt><trkpt lat="45.90482200252915" lon="8.738030500241393"><ele>288.75</ele><time>2026-05-02T14:34:25Z</time></trkpt><trkpt lat="45.9048056108816" lon="8.737831860536378"><ele>289.0</ele><time>2026-05-02T14:34:26Z</time></trkpt><trkpt lat="45.904794612963755" lon="8.737578948915075"><ele>289.3333333333333</ele><time>2026-05-02T14:34:27Z</time></trkpt><trkpt lat="45.90481063713672" lon="8.737374285507558"><ele>289.6666666666667</ele><time>2026-05-02T14:34:28Z</time></trkpt><trkpt lat="45.904769083851455" lon="8.737145561427525"><ele>290.0</ele><time>2026-05-02T14:34:29Z</time></trkpt><trkpt lat="45.90471803623249" lon="8.736856646864666"><ele>290.0</ele><time>2026-05-02T14:34:30Z</time></trkpt><trkpt lat="45.90469293394737" lon="8.736699593016896"><ele>290.0</ele><time>2026-05-02T14:34:32Z</time></trkpt><trkpt lat="45.90468265066154" lon="8.736546210160872"><ele>290.0</ele><time>2026-05-02T14:34:33Z</time></trkpt><trkpt lat="45.9046646305685" lon="8.736394387404331"><ele>290.0</ele><time>2026-05-02T14:34:34Z</time></trkpt><trkpt lat="45.90465247420674" lon="8.736247621745841"><ele>290.0</ele><time>2026-05-02T14:34:35Z</time></trkpt><trkpt lat="45.90464021528084" lon="8.736089839916025"><ele>290.2</ele><time>2026-05-02T14:34:36Z</time></trkpt><trkpt lat="45.90462452567042" lon="8.735940837687531"><ele>290.4</ele><time>2026-05-02T14:34:37Z</time></trkpt><trkpt lat="45.90461320962391" lon="8.735811629933838"><ele>290.6</ele><time>2026-05-02T14:34:38Z</time></trkpt><trkpt lat="45.90460042420928" lon="8.735698226630513"><ele>290.8</ele><time>2026-05-02T14:34:39Z</time></trkpt><trkpt lat="45.904591214820215" lon="8.73557783147488"><ele>291.0</ele><time>2026-05-02T14:34:40Z</time></trkpt><trkpt lat="45.90459020797994" lon="8.735444619194542"><ele>291.0</ele><time>2026-05-02T14:34:41Z</time></trkpt><trkpt lat="45.90459778378836" lon="8.735302388171709"><ele>291.0</ele><time>2026-05-02T14:34:42Z</time></trkpt><trkpt lat="45.90458491827044" lon="8.735152884133399"><ele>291.0</ele><time>2026-05-02T14:34:43Z</time></trkpt><trkpt lat="45.90455431567951" lon="8.73498094516699"><ele>291.0</ele><time>2026-05-02T14:34:44Z</time></trkpt><trkpt lat="45.904555844471396" lon="8.73478724596396"><ele>291.40000000000003</ele><time>2026-05-02T14:34:45Z</time></trkpt><trkpt lat="45.904539845376235" lon="8.73459610119752"><ele>291.8</ele><time>2026-05-02T14:34:46Z</time></trkpt><trkpt lat="45.90451268792979" lon="8.734432017445503"><ele>292.20000000000005</ele><time>2026-05-02T14:34:47Z</time></trkpt><trkpt lat="45.90450241716639" lon="8.73429240141214"><ele>292.6</ele><time>2026-05-02T14:34:48Z</time></trkpt><trkpt lat="45.90449840801797" lon="8.734172125781182"><ele>293.0</ele><time>2026-05-02T14:34:49Z</time></trkpt><trkpt lat="45.904495478054244" lon="8.734051476726004"><ele>293.0</ele><time>2026-05-02T14:34:50Z</time></trkpt><trkpt lat="45.904485541946336" lon="8.733957167885709"><ele>293.0</ele><time>2026-05-02T14:34:51Z</time></trkpt><trkpt lat="45.904478916154446" lon="8.733853575533777"><ele>293.0</ele><time>2026-05-02T14:34:52Z</time></trkpt><trkpt lat="45.904472167071226" lon="8.7337346868077"><ele>293.0</ele><time>2026-05-02T14:34:53Z</time></trkpt><trkpt lat="45.90445996787545" lon="8.733625841469047"><ele>293.0</ele><time>2026-05-02T14:34:54Z</time></trkpt><trkpt lat="45.90445329958145" lon="8.733435378114395"><ele>293.0</ele><time>2026-05-02T14:34:56Z</time></trkpt><trkpt lat="45.90443368690084" lon="8.73331533019879"><ele>293.0</ele><time>2026-05-02T14:34:57Z</time></trkpt><trkpt lat="45.904407004245506" lon="8.733181251958625"><ele>293.0</ele><time>2026-05-02T14:34:58Z</time></trkpt><trkpt lat="45.9044063319964" lon="8.733025851784658"><ele>293.0</ele><time>2026-05-02T14:34:59Z</time></trkpt><trkpt lat="45.904388658536135" lon="8.7328381790974"><ele>293.0</ele><time>2026-05-02T14:35:00Z</time></trkpt><trkpt lat="45.904370234331566" lon="8.732622722805225"><ele>293.0</ele><time>2026-05-02T14:35:01Z</time></trkpt><trkpt lat="45.90434882428539" lon="8.73237348522311"><ele>293.0</ele><time>2026-05-02T14:35:02Z</time></trkpt><trkpt lat="45.90432383072907" lon="8.732151748295296"><ele>293.0</ele><time>2026-05-02T14:35:03Z</time></trkpt><trkpt lat="45.90430569623078" lon="8.731946670259703"><ele>292.75</ele><time>2026-05-02T14:35:04Z</time></trkpt><trkpt lat="45.904292155913474" lon="8.731753789940853"><ele>292.5</ele><time>2026-05-02T14:35:05Z</time></trkpt><trkpt lat="45.9042792390931" lon="8.731575562249976"><ele>292.25</ele><time>2026-05-02T14:35:06Z</time></trkpt><trkpt lat="45.90427086711733" lon="8.731404522608932"><ele>292.0</ele><time>2026-05-02T14:35:07Z</time></trkpt><trkpt lat="45.904257751288725" lon="8.731239202519156"><ele>292.0</ele><time>2026-05-02T14:35:08Z</time></trkpt><trkpt lat="45.90427197743719" lon="8.73107361068935"><ele>292.0</ele><time>2026-05-02T14:35:09Z</time></trkpt><trkpt lat="45.90429772410409" lon="8.730880573212177"><ele>292.0</ele><time>2026-05-02T14:35:10Z</time></trkpt><trkpt lat="45.90437915838896" lon="8.730677371183482"><ele>292.0</ele><time>2026-05-02T14:35:11Z</time></trkpt><trkpt lat="45.90442950124171" lon="8.73041097991812"><ele>291.3333333333333</ele><time>2026-05-02T14:35:12Z</time></trkpt><trkpt lat="45.90449501063443" lon="8.73015470534625"><ele>290.6666666666667</ele><time>2026-05-02T14:35:13Z</time></trkpt><trkpt lat="45.90456187845638" lon="8.729892761858208"><ele>290.0</ele><time>2026-05-02T14:35:14Z</time></trkpt><trkpt lat="45.90462058256231" lon="8.729623270892725"><ele>290.0</ele><time>2026-05-02T14:35:15Z</time></trkpt><trkpt lat="45.90468784004755" lon="8.729359979579138"><ele>290.0</ele><time>2026-05-02T14:35:16Z</time></trkpt><trkpt lat="45.904742820129556" lon="8.729122070717814"><ele>290.0</ele><time>2026-05-02T14:35:17Z</time></trkpt><trkpt lat="45.90479828911757" lon="8.72888671108851"><ele>290.0</ele><time>2026-05-02T14:35:18Z</time></trkpt><trkpt lat="45.904851414011304" lon="8.728667382453082"><ele>290.0</ele><time>2026-05-02T14:35:19Z</time></trkpt><trkpt lat="45.90490355035507" lon="8.728456684627911"><ele>290.0</ele><time>2026-05-02T14:35:20Z</time></trkpt><trkpt lat="45.904948441447566" lon="8.72826445072754"><ele>290.0</ele><time>2026-05-02T14:35:21Z</time></trkpt><trkpt lat="45.904989486972994" lon="8.728082424027566"><ele>290.0</ele><time>2026-05-02T14:35:22Z</time></trkpt><trkpt lat="45.905025572240085" lon="8.727917803930266"><ele>290.0</ele><time>2026-05-02T14:35:23Z</time></trkpt><trkpt lat="45.90505618682195" lon="8.727765966226922"><ele>290.0</ele><time>2026-05-02T14:35:24Z</time></trkpt><trkpt lat="45.90508264568041" lon="8.727646894465655"><ele>290.0</ele><time>2026-05-02T14:35:25Z</time></trkpt><trkpt lat="45.9051069371932" lon="8.727538131927112"><ele>290.0</ele><time>2026-05-02T14:35:26Z</time></trkpt><trkpt lat="45.90516377635403" lon="8.727424302482696"><ele>290.0</ele><time>2026-05-02T14:35:27Z</time></trkpt><trkpt lat="45.90519143153823" lon="8.727326938472817"><ele>290.0</ele><time>2026-05-02T14:35:28Z</time></trkpt><trkpt lat="45.905267136678866" lon="8.72717016193774"><ele>290.0</ele><time>2026-05-02T14:35:30Z</time></trkpt><trkpt lat="45.90532937606663" lon="8.72709422427645"><ele>290.0</ele><time>2026-05-02T14:35:31Z</time></trkpt><trkpt lat="45.90535887444712" lon="8.727001359832474"><ele>290.0</ele><time>2026-05-02T14:35:32Z</time></trkpt><trkpt lat="45.90536947662958" lon="8.726884020916666"><ele>290.0</ele><time>2026-05-02T14:35:33Z</time></trkpt><trkpt lat="45.905362507833956" lon="8.726751068836368"><ele>290.0</ele><time>2026-05-02T14:35:34Z</time></trkpt><trkpt lat="45.90535978613146" lon="8.726608395685554"><ele>290.0</ele><time>2026-05-02T14:35:35Z</time></trkpt><trkpt lat="45.905377548209664" lon="8.726461748040325"><ele>290.0</ele><time>2026-05-02T14:35:36Z</time></trkpt><trkpt lat="45.90539828212926" lon="8.726299146739445"><ele>289.5</ele><time>2026-05-02T14:35:37Z</time></trkpt><trkpt lat="45.90544011843177" lon="8.726134227083946"><ele>289.0</ele><time>2026-05-02T14:35:38Z</time></trkpt><trkpt lat="45.905479679003555" lon="8.725970328601603"><ele>288.5</ele><time>2026-05-02T14:35:39Z</time></trkpt><trkpt lat="45.90552077148592" lon="8.725795879148057"><ele>288.0</ele><time>2026-05-02T14:35:40Z</time></trkpt><trkpt lat="45.90556314701096" lon="8.725589644865261"><ele>287.5</ele><time>2026-05-02T14:35:41Z</time></trkpt><trkpt lat="45.90560089386969" lon="8.725417498920054"><ele>287.0</ele><time>2026-05-02T14:35:42Z</time></trkpt><trkpt lat="45.905654685530294" lon="8.725257470394421"><ele>286.5</ele><time>2026-05-02T14:35:43Z</time></trkpt><trkpt lat="45.905690140321944" lon="8.725124218552692"><ele>286.0</ele><time>2026-05-02T14:35:44Z</time></trkpt><trkpt lat="45.905724254429884" lon="8.724955604299156"><ele>285.5</ele><time>2026-05-02T14:35:45Z</time></trkpt><trkpt lat="45.905761306325374" lon="8.724771213268202"><ele>285.0</ele><time>2026-05-02T14:35:46Z</time></trkpt><trkpt lat="45.90580351148486" lon="8.724564818129647"><ele>284.5</ele><time>2026-05-02T14:35:47Z</time></trkpt><trkpt lat="45.90585864035383" lon="8.724344739936198"><ele>284.0</ele><time>2026-05-02T14:35:48Z</time></trkpt><trkpt lat="45.90590934623342" lon="8.724100158535819"><ele>284.0</ele><time>2026-05-02T14:35:49Z</time></trkpt><trkpt lat="45.90596913495549" lon="8.723854993612042"><ele>284.0</ele><time>2026-05-02T14:35:50Z</time></trkpt><trkpt lat="45.90602659532541" lon="8.723603004830231"><ele>284.0</ele><time>2026-05-02T14:35:51Z</time></trkpt><trkpt lat="45.906092505072984" lon="8.723355697374993"><ele>284.0</ele><time>2026-05-02T14:35:52Z</time></trkpt><trkpt lat="45.906147698738415" lon="8.723115324796238"><ele>284.0</ele><time>2026-05-02T14:35:53Z</time></trkpt><trkpt lat="45.90620328647027" lon="8.722894990778133"><ele>284.0</ele><time>2026-05-02T14:35:54Z</time></trkpt><trkpt lat="45.90625348482434" lon="8.72268300231016"><ele>283.75</ele><time>2026-05-02T14:35:55Z</time></trkpt><trkpt lat="45.906299079675485" lon="8.722479403724272"><ele>283.5</ele><time>2026-05-02T14:35:56Z</time></trkpt><trkpt lat="45.9063412988236" lon="8.722305655539015"><ele>283.25</ele><time>2026-05-02T14:35:57Z</time></trkpt><trkpt lat="45.906381562180215" lon="8.72213977265138"><ele>283.0</ele><time>2026-05-02T14:35:58Z</time></trkpt><trkpt lat="45.906419112759394" lon="8.721972339060459"><ele>283.5</ele><time>2026-05-02T14:35:59Z</time></trkpt><trkpt lat="45.90646339102338" lon="8.721792443293381"><ele>284.0</ele><time>2026-05-02T14:36:00Z</time></trkpt><trkpt lat="45.90650565223479" lon="8.721623237435567"><ele>284.5</ele><time>2026-05-02T14:36:01Z</time></trkpt><trkpt lat="45.90654124452751" lon="8.721457366398136"><ele>285.0</ele><time>2026-05-02T14:36:02Z</time></trkpt><trkpt lat="45.906580849269986" lon="8.721290897368908"><ele>285.0</ele><time>2026-05-02T14:36:03Z</time></trkpt><trkpt lat="45.90661478676979" lon="8.72112890643025"><ele>285.0</ele><time>2026-05-02T14:36:04Z</time></trkpt><trkpt lat="45.90664814482087" lon="8.720971029371796"><ele>285.0</ele><time>2026-05-02T14:36:05Z</time></trkpt><trkpt lat="45.906674176564266" lon="8.720818802134698"><ele>285.0</ele><time>2026-05-02T14:36:06Z</time></trkpt><trkpt lat="45.90668218166757" lon="8.720659681163994"><ele>285.5</ele><time>2026-05-02T14:36:07Z</time></trkpt><trkpt lat="45.90669121297114" lon="8.720488235851695"><ele>286.0</ele><time>2026-05-02T14:36:08Z</time></trkpt><trkpt lat="45.90669980493394" lon="8.72031397271491"><ele>286.5</ele><time>2026-05-02T14:36:09Z</time></trkpt><trkpt lat="45.90670549463089" lon="8.720157417606227"><ele>287.0</ele><time>2026-05-02T14:36:10Z</time></trkpt><trkpt lat="45.906707214298685" lon="8.720001876089116"><ele>287.0</ele><time>2026-05-02T14:36:11Z</time></trkpt><trkpt lat="45.90671690005285" lon="8.719825127243729"><ele>287.0</ele><time>2026-05-02T14:36:12Z</time></trkpt><trkpt lat="45.9067125714693" lon="8.719635364122533"><ele>287.0</ele><time>2026-05-02T14:36:13Z</time></trkpt><trkpt lat="45.90671788378781" lon="8.719412343483361"><ele>287.0</ele><time>2026-05-02T14:36:14Z</time></trkpt><trkpt lat="45.9067232240689" lon="8.719171512792679"><ele>287.33333333333337</ele><time>2026-05-02T14:36:15Z</time></trkpt><trkpt lat="45.906729780320106" lon="8.71891756133287"><ele>287.6666666666667</ele><time>2026-05-02T14:36:16Z</time></trkpt><trkpt lat="45.90675566560759" lon="8.718641959455326"><ele>288.0</ele><time>2026-05-02T14:36:17Z</time></trkpt><trkpt lat="45.90676666289104" lon="8.718378270424362"><ele>291.0</ele><time>2026-05-02T14:36:18Z</time></trkpt><trkpt lat="45.906771653056715" lon="8.718134712717978"><ele>294.0</ele><time>2026-05-02T14:36:19Z</time></trkpt><trkpt lat="45.90677394437635" lon="8.717899388228057"><ele>297.0</ele><time>2026-05-02T14:36:20Z</time></trkpt><trkpt lat="45.906758983971386" lon="8.717664313273904"><ele>295.0</ele><time>2026-05-02T14:36:21Z</time></trkpt><trkpt lat="45.906722648021685" lon="8.717395224556423"><ele>293.0</ele><time>2026-05-02T14:36:22Z</time></trkpt><trkpt lat="45.90667927420121" lon="8.717100689636318"><ele>291.0</ele><time>2026-05-02T14:36:23Z</time></trkpt><trkpt lat="45.90663260479637" lon="8.716805098500716"><ele>291.0</ele><time>2026-05-02T14:36:24Z</time></trkpt><trkpt lat="45.90660553994005" lon="8.716512465376617"><ele>291.0</ele><time>2026-05-02T14:36:25Z</time></trkpt><trkpt lat="45.90657067070828" lon="8.716249886265873"><ele>291.0</ele><time>2026-05-02T14:36:26Z</time></trkpt><trkpt lat="45.906516853027455" lon="8.715993362185962"><ele>291.0</ele><time>2026-05-02T14:36:27Z</time></trkpt><trkpt lat="45.90644706458129" lon="8.715738126505991"><ele>291.0</ele><time>2026-05-02T14:36:28Z</time></trkpt><trkpt lat="45.90637446018531" lon="8.715483068781861"><ele>291.0</ele><time>2026-05-02T14:36:29Z</time></trkpt><trkpt lat="45.906286054288394" lon="8.715239504749997"><ele>292.3333333333333</ele><time>2026-05-02T14:36:30Z</time></trkpt><trkpt lat="45.90619355081856" lon="8.714989522877323"><ele>293.66666666666663</ele><time>2026-05-02T14:36:31Z</time></trkpt><trkpt lat="45.906110703965666" lon="8.714737846333836"><ele>295.0</ele><time>2026-05-02T14:36:32Z</time></trkpt><trkpt lat="45.90603352819886" lon="8.714487414187879"><ele>295.3333333333333</ele><time>2026-05-02T14:36:33Z</time></trkpt><trkpt lat="45.90594169537567" lon="8.714224818768747"><ele>295.6666666666667</ele><time>2026-05-02T14:36:34Z</time></trkpt><trkpt lat="45.90586105366862" lon="8.713965188178538"><ele>296.0</ele><time>2026-05-02T14:36:35Z</time></trkpt><trkpt lat="45.9057476895245" lon="8.713728054968236"><ele>297.33333333333337</ele><time>2026-05-02T14:36:36Z</time></trkpt><trkpt lat="45.90562646262651" lon="8.713443273931738"><ele>298.6666666666667</ele><time>2026-05-02T14:36:37Z</time></trkpt><trkpt lat="45.90551996307877" lon="8.713176470521933"><ele>300.0</ele><time>2026-05-02T14:36:38Z</time></trkpt><trkpt lat="45.90555719365178" lon="8.713004014005305"><ele>300.0</ele><time>2026-05-02T14:36:39Z</time></trkpt><trkpt lat="45.90546389233705" lon="8.71276920715742"><ele>300.0</ele><time>2026-05-02T14:36:40Z</time></trkpt><trkpt lat="45.905343506593915" lon="8.712565550088966"><ele>300.0</ele><time>2026-05-02T14:36:41Z</time></trkpt><trkpt lat="45.90520285578286" lon="8.712360418197445"><ele>300.3333333333333</ele><time>2026-05-02T14:36:42Z</time></trkpt><trkpt lat="45.90506983755068" lon="8.712164449441191"><ele>300.66666666666663</ele><time>2026-05-02T14:36:43Z</time></trkpt><trkpt lat="45.90493654428334" lon="8.711951733748082"><ele>301.0</ele><time>2026-05-02T14:36:44Z</time></trkpt><trkpt lat="45.90480218578341" lon="8.711748110051259"><ele>301.66666666666663</ele><time>2026-05-02T14:36:45Z</time></trkpt><trkpt lat="45.90465628144683" lon="8.711546554192843"><ele>302.3333333333333</ele><time>2026-05-02T14:36:46Z</time></trkpt><trkpt lat="45.904526541682415" lon="8.711339565916575"><ele>303.0</ele><time>2026-05-02T14:36:47Z</time></trkpt><trkpt lat="45.90438548076228" lon="8.711125260258154"><ele>302.3333333333333</ele><time>2026-05-02T14:36:48Z</time></trkpt><trkpt lat="45.90424224245016" lon="8.71091400661536"><ele>301.66666666666663</ele><time>2026-05-02T14:36:49Z</time></trkpt><trkpt lat="45.90410400376494" lon="8.710714440644507"><ele>301.0</ele><time>2026-05-02T14:36:50Z</time></trkpt><trkpt lat="45.903972442135476" lon="8.710517786401983"><ele>301.0</ele><time>2026-05-02T14:36:51Z</time></trkpt><trkpt lat="45.9038519386172" lon="8.710326235656781"><ele>301.0</ele><time>2026-05-02T14:36:52Z</time></trkpt><trkpt lat="45.90373515265842" lon="8.71015850181651"><ele>301.0</ele><time>2026-05-02T14:36:53Z</time></trkpt><trkpt lat="45.903630702259775" lon="8.71000199359759"><ele>301.3333333333333</ele><time>2026-05-02T14:36:54Z</time></trkpt><trkpt lat="45.90351930272565" lon="8.709835573837116"><ele>301.6666666666667</ele><time>2026-05-02T14:36:55Z</time></trkpt><trkpt lat="45.90342082809241" lon="8.709681548844863"><ele>302.0</ele><time>2026-05-02T14:36:56Z</time></trkpt><trkpt lat="45.90331727940317" lon="8.709527624967597"><ele>303.25</ele><time>2026-05-02T14:36:57Z</time></trkpt><trkpt lat="45.903224536693706" lon="8.709377110006876"><ele>304.5</ele><time>2026-05-02T14:36:58Z</time></trkpt><trkpt lat="45.90314315256375" lon="8.70924608088617"><ele>305.75</ele><time>2026-05-02T14:36:59Z</time></trkpt><trkpt lat="45.90303905634243" lon="8.709111686417508"><ele>307.0</ele><time>2026-05-02T14:37:00Z</time></trkpt><trkpt lat="45.90295156510977" lon="8.708959106057964"><ele>307.0</ele><time>2026-05-02T14:37:01Z</time></trkpt><trkpt lat="45.90285069444981" lon="8.708785166600855"><ele>307.0</ele><time>2026-05-02T14:37:02Z</time></trkpt><trkpt lat="45.9027469772614" lon="8.708603917726764"><ele>307.0</ele><time>2026-05-02T14:37:03Z</time></trkpt><trkpt lat="45.90262919595204" lon="8.708435727258244"><ele>306.3333333333333</ele><time>2026-05-02T14:37:04Z</time></trkpt><trkpt lat="45.90251732515449" lon="8.708269487177306"><ele>305.6666666666667</ele><time>2026-05-02T14:37:05Z</time></trkpt><trkpt lat="45.90239745267137" lon="8.708113117177824"><ele>305.0</ele><time>2026-05-02T14:37:06Z</time></trkpt><trkpt lat="45.902285192748906" lon="8.707962145351567"><ele>305.0</ele><time>2026-05-02T14:37:07Z</time></trkpt><trkpt lat="45.90217603304118" lon="8.707817927579983"><ele>305.0</ele><time>2026-05-02T14:37:08Z</time></trkpt><trkpt lat="45.9020840147734" lon="8.707670546852453"><ele>305.0</ele><time>2026-05-02T14:37:09Z</time></trkpt><trkpt lat="45.90197555811656" lon="8.707523672442282"><ele>305.0</ele><time>2026-05-02T14:37:10Z</time></trkpt><trkpt lat="45.9018719877062" lon="8.707363428139253"><ele>304.33333333333337</ele><time>2026-05-02T14:37:11Z</time></trkpt><trkpt lat="45.901768815778475" lon="8.707210617929325"><ele>303.6666666666667</ele><time>2026-05-02T14:37:12Z</time></trkpt><trkpt lat="45.90164957147693" lon="8.707062840581136"><ele>303.0</ele><time>2026-05-02T14:37:13Z</time></trkpt><trkpt lat="45.90152581132854" lon="8.706888405907312"><ele>303.0</ele><time>2026-05-02T14:37:14Z</time></trkpt><trkpt lat="45.901391418828915" lon="8.706725924477714"><ele>303.0</ele><time>2026-05-02T14:37:15Z</time></trkpt><trkpt lat="45.90128369554331" lon="8.70656231926894"><ele>303.0</ele><time>2026-05-02T14:37:16Z</time></trkpt><trkpt lat="45.90115705167862" lon="8.706413018456871"><ele>303.0</ele><time>2026-05-02T14:37:17Z</time></trkpt><trkpt lat="45.901021454658014" lon="8.706274588202067"><ele>303.0</ele><time>2026-05-02T14:37:18Z</time></trkpt><trkpt lat="45.90088357816856" lon="8.706139799352623"><ele>303.0</ele><time>2026-05-02T14:37:19Z</time></trkpt><trkpt lat="45.90073673418123" lon="8.706009853897799"><ele>301.6666666666667</ele><time>2026-05-02T14:37:20Z</time></trkpt><trkpt lat="45.9005856993308" lon="8.705889649630201"><ele>300.33333333333337</ele><time>2026-05-02T14:37:21Z</time></trkpt><trkpt lat="45.900434834198734" lon="8.705769891489725"><ele>299.0</ele><time>2026-05-02T14:37:22Z</time></trkpt><trkpt lat="45.9002562202962" lon="8.70564699182982"><ele>299.0</ele><time>2026-05-02T14:37:23Z</time></trkpt><trkpt lat="45.90008661575701" lon="8.705518541681633"><ele>299.0</ele><time>2026-05-02T14:37:24Z</time></trkpt><trkpt lat="45.89988736247636" lon="8.705349582162654"><ele>299.0</ele><time>2026-05-02T14:37:25Z</time></trkpt><trkpt lat="45.89968368633893" lon="8.70516839817875"><ele>298.0</ele><time>2026-05-02T14:37:26Z</time></trkpt><trkpt lat="45.899441522872195" lon="8.704965714918618"><ele>297.0</ele><time>2026-05-02T14:37:27Z</time></trkpt><trkpt lat="45.899176932816" lon="8.704754186047353"><ele>297.0</ele><time>2026-05-02T14:37:28Z</time></trkpt><trkpt lat="45.898903528707784" lon="8.704523071284541"><ele>297.0</ele><time>2026-05-02T14:37:29Z</time></trkpt><trkpt lat="45.89860042136369" lon="8.704274362862636"><ele>293.0</ele><time>2026-05-02T14:37:30Z</time></trkpt><trkpt lat="45.89829953337202" lon="8.704037695851856"><ele>289.0</ele><time>2026-05-02T14:37:31Z</time></trkpt><trkpt lat="45.8979939481694" lon="8.703740826774965"><ele>291.0</ele><time>2026-05-02T14:37:32Z</time></trkpt><trkpt lat="45.897673561418095" lon="8.703424622193221"><ele>293.0</ele><time>2026-05-02T14:37:33Z</time></trkpt><trkpt lat="45.89736148512032" lon="8.703086982012563"><ele>293.0</ele><time>2026-05-02T14:37:34Z</time></trkpt><trkpt lat="45.89704087405491" lon="8.702759336309164"><ele>293.0</ele><time>2026-05-02T14:37:35Z</time></trkpt><trkpt lat="45.89673021844327" lon="8.70239013749315"><ele>291.0</ele><time>2026-05-02T14:37:36Z</time></trkpt><trkpt lat="45.89641709764433" lon="8.702015283304808"><ele>289.0</ele><time>2026-05-02T14:37:37Z</time></trkpt><trkpt lat="45.896123741342294" lon="8.701673203777773"><ele>287.5</ele><time>2026-05-02T14:37:38Z</time></trkpt><trkpt lat="45.89585908310948" lon="8.701333347775531"><ele>286.0</ele><time>2026-05-02T14:37:39Z</time></trkpt><trkpt lat="45.89561121355416" lon="8.701021018911586"><ele>286.0</ele><time>2026-05-02T14:37:40Z</time></trkpt><trkpt lat="45.89540885615287" lon="8.700670396649457"><ele>286.0</ele><time>2026-05-02T14:37:41Z</time></trkpt><trkpt lat="45.89520259821647" lon="8.700344518912122"><ele>284.5</ele><time>2026-05-02T14:37:42Z</time></trkpt><trkpt lat="45.8949954914323" lon="8.700035083375663"><ele>283.0</ele><time>2026-05-02T14:37:43Z</time></trkpt><trkpt lat="45.894805345863524" lon="8.699691506460418"><ele>284.0</ele><time>2026-05-02T14:37:44Z</time></trkpt><trkpt lat="45.89463509944032" lon="8.69937329774988"><ele>285.0</ele><time>2026-05-02T14:37:45Z</time></trkpt><trkpt lat="45.89447037693864" lon="8.699068073511178"><ele>285.0</ele><time>2026-05-02T14:37:46Z</time></trkpt><trkpt lat="45.894318467450574" lon="8.698760664312527"><ele>285.0</ele><time>2026-05-02T14:37:47Z</time></trkpt><trkpt lat="45.894176471039636" lon="8.698442769498188"><ele>283.0</ele><time>2026-05-02T14:37:48Z</time></trkpt><trkpt lat="45.894055910203306" lon="8.69813106974466"><ele>281.0</ele><time>2026-05-02T14:37:49Z</time></trkpt><trkpt lat="45.89394168788308" lon="8.697820544078606"><ele>281.0</ele><time>2026-05-02T14:37:50Z</time></trkpt><trkpt lat="45.89382038929696" lon="8.697505404670366"><ele>281.0</ele><time>2026-05-02T14:37:51Z</time></trkpt><trkpt lat="45.8937155058856" lon="8.697185347489992"><ele>281.0</ele><time>2026-05-02T14:37:52Z</time></trkpt><trkpt lat="45.8936226777131" lon="8.696868788184505"><ele>281.0</ele><time>2026-05-02T14:37:53Z</time></trkpt><trkpt lat="45.89353021361184" lon="8.696549365887737"><ele>281.0</ele><time>2026-05-02T14:37:54Z</time></trkpt><trkpt lat="45.89345258688715" lon="8.696235911590392"><ele>281.0</ele><time>2026-05-02T14:37:55Z</time></trkpt><trkpt lat="45.893374947652646" lon="8.695928835250688"><ele>279.6666666666667</ele><time>2026-05-02T14:37:56Z</time></trkpt><trkpt lat="45.89330274993747" lon="8.695621917915538"><ele>278.3333333333333</ele><time>2026-05-02T14:37:57Z</time></trkpt><trkpt lat="45.89323832745443" lon="8.695326677548776"><ele>277.0</ele><time>2026-05-02T14:37:58Z</time></trkpt><trkpt lat="45.8931786929948" lon="8.695029056452011"><ele>277.0</ele><time>2026-05-02T14:37:59Z</time></trkpt><trkpt lat="45.8931257501823" lon="8.694723734469214"><ele>277.0</ele><time>2026-05-02T14:38:00Z</time></trkpt><trkpt lat="45.89307943943064" lon="8.694451391983607"><ele>277.0</ele><time>2026-05-02T14:38:01Z</time></trkpt><trkpt lat="45.8930296805509" lon="8.69417609322414"><ele>277.3333333333333</ele><time>2026-05-02T14:38:02Z</time></trkpt><trkpt lat="45.89297643814191" lon="8.693896136344945"><ele>277.6666666666667</ele><time>2026-05-02T14:38:03Z</time></trkpt><trkpt lat="45.892924345314064" lon="8.693635929584614"><ele>278.0</ele><time>2026-05-02T14:38:04Z</time></trkpt><trkpt lat="45.89287635632849" lon="8.693396128290232"><ele>278.6666666666667</ele><time>2026-05-02T14:38:05Z</time></trkpt><trkpt lat="45.89284504532944" lon="8.693151927743333"><ele>279.3333333333333</ele><time>2026-05-02T14:38:06Z</time></trkpt><trkpt lat="45.89279109006961" lon="8.692943812934901"><ele>280.0</ele><time>2026-05-02T14:38:07Z</time></trkpt><trkpt lat="45.892753613881425" lon="8.69273708375418"><ele>280.0</ele><time>2026-05-02T14:38:08Z</time></trkpt><trkpt lat="45.89271984810873" lon="8.692550535114973"><ele>280.0</ele><time>2026-05-02T14:38:09Z</time></trkpt><trkpt lat="45.892688298355516" lon="8.692389643615517"><ele>280.0</ele><time>2026-05-02T14:38:10Z</time></trkpt><trkpt lat="45.89267777603682" lon="8.692245953217242"><ele>280.0</ele><time>2026-05-02T14:38:11Z</time></trkpt><trkpt lat="45.892640529863925" lon="8.692128537641128"><ele>280.0</ele><time>2026-05-02T14:38:12Z</time></trkpt><trkpt lat="45.89263951375663" lon="8.691999532632297"><ele>280.0</ele><time>2026-05-02T14:38:13Z</time></trkpt><trkpt lat="45.892640998049686" lon="8.691887709349757"><ele>280.0</ele><time>2026-05-02T14:38:14Z</time></trkpt><trkpt lat="45.8926590360534" lon="8.691786051830825"><ele>280.0</ele><time>2026-05-02T14:38:15Z</time></trkpt><trkpt lat="45.892722397815795" lon="8.69172655328182"><ele>280.0</ele><time>2026-05-02T14:38:16Z</time></trkpt><trkpt lat="45.8927447788645" lon="8.691596329784408"><ele>280.0</ele><time>2026-05-02T14:38:18Z</time></trkpt><trkpt lat="45.89279703643196" lon="8.691433440605984"><ele>280.0</ele><time>2026-05-02T14:38:20Z</time></trkpt><trkpt lat="45.8927506351717" lon="8.691346741950156"><ele>280.0</ele><time>2026-05-02T14:38:21Z</time></trkpt><trkpt lat="45.89265456428693" lon="8.69130125329975"><ele>280.0</ele><time>2026-05-02T14:38:22Z</time></trkpt><trkpt lat="45.89257062161812" lon="8.691262172090433"><ele>280.0</ele><time>2026-05-02T14:38:23Z</time></trkpt><trkpt lat="45.89250198991642" lon="8.691165966644165"><ele>280.0</ele><time>2026-05-02T14:38:24Z</time></trkpt><trkpt lat="45.892447074303966" lon="8.691023728848528"><ele>280.0</ele><time>2026-05-02T14:38:25Z</time></trkpt><trkpt lat="45.89238959691472" lon="8.690835319667974"><ele>277.66666666666663</ele><time>2026-05-02T14:38:26Z</time></trkpt><trkpt lat="45.892352744210726" lon="8.690639863876491"><ele>275.3333333333333</ele><time>2026-05-02T14:38:27Z</time></trkpt><trkpt lat="45.892313236942975" lon="8.690434836105757"><ele>273.0</ele><time>2026-05-02T14:38:28Z</time></trkpt><trkpt lat="45.8922777748571" lon="8.690192318061012"><ele>272.3333333333333</ele><time>2026-05-02T14:38:29Z</time></trkpt><trkpt lat="45.89225302532204" lon="8.689959206621143"><ele>271.66666666666663</ele><time>2026-05-02T14:38:30Z</time></trkpt><trkpt lat="45.89222264327236" lon="8.689717489517054"><ele>271.0</ele><time>2026-05-02T14:38:31Z</time></trkpt><trkpt lat="45.89219777127156" lon="8.68946346850583"><ele>271.0</ele><time>2026-05-02T14:38:32Z</time></trkpt><trkpt lat="45.892171837263255" lon="8.689181564378806"><ele>271.0</ele><time>2026-05-02T14:38:33Z</time></trkpt><trkpt lat="45.89214827259149" lon="8.688881199888922"><ele>271.0</ele><time>2026-05-02T14:38:34Z</time></trkpt><trkpt lat="45.89213033132853" lon="8.688557877088233"><ele>271.66666666666663</ele><time>2026-05-02T14:38:35Z</time></trkpt><trkpt lat="45.892118335504826" lon="8.688239424060246"><ele>272.3333333333333</ele><time>2026-05-02T14:38:36Z</time></trkpt><trkpt lat="45.89211626921605" lon="8.68794298420272"><ele>273.0</ele><time>2026-05-02T14:38:37Z</time></trkpt><trkpt lat="45.89211410497593" lon="8.68764396134817"><ele>273.3333333333333</ele><time>2026-05-02T14:38:38Z</time></trkpt><trkpt lat="45.892108567964065" lon="8.687339029610854"><ele>273.66666666666663</ele><time>2026-05-02T14:38:39Z</time></trkpt><trkpt lat="45.892096676790935" lon="8.687025648953385"><ele>274.0</ele><time>2026-05-02T14:38:40Z</time></trkpt><trkpt lat="45.89208389388935" lon="8.68670982873044"><ele>275.3333333333333</ele><time>2026-05-02T14:38:41Z</time></trkpt><trkpt lat="45.8920713773705" lon="8.686390953913573"><ele>276.6666666666667</ele><time>2026-05-02T14:38:42Z</time></trkpt><trkpt lat="45.89206614010301" lon="8.686078325181287"><ele>278.0</ele><time>2026-05-02T14:38:43Z</time></trkpt><trkpt lat="45.892070443054386" lon="8.685776991280825"><ele>278.0</ele><time>2026-05-02T14:38:44Z</time></trkpt><trkpt lat="45.892066177110735" lon="8.685480116116253"><ele>278.0</ele><time>2026-05-02T14:38:45Z</time></trkpt><trkpt lat="45.892059995101256" lon="8.685176223118383"><ele>278.0</ele><time>2026-05-02T14:38:46Z</time></trkpt><trkpt lat="45.892047085365206" lon="8.684869382597935"><ele>280.0</ele><time>2026-05-02T14:38:47Z</time></trkpt><trkpt lat="45.89203231639031" lon="8.684556432323534"><ele>282.0</ele><time>2026-05-02T14:38:48Z</time></trkpt><trkpt lat="45.89200278233957" lon="8.684218223578112"><ele>282.5</ele><time>2026-05-02T14:38:49Z</time></trkpt><trkpt lat="45.89198334896195" lon="8.683879350089663"><ele>283.0</ele><time>2026-05-02T14:38:50Z</time></trkpt><trkpt lat="45.89196182208403" lon="8.683543434646179"><ele>282.0</ele><time>2026-05-02T14:38:51Z</time></trkpt><trkpt lat="45.89194353217936" lon="8.68320072391411"><ele>281.0</ele><time>2026-05-02T14:38:52Z</time></trkpt><trkpt lat="45.8919249472156" lon="8.682861369084241"><ele>280.33333333333337</ele><time>2026-05-02T14:38:53Z</time></trkpt><trkpt lat="45.89189382165153" lon="8.682531213583488"><ele>279.6666666666667</ele><time>2026-05-02T14:38:54Z</time></trkpt><trkpt lat="45.89187647496874" lon="8.682228057458097"><ele>279.0</ele><time>2026-05-02T14:38:55Z</time></trkpt><trkpt lat="45.89185828856109" lon="8.681936699273544"><ele>276.3333333333333</ele><time>2026-05-02T14:38:56Z</time></trkpt><trkpt lat="45.89185080228065" lon="8.681647162864557"><ele>273.66666666666663</ele><time>2026-05-02T14:38:57Z</time></trkpt><trkpt lat="45.891827807222164" lon="8.681367027857668"><ele>271.0</ele><time>2026-05-02T14:38:58Z</time></trkpt><trkpt lat="45.89184983076813" lon="8.68108731093636"><ele>270.0</ele><time>2026-05-02T14:38:59Z</time></trkpt><trkpt lat="45.891848400494105" lon="8.680788380869002"><ele>269.0</ele><time>2026-05-02T14:39:00Z</time></trkpt><trkpt lat="45.891868103504265" lon="8.68046256339063"><ele>268.0</ele><time>2026-05-02T14:39:01Z</time></trkpt><trkpt lat="45.8918974404849" lon="8.680136040567309"><ele>268.0</ele><time>2026-05-02T14:39:02Z</time></trkpt><trkpt lat="45.89194419032243" lon="8.679809231730705"><ele>268.0</ele><time>2026-05-02T14:39:03Z</time></trkpt><trkpt lat="45.891998927018676" lon="8.679482262516728"><ele>267.66666666666663</ele><time>2026-05-02T14:39:04Z</time></trkpt><trkpt lat="45.89206304899429" lon="8.679169949587216"><ele>267.3333333333333</ele><time>2026-05-02T14:39:05Z</time></trkpt><trkpt lat="45.892121056506596" lon="8.678874910427838"><ele>267.0</ele><time>2026-05-02T14:39:06Z</time></trkpt><trkpt lat="45.89217645097464" lon="8.678609067194037"><ele>267.6666666666667</ele><time>2026-05-02T14:39:07Z</time></trkpt><trkpt lat="45.89222753429621" lon="8.678370640986865"><ele>268.33333333333337</ele><time>2026-05-02T14:39:08Z</time></trkpt><trkpt lat="45.89228102882734" lon="8.678150449440965"><ele>269.0</ele><time>2026-05-02T14:39:09Z</time></trkpt><trkpt lat="45.892318726348456" lon="8.677941717130595"><ele>269.33333333333337</ele><time>2026-05-02T14:39:10Z</time></trkpt><trkpt lat="45.89234453804439" lon="8.677733263573352"><ele>269.6666666666667</ele><time>2026-05-02T14:39:11Z</time></trkpt><trkpt lat="45.89235299413055" lon="8.677509521258996"><ele>270.0</ele><time>2026-05-02T14:39:12Z</time></trkpt><trkpt lat="45.89235829403416" lon="8.67728675457227"><ele>270.0</ele><time>2026-05-02T14:39:13Z</time></trkpt><trkpt lat="45.89236402135649" lon="8.677065936684368"><ele>270.0</ele><time>2026-05-02T14:39:14Z</time></trkpt><trkpt lat="45.89235132345872" lon="8.67685314283064"><ele>270.0</ele><time>2026-05-02T14:39:15Z</time></trkpt><trkpt lat="45.89234359010988" lon="8.676633579185522"><ele>268.0</ele><time>2026-05-02T14:39:16Z</time></trkpt><trkpt lat="45.89232131824205" lon="8.676405908303641"><ele>266.0</ele><time>2026-05-02T14:39:17Z</time></trkpt><trkpt lat="45.892284358722144" lon="8.67615919816827"><ele>264.0</ele><time>2026-05-02T14:39:18Z</time></trkpt><trkpt lat="45.892231097161" lon="8.67591183662287"><ele>263.0</ele><time>2026-05-02T14:39:19Z</time></trkpt><trkpt lat="45.892174402576416" lon="8.675651452137542"><ele>262.0</ele><time>2026-05-02T14:39:20Z</time></trkpt><trkpt lat="45.892109402186485" lon="8.675384217120115"><ele>261.0</ele><time>2026-05-02T14:39:21Z</time></trkpt><trkpt lat="45.892011975644486" lon="8.674793007974714"><ele>260.0</ele><time>2026-05-02T14:39:23Z</time></trkpt><trkpt lat="45.89194860503487" lon="8.67444970059807"><ele>259.0</ele><time>2026-05-02T14:39:24Z</time></trkpt><trkpt lat="45.89188862718325" lon="8.674122608889954"><ele>257.5</ele><time>2026-05-02T14:39:25Z</time></trkpt><trkpt lat="45.89183265275909" lon="8.67378522364614"><ele>256.0</ele><time>2026-05-02T14:39:26Z</time></trkpt><trkpt lat="45.89175763915474" lon="8.673450800429736"><ele>260.5</ele><time>2026-05-02T14:39:27Z</time></trkpt><trkpt lat="45.891685659178385" lon="8.673129901740833"><ele>265.0</ele><time>2026-05-02T14:39:28Z</time></trkpt><trkpt lat="45.89156454562557" lon="8.672823443560196"><ele>261.0</ele><time>2026-05-02T14:39:29Z</time></trkpt><trkpt lat="45.89149541874875" lon="8.672523124668745"><ele>257.0</ele><time>2026-05-02T14:39:30Z</time></trkpt><trkpt lat="45.89143017565502" lon="8.672235463024107"><ele>253.0</ele><time>2026-05-02T14:39:31Z</time></trkpt><trkpt lat="45.8913687006753" lon="8.671957798902277"><ele>251.33333333333331</ele><time>2026-05-02T14:39:32Z</time></trkpt><trkpt lat="45.89130208034893" lon="8.67170234779578"><ele>249.66666666666669</ele><time>2026-05-02T14:39:33Z</time></trkpt><trkpt lat="45.89123369058776" lon="8.67145734443459"><ele>248.0</ele><time>2026-05-02T14:39:34Z</time></trkpt><trkpt lat="45.89118017551134" lon="8.671239047230985"><ele>247.8</ele><time>2026-05-02T14:39:35Z</time></trkpt><trkpt lat="45.891130213006576" lon="8.671041017655762"><ele>247.60000000000002</ele><time>2026-05-02T14:39:36Z</time></trkpt><trkpt lat="45.89110118050732" lon="8.670881591600269"><ele>247.39999999999998</ele><time>2026-05-02T14:39:37Z</time></trkpt><trkpt lat="45.891088160226765" lon="8.67074177033349"><ele>247.2</ele><time>2026-05-02T14:39:38Z</time></trkpt><trkpt lat="45.89106863813911" lon="8.67061641148783"><ele>247.0</ele><time>2026-05-02T14:39:39Z</time></trkpt><trkpt lat="45.891062610338615" lon="8.670509039988186"><ele>246.99999999999997</ele><time>2026-05-02T14:39:40Z</time></trkpt><trkpt lat="45.89106044303277" lon="8.670405705457133"><ele>247.0</ele><time>2026-05-02T14:39:41Z</time></trkpt><trkpt lat="45.89107771141108" lon="8.670297613015158"><ele>247.0</ele><time>2026-05-02T14:39:42Z</time></trkpt><trkpt lat="45.89111699093466" lon="8.6701898085528"><ele>247.0</ele><time>2026-05-02T14:39:43Z</time></trkpt><trkpt lat="45.891196869982636" lon="8.67013502139714"><ele>246.99999999999997</ele><time>2026-05-02T14:39:44Z</time></trkpt><trkpt lat="45.89127501186353" lon="8.670023559082454"><ele>247.0</ele><time>2026-05-02T14:39:45Z</time></trkpt><trkpt lat="45.89136613873346" lon="8.669962168634749"><ele>246.75</ele><time>2026-05-02T14:39:46Z</time></trkpt><trkpt lat="45.891472419192056" lon="8.669906660728937"><ele>246.5</ele><time>2026-05-02T14:39:47Z</time></trkpt><trkpt lat="45.891589903537614" lon="8.669955250494558"><ele>246.25</ele><time>2026-05-02T14:39:48Z</time></trkpt><trkpt lat="45.89170835418397" lon="8.669935026470256"><ele>246.0</ele><time>2026-05-02T14:39:49Z</time></trkpt><trkpt lat="45.89182657826875" lon="8.66991484114278"><ele>245.75</ele><time>2026-05-02T14:39:50Z</time></trkpt><trkpt lat="45.89199566040951" lon="8.669865865002901"><ele>245.5</ele><time>2026-05-02T14:39:51Z</time></trkpt><trkpt lat="45.89211974755486" lon="8.669847408825387"><ele>245.25</ele><time>2026-05-02T14:39:52Z</time></trkpt><trkpt lat="45.89225126488856" lon="8.66983311450455"><ele>245.0</ele><time>2026-05-02T14:39:53Z</time></trkpt><trkpt lat="45.892360275209356" lon="8.669813642572624"><ele>245.0</ele><time>2026-05-02T14:39:54Z</time></trkpt><trkpt lat="45.89247791275799" lon="8.669791361933727"><ele>245.0</ele><time>2026-05-02T14:39:55Z</time></trkpt><trkpt lat="45.89260188773448" lon="8.669769284340216"><ele>245.0</ele><time>2026-05-02T14:39:56Z</time></trkpt><trkpt lat="45.89275296803444" lon="8.6697570273493"><ele>245.0</ele><time>2026-05-02T14:39:57Z</time></trkpt><trkpt lat="45.89288492085827" lon="8.669735607416849"><ele>245.0</ele><time>2026-05-02T14:39:58Z</time></trkpt><trkpt lat="45.89301938422369" lon="8.669710607000338"><ele>245.0</ele><time>2026-05-02T14:39:59Z</time></trkpt><trkpt lat="45.893148793455424" lon="8.669686913964705"><ele>245.0</ele><time>2026-05-02T14:40:00Z</time></trkpt><trkpt lat="45.893270286421675" lon="8.66967222253648"><ele>245.0</ele><time>2026-05-02T14:40:01Z</time></trkpt><trkpt lat="45.89338484120428" lon="8.669649186895949"><ele>245.8</ele><time>2026-05-02T14:40:02Z</time></trkpt><trkpt lat="45.89349219035951" lon="8.669630015362761"><ele>246.6</ele><time>2026-05-02T14:40:03Z</time></trkpt><trkpt lat="45.89359300264538" lon="8.669609652751285"><ele>247.39999999999998</ele><time>2026-05-02T14:40:04Z</time></trkpt><trkpt lat="45.89369223788838" lon="8.66959292271633"><ele>248.2</ele><time>2026-05-02T14:40:05Z</time></trkpt><trkpt lat="45.89378773622022" lon="8.66957600223338"><ele>249.0</ele><time>2026-05-02T14:40:06Z</time></trkpt><trkpt lat="45.893873291218746" lon="8.669556946601721"><ele>249.0</ele><time>2026-05-02T14:40:07Z</time></trkpt><trkpt lat="45.893947924309145" lon="8.669549346163105"><ele>249.0</ele><time>2026-05-02T14:40:08Z</time></trkpt><trkpt lat="45.8940628856556" lon="8.669572311036047"><ele>249.0</ele><time>2026-05-02T14:40:10Z</time></trkpt><trkpt lat="45.89411383810763" lon="8.669658194516588"><ele>249.0</ele><time>2026-05-02T14:40:11Z</time></trkpt><trkpt lat="45.89419870397357" lon="8.669768726569234"><ele>249.0</ele><time>2026-05-02T14:40:13Z</time></trkpt><trkpt lat="45.894262880950976" lon="8.669762895146622"><ele>249.0</ele><time>2026-05-02T14:40:14Z</time></trkpt><trkpt lat="45.89429148586551" lon="8.669549327112017"><ele>248.6</ele><time>2026-05-02T14:40:15Z</time></trkpt><trkpt lat="45.89427502596553" lon="8.66942822216746"><ele>248.2</ele><time>2026-05-02T14:40:16Z</time></trkpt><trkpt lat="45.89426965013951" lon="8.669310464764974"><ele>247.79999999999998</ele><time>2026-05-02T14:40:17Z</time></trkpt><trkpt lat="45.89429788785654" lon="8.669161401564164"><ele>247.39999999999998</ele><time>2026-05-02T14:40:18Z</time></trkpt><trkpt lat="45.894346545702895" lon="8.669004371620977"><ele>247.0</ele><time>2026-05-02T14:40:19Z</time></trkpt><trkpt lat="45.89439658988159" lon="8.668860795344756"><ele>247.0</ele><time>2026-05-02T14:40:20Z</time></trkpt><trkpt lat="45.89444167908816" lon="8.668706180194114"><ele>247.0</ele><time>2026-05-02T14:40:21Z</time></trkpt><trkpt lat="45.89447446305386" lon="8.66855907085406"><ele>247.0</ele><time>2026-05-02T14:40:22Z</time></trkpt><trkpt lat="45.894520218079194" lon="8.66836192716363"><ele>247.0</ele><time>2026-05-02T14:40:23Z</time></trkpt><trkpt lat="45.89456544518379" lon="8.668135107397324"><ele>246.66666666666666</ele><time>2026-05-02T14:40:24Z</time></trkpt><trkpt lat="45.8946303455219" lon="8.667913788686361"><ele>246.33333333333331</ele><time>2026-05-02T14:40:25Z</time></trkpt><trkpt lat="45.89468648220786" lon="8.66768637571508"><ele>246.0</ele><time>2026-05-02T14:40:26Z</time></trkpt><trkpt lat="45.894735886220396" lon="8.667461991553756"><ele>245.0</ele><time>2026-05-02T14:40:27Z</time></trkpt><trkpt lat="45.89479481848392" lon="8.667260009313278"><ele>244.0</ele><time>2026-05-02T14:40:28Z</time></trkpt><trkpt lat="45.894874523787095" lon="8.667074725992075"><ele>243.0</ele><time>2026-05-02T14:40:29Z</time></trkpt><trkpt lat="45.89496919890401" lon="8.666900137382521"><ele>242.33333333333331</ele><time>2026-05-02T14:40:30Z</time></trkpt><trkpt lat="45.895080478948984" lon="8.666718970503519"><ele>241.66666666666666</ele><time>2026-05-02T14:40:31Z</time></trkpt><trkpt lat="45.89516117180282" lon="8.666545982241423"><ele>241.0</ele><time>2026-05-02T14:40:32Z</time></trkpt><trkpt lat="45.89524448731573" lon="8.666389974453024"><ele>242.5</ele><time>2026-05-02T14:40:33Z</time></trkpt><trkpt lat="45.895327219762216" lon="8.666240600786866"><ele>244.0</ele><time>2026-05-02T14:40:34Z</time></trkpt><trkpt lat="45.89539519866861" lon="8.666089204647557"><ele>245.5</ele><time>2026-05-02T14:40:35Z</time></trkpt><trkpt lat="45.89545537102866" lon="8.665938865813075"><ele>247.0</ele><time>2026-05-02T14:40:36Z</time></trkpt><trkpt lat="45.8955097362999" lon="8.665789098262383"><ele>247.0</ele><time>2026-05-02T14:40:37Z</time></trkpt><trkpt lat="45.895563388144105" lon="8.665633700500573"><ele>247.0</ele><time>2026-05-02T14:40:38Z</time></trkpt><trkpt lat="45.89554985960592" lon="8.66550182447196"><ele>247.0</ele><time>2026-05-02T14:40:39Z</time></trkpt><trkpt lat="45.89551950158655" lon="8.665369172757392"><ele>247.0</ele><time>2026-05-02T14:40:40Z</time></trkpt><trkpt lat="45.89549582365382" lon="8.665219770403214"><ele>247.0</ele><time>2026-05-02T14:40:41Z</time></trkpt><trkpt lat="45.89547065732491" lon="8.665122525357642"><ele>246.99999999999997</ele><time>2026-05-02T14:40:42Z</time></trkpt><trkpt lat="45.89542574231606" lon="8.66503423311199"><ele>247.0</ele><time>2026-05-02T14:40:43Z</time></trkpt><trkpt lat="45.89539157079026" lon="8.664937584206745"><ele>247.0</ele><time>2026-05-02T14:40:44Z</time></trkpt><trkpt lat="45.89536546764092" lon="8.664833070885134"><ele>247.0</ele><time>2026-05-02T14:40:45Z</time></trkpt><trkpt lat="45.895358328796085" lon="8.664714191615467"><ele>246.99999999999997</ele><time>2026-05-02T14:40:46Z</time></trkpt><trkpt lat="45.89531843606502" lon="8.664592124855234"><ele>247.0</ele><time>2026-05-02T14:40:47Z</time></trkpt><trkpt lat="45.8952950135671" lon="8.664441692655691"><ele>247.25</ele><time>2026-05-02T14:40:48Z</time></trkpt><trkpt lat="45.895265409900944" lon="8.664302786288243"><ele>247.5</ele><time>2026-05-02T14:40:49Z</time></trkpt><trkpt lat="45.89526554947107" lon="8.664125304249373"><ele>247.75</ele><time>2026-05-02T14:40:50Z</time></trkpt><trkpt lat="45.89522964850871" lon="8.66396616288606"><ele>248.0</ele><time>2026-05-02T14:40:51Z</time></trkpt><trkpt lat="45.89518360307834" lon="8.663762091420923"><ele>247.5</ele><time>2026-05-02T14:40:52Z</time></trkpt><trkpt lat="45.89514345918898" lon="8.663575010498372"><ele>247.0</ele><time>2026-05-02T14:40:53Z</time></trkpt><trkpt lat="45.89514055795936" lon="8.663415172014338"><ele>246.5</ele><time>2026-05-02T14:40:54Z</time></trkpt><trkpt lat="45.89509349512782" lon="8.663236960466943"><ele>246.0</ele><time>2026-05-02T14:40:55Z</time></trkpt><trkpt lat="45.895052989817614" lon="8.663042305152976"><ele>244.33333333333331</ele><time>2026-05-02T14:40:56Z</time></trkpt><trkpt lat="45.8950110619828" lon="8.662821655693762"><ele>242.66666666666666</ele><time>2026-05-02T14:40:57Z</time></trkpt><trkpt lat="45.89494664357327" lon="8.662575157385946"><ele>241.0</ele><time>2026-05-02T14:40:58Z</time></trkpt><trkpt lat="45.894902416706" lon="8.662311214717485"><ele>241.0</ele><time>2026-05-02T14:40:59Z</time></trkpt><trkpt lat="45.89485519882935" lon="8.662096852265684"><ele>241.0</ele><time>2026-05-02T14:41:00Z</time></trkpt><trkpt lat="45.89481859913073" lon="8.66187632094925"><ele>241.0</ele><time>2026-05-02T14:41:01Z</time></trkpt><trkpt lat="45.894776973182324" lon="8.661673703640647"><ele>241.25</ele><time>2026-05-02T14:41:02Z</time></trkpt><trkpt lat="45.89474098009934" lon="8.661502406882231"><ele>241.5</ele><time>2026-05-02T14:41:03Z</time></trkpt><trkpt lat="45.89473074748201" lon="8.661325896262824"><ele>241.75</ele><time>2026-05-02T14:41:04Z</time></trkpt><trkpt lat="45.8947210531333" lon="8.661163982510057"><ele>242.0</ele><time>2026-05-02T14:41:05Z</time></trkpt><trkpt lat="45.894718643665115" lon="8.661005290874238"><ele>242.2</ele><time>2026-05-02T14:41:06Z</time></trkpt><trkpt lat="45.89472191886962" lon="8.660854103171346"><ele>242.39999999999998</ele><time>2026-05-02T14:41:07Z</time></trkpt><trkpt lat="45.89472517987004" lon="8.660690500183874"><ele>242.60000000000002</ele><time>2026-05-02T14:41:08Z</time></trkpt><trkpt lat="45.89474039523963" lon="8.660540371671742"><ele>242.8</ele><time>2026-05-02T14:41:09Z</time></trkpt><trkpt lat="45.894749754615894" lon="8.66038896686817"><ele>243.0</ele><time>2026-05-02T14:41:10Z</time></trkpt><trkpt lat="45.894757452144155" lon="8.660236724246522"><ele>243.4</ele><time>2026-05-02T14:41:11Z</time></trkpt><trkpt lat="45.89476611062742" lon="8.66007054012097"><ele>243.8</ele><time>2026-05-02T14:41:12Z</time></trkpt><trkpt lat="45.89477218926209" lon="8.659927354544374"><ele>244.2</ele><time>2026-05-02T14:41:13Z</time></trkpt><trkpt lat="45.89478247113422" lon="8.659786818774714"><ele>244.6</ele><time>2026-05-02T14:41:14Z</time></trkpt><trkpt lat="45.894787558910764" lon="8.659652806006521"><ele>245.0</ele><time>2026-05-02T14:41:15Z</time></trkpt><trkpt lat="45.89479394416736" lon="8.65949224739626"><ele>244.25</ele><time>2026-05-02T14:41:16Z</time></trkpt><trkpt lat="45.89479957992224" lon="8.65929262317428"><ele>243.5</ele><time>2026-05-02T14:41:17Z</time></trkpt><trkpt lat="45.894819676915546" lon="8.65908890269989"><ele>242.75</ele><time>2026-05-02T14:41:18Z</time></trkpt><trkpt lat="45.894840107240555" lon="8.658871669362656"><ele>242.0</ele><time>2026-05-02T14:41:19Z</time></trkpt><trkpt lat="45.89486698998491" lon="8.658663189709122"><ele>241.75</ele><time>2026-05-02T14:41:20Z</time></trkpt><trkpt lat="45.89487764237068" lon="8.658476255607717"><ele>241.5</ele><time>2026-05-02T14:41:21Z</time></trkpt><trkpt lat="45.894875571780574" lon="8.658317013497879"><ele>241.25</ele><time>2026-05-02T14:41:22Z</time></trkpt><trkpt lat="45.89488285161112" lon="8.65814172036079"><ele>241.0</ele><time>2026-05-02T14:41:23Z</time></trkpt><trkpt lat="45.89489075542321" lon="8.657951930858736"><ele>241.25</ele><time>2026-05-02T14:41:24Z</time></trkpt><trkpt lat="45.8948967719352" lon="8.657762192312228"><ele>241.5</ele><time>2026-05-02T14:41:25Z</time></trkpt><trkpt lat="45.894903830051454" lon="8.657587478963372"><ele>241.75</ele><time>2026-05-02T14:41:26Z</time></trkpt><trkpt lat="45.894908589022705" lon="8.65740170022299"><ele>242.0</ele><time>2026-05-02T14:41:27Z</time></trkpt><trkpt lat="45.89491233803116" lon="8.65722338364466"><ele>242.0</ele><time>2026-05-02T14:41:28Z</time></trkpt><trkpt lat="45.89490786226996" lon="8.657061065033933"><ele>242.0</ele><time>2026-05-02T14:41:29Z</time></trkpt><trkpt lat="45.89490246687042" lon="8.656900395007495"><ele>242.0</ele><time>2026-05-02T14:41:30Z</time></trkpt><trkpt lat="45.89490162604171" lon="8.656780249886758"><ele>242.0</ele><time>2026-05-02T14:41:31Z</time></trkpt><trkpt lat="45.894937382610294" lon="8.656657240804952"><ele>242.0</ele><time>2026-05-02T14:41:33Z</time></trkpt><trkpt lat="45.89500426747136" lon="8.656649861814211"><ele>242.66666666666669</ele><time>2026-05-02T14:41:34Z</time></trkpt><trkpt lat="45.895094170007496" lon="8.656730625314767"><ele>243.33333333333334</ele><time>2026-05-02T14:41:36Z</time></trkpt><trkpt lat="45.8951773628173" lon="8.656722599173127"><ele>244.0</ele><time>2026-05-02T14:41:37Z</time></trkpt><trkpt lat="45.895241339595586" lon="8.656751685028302"><ele>244.66666666666669</ele><time>2026-05-02T14:41:38Z</time></trkpt><trkpt lat="45.89532441115721" lon="8.656764946892213"><ele>245.33333333333334</ele><time>2026-05-02T14:41:39Z</time></trkpt><trkpt lat="45.89542894085052" lon="8.65678489712944"><ele>246.0</ele><time>2026-05-02T14:41:40Z</time></trkpt><trkpt lat="45.89552790076791" lon="8.656800448992424"><ele>246.0</ele><time>2026-05-02T14:41:41Z</time></trkpt><trkpt lat="45.8956148073322" lon="8.656864160369848"><ele>246.0</ele><time>2026-05-02T14:41:42Z</time></trkpt><trkpt lat="45.89575809974303" lon="8.656863108078356"><ele>246.0</ele><time>2026-05-02T14:41:43Z</time></trkpt><trkpt lat="45.895874584993344" lon="8.656868578898608"><ele>246.0</ele><time>2026-05-02T14:41:44Z</time></trkpt><trkpt lat="45.896008867291215" lon="8.656898231222339"><ele>247.0</ele><time>2026-05-02T14:41:45Z</time></trkpt><trkpt lat="45.89616165753708" lon="8.65692743362798"><ele>248.0</ele><time>2026-05-02T14:41:46Z</time></trkpt><trkpt lat="45.89627084963518" lon="8.656950418590622"><ele>249.0</ele><time>2026-05-02T14:41:47Z</time></trkpt><trkpt lat="45.89639428147944" lon="8.656969672952647"><ele>250.0</ele><time>2026-05-02T14:41:48Z</time></trkpt><trkpt lat="45.896506135606316" lon="8.656978347644394"><ele>250.0</ele><time>2026-05-02T14:41:49Z</time></trkpt><trkpt lat="45.8966180213748" lon="8.656943736993204"><ele>250.0</ele><time>2026-05-02T14:41:50Z</time></trkpt><trkpt lat="45.8967393226545" lon="8.656854183412262"><ele>250.0</ele><time>2026-05-02T14:41:51Z</time></trkpt><trkpt lat="45.89683168132133" lon="8.656780107730944"><ele>250.0</ele><time>2026-05-02T14:41:52Z</time></trkpt><trkpt lat="45.89691273856917" lon="8.656725497210122"><ele>250.0</ele><time>2026-05-02T14:41:53Z</time></trkpt><trkpt lat="45.89699244896272" lon="8.656684085179236"><ele>250.16666666666666</ele><time>2026-05-02T14:41:55Z</time></trkpt><trkpt lat="45.89696234095714" lon="8.65651989616583"><ele>250.33333333333331</ele><time>2026-05-02T14:41:59Z</time></trkpt><trkpt lat="45.89692459052435" lon="8.656440592392821"><ele>250.5</ele><time>2026-05-02T14:42:00Z</time></trkpt><trkpt lat="45.896869495308614" lon="8.65633671168422"><ele>250.66666666666669</ele><time>2026-05-02T14:42:01Z</time></trkpt><trkpt lat="45.896835226497714" lon="8.656251129958893"><ele>250.83333333333334</ele><time>2026-05-02T14:42:02Z</time></trkpt><trkpt lat="45.89685218914461" lon="8.656140346143324"><ele>251.0</ele><time>2026-05-02T14:42:03Z</time></trkpt><trkpt lat="45.89689569153585" lon="8.656032141045758"><ele>251.0</ele><time>2026-05-02T14:42:04Z</time></trkpt><trkpt lat="45.89696798322205" lon="8.65590169014826"><ele>251.00000000000003</ele><time>2026-05-02T14:42:05Z</time></trkpt><trkpt lat="45.89701602103674" lon="8.655803748875242"><ele>251.00000000000003</ele><time>2026-05-02T14:42:06Z</time></trkpt><trkpt lat="45.89705749943002" lon="8.655702424236233"><ele>251.0</ele><time>2026-05-02T14:42:07Z</time></trkpt><trkpt lat="45.89711633952573" lon="8.65557288027914"><ele>251.0</ele><time>2026-05-02T14:42:08Z</time></trkpt><trkpt lat="45.89715375206075" lon="8.65545635598368"><ele>251.0</ele><time>2026-05-02T14:42:09Z</time></trkpt><trkpt lat="45.89713830191981" lon="8.655318092210852"><ele>251.00000000000003</ele><time>2026-05-02T14:42:10Z</time></trkpt><trkpt lat="45.89715810663283" lon="8.655224566491516"><ele>251.00000000000003</ele><time>2026-05-02T14:42:11Z</time></trkpt><trkpt lat="45.8971977057463" lon="8.655057552795597"><ele>251.0</ele><time>2026-05-02T14:42:13Z</time></trkpt><trkpt lat="45.897250308938936" lon="8.654900813646254"><ele>251.0</ele><time>2026-05-02T14:42:15Z</time></trkpt><trkpt lat="45.897207128909244" lon="8.654772513240456"><ele>248.0</ele><time>2026-05-02T14:42:17Z</time></trkpt><trkpt lat="45.89712328966741" lon="8.654704893413108"><ele>248.0</ele><time>2026-05-02T14:42:19Z</time></trkpt><trkpt lat="45.89706091546526" lon="8.654650577253715"><ele>248.0</ele><time>2026-05-02T14:42:21Z</time></trkpt><trkpt lat="45.897009825673315" lon="8.654596735393957"><ele>248.0</ele><time>2026-05-02T14:42:50Z</time></trkpt><trkpt lat="45.89696718931755" lon="8.654764456500791"><ele>248.0</ele><time>2026-05-02T14:42:55Z</time></trkpt></trkseg></trk></gpx>